<?xml version='1.0' encoding='UTF-8'?><gpx version="1.1" creator="JPX - https://github.com/jenetics/jpx" xmlns="http://www.topografix.com/GPX/1/1"><trk><trkseg><trkpt lat="44.82025276915668" lon="8.057575421257155"><ele>161.0</ele><time>2026-04-19T06:38:58Z</time></trkpt><trkpt lat="44.8202265931019" lon="8.057488055048529"><ele>161.0</ele><time>2026-04-19T06:41:31Z</time></trkpt><trkpt lat="44.82018046124227" lon="8.057363962893298"><ele>161.0</ele><time>2026-04-19T06:41:34Z</time></trkpt><trkpt lat="44.82015314284876" lon="8.057192068562408"><ele>161.0</ele><time>2026-04-19T06:41:36Z</time></trkpt><trkpt lat="44.820139314717636" lon="8.05709422763013"><ele>161.0</ele><time>2026-04-19T06:41:38Z</time></trkpt><trkpt lat="44.820128413215784" lon="8.056982259823537"><ele>161.0</ele><time>2026-04-19T06:41:40Z</time></trkpt><trkpt lat="44.82009848217327" lon="8.05684306408094"><ele>161.0</ele><time>2026-04-19T06:41:42Z</time></trkpt><trkpt lat="44.82003518467232" lon="8.056721416934018"><ele>161.0</ele><time>2026-04-19T06:41:44Z</time></trkpt><trkpt lat="44.81998009116047" lon="8.056676557379664"><ele>161.0</ele><time>2026-04-19T06:41:45Z</time></trkpt><trkpt lat="44.81992888925791" lon="8.0566129558756"><ele>161.0</ele><time>2026-04-19T06:41:46Z</time></trkpt><trkpt lat="44.819882984560024" lon="8.056516652227147"><ele>161.0</ele><time>2026-04-19T06:41:47Z</time></trkpt><trkpt lat="44.81984445033403" lon="8.056407828410226"><ele>161.0</ele><time>2026-04-19T06:41:48Z</time></trkpt><trkpt lat="44.81979781443539" lon="8.05630582475226"><ele>161.16666666666666</ele><time>2026-04-19T06:41:49Z</time></trkpt><trkpt lat="44.8197436534313" lon="8.056197602476571"><ele>161.33333333333331</ele><time>2026-04-19T06:41:50Z</time></trkpt><trkpt lat="44.81970259960284" lon="8.056092519023244"><ele>161.5</ele><time>2026-04-19T06:41:51Z</time></trkpt><trkpt lat="44.81966105067294" lon="8.055994657151098"><ele>161.66666666666666</ele><time>2026-04-19T06:41:52Z</time></trkpt><trkpt lat="44.81961884100087" lon="8.055884682234309"><ele>161.83333333333334</ele><time>2026-04-19T06:41:53Z</time></trkpt><trkpt lat="44.81957432958086" lon="8.055766990520365"><ele>162.0</ele><time>2026-04-19T06:41:54Z</time></trkpt><trkpt lat="44.81953580193479" lon="8.055653319138278"><ele>161.8</ele><time>2026-04-19T06:41:55Z</time></trkpt><trkpt lat="44.81949223760161" lon="8.055535169958132"><ele>161.6</ele><time>2026-04-19T06:41:56Z</time></trkpt><trkpt lat="44.81943262283681" lon="8.05541617547106"><ele>161.4</ele><time>2026-04-19T06:41:57Z</time></trkpt><trkpt lat="44.819380610707775" lon="8.05530619525296"><ele>161.20000000000002</ele><time>2026-04-19T06:41:58Z</time></trkpt><trkpt lat="44.819329726434695" lon="8.055191937619936"><ele>161.0</ele><time>2026-04-19T06:41:59Z</time></trkpt><trkpt lat="44.819279488593814" lon="8.055076846360608"><ele>161.0</ele><time>2026-04-19T06:42:00Z</time></trkpt><trkpt lat="44.81923394784433" lon="8.05495134794713"><ele>161.0</ele><time>2026-04-19T06:42:01Z</time></trkpt><trkpt lat="44.81918675806785" lon="8.054829360969185"><ele>161.0</ele><time>2026-04-19T06:42:02Z</time></trkpt><trkpt lat="44.81913723626655" lon="8.054700397281529"><ele>161.0</ele><time>2026-04-19T06:42:03Z</time></trkpt><trkpt lat="44.81908215993649" lon="8.054571096913028"><ele>161.0</ele><time>2026-04-19T06:42:04Z</time></trkpt><trkpt lat="44.81903342735129" lon="8.054432957840719"><ele>161.0</ele><time>2026-04-19T06:42:05Z</time></trkpt><trkpt lat="44.81898648706955" lon="8.054294666546236"><ele>161.0</ele><time>2026-04-19T06:42:06Z</time></trkpt><trkpt lat="44.818943625763154" lon="8.054141287885134"><ele>161.0</ele><time>2026-04-19T06:42:07Z</time></trkpt><trkpt lat="44.818909993791415" lon="8.053979087431905"><ele>161.0</ele><time>2026-04-19T06:42:08Z</time></trkpt><trkpt lat="44.818879793846186" lon="8.053813743073247"><ele>161.5</ele><time>2026-04-19T06:42:09Z</time></trkpt><trkpt lat="44.818849091702944" lon="8.053654809931885"><ele>162.0</ele><time>2026-04-19T06:42:10Z</time></trkpt><trkpt lat="44.818823485132675" lon="8.053484948194168"><ele>162.5</ele><time>2026-04-19T06:42:11Z</time></trkpt><trkpt lat="44.818798118447496" lon="8.053323053413347"><ele>163.0</ele><time>2026-04-19T06:42:12Z</time></trkpt><trkpt lat="44.81878445795829" lon="8.053172260137808"><ele>163.5</ele><time>2026-04-19T06:42:13Z</time></trkpt><trkpt lat="44.818790251488814" lon="8.053005969631226"><ele>164.0</ele><time>2026-04-19T06:42:14Z</time></trkpt><trkpt lat="44.81880078938917" lon="8.05283427283627"><ele>164.5</ele><time>2026-04-19T06:42:15Z</time></trkpt><trkpt lat="44.81881665054024" lon="8.052664207473258"><ele>165.0</ele><time>2026-04-19T06:42:16Z</time></trkpt><trkpt lat="44.818829974967784" lon="8.052494922676075"><ele>165.4</ele><time>2026-04-19T06:42:17Z</time></trkpt><trkpt lat="44.81884609971364" lon="8.052326310813738"><ele>165.8</ele><time>2026-04-19T06:42:18Z</time></trkpt><trkpt lat="44.81886183261994" lon="8.052172204980453"><ele>166.2</ele><time>2026-04-19T06:42:19Z</time></trkpt><trkpt lat="44.81887011431081" lon="8.052038461329087"><ele>166.6</ele><time>2026-04-19T06:42:20Z</time></trkpt><trkpt lat="44.818879480346766" lon="8.051899391760356"><ele>167.0</ele><time>2026-04-19T06:42:21Z</time></trkpt><trkpt lat="44.8188842981888" lon="8.051761901226788"><ele>167.0</ele><time>2026-04-19T06:42:22Z</time></trkpt><trkpt lat="44.81888817908055" lon="8.051630017866563"><ele>167.0</ele><time>2026-04-19T06:42:23Z</time></trkpt><trkpt lat="44.81889332303384" lon="8.051489438549638"><ele>167.0</ele><time>2026-04-19T06:42:24Z</time></trkpt><trkpt lat="44.818883853325154" lon="8.0513469489513"><ele>167.0</ele><time>2026-04-19T06:42:25Z</time></trkpt><trkpt lat="44.818870991111694" lon="8.051200741229051"><ele>167.0</ele><time>2026-04-19T06:42:26Z</time></trkpt><trkpt lat="44.81884492671022" lon="8.051062849134588"><ele>167.39999999999998</ele><time>2026-04-19T06:42:27Z</time></trkpt><trkpt lat="44.81880546671183" lon="8.05094955091954"><ele>167.79999999999998</ele><time>2026-04-19T06:42:28Z</time></trkpt><trkpt lat="44.818732024747526" lon="8.050882750089176"><ele>168.2</ele><time>2026-04-19T06:42:29Z</time></trkpt><trkpt lat="44.81864118714009" lon="8.050860918624078"><ele>168.6</ele><time>2026-04-19T06:42:30Z</time></trkpt><trkpt lat="44.8185414430776" lon="8.050891366624015"><ele>169.0</ele><time>2026-04-19T06:42:31Z</time></trkpt><trkpt lat="44.8184432735265" lon="8.050957098648261"><ele>168.0</ele><time>2026-04-19T06:42:32Z</time></trkpt><trkpt lat="44.81833868200422" lon="8.051031416679256"><ele>167.0</ele><time>2026-04-19T06:42:33.001Z</time></trkpt><trkpt lat="44.818231497125076" lon="8.05110272777904"><ele>166.0</ele><time>2026-04-19T06:42:34Z</time></trkpt><trkpt lat="44.81808045504865" lon="8.05105017937941"><ele>165.0</ele><time>2026-04-19T06:42:35Z</time></trkpt><trkpt lat="44.81797064424792" lon="8.051119047952836"><ele>165.0</ele><time>2026-04-19T06:42:36Z</time></trkpt><trkpt lat="44.81786854806975" lon="8.051181502853291"><ele>165.0</ele><time>2026-04-19T06:42:37Z</time></trkpt><trkpt lat="44.817776677042886" lon="8.051237702766953"><ele>165.0</ele><time>2026-04-19T06:42:38Z</time></trkpt><trkpt lat="44.81768118277251" lon="8.0512961191512"><ele>165.0</ele><time>2026-04-19T06:42:39Z</time></trkpt><trkpt lat="44.81761584339983" lon="8.051336088991492"><ele>165.0</ele><time>2026-04-19T06:42:40Z</time></trkpt><trkpt lat="44.81755126106237" lon="8.051375595687556"><ele>165.0</ele><time>2026-04-19T06:42:41Z</time></trkpt><trkpt lat="44.81748972316331" lon="8.051413466830102"><ele>165.0</ele><time>2026-04-19T06:42:42Z</time></trkpt><trkpt lat="44.817385529841125" lon="8.05147792501557"><ele>165.0</ele><time>2026-04-19T06:42:44Z</time></trkpt><trkpt lat="44.817286432003776" lon="8.05153923067359"><ele>165.0</ele><time>2026-04-19T06:42:46Z</time></trkpt><trkpt lat="44.81736674066087" lon="8.051714250214882"><ele>165.0</ele><time>2026-04-19T06:42:48Z</time></trkpt><trkpt lat="44.817340261347915" lon="8.051896889274262"><ele>165.0</ele><time>2026-04-19T06:42:49Z</time></trkpt><trkpt lat="44.817388435531285" lon="8.052038070005363"><ele>165.0</ele><time>2026-04-19T06:42:50Z</time></trkpt><trkpt lat="44.81743184109539" lon="8.05218819089966"><ele>165.0</ele><time>2026-04-19T06:42:51Z</time></trkpt><trkpt lat="44.817469637198364" lon="8.052335744447742"><ele>165.0</ele><time>2026-04-19T06:42:52Z</time></trkpt><trkpt lat="44.81750979827789" lon="8.05248634820641"><ele>165.0</ele><time>2026-04-19T06:42:53Z</time></trkpt><trkpt lat="44.81754606525688" lon="8.052642745228773"><ele>165.0</ele><time>2026-04-19T06:42:54Z</time></trkpt><trkpt lat="44.81758552618613" lon="8.052810486008326"><ele>165.0</ele><time>2026-04-19T06:42:55Z</time></trkpt><trkpt lat="44.81760584284995" lon="8.053005563298022"><ele>165.0</ele><time>2026-04-19T06:42:56Z</time></trkpt><trkpt lat="44.817657966884276" lon="8.05319622532101"><ele>164.5</ele><time>2026-04-19T06:42:57Z</time></trkpt><trkpt lat="44.81769205646551" lon="8.053395930570977"><ele>164.0</ele><time>2026-04-19T06:42:58Z</time></trkpt><trkpt lat="44.81773134468483" lon="8.053594775863527"><ele>163.5</ele><time>2026-04-19T06:42:59Z</time></trkpt><trkpt lat="44.81777647551166" lon="8.05379356496688"><ele>163.0</ele><time>2026-04-19T06:43:00Z</time></trkpt><trkpt lat="44.81782170328639" lon="8.053991902654952"><ele>162.0</ele><time>2026-04-19T06:43:01Z</time></trkpt><trkpt lat="44.817869904273934" lon="8.054177272563654"><ele>161.0</ele><time>2026-04-19T06:43:02Z</time></trkpt><trkpt lat="44.817910018398415" lon="8.054352119559399"><ele>160.0</ele><time>2026-04-19T06:43:03Z</time></trkpt><trkpt lat="44.81795765814335" lon="8.054533290463091"><ele>159.0</ele><time>2026-04-19T06:43:04Z</time></trkpt><trkpt lat="44.818014881977476" lon="8.0547135579883"><ele>159.0</ele><time>2026-04-19T06:43:05Z</time></trkpt><trkpt lat="44.818078190527565" lon="8.054886588941923"><ele>159.0</ele><time>2026-04-19T06:43:06Z</time></trkpt><trkpt lat="44.81814841985421" lon="8.055061069710451"><ele>159.0</ele><time>2026-04-19T06:43:07Z</time></trkpt><trkpt lat="44.81822218385124" lon="8.055235874444515"><ele>159.0</ele><time>2026-04-19T06:43:08Z</time></trkpt><trkpt lat="44.81829750802827" lon="8.055415627806216"><ele>159.25</ele><time>2026-04-19T06:43:09Z</time></trkpt><trkpt lat="44.81837593152305" lon="8.055590189782526"><ele>159.5</ele><time>2026-04-19T06:43:10Z</time></trkpt><trkpt lat="44.8184584840433" lon="8.055749325792156"><ele>159.75</ele><time>2026-04-19T06:43:11Z</time></trkpt><trkpt lat="44.81853651853843" lon="8.055910985538288"><ele>160.0</ele><time>2026-04-19T06:43:12Z</time></trkpt><trkpt lat="44.81862351248332" lon="8.05607303183719"><ele>160.0</ele><time>2026-04-19T06:43:13Z</time></trkpt><trkpt lat="44.818714704026526" lon="8.056236425511422"><ele>160.0</ele><time>2026-04-19T06:43:14Z</time></trkpt><trkpt lat="44.818812363811276" lon="8.056394491514968"><ele>160.0</ele><time>2026-04-19T06:43:15Z</time></trkpt><trkpt lat="44.81890706044436" lon="8.056552526511009"><ele>160.0</ele><time>2026-04-19T06:43:16Z</time></trkpt><trkpt lat="44.81900501156299" lon="8.056709331164488"><ele>159.66666666666669</ele><time>2026-04-19T06:43:17Z</time></trkpt><trkpt lat="44.8191050154806" lon="8.05686914835746"><ele>159.33333333333334</ele><time>2026-04-19T06:43:18Z</time></trkpt><trkpt lat="44.819206018075135" lon="8.05702479897378"><ele>159.0</ele><time>2026-04-19T06:43:19Z</time></trkpt><trkpt lat="44.81930667268224" lon="8.05718592338938"><ele>159.5</ele><time>2026-04-19T06:43:20Z</time></trkpt><trkpt lat="44.81940524641083" lon="8.057350838093871"><ele>160.0</ele><time>2026-04-19T06:43:21Z</time></trkpt><trkpt lat="44.81949831619347" lon="8.05751602355355"><ele>160.5</ele><time>2026-04-19T06:43:22Z</time></trkpt><trkpt lat="44.81958949656942" lon="8.057664055879517"><ele>161.0</ele><time>2026-04-19T06:43:23Z</time></trkpt><trkpt lat="44.81967620683021" lon="8.057818794760973"><ele>161.0</ele><time>2026-04-19T06:43:24Z</time></trkpt><trkpt lat="44.81976921391408" lon="8.057976146764732"><ele>161.0</ele><time>2026-04-19T06:43:25Z</time></trkpt><trkpt lat="44.8198561666228" lon="8.058123744222346"><ele>161.0</ele><time>2026-04-19T06:43:26Z</time></trkpt><trkpt lat="44.819933135104066" lon="8.058264599910832"><ele>161.0</ele><time>2026-04-19T06:43:27Z</time></trkpt><trkpt lat="44.82000838199395" lon="8.058395489841626"><ele>160.8</ele><time>2026-04-19T06:43:28Z</time></trkpt><trkpt lat="44.82008766879711" lon="8.058518905190658"><ele>160.60000000000002</ele><time>2026-04-19T06:43:29Z</time></trkpt><trkpt lat="44.82017413479105" lon="8.058618276388668"><ele>160.4</ele><time>2026-04-19T06:43:30Z</time></trkpt><trkpt lat="44.820262868201986" lon="8.058689862349347"><ele>160.2</ele><time>2026-04-19T06:43:31Z</time></trkpt><trkpt lat="44.82032786729079" lon="8.058785775770234"><ele>160.0</ele><time>2026-04-19T06:43:33Z</time></trkpt><trkpt lat="44.82024069715231" lon="8.05888464999244"><ele>160.0</ele><time>2026-04-19T06:43:38Z</time></trkpt><trkpt lat="44.82017411805373" lon="8.058989385979503"><ele>160.0</ele><time>2026-04-19T06:43:41Z</time></trkpt><trkpt lat="44.82007667840888" lon="8.059139135814636"><ele>160.0</ele><time>2026-04-19T06:43:43Z</time></trkpt><trkpt lat="44.82001430596255" lon="8.059234669537833"><ele>160.0</ele><time>2026-04-19T06:43:44Z</time></trkpt><trkpt lat="44.81994892857606" lon="8.059347279742594"><ele>160.0</ele><time>2026-04-19T06:43:45Z</time></trkpt><trkpt lat="44.819879481167334" lon="8.059466829035369"><ele>160.0</ele><time>2026-04-19T06:43:46Z</time></trkpt><trkpt lat="44.819815795101306" lon="8.059583178671593"><ele>160.0</ele><time>2026-04-19T06:43:47Z</time></trkpt><trkpt lat="44.81975493173485" lon="8.059688728850862"><ele>160.0</ele><time>2026-04-19T06:43:48Z</time></trkpt><trkpt lat="44.819692833553525" lon="8.059798860652869"><ele>160.0</ele><time>2026-04-19T06:43:49Z</time></trkpt><trkpt lat="44.819623520914305" lon="8.059916546502896"><ele>160.0</ele><time>2026-04-19T06:43:50Z</time></trkpt><trkpt lat="44.81955301743075" lon="8.060042116392726"><ele>160.0</ele><time>2026-04-19T06:43:51Z</time></trkpt><trkpt lat="44.81948537985463" lon="8.060161808746273"><ele>160.0</ele><time>2026-04-19T06:43:52Z</time></trkpt><trkpt lat="44.8194209739044" lon="8.060288213887294"><ele>160.0</ele><time>2026-04-19T06:43:53Z</time></trkpt><trkpt lat="44.81934724675189" lon="8.060418878903494"><ele>160.0</ele><time>2026-04-19T06:43:54Z</time></trkpt><trkpt lat="44.819265826386726" lon="8.060555502649125"><ele>159.6</ele><time>2026-04-19T06:43:55Z</time></trkpt><trkpt lat="44.81918792528702" lon="8.060683694145265"><ele>159.2</ele><time>2026-04-19T06:43:56Z</time></trkpt><trkpt lat="44.8191035576396" lon="8.060826674635567"><ele>158.8</ele><time>2026-04-19T06:43:57Z</time></trkpt><trkpt lat="44.81904493591424" lon="8.060932580355352"><ele>158.4</ele><time>2026-04-19T06:43:58Z</time></trkpt><trkpt lat="44.81899802429847" lon="8.06104497363464"><ele>158.0</ele><time>2026-04-19T06:43:59Z</time></trkpt><trkpt lat="44.81894643175083" lon="8.061138205486202"><ele>158.0</ele><time>2026-04-19T06:44:00Z</time></trkpt><trkpt lat="44.818920851213335" lon="8.061239013558186"><ele>158.0</ele><time>2026-04-19T06:44:01Z</time></trkpt><trkpt lat="44.81892995154814" lon="8.061358325313645"><ele>158.0</ele><time>2026-04-19T06:44:02Z</time></trkpt><trkpt lat="44.81895932416959" lon="8.06147814763884"><ele>158.0</ele><time>2026-04-19T06:44:03Z</time></trkpt><trkpt lat="44.819004234111134" lon="8.061579547887067"><ele>158.0</ele><time>2026-04-19T06:44:04Z</time></trkpt><trkpt lat="44.81905145874006" lon="8.06165777081552"><ele>158.0</ele><time>2026-04-19T06:44:05Z</time></trkpt><trkpt lat="44.81906495141094" lon="8.06179198314398"><ele>157.6</ele><time>2026-04-19T06:44:07Z</time></trkpt><trkpt lat="44.81902489511218" lon="8.06187598754263"><ele>157.20000000000002</ele><time>2026-04-19T06:44:08Z</time></trkpt><trkpt lat="44.81896261089808" lon="8.061969637464989"><ele>156.8</ele><time>2026-04-19T06:44:09Z</time></trkpt><trkpt lat="44.81889409834896" lon="8.0620689100131"><ele>156.4</ele><time>2026-04-19T06:44:10Z</time></trkpt><trkpt lat="44.81883272857722" lon="8.062175248069034"><ele>156.0</ele><time>2026-04-19T06:44:11Z</time></trkpt><trkpt lat="44.81875950015283" lon="8.062289749650576"><ele>156.0</ele><time>2026-04-19T06:44:12Z</time></trkpt><trkpt lat="44.818690227614375" lon="8.062403070354248"><ele>156.0</ele><time>2026-04-19T06:44:13Z</time></trkpt><trkpt lat="44.818626408385164" lon="8.06252125797649"><ele>156.0</ele><time>2026-04-19T06:44:14Z</time></trkpt><trkpt lat="44.81856397460425" lon="8.062649750090548"><ele>156.0</ele><time>2026-04-19T06:44:15Z</time></trkpt><trkpt lat="44.81848488288413" lon="8.062770034919225"><ele>156.0</ele><time>2026-04-19T06:44:16Z</time></trkpt><trkpt lat="44.81841074335908" lon="8.062900831409745"><ele>156.0</ele><time>2026-04-19T06:44:17Z</time></trkpt><trkpt lat="44.81834330130626" lon="8.063036266040859"><ele>156.0</ele><time>2026-04-19T06:44:18Z</time></trkpt><trkpt lat="44.81828158116593" lon="8.063148051621532"><ele>156.0</ele><time>2026-04-19T06:44:19Z</time></trkpt><trkpt lat="44.8182197391412" lon="8.063247081195765"><ele>156.0</ele><time>2026-04-19T06:44:20Z</time></trkpt><trkpt lat="44.81815401362758" lon="8.06335655104732"><ele>156.0</ele><time>2026-04-19T06:44:21Z</time></trkpt><trkpt lat="44.818089179780394" lon="8.063466826806595"><ele>156.0</ele><time>2026-04-19T06:44:22Z</time></trkpt><trkpt lat="44.81802410745539" lon="8.063584472690858"><ele>156.0</ele><time>2026-04-19T06:44:23Z</time></trkpt><trkpt lat="44.817966631521344" lon="8.063693877694192"><ele>156.0</ele><time>2026-04-19T06:44:24Z</time></trkpt><trkpt lat="44.81790174452198" lon="8.063816265757085"><ele>156.0</ele><time>2026-04-19T06:44:25Z</time></trkpt><trkpt lat="44.817852144323844" lon="8.06394024523441"><ele>156.0</ele><time>2026-04-19T06:44:26Z</time></trkpt><trkpt lat="44.817784004204924" lon="8.064072799211802"><ele>156.0</ele><time>2026-04-19T06:44:27Z</time></trkpt><trkpt lat="44.81771751606436" lon="8.064191716763373"><ele>156.0</ele><time>2026-04-19T06:44:28Z</time></trkpt><trkpt lat="44.8176747399909" lon="8.064308085943077"><ele>156.0</ele><time>2026-04-19T06:44:29Z</time></trkpt><trkpt lat="44.81763103052401" lon="8.064427653312118"><ele>156.0</ele><time>2026-04-19T06:44:31Z</time></trkpt><trkpt lat="44.817694303195445" lon="8.06454626264751"><ele>156.0</ele><time>2026-04-19T06:44:33Z</time></trkpt><trkpt lat="44.817758355154375" lon="8.064600874070841"><ele>156.4</ele><time>2026-04-19T06:44:34Z</time></trkpt><trkpt lat="44.81782791309" lon="8.064635599579978"><ele>156.8</ele><time>2026-04-19T06:44:35Z</time></trkpt><trkpt lat="44.8179240223996" lon="8.064664178317493"><ele>157.20000000000002</ele><time>2026-04-19T06:44:36Z</time></trkpt><trkpt lat="44.81804389060501" lon="8.064673844307375"><ele>157.6</ele><time>2026-04-19T06:44:37Z</time></trkpt><trkpt lat="44.818169802261444" lon="8.06469353292829"><ele>158.0</ele><time>2026-04-19T06:44:38Z</time></trkpt><trkpt lat="44.81831450591934" lon="8.064693710956263"><ele>158.0</ele><time>2026-04-19T06:44:39Z</time></trkpt><trkpt lat="44.81845203753586" lon="8.064674740143591"><ele>158.0</ele><time>2026-04-19T06:44:40Z</time></trkpt><trkpt lat="44.81860586050918" lon="8.064647026738234"><ele>158.0</ele><time>2026-04-19T06:44:41Z</time></trkpt><trkpt lat="44.818752332132156" lon="8.064618401601408"><ele>158.0</ele><time>2026-04-19T06:44:42Z</time></trkpt><trkpt lat="44.81890960480659" lon="8.064600072188462"><ele>158.0</ele><time>2026-04-19T06:44:43Z</time></trkpt><trkpt lat="44.819060380123986" lon="8.06458319239123"><ele>158.0</ele><time>2026-04-19T06:44:44Z</time></trkpt><trkpt lat="44.81919820622507" lon="8.064579584470117"><ele>158.0</ele><time>2026-04-19T06:44:45Z</time></trkpt><trkpt lat="44.81930610989998" lon="8.064565154700517"><ele>158.0</ele><time>2026-04-19T06:44:46Z</time></trkpt><trkpt lat="44.81940274102271" lon="8.06458161115101"><ele>157.75</ele><time>2026-04-19T06:44:47Z</time></trkpt><trkpt lat="44.81948119875825" lon="8.064553760836779"><ele>157.5</ele><time>2026-04-19T06:44:48Z</time></trkpt><trkpt lat="44.819521665293806" lon="8.064819545064315"><ele>157.25</ele><time>2026-04-19T06:44:52Z</time></trkpt><trkpt lat="44.81947273350641" lon="8.064932434320955"><ele>157.0</ele><time>2026-04-19T06:44:53Z</time></trkpt><trkpt lat="44.81940101606709" lon="8.065038524128424"><ele>157.4</ele><time>2026-04-19T06:44:54Z</time></trkpt><trkpt lat="44.81932955202498" lon="8.065128166349472"><ele>157.79999999999998</ele><time>2026-04-19T06:44:55Z</time></trkpt><trkpt lat="44.819270387116674" lon="8.065222968938512"><ele>158.2</ele><time>2026-04-19T06:44:56Z</time></trkpt><trkpt lat="44.81922159248692" lon="8.065350264617456"><ele>158.6</ele><time>2026-04-19T06:44:57Z</time></trkpt><trkpt lat="44.81917184347491" lon="8.065464521792446"><ele>159.0</ele><time>2026-04-19T06:44:58Z</time></trkpt><trkpt lat="44.81911545133956" lon="8.06556715634584"><ele>159.0</ele><time>2026-04-19T06:44:59Z</time></trkpt><trkpt lat="44.81905516327656" lon="8.06564032938693"><ele>159.0</ele><time>2026-04-19T06:45:00Z</time></trkpt><trkpt lat="44.818989542003294" lon="8.06568912426018"><ele>159.0</ele><time>2026-04-19T06:45:01Z</time></trkpt><trkpt lat="44.818899989687424" lon="8.065719127060255"><ele>159.0</ele><time>2026-04-19T06:45:02Z</time></trkpt><trkpt lat="44.81871393500068" lon="8.065790477471838"><ele>159.0</ele><time>2026-04-19T06:45:04Z</time></trkpt><trkpt lat="44.818622187755956" lon="8.065800107618282"><ele>160.0</ele><time>2026-04-19T06:45:05Z</time></trkpt><trkpt lat="44.818524932815386" lon="8.065816806221243"><ele>161.0</ele><time>2026-04-19T06:45:06Z</time></trkpt><trkpt lat="44.81844050016072" lon="8.065796355739321"><ele>162.0</ele><time>2026-04-19T06:45:07Z</time></trkpt><trkpt lat="44.81837309016412" lon="8.065802973013785"><ele>163.0</ele><time>2026-04-19T06:45:08Z</time></trkpt><trkpt lat="44.81830280143515" lon="8.065794319305422"><ele>164.0</ele><time>2026-04-19T06:45:09Z</time></trkpt><trkpt lat="44.81820454118176" lon="8.065850115788317"><ele>165.0</ele><time>2026-04-19T06:45:11Z</time></trkpt><trkpt lat="44.81823109298454" lon="8.065932078244664"><ele>165.0</ele><time>2026-04-19T06:45:12Z</time></trkpt><trkpt lat="44.81826551995279" lon="8.066009475888643"><ele>165.0</ele><time>2026-04-19T06:45:13Z</time></trkpt><trkpt lat="44.81830964040674" lon="8.06614642893654"><ele>165.0</ele><time>2026-04-19T06:45:15Z</time></trkpt><trkpt lat="44.818441457742175" lon="8.066285948720527"><ele>165.0</ele><time>2026-04-19T06:45:17Z</time></trkpt><trkpt lat="44.818497798180545" lon="8.066371823634658"><ele>165.0</ele><time>2026-04-19T06:45:18Z</time></trkpt><trkpt lat="44.818553764963845" lon="8.066445035923614"><ele>165.0</ele><time>2026-04-19T06:45:19Z</time></trkpt><trkpt lat="44.818650935645294" lon="8.06653553572375"><ele>165.0</ele><time>2026-04-19T06:45:21Z</time></trkpt><trkpt lat="44.81872988074896" lon="8.066611899860932"><ele>165.0</ele><time>2026-04-19T06:45:23Z</time></trkpt><trkpt lat="44.818785940533786" lon="8.066657380069342"><ele>165.0</ele><time>2026-04-19T06:45:24Z</time></trkpt><trkpt lat="44.818857498814275" lon="8.066752044502064"><ele>165.0</ele><time>2026-04-19T06:45:26Z</time></trkpt><trkpt lat="44.81897317115017" lon="8.066859187685584"><ele>167.5</ele><time>2026-04-19T06:45:28Z</time></trkpt><trkpt lat="44.819043960274854" lon="8.066987538983964"><ele>170.0</ele><time>2026-04-19T06:45:30Z</time></trkpt><trkpt lat="44.819090981904566" lon="8.067061231948518"><ele>172.5</ele><time>2026-04-19T06:45:31Z</time></trkpt><trkpt lat="44.81915161445122" lon="8.067206610918632"><ele>175.0</ele><time>2026-04-19T06:45:33Z</time></trkpt><trkpt lat="44.81919091946276" lon="8.067287605364585"><ele>177.5</ele><time>2026-04-19T06:45:34Z</time></trkpt><trkpt lat="44.819222066398495" lon="8.067379087334213"><ele>180.0</ele><time>2026-04-19T06:45:35Z</time></trkpt><trkpt lat="44.819243735399425" lon="8.067525859402327"><ele>182.5</ele><time>2026-04-19T06:45:37Z</time></trkpt><trkpt lat="44.81929073219065" lon="8.067652121311912"><ele>185.0</ele><time>2026-04-19T06:45:39Z</time></trkpt><trkpt lat="44.81931413367567" lon="8.067766336649049"><ele>187.5</ele><time>2026-04-19T06:45:43Z</time></trkpt><trkpt lat="44.81929279092257" lon="8.067878982310681"><ele>190.0</ele><time>2026-04-19T06:45:45Z</time></trkpt><trkpt lat="44.81922578306851" lon="8.067903611567196"><ele>192.5</ele><time>2026-04-19T06:45:48Z</time></trkpt><trkpt lat="44.81918659307458" lon="8.067977910848013"><ele>195.0</ele><time>2026-04-19T06:45:50Z</time></trkpt><trkpt lat="44.81903383588528" lon="8.067967219754715"><ele>195.0</ele><time>2026-04-19T06:45:52Z</time></trkpt><trkpt lat="44.81886064524786" lon="8.067944272889715"><ele>195.0</ele><time>2026-04-19T06:45:53Z</time></trkpt><trkpt lat="44.8186817835286" lon="8.067868565487919"><ele>195.0</ele><time>2026-04-19T06:45:54Z</time></trkpt><trkpt lat="44.81853229034485" lon="8.067809186352688"><ele>198.5</ele><time>2026-04-19T06:45:55Z</time></trkpt><trkpt lat="44.81838066606943" lon="8.067790589211821"><ele>202.0</ele><time>2026-04-19T06:45:56Z</time></trkpt><trkpt lat="44.81822726855216" lon="8.067782645341547"><ele>205.5</ele><time>2026-04-19T06:45:57Z</time></trkpt><trkpt lat="44.81811483495962" lon="8.06780520263741"><ele>209.0</ele><time>2026-04-19T06:45:58Z</time></trkpt><trkpt lat="44.818002637864105" lon="8.067826190009825"><ele>209.0</ele><time>2026-04-19T06:45:59Z</time></trkpt><trkpt lat="44.81789838886672" lon="8.067882804783581"><ele>209.0</ele><time>2026-04-19T06:46:00Z</time></trkpt><trkpt lat="44.81780779597377" lon="8.067937098717458"><ele>209.0</ele><time>2026-04-19T06:46:01Z</time></trkpt><trkpt lat="44.81773019236717" lon="8.067969120249312"><ele>209.0</ele><time>2026-04-19T06:46:02Z</time></trkpt><trkpt lat="44.817588926011474" lon="8.067939612001375"><ele>209.0</ele><time>2026-04-19T06:46:04Z</time></trkpt><trkpt lat="44.817506509555606" lon="8.067940076202884"><ele>209.79999999999998</ele><time>2026-04-19T06:46:05Z</time></trkpt><trkpt lat="44.81740083734885" lon="8.067979012461032"><ele>210.6</ele><time>2026-04-19T06:46:06Z</time></trkpt><trkpt lat="44.81730258832943" lon="8.068059736961342"><ele>211.4</ele><time>2026-04-19T06:46:07Z</time></trkpt><trkpt lat="44.81721841058724" lon="8.068130345462704"><ele>212.2</ele><time>2026-04-19T06:46:08Z</time></trkpt><trkpt lat="44.817156680531596" lon="8.068222748943658"><ele>213.0</ele><time>2026-04-19T06:46:09Z</time></trkpt><trkpt lat="44.817100799240414" lon="8.068307119865821"><ele>213.2</ele><time>2026-04-19T06:46:10Z</time></trkpt><trkpt lat="44.81703068904211" lon="8.068398924648625"><ele>213.4</ele><time>2026-04-19T06:46:11Z</time></trkpt><trkpt lat="44.816962148339734" lon="8.06849030208331"><ele>213.59999999999997</ele><time>2026-04-19T06:46:12Z</time></trkpt><trkpt lat="44.81689649240607" lon="8.06858340459478"><ele>213.79999999999998</ele><time>2026-04-19T06:46:13Z</time></trkpt><trkpt lat="44.81681955521514" lon="8.06868076253029"><ele>214.0</ele><time>2026-04-19T06:46:14Z</time></trkpt><trkpt lat="44.816745903115745" lon="8.068769278930525"><ele>215.2</ele><time>2026-04-19T06:46:15Z</time></trkpt><trkpt lat="44.81667260536073" lon="8.068867803951687"><ele>216.39999999999998</ele><time>2026-04-19T06:46:16Z</time></trkpt><trkpt lat="44.81660127264997" lon="8.068964800921915"><ele>217.6</ele><time>2026-04-19T06:46:17Z</time></trkpt><trkpt lat="44.816538320841396" lon="8.06906247253943"><ele>218.8</ele><time>2026-04-19T06:46:18Z</time></trkpt><trkpt lat="44.816490263560354" lon="8.069154484371927"><ele>220.0</ele><time>2026-04-19T06:46:19Z</time></trkpt><trkpt lat="44.81644205587565" lon="8.069239113573946"><ele>220.6</ele><time>2026-04-19T06:46:20Z</time></trkpt><trkpt lat="44.816395468028794" lon="8.069334675955723"><ele>221.2</ele><time>2026-04-19T06:46:21Z</time></trkpt><trkpt lat="44.81634048755934" lon="8.069453948745757"><ele>221.8</ele><time>2026-04-19T06:46:22Z</time></trkpt><trkpt lat="44.81628813231885" lon="8.069575020202468"><ele>222.4</ele><time>2026-04-19T06:46:23Z</time></trkpt><trkpt lat="44.81623303701422" lon="8.069717185582006"><ele>223.0</ele><time>2026-04-19T06:46:24Z</time></trkpt><trkpt lat="44.816179889738095" lon="8.069836401758268"><ele>223.0</ele><time>2026-04-19T06:46:25Z</time></trkpt><trkpt lat="44.81613035581598" lon="8.069977581222279"><ele>223.0</ele><time>2026-04-19T06:46:26Z</time></trkpt><trkpt lat="44.81610194177244" lon="8.070148949084897"><ele>223.0</ele><time>2026-04-19T06:46:27Z</time></trkpt><trkpt lat="44.81607264610798" lon="8.070285991764369"><ele>223.0</ele><time>2026-04-19T06:46:28Z</time></trkpt><trkpt lat="44.81603482503259" lon="8.070405547863285"><ele>223.0</ele><time>2026-04-19T06:46:29Z</time></trkpt><trkpt lat="44.81599400124942" lon="8.070506781145584"><ele>224.33333333333331</ele><time>2026-04-19T06:46:30Z</time></trkpt><trkpt lat="44.81592250373108" lon="8.07055641170129"><ele>225.66666666666666</ele><time>2026-04-19T06:46:31Z</time></trkpt><trkpt lat="44.815846256404754" lon="8.070633118836811"><ele>227.0</ele><time>2026-04-19T06:46:32Z</time></trkpt><trkpt lat="44.81577795648165" lon="8.070719346647858"><ele>228.33333333333331</ele><time>2026-04-19T06:46:33Z</time></trkpt><trkpt lat="44.81571972254956" lon="8.070796089248647"><ele>229.66666666666666</ele><time>2026-04-19T06:46:34Z</time></trkpt><trkpt lat="44.81566809252961" lon="8.070884987251475"><ele>231.0</ele><time>2026-04-19T06:46:35Z</time></trkpt><trkpt lat="44.815621952398374" lon="8.070986604149056"><ele>232.66666666666666</ele><time>2026-04-19T06:46:36Z</time></trkpt><trkpt lat="44.81557692111861" lon="8.071089733833753"><ele>234.33333333333331</ele><time>2026-04-19T06:46:37Z</time></trkpt><trkpt lat="44.81552734396237" lon="8.07119118222418"><ele>236.0</ele><time>2026-04-19T06:46:38Z</time></trkpt><trkpt lat="44.81548528646749" lon="8.071293986865934"><ele>237.66666666666666</ele><time>2026-04-19T06:46:39Z</time></trkpt><trkpt lat="44.815445436053295" lon="8.071382914816924"><ele>239.33333333333331</ele><time>2026-04-19T06:46:40Z</time></trkpt><trkpt lat="44.81540294476135" lon="8.071455125748292"><ele>241.0</ele><time>2026-04-19T06:46:41Z</time></trkpt><trkpt lat="44.81533997684194" lon="8.071588048391591"><ele>241.16666666666666</ele><time>2026-04-19T06:46:43Z</time></trkpt><trkpt lat="44.815293681627736" lon="8.071658610054577"><ele>241.33333333333331</ele><time>2026-04-19T06:46:44Z</time></trkpt><trkpt lat="44.81524280240166" lon="8.071734758073386"><ele>241.5</ele><time>2026-04-19T06:46:45Z</time></trkpt><trkpt lat="44.81518544746658" lon="8.071818481786819"><ele>241.66666666666669</ele><time>2026-04-19T06:46:46Z</time></trkpt><trkpt lat="44.815102054402736" lon="8.07187113821523"><ele>241.83333333333334</ele><time>2026-04-19T06:46:47Z</time></trkpt><trkpt lat="44.81502248860064" lon="8.071917250647976"><ele>242.0</ele><time>2026-04-19T06:46:48Z</time></trkpt><trkpt lat="44.81493217482944" lon="8.071965230145233"><ele>240.75</ele><time>2026-04-19T06:46:49Z</time></trkpt><trkpt lat="44.81483088810755" lon="8.072031991442953"><ele>239.5</ele><time>2026-04-19T06:46:50Z</time></trkpt><trkpt lat="44.81471464162016" lon="8.072115092264424"><ele>238.25</ele><time>2026-04-19T06:46:51Z</time></trkpt><trkpt lat="44.814622896281556" lon="8.072209625681287"><ele>237.0</ele><time>2026-04-19T06:46:52Z</time></trkpt><trkpt lat="44.814525816559176" lon="8.072312420668181"><ele>237.0</ele><time>2026-04-19T06:46:53Z</time></trkpt><trkpt lat="44.814441193656954" lon="8.072403993929143"><ele>237.0</ele><time>2026-04-19T06:46:54Z</time></trkpt><trkpt lat="44.81436805196393" lon="8.072484303191356"><ele>237.0</ele><time>2026-04-19T06:46:55Z</time></trkpt><trkpt lat="44.81432010083948" lon="8.072568124624034"><ele>237.0</ele><time>2026-04-19T06:46:56Z</time></trkpt><trkpt lat="44.81425709425229" lon="8.072636271865235"><ele>237.0</ele><time>2026-04-19T06:46:57Z</time></trkpt><trkpt lat="44.81417568273766" lon="8.072704053341457"><ele>236.66666666666666</ele><time>2026-04-19T06:46:58Z</time></trkpt><trkpt lat="44.81410526308673" lon="8.07276724665922"><ele>236.33333333333331</ele><time>2026-04-19T06:46:59Z</time></trkpt><trkpt lat="44.81403539486833" lon="8.072812641034304"><ele>236.0</ele><time>2026-04-19T06:47:00Z</time></trkpt><trkpt lat="44.813953837080064" lon="8.072870142280513"><ele>235.66666666666666</ele><time>2026-04-19T06:47:01Z</time></trkpt><trkpt lat="44.813872465721275" lon="8.072908453703452"><ele>235.33333333333331</ele><time>2026-04-19T06:47:02Z</time></trkpt><trkpt lat="44.81378909679241" lon="8.072946183889103"><ele>235.0</ele><time>2026-04-19T06:47:03Z</time></trkpt><trkpt lat="44.813700824098085" lon="8.07298275282376"><ele>235.0</ele><time>2026-04-19T06:47:04Z</time></trkpt><trkpt lat="44.81361253700988" lon="8.073024500999455"><ele>235.0</ele><time>2026-04-19T06:47:05Z</time></trkpt><trkpt lat="44.81352376308004" lon="8.0730817686743"><ele>235.0</ele><time>2026-04-19T06:47:06Z</time></trkpt><trkpt lat="44.81343582667959" lon="8.073133326834325"><ele>235.0</ele><time>2026-04-19T06:47:07Z</time></trkpt><trkpt lat="44.81333824638933" lon="8.073172044983146"><ele>235.0</ele><time>2026-04-19T06:47:08Z</time></trkpt><trkpt lat="44.81322957565232" lon="8.073199044729634"><ele>233.25</ele><time>2026-04-19T06:47:09Z</time></trkpt><trkpt lat="44.81311726346347" lon="8.073229997649653"><ele>231.5</ele><time>2026-04-19T06:47:10Z</time></trkpt><trkpt lat="44.81300172431448" lon="8.073262274312102"><ele>229.75</ele><time>2026-04-19T06:47:11Z</time></trkpt><trkpt lat="44.81289293687103" lon="8.073313888079447"><ele>228.0</ele><time>2026-04-19T06:47:12Z</time></trkpt><trkpt lat="44.81279426624963" lon="8.073378149120748"><ele>228.0</ele><time>2026-04-19T06:47:13Z</time></trkpt><trkpt lat="44.81270493213614" lon="8.073446007864128"><ele>228.0</ele><time>2026-04-19T06:47:14Z</time></trkpt><trkpt lat="44.812618533799494" lon="8.073510257420725"><ele>228.0</ele><time>2026-04-19T06:47:15Z</time></trkpt><trkpt lat="44.81252220249925" lon="8.07356169329962"><ele>228.0</ele><time>2026-04-19T06:47:16Z</time></trkpt><trkpt lat="44.81242606299011" lon="8.07358021206874"><ele>228.0</ele><time>2026-04-19T06:47:17Z</time></trkpt><trkpt lat="44.81234253912682" lon="8.07357961550743"><ele>228.0</ele><time>2026-04-19T06:47:18Z</time></trkpt><trkpt lat="44.81225151951209" lon="8.073491973469219"><ele>228.0</ele><time>2026-04-19T06:47:19Z</time></trkpt><trkpt lat="44.812190583268816" lon="8.073531359152003"><ele>228.0</ele><time>2026-04-19T06:47:20Z</time></trkpt><trkpt lat="44.81210527164449" lon="8.073534028482214"><ele>228.0</ele><time>2026-04-19T06:47:21Z</time></trkpt><trkpt lat="44.812025336709716" lon="8.073532740204932"><ele>228.0</ele><time>2026-04-19T06:47:22Z</time></trkpt><trkpt lat="44.81193657723714" lon="8.073512363355082"><ele>228.0</ele><time>2026-04-19T06:47:23Z</time></trkpt><trkpt lat="44.811835660082004" lon="8.073516174479158"><ele>228.83333333333334</ele><time>2026-04-19T06:47:24Z</time></trkpt><trkpt lat="44.811746892922244" lon="8.073514375824884"><ele>229.66666666666669</ele><time>2026-04-19T06:47:25Z</time></trkpt><trkpt lat="44.811662000138504" lon="8.073522938373305"><ele>230.5</ele><time>2026-04-19T06:47:26Z</time></trkpt><trkpt lat="44.81157598043846" lon="8.073540140238485"><ele>231.33333333333334</ele><time>2026-04-19T06:47:27Z</time></trkpt><trkpt lat="44.81148979566423" lon="8.073553560678503"><ele>232.16666666666669</ele><time>2026-04-19T06:47:28Z</time></trkpt><trkpt lat="44.8114110566548" lon="8.073563027981333"><ele>233.0</ele><time>2026-04-19T06:47:29Z</time></trkpt><trkpt lat="44.81133548930798" lon="8.07359658620018"><ele>233.00000000000003</ele><time>2026-04-19T06:47:30Z</time></trkpt><trkpt lat="44.81125535692007" lon="8.073634147160753"><ele>233.0</ele><time>2026-04-19T06:47:31Z</time></trkpt><trkpt lat="44.81117562825739" lon="8.073674145457439"><ele>233.0</ele><time>2026-04-19T06:47:32Z</time></trkpt><trkpt lat="44.81109869391109" lon="8.073725667494749"><ele>233.0</ele><time>2026-04-19T06:47:33Z</time></trkpt><trkpt lat="44.81101580757353" lon="8.073771459292878"><ele>233.00000000000003</ele><time>2026-04-19T06:47:34Z</time></trkpt><trkpt lat="44.81093560719415" lon="8.0738148972503"><ele>233.0</ele><time>2026-04-19T06:47:35Z</time></trkpt><trkpt lat="44.81085271954961" lon="8.073854710121218"><ele>234.4</ele><time>2026-04-19T06:47:36Z</time></trkpt><trkpt lat="44.810767159751585" lon="8.07389209320818"><ele>235.8</ele><time>2026-04-19T06:47:37Z</time></trkpt><trkpt lat="44.81067229190013" lon="8.073923657529264"><ele>237.2</ele><time>2026-04-19T06:47:38Z</time></trkpt><trkpt lat="44.810569791610696" lon="8.073958463355963"><ele>238.6</ele><time>2026-04-19T06:47:39Z</time></trkpt><trkpt lat="44.810474237050464" lon="8.073981524073917"><ele>240.0</ele><time>2026-04-19T06:47:40Z</time></trkpt><trkpt lat="44.81037316766159" lon="8.074011413018447"><ele>240.0</ele><time>2026-04-19T06:47:41Z</time></trkpt><trkpt lat="44.81028050264877" lon="8.074046673988594"><ele>240.0</ele><time>2026-04-19T06:47:42Z</time></trkpt><trkpt lat="44.81018082941631" lon="8.074059811407931"><ele>240.0</ele><time>2026-04-19T06:47:43Z</time></trkpt><trkpt lat="44.81007688625449" lon="8.074053904018166"><ele>240.0</ele><time>2026-04-19T06:47:44Z</time></trkpt><trkpt lat="44.80997443099638" lon="8.074046429064985"><ele>240.0</ele><time>2026-04-19T06:47:45Z</time></trkpt><trkpt lat="44.80988022711855" lon="8.07403104846976"><ele>240.6</ele><time>2026-04-19T06:47:46Z</time></trkpt><trkpt lat="44.80978336158221" lon="8.074002716815663"><ele>241.2</ele><time>2026-04-19T06:47:47Z</time></trkpt><trkpt lat="44.809680065135765" lon="8.07396094158348"><ele>241.8</ele><time>2026-04-19T06:47:48Z</time></trkpt><trkpt lat="44.80958542982231" lon="8.073934931832806"><ele>242.4</ele><time>2026-04-19T06:47:49Z</time></trkpt><trkpt lat="44.80950606673868" lon="8.073934326943982"><ele>243.0</ele><time>2026-04-19T06:47:50Z</time></trkpt><trkpt lat="44.80942373457931" lon="8.073957451753738"><ele>243.0</ele><time>2026-04-19T06:47:51Z</time></trkpt><trkpt lat="44.80934967446511" lon="8.074002987752142"><ele>243.0</ele><time>2026-04-19T06:47:52Z</time></trkpt><trkpt lat="44.80926023851751" lon="8.074145897683488"><ele>243.0</ele><time>2026-04-19T06:47:54Z</time></trkpt><trkpt lat="44.809186860029804" lon="8.074220441817682"><ele>243.0</ele><time>2026-04-19T06:47:55Z</time></trkpt><trkpt lat="44.80912420007614" lon="8.07429472165217"><ele>243.0</ele><time>2026-04-19T06:47:56Z</time></trkpt><trkpt lat="44.809064707153986" lon="8.07437515915716"><ele>243.0</ele><time>2026-04-19T06:47:57Z</time></trkpt><trkpt lat="44.80900060728289" lon="8.07445411745037"><ele>243.0</ele><time>2026-04-19T06:47:58Z</time></trkpt><trkpt lat="44.80893859965105" lon="8.074533363356212"><ele>243.0</ele><time>2026-04-19T06:47:59Z</time></trkpt><trkpt lat="44.808886934949626" lon="8.074628558899288"><ele>243.0</ele><time>2026-04-19T06:48:00Z</time></trkpt><trkpt lat="44.80883866089835" lon="8.074727002593534"><ele>243.0</ele><time>2026-04-19T06:48:01Z</time></trkpt><trkpt lat="44.80879815000512" lon="8.074827723255316"><ele>243.0</ele><time>2026-04-19T06:48:02Z</time></trkpt><trkpt lat="44.80875682619406" lon="8.074920258245792"><ele>243.33333333333334</ele><time>2026-04-19T06:48:03Z</time></trkpt><trkpt lat="44.8087100852413" lon="8.075019356367614"><ele>243.66666666666669</ele><time>2026-04-19T06:48:04Z</time></trkpt><trkpt lat="44.808670289133666" lon="8.075127215251317"><ele>244.0</ele><time>2026-04-19T06:48:05Z</time></trkpt><trkpt lat="44.80862593028468" lon="8.07523159529548"><ele>244.33333333333334</ele><time>2026-04-19T06:48:06Z</time></trkpt><trkpt lat="44.80858291887702" lon="8.075328018930424"><ele>244.66666666666669</ele><time>2026-04-19T06:48:07Z</time></trkpt><trkpt lat="44.808524196135465" lon="8.075412891587401"><ele>245.0</ele><time>2026-04-19T06:48:08Z</time></trkpt><trkpt lat="44.808458580704944" lon="8.075506075725164"><ele>245.0</ele><time>2026-04-19T06:48:09Z</time></trkpt><trkpt lat="44.808397485642445" lon="8.075623088961956"><ele>245.0</ele><time>2026-04-19T06:48:10Z</time></trkpt><trkpt lat="44.80832651591712" lon="8.075733088218048"><ele>245.0</ele><time>2026-04-19T06:48:11Z</time></trkpt><trkpt lat="44.808279513054174" lon="8.075830156962471"><ele>245.0</ele><time>2026-04-19T06:48:12Z</time></trkpt><trkpt lat="44.808227805444055" lon="8.075937551969604"><ele>245.0</ele><time>2026-04-19T06:48:13Z</time></trkpt><trkpt lat="44.80819284525414" lon="8.07604381067057"><ele>245.6</ele><time>2026-04-19T06:48:14Z</time></trkpt><trkpt lat="44.80815170383125" lon="8.076167885758363"><ele>246.2</ele><time>2026-04-19T06:48:15Z</time></trkpt><trkpt lat="44.80811284703987" lon="8.076307269377722"><ele>246.8</ele><time>2026-04-19T06:48:16Z</time></trkpt><trkpt lat="44.80805137413918" lon="8.076445436750422"><ele>247.4</ele><time>2026-04-19T06:48:17Z</time></trkpt><trkpt lat="44.80799321343661" lon="8.076599673427317"><ele>248.0</ele><time>2026-04-19T06:48:18Z</time></trkpt><trkpt lat="44.8079447258094" lon="8.076765983808686"><ele>248.0</ele><time>2026-04-19T06:48:19Z</time></trkpt><trkpt lat="44.80788203221675" lon="8.076919943880936"><ele>248.0</ele><time>2026-04-19T06:48:20Z</time></trkpt><trkpt lat="44.807811449697006" lon="8.077070703075961"><ele>248.0</ele><time>2026-04-19T06:48:21Z</time></trkpt><trkpt lat="44.80774112685032" lon="8.077226725036164"><ele>248.0</ele><time>2026-04-19T06:48:22Z</time></trkpt><trkpt lat="44.807661091281624" lon="8.077384145158618"><ele>250.0</ele><time>2026-04-19T06:48:23Z</time></trkpt><trkpt lat="44.807593072211525" lon="8.077546677117926"><ele>252.0</ele><time>2026-04-19T06:48:24Z</time></trkpt><trkpt lat="44.80753609386253" lon="8.077714902375808"><ele>254.0</ele><time>2026-04-19T06:48:25Z</time></trkpt><trkpt lat="44.80748688220763" lon="8.077888000920836"><ele>256.0</ele><time>2026-04-19T06:48:26Z</time></trkpt><trkpt lat="44.80744242308003" lon="8.078054450246011"><ele>256.0</ele><time>2026-04-19T06:48:27Z</time></trkpt><trkpt lat="44.807400863490926" lon="8.078196695142411"><ele>256.0</ele><time>2026-04-19T06:48:28Z</time></trkpt><trkpt lat="44.807363732132835" lon="8.078326850932404"><ele>256.0</ele><time>2026-04-19T06:48:29Z</time></trkpt><trkpt lat="44.80733953697943" lon="8.078425589718057"><ele>256.0</ele><time>2026-04-19T06:48:30Z</time></trkpt><trkpt lat="44.80731941445209" lon="8.078524836164338"><ele>256.0</ele><time>2026-04-19T06:48:31Z</time></trkpt><trkpt lat="44.80729821461799" lon="8.078681930091182"><ele>256.25</ele><time>2026-04-19T06:48:33Z</time></trkpt><trkpt lat="44.80744476652537" lon="8.078733983770208"><ele>256.5</ele><time>2026-04-19T06:48:37Z</time></trkpt><trkpt lat="44.80753091620997" lon="8.078713109236972"><ele>256.75</ele><time>2026-04-19T06:48:38Z</time></trkpt><trkpt lat="44.807637327585205" lon="8.078701012626604"><ele>257.0</ele><time>2026-04-19T06:48:39Z</time></trkpt><trkpt lat="44.80777286004426" lon="8.078704914295425"><ele>254.8</ele><time>2026-04-19T06:48:40Z</time></trkpt><trkpt lat="44.80787826038588" lon="8.078709788972047"><ele>252.6</ele><time>2026-04-19T06:48:41Z</time></trkpt><trkpt lat="44.807959127780826" lon="8.078713653046616"><ele>250.40000000000003</ele><time>2026-04-19T06:48:42Z</time></trkpt><trkpt lat="44.80805616188389" lon="8.078695791690462"><ele>248.20000000000002</ele><time>2026-04-19T06:48:43Z</time></trkpt><trkpt lat="44.808150958324525" lon="8.078687367061223"><ele>246.0</ele><time>2026-04-19T06:48:44Z</time></trkpt><trkpt lat="44.808260111617805" lon="8.078664729598744"><ele>246.0</ele><time>2026-04-19T06:48:45Z</time></trkpt><trkpt lat="44.80834557977292" lon="8.078654057818135"><ele>246.0</ele><time>2026-04-19T06:48:46Z</time></trkpt><trkpt lat="44.80842570833243" lon="8.078649596272783"><ele>246.0</ele><time>2026-04-19T06:48:47Z</time></trkpt><trkpt lat="44.80851141229129" lon="8.078641757144299"><ele>246.0</ele><time>2026-04-19T06:48:48Z</time></trkpt><trkpt lat="44.80858987157247" lon="8.078659635184518"><ele>246.0</ele><time>2026-04-19T06:48:49Z</time></trkpt><trkpt lat="44.808670800589695" lon="8.078712126412027"><ele>246.0</ele><time>2026-04-19T06:48:50Z</time></trkpt><trkpt lat="44.80875271298411" lon="8.07876963559077"><ele>246.4</ele><time>2026-04-19T06:48:51Z</time></trkpt><trkpt lat="44.80883099914141" lon="8.078832501658743"><ele>246.8</ele><time>2026-04-19T06:48:52Z</time></trkpt><trkpt lat="44.8089179886538" lon="8.078912360949293"><ele>247.20000000000002</ele><time>2026-04-19T06:48:53Z</time></trkpt><trkpt lat="44.8089787273996" lon="8.078991589035045"><ele>247.60000000000002</ele><time>2026-04-19T06:48:54Z</time></trkpt><trkpt lat="44.80905649295911" lon="8.079073011698766"><ele>248.0</ele><time>2026-04-19T06:48:55Z</time></trkpt><trkpt lat="44.80914400124446" lon="8.079183434503609"><ele>246.5</ele><time>2026-04-19T06:48:56Z</time></trkpt><trkpt lat="44.809258201201814" lon="8.079281176260187"><ele>245.0</ele><time>2026-04-19T06:48:57Z</time></trkpt><trkpt lat="44.80937826073962" lon="8.079384070948127"><ele>243.5</ele><time>2026-04-19T06:48:58Z</time></trkpt><trkpt lat="44.80948082388257" lon="8.079453953875893"><ele>242.0</ele><time>2026-04-19T06:48:59Z</time></trkpt><trkpt lat="44.80957731278908" lon="8.079528904519385"><ele>242.0</ele><time>2026-04-19T06:49:00Z</time></trkpt><trkpt lat="44.80968298939538" lon="8.079575952038123"><ele>242.0</ele><time>2026-04-19T06:49:01Z</time></trkpt><trkpt lat="44.80980573810209" lon="8.079621612378387"><ele>242.0</ele><time>2026-04-19T06:49:02Z</time></trkpt><trkpt lat="44.80993174327495" lon="8.079665573247924"><ele>242.0</ele><time>2026-04-19T06:49:03Z</time></trkpt><trkpt lat="44.81005815602122" lon="8.079734441047934"><ele>238.39999999999998</ele><time>2026-04-19T06:49:04Z</time></trkpt><trkpt lat="44.810167325082794" lon="8.079792364767302"><ele>234.79999999999998</ele><time>2026-04-19T06:49:05Z</time></trkpt><trkpt lat="44.810253299278834" lon="8.079866032237982"><ele>231.2</ele><time>2026-04-19T06:49:06Z</time></trkpt><trkpt lat="44.81032806897818" lon="8.079932159245857"><ele>227.6</ele><time>2026-04-19T06:49:08Z</time></trkpt><trkpt lat="44.81036717529782" lon="8.079826502962828"><ele>224.0</ele><time>2026-04-19T06:49:11Z</time></trkpt><trkpt lat="44.810348564546615" lon="8.079728957226877"><ele>224.0</ele><time>2026-04-19T06:49:12Z</time></trkpt><trkpt lat="44.81033778196281" lon="8.079583619397464"><ele>224.0</ele><time>2026-04-19T06:49:13Z</time></trkpt><trkpt lat="44.81034640901037" lon="8.079417824997805"><ele>224.0</ele><time>2026-04-19T06:49:14Z</time></trkpt><trkpt lat="44.810384329414234" lon="8.079251735094973"><ele>224.0</ele><time>2026-04-19T06:49:15Z</time></trkpt><trkpt lat="44.81039481463192" lon="8.079075679764168"><ele>226.0</ele><time>2026-04-19T06:49:16Z</time></trkpt><trkpt lat="44.81042875852763" lon="8.07889621779255"><ele>228.0</ele><time>2026-04-19T06:49:17Z</time></trkpt><trkpt lat="44.81048155111135" lon="8.078729890645828"><ele>230.0</ele><time>2026-04-19T06:49:18Z</time></trkpt><trkpt lat="44.8105602734641" lon="8.078599241264566"><ele>232.0</ele><time>2026-04-19T06:49:19Z</time></trkpt><trkpt lat="44.810643027460756" lon="8.078466223871159"><ele>232.0</ele><time>2026-04-19T06:49:20Z</time></trkpt><trkpt lat="44.81073396162907" lon="8.078338758686263"><ele>232.0</ele><time>2026-04-19T06:49:21Z</time></trkpt><trkpt lat="44.81082483859796" lon="8.078205100834804"><ele>232.0</ele><time>2026-04-19T06:49:22Z</time></trkpt><trkpt lat="44.81089887978131" lon="8.07808492244797"><ele>232.0</ele><time>2026-04-19T06:49:23Z</time></trkpt><trkpt lat="44.81096672514909" lon="8.077987405613321"><ele>230.25</ele><time>2026-04-19T06:49:24Z</time></trkpt><trkpt lat="44.811045771846636" lon="8.077908647770796"><ele>228.5</ele><time>2026-04-19T06:49:25Z</time></trkpt><trkpt lat="44.81114854330966" lon="8.077891288052347"><ele>226.75</ele><time>2026-04-19T06:49:26Z</time></trkpt><trkpt lat="44.81127012497751" lon="8.077860922650169"><ele>225.0</ele><time>2026-04-19T06:49:27Z</time></trkpt><trkpt lat="44.81140665568237" lon="8.077843040376898"><ele>225.0</ele><time>2026-04-19T06:49:28Z</time></trkpt><trkpt lat="44.81154746670007" lon="8.077827336689474"><ele>225.0</ele><time>2026-04-19T06:49:29Z</time></trkpt><trkpt lat="44.81169097217186" lon="8.077820633289859"><ele>225.0</ele><time>2026-04-19T06:49:30Z</time></trkpt><trkpt lat="44.811840391330726" lon="8.077842047503257"><ele>225.0</ele><time>2026-04-19T06:49:31Z</time></trkpt><trkpt lat="44.81198187522295" lon="8.077875540127394"><ele>224.0</ele><time>2026-04-19T06:49:32Z</time></trkpt><trkpt lat="44.81212628640343" lon="8.077914587619567"><ele>223.0</ele><time>2026-04-19T06:49:33Z</time></trkpt><trkpt lat="44.812274590476775" lon="8.077940441585737"><ele>222.0</ele><time>2026-04-19T06:49:34Z</time></trkpt><trkpt lat="44.81241950068836" lon="8.077974203208049"><ele>221.0</ele><time>2026-04-19T06:49:35Z</time></trkpt><trkpt lat="44.81256900721922" lon="8.078006898071884"><ele>221.0</ele><time>2026-04-19T06:49:36Z</time></trkpt><trkpt lat="44.81270184026266" lon="8.078022815998178"><ele>221.0</ele><time>2026-04-19T06:49:37Z</time></trkpt><trkpt lat="44.81282590196643" lon="8.078033333290938"><ele>221.0</ele><time>2026-04-19T06:49:38Z</time></trkpt><trkpt lat="44.81295797468365" lon="8.078049300744903"><ele>221.0</ele><time>2026-04-19T06:49:39Z</time></trkpt><trkpt lat="44.8130964049347" lon="8.07808054120016"><ele>221.0</ele><time>2026-04-19T06:49:40Z</time></trkpt><trkpt lat="44.81324360010026" lon="8.078123123358365"><ele>221.0</ele><time>2026-04-19T06:49:41Z</time></trkpt><trkpt lat="44.81339295218481" lon="8.078154701381887"><ele>221.0</ele><time>2026-04-19T06:49:42Z</time></trkpt><trkpt lat="44.813547139998725" lon="8.078186064329204"><ele>220.66666666666669</ele><time>2026-04-19T06:49:43Z</time></trkpt><trkpt lat="44.81370158979784" lon="8.078203610304751"><ele>220.33333333333331</ele><time>2026-04-19T06:49:44Z</time></trkpt><trkpt lat="44.81385142431936" lon="8.07822228038705"><ele>220.0</ele><time>2026-04-19T06:49:45Z</time></trkpt><trkpt lat="44.814007560103974" lon="8.0782547256485"><ele>224.0</ele><time>2026-04-19T06:49:46Z</time></trkpt><trkpt lat="44.81416246425396" lon="8.078311069561728"><ele>228.0</ele><time>2026-04-19T06:49:47Z</time></trkpt><trkpt lat="44.81431234870202" lon="8.078395987522876"><ele>232.0</ele><time>2026-04-19T06:49:48Z</time></trkpt><trkpt lat="44.81443518939989" lon="8.07852289490068"><ele>234.33333333333331</ele><time>2026-04-19T06:49:49Z</time></trkpt><trkpt lat="44.81455360479712" lon="8.078657512137003"><ele>236.66666666666669</ele><time>2026-04-19T06:49:50Z</time></trkpt><trkpt lat="44.814684405036004" lon="8.07877070351289"><ele>239.0</ele><time>2026-04-19T06:49:51Z</time></trkpt><trkpt lat="44.81479789302886" lon="8.078903222421305"><ele>239.0</ele><time>2026-04-19T06:49:52Z</time></trkpt><trkpt lat="44.81490835879648" lon="8.079020335005682"><ele>239.0</ele><time>2026-04-19T06:49:53Z</time></trkpt><trkpt lat="44.815008062636025" lon="8.079119272251445"><ele>239.0</ele><time>2026-04-19T06:49:54Z</time></trkpt><trkpt lat="44.815108634879614" lon="8.079213371592296"><ele>239.0</ele><time>2026-04-19T06:49:55Z</time></trkpt><trkpt lat="44.8152218007741" lon="8.079296418948406"><ele>236.5</ele><time>2026-04-19T06:49:56Z</time></trkpt><trkpt lat="44.81535576148959" lon="8.079358323126895"><ele>234.0</ele><time>2026-04-19T06:49:57Z</time></trkpt><trkpt lat="44.815483942661864" lon="8.079396630269203"><ele>231.5</ele><time>2026-04-19T06:49:58Z</time></trkpt><trkpt lat="44.8155733162531" lon="8.079466451787553"><ele>229.0</ele><time>2026-04-19T06:49:59Z</time></trkpt><trkpt lat="44.81565668527079" lon="8.079552486639837"><ele>229.0</ele><time>2026-04-19T06:50:00Z</time></trkpt><trkpt lat="44.815739682206456" lon="8.079669004830686"><ele>229.0</ele><time>2026-04-19T06:50:01Z</time></trkpt><trkpt lat="44.81581526348071" lon="8.079800474517063"><ele>229.0</ele><time>2026-04-19T06:50:02Z</time></trkpt><trkpt lat="44.81590802774337" lon="8.079934434557444"><ele>229.0</ele><time>2026-04-19T06:50:03Z</time></trkpt><trkpt lat="44.81599324878344" lon="8.080061805352443"><ele>227.5</ele><time>2026-04-19T06:50:04Z</time></trkpt><trkpt lat="44.816082480999256" lon="8.080208585077704"><ele>226.0</ele><time>2026-04-19T06:50:05Z</time></trkpt><trkpt lat="44.816169447718735" lon="8.080333268820677"><ele>224.5</ele><time>2026-04-19T06:50:06Z</time></trkpt><trkpt lat="44.81626390258092" lon="8.080425628056984"><ele>223.0</ele><time>2026-04-19T06:50:07Z</time></trkpt><trkpt lat="44.81637444521704" lon="8.080505484580883"><ele>223.0</ele><time>2026-04-19T06:50:08Z</time></trkpt><trkpt lat="44.81650440051503" lon="8.0805376974738"><ele>223.0</ele><time>2026-04-19T06:50:09Z</time></trkpt><trkpt lat="44.81662816888692" lon="8.080574265813986"><ele>223.0</ele><time>2026-04-19T06:50:10Z</time></trkpt><trkpt lat="44.81674144189019" lon="8.080572508514942"><ele>223.0</ele><time>2026-04-19T06:50:11Z</time></trkpt><trkpt lat="44.81684907838869" lon="8.080579162279815"><ele>221.2</ele><time>2026-04-19T06:50:12Z</time></trkpt><trkpt lat="44.816950064854936" lon="8.080596122105034"><ele>219.4</ele><time>2026-04-19T06:50:13Z</time></trkpt><trkpt lat="44.81705753171882" lon="8.080620138056014"><ele>217.59999999999997</ele><time>2026-04-19T06:50:14Z</time></trkpt><trkpt lat="44.817154852173296" lon="8.080639200515938"><ele>215.79999999999998</ele><time>2026-04-19T06:50:15Z</time></trkpt><trkpt lat="44.817220365399955" lon="8.08064027259435"><ele>214.0</ele><time>2026-04-19T06:50:16Z</time></trkpt><trkpt lat="44.81729870815277" lon="8.080632058509444"><ele>214.0</ele><time>2026-04-19T06:50:17Z</time></trkpt><trkpt lat="44.817380086120245" lon="8.080656761194401"><ele>213.99999999999997</ele><time>2026-04-19T06:50:18Z</time></trkpt><trkpt lat="44.81746410217087" lon="8.080724308752622"><ele>213.99999999999997</ele><time>2026-04-19T06:50:19Z</time></trkpt><trkpt lat="44.8175795606486" lon="8.080789196384883"><ele>214.0</ele><time>2026-04-19T06:50:20Z</time></trkpt><trkpt lat="44.81769800959914" lon="8.080808107497027"><ele>214.0</ele><time>2026-04-19T06:50:21Z</time></trkpt><trkpt lat="44.817828800312036" lon="8.080801454655537"><ele>215.5</ele><time>2026-04-19T06:50:22Z</time></trkpt><trkpt lat="44.81796130365736" lon="8.080756395001124"><ele>217.0</ele><time>2026-04-19T06:50:23Z</time></trkpt><trkpt lat="44.818100702451986" lon="8.080701252464962"><ele>218.5</ele><time>2026-04-19T06:50:24Z</time></trkpt><trkpt lat="44.81823950367361" lon="8.080644297140893"><ele>220.0</ele><time>2026-04-19T06:50:25Z</time></trkpt><trkpt lat="44.818369022302804" lon="8.080583246978035"><ele>220.0</ele><time>2026-04-19T06:50:26Z</time></trkpt><trkpt lat="44.81847683118272" lon="8.08050538344052"><ele>220.0</ele><time>2026-04-19T06:50:27Z</time></trkpt><trkpt lat="44.818577505184926" lon="8.080391438639452"><ele>220.0</ele><time>2026-04-19T06:50:28Z</time></trkpt><trkpt lat="44.81866741523483" lon="8.080261225125138"><ele>220.0</ele><time>2026-04-19T06:50:29Z</time></trkpt><trkpt lat="44.818772618503935" lon="8.080122523264574"><ele>220.75</ele><time>2026-04-19T06:50:30Z</time></trkpt><trkpt lat="44.81888704091998" lon="8.080025537265755"><ele>221.5</ele><time>2026-04-19T06:50:31Z</time></trkpt><trkpt lat="44.81899910489336" lon="8.079932376778858"><ele>222.25</ele><time>2026-04-19T06:50:32Z</time></trkpt><trkpt lat="44.81911811508507" lon="8.079844430492017"><ele>223.0</ele><time>2026-04-19T06:50:33Z</time></trkpt><trkpt lat="44.81922497657235" lon="8.079757623753435"><ele>222.99999999999997</ele><time>2026-04-19T06:50:34Z</time></trkpt><trkpt lat="44.81930651809279" lon="8.079697399970689"><ele>223.0</ele><time>2026-04-19T06:50:35Z</time></trkpt><trkpt lat="44.81937121074795" lon="8.079661097269417"><ele>223.0</ele><time>2026-04-19T06:50:36Z</time></trkpt><trkpt lat="44.81945706818374" lon="8.079737102773018"><ele>223.0</ele><time>2026-04-19T06:50:37Z</time></trkpt><trkpt lat="44.81954946611579" lon="8.079731609675145"><ele>222.99999999999997</ele><time>2026-04-19T06:50:38Z</time></trkpt><trkpt lat="44.819630270402016" lon="8.079716535771984"><ele>223.0</ele><time>2026-04-19T06:50:39Z</time></trkpt><trkpt lat="44.81974220987256" lon="8.0796534145113"><ele>223.5</ele><time>2026-04-19T06:50:40Z</time></trkpt><trkpt lat="44.819842437828854" lon="8.07955156975502"><ele>224.0</ele><time>2026-04-19T06:50:41Z</time></trkpt><trkpt lat="44.81994611834856" lon="8.079448680933321"><ele>224.5</ele><time>2026-04-19T06:50:42Z</time></trkpt><trkpt lat="44.820067540877574" lon="8.079376617644384"><ele>225.0</ele><time>2026-04-19T06:50:43Z</time></trkpt><trkpt lat="44.82017790942215" lon="8.079310173855609"><ele>225.0</ele><time>2026-04-19T06:50:44Z</time></trkpt><trkpt lat="44.82027737227506" lon="8.0792628700344"><ele>225.0</ele><time>2026-04-19T06:50:45Z</time></trkpt><trkpt lat="44.82038558126605" lon="8.07923062125994"><ele>225.0</ele><time>2026-04-19T06:50:46Z</time></trkpt><trkpt lat="44.82049980853944" lon="8.079227687885146"><ele>225.0</ele><time>2026-04-19T06:50:47Z</time></trkpt><trkpt lat="44.82060464249031" lon="8.079256195725286"><ele>225.0</ele><time>2026-04-19T06:50:48Z</time></trkpt><trkpt lat="44.82073733084213" lon="8.079305152265734"><ele>225.0</ele><time>2026-04-19T06:50:49Z</time></trkpt><trkpt lat="44.82087384692878" lon="8.079360821255051"><ele>225.0</ele><time>2026-04-19T06:50:50Z</time></trkpt><trkpt lat="44.82100744690797" lon="8.079402971086981"><ele>225.0</ele><time>2026-04-19T06:50:51Z</time></trkpt><trkpt lat="44.821135548326765" lon="8.079408545271718"><ele>225.0</ele><time>2026-04-19T06:50:52Z</time></trkpt><trkpt lat="44.82126405725967" lon="8.07943428987765"><ele>224.6</ele><time>2026-04-19T06:50:53Z</time></trkpt><trkpt lat="44.821381321222496" lon="8.07941158572202"><ele>224.2</ele><time>2026-04-19T06:50:54Z</time></trkpt><trkpt lat="44.821484758942475" lon="8.079394042704312"><ele>223.8</ele><time>2026-04-19T06:50:55Z</time></trkpt><trkpt lat="44.82159383727059" lon="8.079376543829254"><ele>223.4</ele><time>2026-04-19T06:50:56Z</time></trkpt><trkpt lat="44.821705390686645" lon="8.079388164751068"><ele>223.0</ele><time>2026-04-19T06:50:57Z</time></trkpt><trkpt lat="44.82183318820905" lon="8.07935692331133"><ele>223.0</ele><time>2026-04-19T06:50:58Z</time></trkpt><trkpt lat="44.82195729892702" lon="8.07934706016152"><ele>223.0</ele><time>2026-04-19T06:50:59Z</time></trkpt><trkpt lat="44.82207132845753" lon="8.07932072932911"><ele>223.0</ele><time>2026-04-19T06:51:00Z</time></trkpt><trkpt lat="44.82219026454364" lon="8.07929643729357"><ele>223.0</ele><time>2026-04-19T06:51:01Z</time></trkpt><trkpt lat="44.82230533077653" lon="8.079272935655087"><ele>223.0</ele><time>2026-04-19T06:51:02Z</time></trkpt><trkpt lat="44.82240375233728" lon="8.079084609638358"><ele>223.0</ele><time>2026-04-19T06:51:03Z</time></trkpt><trkpt lat="44.822519004660656" lon="8.079016691371693"><ele>223.0</ele><time>2026-04-19T06:51:04Z</time></trkpt><trkpt lat="44.82263496384328" lon="8.078951553069299"><ele>223.0</ele><time>2026-04-19T06:51:05Z</time></trkpt><trkpt lat="44.822748144710495" lon="8.078898768450756"><ele>223.0</ele><time>2026-04-19T06:51:06Z</time></trkpt><trkpt lat="44.82287506764833" lon="8.078846939597002"><ele>223.0</ele><time>2026-04-19T06:51:07Z</time></trkpt><trkpt lat="44.823011663928376" lon="8.07879697454548"><ele>223.0</ele><time>2026-04-19T06:51:08Z</time></trkpt><trkpt lat="44.823136033169696" lon="8.07876337564968"><ele>223.0</ele><time>2026-04-19T06:51:09Z</time></trkpt><trkpt lat="44.82325553258579" lon="8.07874190176813"><ele>223.0</ele><time>2026-04-19T06:51:10Z</time></trkpt><trkpt lat="44.8233767522794" lon="8.078721058715468"><ele>223.0</ele><time>2026-04-19T06:51:11Z</time></trkpt><trkpt lat="44.82349579012726" lon="8.07869493199892"><ele>223.0</ele><time>2026-04-19T06:51:12Z</time></trkpt><trkpt lat="44.82360612496981" lon="8.078650062216248"><ele>223.0</ele><time>2026-04-19T06:51:13Z</time></trkpt><trkpt lat="44.82370023356051" lon="8.078598072356325"><ele>222.16666666666666</ele><time>2026-04-19T06:51:14Z</time></trkpt><trkpt lat="44.82376510085229" lon="8.078545298586606"><ele>221.33333333333331</ele><time>2026-04-19T06:51:15Z</time></trkpt><trkpt lat="44.823819443011594" lon="8.078482219198461"><ele>220.5</ele><time>2026-04-19T06:51:16Z</time></trkpt><trkpt lat="44.82385555586706" lon="8.078397419865997"><ele>219.66666666666669</ele><time>2026-04-19T06:51:17Z</time></trkpt><trkpt lat="44.823876939427066" lon="8.078305701148604"><ele>218.83333333333334</ele><time>2026-04-19T06:51:18Z</time></trkpt><trkpt lat="44.823896150179294" lon="8.07819516337253"><ele>218.0</ele><time>2026-04-19T06:51:19Z</time></trkpt><trkpt lat="44.82390349452127" lon="8.078069119668319"><ele>216.8</ele><time>2026-04-19T06:51:20Z</time></trkpt><trkpt lat="44.82391304903414" lon="8.07791394330845"><ele>215.60000000000002</ele><time>2026-04-19T06:51:21Z</time></trkpt><trkpt lat="44.82392545014101" lon="8.077781784465348"><ele>214.39999999999998</ele><time>2026-04-19T06:51:22Z</time></trkpt><trkpt lat="44.8239337669478" lon="8.077671209396469"><ele>213.2</ele><time>2026-04-19T06:51:23Z</time></trkpt><trkpt lat="44.82400125457116" lon="8.077583678399801"><ele>212.0</ele><time>2026-04-19T06:51:25Z</time></trkpt><trkpt lat="44.82407903719131" lon="8.077620562763144"><ele>212.0</ele><time>2026-04-19T06:51:26Z</time></trkpt><trkpt lat="44.82417603444589" lon="8.077711647869178"><ele>212.0</ele><time>2026-04-19T06:51:27Z</time></trkpt><trkpt lat="44.8243019632309" lon="8.077790678955077"><ele>212.0</ele><time>2026-04-19T06:51:28Z</time></trkpt><trkpt lat="44.82442570610706" lon="8.077841302477967"><ele>212.0</ele><time>2026-04-19T06:51:29Z</time></trkpt><trkpt lat="44.8245527365306" lon="8.077873518312277"><ele>209.39999999999998</ele><time>2026-04-19T06:51:30Z</time></trkpt><trkpt lat="44.82466896990462" lon="8.077897160970643"><ele>206.79999999999998</ele><time>2026-04-19T06:51:31Z</time></trkpt><trkpt lat="44.82477148217143" lon="8.077904829751633"><ele>204.2</ele><time>2026-04-19T06:51:32Z</time></trkpt><trkpt lat="44.82485089526462" lon="8.077884395627253"><ele>201.6</ele><time>2026-04-19T06:51:33Z</time></trkpt><trkpt lat="44.82492720135181" lon="8.077825246094939"><ele>199.0</ele><time>2026-04-19T06:51:34Z</time></trkpt><trkpt lat="44.82502405862005" lon="8.077727833028042"><ele>199.0</ele><time>2026-04-19T06:51:35Z</time></trkpt><trkpt lat="44.825130691840414" lon="8.077597412661328"><ele>199.0</ele><time>2026-04-19T06:51:36Z</time></trkpt><trkpt lat="44.82523311275407" lon="8.07747500003626"><ele>199.0</ele><time>2026-04-19T06:51:37Z</time></trkpt><trkpt lat="44.82532794659149" lon="8.077373627756106"><ele>199.0</ele><time>2026-04-19T06:51:38Z</time></trkpt><trkpt lat="44.82544531374556" lon="8.07728533468765"><ele>194.5</ele><time>2026-04-19T06:51:39Z</time></trkpt><trkpt lat="44.825546015750916" lon="8.077203881310034"><ele>190.0</ele><time>2026-04-19T06:51:40Z</time></trkpt><trkpt lat="44.82565921955223" lon="8.077145596136546"><ele>185.5</ele><time>2026-04-19T06:51:41Z</time></trkpt><trkpt lat="44.82577693228002" lon="8.077113990330776"><ele>181.0</ele><time>2026-04-19T06:51:42Z</time></trkpt><trkpt lat="44.82589672046984" lon="8.077090451711994"><ele>178.0</ele><time>2026-04-19T06:51:43Z</time></trkpt><trkpt lat="44.82603261269777" lon="8.077079130988546"><ele>175.0</ele><time>2026-04-19T06:51:44Z</time></trkpt><trkpt lat="44.82617644733368" lon="8.077060509047005"><ele>172.0</ele><time>2026-04-19T06:51:45Z</time></trkpt><trkpt lat="44.82631839416204" lon="8.077042287481028"><ele>169.0</ele><time>2026-04-19T06:51:46Z</time></trkpt><trkpt lat="44.82646022473956" lon="8.077024467796221"><ele>169.0</ele><time>2026-04-19T06:51:47Z</time></trkpt><trkpt lat="44.826593355613426" lon="8.076989313998546"><ele>169.0</ele><time>2026-04-19T06:51:48Z</time></trkpt><trkpt lat="44.826717527290484" lon="8.076957799896029"><ele>169.0</ele><time>2026-04-19T06:51:49Z</time></trkpt><trkpt lat="44.82684094089533" lon="8.076946725632373"><ele>169.0</ele><time>2026-04-19T06:51:50Z</time></trkpt><trkpt lat="44.82695826858276" lon="8.076969450328967"><ele>168.0</ele><time>2026-04-19T06:51:51Z</time></trkpt><trkpt lat="44.827075796541166" lon="8.076996397095083"><ele>167.0</ele><time>2026-04-19T06:51:52Z</time></trkpt><trkpt lat="44.82719094823795" lon="8.07696234145801"><ele>166.0</ele><time>2026-04-19T06:51:53Z</time></trkpt><trkpt lat="44.82730573412074" lon="8.07691007895308"><ele>165.0</ele><time>2026-04-19T06:51:54Z</time></trkpt><trkpt lat="44.82741839385937" lon="8.076911310424878"><ele>165.0</ele><time>2026-04-19T06:51:55Z</time></trkpt><trkpt lat="44.827519709488335" lon="8.076907246642191"><ele>165.0</ele><time>2026-04-19T06:51:56Z</time></trkpt><trkpt lat="44.82761326433973" lon="8.076879987744451"><ele>165.0</ele><time>2026-04-19T06:51:57Z</time></trkpt><trkpt lat="44.82770183698117" lon="8.076902884264118"><ele>165.0</ele><time>2026-04-19T06:51:59Z</time></trkpt><trkpt lat="44.82776552546716" lon="8.077081824762194"><ele>165.0</ele><time>2026-04-19T06:52:01Z</time></trkpt><trkpt lat="44.82781265433348" lon="8.077218137847574"><ele>164.4</ele><time>2026-04-19T06:52:02Z</time></trkpt><trkpt lat="44.827862387471846" lon="8.077357358363036"><ele>163.8</ele><time>2026-04-19T06:52:03Z</time></trkpt><trkpt lat="44.82790990085597" lon="8.077462132910307"><ele>163.2</ele><time>2026-04-19T06:52:04Z</time></trkpt><trkpt lat="44.82795976215144" lon="8.077516360170925"><ele>162.6</ele><time>2026-04-19T06:52:06Z</time></trkpt><trkpt lat="44.82810267448351" lon="8.077390010842134"><ele>162.0</ele><time>2026-04-19T06:52:11Z</time></trkpt><trkpt lat="44.82816883775085" lon="8.07725280613716"><ele>160.75</ele><time>2026-04-19T06:52:12Z</time></trkpt><trkpt lat="44.82824088992169" lon="8.077127693005151"><ele>159.5</ele><time>2026-04-19T06:52:13Z</time></trkpt><trkpt lat="44.82834791899196" lon="8.077021787387572"><ele>158.25</ele><time>2026-04-19T06:52:14Z</time></trkpt><trkpt lat="44.82846662569886" lon="8.076939040329568"><ele>157.0</ele><time>2026-04-19T06:52:15Z</time></trkpt><trkpt lat="44.82860469407089" lon="8.076871888022222"><ele>156.0</ele><time>2026-04-19T06:52:16Z</time></trkpt><trkpt lat="44.82875748011345" lon="8.076790050874607"><ele>155.0</ele><time>2026-04-19T06:52:17Z</time></trkpt><trkpt lat="44.82890466816873" lon="8.076699690837223"><ele>154.0</ele><time>2026-04-19T06:52:18Z</time></trkpt><trkpt lat="44.82905946017696" lon="8.076610190138265"><ele>153.66666666666669</ele><time>2026-04-19T06:52:19Z</time></trkpt><trkpt lat="44.82921104397395" lon="8.076521654163074"><ele>153.33333333333334</ele><time>2026-04-19T06:52:20Z</time></trkpt><trkpt lat="44.82936634164431" lon="8.076426475486594"><ele>153.0</ele><time>2026-04-19T06:52:21Z</time></trkpt><trkpt lat="44.829519192625206" lon="8.076329911629184"><ele>152.66666666666666</ele><time>2026-04-19T06:52:22Z</time></trkpt><trkpt lat="44.8296774581235" lon="8.076233738868044"><ele>152.33333333333331</ele><time>2026-04-19T06:52:23Z</time></trkpt><trkpt lat="44.82984239937032" lon="8.076135948186238"><ele>152.0</ele><time>2026-04-19T06:52:24Z</time></trkpt><trkpt lat="44.83000213269539" lon="8.076042337753929"><ele>152.0</ele><time>2026-04-19T06:52:25Z</time></trkpt><trkpt lat="44.83016124047199" lon="8.075947383576704"><ele>152.0</ele><time>2026-04-19T06:52:26Z</time></trkpt><trkpt lat="44.8303187472747" lon="8.075849034196057"><ele>152.0</ele><time>2026-04-19T06:52:27Z</time></trkpt><trkpt lat="44.83047108496767" lon="8.075757207006067"><ele>152.33333333333331</ele><time>2026-04-19T06:52:28Z</time></trkpt><trkpt lat="44.83062367530277" lon="8.07566979276343"><ele>152.66666666666666</ele><time>2026-04-19T06:52:29Z</time></trkpt><trkpt lat="44.830766150845555" lon="8.075583867496213"><ele>153.0</ele><time>2026-04-19T06:52:30Z</time></trkpt><trkpt lat="44.83090361309602" lon="8.075498196592987"><ele>153.0</ele><time>2026-04-19T06:52:31Z</time></trkpt><trkpt lat="44.831039391429535" lon="8.07541722434087"><ele>153.0</ele><time>2026-04-19T06:52:32Z</time></trkpt><trkpt lat="44.83117433156997" lon="8.075337437128368"><ele>153.0</ele><time>2026-04-19T06:52:33Z</time></trkpt><trkpt lat="44.831292712161826" lon="8.075269303321818"><ele>153.0</ele><time>2026-04-19T06:52:34Z</time></trkpt><trkpt lat="44.83140265980107" lon="8.075201366024178"><ele>153.0</ele><time>2026-04-19T06:52:35Z</time></trkpt><trkpt lat="44.83150005344099" lon="8.075138804258957"><ele>153.0</ele><time>2026-04-19T06:52:36Z</time></trkpt><trkpt lat="44.831582761095696" lon="8.075086116225043"><ele>153.0</ele><time>2026-04-19T06:52:37Z</time></trkpt><trkpt lat="44.8316725201318" lon="8.075031295653327"><ele>153.0</ele><time>2026-04-19T06:52:38Z</time></trkpt><trkpt lat="44.831739870317904" lon="8.074993893213573"><ele>153.0</ele><time>2026-04-19T06:52:39Z</time></trkpt><trkpt lat="44.83180307222174" lon="8.074982165783789"><ele>153.0</ele><time>2026-04-19T06:52:41Z</time></trkpt><trkpt lat="44.83170509050625" lon="8.075098209610317"><ele>153.0</ele><time>2026-04-19T06:52:44Z</time></trkpt><trkpt lat="44.831642535700745" lon="8.075207759787215"><ele>153.0</ele><time>2026-04-19T06:52:45Z</time></trkpt><trkpt lat="44.83161570384231" lon="8.075321131774178"><ele>153.0</ele><time>2026-04-19T06:52:46Z</time></trkpt><trkpt lat="44.83161350107365" lon="8.075441025651344"><ele>153.0</ele><time>2026-04-19T06:52:47Z</time></trkpt><trkpt lat="44.83162621700058" lon="8.07554581639334"><ele>153.0</ele><time>2026-04-19T06:52:48Z</time></trkpt><trkpt lat="44.83166500519979" lon="8.075638988590018"><ele>153.0</ele><time>2026-04-19T06:52:49Z</time></trkpt><trkpt lat="44.83174010193018" lon="8.075712497161605"><ele>152.75</ele><time>2026-04-19T06:52:50Z</time></trkpt><trkpt lat="44.83183046344303" lon="8.075763917779893"><ele>152.5</ele><time>2026-04-19T06:52:51Z</time></trkpt><trkpt lat="44.83193945202996" lon="8.075822677880065"><ele>152.25</ele><time>2026-04-19T06:52:52Z</time></trkpt><trkpt lat="44.83204636035421" lon="8.07590644600331"><ele>152.0</ele><time>2026-04-19T06:52:53Z</time></trkpt><trkpt lat="44.832142980297604" lon="8.076018159783647"><ele>152.75</ele><time>2026-04-19T06:52:54Z</time></trkpt><trkpt lat="44.832257527097035" lon="8.076124084700476"><ele>153.5</ele><time>2026-04-19T06:52:55Z</time></trkpt><trkpt lat="44.83237810755911" lon="8.076214491726818"><ele>154.25</ele><time>2026-04-19T06:52:56Z</time></trkpt><trkpt lat="44.832502702378285" lon="8.0763149946975"><ele>155.0</ele><time>2026-04-19T06:52:57Z</time></trkpt><trkpt lat="44.83261681491286" lon="8.076421950068111"><ele>154.25</ele><time>2026-04-19T06:52:58Z</time></trkpt><trkpt lat="44.832696614690086" lon="8.076527809728093"><ele>153.5</ele><time>2026-04-19T06:52:59Z</time></trkpt><trkpt lat="44.83279933790955" lon="8.076633509066738"><ele>152.75</ele><time>2026-04-19T06:53:00Z</time></trkpt><trkpt lat="44.83289558000327" lon="8.076722139033638"><ele>152.0</ele><time>2026-04-19T06:53:01Z</time></trkpt><trkpt lat="44.83301813557562" lon="8.076795243834502"><ele>152.0</ele><time>2026-04-19T06:53:02Z</time></trkpt><trkpt lat="44.83314286539612" lon="8.076853615370755"><ele>152.0</ele><time>2026-04-19T06:53:03Z</time></trkpt><trkpt lat="44.83326859427636" lon="8.076933113989815"><ele>152.0</ele><time>2026-04-19T06:53:04Z</time></trkpt><trkpt lat="44.833365777550355" lon="8.077000075085786"><ele>152.0</ele><time>2026-04-19T06:53:05Z</time></trkpt><trkpt lat="44.83345541557501" lon="8.077054538138677"><ele>151.6</ele><time>2026-04-19T06:53:06Z</time></trkpt><trkpt lat="44.83356704732085" lon="8.077083014966993"><ele>151.2</ele><time>2026-04-19T06:53:07Z</time></trkpt><trkpt lat="44.83368224518735" lon="8.077093931281809"><ele>150.8</ele><time>2026-04-19T06:53:08Z</time></trkpt><trkpt lat="44.83378149021492" lon="8.077083900758035"><ele>150.4</ele><time>2026-04-19T06:53:09Z</time></trkpt><trkpt lat="44.83386333707791" lon="8.07706939318573"><ele>150.0</ele><time>2026-04-19T06:53:10Z</time></trkpt><trkpt lat="44.83394359499653" lon="8.0770791913819"><ele>150.0</ele><time>2026-04-19T06:53:11Z</time></trkpt><trkpt lat="44.834014877481096" lon="8.077059116096413"><ele>150.0</ele><time>2026-04-19T06:53:19Z</time></trkpt><trkpt lat="44.83407528718045" lon="8.07709570063297"><ele>150.0</ele><time>2026-04-19T06:53:25Z</time></trkpt><trkpt lat="44.834166400656734" lon="8.077139001436954"><ele>150.0</ele><time>2026-04-19T06:53:28Z</time></trkpt><trkpt lat="44.83423439574343" lon="8.077191962837901"><ele>150.0</ele><time>2026-04-19T06:53:30Z</time></trkpt><trkpt lat="44.83433200906407" lon="8.07707018755369"><ele>150.0</ele><time>2026-04-19T06:53:32Z</time></trkpt><trkpt lat="44.834401236250194" lon="8.076967720440889"><ele>150.4</ele><time>2026-04-19T06:53:33Z</time></trkpt><trkpt lat="44.83448506603929" lon="8.076861676822263"><ele>150.8</ele><time>2026-04-19T06:53:34Z</time></trkpt><trkpt lat="44.83458328820921" lon="8.076775388906043"><ele>151.2</ele><time>2026-04-19T06:53:35Z</time></trkpt><trkpt lat="44.83467482965734" lon="8.076703729184034"><ele>151.6</ele><time>2026-04-19T06:53:36Z</time></trkpt><trkpt lat="44.83477075132072" lon="8.076643057227876"><ele>152.0</ele><time>2026-04-19T06:53:37Z</time></trkpt><trkpt lat="44.83486533414114" lon="8.076598404796497"><ele>152.0</ele><time>2026-04-19T06:53:38Z</time></trkpt><trkpt lat="44.83496976446229" lon="8.07657456697659"><ele>152.0</ele><time>2026-04-19T06:53:39Z</time></trkpt><trkpt lat="44.83506607417116" lon="8.076561647106061"><ele>152.0</ele><time>2026-04-19T06:53:40Z</time></trkpt><trkpt lat="44.83516253695739" lon="8.076546180170238"><ele>152.0</ele><time>2026-04-19T06:53:41Z</time></trkpt><trkpt lat="44.83524369468563" lon="8.076530851729979"><ele>152.0</ele><time>2026-04-19T06:53:42Z</time></trkpt><trkpt lat="44.835333442076106" lon="8.076512570902354"><ele>151.83333333333331</ele><time>2026-04-19T06:53:43Z</time></trkpt><trkpt lat="44.83543198074174" lon="8.076497725546014"><ele>151.66666666666666</ele><time>2026-04-19T06:53:44Z</time></trkpt><trkpt lat="44.83550561096969" lon="8.076493523831118"><ele>151.5</ele><time>2026-04-19T06:53:45Z</time></trkpt><trkpt lat="44.83557795303789" lon="8.076502141022768"><ele>151.33333333333334</ele><time>2026-04-19T06:53:46Z</time></trkpt><trkpt lat="44.83564465170173" lon="8.07652612227272"><ele>151.16666666666669</ele><time>2026-04-19T06:53:47Z</time></trkpt><trkpt lat="44.83571392006555" lon="8.076531705153682"><ele>151.0</ele><time>2026-04-19T06:53:48Z</time></trkpt><trkpt lat="44.8358008247927" lon="8.076507305834031"><ele>151.0</ele><time>2026-04-19T06:53:49Z</time></trkpt><trkpt lat="44.83589613582841" lon="8.07643898137772"><ele>151.0</ele><time>2026-04-19T06:53:50Z</time></trkpt><trkpt lat="44.83599485674459" lon="8.076418147048088"><ele>151.0</ele><time>2026-04-19T06:53:51Z</time></trkpt><trkpt lat="44.83609383492222" lon="8.076413649949357"><ele>151.0</ele><time>2026-04-19T06:53:52Z</time></trkpt><trkpt lat="44.83618964655803" lon="8.076438833850444"><ele>151.0</ele><time>2026-04-19T06:53:53Z</time></trkpt><trkpt lat="44.83629852076523" lon="8.07651317023205"><ele>150.75</ele><time>2026-04-19T06:53:54Z</time></trkpt><trkpt lat="44.83640430959885" lon="8.076570662713895"><ele>150.5</ele><time>2026-04-19T06:53:55Z</time></trkpt><trkpt lat="44.83652032258868" lon="8.076615309994326"><ele>150.25</ele><time>2026-04-19T06:53:56Z</time></trkpt><trkpt lat="44.83664711073741" lon="8.076643475622086"><ele>150.0</ele><time>2026-04-19T06:53:57Z</time></trkpt><trkpt lat="44.8367716694462" lon="8.076697331851463"><ele>149.25</ele><time>2026-04-19T06:53:58Z</time></trkpt><trkpt lat="44.83688679604734" lon="8.076759394440066"><ele>148.5</ele><time>2026-04-19T06:53:59Z</time></trkpt><trkpt lat="44.83701298522872" lon="8.076812578490836"><ele>147.75</ele><time>2026-04-19T06:54:00Z</time></trkpt><trkpt lat="44.837140426016965" lon="8.0768662362866"><ele>147.0</ele><time>2026-04-19T06:54:01Z</time></trkpt><trkpt lat="44.83726446025686" lon="8.07689979993929"><ele>147.0</ele><time>2026-04-19T06:54:02Z</time></trkpt><trkpt lat="44.83738424825436" lon="8.07692711507483"><ele>147.0</ele><time>2026-04-19T06:54:03Z</time></trkpt><trkpt lat="44.837513000955326" lon="8.076941420566238"><ele>147.0</ele><time>2026-04-19T06:54:04Z</time></trkpt><trkpt lat="44.83764953114712" lon="8.076945217509538"><ele>147.0</ele><time>2026-04-19T06:54:05Z</time></trkpt><trkpt lat="44.8377865314263" lon="8.076948277790512"><ele>147.5</ele><time>2026-04-19T06:54:06Z</time></trkpt><trkpt lat="44.83791181991641" lon="8.076959615751118"><ele>148.0</ele><time>2026-04-19T06:54:07Z</time></trkpt><trkpt lat="44.83804210046318" lon="8.07698942710096"><ele>148.5</ele><time>2026-04-19T06:54:08Z</time></trkpt><trkpt lat="44.83816802863724" lon="8.077048649380544"><ele>149.0</ele><time>2026-04-19T06:54:09Z</time></trkpt><trkpt lat="44.83829845839805" lon="8.077126285798586"><ele>149.0</ele><time>2026-04-19T06:54:10Z</time></trkpt><trkpt lat="44.83842166849779" lon="8.077214567782345"><ele>149.0</ele><time>2026-04-19T06:54:11Z</time></trkpt><trkpt lat="44.838545534173136" lon="8.077298447913098"><ele>149.0</ele><time>2026-04-19T06:54:12Z</time></trkpt><trkpt lat="44.83867394095485" lon="8.077366976847173"><ele>149.0</ele><time>2026-04-19T06:54:13Z</time></trkpt><trkpt lat="44.838801965227105" lon="8.077411717243923"><ele>148.5</ele><time>2026-04-19T06:54:14Z</time></trkpt><trkpt lat="44.83893297839613" lon="8.077473577727616"><ele>148.0</ele><time>2026-04-19T06:54:15Z</time></trkpt><trkpt lat="44.839063371856085" lon="8.077529994475409"><ele>147.5</ele><time>2026-04-19T06:54:16Z</time></trkpt><trkpt lat="44.839183408422336" lon="8.077596734428328"><ele>147.0</ele><time>2026-04-19T06:54:17Z</time></trkpt><trkpt lat="44.839313124829076" lon="8.07767776662657"><ele>146.75</ele><time>2026-04-19T06:54:18Z</time></trkpt><trkpt lat="44.83943799919853" lon="8.077751296626445"><ele>146.5</ele><time>2026-04-19T06:54:19Z</time></trkpt><trkpt lat="44.839563086686724" lon="8.07784508741102"><ele>146.25</ele><time>2026-04-19T06:54:20Z</time></trkpt><trkpt lat="44.83967423991672" lon="8.07794716586412"><ele>146.0</ele><time>2026-04-19T06:54:21Z</time></trkpt><trkpt lat="44.83978461790672" lon="8.078052620164048"><ele>146.0</ele><time>2026-04-19T06:54:22Z</time></trkpt><trkpt lat="44.83989662479244" lon="8.07815683787672"><ele>146.0</ele><time>2026-04-19T06:54:23Z</time></trkpt><trkpt lat="44.840006027697996" lon="8.078266922176109"><ele>146.0</ele><time>2026-04-19T06:54:24Z</time></trkpt><trkpt lat="44.84010824751092" lon="8.078386536230672"><ele>146.0</ele><time>2026-04-19T06:54:25Z</time></trkpt><trkpt lat="44.840197669225056" lon="8.078489599070705"><ele>147.0</ele><time>2026-04-19T06:54:26Z</time></trkpt><trkpt lat="44.840278770007394" lon="8.078564428201249"><ele>148.0</ele><time>2026-04-19T06:54:27Z</time></trkpt><trkpt lat="44.84037079298926" lon="8.078666461004449"><ele>149.0</ele><time>2026-04-19T06:54:28Z</time></trkpt><trkpt lat="44.84046983329953" lon="8.07877093053275"><ele>150.0</ele><time>2026-04-19T06:54:29Z</time></trkpt><trkpt lat="44.84056388318331" lon="8.078860863819953"><ele>150.0</ele><time>2026-04-19T06:54:30Z</time></trkpt><trkpt lat="44.84066667343962" lon="8.078949100912496"><ele>150.0</ele><time>2026-04-19T06:54:31Z</time></trkpt><trkpt lat="44.840767717247545" lon="8.07906222615508"><ele>150.0</ele><time>2026-04-19T06:54:32Z</time></trkpt><trkpt lat="44.84082510522643" lon="8.079215442859008"><ele>150.0</ele><time>2026-04-19T06:54:33Z</time></trkpt><trkpt lat="44.84087835720328" lon="8.079357023491616"><ele>150.2</ele><time>2026-04-19T06:54:34Z</time></trkpt><trkpt lat="44.84095475503116" lon="8.079479979459279"><ele>150.4</ele><time>2026-04-19T06:54:35Z</time></trkpt><trkpt lat="44.84104574994663" lon="8.079574873480327"><ele>150.6</ele><time>2026-04-19T06:54:36Z</time></trkpt><trkpt lat="44.84113539991381" lon="8.079664364099747"><ele>150.8</ele><time>2026-04-19T06:54:37Z</time></trkpt><trkpt lat="44.84119034576987" lon="8.079742946696433"><ele>151.0</ele><time>2026-04-19T06:54:38Z</time></trkpt><trkpt lat="44.84122593572417" lon="8.07981775346604"><ele>151.2</ele><time>2026-04-19T06:54:39Z</time></trkpt><trkpt lat="44.84126837196157" lon="8.079912004863129"><ele>151.39999999999998</ele><time>2026-04-19T06:54:40Z</time></trkpt><trkpt lat="44.84131835842223" lon="8.080014075000953"><ele>151.6</ele><time>2026-04-19T06:54:41Z</time></trkpt><trkpt lat="44.84136472806258" lon="8.080137647165168"><ele>151.79999999999998</ele><time>2026-04-19T06:54:42Z</time></trkpt><trkpt lat="44.8414094596955" lon="8.080267328446135"><ele>152.0</ele><time>2026-04-19T06:54:43Z</time></trkpt><trkpt lat="44.841469825729654" lon="8.080397434091426"><ele>152.0</ele><time>2026-04-19T06:54:44Z</time></trkpt><trkpt lat="44.84153331399002" lon="8.080514358130948"><ele>152.0</ele><time>2026-04-19T06:54:45Z</time></trkpt><trkpt lat="44.841601950408204" lon="8.080660354393306"><ele>152.0</ele><time>2026-04-19T06:54:46Z</time></trkpt><trkpt lat="44.84166419076371" lon="8.080801999155943"><ele>152.0</ele><time>2026-04-19T06:54:47Z</time></trkpt><trkpt lat="44.84174787970646" lon="8.080935931082987"><ele>152.0</ele><time>2026-04-19T06:54:48Z</time></trkpt><trkpt lat="44.841791420921034" lon="8.08105551220995"><ele>152.0</ele><time>2026-04-19T06:54:49Z</time></trkpt><trkpt lat="44.84183928301221" lon="8.08114335842626"><ele>152.0</ele><time>2026-04-19T06:54:50Z</time></trkpt><trkpt lat="44.84187643124395" lon="8.08121794035926"><ele>152.0</ele><time>2026-04-19T06:54:51Z</time></trkpt><trkpt lat="44.84189231156956" lon="8.0813367907391"><ele>152.0</ele><time>2026-04-19T06:54:53Z</time></trkpt><trkpt lat="44.841855141453166" lon="8.081433390802156"><ele>152.0</ele><time>2026-04-19T06:54:55Z</time></trkpt><trkpt lat="44.84172517749911" lon="8.081528486551184"><ele>152.2</ele><time>2026-04-19T06:54:57Z</time></trkpt><trkpt lat="44.84166121708024" lon="8.081630980427573"><ele>152.39999999999998</ele><time>2026-04-19T06:54:58Z</time></trkpt><trkpt lat="44.84162040662239" lon="8.081747733059892"><ele>152.60000000000002</ele><time>2026-04-19T06:54:59Z</time></trkpt><trkpt lat="44.84165346942386" lon="8.081883821765683"><ele>152.8</ele><time>2026-04-19T06:55:00Z</time></trkpt><trkpt lat="44.841731266426606" lon="8.081857413955062"><ele>153.0</ele><time>2026-04-19T06:55:04Z</time></trkpt><trkpt lat="44.841732605100255" lon="8.08171942028489"><ele>153.0</ele><time>2026-04-19T06:55:05Z</time></trkpt><trkpt lat="44.84179532972106" lon="8.081604122439447"><ele>153.0</ele><time>2026-04-19T06:55:06Z</time></trkpt><trkpt lat="44.841887288628286" lon="8.08150608826037"><ele>153.0</ele><time>2026-04-19T06:55:07Z</time></trkpt><trkpt lat="44.84200253323723" lon="8.081411736832603"><ele>153.0</ele><time>2026-04-19T06:55:08Z</time></trkpt><trkpt lat="44.842131272616726" lon="8.081313993321581"><ele>151.33333333333334</ele><time>2026-04-19T06:55:09Z</time></trkpt><trkpt lat="44.842251483819865" lon="8.081211283131172"><ele>149.66666666666669</ele><time>2026-04-19T06:55:10Z</time></trkpt><trkpt lat="44.842392817213074" lon="8.081104203434379"><ele>148.0</ele><time>2026-04-19T06:55:11Z</time></trkpt><trkpt lat="44.84252785334662" lon="8.080987304497281"><ele>147.66666666666669</ele><time>2026-04-19T06:55:12Z</time></trkpt><trkpt lat="44.84266275197981" lon="8.080856347576635"><ele>147.33333333333334</ele><time>2026-04-19T06:55:13Z</time></trkpt><trkpt lat="44.842761580979904" lon="8.080707374286312"><ele>147.0</ele><time>2026-04-19T06:55:14Z</time></trkpt><trkpt lat="44.84284680532655" lon="8.080538430491584"><ele>147.0</ele><time>2026-04-19T06:55:15Z</time></trkpt><trkpt lat="44.84292340639985" lon="8.080351605479539"><ele>147.0</ele><time>2026-04-19T06:55:16Z</time></trkpt><trkpt lat="44.84298617258802" lon="8.080158042155478"><ele>147.0</ele><time>2026-04-19T06:55:17Z</time></trkpt><trkpt lat="44.843053160997286" lon="8.079968700190147"><ele>148.0</ele><time>2026-04-19T06:55:18Z</time></trkpt><trkpt lat="44.8431220280586" lon="8.079781839797693"><ele>149.0</ele><time>2026-04-19T06:55:19Z</time></trkpt><trkpt lat="44.84318722607661" lon="8.079596741011878"><ele>150.0</ele><time>2026-04-19T06:55:20Z</time></trkpt><trkpt lat="44.84324753203624" lon="8.07940470981691"><ele>151.0</ele><time>2026-04-19T06:55:21Z</time></trkpt><trkpt lat="44.84330906002872" lon="8.07921300125813"><ele>151.5</ele><time>2026-04-19T06:55:22Z</time></trkpt><trkpt lat="44.84336952012137" lon="8.07902631224283"><ele>152.0</ele><time>2026-04-19T06:55:23Z</time></trkpt><trkpt lat="44.84343500149822" lon="8.078842189458369"><ele>152.5</ele><time>2026-04-19T06:55:24Z</time></trkpt><trkpt lat="44.84349906640163" lon="8.078663733935066"><ele>153.0</ele><time>2026-04-19T06:55:25Z</time></trkpt><trkpt lat="44.84355781157356" lon="8.07848298472065"><ele>152.75</ele><time>2026-04-19T06:55:26Z</time></trkpt><trkpt lat="44.843611016088374" lon="8.078311301556447"><ele>152.5</ele><time>2026-04-19T06:55:27Z</time></trkpt><trkpt lat="44.84366311559655" lon="8.078152201448844"><ele>152.25</ele><time>2026-04-19T06:55:28Z</time></trkpt><trkpt lat="44.843680053167645" lon="8.078011106121423"><ele>152.0</ele><time>2026-04-19T06:55:29Z</time></trkpt><trkpt lat="44.84365891081442" lon="8.07788054927573"><ele>152.0</ele><time>2026-04-19T06:55:30Z</time></trkpt><trkpt lat="44.84360426105259" lon="8.07774904262971"><ele>152.0</ele><time>2026-04-19T06:55:31Z</time></trkpt><trkpt lat="44.84356274497341" lon="8.0776338025993"><ele>152.0</ele><time>2026-04-19T06:55:32Z</time></trkpt><trkpt lat="44.84356538187078" lon="8.077529420793315"><ele>152.0</ele><time>2026-04-19T06:55:33Z</time></trkpt><trkpt lat="44.84361393852923" lon="8.077437992405013"><ele>152.0</ele><time>2026-04-19T06:55:34Z</time></trkpt><trkpt lat="44.843680699932584" lon="8.077375060371375"><ele>152.0</ele><time>2026-04-19T06:55:35Z</time></trkpt><trkpt lat="44.84380396341257" lon="8.077389390457306"><ele>152.0</ele><time>2026-04-19T06:55:36Z</time></trkpt><trkpt lat="44.843900106990866" lon="8.077368841936996"><ele>152.0</ele><time>2026-04-19T06:55:37Z</time></trkpt><trkpt lat="44.84401156825565" lon="8.077505173379038"><ele>152.0</ele><time>2026-04-19T06:55:38Z</time></trkpt><trkpt lat="44.84411182694438" lon="8.077617327423384"><ele>152.0</ele><time>2026-04-19T06:55:39Z</time></trkpt><trkpt lat="44.84421908825157" lon="8.077750096473034"><ele>151.5</ele><time>2026-04-19T06:55:40Z</time></trkpt><trkpt lat="44.84432494627429" lon="8.07788086877334"><ele>151.0</ele><time>2026-04-19T06:55:41Z</time></trkpt><trkpt lat="44.844427849539265" lon="8.078009339743451"><ele>150.5</ele><time>2026-04-19T06:55:42Z</time></trkpt><trkpt lat="44.84453635034414" lon="8.078145139549463"><ele>150.0</ele><time>2026-04-19T06:55:43Z</time></trkpt><trkpt lat="44.84464729120033" lon="8.078279162309038"><ele>150.0</ele><time>2026-04-19T06:55:44Z</time></trkpt><trkpt lat="44.84476030992939" lon="8.078412417168133"><ele>150.0</ele><time>2026-04-19T06:55:45Z</time></trkpt><trkpt lat="44.844875967767905" lon="8.078549819446456"><ele>150.0</ele><time>2026-04-19T06:55:46Z</time></trkpt><trkpt lat="44.8449923922505" lon="8.078685707664434"><ele>150.0</ele><time>2026-04-19T06:55:47Z</time></trkpt><trkpt lat="44.84510752129349" lon="8.078819981026554"><ele>150.0</ele><time>2026-04-19T06:55:48Z</time></trkpt><trkpt lat="44.845229304254545" lon="8.078957904378091"><ele>150.0</ele><time>2026-04-19T06:55:49Z</time></trkpt><trkpt lat="44.84534844630666" lon="8.079098174896854"><ele>150.33333333333334</ele><time>2026-04-19T06:55:50Z</time></trkpt><trkpt lat="44.84547017001159" lon="8.079241058345467"><ele>150.66666666666669</ele><time>2026-04-19T06:55:51Z</time></trkpt><trkpt lat="44.84559179737355" lon="8.079384239627949"><ele>151.0</ele><time>2026-04-19T06:55:52Z</time></trkpt><trkpt lat="44.84571518312582" lon="8.079533966597955"><ele>151.0</ele><time>2026-04-19T06:55:53Z</time></trkpt><trkpt lat="44.845835544700584" lon="8.079678143359777"><ele>151.0</ele><time>2026-04-19T06:55:54Z</time></trkpt><trkpt lat="44.8459586831516" lon="8.079819650248083"><ele>151.0</ele><time>2026-04-19T06:55:55Z</time></trkpt><trkpt lat="44.84608059658668" lon="8.07995859993728"><ele>151.0</ele><time>2026-04-19T06:55:56Z</time></trkpt><trkpt lat="44.846198968435516" lon="8.08009642222271"><ele>151.0</ele><time>2026-04-19T06:55:57Z</time></trkpt><trkpt lat="44.84631619912282" lon="8.080235246131306"><ele>151.0</ele><time>2026-04-19T06:55:58Z</time></trkpt><trkpt lat="44.84643290183555" lon="8.08037156456843"><ele>151.0</ele><time>2026-04-19T06:55:59Z</time></trkpt><trkpt lat="44.846544876602486" lon="8.080501887274389"><ele>151.0</ele><time>2026-04-19T06:56:00Z</time></trkpt><trkpt lat="44.84664525211989" lon="8.080621371455873"><ele>151.0</ele><time>2026-04-19T06:56:01Z</time></trkpt><trkpt lat="44.846749615900755" lon="8.080749031607764"><ele>151.0</ele><time>2026-04-19T06:56:02Z</time></trkpt><trkpt lat="44.84685250389782" lon="8.080872133034719"><ele>150.5</ele><time>2026-04-19T06:56:03Z</time></trkpt><trkpt lat="44.846946433733365" lon="8.080987665143718"><ele>150.0</ele><time>2026-04-19T06:56:04Z</time></trkpt><trkpt lat="44.84702987032212" lon="8.081095141726271"><ele>149.5</ele><time>2026-04-19T06:56:05Z</time></trkpt><trkpt lat="44.8471081185351" lon="8.08120269961012"><ele>149.0</ele><time>2026-04-19T06:56:06Z</time></trkpt><trkpt lat="44.8471917191704" lon="8.081311582822314"><ele>149.0</ele><time>2026-04-19T06:56:07Z</time></trkpt><trkpt lat="44.84727027304609" lon="8.08141988731847"><ele>149.0</ele><time>2026-04-19T06:56:08Z</time></trkpt><trkpt lat="44.847353451864265" lon="8.081535993644824"><ele>149.0</ele><time>2026-04-19T06:56:09Z</time></trkpt><trkpt lat="44.847434850812476" lon="8.081657333573652"><ele>149.0</ele><time>2026-04-19T06:56:10Z</time></trkpt><trkpt lat="44.84752107326781" lon="8.08178612527727"><ele>148.5</ele><time>2026-04-19T06:56:11Z</time></trkpt><trkpt lat="44.84760597770845" lon="8.081926724459132"><ele>148.0</ele><time>2026-04-19T06:56:12Z</time></trkpt><trkpt lat="44.84768844668858" lon="8.082060396908004"><ele>147.5</ele><time>2026-04-19T06:56:13Z</time></trkpt><trkpt lat="44.84776816596868" lon="8.082212969827378"><ele>147.0</ele><time>2026-04-19T06:56:14Z</time></trkpt><trkpt lat="44.8478439453223" lon="8.082354619078343"><ele>148.25</ele><time>2026-04-19T06:56:15Z</time></trkpt><trkpt lat="44.847926668034766" lon="8.082511528519202"><ele>149.5</ele><time>2026-04-19T06:56:16Z</time></trkpt><trkpt lat="44.84801409625496" lon="8.08267555096065"><ele>150.75</ele><time>2026-04-19T06:56:17Z</time></trkpt><trkpt lat="44.84810142041734" lon="8.082841365616845"><ele>152.0</ele><time>2026-04-19T06:56:18Z</time></trkpt><trkpt lat="44.848187421402805" lon="8.083018112419897"><ele>152.0</ele><time>2026-04-19T06:56:19Z</time></trkpt><trkpt lat="44.848270246681494" lon="8.083199071139482"><ele>152.0</ele><time>2026-04-19T06:56:20Z</time></trkpt><trkpt lat="44.84835134586189" lon="8.083386868277172"><ele>152.0</ele><time>2026-04-19T06:56:21Z</time></trkpt><trkpt lat="44.848432309723854" lon="8.083574968369943"><ele>152.33333333333331</ele><time>2026-04-19T06:56:22Z</time></trkpt><trkpt lat="44.84850794458427" lon="8.083777415320544"><ele>152.66666666666666</ele><time>2026-04-19T06:56:23Z</time></trkpt><trkpt lat="44.84857956826042" lon="8.08397947394548"><ele>153.0</ele><time>2026-04-19T06:56:24Z</time></trkpt><trkpt lat="44.84864861554132" lon="8.084178484475492"><ele>153.0</ele><time>2026-04-19T06:56:25Z</time></trkpt><trkpt lat="44.84872394202932" lon="8.084384676336278"><ele>153.0</ele><time>2026-04-19T06:56:26Z</time></trkpt><trkpt lat="44.84879928498724" lon="8.08458606276817"><ele>153.0</ele><time>2026-04-19T06:56:27Z</time></trkpt><trkpt lat="44.84887153379562" lon="8.084785938871171"><ele>152.33333333333334</ele><time>2026-04-19T06:56:28Z</time></trkpt><trkpt lat="44.848945089555194" lon="8.08498645332612"><ele>151.66666666666669</ele><time>2026-04-19T06:56:29Z</time></trkpt><trkpt lat="44.849019908162376" lon="8.085181893018461"><ele>151.0</ele><time>2026-04-19T06:56:30Z</time></trkpt><trkpt lat="44.84909192668693" lon="8.085375913106937"><ele>151.0</ele><time>2026-04-19T06:56:31Z</time></trkpt><trkpt lat="44.849167662972235" lon="8.08557600403446"><ele>151.0</ele><time>2026-04-19T06:56:32Z</time></trkpt><trkpt lat="44.84924125970236" lon="8.085772291981181"><ele>151.0</ele><time>2026-04-19T06:56:33Z</time></trkpt><trkpt lat="44.84931636726533" lon="8.085973122017872"><ele>153.66666666666669</ele><time>2026-04-19T06:56:34Z</time></trkpt><trkpt lat="44.849388811375654" lon="8.086171719171803"><ele>156.33333333333334</ele><time>2026-04-19T06:56:35Z</time></trkpt><trkpt lat="44.8494614388415" lon="8.086374066881566"><ele>159.0</ele><time>2026-04-19T06:56:36Z</time></trkpt><trkpt lat="44.84953940350857" lon="8.086574569032976"><ele>158.0</ele><time>2026-04-19T06:56:37Z</time></trkpt><trkpt lat="44.849616732985915" lon="8.086778250350433"><ele>157.0</ele><time>2026-04-19T06:56:38Z</time></trkpt><trkpt lat="44.8496969561184" lon="8.08698232654482"><ele>156.0</ele><time>2026-04-19T06:56:39Z</time></trkpt><trkpt lat="44.84977648907412" lon="8.087185920522574"><ele>156.0</ele><time>2026-04-19T06:56:40Z</time></trkpt><trkpt lat="44.849855181938835" lon="8.08738548701589"><ele>156.0</ele><time>2026-04-19T06:56:41Z</time></trkpt><trkpt lat="44.849933097668945" lon="8.087590971760507"><ele>156.0</ele><time>2026-04-19T06:56:42Z</time></trkpt><trkpt lat="44.850006340548546" lon="8.08779522713583"><ele>155.0</ele><time>2026-04-19T06:56:43Z</time></trkpt><trkpt lat="44.85007586666327" lon="8.087984958238327"><ele>154.0</ele><time>2026-04-19T06:56:44Z</time></trkpt><trkpt lat="44.850147624898895" lon="8.088183971400154"><ele>153.0</ele><time>2026-04-19T06:56:45Z</time></trkpt><trkpt lat="44.850221700500256" lon="8.08838103815944"><ele>153.0</ele><time>2026-04-19T06:56:46Z</time></trkpt><trkpt lat="44.85029514236696" lon="8.088573426586786"><ele>153.0</ele><time>2026-04-19T06:56:47Z</time></trkpt><trkpt lat="44.850369779392636" lon="8.088767934994939"><ele>153.0</ele><time>2026-04-19T06:56:48Z</time></trkpt><trkpt lat="44.85044641422713" lon="8.088961129147318"><ele>151.75</ele><time>2026-04-19T06:56:49Z</time></trkpt><trkpt lat="44.85051859225266" lon="8.089138624198752"><ele>150.5</ele><time>2026-04-19T06:56:50Z</time></trkpt><trkpt lat="44.85058247842522" lon="8.089296845956548"><ele>149.25</ele><time>2026-04-19T06:56:51Z</time></trkpt><trkpt lat="44.85063939445946" lon="8.089439476797919"><ele>148.0</ele><time>2026-04-19T06:56:52Z</time></trkpt><trkpt lat="44.85070130314394" lon="8.089596755585326"><ele>148.0</ele><time>2026-04-19T06:56:53Z</time></trkpt><trkpt lat="44.85076069004522" lon="8.089747431059495"><ele>148.0</ele><time>2026-04-19T06:56:54Z</time></trkpt><trkpt lat="44.8508145074983" lon="8.089884752989544"><ele>148.0</ele><time>2026-04-19T06:56:55Z</time></trkpt><trkpt lat="44.850861111805244" lon="8.090009393499939"><ele>148.0</ele><time>2026-04-19T06:56:56Z</time></trkpt><trkpt lat="44.850897925969555" lon="8.09011147243054"><ele>148.0</ele><time>2026-04-19T06:56:57Z</time></trkpt><trkpt lat="44.85093169412765" lon="8.090192844204553"><ele>148.5</ele><time>2026-04-19T06:56:58Z</time></trkpt><trkpt lat="44.85096676196498" lon="8.09030098882873"><ele>149.0</ele><time>2026-04-19T06:57:00Z</time></trkpt><trkpt lat="44.851151280092786" lon="8.090105613403763"><ele>149.5</ele><time>2026-04-19T06:57:03Z</time></trkpt><trkpt lat="44.85121218458476" lon="8.090001773924605"><ele>150.0</ele><time>2026-04-19T06:57:04Z</time></trkpt><trkpt lat="44.851281117820726" lon="8.08988018805472"><ele>150.5</ele><time>2026-04-19T06:57:05Z</time></trkpt><trkpt lat="44.851344440866384" lon="8.08972873933977"><ele>151.0</ele><time>2026-04-19T06:57:06Z</time></trkpt><trkpt lat="44.85140606215165" lon="8.08956954753908"><ele>151.5</ele><time>2026-04-19T06:57:07Z</time></trkpt><trkpt lat="44.85144651448554" lon="8.089458169390506"><ele>152.0</ele><time>2026-04-19T06:57:08Z</time></trkpt><trkpt lat="44.85145898730094" lon="8.08929240533264"><ele>152.0</ele><time>2026-04-19T06:57:09Z</time></trkpt><trkpt lat="44.85146502324688" lon="8.089134815981433"><ele>152.0</ele><time>2026-04-19T06:57:10Z</time></trkpt><trkpt lat="44.851467295898615" lon="8.088957110077025"><ele>152.0</ele><time>2026-04-19T06:57:11Z</time></trkpt><trkpt lat="44.85146914450196" lon="8.088774508307825"><ele>152.0</ele><time>2026-04-19T06:57:12Z</time></trkpt><trkpt lat="44.85146782995012" lon="8.088598743625242"><ele>152.6</ele><time>2026-04-19T06:57:13Z</time></trkpt><trkpt lat="44.851452970794206" lon="8.088434981444834"><ele>153.2</ele><time>2026-04-19T06:57:14Z</time></trkpt><trkpt lat="44.85144182710362" lon="8.088288166885869"><ele>153.8</ele><time>2026-04-19T06:57:15Z</time></trkpt><trkpt lat="44.85143625151909" lon="8.088146700406691"><ele>154.4</ele><time>2026-04-19T06:57:16Z</time></trkpt><trkpt lat="44.85142654205332" lon="8.087982187795586"><ele>155.0</ele><time>2026-04-19T06:57:17Z</time></trkpt><trkpt lat="44.851413815085635" lon="8.087827647622719"><ele>155.75</ele><time>2026-04-19T06:57:18Z</time></trkpt><trkpt lat="44.85139909451274" lon="8.087668427006719"><ele>156.5</ele><time>2026-04-19T06:57:19Z</time></trkpt><trkpt lat="44.85138329949809" lon="8.087499618319598"><ele>157.25</ele><time>2026-04-19T06:57:20Z</time></trkpt><trkpt lat="44.8513633624744" lon="8.087327112201274"><ele>158.0</ele><time>2026-04-19T06:57:21Z</time></trkpt><trkpt lat="44.85132819216242" lon="8.087158112190343"><ele>158.25</ele><time>2026-04-19T06:57:22Z</time></trkpt><trkpt lat="44.85127711800776" lon="8.086986185803207"><ele>158.5</ele><time>2026-04-19T06:57:23Z</time></trkpt><trkpt lat="44.85122058160463" lon="8.086809902853805"><ele>158.75</ele><time>2026-04-19T06:57:24Z</time></trkpt><trkpt lat="44.85115861451274" lon="8.086637368050848"><ele>159.0</ele><time>2026-04-19T06:57:25Z</time></trkpt><trkpt lat="44.851106648483245" lon="8.086469488319967"><ele>158.5</ele><time>2026-04-19T06:57:26Z</time></trkpt><trkpt lat="44.85106699610727" lon="8.086332011035703"><ele>158.0</ele><time>2026-04-19T06:57:27Z</time></trkpt><trkpt lat="44.851026518979076" lon="8.086194941448966"><ele>157.5</ele><time>2026-04-19T06:57:28Z</time></trkpt><trkpt lat="44.85096996501109" lon="8.086047138532011"><ele>157.0</ele><time>2026-04-19T06:57:29Z</time></trkpt><trkpt lat="44.85090167732865" lon="8.085902772695187"><ele>158.75</ele><time>2026-04-19T06:57:30Z</time></trkpt><trkpt lat="44.85083175486612" lon="8.085756082197358"><ele>160.5</ele><time>2026-04-19T06:57:31Z</time></trkpt><trkpt lat="44.85076080808812" lon="8.0856100840116"><ele>162.25</ele><time>2026-04-19T06:57:32Z</time></trkpt><trkpt lat="44.850683799277306" lon="8.08546877930074"><ele>164.0</ele><time>2026-04-19T06:57:33Z</time></trkpt><trkpt lat="44.85061141729451" lon="8.085324430594069"><ele>164.0</ele><time>2026-04-19T06:57:34Z</time></trkpt><trkpt lat="44.85055046944889" lon="8.085163985787023"><ele>164.0</ele><time>2026-04-19T06:57:35Z</time></trkpt><trkpt lat="44.85049335129739" lon="8.08499484941781"><ele>164.0</ele><time>2026-04-19T06:57:36Z</time></trkpt><trkpt lat="44.850435922947064" lon="8.084844744727434"><ele>164.0</ele><time>2026-04-19T06:57:37Z</time></trkpt><trkpt lat="44.85036460987845" lon="8.084710072558202"><ele>164.0</ele><time>2026-04-19T06:57:38Z</time></trkpt><trkpt lat="44.850293419016865" lon="8.084579986111844"><ele>164.0</ele><time>2026-04-19T06:57:39Z</time></trkpt><trkpt lat="44.85022690552998" lon="8.08445560555941"><ele>164.0</ele><time>2026-04-19T06:57:40Z</time></trkpt><trkpt lat="44.850174761967786" lon="8.08432467840335"><ele>164.0</ele><time>2026-04-19T06:57:41Z</time></trkpt><trkpt lat="44.85011430550619" lon="8.084180647825528"><ele>164.25</ele><time>2026-04-19T06:57:42Z</time></trkpt><trkpt lat="44.850051864885124" lon="8.084033956005213"><ele>164.5</ele><time>2026-04-19T06:57:43Z</time></trkpt><trkpt lat="44.84999379792844" lon="8.083884882504888"><ele>164.75</ele><time>2026-04-19T06:57:44Z</time></trkpt><trkpt lat="44.84993686200845" lon="8.083721610933576"><ele>165.0</ele><time>2026-04-19T06:57:45Z</time></trkpt><trkpt lat="44.8498851134042" lon="8.083555207544936"><ele>165.0</ele><time>2026-04-19T06:57:46Z</time></trkpt><trkpt lat="44.849849818893894" lon="8.083400010208022"><ele>165.0</ele><time>2026-04-19T06:57:47Z</time></trkpt><trkpt lat="44.849844508099935" lon="8.083274315593426"><ele>165.0</ele><time>2026-04-19T06:57:48Z</time></trkpt><trkpt lat="44.8498628426243" lon="8.083152482092212"><ele>165.0</ele><time>2026-04-19T06:57:49Z</time></trkpt><trkpt lat="44.849870015869485" lon="8.083003442809236"><ele>165.0</ele><time>2026-04-19T06:57:50Z</time></trkpt><trkpt lat="44.849864866248005" lon="8.082836514048687"><ele>165.75</ele><time>2026-04-19T06:57:51Z</time></trkpt><trkpt lat="44.84985343249296" lon="8.08265691970936"><ele>166.5</ele><time>2026-04-19T06:57:52Z</time></trkpt><trkpt lat="44.849845285543886" lon="8.082470320504173"><ele>167.25</ele><time>2026-04-19T06:57:53Z</time></trkpt><trkpt lat="44.849832375168724" lon="8.082276356064188"><ele>168.0</ele><time>2026-04-19T06:57:54Z</time></trkpt><trkpt lat="44.84981650654373" lon="8.082076215854698"><ele>168.25</ele><time>2026-04-19T06:57:55Z</time></trkpt><trkpt lat="44.84979378344817" lon="8.081883458524976"><ele>168.5</ele><time>2026-04-19T06:57:56Z</time></trkpt><trkpt lat="44.84977521203706" lon="8.081701424652133"><ele>168.75</ele><time>2026-04-19T06:57:57Z</time></trkpt><trkpt lat="44.84975368338354" lon="8.081551059272448"><ele>169.0</ele><time>2026-04-19T06:57:58Z</time></trkpt><trkpt lat="44.84971482426647" lon="8.081432174570068"><ele>169.25</ele><time>2026-04-19T06:57:59Z</time></trkpt><trkpt lat="44.849655430725946" lon="8.08132205852594"><ele>169.5</ele><time>2026-04-19T06:58:00Z</time></trkpt><trkpt lat="44.8495820028788" lon="8.081212581573757"><ele>169.75</ele><time>2026-04-19T06:58:01Z</time></trkpt><trkpt lat="44.849503990313934" lon="8.081078968960414"><ele>170.0</ele><time>2026-04-19T06:58:02Z</time></trkpt><trkpt lat="44.849427629603795" lon="8.080937391315327"><ele>170.0</ele><time>2026-04-19T06:58:03Z</time></trkpt><trkpt lat="44.84934875620434" lon="8.080784039891324"><ele>170.0</ele><time>2026-04-19T06:58:04Z</time></trkpt><trkpt lat="44.84927008967151" lon="8.08063247203838"><ele>170.0</ele><time>2026-04-19T06:58:05Z</time></trkpt><trkpt lat="44.849187341362864" lon="8.080468728944165"><ele>170.0</ele><time>2026-04-19T06:58:06Z</time></trkpt><trkpt lat="44.84909638957311" lon="8.0803031983229"><ele>170.5</ele><time>2026-04-19T06:58:07Z</time></trkpt><trkpt lat="44.849012968897405" lon="8.08014506095782"><ele>171.0</ele><time>2026-04-19T06:58:08Z</time></trkpt><trkpt lat="44.848947404539864" lon="8.079993832491459"><ele>171.5</ele><time>2026-04-19T06:58:09Z</time></trkpt><trkpt lat="44.84889269031679" lon="8.07984129705505"><ele>172.0</ele><time>2026-04-19T06:58:10Z</time></trkpt><trkpt lat="44.848839050154716" lon="8.079695044461518"><ele>172.0</ele><time>2026-04-19T06:58:11Z</time></trkpt><trkpt lat="44.84877288571142" lon="8.07954433901123"><ele>172.0</ele><time>2026-04-19T06:58:12Z</time></trkpt><trkpt lat="44.84870642509707" lon="8.079424495226066"><ele>172.0</ele><time>2026-04-19T06:58:13Z</time></trkpt><trkpt lat="44.84861308176679" lon="8.079311325367712"><ele>172.0</ele><time>2026-04-19T06:58:14Z</time></trkpt><trkpt lat="44.848536812954066" lon="8.07916698977588"><ele>172.16666666666669</ele><time>2026-04-19T06:58:15Z</time></trkpt><trkpt lat="44.84846532588261" lon="8.079046399454187"><ele>172.33333333333334</ele><time>2026-04-19T06:58:16Z</time></trkpt><trkpt lat="44.848411777198635" lon="8.078932124505645"><ele>172.5</ele><time>2026-04-19T06:58:17Z</time></trkpt><trkpt lat="44.84838835342401" lon="8.078807041252476"><ele>172.66666666666666</ele><time>2026-04-19T06:58:18Z</time></trkpt><trkpt lat="44.848388640067064" lon="8.078702721513018"><ele>172.83333333333331</ele><time>2026-04-19T06:58:19Z</time></trkpt><trkpt lat="44.84840130179803" lon="8.078602441910121"><ele>173.0</ele><time>2026-04-19T06:58:20Z</time></trkpt><trkpt lat="44.84843034554437" lon="8.078500320417508"><ele>172.8</ele><time>2026-04-19T06:58:21Z</time></trkpt><trkpt lat="44.84845910445836" lon="8.078378325922039"><ele>172.60000000000002</ele><time>2026-04-19T06:58:22Z</time></trkpt><trkpt lat="44.84850964240079" lon="8.078259305534395"><ele>172.39999999999998</ele><time>2026-04-19T06:58:23Z</time></trkpt><trkpt lat="44.84857733068136" lon="8.078120109646346"><ele>172.2</ele><time>2026-04-19T06:58:24Z</time></trkpt><trkpt lat="44.84864943598464" lon="8.077972135338245"><ele>172.0</ele><time>2026-04-19T06:58:25Z</time></trkpt><trkpt lat="44.84871400718796" lon="8.077808957004828"><ele>172.0</ele><time>2026-04-19T06:58:26Z</time></trkpt><trkpt lat="44.84876190179266" lon="8.077637338880509"><ele>172.0</ele><time>2026-04-19T06:58:27Z</time></trkpt><trkpt lat="44.848823108591965" lon="8.077456040538854"><ele>172.0</ele><time>2026-04-19T06:58:28Z</time></trkpt><trkpt lat="44.848890765070095" lon="8.077284497715375"><ele>172.0</ele><time>2026-04-19T06:58:29Z</time></trkpt><trkpt lat="44.84895120152829" lon="8.077116251382797"><ele>172.75</ele><time>2026-04-19T06:58:30Z</time></trkpt><trkpt lat="44.84899442658911" lon="8.076953086703064"><ele>173.5</ele><time>2026-04-19T06:58:31Z</time></trkpt><trkpt lat="44.84901586795708" lon="8.076798222291366"><ele>174.25</ele><time>2026-04-19T06:58:32Z</time></trkpt><trkpt lat="44.84901417400106" lon="8.076644201514323"><ele>175.0</ele><time>2026-04-19T06:58:33Z</time></trkpt><trkpt lat="44.84899980625334" lon="8.076485520270532"><ele>175.75</ele><time>2026-04-19T06:58:34Z</time></trkpt><trkpt lat="44.84897472983077" lon="8.076327110599877"><ele>176.5</ele><time>2026-04-19T06:58:35Z</time></trkpt><trkpt lat="44.84894453980319" lon="8.07616694121324"><ele>177.25</ele><time>2026-04-19T06:58:36Z</time></trkpt><trkpt lat="44.848914037845894" lon="8.075992543388173"><ele>178.0</ele><time>2026-04-19T06:58:37Z</time></trkpt><trkpt lat="44.848880361841395" lon="8.075805748518594"><ele>178.0</ele><time>2026-04-19T06:58:38Z</time></trkpt><trkpt lat="44.848848699431365" lon="8.07561928574082"><ele>178.0</ele><time>2026-04-19T06:58:39Z</time></trkpt><trkpt lat="44.84881901574286" lon="8.075424154885537"><ele>178.0</ele><time>2026-04-19T06:58:40Z</time></trkpt><trkpt lat="44.84879159291849" lon="8.075230891855231"><ele>178.0</ele><time>2026-04-19T06:58:41Z</time></trkpt><trkpt lat="44.84879344059179" lon="8.075056737488367"><ele>177.5</ele><time>2026-04-19T06:58:42Z</time></trkpt><trkpt lat="44.848791814319284" lon="8.074881388911546"><ele>177.0</ele><time>2026-04-19T06:58:43Z</time></trkpt><trkpt lat="44.848802347546545" lon="8.074709618031717"><ele>176.5</ele><time>2026-04-19T06:58:44Z</time></trkpt><trkpt lat="44.84881909431167" lon="8.074535830864177"><ele>176.0</ele><time>2026-04-19T06:58:45Z</time></trkpt><trkpt lat="44.84882847514589" lon="8.074353195752886"><ele>176.0</ele><time>2026-04-19T06:58:46Z</time></trkpt><trkpt lat="44.84887033970917" lon="8.074184104353003"><ele>176.0</ele><time>2026-04-19T06:58:47Z</time></trkpt><trkpt lat="44.84891179473761" lon="8.074042902590143"><ele>176.0</ele><time>2026-04-19T06:58:48Z</time></trkpt><trkpt lat="44.84895409876672" lon="8.07392459883859"><ele>176.0</ele><time>2026-04-19T06:58:49Z</time></trkpt><trkpt lat="44.848991842555314" lon="8.073789358129812"><ele>176.0</ele><time>2026-04-19T06:58:50Z</time></trkpt><trkpt lat="44.84906227308229" lon="8.073650579073018"><ele>176.0</ele><time>2026-04-19T06:58:51Z</time></trkpt><trkpt lat="44.84913358313611" lon="8.07350888307222"><ele>176.0</ele><time>2026-04-19T06:58:52Z</time></trkpt><trkpt lat="44.84919772277573" lon="8.07338470528617"><ele>176.0</ele><time>2026-04-19T06:58:53Z</time></trkpt><trkpt lat="44.84926080570276" lon="8.073275421555728"><ele>176.0</ele><time>2026-04-19T06:58:54Z</time></trkpt><trkpt lat="44.84931804718865" lon="8.073168115663009"><ele>176.0</ele><time>2026-04-19T06:58:55Z</time></trkpt><trkpt lat="44.849353743309415" lon="8.073070059114915"><ele>175.83333333333331</ele><time>2026-04-19T06:58:56Z</time></trkpt><trkpt lat="44.84938480379523" lon="8.072965833090155"><ele>175.66666666666666</ele><time>2026-04-19T06:58:57Z</time></trkpt><trkpt lat="44.84942655663518" lon="8.072832378521131"><ele>175.5</ele><time>2026-04-19T06:58:59Z</time></trkpt><trkpt lat="44.84942403555787" lon="8.07272222616083"><ele>175.33333333333334</ele><time>2026-04-19T06:59:02Z</time></trkpt><trkpt lat="44.84948744492317" lon="8.072713234034437"><ele>175.16666666666669</ele><time>2026-04-19T06:59:04Z</time></trkpt><trkpt lat="44.849556855916255" lon="8.072739601058673"><ele>175.0</ele><time>2026-04-19T06:59:05Z</time></trkpt><trkpt lat="44.849645700513044" lon="8.072785618365714"><ele>175.0</ele><time>2026-04-19T06:59:06Z</time></trkpt><trkpt lat="44.84974276682135" lon="8.072837585541052"><ele>175.0</ele><time>2026-04-19T06:59:07Z</time></trkpt><trkpt lat="44.84986206108932" lon="8.072887907745201"><ele>175.0</ele><time>2026-04-19T06:59:08Z</time></trkpt><trkpt lat="44.84998153219881" lon="8.072966655148026"><ele>175.0</ele><time>2026-04-19T06:59:09Z</time></trkpt><trkpt lat="44.85011382494611" lon="8.07304621502058"><ele>175.66666666666669</ele><time>2026-04-19T06:59:10Z</time></trkpt><trkpt lat="44.850263963665775" lon="8.07313347639964"><ele>176.33333333333334</ele><time>2026-04-19T06:59:11Z</time></trkpt><trkpt lat="44.85041433413934" lon="8.07322132812211"><ele>177.0</ele><time>2026-04-19T06:59:12Z</time></trkpt><trkpt lat="44.8505771939845" lon="8.073316418280436"><ele>177.0</ele><time>2026-04-19T06:59:13Z</time></trkpt><trkpt lat="44.85073860580666" lon="8.073407090924466"><ele>177.0</ele><time>2026-04-19T06:59:14Z</time></trkpt><trkpt lat="44.85089898233429" lon="8.073488459394833"><ele>177.0</ele><time>2026-04-19T06:59:15Z</time></trkpt><trkpt lat="44.851043635564366" lon="8.073549644100744"><ele>177.0</ele><time>2026-04-19T06:59:16Z</time></trkpt><trkpt lat="44.85119478945608" lon="8.073582177136847"><ele>177.0</ele><time>2026-04-19T06:59:17Z</time></trkpt><trkpt lat="44.851348167808545" lon="8.073603851031864"><ele>177.0</ele><time>2026-04-19T06:59:18Z</time></trkpt><trkpt lat="44.85150187633482" lon="8.07359819254814"><ele>177.0</ele><time>2026-04-19T06:59:19Z</time></trkpt><trkpt lat="44.851660106313844" lon="8.073587621545592"><ele>177.0</ele><time>2026-04-19T06:59:20Z</time></trkpt><trkpt lat="44.85181897350889" lon="8.073579354790082"><ele>177.0</ele><time>2026-04-19T06:59:21Z</time></trkpt><trkpt lat="44.851978330868384" lon="8.073576826106514"><ele>177.66666666666666</ele><time>2026-04-19T06:59:22Z</time></trkpt><trkpt lat="44.852143559622434" lon="8.073577584786372"><ele>178.33333333333331</ele><time>2026-04-19T06:59:23Z</time></trkpt><trkpt lat="44.85231257757758" lon="8.073579319688827"><ele>179.0</ele><time>2026-04-19T06:59:24Z</time></trkpt><trkpt lat="44.8524808898067" lon="8.073590587446937"><ele>179.33333333333331</ele><time>2026-04-19T06:59:25Z</time></trkpt><trkpt lat="44.85265327938443" lon="8.073602996775815"><ele>179.66666666666666</ele><time>2026-04-19T06:59:26Z</time></trkpt><trkpt lat="44.852824375541175" lon="8.07361320371213"><ele>180.0</ele><time>2026-04-19T06:59:27Z</time></trkpt><trkpt lat="44.852995233030526" lon="8.073621491159658"><ele>180.0</ele><time>2026-04-19T06:59:28Z</time></trkpt><trkpt lat="44.85316456276127" lon="8.073627664897808"><ele>180.0</ele><time>2026-04-19T06:59:29Z</time></trkpt><trkpt lat="44.85333462985205" lon="8.073638449636329"><ele>180.0</ele><time>2026-04-19T06:59:30Z</time></trkpt><trkpt lat="44.853503663093356" lon="8.073649840771292"><ele>181.66666666666666</ele><time>2026-04-19T06:59:31Z</time></trkpt><trkpt lat="44.8536718589638" lon="8.073664595113392"><ele>183.33333333333331</ele><time>2026-04-19T06:59:32Z</time></trkpt><trkpt lat="44.853838439723525" lon="8.07370165037764"><ele>185.0</ele><time>2026-04-19T06:59:33Z</time></trkpt><trkpt lat="44.85400279550176" lon="8.073762019713136"><ele>185.0</ele><time>2026-04-19T06:59:34Z</time></trkpt><trkpt lat="44.85415394246273" lon="8.073857295352516"><ele>185.0</ele><time>2026-04-19T06:59:35Z</time></trkpt><trkpt lat="44.854300846103" lon="8.073955020142629"><ele>185.0</ele><time>2026-04-19T06:59:36Z</time></trkpt><trkpt lat="44.85444111632632" lon="8.074045478955611"><ele>186.0</ele><time>2026-04-19T06:59:37Z</time></trkpt><trkpt lat="44.854571964445974" lon="8.074091203656755"><ele>187.0</ele><time>2026-04-19T06:59:38Z</time></trkpt><trkpt lat="44.85470924307636" lon="8.074084753222484"><ele>188.0</ele><time>2026-04-19T06:59:39Z</time></trkpt><trkpt lat="44.854839202644534" lon="8.07402751363697"><ele>189.0</ele><time>2026-04-19T06:59:40Z</time></trkpt><trkpt lat="44.854952930534296" lon="8.07390480205946"><ele>189.0</ele><time>2026-04-19T06:59:41Z</time></trkpt><trkpt lat="44.85506374870891" lon="8.07376627904335"><ele>189.0</ele><time>2026-04-19T06:59:42Z</time></trkpt><trkpt lat="44.85517718466546" lon="8.073615876720728"><ele>189.0</ele><time>2026-04-19T06:59:43Z</time></trkpt><trkpt lat="44.855295971431985" lon="8.073472913168297"><ele>189.25</ele><time>2026-04-19T06:59:44Z</time></trkpt><trkpt lat="44.85542322483102" lon="8.073337571674152"><ele>189.5</ele><time>2026-04-19T06:59:45Z</time></trkpt><trkpt lat="44.85555432179251" lon="8.073228624557197"><ele>189.75</ele><time>2026-04-19T06:59:46Z</time></trkpt><trkpt lat="44.855680063650816" lon="8.073152702717913"><ele>190.0</ele><time>2026-04-19T06:59:47Z</time></trkpt><trkpt lat="44.85581247229326" lon="8.073114986983052"><ele>190.66666666666669</ele><time>2026-04-19T06:59:48Z</time></trkpt><trkpt lat="44.85594467052749" lon="8.073158358860109"><ele>191.33333333333334</ele><time>2026-04-19T06:59:49Z</time></trkpt><trkpt lat="44.85608957477147" lon="8.073224772308988"><ele>192.0</ele><time>2026-04-19T06:59:50Z</time></trkpt><trkpt lat="44.856245562813875" lon="8.073290319175467"><ele>190.66666666666666</ele><time>2026-04-19T06:59:51Z</time></trkpt><trkpt lat="44.85638509556869" lon="8.073387789325603"><ele>189.33333333333331</ele><time>2026-04-19T06:59:52Z</time></trkpt><trkpt lat="44.85651944447057" lon="8.073503354945617"><ele>188.0</ele><time>2026-04-19T06:59:53Z</time></trkpt><trkpt lat="44.85664871135028" lon="8.073650285904115"><ele>188.0</ele><time>2026-04-19T06:59:54Z</time></trkpt><trkpt lat="44.85676977437808" lon="8.073810811766792"><ele>188.0</ele><time>2026-04-19T06:59:55Z</time></trkpt><trkpt lat="44.8569068708834" lon="8.073940898424851"><ele>188.0</ele><time>2026-04-19T06:59:56Z</time></trkpt><trkpt lat="44.85705976398181" lon="8.074041791664861"><ele>187.0</ele><time>2026-04-19T06:59:57Z</time></trkpt><trkpt lat="44.85723654402932" lon="8.07413717947057"><ele>186.0</ele><time>2026-04-19T06:59:58Z</time></trkpt><trkpt lat="44.857393846641955" lon="8.074230728050201"><ele>185.0</ele><time>2026-04-19T06:59:59Z</time></trkpt><trkpt lat="44.857553507028435" lon="8.074327915959463"><ele>183.66666666666666</ele><time>2026-04-19T07:00:00Z</time></trkpt><trkpt lat="44.8577200389789" lon="8.074428772335123"><ele>182.33333333333334</ele><time>2026-04-19T07:00:01Z</time></trkpt><trkpt lat="44.85787953221585" lon="8.074526156250847"><ele>181.0</ele><time>2026-04-19T07:00:02Z</time></trkpt><trkpt lat="44.8580353334537" lon="8.074622458920024"><ele>181.0</ele><time>2026-04-19T07:00:03Z</time></trkpt><trkpt lat="44.85819816541509" lon="8.074713447223854"><ele>181.0</ele><time>2026-04-19T07:00:04Z</time></trkpt><trkpt lat="44.85835317359281" lon="8.074812067858579"><ele>181.0</ele><time>2026-04-19T07:00:05Z</time></trkpt><trkpt lat="44.85850399000932" lon="8.07489341125516"><ele>178.33333333333334</ele><time>2026-04-19T07:00:06Z</time></trkpt><trkpt lat="44.858656931843406" lon="8.074959771427562"><ele>175.66666666666666</ele><time>2026-04-19T07:00:07Z</time></trkpt><trkpt lat="44.85880793564803" lon="8.07497529169896"><ele>173.0</ele><time>2026-04-19T07:00:08Z</time></trkpt><trkpt lat="44.85896158363672" lon="8.075008493395377"><ele>173.0</ele><time>2026-04-19T07:00:09Z</time></trkpt><trkpt lat="44.85913888999331" lon="8.075026537289874"><ele>173.0</ele><time>2026-04-19T07:00:10Z</time></trkpt><trkpt lat="44.85931534389254" lon="8.075059540544963"><ele>173.0</ele><time>2026-04-19T07:00:11Z</time></trkpt><trkpt lat="44.859482842251765" lon="8.075087135467744"><ele>172.0</ele><time>2026-04-19T07:00:12Z</time></trkpt><trkpt lat="44.85965358224613" lon="8.075114447100301"><ele>171.0</ele><time>2026-04-19T07:00:13Z</time></trkpt><trkpt lat="44.85982405254154" lon="8.075135636176388"><ele>170.0</ele><time>2026-04-19T07:00:14Z</time></trkpt><trkpt lat="44.85998678028454" lon="8.07516045530418"><ele>170.33333333333331</ele><time>2026-04-19T07:00:15Z</time></trkpt><trkpt lat="44.860141111534354" lon="8.075185897484486"><ele>170.66666666666666</ele><time>2026-04-19T07:00:16Z</time></trkpt><trkpt lat="44.86029723096762" lon="8.075207602535682"><ele>171.0</ele><time>2026-04-19T07:00:17Z</time></trkpt><trkpt lat="44.8604626702031" lon="8.0752163800572"><ele>171.0</ele><time>2026-04-19T07:00:18Z</time></trkpt><trkpt lat="44.86061161820642" lon="8.075192500917003"><ele>171.0</ele><time>2026-04-19T07:00:19Z</time></trkpt><trkpt lat="44.86076906310083" lon="8.075157563740769"><ele>171.0</ele><time>2026-04-19T07:00:20Z</time></trkpt><trkpt lat="44.860922713794416" lon="8.075107068913482"><ele>173.0</ele><time>2026-04-19T07:00:21Z</time></trkpt><trkpt lat="44.861077542294694" lon="8.075043221169729"><ele>175.0</ele><time>2026-04-19T07:00:22Z</time></trkpt><trkpt lat="44.86122859437638" lon="8.074972923756675"><ele>177.0</ele><time>2026-04-19T07:00:23Z</time></trkpt><trkpt lat="44.86137483789752" lon="8.074906514403894"><ele>177.0</ele><time>2026-04-19T07:00:24Z</time></trkpt><trkpt lat="44.86149075472718" lon="8.074846144215439"><ele>177.0</ele><time>2026-04-19T07:00:25Z</time></trkpt><trkpt lat="44.86158511457879" lon="8.074778054016479"><ele>177.0</ele><time>2026-04-19T07:00:26Z</time></trkpt><trkpt lat="44.86166381084697" lon="8.074703457958192"><ele>177.0</ele><time>2026-04-19T07:00:27Z</time></trkpt><trkpt lat="44.86172983058817" lon="8.074661068181394"><ele>177.0</ele><time>2026-04-19T07:00:28Z</time></trkpt><trkpt lat="44.86178369135841" lon="8.074609724150704"><ele>179.0</ele><time>2026-04-19T07:00:29Z</time></trkpt><trkpt lat="44.86184507159655" lon="8.074531846801925"><ele>181.0</ele><time>2026-04-19T07:00:31Z</time></trkpt><trkpt lat="44.862017970781444" lon="8.074755977769804"><ele>183.0</ele><time>2026-04-19T07:00:36Z</time></trkpt><trkpt lat="44.86206240616508" lon="8.074883514709706"><ele>185.0</ele><time>2026-04-19T07:00:38Z</time></trkpt><trkpt lat="44.86210046528948" lon="8.074959473712065"><ele>186.2</ele><time>2026-04-19T07:00:39Z</time></trkpt><trkpt lat="44.86216393517829" lon="8.075032066344694"><ele>187.4</ele><time>2026-04-19T07:00:41Z</time></trkpt><trkpt lat="44.86228628980152" lon="8.075037064933182"><ele>188.60000000000002</ele><time>2026-04-19T07:00:43Z</time></trkpt><trkpt lat="44.862395047672415" lon="8.075008596582819"><ele>189.8</ele><time>2026-04-19T07:00:45Z</time></trkpt><trkpt lat="44.86247146858494" lon="8.074997335437844"><ele>191.0</ele><time>2026-04-19T07:00:47Z</time></trkpt><trkpt lat="44.86254289914871" lon="8.075004887865942"><ele>191.60000000000002</ele><time>2026-04-19T07:00:51Z</time></trkpt><trkpt lat="44.86267895611197" lon="8.074961507439221"><ele>192.2</ele><time>2026-04-19T07:00:53Z</time></trkpt><trkpt lat="44.86277567454148" lon="8.074953300633284"><ele>192.8</ele><time>2026-04-19T07:00:54Z</time></trkpt><trkpt lat="44.86286541839279" lon="8.074953348855697"><ele>193.39999999999998</ele><time>2026-04-19T07:00:55Z</time></trkpt><trkpt lat="44.86296926092308" lon="8.074933616703385"><ele>194.0</ele><time>2026-04-19T07:00:56Z</time></trkpt><trkpt lat="44.863078033850854" lon="8.074932228140154"><ele>194.2</ele><time>2026-04-19T07:00:57Z</time></trkpt><trkpt lat="44.863182760584884" lon="8.074944698621213"><ele>194.39999999999998</ele><time>2026-04-19T07:00:58Z</time></trkpt><trkpt lat="44.86326387443227" lon="8.074976761202672"><ele>194.6</ele><time>2026-04-19T07:00:59Z</time></trkpt><trkpt lat="44.86335173237202" lon="8.07504124834503"><ele>194.8</ele><time>2026-04-19T07:01:00Z</time></trkpt><trkpt lat="44.86344378589944" lon="8.075123170445611"><ele>195.0</ele><time>2026-04-19T07:01:01Z</time></trkpt><trkpt lat="44.8635499156609" lon="8.075199525495012"><ele>195.25</ele><time>2026-04-19T07:01:02Z</time></trkpt><trkpt lat="44.863666845499964" lon="8.075269565834235"><ele>195.5</ele><time>2026-04-19T07:01:03Z</time></trkpt><trkpt lat="44.863780832710006" lon="8.07533793690205"><ele>195.75</ele><time>2026-04-19T07:01:04Z</time></trkpt><trkpt lat="44.863899334213194" lon="8.075413973281135"><ele>196.0</ele><time>2026-04-19T07:01:05Z</time></trkpt><trkpt lat="44.86401318427035" lon="8.075501736803648"><ele>196.0</ele><time>2026-04-19T07:01:06Z</time></trkpt><trkpt lat="44.86413061655951" lon="8.07558759734292"><ele>196.0</ele><time>2026-04-19T07:01:07Z</time></trkpt><trkpt lat="44.86424493011359" lon="8.07566147785859"><ele>196.0</ele><time>2026-04-19T07:01:08Z</time></trkpt><trkpt lat="44.86435608195166" lon="8.075738915415306"><ele>196.0</ele><time>2026-04-19T07:01:09Z</time></trkpt><trkpt lat="44.86445504233707" lon="8.075799516824548"><ele>195.83333333333331</ele><time>2026-04-19T07:01:10Z</time></trkpt><trkpt lat="44.86453621632533" lon="8.07585748401802"><ele>195.66666666666666</ele><time>2026-04-19T07:01:11Z</time></trkpt><trkpt lat="44.86460541071062" lon="8.075905504574132"><ele>195.5</ele><time>2026-04-19T07:01:12Z</time></trkpt><trkpt lat="44.864670765466514" lon="8.07595707447649"><ele>195.33333333333331</ele><time>2026-04-19T07:01:13Z</time></trkpt><trkpt lat="44.864744645248976" lon="8.076005298612657"><ele>195.16666666666666</ele><time>2026-04-19T07:01:14Z</time></trkpt><trkpt lat="44.86482523210555" lon="8.076045935743304"><ele>195.0</ele><time>2026-04-19T07:01:15Z</time></trkpt><trkpt lat="44.864904977399114" lon="8.076126742306505"><ele>195.0</ele><time>2026-04-19T07:01:16Z</time></trkpt><trkpt lat="44.864978294638775" lon="8.076214325746328"><ele>195.0</ele><time>2026-04-19T07:01:17Z</time></trkpt><trkpt lat="44.8650410250681" lon="8.076289597990364"><ele>195.0</ele><time>2026-04-19T07:01:18Z</time></trkpt><trkpt lat="44.86509213145079" lon="8.07635088128763"><ele>195.0</ele><time>2026-04-19T07:01:19Z</time></trkpt><trkpt lat="44.865202840711014" lon="8.076450180242935"><ele>195.0</ele><time>2026-04-19T07:01:21Z</time></trkpt><trkpt lat="44.865273085331616" lon="8.076509044615788"><ele>194.4</ele><time>2026-04-19T07:01:22Z</time></trkpt><trkpt lat="44.865335270056725" lon="8.076583874838525"><ele>193.8</ele><time>2026-04-19T07:01:23Z</time></trkpt><trkpt lat="44.86537465535858" lon="8.076662341937626"><ele>193.2</ele><time>2026-04-19T07:01:24Z</time></trkpt><trkpt lat="44.86538561900706" lon="8.07684769899996"><ele>192.6</ele><time>2026-04-19T07:01:26Z</time></trkpt><trkpt lat="44.86537778005003" lon="8.076939012441736"><ele>192.0</ele><time>2026-04-19T07:01:27Z</time></trkpt><trkpt lat="44.86536856993098" lon="8.07710890392236"><ele>190.33333333333334</ele><time>2026-04-19T07:01:29Z</time></trkpt><trkpt lat="44.86537896024167" lon="8.077239989197903"><ele>188.66666666666666</ele><time>2026-04-19T07:01:31Z</time></trkpt><trkpt lat="44.86543119335612" lon="8.077299708865764"><ele>187.0</ele><time>2026-04-19T07:01:33Z</time></trkpt><trkpt lat="44.8655113622432" lon="8.077292706191736"><ele>185.33333333333331</ele><time>2026-04-19T07:01:35Z</time></trkpt><trkpt lat="44.86558713407168" lon="8.077349079510313"><ele>183.66666666666666</ele><time>2026-04-19T07:01:37Z</time></trkpt><trkpt lat="44.865655798038745" lon="8.077402722579636"><ele>182.0</ele><time>2026-04-19T07:01:40Z</time></trkpt><trkpt lat="44.86571152531449" lon="8.077468169665453"><ele>180.5</ele><time>2026-04-19T07:01:44Z</time></trkpt><trkpt lat="44.8658143744174" lon="8.077516137928795"><ele>179.0</ele><time>2026-04-19T07:01:46Z</time></trkpt><trkpt lat="44.865818300261274" lon="8.077617949475913"><ele>177.5</ele><time>2026-04-19T07:01:56Z</time></trkpt><trkpt lat="44.86578046489937" lon="8.07770964900271"><ele>176.0</ele><time>2026-04-19T07:01:58Z</time></trkpt><trkpt lat="44.86576049529839" lon="8.077803383096994"><ele>174.5</ele><time>2026-04-19T07:02:05Z</time></trkpt><trkpt lat="44.86572335661152" lon="8.077924487485136"><ele>173.0</ele><time>2026-04-19T07:02:08Z</time></trkpt><trkpt lat="44.8657970717026" lon="8.07802056233464"><ele>173.0</ele><time>2026-04-19T07:02:10Z</time></trkpt><trkpt lat="44.86587701515698" lon="8.0780960660377"><ele>173.0</ele><time>2026-04-19T07:02:12Z</time></trkpt><trkpt lat="44.86595036604371" lon="8.078159478271317"><ele>173.0</ele><time>2026-04-19T07:02:15Z</time></trkpt><trkpt lat="44.86593279680057" lon="8.078246152414247"><ele>173.0</ele><time>2026-04-19T07:02:17Z</time></trkpt><trkpt lat="44.865919414121315" lon="8.078359322197757"><ele>173.0</ele><time>2026-04-19T07:02:20Z</time></trkpt><trkpt lat="44.86592354517079" lon="8.078481833926274"><ele>173.0</ele><time>2026-04-19T07:02:22Z</time></trkpt><trkpt lat="44.8659077712014" lon="8.078601714123387"><ele>173.0</ele><time>2026-04-19T07:02:24Z</time></trkpt><trkpt lat="44.86586938565011" lon="8.078674781051822"><ele>173.0</ele><time>2026-04-19T07:02:26Z</time></trkpt><trkpt lat="44.865804240318134" lon="8.07874190976855"><ele>173.0</ele><time>2026-04-19T07:02:30Z</time></trkpt><trkpt lat="44.86579823845648" lon="8.078865363307214"><ele>173.0</ele><time>2026-04-19T07:02:32Z</time></trkpt><trkpt lat="44.865764085507706" lon="8.079003743216044"><ele>173.0</ele><time>2026-04-19T07:02:34Z</time></trkpt><trkpt lat="44.86578433114521" lon="8.079146501621338"><ele>173.0</ele><time>2026-04-19T07:02:37Z</time></trkpt><trkpt lat="44.86575633284363" lon="8.079278447446592"><ele>173.0</ele><time>2026-04-19T07:02:39Z</time></trkpt><trkpt lat="44.86569971937966" lon="8.0793974715691"><ele>173.0</ele><time>2026-04-19T07:02:41Z</time></trkpt><trkpt lat="44.86565224753587" lon="8.079465323411616"><ele>173.0</ele><time>2026-04-19T07:02:42Z</time></trkpt><trkpt lat="44.865591941162485" lon="8.079592988429372"><ele>173.0</ele><time>2026-04-19T07:02:44Z</time></trkpt><trkpt lat="44.865542096525665" lon="8.079681049904076"><ele>173.0</ele><time>2026-04-19T07:02:46Z</time></trkpt><trkpt lat="44.86551013344645" lon="8.079772055219133"><ele>173.0</ele><time>2026-04-19T07:02:48Z</time></trkpt><trkpt lat="44.865485138887095" lon="8.079866568458058"><ele>172.66666666666666</ele><time>2026-04-19T07:02:52Z</time></trkpt><trkpt lat="44.865499770158706" lon="8.079974799849827"><ele>172.33333333333331</ele><time>2026-04-19T07:02:58Z</time></trkpt><trkpt lat="44.8655110952498" lon="8.080079326848693"><ele>172.0</ele><time>2026-04-19T07:03:00Z</time></trkpt><trkpt lat="44.8654808020449" lon="8.080218745336554"><ele>171.66666666666666</ele><time>2026-04-19T07:03:03Z</time></trkpt><trkpt lat="44.8654208215254" lon="8.080338205437707"><ele>171.33333333333334</ele><time>2026-04-19T07:03:05Z</time></trkpt><trkpt lat="44.86537410799076" lon="8.080404823154343"><ele>171.0</ele><time>2026-04-19T07:03:13Z</time></trkpt><trkpt lat="44.86539140160814" lon="8.080494599820538"><ele>170.99999999999997</ele><time>2026-04-19T07:03:22Z</time></trkpt><trkpt lat="44.865421873699866" lon="8.080575858645402"><ele>171.0</ele><time>2026-04-19T07:03:32Z</time></trkpt><trkpt lat="44.865371647021924" lon="8.080631817703047"><ele>171.0</ele><time>2026-04-19T07:03:51Z</time></trkpt><trkpt lat="44.865430183405465" lon="8.080681117575528"><ele>171.0</ele><time>2026-04-19T07:03:57Z</time></trkpt><trkpt lat="44.86547210805448" lon="8.08077433573376"><ele>171.0</ele><time>2026-04-19T07:04:01Z</time></trkpt><trkpt lat="44.86548363896607" lon="8.080889659121155"><ele>170.99999999999997</ele><time>2026-04-19T07:04:11Z</time></trkpt><trkpt lat="44.86555253215335" lon="8.080953778155322"><ele>171.0</ele><time>2026-04-19T07:04:13Z</time></trkpt><trkpt lat="44.86555920552787" lon="8.08111953909418"><ele>170.66666666666666</ele><time>2026-04-19T07:04:16Z</time></trkpt><trkpt lat="44.8655369401623" lon="8.081213201210792"><ele>170.33333333333334</ele><time>2026-04-19T07:04:18Z</time></trkpt><trkpt lat="44.865504504345665" lon="8.081327227153857"><ele>170.0</ele><time>2026-04-19T07:04:20Z</time></trkpt><trkpt lat="44.86551812558217" lon="8.08142148439169"><ele>169.66666666666669</ele><time>2026-04-19T07:04:21Z</time></trkpt><trkpt lat="44.865512303443026" lon="8.081533988998046"><ele>169.33333333333334</ele><time>2026-04-19T07:04:22Z</time></trkpt><trkpt lat="44.86552390900787" lon="8.081722934336492"><ele>169.0</ele><time>2026-04-19T07:04:24Z</time></trkpt><trkpt lat="44.86549111162377" lon="8.08184052053512"><ele>168.71428571428572</ele><time>2026-04-19T07:04:25Z</time></trkpt><trkpt lat="44.865501961749246" lon="8.081966267031532"><ele>168.42857142857142</ele><time>2026-04-19T07:04:27Z</time></trkpt><trkpt lat="44.86544923469741" lon="8.082026560302372"><ele>168.14285714285714</ele><time>2026-04-19T07:04:29Z</time></trkpt><trkpt lat="44.86542415267355" lon="8.082124889816338"><ele>167.85714285714286</ele><time>2026-04-19T07:04:32Z</time></trkpt><trkpt lat="44.865414255345314" lon="8.082220671809317"><ele>167.57142857142858</ele><time>2026-04-19T07:04:40Z</time></trkpt><trkpt lat="44.86544662108027" lon="8.0823140603718"><ele>167.28571428571428</ele><time>2026-04-19T07:04:47Z</time></trkpt><trkpt lat="44.86546704255255" lon="8.082410454104249"><ele>167.0</ele><time>2026-04-19T07:04:59Z</time></trkpt><trkpt lat="44.86551854613209" lon="8.082474219392482"><ele>166.66666666666666</ele><time>2026-04-19T07:05:03Z</time></trkpt><trkpt lat="44.865595916645084" lon="8.0825494990684"><ele>166.33333333333331</ele><time>2026-04-19T07:05:17Z</time></trkpt><trkpt lat="44.865651413977425" lon="8.082653848494358"><ele>166.0</ele><time>2026-04-19T07:05:29Z</time></trkpt><trkpt lat="44.865637222547996" lon="8.08274727490423"><ele>165.66666666666666</ele><time>2026-04-19T07:05:31Z</time></trkpt><trkpt lat="44.86557906444517" lon="8.08279928433173"><ele>165.33333333333334</ele><time>2026-04-19T07:05:36Z</time></trkpt><trkpt lat="44.86553365420198" lon="8.082903797422043"><ele>165.0</ele><time>2026-04-19T07:05:39Z</time></trkpt><trkpt lat="44.86548973476766" lon="8.082967753104837"><ele>165.0</ele><time>2026-04-19T07:05:43Z</time></trkpt><trkpt lat="44.865502238563984" lon="8.083091758255325"><ele>165.0</ele><time>2026-04-19T07:05:47Z</time></trkpt><trkpt lat="44.86551952170844" lon="8.083188000530962"><ele>165.0</ele><time>2026-04-19T07:05:50Z</time></trkpt><trkpt lat="44.865501922883844" lon="8.083308073677214"><ele>165.0</ele><time>2026-04-19T07:05:53Z</time></trkpt><trkpt lat="44.86545481758474" lon="8.08337625197052"><ele>165.0</ele><time>2026-04-19T07:05:54Z</time></trkpt><trkpt lat="44.865394708695455" lon="8.083465588520662"><ele>165.0</ele><time>2026-04-19T07:05:56Z</time></trkpt><trkpt lat="44.86541000223843" lon="8.083574434118205"><ele>165.4</ele><time>2026-04-19T07:05:57Z</time></trkpt><trkpt lat="44.865425325146106" lon="8.083686995941424"><ele>165.8</ele><time>2026-04-19T07:05:58Z</time></trkpt><trkpt lat="44.86544139743214" lon="8.08379914625851"><ele>166.2</ele><time>2026-04-19T07:05:59Z</time></trkpt><trkpt lat="44.86545725411433" lon="8.083916856160739"><ele>166.6</ele><time>2026-04-19T07:06:00Z</time></trkpt><trkpt lat="44.865501914034226" lon="8.084039714189961"><ele>167.0</ele><time>2026-04-19T07:06:01Z</time></trkpt><trkpt lat="44.865572646985534" lon="8.084170752657247"><ele>168.0</ele><time>2026-04-19T07:06:02Z</time></trkpt><trkpt lat="44.86562296063475" lon="8.08431668543675"><ele>169.0</ele><time>2026-04-19T07:06:03Z</time></trkpt><trkpt lat="44.865679666543855" lon="8.084453831435287"><ele>170.0</ele><time>2026-04-19T07:06:04Z</time></trkpt><trkpt lat="44.86574469748978" lon="8.084574178900176"><ele>171.0</ele><time>2026-04-19T07:06:05Z</time></trkpt><trkpt lat="44.86579571475535" lon="8.084698048503178"><ele>172.0</ele><time>2026-04-19T07:06:06Z</time></trkpt><trkpt lat="44.865852290526846" lon="8.084842061361666"><ele>172.39999999999998</ele><time>2026-04-19T07:06:07Z</time></trkpt><trkpt lat="44.865901603438125" lon="8.084969582694074"><ele>172.79999999999998</ele><time>2026-04-19T07:06:08Z</time></trkpt><trkpt lat="44.86598101215865" lon="8.085118152797646"><ele>173.2</ele><time>2026-04-19T07:06:10Z</time></trkpt><trkpt lat="44.866061969980784" lon="8.085157882141914"><ele>173.6</ele><time>2026-04-19T07:06:12Z</time></trkpt><trkpt lat="44.86613256160196" lon="8.08507701835006"><ele>174.0</ele><time>2026-04-19T07:06:14Z</time></trkpt><trkpt lat="44.86618625231188" lon="8.085028978192984"><ele>172.6</ele><time>2026-04-19T07:06:16Z</time></trkpt><trkpt lat="44.866229045134375" lon="8.084959191322085"><ele>171.2</ele><time>2026-04-19T07:06:21Z</time></trkpt><trkpt lat="44.866335410031" lon="8.085167233754808"><ele>169.79999999999998</ele><time>2026-04-19T07:06:32Z</time></trkpt><trkpt lat="44.866374511042615" lon="8.085254218517134"><ele>168.39999999999998</ele><time>2026-04-19T07:06:33Z</time></trkpt><trkpt lat="44.86647424928654" lon="8.085336240984706"><ele>167.0</ele><time>2026-04-19T07:06:35Z</time></trkpt><trkpt lat="44.86653582975297" lon="8.085393991208234"><ele>167.0</ele><time>2026-04-19T07:06:36Z</time></trkpt><trkpt lat="44.86651264979992" lon="8.085485111464887"><ele>167.0</ele><time>2026-04-19T07:07:29Z</time></trkpt><trkpt lat="44.86648363291683" lon="8.08559076563039"><ele>167.0</ele><time>2026-04-19T07:07:33Z</time></trkpt><trkpt lat="44.86650349095185" lon="8.08567935330943"><ele>167.0</ele><time>2026-04-19T07:07:34Z</time></trkpt><trkpt lat="44.86653031579882" lon="8.085796895808082"><ele>167.0</ele><time>2026-04-19T07:07:36Z</time></trkpt><trkpt lat="44.86649713416389" lon="8.085891750762057"><ele>167.0</ele><time>2026-04-19T07:07:49Z</time></trkpt><trkpt lat="44.86643497417841" lon="8.085964372717628"><ele>166.85714285714286</ele><time>2026-04-19T07:07:51Z</time></trkpt><trkpt lat="44.86640903713452" lon="8.08606074750121"><ele>166.71428571428572</ele><time>2026-04-19T07:07:53Z</time></trkpt><trkpt lat="44.866413985355834" lon="8.086167967837593"><ele>166.57142857142856</ele><time>2026-04-19T07:07:55Z</time></trkpt><trkpt lat="44.86634752897795" lon="8.086199232409111"><ele>166.42857142857144</ele><time>2026-04-19T07:07:58Z</time></trkpt><trkpt lat="44.86627510445673" lon="8.086240959090581"><ele>166.2857142857143</ele><time>2026-04-19T07:08:01Z</time></trkpt><trkpt lat="44.866243967163" lon="8.08634839167959"><ele>166.14285714285714</ele><time>2026-04-19T07:08:03Z</time></trkpt><trkpt lat="44.86625748352054" lon="8.086438863919497"><ele>166.0</ele><time>2026-04-19T07:08:06Z</time></trkpt><trkpt lat="44.86628873979891" lon="8.086572173710692"><ele>165.20000000000002</ele><time>2026-04-19T07:08:08Z</time></trkpt><trkpt lat="44.86630897290648" lon="8.08666497289672"><ele>164.4</ele><time>2026-04-19T07:08:10Z</time></trkpt><trkpt lat="44.8663167620171" lon="8.086788210234337"><ele>163.6</ele><time>2026-04-19T07:08:13Z</time></trkpt><trkpt lat="44.86639102946355" lon="8.086741214926088"><ele>162.8</ele><time>2026-04-19T07:08:17Z</time></trkpt><trkpt lat="44.86651487611333" lon="8.086836872512396"><ele>162.0</ele><time>2026-04-19T07:08:20Z</time></trkpt><trkpt lat="44.866580232509854" lon="8.086895722372475"><ele>162.0</ele><time>2026-04-19T07:08:22Z</time></trkpt><trkpt lat="44.8666446878996" lon="8.086968446073232"><ele>162.0</ele><time>2026-04-19T07:08:24Z</time></trkpt><trkpt lat="44.86666822623597" lon="8.087100208400106"><ele>162.0</ele><time>2026-04-19T07:08:26Z</time></trkpt><trkpt lat="44.86670715244367" lon="8.087210642452304"><ele>162.0</ele><time>2026-04-19T07:08:28Z</time></trkpt><trkpt lat="44.866702799011925" lon="8.087334274991422"><ele>162.0</ele><time>2026-04-19T07:08:30Z</time></trkpt><trkpt lat="44.866794786039364" lon="8.08737984602651"><ele>163.25</ele><time>2026-04-19T07:08:32Z</time></trkpt><trkpt lat="44.86692308890463" lon="8.087651732505627"><ele>164.5</ele><time>2026-04-19T07:08:39Z</time></trkpt><trkpt lat="44.866946584232764" lon="8.08776915375281"><ele>165.75</ele><time>2026-04-19T07:08:41Z</time></trkpt><trkpt lat="44.86700729713188" lon="8.087864026544636"><ele>167.0</ele><time>2026-04-19T07:08:43Z</time></trkpt><trkpt lat="44.86701734204068" lon="8.087960037851232"><ele>167.0</ele><time>2026-04-19T07:08:44Z</time></trkpt><trkpt lat="44.867072295589004" lon="8.088097056819644"><ele>167.0</ele><time>2026-04-19T07:08:46Z</time></trkpt><trkpt lat="44.86715461795113" lon="8.088179783839353"><ele>167.0</ele><time>2026-04-19T07:08:48Z</time></trkpt><trkpt lat="44.86720497562544" lon="8.08827023866765"><ele>167.0</ele><time>2026-04-19T07:08:51Z</time></trkpt><trkpt lat="44.86725540966992" lon="8.088327357534705"><ele>167.0</ele><time>2026-04-19T07:08:58Z</time></trkpt><trkpt lat="44.867320548183585" lon="8.088348970822105"><ele>167.0</ele><time>2026-04-19T07:09:04Z</time></trkpt><trkpt lat="44.86739802052908" lon="8.08839993257223"><ele>167.16666666666666</ele><time>2026-04-19T07:09:07Z</time></trkpt><trkpt lat="44.86738500833758" lon="8.088527063780587"><ele>167.33333333333331</ele><time>2026-04-19T07:09:10Z</time></trkpt><trkpt lat="44.86743901490384" lon="8.088586553003081"><ele>167.5</ele><time>2026-04-19T07:09:11Z</time></trkpt><trkpt lat="44.86752594372173" lon="8.08867408517173"><ele>167.66666666666666</ele><time>2026-04-19T07:09:13Z</time></trkpt><trkpt lat="44.86757404153706" lon="8.088744136820983"><ele>167.83333333333334</ele><time>2026-04-19T07:09:14Z</time></trkpt><trkpt lat="44.86762018475224" lon="8.088824096109342"><ele>168.0</ele><time>2026-04-19T07:09:15Z</time></trkpt><trkpt lat="44.86770006142303" lon="8.088945417573509"><ele>168.0</ele><time>2026-04-19T07:09:17Z</time></trkpt><trkpt lat="44.867811225272874" lon="8.08900722782662"><ele>168.0</ele><time>2026-04-19T07:09:19Z</time></trkpt><trkpt lat="44.867878229669834" lon="8.08911304918446"><ele>168.0</ele><time>2026-04-19T07:09:21Z</time></trkpt><trkpt lat="44.867861086918346" lon="8.08925455887309"><ele>168.0</ele><time>2026-04-19T07:09:24Z</time></trkpt><trkpt lat="44.867893233709246" lon="8.089384068673066"><ele>168.0</ele><time>2026-04-19T07:09:26Z</time></trkpt><trkpt lat="44.8679875394391" lon="8.089461502710268"><ele>167.4</ele><time>2026-04-19T07:09:28Z</time></trkpt><trkpt lat="44.86805611137753" lon="8.089474772411036"><ele>166.8</ele><time>2026-04-19T07:09:29Z</time></trkpt><trkpt lat="44.86815279235869" lon="8.089561380861989"><ele>166.2</ele><time>2026-04-19T07:09:31Z</time></trkpt><trkpt lat="44.868247075504854" lon="8.089702501530466"><ele>165.6</ele><time>2026-04-19T07:09:33Z</time></trkpt><trkpt lat="44.868285300318036" lon="8.089804235072641"><ele>165.0</ele><time>2026-04-19T07:09:35Z</time></trkpt><trkpt lat="44.868306795211964" lon="8.089919528354557"><ele>164.4</ele><time>2026-04-19T07:09:37Z</time></trkpt><trkpt lat="44.868358462537174" lon="8.09000572392137"><ele>163.8</ele><time>2026-04-19T07:09:39Z</time></trkpt><trkpt lat="44.868397023775415" lon="8.09008677402317"><ele>163.2</ele><time>2026-04-19T07:09:40Z</time></trkpt><trkpt lat="44.86842241560155" lon="8.090211913970487"><ele>162.6</ele><time>2026-04-19T07:09:42Z</time></trkpt><trkpt lat="44.86840375747063" lon="8.090362565280516"><ele>162.0</ele><time>2026-04-19T07:09:44Z</time></trkpt><trkpt lat="44.868437570334365" lon="8.090497441879418"><ele>162.0</ele><time>2026-04-19T07:09:46Z</time></trkpt><trkpt lat="44.868466820888074" lon="8.090641223916432"><ele>162.0</ele><time>2026-04-19T07:09:48Z</time></trkpt><trkpt lat="44.868528431100515" lon="8.090791045754475"><ele>162.0</ele><time>2026-04-19T07:09:50Z</time></trkpt><trkpt lat="44.86858669330401" lon="8.090881790462223"><ele>162.0</ele><time>2026-04-19T07:09:52Z</time></trkpt><trkpt lat="44.868609860054185" lon="8.091018882211445"><ele>162.0</ele><time>2026-04-19T07:09:56Z</time></trkpt><trkpt lat="44.86866817505309" lon="8.091138015261404"><ele>161.5</ele><time>2026-04-19T07:09:58Z</time></trkpt><trkpt lat="44.86870313090165" lon="8.09122570476169"><ele>161.0</ele><time>2026-04-19T07:09:59Z</time></trkpt><trkpt lat="44.868759190144786" lon="8.091304755540564"><ele>160.5</ele><time>2026-04-19T07:10:00Z</time></trkpt><trkpt lat="44.868781838994245" lon="8.091441463029538"><ele>160.0</ele><time>2026-04-19T07:10:02Z</time></trkpt><trkpt lat="44.868833020223164" lon="8.09153643681283"><ele>159.5</ele><time>2026-04-19T07:10:05Z</time></trkpt><trkpt lat="44.86879485645687" lon="8.091647670173618"><ele>159.0</ele><time>2026-04-19T07:10:08Z</time></trkpt><trkpt lat="44.868826695621635" lon="8.09174903831603"><ele>159.0</ele><time>2026-04-19T07:10:11Z</time></trkpt><trkpt lat="44.86883425681546" lon="8.091903570301088"><ele>159.0</ele><time>2026-04-19T07:10:13Z</time></trkpt><trkpt lat="44.86875908292794" lon="8.09197085832501"><ele>159.0</ele><time>2026-04-19T07:10:16Z</time></trkpt><trkpt lat="44.86869260809403" lon="8.092000532382082"><ele>159.0</ele><time>2026-04-19T07:10:18Z</time></trkpt><trkpt lat="44.868713577235475" lon="8.092158360574077"><ele>159.0</ele><time>2026-04-19T07:10:21Z</time></trkpt><trkpt lat="44.86877537694681" lon="8.09223210311019"><ele>159.0</ele><time>2026-04-19T07:10:22Z</time></trkpt><trkpt lat="44.868850041584714" lon="8.092321622372205"><ele>159.0</ele><time>2026-04-19T07:10:23Z</time></trkpt><trkpt lat="44.86887473970908" lon="8.092412577306611"><ele>159.0</ele><time>2026-04-19T07:10:24Z</time></trkpt><trkpt lat="44.868932661146545" lon="8.092508957394395"><ele>159.0</ele><time>2026-04-19T07:10:26Z</time></trkpt><trkpt lat="44.86908670137762" lon="8.09239504252667"><ele>159.0</ele><time>2026-04-19T07:10:27Z</time></trkpt><trkpt lat="44.86916330344358" lon="8.092338320677765"><ele>159.0</ele><time>2026-04-19T07:10:28Z</time></trkpt><trkpt lat="44.869263389752966" lon="8.092275681723406"><ele>159.0</ele><time>2026-04-19T07:10:29Z</time></trkpt><trkpt lat="44.86939417522849" lon="8.092198505389923"><ele>159.0</ele><time>2026-04-19T07:10:30Z</time></trkpt><trkpt lat="44.869526388275425" lon="8.09212974227575"><ele>159.0</ele><time>2026-04-19T07:10:31Z</time></trkpt><trkpt lat="44.869667635378875" lon="8.092062154229243"><ele>159.0</ele><time>2026-04-19T07:10:32Z</time></trkpt><trkpt lat="44.86977775809923" lon="8.091985992155639"><ele>159.0</ele><time>2026-04-19T07:10:33Z</time></trkpt><trkpt lat="44.86987612078873" lon="8.09194992715519"><ele>159.0</ele><time>2026-04-19T07:10:34Z</time></trkpt><trkpt lat="44.86995692745363" lon="8.091911361156994"><ele>159.0</ele><time>2026-04-19T07:10:35Z</time></trkpt><trkpt lat="44.87004751987452" lon="8.091871013801105"><ele>159.0</ele><time>2026-04-19T07:10:36Z</time></trkpt><trkpt lat="44.870146363180424" lon="8.091822483054864"><ele>160.5</ele><time>2026-04-19T07:10:37Z</time></trkpt><trkpt lat="44.870255420728995" lon="8.091773178389383"><ele>162.0</ele><time>2026-04-19T07:10:38Z</time></trkpt><trkpt lat="44.870367054760905" lon="8.091733097191854"><ele>163.5</ele><time>2026-04-19T07:10:39Z</time></trkpt><trkpt lat="44.87048291664739" lon="8.091689220435594"><ele>165.0</ele><time>2026-04-19T07:10:40Z</time></trkpt><trkpt lat="44.870604487804776" lon="8.091636155325805"><ele>165.6</ele><time>2026-04-19T07:10:41Z</time></trkpt><trkpt lat="44.87072464199157" lon="8.091589625548457"><ele>166.2</ele><time>2026-04-19T07:10:42Z</time></trkpt><trkpt lat="44.870826542721815" lon="8.091554492768857"><ele>166.8</ele><time>2026-04-19T07:10:43Z</time></trkpt><trkpt lat="44.87092057414744" lon="8.091544711521417"><ele>167.4</ele><time>2026-04-19T07:10:44Z</time></trkpt><trkpt lat="44.87099557483906" lon="8.091527145180395"><ele>168.0</ele><time>2026-04-19T07:10:45Z</time></trkpt><trkpt lat="44.871065216568034" lon="8.091528509980877"><ele>168.0</ele><time>2026-04-19T07:10:46Z</time></trkpt><trkpt lat="44.871163160955966" lon="8.091604295626174"><ele>168.0</ele><time>2026-04-19T07:10:48Z</time></trkpt><trkpt lat="44.87129569192035" lon="8.091545843660025"><ele>168.0</ele><time>2026-04-19T07:10:50Z</time></trkpt><trkpt lat="44.87136694770103" lon="8.091548110281606"><ele>168.0</ele><time>2026-04-19T07:10:51Z</time></trkpt><trkpt lat="44.871438817843924" lon="8.091516512481501"><ele>168.0</ele><time>2026-04-19T07:10:52Z</time></trkpt><trkpt lat="44.87154068429101" lon="8.091540425824858"><ele>168.0</ele><time>2026-04-19T07:10:54Z</time></trkpt><trkpt lat="44.87160225564403" lon="8.091575978636667"><ele>168.0</ele><time>2026-04-19T07:10:55Z</time></trkpt><trkpt lat="44.87163272461843" lon="8.091668637566183"><ele>168.0</ele><time>2026-04-19T07:10:56Z</time></trkpt><trkpt lat="44.87168955526995" lon="8.091758094599928"><ele>168.0</ele><time>2026-04-19T07:10:57Z</time></trkpt><trkpt lat="44.87174188544818" lon="8.091884338813708"><ele>168.0</ele><time>2026-04-19T07:10:58Z</time></trkpt><trkpt lat="44.87179189113375" lon="8.091989602678607"><ele>168.0</ele><time>2026-04-19T07:10:59Z</time></trkpt><trkpt lat="44.87183287894965" lon="8.092072189613916"><ele>167.8</ele><time>2026-04-19T07:11:00Z</time></trkpt><trkpt lat="44.87188052354928" lon="8.092134683989235"><ele>167.60000000000002</ele><time>2026-04-19T07:11:01Z</time></trkpt><trkpt lat="44.87193614168774" lon="8.092191550543548"><ele>167.39999999999998</ele><time>2026-04-19T07:11:02Z</time></trkpt><trkpt lat="44.872024022751866" lon="8.092260892190302"><ele>167.2</ele><time>2026-04-19T07:11:03Z</time></trkpt><trkpt lat="44.87213049372668" lon="8.092296345461735"><ele>167.0</ele><time>2026-04-19T07:11:04Z</time></trkpt><trkpt lat="44.87223811298552" lon="8.092287125652863"><ele>167.0</ele><time>2026-04-19T07:11:05Z</time></trkpt><trkpt lat="44.87232329011308" lon="8.092256221519106"><ele>167.0</ele><time>2026-04-19T07:11:06Z</time></trkpt><trkpt lat="44.8724044333643" lon="8.092211815175775"><ele>167.0</ele><time>2026-04-19T07:11:07Z</time></trkpt><trkpt lat="44.872483112813185" lon="8.092213538963366"><ele>167.0</ele><time>2026-04-19T07:11:08Z</time></trkpt><trkpt lat="44.87256473283306" lon="8.092194843627185"><ele>167.0</ele><time>2026-04-19T07:11:09Z</time></trkpt><trkpt lat="44.87265179121606" lon="8.092176934855383"><ele>167.0</ele><time>2026-04-19T07:11:10Z</time></trkpt><trkpt lat="44.87274175069022" lon="8.092142221875035"><ele>166.8</ele><time>2026-04-19T07:11:11Z</time></trkpt><trkpt lat="44.87283616050143" lon="8.09212687668744"><ele>166.6</ele><time>2026-04-19T07:11:12Z</time></trkpt><trkpt lat="44.87291960951605" lon="8.092114764149494"><ele>166.4</ele><time>2026-04-19T07:11:13Z</time></trkpt><trkpt lat="44.87300761305734" lon="8.092104798468993"><ele>166.20000000000002</ele><time>2026-04-19T07:11:14Z</time></trkpt><trkpt lat="44.87310074337264" lon="8.09208876997564"><ele>166.0</ele><time>2026-04-19T07:11:15Z</time></trkpt><trkpt lat="44.873189726103355" lon="8.092073814846609"><ele>166.0</ele><time>2026-04-19T07:11:16Z</time></trkpt><trkpt lat="44.87328510338085" lon="8.092053433419627"><ele>166.0</ele><time>2026-04-19T07:11:17Z</time></trkpt><trkpt lat="44.873384124271574" lon="8.092037283034026"><ele>166.0</ele><time>2026-04-19T07:11:18Z</time></trkpt><trkpt lat="44.87347096632005" lon="8.092029761034686"><ele>166.0</ele><time>2026-04-19T07:11:19Z</time></trkpt><trkpt lat="44.87356564919773" lon="8.092010654758791"><ele>166.0</ele><time>2026-04-19T07:11:20Z</time></trkpt><trkpt lat="44.87366675487052" lon="8.091989614737772"><ele>166.0</ele><time>2026-04-19T07:11:21Z</time></trkpt><trkpt lat="44.87376562985364" lon="8.091970490562009"><ele>166.0</ele><time>2026-04-19T07:11:22Z</time></trkpt><trkpt lat="44.8738605852013" lon="8.09195623517276"><ele>166.0</ele><time>2026-04-19T07:11:23Z</time></trkpt><trkpt lat="44.87395219223639" lon="8.091941901444395"><ele>166.0</ele><time>2026-04-19T07:11:24Z</time></trkpt><trkpt lat="44.87403964757057" lon="8.09192688220744"><ele>166.0</ele><time>2026-04-19T07:11:25Z</time></trkpt><trkpt lat="44.87413132033079" lon="8.091912766053976"><ele>166.0</ele><time>2026-04-19T07:11:26Z</time></trkpt><trkpt lat="44.8742170147953" lon="8.091916722342102"><ele>166.0</ele><time>2026-04-19T07:11:27Z</time></trkpt><trkpt lat="44.874308961277066" lon="8.091879962489987"><ele>166.0</ele><time>2026-04-19T07:11:28Z</time></trkpt><trkpt lat="44.87440910845798" lon="8.091885118289222"><ele>166.0</ele><time>2026-04-19T07:11:29Z</time></trkpt><trkpt lat="44.87451417308127" lon="8.091867278854643"><ele>166.0</ele><time>2026-04-19T07:11:30Z</time></trkpt><trkpt lat="44.87461860905359" lon="8.091847869784393"><ele>166.0</ele><time>2026-04-19T07:11:31Z</time></trkpt><trkpt lat="44.87471834932367" lon="8.091829242435471"><ele>166.0</ele><time>2026-04-19T07:11:32Z</time></trkpt><trkpt lat="44.87482997060996" lon="8.091806137393034"><ele>166.0</ele><time>2026-04-19T07:11:33Z</time></trkpt><trkpt lat="44.87494039404381" lon="8.091770999302467"><ele>166.0</ele><time>2026-04-19T07:11:34Z</time></trkpt><trkpt lat="44.87504798718247" lon="8.091749780234613"><ele>166.0</ele><time>2026-04-19T07:11:35Z</time></trkpt><trkpt lat="44.87514375380454" lon="8.091696277164347"><ele>166.0</ele><time>2026-04-19T07:11:36Z</time></trkpt><trkpt lat="44.875223371876004" lon="8.091632861196857"><ele>166.0</ele><time>2026-04-19T07:11:37Z</time></trkpt><trkpt lat="44.875312994114296" lon="8.091543514958802"><ele>166.0</ele><time>2026-04-19T07:11:38Z</time></trkpt><trkpt lat="44.8753924959024" lon="8.091442966158247"><ele>166.0</ele><time>2026-04-19T07:11:39Z</time></trkpt><trkpt lat="44.875451230016964" lon="8.091331124574651"><ele>166.0</ele><time>2026-04-19T07:11:40Z</time></trkpt><trkpt lat="44.87550234590585" lon="8.09125664191907"><ele>165.66666666666669</ele><time>2026-04-19T07:11:41Z</time></trkpt><trkpt lat="44.87558441755161" lon="8.09116969536032"><ele>165.33333333333334</ele><time>2026-04-19T07:11:43Z</time></trkpt><trkpt lat="44.87562798454551" lon="8.091081973025647"><ele>165.0</ele><time>2026-04-19T07:11:45Z</time></trkpt><trkpt lat="44.8756684918941" lon="8.091012354562771"><ele>164.66666666666666</ele><time>2026-04-19T07:11:46Z</time></trkpt><trkpt lat="44.87572560237357" lon="8.090914200903525"><ele>164.33333333333331</ele><time>2026-04-19T07:11:47Z</time></trkpt><trkpt lat="44.87583056140875" lon="8.090872697249067"><ele>164.0</ele><time>2026-04-19T07:11:48Z</time></trkpt><trkpt lat="44.87585858798416" lon="8.090726844396077"><ele>163.75</ele><time>2026-04-19T07:11:49Z</time></trkpt><trkpt lat="44.875891987982634" lon="8.090560570704238"><ele>163.5</ele><time>2026-04-19T07:11:50Z</time></trkpt><trkpt lat="44.8759249433208" lon="8.090385689320428"><ele>163.25</ele><time>2026-04-19T07:11:51Z</time></trkpt><trkpt lat="44.87594169159431" lon="8.090198104831124"><ele>163.0</ele><time>2026-04-19T07:11:52Z</time></trkpt><trkpt lat="44.87596709021424" lon="8.090011727432028"><ele>166.5</ele><time>2026-04-19T07:11:53Z</time></trkpt><trkpt lat="44.87599539870473" lon="8.089826527663005"><ele>170.0</ele><time>2026-04-19T07:11:54Z</time></trkpt><trkpt lat="44.876040194789695" lon="8.0896298649025"><ele>173.5</ele><time>2026-04-19T07:11:55Z</time></trkpt><trkpt lat="44.87608992293267" lon="8.089442885650046"><ele>177.0</ele><time>2026-04-19T07:11:56Z</time></trkpt><trkpt lat="44.87613972392789" lon="8.089271436571984"><ele>175.25</ele><time>2026-04-19T07:11:57Z</time></trkpt><trkpt lat="44.876185320821115" lon="8.08908337471251"><ele>173.5</ele><time>2026-04-19T07:11:58Z</time></trkpt><trkpt lat="44.87622976931845" lon="8.088903082988567"><ele>171.75</ele><time>2026-04-19T07:11:59Z</time></trkpt><trkpt lat="44.876268831365806" lon="8.088736724059768"><ele>170.0</ele><time>2026-04-19T07:12:00Z</time></trkpt><trkpt lat="44.87630231412996" lon="8.08857311653123"><ele>170.0</ele><time>2026-04-19T07:12:01Z</time></trkpt><trkpt lat="44.876333994187185" lon="8.088389281591658"><ele>170.0</ele><time>2026-04-19T07:12:02Z</time></trkpt><trkpt lat="44.876339678834164" lon="8.088195105954629"><ele>170.0</ele><time>2026-04-19T07:12:03Z</time></trkpt><trkpt lat="44.87634181601487" lon="8.088017521772409"><ele>170.0</ele><time>2026-04-19T07:12:04Z</time></trkpt><trkpt lat="44.876343434163346" lon="8.087855824832605"><ele>170.0</ele><time>2026-04-19T07:12:05Z</time></trkpt><trkpt lat="44.87634614433436" lon="8.087681111308642"><ele>170.0</ele><time>2026-04-19T07:12:06Z</time></trkpt><trkpt lat="44.87634484337533" lon="8.087513751452144"><ele>170.0</ele><time>2026-04-19T07:12:07Z</time></trkpt><trkpt lat="44.87635202960029" lon="8.087339885959668"><ele>170.0</ele><time>2026-04-19T07:12:08Z</time></trkpt><trkpt lat="44.87635425476249" lon="8.087158330801682"><ele>170.5</ele><time>2026-04-19T07:12:09Z</time></trkpt><trkpt lat="44.87634998917398" lon="8.086971689753222"><ele>171.0</ele><time>2026-04-19T07:12:10Z</time></trkpt><trkpt lat="44.876337727726835" lon="8.086753284965432"><ele>171.5</ele><time>2026-04-19T07:12:11Z</time></trkpt><trkpt lat="44.87633749099737" lon="8.086553130754593"><ele>172.0</ele><time>2026-04-19T07:12:12Z</time></trkpt><trkpt lat="44.87633267731349" lon="8.086341479124917"><ele>172.0</ele><time>2026-04-19T07:12:13Z</time></trkpt><trkpt lat="44.87632749957182" lon="8.086132072032255"><ele>172.0</ele><time>2026-04-19T07:12:14Z</time></trkpt><trkpt lat="44.8763260415997" lon="8.085928649062922"><ele>172.0</ele><time>2026-04-19T07:12:15Z</time></trkpt><trkpt lat="44.87632971247632" lon="8.085730599044034"><ele>172.0</ele><time>2026-04-19T07:12:16Z</time></trkpt><trkpt lat="44.87633069477299" lon="8.085535651344257"><ele>172.0</ele><time>2026-04-19T07:12:17Z</time></trkpt><trkpt lat="44.87632451934317" lon="8.085350604110676"><ele>172.0</ele><time>2026-04-19T07:12:18Z</time></trkpt><trkpt lat="44.876304065151736" lon="8.085163362081067"><ele>172.0</ele><time>2026-04-19T07:12:19Z</time></trkpt><trkpt lat="44.87628399520194" lon="8.084964069945027"><ele>172.0</ele><time>2026-04-19T07:12:20Z</time></trkpt><trkpt lat="44.87627349826618" lon="8.084769445673409"><ele>172.0</ele><time>2026-04-19T07:12:21Z</time></trkpt><trkpt lat="44.87628441653012" lon="8.084583088289302"><ele>172.0</ele><time>2026-04-19T07:12:22Z</time></trkpt><trkpt lat="44.87632091374799" lon="8.084391873923954"><ele>172.0</ele><time>2026-04-19T07:12:23Z</time></trkpt><trkpt lat="44.87637528584075" lon="8.08420170334415"><ele>172.0</ele><time>2026-04-19T07:12:24Z</time></trkpt><trkpt lat="44.876430487357005" lon="8.084003749876528"><ele>172.25</ele><time>2026-04-19T07:12:25Z</time></trkpt><trkpt lat="44.87646979386273" lon="8.083826610678654"><ele>172.5</ele><time>2026-04-19T07:12:26Z</time></trkpt><trkpt lat="44.876504694110444" lon="8.083676419147562"><ele>172.75</ele><time>2026-04-19T07:12:27Z</time></trkpt><trkpt lat="44.87655201649229" lon="8.083528711052077"><ele>173.0</ele><time>2026-04-19T07:12:28Z</time></trkpt><trkpt lat="44.876603893071575" lon="8.08340575382863"><ele>173.0</ele><time>2026-04-19T07:12:29Z</time></trkpt><trkpt lat="44.876648826277005" lon="8.08330167607325"><ele>173.0</ele><time>2026-04-19T07:12:30Z</time></trkpt><trkpt lat="44.876664996843715" lon="8.083171184541103"><ele>173.0</ele><time>2026-04-19T07:12:31Z</time></trkpt><trkpt lat="44.87665971426902" lon="8.083019651213823"><ele>173.0</ele><time>2026-04-19T07:12:32Z</time></trkpt><trkpt lat="44.876656309466476" lon="8.082851254922321"><ele>173.0</ele><time>2026-04-19T07:12:33Z</time></trkpt><trkpt lat="44.876667445720344" lon="8.082669843588484"><ele>173.75</ele><time>2026-04-19T07:12:34Z</time></trkpt><trkpt lat="44.876685679256376" lon="8.082502913643497"><ele>174.5</ele><time>2026-04-19T07:12:35Z</time></trkpt><trkpt lat="44.87669797366263" lon="8.08233375156979"><ele>175.25</ele><time>2026-04-19T07:12:36Z</time></trkpt><trkpt lat="44.87671165316653" lon="8.08220378197577"><ele>176.0</ele><time>2026-04-19T07:12:37Z</time></trkpt><trkpt lat="44.87673163816899" lon="8.082021082216926"><ele>177.4</ele><time>2026-04-19T07:12:39Z</time></trkpt><trkpt lat="44.87667259658018" lon="8.081946959077415"><ele>178.8</ele><time>2026-04-19T07:12:41Z</time></trkpt><trkpt lat="44.87660749249731" lon="8.08189194741488"><ele>180.20000000000002</ele><time>2026-04-19T07:12:42Z</time></trkpt><trkpt lat="44.876492734038365" lon="8.081862114911932"><ele>181.60000000000002</ele><time>2026-04-19T07:12:43Z</time></trkpt><trkpt lat="44.876395393137685" lon="8.081804692683543"><ele>183.0</ele><time>2026-04-19T07:12:44Z</time></trkpt><trkpt lat="44.87632334936838" lon="8.081709350735915"><ele>183.0</ele><time>2026-04-19T07:12:45Z</time></trkpt><trkpt lat="44.87627487747367" lon="8.081602433668913"><ele>183.0</ele><time>2026-04-19T07:12:46Z</time></trkpt><trkpt lat="44.87622075720769" lon="8.081504416363066"><ele>183.0</ele><time>2026-04-19T07:12:47Z</time></trkpt><trkpt lat="44.876171755822476" lon="8.081407891299627"><ele>183.0</ele><time>2026-04-19T07:12:48Z</time></trkpt><trkpt lat="44.876143371655694" lon="8.08128607527563"><ele>183.0</ele><time>2026-04-19T07:12:49Z</time></trkpt><trkpt lat="44.876119538261115" lon="8.081122044196922"><ele>183.75</ele><time>2026-04-19T07:12:50Z</time></trkpt><trkpt lat="44.87608863275687" lon="8.08095771157376"><ele>184.5</ele><time>2026-04-19T07:12:51Z</time></trkpt><trkpt lat="44.876061998796835" lon="8.08078521879139"><ele>185.25</ele><time>2026-04-19T07:12:52Z</time></trkpt><trkpt lat="44.8760282073672" lon="8.080641946698572"><ele>186.0</ele><time>2026-04-19T07:12:53Z</time></trkpt><trkpt lat="44.87600157440713" lon="8.080504135543203"><ele>186.20000000000002</ele><time>2026-04-19T07:12:54Z</time></trkpt><trkpt lat="44.87597044239724" lon="8.0803609120997"><ele>186.4</ele><time>2026-04-19T07:12:55Z</time></trkpt><trkpt lat="44.875935161712036" lon="8.08021651102231"><ele>186.6</ele><time>2026-04-19T07:12:56Z</time></trkpt><trkpt lat="44.87591100688548" lon="8.080081432305736"><ele>186.8</ele><time>2026-04-19T07:12:57Z</time></trkpt><trkpt lat="44.875885261232874" lon="8.079962330988996"><ele>187.0</ele><time>2026-04-19T07:12:58Z</time></trkpt><trkpt lat="44.875901279253775" lon="8.079874933295276"><ele>190.2</ele><time>2026-04-19T07:12:59Z</time></trkpt><trkpt lat="44.87590734991514" lon="8.07977396816151"><ele>193.39999999999998</ele><time>2026-04-19T07:13:00Z</time></trkpt><trkpt lat="44.87589137274783" lon="8.079667000749614"><ele>196.60000000000002</ele><time>2026-04-19T07:13:01Z</time></trkpt><trkpt lat="44.87588869503025" lon="8.079466142803652"><ele>199.8</ele><time>2026-04-19T07:13:03Z</time></trkpt><trkpt lat="44.875898006753374" lon="8.07933902005387"><ele>203.0</ele><time>2026-04-19T07:13:04Z</time></trkpt><trkpt lat="44.875894431850234" lon="8.079207125768047"><ele>204.2</ele><time>2026-04-19T07:13:05Z</time></trkpt><trkpt lat="44.8758687952267" lon="8.079067392530792"><ele>205.4</ele><time>2026-04-19T07:13:06Z</time></trkpt><trkpt lat="44.87587670373059" lon="8.07889298587492"><ele>206.6</ele><time>2026-04-19T07:13:07Z</time></trkpt><trkpt lat="44.87587434184276" lon="8.078758787840426"><ele>207.79999999999998</ele><time>2026-04-19T07:13:08Z</time></trkpt><trkpt lat="44.8758931452792" lon="8.078608700042912"><ele>209.0</ele><time>2026-04-19T07:13:09Z</time></trkpt><trkpt lat="44.87590717783174" lon="8.078454524728413"><ele>209.0</ele><time>2026-04-19T07:13:10Z</time></trkpt><trkpt lat="44.87591948084223" lon="8.078291967807923"><ele>209.0</ele><time>2026-04-19T07:13:11Z</time></trkpt><trkpt lat="44.87592849753852" lon="8.078132464684554"><ele>209.0</ele><time>2026-04-19T07:13:12Z</time></trkpt><trkpt lat="44.87592455367955" lon="8.077981196462419"><ele>209.0</ele><time>2026-04-19T07:13:13Z</time></trkpt><trkpt lat="44.87589505954966" lon="8.077856322815528"><ele>209.0</ele><time>2026-04-19T07:13:14Z</time></trkpt><trkpt lat="44.87583962130216" lon="8.0777405274541"><ele>210.2</ele><time>2026-04-19T07:13:15Z</time></trkpt><trkpt lat="44.875772762109385" lon="8.077637660200157"><ele>211.39999999999998</ele><time>2026-04-19T07:13:16Z</time></trkpt><trkpt lat="44.87570192863381" lon="8.077562203427405"><ele>212.6</ele><time>2026-04-19T07:13:17Z</time></trkpt><trkpt lat="44.87563485840815" lon="8.077516061248451"><ele>213.8</ele><time>2026-04-19T07:13:18Z</time></trkpt><trkpt lat="44.87558197137889" lon="8.077467383797451"><ele>215.0</ele><time>2026-04-19T07:13:20Z</time></trkpt><trkpt lat="44.87570822130384" lon="8.077206368985454"><ele>215.8</ele><time>2026-04-19T07:13:23Z</time></trkpt><trkpt lat="44.875752777682635" lon="8.077091437233276"><ele>216.6</ele><time>2026-04-19T07:13:25Z</time></trkpt><trkpt lat="44.875701273349456" lon="8.077190247701763"><ele>217.39999999999998</ele><time>2026-04-19T07:13:28Z</time></trkpt><trkpt lat="44.87557314438452" lon="8.077200114236128"><ele>218.2</ele><time>2026-04-19T07:13:29Z</time></trkpt><trkpt lat="44.87553753205513" lon="8.077281413882291"><ele>219.0</ele><time>2026-04-19T07:13:30Z</time></trkpt><trkpt lat="44.875436909810894" lon="8.07735290959646"><ele>219.0</ele><time>2026-04-19T07:13:32Z</time></trkpt><trkpt lat="44.87534151547812" lon="8.077252301347784"><ele>218.99999999999997</ele><time>2026-04-19T07:13:34Z</time></trkpt><trkpt lat="44.87523053602226" lon="8.07717972462905"><ele>218.99999999999997</ele><time>2026-04-19T07:13:36Z</time></trkpt><trkpt lat="44.87518097436474" lon="8.077092092241248"><ele>219.0</ele><time>2026-04-19T07:13:38Z</time></trkpt><trkpt lat="44.87514216305218" lon="8.077018161889729"><ele>219.0</ele><time>2026-04-19T07:13:39Z</time></trkpt><trkpt lat="44.875077515140696" lon="8.076966747316392"><ele>217.16666666666666</ele><time>2026-04-19T07:13:40Z</time></trkpt><trkpt lat="44.875015200831534" lon="8.076918698425548"><ele>215.33333333333331</ele><time>2026-04-19T07:13:41Z</time></trkpt><trkpt lat="44.874962918586874" lon="8.076842605483389"><ele>213.5</ele><time>2026-04-19T07:13:42Z</time></trkpt><trkpt lat="44.874929358233146" lon="8.076719395217848"><ele>211.66666666666666</ele><time>2026-04-19T07:13:43Z</time></trkpt><trkpt lat="44.87489078054483" lon="8.076593327714718"><ele>209.83333333333331</ele><time>2026-04-19T07:13:44Z</time></trkpt><trkpt lat="44.87484584935332" lon="8.076457279985624"><ele>208.0</ele><time>2026-04-19T07:13:45Z</time></trkpt><trkpt lat="44.874805126441245" lon="8.076328490752458"><ele>207.60000000000002</ele><time>2026-04-19T07:13:46Z</time></trkpt><trkpt lat="44.874765299569496" lon="8.076217579929713"><ele>207.20000000000002</ele><time>2026-04-19T07:13:47Z</time></trkpt><trkpt lat="44.87472739189309" lon="8.076105930651908"><ele>206.8</ele><time>2026-04-19T07:13:48Z</time></trkpt><trkpt lat="44.87469458800703" lon="8.075989268254306"><ele>206.4</ele><time>2026-04-19T07:13:49Z</time></trkpt><trkpt lat="44.87466787036902" lon="8.075860954013072"><ele>206.0</ele><time>2026-04-19T07:13:50Z</time></trkpt><trkpt lat="44.87464674968862" lon="8.075712989298221"><ele>204.60000000000002</ele><time>2026-04-19T07:13:51Z</time></trkpt><trkpt lat="44.87462563602123" lon="8.0755668430078"><ele>203.2</ele><time>2026-04-19T07:13:52Z</time></trkpt><trkpt lat="44.87460139825398" lon="8.075420156434488"><ele>201.8</ele><time>2026-04-19T07:13:53Z</time></trkpt><trkpt lat="44.87457699046116" lon="8.075275837985803"><ele>200.39999999999998</ele><time>2026-04-19T07:13:54Z</time></trkpt><trkpt lat="44.87455711758969" lon="8.0751354282694"><ele>199.0</ele><time>2026-04-19T07:13:55Z</time></trkpt><trkpt lat="44.87452280287493" lon="8.075026571223127"><ele>199.0</ele><time>2026-04-19T07:13:56Z</time></trkpt><trkpt lat="44.874484027328144" lon="8.074940126084838"><ele>199.0</ele><time>2026-04-19T07:13:58Z</time></trkpt><trkpt lat="44.874419442176915" lon="8.075039874592697"><ele>199.0</ele><time>2026-04-19T07:14:00Z</time></trkpt><trkpt lat="44.874394460453765" lon="8.0751464518207"><ele>199.0</ele><time>2026-04-19T07:14:01Z</time></trkpt><trkpt lat="44.874341682825225" lon="8.075275374662043"><ele>199.0</ele><time>2026-04-19T07:14:02Z</time></trkpt><trkpt lat="44.874280956927166" lon="8.075393955267781"><ele>199.0</ele><time>2026-04-19T07:14:03Z</time></trkpt><trkpt lat="44.87420716194735" lon="8.07552728693672"><ele>199.0</ele><time>2026-04-19T07:14:04Z</time></trkpt><trkpt lat="44.87412945947724" lon="8.075633106690049"><ele>199.0</ele><time>2026-04-19T07:14:05Z</time></trkpt><trkpt lat="44.87405280598418" lon="8.075724893127353"><ele>199.0</ele><time>2026-04-19T07:14:06Z</time></trkpt><trkpt lat="44.87397906393506" lon="8.075835899508284"><ele>199.0</ele><time>2026-04-19T07:14:07Z</time></trkpt><trkpt lat="44.873911700490694" lon="8.075949449453978"><ele>199.0</ele><time>2026-04-19T07:14:08Z</time></trkpt><trkpt lat="44.87384719974975" lon="8.076070155311916"><ele>199.0</ele><time>2026-04-19T07:14:09Z</time></trkpt><trkpt lat="44.87376467480088" lon="8.07618702816594"><ele>199.0</ele><time>2026-04-19T07:14:10Z</time></trkpt><trkpt lat="44.87368334424751" lon="8.07626568015969"><ele>199.0</ele><time>2026-04-19T07:14:11Z</time></trkpt><trkpt lat="44.87356547979589" lon="8.076353558421156"><ele>199.0</ele><time>2026-04-19T07:14:12Z</time></trkpt><trkpt lat="44.87344982259277" lon="8.076413676165842"><ele>199.0</ele><time>2026-04-19T07:14:13Z</time></trkpt><trkpt lat="44.87333339411204" lon="8.07648847538181"><ele>199.0</ele><time>2026-04-19T07:14:14Z</time></trkpt><trkpt lat="44.873214165134" lon="8.076557081861255"><ele>199.0</ele><time>2026-04-19T07:14:15Z</time></trkpt><trkpt lat="44.87310353846374" lon="8.076609429264407"><ele>198.39999999999998</ele><time>2026-04-19T07:14:16Z</time></trkpt><trkpt lat="44.87299052657781" lon="8.076615891099816"><ele>197.8</ele><time>2026-04-19T07:14:17Z</time></trkpt><trkpt lat="44.87287513130105" lon="8.076622673455255"><ele>197.2</ele><time>2026-04-19T07:14:18Z</time></trkpt><trkpt lat="44.872795539553245" lon="8.076653189902881"><ele>196.60000000000002</ele><time>2026-04-19T07:14:19Z</time></trkpt><trkpt lat="44.87273087077232" lon="8.076670044690822"><ele>196.0</ele><time>2026-04-19T07:14:20Z</time></trkpt><trkpt lat="44.872653506010174" lon="8.076646409219443"><ele>197.0</ele><time>2026-04-19T07:14:21Z</time></trkpt><trkpt lat="44.872564413268194" lon="8.076596730679764"><ele>198.0</ele><time>2026-04-19T07:14:22Z</time></trkpt><trkpt lat="44.87247063524526" lon="8.076533166342458"><ele>199.0</ele><time>2026-04-19T07:14:23Z</time></trkpt><trkpt lat="44.87234328407989" lon="8.076524882815756"><ele>200.0</ele><time>2026-04-19T07:14:24Z</time></trkpt><trkpt lat="44.87222956280937" lon="8.076497530154302"><ele>201.0</ele><time>2026-04-19T07:14:25Z</time></trkpt><trkpt lat="44.87208992645316" lon="8.07649261877682"><ele>201.0</ele><time>2026-04-19T07:14:26Z</time></trkpt><trkpt lat="44.871967273800486" lon="8.07645420778802"><ele>201.0</ele><time>2026-04-19T07:14:27Z</time></trkpt><trkpt lat="44.871876223399404" lon="8.07643632313125"><ele>201.0</ele><time>2026-04-19T07:14:28Z</time></trkpt><trkpt lat="44.871788853242094" lon="8.076449590692315"><ele>201.0</ele><time>2026-04-19T07:14:29Z</time></trkpt><trkpt lat="44.87168154114676" lon="8.076485199887136"><ele>201.0</ele><time>2026-04-19T07:14:30Z</time></trkpt><trkpt lat="44.87158091033764" lon="8.076567575289873"><ele>199.25</ele><time>2026-04-19T07:14:31Z</time></trkpt><trkpt lat="44.87146482011356" lon="8.07662350533581"><ele>197.5</ele><time>2026-04-19T07:14:32Z</time></trkpt><trkpt lat="44.87135448136115" lon="8.076648945309742"><ele>195.75</ele><time>2026-04-19T07:14:33Z</time></trkpt><trkpt lat="44.871246397258794" lon="8.076660926026083"><ele>194.0</ele><time>2026-04-19T07:14:34Z</time></trkpt><trkpt lat="44.87113046195679" lon="8.07664519105978"><ele>194.0</ele><time>2026-04-19T07:14:35Z</time></trkpt><trkpt lat="44.871019135969476" lon="8.076614408685417"><ele>194.0</ele><time>2026-04-19T07:14:36Z</time></trkpt><trkpt lat="44.8708960185702" lon="8.076574450545762"><ele>194.0</ele><time>2026-04-19T07:14:37Z</time></trkpt><trkpt lat="44.87077622700115" lon="8.076537790844968"><ele>194.0</ele><time>2026-04-19T07:14:38Z</time></trkpt><trkpt lat="44.870660538197576" lon="8.076508714675176"><ele>194.6</ele><time>2026-04-19T07:14:39Z</time></trkpt><trkpt lat="44.87053686397863" lon="8.076521229779287"><ele>195.2</ele><time>2026-04-19T07:14:40Z</time></trkpt><trkpt lat="44.87042005001593" lon="8.076542405915212"><ele>195.79999999999998</ele><time>2026-04-19T07:14:41Z</time></trkpt><trkpt lat="44.87031367844772" lon="8.076577406209202"><ele>196.39999999999998</ele><time>2026-04-19T07:14:42Z</time></trkpt><trkpt lat="44.87023647457539" lon="8.076615901103533"><ele>197.0</ele><time>2026-04-19T07:14:43Z</time></trkpt><trkpt lat="44.87017584282704" lon="8.076572311084993"><ele>197.0</ele><time>2026-04-19T07:14:46Z</time></trkpt><trkpt lat="44.87016692371169" lon="8.076382332317971"><ele>197.0</ele><time>2026-04-19T07:14:48Z</time></trkpt><trkpt lat="44.870157841042996" lon="8.076253368901813"><ele>197.0</ele><time>2026-04-19T07:14:49Z</time></trkpt><trkpt lat="44.87014271306043" lon="8.076122460077205"><ele>197.0</ele><time>2026-04-19T07:14:50Z</time></trkpt><trkpt lat="44.87013810255206" lon="8.075981443139138"><ele>197.0</ele><time>2026-04-19T07:14:51Z</time></trkpt><trkpt lat="44.8701335681986" lon="8.075836917389543"><ele>197.39999999999998</ele><time>2026-04-19T07:14:52Z</time></trkpt><trkpt lat="44.87013216559691" lon="8.07573597757496"><ele>197.79999999999998</ele><time>2026-04-19T07:14:53Z</time></trkpt><trkpt lat="44.87016823610498" lon="8.075626011820107"><ele>198.2</ele><time>2026-04-19T07:14:55Z</time></trkpt><trkpt lat="44.87026876065027" lon="8.075516809587794"><ele>198.6</ele><time>2026-04-19T07:14:57Z</time></trkpt><trkpt lat="44.870371806656294" lon="8.075468130005495"><ele>199.0</ele><time>2026-04-19T07:14:59Z</time></trkpt><trkpt lat="44.87044492701914" lon="8.075495063253507"><ele>199.0</ele><time>2026-04-19T07:15:00Z</time></trkpt><trkpt lat="44.87053592232831" lon="8.075516948100232"><ele>199.0</ele><time>2026-04-19T07:15:01Z</time></trkpt><trkpt lat="44.87063760984882" lon="8.075513046980134"><ele>199.0</ele><time>2026-04-19T07:15:02Z</time></trkpt><trkpt lat="44.8707585434342" lon="8.075479138197135"><ele>199.0</ele><time>2026-04-19T07:15:03Z</time></trkpt><trkpt lat="44.87087657311851" lon="8.075468989110195"><ele>199.0</ele><time>2026-04-19T07:15:04Z</time></trkpt><trkpt lat="44.870993184237676" lon="8.075498456365409"><ele>200.49999999999997</ele><time>2026-04-19T07:15:05Z</time></trkpt><trkpt lat="44.87108188351259" lon="8.075531315982795"><ele>202.0</ele><time>2026-04-19T07:15:06Z</time></trkpt><trkpt lat="44.871164624838634" lon="8.075532365632727"><ele>203.5</ele><time>2026-04-19T07:15:07Z</time></trkpt><trkpt lat="44.87124591173242" lon="8.075512614329588"><ele>205.0</ele><time>2026-04-19T07:15:08Z</time></trkpt><trkpt lat="44.871324460602374" lon="8.07546642475154"><ele>206.49999999999997</ele><time>2026-04-19T07:15:09Z</time></trkpt><trkpt lat="44.87140081744558" lon="8.07544183915871"><ele>208.0</ele><time>2026-04-19T07:15:10Z</time></trkpt><trkpt lat="44.87153543606097" lon="8.075411626857514"><ele>208.0</ele><time>2026-04-19T07:15:11Z</time></trkpt><trkpt lat="44.87162854723921" lon="8.07537177137579"><ele>208.0</ele><time>2026-04-19T07:15:12Z</time></trkpt><trkpt lat="44.8717019089272" lon="8.075300207589425"><ele>208.0</ele><time>2026-04-19T07:15:13Z</time></trkpt><trkpt lat="44.87179343513021" lon="8.075188729495512"><ele>208.0</ele><time>2026-04-19T07:15:14Z</time></trkpt><trkpt lat="44.87190567270682" lon="8.07504738756981"><ele>209.25</ele><time>2026-04-19T07:15:15Z</time></trkpt><trkpt lat="44.87201369384404" lon="8.074913886386414"><ele>210.5</ele><time>2026-04-19T07:15:16Z</time></trkpt><trkpt lat="44.87212107938726" lon="8.07480133816931"><ele>211.75</ele><time>2026-04-19T07:15:17Z</time></trkpt><trkpt lat="44.872207445720576" lon="8.07472772374771"><ele>213.0</ele><time>2026-04-19T07:15:18Z</time></trkpt><trkpt lat="44.87228228190391" lon="8.074676857790891"><ele>213.0</ele><time>2026-04-19T07:15:19Z</time></trkpt><trkpt lat="44.872391000142095" lon="8.074629906722969"><ele>213.0</ele><time>2026-04-19T07:15:20Z</time></trkpt><trkpt lat="44.872517375524595" lon="8.074581429987939"><ele>213.0</ele><time>2026-04-19T07:15:21Z</time></trkpt><trkpt lat="44.872592054570795" lon="8.074508632314801"><ele>213.0</ele><time>2026-04-19T07:15:22Z</time></trkpt><trkpt lat="44.8726794212925" lon="8.07439710094196"><ele>214.4</ele><time>2026-04-19T07:15:23Z</time></trkpt><trkpt lat="44.87274490410049" lon="8.07428659968722"><ele>215.8</ele><time>2026-04-19T07:15:24Z</time></trkpt><trkpt lat="44.87283331805601" lon="8.074174462050395"><ele>217.2</ele><time>2026-04-19T07:15:25Z</time></trkpt><trkpt lat="44.8729036809426" lon="8.074071201237777"><ele>218.6</ele><time>2026-04-19T07:15:26Z</time></trkpt><trkpt lat="44.87295084321399" lon="8.073967690958536"><ele>220.0</ele><time>2026-04-19T07:15:27Z</time></trkpt><trkpt lat="44.87300468374351" lon="8.073865551663742"><ele>220.4</ele><time>2026-04-19T07:15:28Z</time></trkpt><trkpt lat="44.873049613513004" lon="8.07377032742414"><ele>220.8</ele><time>2026-04-19T07:15:29Z</time></trkpt><trkpt lat="44.873089555076284" lon="8.07365531594458"><ele>221.2</ele><time>2026-04-19T07:15:30Z</time></trkpt><trkpt lat="44.873140233413125" lon="8.07352126114834"><ele>221.6</ele><time>2026-04-19T07:15:31Z</time></trkpt><trkpt lat="44.8731949276945" lon="8.073391683836775"><ele>222.0</ele><time>2026-04-19T07:15:32Z</time></trkpt><trkpt lat="44.8732567362825" lon="8.073275218702102"><ele>222.83333333333334</ele><time>2026-04-19T07:15:33Z</time></trkpt><trkpt lat="44.87331946500191" lon="8.07319049024086"><ele>223.66666666666669</ele><time>2026-04-19T07:15:34Z</time></trkpt><trkpt lat="44.87338531984143" lon="8.073149844848185"><ele>224.5</ele><time>2026-04-19T07:15:35Z</time></trkpt><trkpt lat="44.87347624389343" lon="8.073120912621226"><ele>225.33333333333334</ele><time>2026-04-19T07:15:36Z</time></trkpt><trkpt lat="44.873570392864075" lon="8.073126030479566"><ele>226.16666666666669</ele><time>2026-04-19T07:15:37Z</time></trkpt><trkpt lat="44.87364746062054" lon="8.073102104277565"><ele>227.0</ele><time>2026-04-19T07:15:38Z</time></trkpt><trkpt lat="44.87372919230644" lon="8.07305536200708"><ele>227.0</ele><time>2026-04-19T07:15:39Z</time></trkpt><trkpt lat="44.87380959733201" lon="8.07300601695673"><ele>227.0</ele><time>2026-04-19T07:15:40Z</time></trkpt><trkpt lat="44.87389555319407" lon="8.07294074557191"><ele>227.0</ele><time>2026-04-19T07:15:41Z</time></trkpt><trkpt lat="44.87397695589253" lon="8.072836303319997"><ele>227.0</ele><time>2026-04-19T07:15:42Z</time></trkpt><trkpt lat="44.87407708238701" lon="8.072721048114737"><ele>227.0</ele><time>2026-04-19T07:15:43Z</time></trkpt><trkpt lat="44.874183908456004" lon="8.072611057957417"><ele>226.8</ele><time>2026-04-19T07:15:44Z</time></trkpt><trkpt lat="44.87428640468369" lon="8.072507222166168"><ele>226.6</ele><time>2026-04-19T07:15:45Z</time></trkpt><trkpt lat="44.8743619844193" lon="8.072396683117804"><ele>226.40000000000003</ele><time>2026-04-19T07:15:46Z</time></trkpt><trkpt lat="44.87442795721998" lon="8.072345831246892"><ele>226.20000000000002</ele><time>2026-04-19T07:15:47Z</time></trkpt><trkpt lat="44.874491301044095" lon="8.072312112195132"><ele>226.0</ele><time>2026-04-19T07:15:48Z</time></trkpt><trkpt lat="44.874598975489334" lon="8.072316809788976"><ele>226.0</ele><time>2026-04-19T07:15:49Z</time></trkpt><trkpt lat="44.874713168289105" lon="8.07234828044569"><ele>226.00000000000003</ele><time>2026-04-19T07:15:50Z</time></trkpt><trkpt lat="44.874808711000355" lon="8.072347285811915"><ele>226.00000000000003</ele><time>2026-04-19T07:15:51Z</time></trkpt><trkpt lat="44.87488890859799" lon="8.07231898494502"><ele>226.0</ele><time>2026-04-19T07:15:52Z</time></trkpt><trkpt lat="44.874966415797665" lon="8.072235443282292"><ele>226.0</ele><time>2026-04-19T07:15:53Z</time></trkpt><trkpt lat="44.87504872147013" lon="8.072132285201503"><ele>225.20000000000002</ele><time>2026-04-19T07:15:54Z</time></trkpt><trkpt lat="44.87512841677615" lon="8.072027462024971"><ele>224.40000000000003</ele><time>2026-04-19T07:15:55Z</time></trkpt><trkpt lat="44.87520282164785" lon="8.071906368699162"><ele>223.6</ele><time>2026-04-19T07:15:56Z</time></trkpt><trkpt lat="44.87528145965184" lon="8.071792948064404"><ele>222.8</ele><time>2026-04-19T07:15:57Z</time></trkpt><trkpt lat="44.87536053347998" lon="8.07168355436472"><ele>222.0</ele><time>2026-04-19T07:15:58Z</time></trkpt><trkpt lat="44.87542451708512" lon="8.071595687762349"><ele>223.8</ele><time>2026-04-19T07:15:59Z</time></trkpt><trkpt lat="44.87547896754017" lon="8.07151140605457"><ele>225.6</ele><time>2026-04-19T07:16:00Z</time></trkpt><trkpt lat="44.87555664996274" lon="8.071449644464318"><ele>227.40000000000003</ele><time>2026-04-19T07:16:01Z</time></trkpt><trkpt lat="44.87562072943317" lon="8.071346922616355"><ele>229.20000000000002</ele><time>2026-04-19T07:16:03Z</time></trkpt><trkpt lat="44.875681471855884" lon="8.071219911546489"><ele>231.0</ele><time>2026-04-19T07:16:04Z</time></trkpt><trkpt lat="44.875764173305726" lon="8.071087095014745"><ele>231.0</ele><time>2026-04-19T07:16:05Z</time></trkpt><trkpt lat="44.875859528859415" lon="8.070971462902074"><ele>231.0</ele><time>2026-04-19T07:16:06Z</time></trkpt><trkpt lat="44.87594094449524" lon="8.070817350055654"><ele>231.0</ele><time>2026-04-19T07:16:07Z</time></trkpt><trkpt lat="44.87600442529053" lon="8.070682039973752"><ele>231.0</ele><time>2026-04-19T07:16:08Z</time></trkpt><trkpt lat="44.87605327911557" lon="8.070554390329047"><ele>230.25</ele><time>2026-04-19T07:16:09Z</time></trkpt><trkpt lat="44.87612543767104" lon="8.070439147682526"><ele>229.5</ele><time>2026-04-19T07:16:10Z</time></trkpt><trkpt lat="44.87620618652519" lon="8.07032685160533"><ele>228.75</ele><time>2026-04-19T07:16:11Z</time></trkpt><trkpt lat="44.87628485024071" lon="8.070207410815186"><ele>228.0</ele><time>2026-04-19T07:16:12Z</time></trkpt><trkpt lat="44.876364605744264" lon="8.070074787884023"><ele>229.25</ele><time>2026-04-19T07:16:13Z</time></trkpt><trkpt lat="44.87642690216376" lon="8.069930754150723"><ele>230.5</ele><time>2026-04-19T07:16:14Z</time></trkpt><trkpt lat="44.87648838946884" lon="8.069786513095455"><ele>231.75</ele><time>2026-04-19T07:16:15Z</time></trkpt><trkpt lat="44.876540797931185" lon="8.069627426111103"><ele>233.0</ele><time>2026-04-19T07:16:16Z</time></trkpt><trkpt lat="44.876621050066035" lon="8.069487996257767"><ele>233.0</ele><time>2026-04-19T07:16:17Z</time></trkpt><trkpt lat="44.876691136180796" lon="8.069370339571009"><ele>233.0</ele><time>2026-04-19T07:16:18Z</time></trkpt><trkpt lat="44.876745564531014" lon="8.069247709891567"><ele>233.0</ele><time>2026-04-19T07:16:19Z</time></trkpt><trkpt lat="44.87678785414662" lon="8.06911234256846"><ele>233.0</ele><time>2026-04-19T07:16:20Z</time></trkpt><trkpt lat="44.87682617606775" lon="8.068959464255249"><ele>233.0</ele><time>2026-04-19T07:16:21Z</time></trkpt><trkpt lat="44.87687715715245" lon="8.068811922443901"><ele>233.75</ele><time>2026-04-19T07:16:22Z</time></trkpt><trkpt lat="44.876921688773656" lon="8.068652995364708"><ele>234.5</ele><time>2026-04-19T07:16:23Z</time></trkpt><trkpt lat="44.876959297117295" lon="8.068510404850652"><ele>235.25</ele><time>2026-04-19T07:16:24Z</time></trkpt><trkpt lat="44.87699350890709" lon="8.06835003304419"><ele>236.0</ele><time>2026-04-19T07:16:25Z</time></trkpt><trkpt lat="44.87704064667404" lon="8.068201434553838"><ele>236.0</ele><time>2026-04-19T07:16:26Z</time></trkpt><trkpt lat="44.8770975443628" lon="8.06802316786418"><ele>236.0</ele><time>2026-04-19T07:16:27Z</time></trkpt><trkpt lat="44.87713735535276" lon="8.067872911804608"><ele>236.0</ele><time>2026-04-19T07:16:28Z</time></trkpt><trkpt lat="44.87717953993068" lon="8.067726428319725"><ele>236.0</ele><time>2026-04-19T07:16:29Z</time></trkpt><trkpt lat="44.87720825002547" lon="8.067592997252795"><ele>238.0</ele><time>2026-04-19T07:16:30Z</time></trkpt><trkpt lat="44.87721854105204" lon="8.067440743667579"><ele>240.00000000000003</ele><time>2026-04-19T07:16:31Z</time></trkpt><trkpt lat="44.877254194783745" lon="8.067309207873832"><ele>242.00000000000003</ele><time>2026-04-19T07:16:32Z</time></trkpt><trkpt lat="44.877276943393454" lon="8.06715703397886"><ele>244.0</ele><time>2026-04-19T07:16:33Z</time></trkpt><trkpt lat="44.877298769884625" lon="8.067001453792365"><ele>246.0</ele><time>2026-04-19T07:16:34Z</time></trkpt><trkpt lat="44.877313917170916" lon="8.066856546628628"><ele>246.0</ele><time>2026-04-19T07:16:35Z</time></trkpt><trkpt lat="44.87730375673335" lon="8.06671058743008"><ele>246.00000000000003</ele><time>2026-04-19T07:16:36Z</time></trkpt><trkpt lat="44.87729523721201" lon="8.06656358522658"><ele>246.00000000000003</ele><time>2026-04-19T07:16:37Z</time></trkpt><trkpt lat="44.877274059417736" lon="8.066406462710086"><ele>246.0</ele><time>2026-04-19T07:16:38Z</time></trkpt><trkpt lat="44.877246232139974" lon="8.066264620799206"><ele>246.0</ele><time>2026-04-19T07:16:39Z</time></trkpt><trkpt lat="44.87721667060674" lon="8.066117237209344"><ele>248.0</ele><time>2026-04-19T07:16:40Z</time></trkpt><trkpt lat="44.87719853602027" lon="8.065996204772729"><ele>250.0</ele><time>2026-04-19T07:16:41Z</time></trkpt><trkpt lat="44.87720348463895" lon="8.065893675865254"><ele>252.0</ele><time>2026-04-19T07:16:42Z</time></trkpt><trkpt lat="44.8772240917249" lon="8.065794592045844"><ele>254.0</ele><time>2026-04-19T07:16:43Z</time></trkpt><trkpt lat="44.87728535834615" lon="8.065668239600003"><ele>256.0</ele><time>2026-04-19T07:16:44Z</time></trkpt><trkpt lat="44.87732444311945" lon="8.065540048565344"><ele>258.0</ele><time>2026-04-19T07:16:45Z</time></trkpt><trkpt lat="44.87737803740265" lon="8.065404141668312"><ele>259.0</ele><time>2026-04-19T07:16:46Z</time></trkpt><trkpt lat="44.877407802972854" lon="8.065245888771468"><ele>260.0</ele><time>2026-04-19T07:16:47Z</time></trkpt><trkpt lat="44.87745617433257" lon="8.065090792659184"><ele>261.0</ele><time>2026-04-19T07:16:48Z</time></trkpt><trkpt lat="44.877502007640345" lon="8.064950460752376"><ele>262.0</ele><time>2026-04-19T07:16:49Z</time></trkpt><trkpt lat="44.87752492678197" lon="8.064799588750347"><ele>260.0</ele><time>2026-04-19T07:16:50Z</time></trkpt><trkpt lat="44.87753516421557" lon="8.064656873051424"><ele>258.0</ele><time>2026-04-19T07:16:51Z</time></trkpt><trkpt lat="44.87758714575395" lon="8.064528243064341"><ele>256.0</ele><time>2026-04-19T07:16:52Z</time></trkpt><trkpt lat="44.87767680715021" lon="8.064399849105838"><ele>254.0</ele><time>2026-04-19T07:16:53Z</time></trkpt><trkpt lat="44.87776343331845" lon="8.064271023504478"><ele>253.39999999999998</ele><time>2026-04-19T07:16:54Z</time></trkpt><trkpt lat="44.87783822025618" lon="8.064166682758724"><ele>252.79999999999998</ele><time>2026-04-19T07:16:55Z</time></trkpt><trkpt lat="44.877879971812376" lon="8.064081607194058"><ele>252.20000000000002</ele><time>2026-04-19T07:16:56Z</time></trkpt><trkpt lat="44.87789566527544" lon="8.063964346654874"><ele>251.60000000000002</ele><time>2026-04-19T07:16:57Z</time></trkpt><trkpt lat="44.8779157834952" lon="8.0638069641521"><ele>251.0</ele><time>2026-04-19T07:16:58Z</time></trkpt><trkpt lat="44.87791187616838" lon="8.06363846439678"><ele>250.0</ele><time>2026-04-19T07:16:59Z</time></trkpt><trkpt lat="44.87791957070607" lon="8.063505956693948"><ele>249.00000000000003</ele><time>2026-04-19T07:17:00Z</time></trkpt><trkpt lat="44.8779499250823" lon="8.06337547674487"><ele>248.00000000000003</ele><time>2026-04-19T07:17:01Z</time></trkpt><trkpt lat="44.87796626312432" lon="8.063223697392896"><ele>247.0</ele><time>2026-04-19T07:17:02Z</time></trkpt><trkpt lat="44.87790678090953" lon="8.063059292334813"><ele>246.0</ele><time>2026-04-19T07:17:03Z</time></trkpt><trkpt lat="44.87788845795916" lon="8.062920112296734"><ele>244.60000000000002</ele><time>2026-04-19T07:17:04Z</time></trkpt><trkpt lat="44.87786680581026" lon="8.062796732605516"><ele>243.20000000000002</ele><time>2026-04-19T07:17:05Z</time></trkpt><trkpt lat="44.87783215976448" lon="8.062663246787722"><ele>241.79999999999998</ele><time>2026-04-19T07:17:06Z</time></trkpt><trkpt lat="44.87779937123204" lon="8.062499848960618"><ele>240.39999999999998</ele><time>2026-04-19T07:17:07Z</time></trkpt><trkpt lat="44.87774544906489" lon="8.06232517455289"><ele>239.0</ele><time>2026-04-19T07:17:08Z</time></trkpt><trkpt lat="44.877697656384626" lon="8.06215903978038"><ele>237.75</ele><time>2026-04-19T07:17:09Z</time></trkpt><trkpt lat="44.877631666179106" lon="8.06201863131295"><ele>236.5</ele><time>2026-04-19T07:17:10Z</time></trkpt><trkpt lat="44.87756339808052" lon="8.061882978185883"><ele>235.25</ele><time>2026-04-19T07:17:11Z</time></trkpt><trkpt lat="44.8774923585595" lon="8.061757675035029"><ele>234.0</ele><time>2026-04-19T07:17:12Z</time></trkpt><trkpt lat="44.87742168168203" lon="8.061601534002321"><ele>239.75</ele><time>2026-04-19T07:17:13Z</time></trkpt><trkpt lat="44.87736291002152" lon="8.061455498508604"><ele>245.5</ele><time>2026-04-19T07:17:14Z</time></trkpt><trkpt lat="44.87734881139925" lon="8.061297730716417"><ele>251.25</ele><time>2026-04-19T07:17:15Z</time></trkpt><trkpt lat="44.87737575949827" lon="8.061119709644107"><ele>257.0</ele><time>2026-04-19T07:17:16Z</time></trkpt><trkpt lat="44.877373575021984" lon="8.06091634665922"><ele>256.5</ele><time>2026-04-19T07:17:17Z</time></trkpt><trkpt lat="44.87738341077776" lon="8.060709394006976"><ele>256.0</ele><time>2026-04-19T07:17:18Z</time></trkpt><trkpt lat="44.8773678157807" lon="8.060515688394345"><ele>255.5</ele><time>2026-04-19T07:17:19Z</time></trkpt><trkpt lat="44.87737692351668" lon="8.060330194951664"><ele>255.0</ele><time>2026-04-19T07:17:20Z</time></trkpt><trkpt lat="44.87739134733275" lon="8.060166997385606"><ele>255.0</ele><time>2026-04-19T07:17:21Z</time></trkpt><trkpt lat="44.877406511484516" lon="8.06002739828631"><ele>255.0</ele><time>2026-04-19T07:17:22Z</time></trkpt><trkpt lat="44.87743974968362" lon="8.059886416218946"><ele>255.0</ele><time>2026-04-19T07:17:23Z</time></trkpt><trkpt lat="44.87750238823132" lon="8.059772643580436"><ele>255.0</ele><time>2026-04-19T07:17:24Z</time></trkpt><trkpt lat="44.877590419833446" lon="8.059688828505884"><ele>255.0</ele><time>2026-04-19T07:17:25Z</time></trkpt><trkpt lat="44.877662702097304" lon="8.059572476132661"><ele>254.6</ele><time>2026-04-19T07:17:26Z</time></trkpt><trkpt lat="44.8777384750586" lon="8.059467908276561"><ele>254.2</ele><time>2026-04-19T07:17:27Z</time></trkpt><trkpt lat="44.877792202791994" lon="8.059374446546604"><ele>253.8</ele><time>2026-04-19T07:17:28Z</time></trkpt><trkpt lat="44.87783734868182" lon="8.0592448120714"><ele>253.4</ele><time>2026-04-19T07:17:29Z</time></trkpt><trkpt lat="44.87785985118268" lon="8.05908774192429"><ele>253.0</ele><time>2026-04-19T07:17:30Z</time></trkpt><trkpt lat="44.87787881573621" lon="8.058924677240615"><ele>253.0</ele><time>2026-04-19T07:17:31Z</time></trkpt><trkpt lat="44.87790533356378" lon="8.058755321295555"><ele>253.0</ele><time>2026-04-19T07:17:32Z</time></trkpt><trkpt lat="44.87793394241215" lon="8.058584756186754"><ele>253.0</ele><time>2026-04-19T07:17:33Z</time></trkpt><trkpt lat="44.87796025484992" lon="8.058417802909421"><ele>253.0</ele><time>2026-04-19T07:17:34Z</time></trkpt><trkpt lat="44.877969879957206" lon="8.058250214923202"><ele>255.0</ele><time>2026-04-19T07:17:35Z</time></trkpt><trkpt lat="44.877990954109656" lon="8.058068593255687"><ele>257.0</ele><time>2026-04-19T07:17:36Z</time></trkpt><trkpt lat="44.87802509011522" lon="8.057910494167732"><ele>259.0</ele><time>2026-04-19T07:17:37Z</time></trkpt><trkpt lat="44.878075110838374" lon="8.057769621429424"><ele>261.0</ele><time>2026-04-19T07:17:38Z</time></trkpt><trkpt lat="44.87813101939791" lon="8.057612857030257"><ele>261.0</ele><time>2026-04-19T07:17:39Z</time></trkpt><trkpt lat="44.8781859797741" lon="8.057453311946508"><ele>261.0</ele><time>2026-04-19T07:17:40Z</time></trkpt><trkpt lat="44.87822502127826" lon="8.057304471476087"><ele>261.0</ele><time>2026-04-19T07:17:41Z</time></trkpt><trkpt lat="44.87828954767433" lon="8.057160652282372"><ele>261.0</ele><time>2026-04-19T07:17:42Z</time></trkpt><trkpt lat="44.87836089686634" lon="8.057029537298686"><ele>261.0</ele><time>2026-04-19T07:17:43Z</time></trkpt><trkpt lat="44.87842315482004" lon="8.056890625717804"><ele>261.0</ele><time>2026-04-19T07:17:44Z</time></trkpt><trkpt lat="44.87846414210276" lon="8.056741259909744"><ele>261.0</ele><time>2026-04-19T07:17:45Z</time></trkpt><trkpt lat="44.878516440418345" lon="8.0565854552744"><ele>261.0</ele><time>2026-04-19T07:17:46Z</time></trkpt><trkpt lat="44.878565284520924" lon="8.056422644694772"><ele>261.0</ele><time>2026-04-19T07:17:47Z</time></trkpt><trkpt lat="44.87861538720455" lon="8.056256712414497"><ele>261.0</ele><time>2026-04-19T07:17:48Z</time></trkpt><trkpt lat="44.87866665265492" lon="8.05608270632973"><ele>261.0</ele><time>2026-04-19T07:17:49Z</time></trkpt><trkpt lat="44.8787169787626" lon="8.055929365056148"><ele>261.0</ele><time>2026-04-19T07:17:50Z</time></trkpt><trkpt lat="44.8787801828932" lon="8.055791757291855"><ele>262.5</ele><time>2026-04-19T07:17:51Z</time></trkpt><trkpt lat="44.87883336226427" lon="8.05566172460624"><ele>264.0</ele><time>2026-04-19T07:17:52Z</time></trkpt><trkpt lat="44.87890311965433" lon="8.055522342484492"><ele>265.5</ele><time>2026-04-19T07:17:53Z</time></trkpt><trkpt lat="44.879007738683526" lon="8.055408529016978"><ele>267.0</ele><time>2026-04-19T07:17:54Z</time></trkpt><trkpt lat="44.8790927033965" lon="8.055274587854784"><ele>267.0</ele><time>2026-04-19T07:17:55Z</time></trkpt><trkpt lat="44.879175952764854" lon="8.055144029151018"><ele>267.0</ele><time>2026-04-19T07:17:56Z</time></trkpt><trkpt lat="44.87926029398944" lon="8.05503327467375"><ele>267.0</ele><time>2026-04-19T07:17:57Z</time></trkpt><trkpt lat="44.87932640690559" lon="8.054929420793147"><ele>267.0</ele><time>2026-04-19T07:17:58Z</time></trkpt><trkpt lat="44.87939663571143" lon="8.054835530742748"><ele>267.0</ele><time>2026-04-19T07:17:59Z</time></trkpt><trkpt lat="44.87946221214429" lon="8.054729945823496"><ele>267.6666666666667</ele><time>2026-04-19T07:18:00Z</time></trkpt><trkpt lat="44.87951795545453" lon="8.054653057298598"><ele>268.3333333333333</ele><time>2026-04-19T07:18:01Z</time></trkpt><trkpt lat="44.87962152460068" lon="8.054620924941606"><ele>269.0</ele><time>2026-04-19T07:18:03Z</time></trkpt><trkpt lat="44.87969317423342" lon="8.054554052748118"><ele>269.66666666666663</ele><time>2026-04-19T07:18:06Z</time></trkpt><trkpt lat="44.87975862707684" lon="8.054590987823719"><ele>270.3333333333333</ele><time>2026-04-19T07:18:07Z</time></trkpt><trkpt lat="44.87982418132594" lon="8.054615818464237"><ele>271.0</ele><time>2026-04-19T07:18:08Z</time></trkpt><trkpt lat="44.87993667673689" lon="8.054597905956065"><ele>271.0</ele><time>2026-04-19T07:18:09Z</time></trkpt><trkpt lat="44.88003114985896" lon="8.054571268167818"><ele>271.0</ele><time>2026-04-19T07:18:10Z</time></trkpt><trkpt lat="44.88011494908583" lon="8.054537985611361"><ele>271.0</ele><time>2026-04-19T07:18:11Z</time></trkpt><trkpt lat="44.88017878618243" lon="8.054493829721107"><ele>271.0</ele><time>2026-04-19T07:18:12Z</time></trkpt><trkpt lat="44.880247764368896" lon="8.05447187933094"><ele>271.0</ele><time>2026-04-19T07:18:13Z</time></trkpt><trkpt lat="44.880323347055366" lon="8.054498634834696"><ele>271.0</ele><time>2026-04-19T07:18:14Z</time></trkpt><trkpt lat="44.88039286981062" lon="8.054602821054008"><ele>270.0</ele><time>2026-04-19T07:18:15Z</time></trkpt><trkpt lat="44.88046283369544" lon="8.054689934007019"><ele>269.0</ele><time>2026-04-19T07:18:16Z</time></trkpt><trkpt lat="44.88050000587424" lon="8.054802824374464"><ele>268.0</ele><time>2026-04-19T07:18:17Z</time></trkpt><trkpt lat="44.88053399765198" lon="8.054918777300141"><ele>267.0</ele><time>2026-04-19T07:18:18Z</time></trkpt><trkpt lat="44.88056076815362" lon="8.055058195776976"><ele>266.0</ele><time>2026-04-19T07:18:19Z</time></trkpt><trkpt lat="44.88057399340283" lon="8.055212042543442"><ele>266.0</ele><time>2026-04-19T07:18:20Z</time></trkpt><trkpt lat="44.880582283930295" lon="8.055369655879725"><ele>266.0</ele><time>2026-04-19T07:18:21Z</time></trkpt><trkpt lat="44.88058898515863" lon="8.05552605947658"><ele>266.0</ele><time>2026-04-19T07:18:22Z</time></trkpt><trkpt lat="44.880590714633435" lon="8.055689312140869"><ele>266.0</ele><time>2026-04-19T07:18:23Z</time></trkpt><trkpt lat="44.880596597330864" lon="8.055857890512513"><ele>267.5</ele><time>2026-04-19T07:18:24Z</time></trkpt><trkpt lat="44.8806072971582" lon="8.056021937357384"><ele>269.0</ele><time>2026-04-19T07:18:25Z</time></trkpt><trkpt lat="44.880615384084976" lon="8.056184156271552"><ele>270.5</ele><time>2026-04-19T07:18:26Z</time></trkpt><trkpt lat="44.88062623887253" lon="8.056352933171338"><ele>272.0</ele><time>2026-04-19T07:18:27Z</time></trkpt><trkpt lat="44.88064472699309" lon="8.056507950934952"><ele>272.0</ele><time>2026-04-19T07:18:28Z</time></trkpt><trkpt lat="44.88066821964901" lon="8.056643010629966"><ele>272.0</ele><time>2026-04-19T07:18:29Z</time></trkpt><trkpt lat="44.88070603267421" lon="8.056750068965096"><ele>272.0</ele><time>2026-04-19T07:18:30Z</time></trkpt><trkpt lat="44.88074485698062" lon="8.056845709947638"><ele>272.0</ele><time>2026-04-19T07:18:31Z</time></trkpt><trkpt lat="44.88082825451215" lon="8.056929966028626"><ele>272.0</ele><time>2026-04-19T07:18:33Z</time></trkpt><trkpt lat="44.88073305579341" lon="8.05714644952598"><ele>272.0</ele><time>2026-04-19T07:18:34Z</time></trkpt><trkpt lat="44.88070625107113" lon="8.057298831591165"><ele>272.0</ele><time>2026-04-19T07:18:35Z</time></trkpt><trkpt lat="44.88068837466563" lon="8.057443011297506"><ele>272.0</ele><time>2026-04-19T07:18:36Z</time></trkpt><trkpt lat="44.88067550895042" lon="8.057609153047371"><ele>272.0</ele><time>2026-04-19T07:18:37Z</time></trkpt><trkpt lat="44.88066543835616" lon="8.057763204240807"><ele>272.0</ele><time>2026-04-19T07:18:38Z</time></trkpt><trkpt lat="44.88065881053541" lon="8.057920681962004"><ele>271.0</ele><time>2026-04-19T07:18:39Z</time></trkpt><trkpt lat="44.880657574453636" lon="8.05806394013481"><ele>270.0</ele><time>2026-04-19T07:18:40Z</time></trkpt><trkpt lat="44.88065758687736" lon="8.058187419832715"><ele>269.0</ele><time>2026-04-19T07:18:41Z</time></trkpt><trkpt lat="44.8806597213616" lon="8.058332301854643"><ele>268.0</ele><time>2026-04-19T07:18:43Z</time></trkpt><trkpt lat="44.880502314491714" lon="8.05801781825528"><ele>268.0</ele><time>2026-04-19T07:18:45Z</time></trkpt><trkpt lat="44.88040149422503" lon="8.058036858610496"><ele>268.0</ele><time>2026-04-19T07:18:47Z</time></trkpt><trkpt lat="44.8803202368908" lon="8.058003506661642"><ele>268.0</ele><time>2026-04-19T07:18:48Z</time></trkpt><trkpt lat="44.8802371979318" lon="8.057976503475862"><ele>268.0</ele><time>2026-04-19T07:18:49Z</time></trkpt><trkpt lat="44.88011660770548" lon="8.058236923625579"><ele>265.66666666666663</ele><time>2026-04-19T07:18:50Z</time></trkpt><trkpt lat="44.8800377966968" lon="8.058281577284736"><ele>263.3333333333333</ele><time>2026-04-19T07:18:51Z</time></trkpt><trkpt lat="44.879965222603126" lon="8.058319963588257"><ele>261.0</ele><time>2026-04-19T07:18:52Z</time></trkpt><trkpt lat="44.87987151985724" lon="8.058377938916617"><ele>258.6666666666667</ele><time>2026-04-19T07:18:53Z</time></trkpt><trkpt lat="44.87979242750567" lon="8.058460053277269"><ele>256.33333333333337</ele><time>2026-04-19T07:18:54Z</time></trkpt><trkpt lat="44.87972866809212" lon="8.058518160109552"><ele>254.0</ele><time>2026-04-19T07:18:55Z</time></trkpt><trkpt lat="44.879665054514405" lon="8.058583133840008"><ele>253.6</ele><time>2026-04-19T07:18:56Z</time></trkpt><trkpt lat="44.87959225603624" lon="8.05864475084317"><ele>253.2</ele><time>2026-04-19T07:18:57Z</time></trkpt><trkpt lat="44.87951012906562" lon="8.058747804726911"><ele>252.79999999999998</ele><time>2026-04-19T07:18:58Z</time></trkpt><trkpt lat="44.879432611303535" lon="8.058861114396692"><ele>252.39999999999998</ele><time>2026-04-19T07:18:59Z</time></trkpt><trkpt lat="44.87935836763731" lon="8.058928565543745"><ele>252.0</ele><time>2026-04-19T07:19:00Z</time></trkpt><trkpt lat="44.87929871421208" lon="8.05897275216321"><ele>248.39999999999998</ele><time>2026-04-19T07:19:01Z</time></trkpt><trkpt lat="44.87921263857751" lon="8.058942230757443"><ele>244.79999999999998</ele><time>2026-04-19T07:19:03Z</time></trkpt><trkpt lat="44.87917198370668" lon="8.058857846288742"><ele>241.2</ele><time>2026-04-19T07:19:04Z</time></trkpt><trkpt lat="44.879178125806035" lon="8.05872171893353"><ele>237.6</ele><time>2026-04-19T07:19:05Z</time></trkpt><trkpt lat="44.879189061624245" lon="8.0585762571761"><ele>234.0</ele><time>2026-04-19T07:19:06Z</time></trkpt><trkpt lat="44.87918751353574" lon="8.05843326322697"><ele>234.0</ele><time>2026-04-19T07:19:07Z</time></trkpt><trkpt lat="44.879219492380415" lon="8.058298349950611"><ele>233.99999999999997</ele><time>2026-04-19T07:19:08Z</time></trkpt><trkpt lat="44.87925702591331" lon="8.058187257305194"><ele>233.99999999999997</ele><time>2026-04-19T07:19:09Z</time></trkpt><trkpt lat="44.879279923484496" lon="8.058078962280817"><ele>234.0</ele><time>2026-04-19T07:19:10Z</time></trkpt><trkpt lat="44.87927398889726" lon="8.05796681767786"><ele>234.0</ele><time>2026-04-19T07:19:11Z</time></trkpt><trkpt lat="44.87913412447438" lon="8.057861204321663"><ele>234.0</ele><time>2026-04-19T07:19:13Z</time></trkpt><trkpt lat="44.87905200237674" lon="8.057871551475401"><ele>233.99999999999997</ele><time>2026-04-19T07:19:14Z</time></trkpt><trkpt lat="44.87899231195847" lon="8.057915075583987"><ele>233.99999999999997</ele><time>2026-04-19T07:19:15Z</time></trkpt><trkpt lat="44.87892444153364" lon="8.058018175934668"><ele>234.0</ele><time>2026-04-19T07:19:16Z</time></trkpt><trkpt lat="44.878852351227394" lon="8.05817747158405"><ele>234.0</ele><time>2026-04-19T07:19:17Z</time></trkpt><trkpt lat="44.878803873428566" lon="8.058322460984497"><ele>234.0</ele><time>2026-04-19T07:19:18Z</time></trkpt><trkpt lat="44.8787614288164" lon="8.05850320771401"><ele>234.0</ele><time>2026-04-19T07:19:19Z</time></trkpt><trkpt lat="44.878720227628236" lon="8.058648963153649"><ele>234.0</ele><time>2026-04-19T07:19:20Z</time></trkpt><trkpt lat="44.878728760607316" lon="8.058814950506674"><ele>234.0</ele><time>2026-04-19T07:19:21Z</time></trkpt><trkpt lat="44.8787766336429" lon="8.058959065327736"><ele>234.0</ele><time>2026-04-19T07:19:22Z</time></trkpt><trkpt lat="44.87880002266802" lon="8.05910123926953"><ele>233.99999999999997</ele><time>2026-04-19T07:19:23Z</time></trkpt><trkpt lat="44.878762233464926" lon="8.059269758889863"><ele>233.99999999999997</ele><time>2026-04-19T07:19:25Z</time></trkpt><trkpt lat="44.8787302602429" lon="8.059384853635981"><ele>234.0</ele><time>2026-04-19T07:19:26Z</time></trkpt><trkpt lat="44.878660898152106" lon="8.05948945059102"><ele>234.0</ele><time>2026-04-19T07:19:27Z</time></trkpt><trkpt lat="44.87867276393481" lon="8.059649660321925"><ele>232.75</ele><time>2026-04-19T07:19:28Z</time></trkpt><trkpt lat="44.87866369147044" lon="8.059781706342486"><ele>231.5</ele><time>2026-04-19T07:19:29Z</time></trkpt><trkpt lat="44.87865294235785" lon="8.059917611134262"><ele>230.25</ele><time>2026-04-19T07:19:30Z</time></trkpt><trkpt lat="44.878609936650875" lon="8.060121837967479"><ele>229.0</ele><time>2026-04-19T07:19:31Z</time></trkpt><trkpt lat="44.87854980156945" lon="8.060256718273454"><ele>229.0</ele><time>2026-04-19T07:19:32Z</time></trkpt><trkpt lat="44.878496285626184" lon="8.060454563235274"><ele>229.0</ele><time>2026-04-19T07:19:33Z</time></trkpt><trkpt lat="44.878449975262086" lon="8.060628195116756"><ele>229.0</ele><time>2026-04-19T07:19:34Z</time></trkpt><trkpt lat="44.8783988699587" lon="8.06075649173396"><ele>229.0</ele><time>2026-04-19T07:19:35Z</time></trkpt><trkpt lat="44.87836670645733" lon="8.060862546612096"><ele>229.39999999999998</ele><time>2026-04-19T07:19:36Z</time></trkpt><trkpt lat="44.8783706273415" lon="8.060971493930962"><ele>229.79999999999998</ele><time>2026-04-19T07:19:37Z</time></trkpt><trkpt lat="44.87843062848913" lon="8.061068135165005"><ele>230.20000000000002</ele><time>2026-04-19T07:19:38Z</time></trkpt><trkpt lat="44.87849109659889" lon="8.061160489289186"><ele>230.60000000000002</ele><time>2026-04-19T07:19:39Z</time></trkpt><trkpt lat="44.87854582544361" lon="8.061287245801836"><ele>231.0</ele><time>2026-04-19T07:19:40Z</time></trkpt><trkpt lat="44.87857422431484" lon="8.061444616395764"><ele>230.0</ele><time>2026-04-19T07:19:41Z</time></trkpt><trkpt lat="44.878605954771146" lon="8.06159570345492"><ele>229.0</ele><time>2026-04-19T07:19:42Z</time></trkpt><trkpt lat="44.87863923253641" lon="8.06176018624357"><ele>228.0</ele><time>2026-04-19T07:19:43Z</time></trkpt><trkpt lat="44.878691180244" lon="8.061896053901682"><ele>227.0</ele><time>2026-04-19T07:19:44Z</time></trkpt><trkpt lat="44.878751611420164" lon="8.062029519509593"><ele>227.0</ele><time>2026-04-19T07:19:45Z</time></trkpt><trkpt lat="44.87882048032682" lon="8.062171057778793"><ele>227.0</ele><time>2026-04-19T07:19:46Z</time></trkpt><trkpt lat="44.87886424654018" lon="8.062311395103057"><ele>227.0</ele><time>2026-04-19T07:19:47Z</time></trkpt><trkpt lat="44.878891257133205" lon="8.06242867684165"><ele>227.0</ele><time>2026-04-19T07:19:48Z</time></trkpt><trkpt lat="44.878904626364246" lon="8.062521169746342"><ele>227.0</ele><time>2026-04-19T07:19:49Z</time></trkpt><trkpt lat="44.878869644088056" lon="8.062636322183184"><ele>226.0</ele><time>2026-04-19T07:19:51Z</time></trkpt><trkpt lat="44.87886708044322" lon="8.0627898590612"><ele>225.0</ele><time>2026-04-19T07:19:53Z</time></trkpt><trkpt lat="44.87888758363862" lon="8.062875602095238"><ele>224.0</ele><time>2026-04-19T07:19:54Z</time></trkpt><trkpt lat="44.87895223786369" lon="8.063006082950906"><ele>223.0</ele><time>2026-04-19T07:19:56Z</time></trkpt><trkpt lat="44.87902815982242" lon="8.063155091678869"><ele>222.0</ele><time>2026-04-19T07:19:58Z</time></trkpt><trkpt lat="44.87907529174287" lon="8.063247238965138"><ele>222.6</ele><time>2026-04-19T07:19:59Z</time></trkpt><trkpt lat="44.87911716553341" lon="8.063346675563386"><ele>223.2</ele><time>2026-04-19T07:20:00Z</time></trkpt><trkpt lat="44.8791644087827" lon="8.063416922493316"><ele>223.8</ele><time>2026-04-19T07:20:01Z</time></trkpt><trkpt lat="44.87919061785237" lon="8.063505868195993"><ele>224.4</ele><time>2026-04-19T07:20:02Z</time></trkpt><trkpt lat="44.87917640765146" lon="8.063687681869718"><ele>225.0</ele><time>2026-04-19T07:20:04Z</time></trkpt><trkpt lat="44.87916671824971" lon="8.063841063434497"><ele>225.0</ele><time>2026-04-19T07:20:06Z</time></trkpt><trkpt lat="44.87912213033417" lon="8.0639054625267"><ele>225.0</ele><time>2026-04-19T07:20:07Z</time></trkpt><trkpt lat="44.8790767915496" lon="8.063976048152336"><ele>225.0</ele><time>2026-04-19T07:20:08Z</time></trkpt><trkpt lat="44.8790621178032" lon="8.064068333211322"><ele>225.0</ele><time>2026-04-19T07:20:09Z</time></trkpt><trkpt lat="44.8791067917539" lon="8.064215916801183"><ele>225.0</ele><time>2026-04-19T07:20:11Z</time></trkpt><trkpt lat="44.879145898313084" lon="8.064296896348576"><ele>225.0</ele><time>2026-04-19T07:20:12Z</time></trkpt><trkpt lat="44.8791823271683" lon="8.064383948993633"><ele>224.6</ele><time>2026-04-19T07:20:13Z</time></trkpt><trkpt lat="44.87920620439406" lon="8.064476022200035"><ele>224.2</ele><time>2026-04-19T07:20:14Z</time></trkpt><trkpt lat="44.87920613317433" lon="8.064580480151715"><ele>223.8</ele><time>2026-04-19T07:20:15Z</time></trkpt><trkpt lat="44.87920457498414" lon="8.064741926147203"><ele>223.4</ele><time>2026-04-19T07:20:16Z</time></trkpt><trkpt lat="44.87921086486961" lon="8.064914047567491"><ele>223.0</ele><time>2026-04-19T07:20:17Z</time></trkpt><trkpt lat="44.87920255243312" lon="8.065076924383032"><ele>223.0</ele><time>2026-04-19T07:20:18Z</time></trkpt><trkpt lat="44.879199513809006" lon="8.06518477589098"><ele>223.0</ele><time>2026-04-19T07:20:19Z</time></trkpt><trkpt lat="44.879151550077765" lon="8.06528817460823"><ele>223.0</ele><time>2026-04-19T07:20:20Z</time></trkpt><trkpt lat="44.879068519623196" lon="8.065371567401561"><ele>223.0</ele><time>2026-04-19T07:20:21Z</time></trkpt><trkpt lat="44.878975999021314" lon="8.065475750159314"><ele>223.0</ele><time>2026-04-19T07:20:22Z</time></trkpt><trkpt lat="44.878916956145545" lon="8.065622618604952"><ele>222.0</ele><time>2026-04-19T07:20:23Z</time></trkpt><trkpt lat="44.87888796826491" lon="8.065791899061711"><ele>221.0</ele><time>2026-04-19T07:20:24Z</time></trkpt><trkpt lat="44.87885916110164" lon="8.065963453111973"><ele>220.0</ele><time>2026-04-19T07:20:25Z</time></trkpt><trkpt lat="44.878809396751095" lon="8.066140871064212"><ele>219.0</ele><time>2026-04-19T07:20:26Z</time></trkpt><trkpt lat="44.87878047805238" lon="8.066311183079131"><ele>219.0</ele><time>2026-04-19T07:20:27Z</time></trkpt><trkpt lat="44.878751884307285" lon="8.066446689383442"><ele>218.99999999999997</ele><time>2026-04-19T07:20:28Z</time></trkpt><trkpt lat="44.87874289572503" lon="8.066537947749637"><ele>218.99999999999997</ele><time>2026-04-19T07:20:29Z</time></trkpt><trkpt lat="44.87881612131299" lon="8.066599011984994"><ele>219.0</ele><time>2026-04-19T07:20:31Z</time></trkpt><trkpt lat="44.87896192045224" lon="8.066610963554348"><ele>219.0</ele><time>2026-04-19T07:20:33Z</time></trkpt><trkpt lat="44.87906097113675" lon="8.066633979800626"><ele>218.39999999999998</ele><time>2026-04-19T07:20:34Z</time></trkpt><trkpt lat="44.87916865040146" lon="8.0666721585716"><ele>217.79999999999998</ele><time>2026-04-19T07:20:35Z</time></trkpt><trkpt lat="44.879276496960294" lon="8.066708427641775"><ele>217.20000000000002</ele><time>2026-04-19T07:20:36Z</time></trkpt><trkpt lat="44.87939017615236" lon="8.066760246119982"><ele>216.60000000000002</ele><time>2026-04-19T07:20:37Z</time></trkpt><trkpt lat="44.87948014707453" lon="8.066803474199027"><ele>216.0</ele><time>2026-04-19T07:20:38Z</time></trkpt><trkpt lat="44.879557772139826" lon="8.066874767676813"><ele>218.60000000000002</ele><time>2026-04-19T07:20:39Z</time></trkpt><trkpt lat="44.879642893523254" lon="8.066965378235405"><ele>221.20000000000002</ele><time>2026-04-19T07:20:40Z</time></trkpt><trkpt lat="44.879729451887634" lon="8.067087769859576"><ele>223.79999999999998</ele><time>2026-04-19T07:20:41Z</time></trkpt><trkpt lat="44.87981891606434" lon="8.067154347233647"><ele>226.39999999999998</ele><time>2026-04-19T07:20:42Z</time></trkpt><trkpt lat="44.87991384599611" lon="8.067189674687867"><ele>229.0</ele><time>2026-04-19T07:20:43Z</time></trkpt><trkpt lat="44.8800136821764" lon="8.067215698491133"><ele>229.16666666666666</ele><time>2026-04-19T07:20:44Z</time></trkpt><trkpt lat="44.8801132066434" lon="8.067262664541696"><ele>229.33333333333331</ele><time>2026-04-19T07:20:45Z</time></trkpt><trkpt lat="44.88021837583315" lon="8.067295683303934"><ele>229.5</ele><time>2026-04-19T07:20:46Z</time></trkpt><trkpt lat="44.88030879676995" lon="8.067324282746187"><ele>229.66666666666669</ele><time>2026-04-19T07:20:47Z</time></trkpt><trkpt lat="44.88038651165738" lon="8.067329184664805"><ele>229.83333333333334</ele><time>2026-04-19T07:20:48Z</time></trkpt><trkpt lat="44.88044608934956" lon="8.067294813290903"><ele>230.0</ele><time>2026-04-19T07:20:49Z</time></trkpt><trkpt lat="44.88051960773434" lon="8.067225167980936"><ele>230.0</ele><time>2026-04-19T07:20:50Z</time></trkpt><trkpt lat="44.88059905181052" lon="8.067156086632064"><ele>230.0</ele><time>2026-04-19T07:20:51Z</time></trkpt><trkpt lat="44.88067545293574" lon="8.06706919073446"><ele>230.0</ele><time>2026-04-19T07:20:52Z</time></trkpt><trkpt lat="44.88075515583323" lon="8.066997583655953"><ele>230.0</ele><time>2026-04-19T07:20:53Z</time></trkpt><trkpt lat="44.88083105125447" lon="8.066926665350792"><ele>230.0</ele><time>2026-04-19T07:20:54Z</time></trkpt><trkpt lat="44.88088090323011" lon="8.066822783566705"><ele>230.0</ele><time>2026-04-19T07:20:55Z</time></trkpt><trkpt lat="44.88091377192373" lon="8.066691984310607"><ele>230.0</ele><time>2026-04-19T07:20:56Z</time></trkpt><trkpt lat="44.88097264536571" lon="8.06655374201716"><ele>230.0</ele><time>2026-04-19T07:20:57Z</time></trkpt><trkpt lat="44.88101095449852" lon="8.06642723616875"><ele>230.0</ele><time>2026-04-19T07:20:58Z</time></trkpt><trkpt lat="44.88103692061017" lon="8.066297151627221"><ele>230.0</ele><time>2026-04-19T07:20:59Z</time></trkpt><trkpt lat="44.88104678864366" lon="8.066176076411587"><ele>232.83333333333334</ele><time>2026-04-19T07:21:00Z</time></trkpt><trkpt lat="44.881046490567876" lon="8.06606577364874"><ele>235.66666666666669</ele><time>2026-04-19T07:21:01Z</time></trkpt><trkpt lat="44.881014447601565" lon="8.065950232138132"><ele>238.5</ele><time>2026-04-19T07:21:02Z</time></trkpt><trkpt lat="44.88096949001032" lon="8.065834208573197"><ele>241.33333333333331</ele><time>2026-04-19T07:21:03Z</time></trkpt><trkpt lat="44.88093286100014" lon="8.065718660923032"><ele>244.16666666666666</ele><time>2026-04-19T07:21:04Z</time></trkpt><trkpt lat="44.880985121736344" lon="8.065651014242393"><ele>247.0</ele><time>2026-04-19T07:21:05Z</time></trkpt><trkpt lat="44.8811191042744" lon="8.06579452410678"><ele>247.0</ele><time>2026-04-19T07:21:07Z</time></trkpt><trkpt lat="44.881224013946294" lon="8.065906606629849"><ele>247.0</ele><time>2026-04-19T07:21:08Z</time></trkpt><trkpt lat="44.881296778909636" lon="8.066013558551786"><ele>247.0</ele><time>2026-04-19T07:21:09Z</time></trkpt><trkpt lat="44.881335778698634" lon="8.066087055792776"><ele>247.0</ele><time>2026-04-19T07:21:10Z</time></trkpt><trkpt lat="44.88141943140641" lon="8.066209218354805"><ele>247.0</ele><time>2026-04-19T07:21:12Z</time></trkpt><trkpt lat="44.881473296331784" lon="8.06625884438831"><ele>247.0</ele><time>2026-04-19T07:21:13Z</time></trkpt><trkpt lat="44.88152053139075" lon="8.06633041601311"><ele>247.0</ele><time>2026-04-19T07:21:14Z</time></trkpt><trkpt lat="44.881558255521355" lon="8.066434816556347"><ele>247.0</ele><time>2026-04-19T07:21:15Z</time></trkpt><trkpt lat="44.881567408169964" lon="8.066529467156302"><ele>247.0</ele><time>2026-04-19T07:21:16Z</time></trkpt><trkpt lat="44.88160667434834" lon="8.066627617532259"><ele>247.0</ele><time>2026-04-19T07:21:17Z</time></trkpt><trkpt lat="44.88166942989915" lon="8.06670320160059"><ele>247.0</ele><time>2026-04-19T07:21:20Z</time></trkpt><trkpt lat="44.881735222690104" lon="8.06668767915609"><ele>247.0</ele><time>2026-04-19T07:21:21Z</time></trkpt><trkpt lat="44.88182285914625" lon="8.066626673936115"><ele>245.8</ele><time>2026-04-19T07:21:23Z</time></trkpt><trkpt lat="44.88183194525596" lon="8.066722798573622"><ele>244.6</ele><time>2026-04-19T07:21:25Z</time></trkpt><trkpt lat="44.88181071075562" lon="8.066938099415623"><ele>243.40000000000003</ele><time>2026-04-19T07:21:27Z</time></trkpt><trkpt lat="44.88180520984442" lon="8.067031532987427"><ele>242.20000000000002</ele><time>2026-04-19T07:21:28Z</time></trkpt><trkpt lat="44.88180108082768" lon="8.067178004372261"><ele>241.0</ele><time>2026-04-19T07:21:30Z</time></trkpt><trkpt lat="44.8817983097459" lon="8.067276302406048"><ele>241.0</ele><time>2026-04-19T07:21:31Z</time></trkpt><trkpt lat="44.88178715162016" lon="8.067415988778425"><ele>241.0</ele><time>2026-04-19T07:21:33Z</time></trkpt><trkpt lat="44.88177030647942" lon="8.0675780966547"><ele>241.0</ele><time>2026-04-19T07:21:35Z</time></trkpt><trkpt lat="44.88218908105479" lon="8.067883886068323"><ele>239.60000000000002</ele><time>2026-04-19T07:21:37Z</time></trkpt><trkpt lat="44.882259817647125" lon="8.068010982643672"><ele>238.20000000000002</ele><time>2026-04-19T07:21:38Z</time></trkpt><trkpt lat="44.88231995571336" lon="8.068084630720664"><ele>236.79999999999998</ele><time>2026-04-19T07:21:39Z</time></trkpt><trkpt lat="44.88238573261267" lon="8.068146708469124"><ele>235.39999999999998</ele><time>2026-04-19T07:21:40Z</time></trkpt><trkpt lat="44.88242104576772" lon="8.068247782641"><ele>234.0</ele><time>2026-04-19T07:21:41Z</time></trkpt><trkpt lat="44.88244929684502" lon="8.068385475775312"><ele>234.0</ele><time>2026-04-19T07:21:42Z</time></trkpt><trkpt lat="44.882466099825294" lon="8.068549762079538"><ele>234.0</ele><time>2026-04-19T07:21:43Z</time></trkpt><trkpt lat="44.882478336329164" lon="8.068716426297312"><ele>234.0</ele><time>2026-04-19T07:21:44Z</time></trkpt><trkpt lat="44.88252644033299" lon="8.068873254510958"><ele>234.0</ele><time>2026-04-19T07:21:45Z</time></trkpt><trkpt lat="44.88252947620233" lon="8.069010654917005"><ele>234.0</ele><time>2026-04-19T07:21:46Z</time></trkpt><trkpt lat="44.8825757694925" lon="8.06914249912385"><ele>233.99999999999997</ele><time>2026-04-19T07:21:47Z</time></trkpt><trkpt lat="44.88259083711494" lon="8.069261297663935"><ele>233.99999999999997</ele><time>2026-04-19T07:21:48Z</time></trkpt><trkpt lat="44.88258868608239" lon="8.06937000627099"><ele>234.0</ele><time>2026-04-19T07:21:49Z</time></trkpt><trkpt lat="44.88257566764348" lon="8.069506353422742"><ele>234.0</ele><time>2026-04-19T07:21:50Z</time></trkpt><trkpt lat="44.88256564534585" lon="8.069632081284213"><ele>234.0</ele><time>2026-04-19T07:21:51Z</time></trkpt><trkpt lat="44.88254104756377" lon="8.069728672756876"><ele>234.0</ele><time>2026-04-19T07:21:52Z</time></trkpt><trkpt lat="44.88248450687673" lon="8.069790325743671"><ele>234.0</ele><time>2026-04-19T07:21:53Z</time></trkpt><trkpt lat="44.88242268908734" lon="8.069893410486415"><ele>234.0</ele><time>2026-04-19T07:21:54Z</time></trkpt><trkpt lat="44.8823419475631" lon="8.069975071212225"><ele>234.0</ele><time>2026-04-19T07:21:55Z</time></trkpt><trkpt lat="44.8822774347083" lon="8.070079027494197"><ele>234.0</ele><time>2026-04-19T07:21:57Z</time></trkpt><trkpt lat="44.88231459493296" lon="8.070220013395017"><ele>233.83333333333334</ele><time>2026-04-19T07:21:58Z</time></trkpt><trkpt lat="44.882352317817315" lon="8.070306723766372"><ele>233.66666666666669</ele><time>2026-04-19T07:21:59Z</time></trkpt><trkpt lat="44.88240330707881" lon="8.070380933315832"><ele>233.5</ele><time>2026-04-19T07:22:00Z</time></trkpt><trkpt lat="44.88248223294978" lon="8.070459871966293"><ele>233.33333333333334</ele><time>2026-04-19T07:22:01Z</time></trkpt><trkpt lat="44.882567537025686" lon="8.070495974290166"><ele>233.16666666666669</ele><time>2026-04-19T07:22:02Z</time></trkpt><trkpt lat="44.882669452099194" lon="8.070484165424006"><ele>233.0</ele><time>2026-04-19T07:22:03Z</time></trkpt><trkpt lat="44.882771932311705" lon="8.070402568768019"><ele>227.5</ele><time>2026-04-19T07:22:04Z</time></trkpt><trkpt lat="44.8829112894958" lon="8.070281924986036"><ele>222.0</ele><time>2026-04-19T07:22:05Z</time></trkpt><trkpt lat="44.883037572683584" lon="8.070189189600795"><ele>216.5</ele><time>2026-04-19T07:22:06Z</time></trkpt><trkpt lat="44.883166120827845" lon="8.070142466033236"><ele>211.0</ele><time>2026-04-19T07:22:07Z</time></trkpt><trkpt lat="44.88325961773304" lon="8.070103524339554"><ele>211.0</ele><time>2026-04-19T07:22:08Z</time></trkpt><trkpt lat="44.8833628042756" lon="8.07011775752499"><ele>211.0</ele><time>2026-04-19T07:22:09Z</time></trkpt><trkpt lat="44.88346603259959" lon="8.070150499255002"><ele>211.0</ele><time>2026-04-19T07:22:10Z</time></trkpt><trkpt lat="44.88354220035872" lon="8.070280548995921"><ele>211.0</ele><time>2026-04-19T07:22:11Z</time></trkpt><trkpt lat="44.883631407735685" lon="8.070404799487463"><ele>211.4</ele><time>2026-04-19T07:22:12Z</time></trkpt><trkpt lat="44.883717633301046" lon="8.070527315796088"><ele>211.8</ele><time>2026-04-19T07:22:13Z</time></trkpt><trkpt lat="44.88381078761917" lon="8.07061824946671"><ele>212.20000000000002</ele><time>2026-04-19T07:22:14Z</time></trkpt><trkpt lat="44.88387971752476" lon="8.070705434800539"><ele>212.60000000000002</ele><time>2026-04-19T07:22:15Z</time></trkpt><trkpt lat="44.8839575521097" lon="8.070769134255912"><ele>213.0</ele><time>2026-04-19T07:22:16Z</time></trkpt><trkpt lat="44.884035975432035" lon="8.070881196585166"><ele>211.5</ele><time>2026-04-19T07:22:17Z</time></trkpt><trkpt lat="44.884104886753256" lon="8.071021581470397"><ele>210.0</ele><time>2026-04-19T07:22:18Z</time></trkpt><trkpt lat="44.88418101908434" lon="8.071184768672838"><ele>208.5</ele><time>2026-04-19T07:22:19Z</time></trkpt><trkpt lat="44.88424584272645" lon="8.071339981160875"><ele>207.0</ele><time>2026-04-19T07:22:20Z</time></trkpt><trkpt lat="44.88430968233542" lon="8.071513492150096"><ele>208.6</ele><time>2026-04-19T07:22:21Z</time></trkpt><trkpt lat="44.884356600228806" lon="8.07165346156819"><ele>210.2</ele><time>2026-04-19T07:22:22Z</time></trkpt><trkpt lat="44.88443177010509" lon="8.071756240643268"><ele>211.8</ele><time>2026-04-19T07:22:23Z</time></trkpt><trkpt lat="44.88449902184197" lon="8.071889860426"><ele>213.4</ele><time>2026-04-19T07:22:24Z</time></trkpt><trkpt lat="44.884579225841584" lon="8.071999328178881"><ele>215.0</ele><time>2026-04-19T07:22:25Z</time></trkpt><trkpt lat="44.88466464857902" lon="8.072072704592678"><ele>215.0</ele><time>2026-04-19T07:22:26Z</time></trkpt><trkpt lat="44.88475889493186" lon="8.072154893713323"><ele>215.0</ele><time>2026-04-19T07:22:27Z</time></trkpt><trkpt lat="44.88483662131788" lon="8.072268185030033"><ele>215.0</ele><time>2026-04-19T07:22:28Z</time></trkpt><trkpt lat="44.884891295385" lon="8.072376832382263"><ele>215.0</ele><time>2026-04-19T07:22:29Z</time></trkpt><trkpt lat="44.884951069425206" lon="8.072479257816944"><ele>215.0</ele><time>2026-04-19T07:22:30Z</time></trkpt><trkpt lat="44.88500143375509" lon="8.072562897506383"><ele>216.8</ele><time>2026-04-19T07:22:31Z</time></trkpt><trkpt lat="44.88507412294697" lon="8.072671835612825"><ele>218.6</ele><time>2026-04-19T07:22:33Z</time></trkpt><trkpt lat="44.88504371402808" lon="8.072755172194958"><ele>220.39999999999998</ele><time>2026-04-19T07:22:39Z</time></trkpt><trkpt lat="44.88507456394703" lon="8.07286612244894"><ele>222.2</ele><time>2026-04-19T07:22:41Z</time></trkpt><trkpt lat="44.885130007230785" lon="8.073093867307511"><ele>224.0</ele><time>2026-04-19T07:22:43Z</time></trkpt><trkpt lat="44.88519044311841" lon="8.073246089121863"><ele>222.16666666666669</ele><time>2026-04-19T07:22:44Z</time></trkpt><trkpt lat="44.88522570959222" lon="8.073370046845161"><ele>220.33333333333334</ele><time>2026-04-19T07:22:45Z</time></trkpt><trkpt lat="44.885271107387396" lon="8.073439406422967"><ele>218.5</ele><time>2026-04-19T07:22:46Z</time></trkpt><trkpt lat="44.88524922852607" lon="8.07360687819061"><ele>216.66666666666669</ele><time>2026-04-19T07:22:49Z</time></trkpt><trkpt lat="44.88522980158594" lon="8.073701647399488"><ele>214.83333333333334</ele><time>2026-04-19T07:22:50Z</time></trkpt><trkpt lat="44.88521951673092" lon="8.073793472179988"><ele>213.0</ele><time>2026-04-19T07:22:51Z</time></trkpt><trkpt lat="44.88522339758263" lon="8.073924864878597"><ele>213.0</ele><time>2026-04-19T07:22:53Z</time></trkpt><trkpt lat="44.8851531005454" lon="8.073957050394505"><ele>213.0</ele><time>2026-04-19T07:22:55Z</time></trkpt><trkpt lat="44.885087196439144" lon="8.073935814971058"><ele>213.0</ele><time>2026-04-19T07:22:57Z</time></trkpt><trkpt lat="44.885134617854796" lon="8.07378351103268"><ele>213.0</ele><time>2026-04-19T07:22:59Z</time></trkpt><trkpt lat="44.885151444170106" lon="8.073648579855776"><ele>213.0</ele><time>2026-04-19T07:23:01Z</time></trkpt><trkpt lat="44.88521166992398" lon="8.073526763902859"><ele>213.0</ele><time>2026-04-19T07:23:04Z</time></trkpt><trkpt lat="44.88520015770799" lon="8.073383919614413"><ele>213.0</ele><time>2026-04-19T07:23:06Z</time></trkpt><trkpt lat="44.88515307580384" lon="8.073281822001762"><ele>213.0</ele><time>2026-04-19T07:23:07Z</time></trkpt><trkpt lat="44.88509853313158" lon="8.073129415010294"><ele>213.0</ele><time>2026-04-19T07:23:09Z</time></trkpt><trkpt lat="44.88503839255092" lon="8.07298323497726"><ele>213.0</ele><time>2026-04-19T07:23:11Z</time></trkpt><trkpt lat="44.88494733556875" lon="8.072875670890493"><ele>211.33333333333334</ele><time>2026-04-19T07:23:13Z</time></trkpt><trkpt lat="44.88492659886316" lon="8.072764645161724"><ele>209.66666666666669</ele><time>2026-04-19T07:23:16Z</time></trkpt><trkpt lat="44.88486208858338" lon="8.072731239536687"><ele>208.0</ele><time>2026-04-19T07:23:20Z</time></trkpt><trkpt lat="44.88480065074651" lon="8.072799039659012"><ele>206.33333333333334</ele><time>2026-04-19T07:23:21Z</time></trkpt><trkpt lat="44.8847157577502" lon="8.072914343324815"><ele>204.66666666666669</ele><time>2026-04-19T07:23:23Z</time></trkpt><trkpt lat="44.884682429349574" lon="8.072993789404887"><ele>203.0</ele><time>2026-04-19T07:23:25Z</time></trkpt><trkpt lat="44.88472821429543" lon="8.073058067666386"><ele>203.00000000000003</ele><time>2026-04-19T07:23:26Z</time></trkpt><trkpt lat="44.88475820081848" lon="8.07313645807998"><ele>203.0</ele><time>2026-04-19T07:23:27Z</time></trkpt><trkpt lat="44.88476184143233" lon="8.07324489562954"><ele>203.0</ele><time>2026-04-19T07:23:29Z</time></trkpt><trkpt lat="44.884739368771484" lon="8.073348641452244"><ele>203.0</ele><time>2026-04-19T07:23:32Z</time></trkpt><trkpt lat="44.88479282853425" lon="8.073425535236824"><ele>203.00000000000003</ele><time>2026-04-19T07:23:35Z</time></trkpt><trkpt lat="44.88483167190554" lon="8.073551262602383"><ele>203.0</ele><time>2026-04-19T07:23:37Z</time></trkpt><trkpt lat="44.88488835515862" lon="8.073651529266947"><ele>202.4</ele><time>2026-04-19T07:23:39Z</time></trkpt><trkpt lat="44.88494365076788" lon="8.073743239327806"><ele>201.8</ele><time>2026-04-19T07:23:41Z</time></trkpt><trkpt lat="44.88500033759682" lon="8.073868780517547"><ele>201.2</ele><time>2026-04-19T07:23:43Z</time></trkpt><trkpt lat="44.885078395733395" lon="8.073935461740865"><ele>200.6</ele><time>2026-04-19T07:23:45Z</time></trkpt><trkpt lat="44.88515322983299" lon="8.074057747061643"><ele>200.0</ele><time>2026-04-19T07:23:47Z</time></trkpt><trkpt lat="44.88517992371102" lon="8.074210136400051"><ele>199.33333333333334</ele><time>2026-04-19T07:23:51Z</time></trkpt><trkpt lat="44.88522804679182" lon="8.074300679046264"><ele>198.66666666666669</ele><time>2026-04-19T07:23:53Z</time></trkpt><trkpt lat="44.88521039656439" lon="8.07441774272837"><ele>198.0</ele><time>2026-04-19T07:23:55Z</time></trkpt><trkpt lat="44.88515636297921" lon="8.07449388590474"><ele>197.33333333333331</ele><time>2026-04-19T07:23:58Z</time></trkpt><trkpt lat="44.885091429840315" lon="8.074488285119362"><ele>196.66666666666666</ele><time>2026-04-19T07:24:01Z</time></trkpt><trkpt lat="44.88506372771989" lon="8.07436540203461"><ele>196.0</ele><time>2026-04-19T07:24:02Z</time></trkpt><trkpt lat="44.88503521604549" lon="8.074282013613765"><ele>195.99999999999997</ele><time>2026-04-19T07:24:05Z</time></trkpt><trkpt lat="44.885007311645985" lon="8.074180781498415"><ele>196.0</ele><time>2026-04-19T07:24:08Z</time></trkpt><trkpt lat="44.88496304883775" lon="8.074103948592283"><ele>196.0</ele><time>2026-04-19T07:24:10Z</time></trkpt><trkpt lat="44.88492332893431" lon="8.073999229904835"><ele>196.0</ele><time>2026-04-19T07:24:12Z</time></trkpt><trkpt lat="44.88487343318294" lon="8.073839576123339"><ele>195.99999999999997</ele><time>2026-04-19T07:24:13Z</time></trkpt><trkpt lat="44.88483173818711" lon="8.073743845993631"><ele>196.0</ele><time>2026-04-19T07:24:14Z</time></trkpt><trkpt lat="44.8847428559037" lon="8.073657466590518"><ele>195.99999999999997</ele><time>2026-04-19T07:24:16Z</time></trkpt><trkpt lat="44.88467692861432" lon="8.073640519902735"><ele>196.0</ele><time>2026-04-19T07:24:19Z</time></trkpt><trkpt lat="44.88462714512798" lon="8.073714516316295"><ele>196.0</ele><time>2026-04-19T07:24:23Z</time></trkpt><trkpt lat="44.88460589337298" lon="8.073807122762464"><ele>196.0</ele><time>2026-04-19T07:24:24Z</time></trkpt><trkpt lat="44.88454997650741" lon="8.073930295233579"><ele>195.99999999999997</ele><time>2026-04-19T07:24:26Z</time></trkpt><trkpt lat="44.88453013587106" lon="8.07405087413331"><ele>196.0</ele><time>2026-04-19T07:24:28Z</time></trkpt><trkpt lat="44.88446806049746" lon="8.074155607681694"><ele>196.0</ele><time>2026-04-19T07:24:31Z</time></trkpt><trkpt lat="44.884395924657234" lon="8.07413022862533"><ele>196.0</ele><time>2026-04-19T07:24:33Z</time></trkpt><trkpt lat="44.88430996343425" lon="8.074047120946988"><ele>196.0</ele><time>2026-04-19T07:24:35Z</time></trkpt><trkpt lat="44.884214780871844" lon="8.073986254179976"><ele>196.0</ele><time>2026-04-19T07:24:37Z</time></trkpt><trkpt lat="44.88416426282712" lon="8.073907732684946"><ele>196.0</ele><time>2026-04-19T07:24:40Z</time></trkpt><trkpt lat="44.8840780359071" lon="8.073955157962034"><ele>200.99999999999997</ele><time>2026-04-19T07:24:43Z</time></trkpt><trkpt lat="44.88402489099719" lon="8.074003690134024"><ele>206.0</ele><time>2026-04-19T07:24:45Z</time></trkpt><trkpt lat="44.88396303823766" lon="8.074023591155091"><ele>211.0</ele><time>2026-04-19T07:24:47Z</time></trkpt><trkpt lat="44.88387092231772" lon="8.073998121203166"><ele>216.0</ele><time>2026-04-19T07:24:49Z</time></trkpt><trkpt lat="44.88379209810107" lon="8.073939719857602"><ele>220.99999999999997</ele><time>2026-04-19T07:24:52Z</time></trkpt><trkpt lat="44.883717957846194" lon="8.073903312613282"><ele>226.0</ele><time>2026-04-19T07:24:56Z</time></trkpt><trkpt lat="44.8836444297542" lon="8.073869226793299"><ele>225.99999999999997</ele><time>2026-04-19T07:25:01Z</time></trkpt><trkpt lat="44.883574502505674" lon="8.073801141449405"><ele>226.0</ele><time>2026-04-19T07:25:06Z</time></trkpt><trkpt lat="44.883488959469524" lon="8.073810981482387"><ele>226.0</ele><time>2026-04-19T07:25:09Z</time></trkpt><trkpt lat="44.88341872979176" lon="8.07382639414038"><ele>226.0</ele><time>2026-04-19T07:25:13Z</time></trkpt><trkpt lat="44.883356493746895" lon="8.073841118067737"><ele>225.99999999999997</ele><time>2026-04-19T07:25:14Z</time></trkpt><trkpt lat="44.883285757621266" lon="8.073820820303728"><ele>226.0</ele><time>2026-04-19T07:25:16Z</time></trkpt><trkpt lat="44.88322605709573" lon="8.073925485986408"><ele>225.20000000000002</ele><time>2026-04-19T07:25:19Z</time></trkpt><trkpt lat="44.883238194440594" lon="8.07403187171339"><ele>224.40000000000003</ele><time>2026-04-19T07:25:21Z</time></trkpt><trkpt lat="44.88324053431729" lon="8.074146649196726"><ele>223.6</ele><time>2026-04-19T07:25:26Z</time></trkpt><trkpt lat="44.88313142588046" lon="8.074240081419997"><ele>222.8</ele><time>2026-04-19T07:25:29Z</time></trkpt><trkpt lat="44.88305685152947" lon="8.074276329616305"><ele>222.0</ele><time>2026-04-19T07:25:31Z</time></trkpt><trkpt lat="44.88299629606713" lon="8.074368312552366"><ele>219.83333333333334</ele><time>2026-04-19T07:25:34Z</time></trkpt><trkpt lat="44.88300709816127" lon="8.074468176814719"><ele>217.66666666666669</ele><time>2026-04-19T07:25:36Z</time></trkpt><trkpt lat="44.883063635961115" lon="8.074563891777682"><ele>215.5</ele><time>2026-04-19T07:25:38Z</time></trkpt><trkpt lat="44.88315373166743" lon="8.074638810763185"><ele>213.33333333333334</ele><time>2026-04-19T07:25:40Z</time></trkpt><trkpt lat="44.88318737829982" lon="8.07472420653879"><ele>211.16666666666669</ele><time>2026-04-19T07:25:41Z</time></trkpt><trkpt lat="44.88322486515542" lon="8.074805716116476"><ele>209.0</ele><time>2026-04-19T07:25:42Z</time></trkpt><trkpt lat="44.8833048537879" lon="8.07488940039526"><ele>209.00000000000003</ele><time>2026-04-19T07:25:44Z</time></trkpt><trkpt lat="44.88336808291222" lon="8.074876670178243"><ele>209.0</ele><time>2026-04-19T07:25:45Z</time></trkpt><trkpt lat="44.88343059724688" lon="8.074831453674358"><ele>209.0</ele><time>2026-04-19T07:25:46Z</time></trkpt><trkpt lat="44.88349405406458" lon="8.074857156932898"><ele>209.0</ele><time>2026-04-19T07:25:48Z</time></trkpt><trkpt lat="44.883548122717656" lon="8.074939489785194"><ele>209.00000000000003</ele><time>2026-04-19T07:25:50Z</time></trkpt><trkpt lat="44.8836172465081" lon="8.074980136861535"><ele>209.0</ele><time>2026-04-19T07:25:52Z</time></trkpt><trkpt lat="44.883725986356716" lon="8.075002793471537"><ele>206.39999999999998</ele><time>2026-04-19T07:25:54Z</time></trkpt><trkpt lat="44.88385196979029" lon="8.074974378838483"><ele>203.8</ele><time>2026-04-19T07:25:56Z</time></trkpt><trkpt lat="44.88392929363633" lon="8.074989894466572"><ele>201.2</ele><time>2026-04-19T07:25:57Z</time></trkpt><trkpt lat="44.884032998078446" lon="8.075077954929467"><ele>198.60000000000002</ele><time>2026-04-19T07:25:59Z</time></trkpt><trkpt lat="44.88409775690899" lon="8.075028803180066"><ele>196.0</ele><time>2026-04-19T07:26:00Z</time></trkpt><trkpt lat="44.884159592442444" lon="8.075079660014024"><ele>196.0</ele><time>2026-04-19T07:26:03Z</time></trkpt><trkpt lat="44.88425843288126" lon="8.075089310888815"><ele>196.0</ele><time>2026-04-19T07:26:05Z</time></trkpt><trkpt lat="44.884417306837655" lon="8.075132280664794"><ele>196.0</ele><time>2026-04-19T07:26:07Z</time></trkpt><trkpt lat="44.88449258797299" lon="8.07512140864901"><ele>196.0</ele><time>2026-04-19T07:26:08Z</time></trkpt><trkpt lat="44.88457758343647" lon="8.0751274258681"><ele>196.0</ele><time>2026-04-19T07:26:09Z</time></trkpt><trkpt lat="44.88466777868021" lon="8.075133533924674"><ele>194.4</ele><time>2026-04-19T07:26:10Z</time></trkpt><trkpt lat="44.88473672877833" lon="8.075135544972055"><ele>192.8</ele><time>2026-04-19T07:26:11Z</time></trkpt><trkpt lat="44.884844939225765" lon="8.075193322247127"><ele>191.20000000000002</ele><time>2026-04-19T07:26:13Z</time></trkpt><trkpt lat="44.88486700982742" lon="8.075288373789302"><ele>189.60000000000002</ele><time>2026-04-19T07:26:15Z</time></trkpt><trkpt lat="44.88483790567926" lon="8.075452250749672"><ele>188.0</ele><time>2026-04-19T07:26:17Z</time></trkpt><trkpt lat="44.88483793521649" lon="8.075561245127185"><ele>188.0</ele><time>2026-04-19T07:26:18Z</time></trkpt><trkpt lat="44.88484158565653" lon="8.075657852783522"><ele>188.0</ele><time>2026-04-19T07:26:19Z</time></trkpt><trkpt lat="44.88490082936931" lon="8.075823676651893"><ele>188.0</ele><time>2026-04-19T07:26:21Z</time></trkpt><trkpt lat="44.8849415891258" lon="8.075934685471323"><ele>188.0</ele><time>2026-04-19T07:26:22Z</time></trkpt><trkpt lat="44.88497071376104" lon="8.07606905151901"><ele>188.0</ele><time>2026-04-19T07:26:23Z</time></trkpt><trkpt lat="44.8850026663952" lon="8.076173807838153"><ele>187.66666666666666</ele><time>2026-04-19T07:26:24Z</time></trkpt><trkpt lat="44.88503122965539" lon="8.076274679020164"><ele>187.33333333333331</ele><time>2026-04-19T07:26:25Z</time></trkpt><trkpt lat="44.88505851521369" lon="8.076395077861301"><ele>187.0</ele><time>2026-04-19T07:26:26Z</time></trkpt><trkpt lat="44.8850737064731" lon="8.07651096563973"><ele>186.66666666666666</ele><time>2026-04-19T07:26:27Z</time></trkpt><trkpt lat="44.88505938954774" lon="8.076653932927314"><ele>186.33333333333334</ele><time>2026-04-19T07:26:28Z</time></trkpt><trkpt lat="44.885081119469625" lon="8.07678266513502"><ele>186.0</ele><time>2026-04-19T07:26:29Z</time></trkpt><trkpt lat="44.88510108051335" lon="8.07689887086419"><ele>187.16666666666666</ele><time>2026-04-19T07:26:30Z</time></trkpt><trkpt lat="44.88511584276716" lon="8.077004169130111"><ele>188.33333333333331</ele><time>2026-04-19T07:26:31Z</time></trkpt><trkpt lat="44.88515051627247" lon="8.077098301698973"><ele>189.5</ele><time>2026-04-19T07:26:32Z</time></trkpt><trkpt lat="44.885238648224394" lon="8.077116142384313"><ele>190.66666666666666</ele><time>2026-04-19T07:26:34Z</time></trkpt><trkpt lat="44.88517917498676" lon="8.077212919057656"><ele>191.83333333333331</ele><time>2026-04-19T07:26:37Z</time></trkpt><trkpt lat="44.88520500701484" lon="8.077362905339037"><ele>193.0</ele><time>2026-04-19T07:26:39Z</time></trkpt><trkpt lat="44.885245772144" lon="8.077487370827475"><ele>193.0</ele><time>2026-04-19T07:26:40Z</time></trkpt><trkpt lat="44.88526545545085" lon="8.077621791345306"><ele>193.0</ele><time>2026-04-19T07:26:41Z</time></trkpt><trkpt lat="44.8852756340003" lon="8.077758126880642"><ele>193.0</ele><time>2026-04-19T07:26:42Z</time></trkpt><trkpt lat="44.88530026003476" lon="8.077918717331853"><ele>193.0</ele><time>2026-04-19T07:26:43Z</time></trkpt><trkpt lat="44.88532908441385" lon="8.078022260723216"><ele>193.0</ele><time>2026-04-19T07:26:44Z</time></trkpt><trkpt lat="44.88535707425022" lon="8.078165523029295"><ele>191.60000000000002</ele><time>2026-04-19T07:26:45Z</time></trkpt><trkpt lat="44.88540641893967" lon="8.078293508212468"><ele>190.20000000000002</ele><time>2026-04-19T07:26:46Z</time></trkpt><trkpt lat="44.88544767802944" lon="8.078404919171605"><ele>188.8</ele><time>2026-04-19T07:26:47Z</time></trkpt><trkpt lat="44.885458333672545" lon="8.078539756494349"><ele>187.4</ele><time>2026-04-19T07:26:49Z</time></trkpt><trkpt lat="44.88553484420977" lon="8.078579780718192"><ele>186.0</ele><time>2026-04-19T07:26:53Z</time></trkpt><trkpt lat="44.88560750506495" lon="8.078481036185899"><ele>186.0</ele><time>2026-04-19T07:27:03Z</time></trkpt><trkpt lat="44.8857113412929" lon="8.078438420340742"><ele>186.0</ele><time>2026-04-19T07:27:05Z</time></trkpt><trkpt lat="44.88577918410636" lon="8.078412340953367"><ele>186.0</ele><time>2026-04-19T07:27:06Z</time></trkpt><trkpt lat="44.885900274222436" lon="8.07837099974213"><ele>186.0</ele><time>2026-04-19T07:27:08Z</time></trkpt><trkpt lat="44.88598751021997" lon="8.078370746029181"><ele>186.0</ele><time>2026-04-19T07:27:09Z</time></trkpt><trkpt lat="44.88603215456912" lon="8.078492819767632"><ele>188.60000000000002</ele><time>2026-04-19T07:27:12Z</time></trkpt><trkpt lat="44.88603158172819" lon="8.078603442615236"><ele>191.2</ele><time>2026-04-19T07:27:13Z</time></trkpt><trkpt lat="44.88604553571293" lon="8.078726819366608"><ele>193.8</ele><time>2026-04-19T07:27:14Z</time></trkpt><trkpt lat="44.88607777328926" lon="8.078861139303855"><ele>196.39999999999998</ele><time>2026-04-19T07:27:15Z</time></trkpt><trkpt lat="44.88612362767832" lon="8.079000152426337"><ele>199.0</ele><time>2026-04-19T07:27:16Z</time></trkpt><trkpt lat="44.88616331066315" lon="8.079169281494023"><ele>199.0</ele><time>2026-04-19T07:27:17Z</time></trkpt><trkpt lat="44.886203634057004" lon="8.079333114095267"><ele>199.0</ele><time>2026-04-19T07:27:18Z</time></trkpt><trkpt lat="44.88623706196753" lon="8.079499510770336"><ele>199.0</ele><time>2026-04-19T07:27:19Z</time></trkpt><trkpt lat="44.88627173769625" lon="8.079657085947863"><ele>199.0</ele><time>2026-04-19T07:27:20Z</time></trkpt><trkpt lat="44.886296789031064" lon="8.079825803795691"><ele>198.6</ele><time>2026-04-19T07:27:21Z</time></trkpt><trkpt lat="44.88629947411376" lon="8.079988939148658"><ele>198.2</ele><time>2026-04-19T07:27:22Z</time></trkpt><trkpt lat="44.886317137911576" lon="8.080137612827025"><ele>197.79999999999998</ele><time>2026-04-19T07:27:23Z</time></trkpt><trkpt lat="44.88634097239266" lon="8.08024545212564"><ele>197.39999999999998</ele><time>2026-04-19T07:27:24Z</time></trkpt><trkpt lat="44.88637842541288" lon="8.080346525642508"><ele>197.0</ele><time>2026-04-19T07:27:25Z</time></trkpt><trkpt lat="44.88643785287894" lon="8.080451156898627"><ele>197.00000000000003</ele><time>2026-04-19T07:27:26Z</time></trkpt><trkpt lat="44.88648430223748" lon="8.080541939297003"><ele>197.0</ele><time>2026-04-19T07:27:27Z</time></trkpt><trkpt lat="44.886519061956854" lon="8.080658134848834"><ele>197.0</ele><time>2026-04-19T07:27:28Z</time></trkpt><trkpt lat="44.8866184241658" lon="8.080748505987357"><ele>197.0</ele><time>2026-04-19T07:27:30Z</time></trkpt><trkpt lat="44.88670069728428" lon="8.080727316547591"><ele>197.00000000000003</ele><time>2026-04-19T07:27:31Z</time></trkpt><trkpt lat="44.88675936651091" lon="8.080760190758967"><ele>197.0</ele><time>2026-04-19T07:27:34Z</time></trkpt><trkpt lat="44.886729736913125" lon="8.080932103125866"><ele>196.6</ele><time>2026-04-19T07:27:36Z</time></trkpt><trkpt lat="44.88670216110486" lon="8.081054523208484"><ele>196.2</ele><time>2026-04-19T07:27:37Z</time></trkpt><trkpt lat="44.88667740385856" lon="8.081187691127186"><ele>195.8</ele><time>2026-04-19T07:27:38Z</time></trkpt><trkpt lat="44.88665721941097" lon="8.081348205323888"><ele>195.4</ele><time>2026-04-19T07:27:39Z</time></trkpt><trkpt lat="44.88663556904251" lon="8.081486357884422"><ele>195.0</ele><time>2026-04-19T07:27:40Z</time></trkpt><trkpt lat="44.886623077574875" lon="8.081621496965086"><ele>194.66666666666666</ele><time>2026-04-19T07:27:41Z</time></trkpt><trkpt lat="44.88660721477616" lon="8.081748851307879"><ele>194.33333333333331</ele><time>2026-04-19T07:27:42Z</time></trkpt><trkpt lat="44.8865947777676" lon="8.08184533055546"><ele>194.0</ele><time>2026-04-19T07:27:43Z</time></trkpt><trkpt lat="44.88659042728801" lon="8.081939589046605"><ele>193.66666666666666</ele><time>2026-04-19T07:27:45Z</time></trkpt><trkpt lat="44.88657571114904" lon="8.082037295320452"><ele>193.33333333333331</ele><time>2026-04-19T07:27:47Z</time></trkpt><trkpt lat="44.8865405500111" lon="8.082215426668556"><ele>193.0</ele><time>2026-04-19T07:27:49Z</time></trkpt><trkpt lat="44.88651285500688" lon="8.08232450495037"><ele>192.8</ele><time>2026-04-19T07:27:50Z</time></trkpt><trkpt lat="44.886480542167334" lon="8.082451913914669"><ele>192.60000000000002</ele><time>2026-04-19T07:27:51Z</time></trkpt><trkpt lat="44.88644164428592" lon="8.082597540911918"><ele>192.39999999999998</ele><time>2026-04-19T07:27:52Z</time></trkpt><trkpt lat="44.88640165585024" lon="8.082745007961314"><ele>192.2</ele><time>2026-04-19T07:27:53Z</time></trkpt><trkpt lat="44.88636124624594" lon="8.08289161195193"><ele>192.0</ele><time>2026-04-19T07:27:54Z</time></trkpt><trkpt lat="44.88631955030221" lon="8.083042247038021"><ele>192.0</ele><time>2026-04-19T07:27:55Z</time></trkpt><trkpt lat="44.88627902059165" lon="8.083188569845559"><ele>192.0</ele><time>2026-04-19T07:27:56Z</time></trkpt><trkpt lat="44.886262094910016" lon="8.083293359449144"><ele>192.0</ele><time>2026-04-19T07:27:57Z</time></trkpt><trkpt lat="44.88625465098998" lon="8.083383284847033"><ele>192.0</ele><time>2026-04-19T07:27:58Z</time></trkpt><trkpt lat="44.88625024073314" lon="8.083485014326458"><ele>192.0</ele><time>2026-04-19T07:27:59Z</time></trkpt><trkpt lat="44.88689956317241" lon="8.083916345796109"><ele>186.6</ele><time>2026-04-19T07:28:00Z</time></trkpt><trkpt lat="44.88695188498193" lon="8.084062377978514"><ele>181.2</ele><time>2026-04-19T07:28:01Z</time></trkpt><trkpt lat="44.88699020827217" lon="8.084217429140846"><ele>175.8</ele><time>2026-04-19T07:28:02Z</time></trkpt><trkpt lat="44.886999859299245" lon="8.084337527549975"><ele>170.4</ele><time>2026-04-19T07:28:03Z</time></trkpt><trkpt lat="44.887025820130184" lon="8.084478654129045"><ele>165.0</ele><time>2026-04-19T07:28:04Z</time></trkpt><trkpt lat="44.88702087475085" lon="8.084629856115562"><ele>165.25</ele><time>2026-04-19T07:28:05Z</time></trkpt><trkpt lat="44.887015811757834" lon="8.084790628196053"><ele>165.5</ele><time>2026-04-19T07:28:06Z</time></trkpt><trkpt lat="44.886990528906935" lon="8.084918189082227"><ele>165.75</ele><time>2026-04-19T07:28:07Z</time></trkpt><trkpt lat="44.88694874465202" lon="8.085081316984077"><ele>166.0</ele><time>2026-04-19T07:28:08Z</time></trkpt><trkpt lat="44.88691445536433" lon="8.085247714733555"><ele>166.0</ele><time>2026-04-19T07:28:09Z</time></trkpt><trkpt lat="44.88687807470139" lon="8.085403651668678"><ele>166.0</ele><time>2026-04-19T07:28:10Z</time></trkpt><trkpt lat="44.886925310306744" lon="8.085563830540686"><ele>166.0</ele><time>2026-04-19T07:28:11Z</time></trkpt><trkpt lat="44.88696716718506" lon="8.08572197719798"><ele>166.0</ele><time>2026-04-19T07:28:12Z</time></trkpt><trkpt lat="44.8869899137839" lon="8.085885854436473"><ele>166.0</ele><time>2026-04-19T07:28:13Z</time></trkpt><trkpt lat="44.88701754510339" lon="8.086061254320194"><ele>166.0</ele><time>2026-04-19T07:28:14Z</time></trkpt><trkpt lat="44.887064379595586" lon="8.086223760911635"><ele>166.0</ele><time>2026-04-19T07:28:15Z</time></trkpt><trkpt lat="44.88715096608939" lon="8.086365075327521"><ele>166.0</ele><time>2026-04-19T07:28:16Z</time></trkpt><trkpt lat="44.887224437921454" lon="8.086488825853849"><ele>166.0</ele><time>2026-04-19T07:28:17Z</time></trkpt><trkpt lat="44.887275837712025" lon="8.086573287751268"><ele>166.0</ele><time>2026-04-19T07:28:18Z</time></trkpt><trkpt lat="44.88733449238005" lon="8.086612010073319"><ele>166.0</ele><time>2026-04-19T07:28:19Z</time></trkpt><trkpt lat="44.887457627728345" lon="8.086654332712142"><ele>166.0</ele><time>2026-04-19T07:28:20Z</time></trkpt><trkpt lat="44.88756949385158" lon="8.086688785878298"><ele>166.0</ele><time>2026-04-19T07:28:21Z</time></trkpt><trkpt lat="44.88765940650339" lon="8.086766608743472"><ele>166.60000000000002</ele><time>2026-04-19T07:28:22Z</time></trkpt><trkpt lat="44.887735217187824" lon="8.08685998226636"><ele>167.2</ele><time>2026-04-19T07:28:23Z</time></trkpt><trkpt lat="44.88779671544081" lon="8.08699908614542"><ele>167.8</ele><time>2026-04-19T07:28:24Z</time></trkpt><trkpt lat="44.88782844619762" lon="8.087121022515548"><ele>168.39999999999998</ele><time>2026-04-19T07:28:25Z</time></trkpt><trkpt lat="44.887829837961995" lon="8.087271586197337"><ele>169.0</ele><time>2026-04-19T07:28:26Z</time></trkpt><trkpt lat="44.8878231428172" lon="8.087433484249283"><ele>169.0</ele><time>2026-04-19T07:28:27Z</time></trkpt><trkpt lat="44.88780034906296" lon="8.087570966378047"><ele>169.0</ele><time>2026-04-19T07:28:28Z</time></trkpt><trkpt lat="44.88784949472655" lon="8.0877052550073"><ele>169.0</ele><time>2026-04-19T07:28:29Z</time></trkpt><trkpt lat="44.88790377278515" lon="8.087794441081737"><ele>169.0</ele><time>2026-04-19T07:28:30Z</time></trkpt><trkpt lat="44.88803837875018" lon="8.087834575269287"><ele>169.0</ele><time>2026-04-19T07:28:32Z</time></trkpt><trkpt lat="44.888151550413994" lon="8.087799150389117"><ele>169.0</ele><time>2026-04-19T07:28:33Z</time></trkpt><trkpt lat="44.88829440008634" lon="8.087822072485114"><ele>169.0</ele><time>2026-04-19T07:28:34Z</time></trkpt><trkpt lat="44.88842342597318" lon="8.08784640582626"><ele>169.0</ele><time>2026-04-19T07:28:35Z</time></trkpt><trkpt lat="44.88854813661676" lon="8.087884279303974"><ele>169.0</ele><time>2026-04-19T07:28:36Z</time></trkpt><trkpt lat="44.888640988473476" lon="8.08793837135868"><ele>171.66666666666669</ele><time>2026-04-19T07:28:37Z</time></trkpt><trkpt lat="44.88872936148767" lon="8.087982959342058"><ele>174.33333333333334</ele><time>2026-04-19T07:28:38Z</time></trkpt><trkpt lat="44.88879693211297" lon="8.087995475547542"><ele>177.0</ele><time>2026-04-19T07:28:39Z</time></trkpt><trkpt lat="44.88888125961138" lon="8.088012914330237"><ele>179.66666666666666</ele><time>2026-04-19T07:28:40Z</time></trkpt><trkpt lat="44.88897435878372" lon="8.088018333861198"><ele>182.33333333333331</ele><time>2026-04-19T07:28:41Z</time></trkpt><trkpt lat="44.88908239221169" lon="8.088004935395938"><ele>185.0</ele><time>2026-04-19T07:28:42Z</time></trkpt><trkpt lat="44.88919640408222" lon="8.088014631068395"><ele>188.8</ele><time>2026-04-19T07:28:43Z</time></trkpt><trkpt lat="44.8893111067523" lon="8.087987321118513"><ele>192.6</ele><time>2026-04-19T07:28:44Z</time></trkpt><trkpt lat="44.88942439607478" lon="8.08799646972442"><ele>196.39999999999998</ele><time>2026-04-19T07:28:45Z</time></trkpt><trkpt lat="44.88952126524645" lon="8.087990436156847"><ele>200.2</ele><time>2026-04-19T07:28:46Z</time></trkpt><trkpt lat="44.889626760602326" lon="8.088001906646491"><ele>204.0</ele><time>2026-04-19T07:28:47Z</time></trkpt><trkpt lat="44.88971707794399" lon="8.088006079636111"><ele>204.0</ele><time>2026-04-19T07:28:48Z</time></trkpt><trkpt lat="44.88981933470216" lon="8.087967860742436"><ele>204.0</ele><time>2026-04-19T07:28:49Z</time></trkpt><trkpt lat="44.88990746151454" lon="8.087936669035685"><ele>204.0</ele><time>2026-04-19T07:28:50Z</time></trkpt><trkpt lat="44.89001379919642" lon="8.087923420500122"><ele>204.0</ele><time>2026-04-19T07:28:51Z</time></trkpt><trkpt lat="44.89011707662894" lon="8.087988102710579"><ele>204.0</ele><time>2026-04-19T07:28:52Z</time></trkpt><trkpt lat="44.89021164744088" lon="8.088053247446036"><ele>207.0</ele><time>2026-04-19T07:28:53Z</time></trkpt><trkpt lat="44.89028770295144" lon="8.08806508459038"><ele>210.0</ele><time>2026-04-19T07:28:54Z</time></trkpt><trkpt lat="44.890415018821656" lon="8.088079369287449"><ele>212.99999999999997</ele><time>2026-04-19T07:28:56Z</time></trkpt><trkpt lat="44.89049912183935" lon="8.088040886524942"><ele>216.0</ele><time>2026-04-19T07:28:57Z</time></trkpt><trkpt lat="44.890577162666226" lon="8.088042777310212"><ele>219.0</ele><time>2026-04-19T07:28:58Z</time></trkpt><trkpt lat="44.89068250776912" lon="8.088059933381006"><ele>219.0</ele><time>2026-04-19T07:28:59Z</time></trkpt><trkpt lat="44.89076812019316" lon="8.088136489053651"><ele>218.99999999999997</ele><time>2026-04-19T07:29:00Z</time></trkpt><trkpt lat="44.89085666399555" lon="8.088179713198919"><ele>218.99999999999997</ele><time>2026-04-19T07:29:01Z</time></trkpt><trkpt lat="44.89092214456629" lon="8.08824869023707"><ele>219.0</ele><time>2026-04-19T07:29:02Z</time></trkpt><trkpt lat="44.890984672741915" lon="8.088330700232701"><ele>219.0</ele><time>2026-04-19T07:29:03Z</time></trkpt><trkpt lat="44.89107618283774" lon="8.08840353140733"><ele>218.2</ele><time>2026-04-19T07:29:04Z</time></trkpt><trkpt lat="44.89115923460682" lon="8.088391739536496"><ele>217.39999999999998</ele><time>2026-04-19T07:29:05Z</time></trkpt><trkpt lat="44.89129260464379" lon="8.088272750707025"><ele>216.6</ele><time>2026-04-19T07:29:07Z</time></trkpt><trkpt lat="44.8913734762174" lon="8.08830116190159"><ele>215.8</ele><time>2026-04-19T07:29:09Z</time></trkpt><trkpt lat="44.89144015234165" lon="8.088290129301557"><ele>215.0</ele><time>2026-04-19T07:29:10Z</time></trkpt><trkpt lat="44.891523102173906" lon="8.088201219921629"><ele>215.00000000000003</ele><time>2026-04-19T07:29:11Z</time></trkpt><trkpt lat="44.891564451218834" lon="8.088114634226631"><ele>215.0</ele><time>2026-04-19T07:29:12Z</time></trkpt><trkpt lat="44.891625618185095" lon="8.088055800022484"><ele>215.0</ele><time>2026-04-19T07:29:13Z</time></trkpt><trkpt lat="44.891731644769095" lon="8.088052474826736"><ele>215.0</ele><time>2026-04-19T07:29:15Z</time></trkpt><trkpt lat="44.89176131814021" lon="8.088141531770107"><ele>215.00000000000003</ele><time>2026-04-19T07:29:16Z</time></trkpt><trkpt lat="44.891753453960476" lon="8.088239227841973"><ele>215.0</ele><time>2026-04-19T07:29:17Z</time></trkpt><trkpt lat="44.891703672564695" lon="8.08831865593296"><ele>214.6</ele><time>2026-04-19T07:29:18Z</time></trkpt><trkpt lat="44.89163346201298" lon="8.088417182685369"><ele>214.2</ele><time>2026-04-19T07:29:19Z</time></trkpt><trkpt lat="44.89155702541687" lon="8.088517569582711"><ele>213.8</ele><time>2026-04-19T07:29:20Z</time></trkpt><trkpt lat="44.89150347653395" lon="8.088621662821714"><ele>213.4</ele><time>2026-04-19T07:29:21Z</time></trkpt><trkpt lat="44.89145943779151" lon="8.088717141726455"><ele>213.0</ele><time>2026-04-19T07:29:22Z</time></trkpt><trkpt lat="44.89142876047399" lon="8.088831352022607"><ele>213.0</ele><time>2026-04-19T07:29:23Z</time></trkpt><trkpt lat="44.89141312804242" lon="8.08894466476933"><ele>213.0</ele><time>2026-04-19T07:29:24Z</time></trkpt><trkpt lat="44.891385681195075" lon="8.08903869554956"><ele>213.0</ele><time>2026-04-19T07:29:25Z</time></trkpt><trkpt lat="44.891375793048965" lon="8.089134572138322"><ele>213.0</ele><time>2026-04-19T07:29:27Z</time></trkpt><trkpt lat="44.891457128152666" lon="8.089165447657482"><ele>213.0</ele><time>2026-04-19T07:29:29Z</time></trkpt><trkpt lat="44.89147613062851" lon="8.089027000282352"><ele>213.0</ele><time>2026-04-19T07:29:30Z</time></trkpt><trkpt lat="44.89152881650482" lon="8.088923498776976"><ele>213.0</ele><time>2026-04-19T07:29:31Z</time></trkpt><trkpt lat="44.89160914201538" lon="8.08887692818278"><ele>213.0</ele><time>2026-04-19T07:29:32Z</time></trkpt><trkpt lat="44.891700284011264" lon="8.088814362052517"><ele>213.0</ele><time>2026-04-19T07:29:33Z</time></trkpt><trkpt lat="44.89178532682935" lon="8.08872532725199"><ele>213.0</ele><time>2026-04-19T07:29:34Z</time></trkpt><trkpt lat="44.891859320053804" lon="8.08863972961276"><ele>213.0</ele><time>2026-04-19T07:29:35Z</time></trkpt><trkpt lat="44.8919375874924" lon="8.088557296482554"><ele>210.0</ele><time>2026-04-19T07:29:36Z</time></trkpt><trkpt lat="44.892022306637706" lon="8.088469406969207"><ele>207.0</ele><time>2026-04-19T07:29:37Z</time></trkpt><trkpt lat="44.892113201724015" lon="8.088472318927792"><ele>204.0</ele><time>2026-04-19T07:29:38Z</time></trkpt><trkpt lat="44.89220418043304" lon="8.088487244776017"><ele>201.0</ele><time>2026-04-19T07:29:39Z</time></trkpt><trkpt lat="44.89229051544475" lon="8.088496614577975"><ele>198.0</ele><time>2026-04-19T07:29:40Z</time></trkpt><trkpt lat="44.892385307060685" lon="8.088507430684173"><ele>198.0</ele><time>2026-04-19T07:29:41Z</time></trkpt><trkpt lat="44.89248287498861" lon="8.088521011358718"><ele>198.0</ele><time>2026-04-19T07:29:42Z</time></trkpt><trkpt lat="44.892574755309674" lon="8.088535573121858"><ele>198.0</ele><time>2026-04-19T07:29:43Z</time></trkpt><trkpt lat="44.8926737819696" lon="8.088554158650064"><ele>198.0</ele><time>2026-04-19T07:29:44Z</time></trkpt><trkpt lat="44.892761994166776" lon="8.08859318450422"><ele>198.0</ele><time>2026-04-19T07:29:45Z</time></trkpt><trkpt lat="44.892852429464675" lon="8.088672920139366"><ele>194.75</ele><time>2026-04-19T07:29:46Z</time></trkpt><trkpt lat="44.89292987002844" lon="8.088745595551233"><ele>191.5</ele><time>2026-04-19T07:29:47Z</time></trkpt><trkpt lat="44.893040686018544" lon="8.088840085686671"><ele>188.25</ele><time>2026-04-19T07:29:48Z</time></trkpt><trkpt lat="44.89315291312556" lon="8.088915701325998"><ele>185.0</ele><time>2026-04-19T07:29:49Z</time></trkpt><trkpt lat="44.893251857750556" lon="8.08895570916648"><ele>185.0</ele><time>2026-04-19T07:29:50Z</time></trkpt><trkpt lat="44.89335492348151" lon="8.088945377323403"><ele>185.0</ele><time>2026-04-19T07:29:51Z</time></trkpt><trkpt lat="44.89346429945766" lon="8.088890155327201"><ele>185.0</ele><time>2026-04-19T07:29:52Z</time></trkpt><trkpt lat="44.89355557887908" lon="8.08879718063881"><ele>185.0</ele><time>2026-04-19T07:29:53Z</time></trkpt><trkpt lat="44.89363314709796" lon="8.088706812585226"><ele>185.0</ele><time>2026-04-19T07:29:54Z</time></trkpt><trkpt lat="44.89370000692494" lon="8.088647650812653"><ele>181.75</ele><time>2026-04-19T07:29:55Z</time></trkpt><trkpt lat="44.893793264151434" lon="8.088616755408056"><ele>178.5</ele><time>2026-04-19T07:29:56Z</time></trkpt><trkpt lat="44.8939107754468" lon="8.088589595969639"><ele>175.25</ele><time>2026-04-19T07:29:57Z</time></trkpt><trkpt lat="44.89404676875535" lon="8.088570376142485"><ele>172.0</ele><time>2026-04-19T07:29:58Z</time></trkpt><trkpt lat="44.894158672083606" lon="8.088566736658525"><ele>172.0</ele><time>2026-04-19T07:29:59Z</time></trkpt><trkpt lat="44.89426984382172" lon="8.088585306851726"><ele>172.0</ele><time>2026-04-19T07:30:00Z</time></trkpt><trkpt lat="44.894350722505344" lon="8.088626007337828"><ele>172.0</ele><time>2026-04-19T07:30:01Z</time></trkpt><trkpt lat="44.89441735459488" lon="8.088693127665511"><ele>172.0</ele><time>2026-04-19T07:30:02Z</time></trkpt><trkpt lat="44.894495632913824" lon="8.088734508125674"><ele>172.0</ele><time>2026-04-19T07:30:03Z</time></trkpt><trkpt lat="44.89457626830564" lon="8.088631506930284"><ele>172.0</ele><time>2026-04-19T07:30:04Z</time></trkpt><trkpt lat="44.894664965584276" lon="8.088556557944203"><ele>172.0</ele><time>2026-04-19T07:30:05Z</time></trkpt><trkpt lat="44.89474554305451" lon="8.088480125491326"><ele>172.0</ele><time>2026-04-19T07:30:06Z</time></trkpt><trkpt lat="44.89483418610302" lon="8.088426630140573"><ele>172.0</ele><time>2026-04-19T07:30:07Z</time></trkpt><trkpt lat="44.89492861516156" lon="8.088389977727402"><ele>172.0</ele><time>2026-04-19T07:30:08Z</time></trkpt><trkpt lat="44.8949962578661" lon="8.088376240181699"><ele>172.8</ele><time>2026-04-19T07:30:09Z</time></trkpt><trkpt lat="44.89509918615393" lon="8.08836999761874"><ele>173.6</ele><time>2026-04-19T07:30:11Z</time></trkpt><trkpt lat="44.895206584182354" lon="8.088250226488524"><ele>174.4</ele><time>2026-04-19T07:30:13Z</time></trkpt><trkpt lat="44.89525927098558" lon="8.088176504944993"><ele>175.20000000000002</ele><time>2026-04-19T07:30:14Z</time></trkpt><trkpt lat="44.89530914929045" lon="8.088091861940773"><ele>176.0</ele><time>2026-04-19T07:30:15Z</time></trkpt><trkpt lat="44.89535253131078" lon="8.088012985776526"><ele>176.0</ele><time>2026-04-19T07:30:16Z</time></trkpt><trkpt lat="44.895400229619796" lon="8.087923358238761"><ele>176.0</ele><time>2026-04-19T07:30:17Z</time></trkpt><trkpt lat="44.89544510032634" lon="8.08782697931116"><ele>176.0</ele><time>2026-04-19T07:30:18Z</time></trkpt><trkpt lat="44.895497251429056" lon="8.087724723517516"><ele>176.0</ele><time>2026-04-19T07:30:19Z</time></trkpt><trkpt lat="44.89554315699684" lon="8.087604846087341"><ele>176.0</ele><time>2026-04-19T07:30:20Z</time></trkpt><trkpt lat="44.895589191485485" lon="8.087468773615475"><ele>176.0</ele><time>2026-04-19T07:30:21Z</time></trkpt><trkpt lat="44.89564370376765" lon="8.087322606777267"><ele>176.0</ele><time>2026-04-19T07:30:22Z</time></trkpt><trkpt lat="44.89569640483413" lon="8.087147673441532"><ele>176.0</ele><time>2026-04-19T07:30:23Z</time></trkpt><trkpt lat="44.8956535192712" lon="8.086977230266069"><ele>176.0</ele><time>2026-04-19T07:30:24Z</time></trkpt><trkpt lat="44.89566039897652" lon="8.086798957742861"><ele>176.0</ele><time>2026-04-19T07:30:25Z</time></trkpt><trkpt lat="44.89567128533415" lon="8.08663795485771"><ele>176.0</ele><time>2026-04-19T07:30:26Z</time></trkpt><trkpt lat="44.89608402074461" lon="8.086400827448081"><ele>178.5</ele><time>2026-04-19T07:30:28Z</time></trkpt><trkpt lat="44.896144416475344" lon="8.086253877112854"><ele>181.0</ele><time>2026-04-19T07:30:29Z</time></trkpt><trkpt lat="44.89621141326614" lon="8.086112690888202"><ele>183.5</ele><time>2026-04-19T07:30:30Z</time></trkpt><trkpt lat="44.896257604795515" lon="8.085973311311799"><ele>186.0</ele><time>2026-04-19T07:30:31Z</time></trkpt><trkpt lat="44.89630129679978" lon="8.085840137817573"><ele>186.25</ele><time>2026-04-19T07:30:32Z</time></trkpt><trkpt lat="44.896337485675055" lon="8.085715272879884"><ele>186.5</ele><time>2026-04-19T07:30:33Z</time></trkpt><trkpt lat="44.89634565208965" lon="8.085545553433237"><ele>186.75</ele><time>2026-04-19T07:30:34Z</time></trkpt><trkpt lat="44.8963544429919" lon="8.085380670871633"><ele>187.0</ele><time>2026-04-19T07:30:35Z</time></trkpt><trkpt lat="44.896305605986605" lon="8.085193610948215"><ele>187.0</ele><time>2026-04-19T07:30:36Z</time></trkpt><trkpt lat="44.89629637555557" lon="8.085029896390585"><ele>187.0</ele><time>2026-04-19T07:30:37Z</time></trkpt><trkpt lat="44.89628747508692" lon="8.084873789130048"><ele>187.0</ele><time>2026-04-19T07:30:38Z</time></trkpt><trkpt lat="44.89627287170943" lon="8.084748880380683"><ele>187.0</ele><time>2026-04-19T07:30:39Z</time></trkpt><trkpt lat="44.8962496985571" lon="8.084602227850612"><ele>187.0</ele><time>2026-04-19T07:30:40Z</time></trkpt><trkpt lat="44.89623700508656" lon="8.084459233757658"><ele>186.5</ele><time>2026-04-19T07:30:41Z</time></trkpt><trkpt lat="44.89622662576793" lon="8.084324655259405"><ele>186.0</ele><time>2026-04-19T07:30:42Z</time></trkpt><trkpt lat="44.89622574638714" lon="8.084195340315503"><ele>185.5</ele><time>2026-04-19T07:30:43Z</time></trkpt><trkpt lat="44.896235780456145" lon="8.084087893319879"><ele>185.0</ele><time>2026-04-19T07:30:44Z</time></trkpt><trkpt lat="44.8962444899583" lon="8.083997794092763"><ele>184.5</ele><time>2026-04-19T07:30:45Z</time></trkpt><trkpt lat="44.89628835158584" lon="8.083852286040802"><ele>184.0</ele><time>2026-04-19T07:30:47Z</time></trkpt><trkpt lat="44.89638141091191" lon="8.083734806385618"><ele>184.0</ele><time>2026-04-19T07:30:49Z</time></trkpt><trkpt lat="44.89647940894265" lon="8.083633566663675"><ele>184.0</ele><time>2026-04-19T07:30:51Z</time></trkpt><trkpt lat="44.89652472562354" lon="8.083567472842486"><ele>184.0</ele><time>2026-04-19T07:30:52Z</time></trkpt><trkpt lat="44.896628072491765" lon="8.08354779177395"><ele>184.0</ele><time>2026-04-19T07:30:54Z</time></trkpt><trkpt lat="44.896711022826196" lon="8.083571273343853"><ele>184.0</ele><time>2026-04-19T07:30:55Z</time></trkpt><trkpt lat="44.896797883483096" lon="8.08364710992148"><ele>180.33333333333334</ele><time>2026-04-19T07:30:56Z</time></trkpt><trkpt lat="44.89688789903401" lon="8.083666847833857"><ele>176.66666666666669</ele><time>2026-04-19T07:30:57Z</time></trkpt><trkpt lat="44.89698630639937" lon="8.083695528517303"><ele>173.0</ele><time>2026-04-19T07:30:58Z</time></trkpt><trkpt lat="44.897081771911814" lon="8.083733208855135"><ele>169.33333333333334</ele><time>2026-04-19T07:30:59Z</time></trkpt><trkpt lat="44.89716281420774" lon="8.083771532643693"><ele>165.66666666666666</ele><time>2026-04-19T07:31:00Z</time></trkpt><trkpt lat="44.8972211656214" lon="8.083833116247812"><ele>162.0</ele><time>2026-04-19T07:31:01Z</time></trkpt><trkpt lat="44.89727669315516" lon="8.083894757367187"><ele>162.0</ele><time>2026-04-19T07:31:02Z</time></trkpt><trkpt lat="44.897355343045724" lon="8.083959340431168"><ele>162.0</ele><time>2026-04-19T07:31:03Z</time></trkpt><trkpt lat="44.89743622795415" lon="8.084001226161607"><ele>162.0</ele><time>2026-04-19T07:31:04Z</time></trkpt><trkpt lat="44.897512376657986" lon="8.084046071633301"><ele>162.0</ele><time>2026-04-19T07:31:05Z</time></trkpt><trkpt lat="44.89758398140985" lon="8.084091427302353"><ele>162.0</ele><time>2026-04-19T07:31:06Z</time></trkpt><trkpt lat="44.897654951391374" lon="8.084174448489769"><ele>162.0</ele><time>2026-04-19T07:31:07Z</time></trkpt><trkpt lat="44.89771061829512" lon="8.084270205885545"><ele>160.33333333333334</ele><time>2026-04-19T07:31:08Z</time></trkpt><trkpt lat="44.897752616984945" lon="8.0843787793749"><ele>158.66666666666666</ele><time>2026-04-19T07:31:09Z</time></trkpt><trkpt lat="44.897786259116856" lon="8.084521643069328"><ele>157.0</ele><time>2026-04-19T07:31:10Z</time></trkpt><trkpt lat="44.89784767882929" lon="8.084608307865674"><ele>155.33333333333331</ele><time>2026-04-19T07:31:11Z</time></trkpt><trkpt lat="44.8978969534555" lon="8.084689012457359"><ele>153.66666666666666</ele><time>2026-04-19T07:31:12Z</time></trkpt><trkpt lat="44.89797317841659" lon="8.084711694773864"><ele>152.0</ele><time>2026-04-19T07:31:13Z</time></trkpt><trkpt lat="44.89806380860535" lon="8.084783086646299"><ele>152.0</ele><time>2026-04-19T07:31:15Z</time></trkpt><trkpt lat="44.89818056352648" lon="8.084666439847428"><ele>152.0</ele><time>2026-04-19T07:31:18Z</time></trkpt><trkpt lat="44.898241193956665" lon="8.084591943145405"><ele>152.0</ele><time>2026-04-19T07:31:19Z</time></trkpt><trkpt lat="44.898315669880326" lon="8.084513741706656"><ele>152.0</ele><time>2026-04-19T07:31:20Z</time></trkpt><trkpt lat="44.898429431636686" lon="8.084455939073202"><ele>152.0</ele><time>2026-04-19T07:31:21Z</time></trkpt><trkpt lat="44.898536891232325" lon="8.084383146807937"><ele>151.0</ele><time>2026-04-19T07:31:22Z</time></trkpt><trkpt lat="44.89865431767111" lon="8.084274164485027"><ele>150.0</ele><time>2026-04-19T07:31:23Z</time></trkpt><trkpt lat="44.898783853607135" lon="8.084160779436095"><ele>149.0</ele><time>2026-04-19T07:31:24Z</time></trkpt><trkpt lat="44.89888681626387" lon="8.08406117485603"><ele>148.0</ele><time>2026-04-19T07:31:25Z</time></trkpt><trkpt lat="44.898964613039865" lon="8.083982538628847"><ele>148.0</ele><time>2026-04-19T07:31:26Z</time></trkpt><trkpt lat="44.89899752579673" lon="8.083896475499131"><ele>148.0</ele><time>2026-04-19T07:31:27Z</time></trkpt><trkpt lat="44.89897279745112" lon="8.083779131880814"><ele>148.0</ele><time>2026-04-19T07:31:28Z</time></trkpt><trkpt lat="44.89895079544084" lon="8.08364103721672"><ele>148.0</ele><time>2026-04-19T07:31:29Z</time></trkpt><trkpt lat="44.89892578755243" lon="8.083502710344328"><ele>148.0</ele><time>2026-04-19T07:31:30Z</time></trkpt><trkpt lat="44.89889465017698" lon="8.083335896778859"><ele>147.75</ele><time>2026-04-19T07:31:31Z</time></trkpt><trkpt lat="44.89884894575298" lon="8.083152292274812"><ele>147.5</ele><time>2026-04-19T07:31:32Z</time></trkpt><trkpt lat="44.89880538137704" lon="8.082963078817327"><ele>147.25</ele><time>2026-04-19T07:31:33Z</time></trkpt><trkpt lat="44.89876729872754" lon="8.08277341408055"><ele>147.0</ele><time>2026-04-19T07:31:34Z</time></trkpt><trkpt lat="44.89871994879163" lon="8.08261150870001"><ele>147.0</ele><time>2026-04-19T07:31:35Z</time></trkpt><trkpt lat="44.89865842875131" lon="8.08245293469305"><ele>147.0</ele><time>2026-04-19T07:31:36Z</time></trkpt><trkpt lat="44.89859531637418" lon="8.08229924328037"><ele>147.0</ele><time>2026-04-19T07:31:37Z</time></trkpt><trkpt lat="44.898521369896656" lon="8.082175154254905"><ele>147.0</ele><time>2026-04-19T07:31:38Z</time></trkpt><trkpt lat="44.89846477358581" lon="8.082104257172805"><ele>147.0</ele><time>2026-04-19T07:31:39Z</time></trkpt><trkpt lat="44.898394021928794" lon="8.082069956375971"><ele>147.2</ele><time>2026-04-19T07:31:40Z</time></trkpt><trkpt lat="44.8982866591787" lon="8.082087493382579"><ele>147.39999999999998</ele><time>2026-04-19T07:31:41Z</time></trkpt><trkpt lat="44.898171054867575" lon="8.082101494817826"><ele>147.60000000000002</ele><time>2026-04-19T07:31:42Z</time></trkpt><trkpt lat="44.89806982454841" lon="8.082035598127728"><ele>147.8</ele><time>2026-04-19T07:31:43Z</time></trkpt><trkpt lat="44.89800838744792" lon="8.081943191640164"><ele>148.0</ele><time>2026-04-19T07:31:44Z</time></trkpt><trkpt lat="44.89796405633124" lon="8.08179644071572"><ele>148.0</ele><time>2026-04-19T07:31:45Z</time></trkpt><trkpt lat="44.89793236915349" lon="8.0816180007123"><ele>148.0</ele><time>2026-04-19T07:31:46Z</time></trkpt><trkpt lat="44.89790013911935" lon="8.081448559460997"><ele>148.0</ele><time>2026-04-19T07:31:47Z</time></trkpt><trkpt lat="44.89787297519349" lon="8.081299348273172"><ele>148.0</ele><time>2026-04-19T07:31:48Z</time></trkpt><trkpt lat="44.89783454556267" lon="8.081176592573897"><ele>148.0</ele><time>2026-04-19T07:31:49Z</time></trkpt><trkpt lat="44.897809114756654" lon="8.081017353624173"><ele>148.0</ele><time>2026-04-19T07:31:50Z</time></trkpt><trkpt lat="44.89780057924369" lon="8.080845216781533"><ele>148.0</ele><time>2026-04-19T07:31:51Z</time></trkpt><trkpt lat="44.897777317434766" lon="8.080663297768218"><ele>148.0</ele><time>2026-04-19T07:31:52Z</time></trkpt><trkpt lat="44.89777051248696" lon="8.080469370825119"><ele>148.5</ele><time>2026-04-19T07:31:53Z</time></trkpt><trkpt lat="44.897759558431154" lon="8.080295463671009"><ele>149.0</ele><time>2026-04-19T07:31:54Z</time></trkpt><trkpt lat="44.897745772805926" lon="8.080137851063924"><ele>149.5</ele><time>2026-04-19T07:31:55Z</time></trkpt><trkpt lat="44.89772549637624" lon="8.079991776012308"><ele>150.0</ele><time>2026-04-19T07:31:56Z</time></trkpt><trkpt lat="44.89771390533764" lon="8.079830719567624"><ele>150.0</ele><time>2026-04-19T07:31:57Z</time></trkpt><trkpt lat="44.89768776926424" lon="8.07966947696878"><ele>150.0</ele><time>2026-04-19T07:31:58Z</time></trkpt><trkpt lat="44.897703488643785" lon="8.079505798728484"><ele>150.0</ele><time>2026-04-19T07:31:59Z</time></trkpt><trkpt lat="44.89773398845292" lon="8.079354083981153"><ele>150.0</ele><time>2026-04-19T07:32:00Z</time></trkpt><trkpt lat="44.897778006701216" lon="8.079205197116902"><ele>150.2</ele><time>2026-04-19T07:32:01Z</time></trkpt><trkpt lat="44.89781922089025" lon="8.079062219872668"><ele>150.4</ele><time>2026-04-19T07:32:02Z</time></trkpt><trkpt lat="44.897835034027416" lon="8.078901201120802"><ele>150.6</ele><time>2026-04-19T07:32:03Z</time></trkpt><trkpt lat="44.897850672380635" lon="8.078742242934647"><ele>150.8</ele><time>2026-04-19T07:32:04Z</time></trkpt><trkpt lat="44.89787478852719" lon="8.078593061018049"><ele>151.0</ele><time>2026-04-19T07:32:05Z</time></trkpt><trkpt lat="44.89791135707609" lon="8.078393776585374"><ele>151.0</ele><time>2026-04-19T07:32:06Z</time></trkpt><trkpt lat="44.897941499347006" lon="8.07822142369523"><ele>151.0</ele><time>2026-04-19T07:32:07Z</time></trkpt><trkpt lat="44.8979864948688" lon="8.078058685782665"><ele>151.0</ele><time>2026-04-19T07:32:08Z</time></trkpt><trkpt lat="44.89802494014853" lon="8.07789275261021"><ele>151.0</ele><time>2026-04-19T07:32:09Z</time></trkpt><trkpt lat="44.898050033469474" lon="8.077728034227146"><ele>151.0</ele><time>2026-04-19T07:32:10Z</time></trkpt><trkpt lat="44.89805063437911" lon="8.077563538007862"><ele>151.0</ele><time>2026-04-19T07:32:11Z</time></trkpt><trkpt lat="44.89804032452986" lon="8.077385033262255"><ele>151.0</ele><time>2026-04-19T07:32:12Z</time></trkpt><trkpt lat="44.89802454176024" lon="8.077209564214265"><ele>151.0</ele><time>2026-04-19T07:32:13Z</time></trkpt><trkpt lat="44.89800744148209" lon="8.077042826370246"><ele>151.0</ele><time>2026-04-19T07:32:14Z</time></trkpt><trkpt lat="44.89799646585083" lon="8.076876859220716"><ele>151.0</ele><time>2026-04-19T07:32:15Z</time></trkpt><trkpt lat="44.897983802827184" lon="8.076705352142127"><ele>151.0</ele><time>2026-04-19T07:32:16Z</time></trkpt><trkpt lat="44.897978937594004" lon="8.076514227129516"><ele>151.0</ele><time>2026-04-19T07:32:17Z</time></trkpt><trkpt lat="44.89797479391435" lon="8.076326863173778"><ele>151.0</ele><time>2026-04-19T07:32:18Z</time></trkpt><trkpt lat="44.89796949483634" lon="8.076138365940762"><ele>151.0</ele><time>2026-04-19T07:32:19Z</time></trkpt><trkpt lat="44.89797412680547" lon="8.075957832928193"><ele>151.0</ele><time>2026-04-19T07:32:20Z</time></trkpt><trkpt lat="44.897996897482116" lon="8.075784646618015"><ele>151.0</ele><time>2026-04-19T07:32:21Z</time></trkpt><trkpt lat="44.898045747713674" lon="8.07561069687983"><ele>151.0</ele><time>2026-04-19T07:32:22Z</time></trkpt><trkpt lat="44.8980701949433" lon="8.075472014793187"><ele>151.0</ele><time>2026-04-19T07:32:23Z</time></trkpt><trkpt lat="44.89806676826451" lon="8.075358642240444"><ele>151.0</ele><time>2026-04-19T07:32:24Z</time></trkpt><trkpt lat="44.898018311367764" lon="8.075249273699413"><ele>151.0</ele><time>2026-04-19T07:32:25Z</time></trkpt><trkpt lat="44.897930599673586" lon="8.075179107640817"><ele>151.0</ele><time>2026-04-19T07:32:26Z</time></trkpt><trkpt lat="44.897819876252214" lon="8.07510668534356"><ele>151.0</ele><time>2026-04-19T07:32:27Z</time></trkpt><trkpt lat="44.8977049137142" lon="8.075037086873555"><ele>151.0</ele><time>2026-04-19T07:32:28Z</time></trkpt><trkpt lat="44.89759185220354" lon="8.074966109748104"><ele>151.0</ele><time>2026-04-19T07:32:29Z</time></trkpt><trkpt lat="44.89748202516966" lon="8.074888289789431"><ele>151.0</ele><time>2026-04-19T07:32:30Z</time></trkpt><trkpt lat="44.89738327188738" lon="8.074817118707092"><ele>152.0</ele><time>2026-04-19T07:32:31Z</time></trkpt><trkpt lat="44.89731847530164" lon="8.074766070898876"><ele>153.0</ele><time>2026-04-19T07:32:32Z</time></trkpt><trkpt lat="44.89728356230204" lon="8.07469013361651"><ele>154.0</ele><time>2026-04-19T07:32:33Z</time></trkpt><trkpt lat="44.897273669242075" lon="8.074592108162093"><ele>155.0</ele><time>2026-04-19T07:32:34Z</time></trkpt><trkpt lat="44.897286917247996" lon="8.074463391001983"><ele>156.0</ele><time>2026-04-19T07:32:35Z</time></trkpt><trkpt lat="44.89731402896415" lon="8.07431053827663"><ele>157.0</ele><time>2026-04-19T07:32:36Z</time></trkpt><trkpt lat="44.897344452287136" lon="8.07414868809725"><ele>156.66666666666669</ele><time>2026-04-19T07:32:37Z</time></trkpt><trkpt lat="44.89735624083952" lon="8.073949749518707"><ele>156.33333333333334</ele><time>2026-04-19T07:32:38Z</time></trkpt><trkpt lat="44.89736718660241" lon="8.073723940765804"><ele>156.0</ele><time>2026-04-19T07:32:39Z</time></trkpt><trkpt lat="44.89738104692016" lon="8.073499385548491"><ele>156.0</ele><time>2026-04-19T07:32:40Z</time></trkpt><trkpt lat="44.897403912923885" lon="8.073320730809796"><ele>156.0</ele><time>2026-04-19T07:32:41Z</time></trkpt><trkpt lat="44.89742407882619" lon="8.073150510109317"><ele>156.0</ele><time>2026-04-19T07:32:42Z</time></trkpt><trkpt lat="44.897441169326775" lon="8.072976862044959"><ele>156.0</ele><time>2026-04-19T07:32:43Z</time></trkpt><trkpt lat="44.89747896250561" lon="8.072799136640368"><ele>157.75</ele><time>2026-04-19T07:32:44Z</time></trkpt><trkpt lat="44.897533626816006" lon="8.07263039517185"><ele>159.5</ele><time>2026-04-19T07:32:45Z</time></trkpt><trkpt lat="44.89758022909087" lon="8.07247523029983"><ele>161.25</ele><time>2026-04-19T07:32:46Z</time></trkpt><trkpt lat="44.89763657341817" lon="8.072355134976924"><ele>163.0</ele><time>2026-04-19T07:32:47Z</time></trkpt><trkpt lat="44.89772641752842" lon="8.072235989965307"><ele>159.25</ele><time>2026-04-19T07:32:48Z</time></trkpt><trkpt lat="44.89780684794406" lon="8.072123375712552"><ele>155.5</ele><time>2026-04-19T07:32:49Z</time></trkpt><trkpt lat="44.897888278419835" lon="8.071993250687061"><ele>151.75</ele><time>2026-04-19T07:32:50Z</time></trkpt><trkpt lat="44.89796588982477" lon="8.071849775126694"><ele>148.0</ele><time>2026-04-19T07:32:51Z</time></trkpt><trkpt lat="44.89801522690855" lon="8.071703353035824"><ele>148.4</ele><time>2026-04-19T07:32:52Z</time></trkpt><trkpt lat="44.89806009142122" lon="8.071559519538047"><ele>148.8</ele><time>2026-04-19T07:32:53Z</time></trkpt><trkpt lat="44.898096898375314" lon="8.071417454293584"><ele>149.2</ele><time>2026-04-19T07:32:54Z</time></trkpt><trkpt lat="44.89812363548055" lon="8.071256910076382"><ele>149.6</ele><time>2026-04-19T07:32:55Z</time></trkpt><trkpt lat="44.8981228841334" lon="8.071121761162852"><ele>150.0</ele><time>2026-04-19T07:32:56Z</time></trkpt><trkpt lat="44.8981166457225" lon="8.070969278789969"><ele>150.0</ele><time>2026-04-19T07:32:57Z</time></trkpt><trkpt lat="44.8980933185119" lon="8.070806396449319"><ele>150.0</ele><time>2026-04-19T07:32:58Z</time></trkpt><trkpt lat="44.898076141651586" lon="8.070650234483915"><ele>150.0</ele><time>2026-04-19T07:32:59Z</time></trkpt><trkpt lat="44.89803643201781" lon="8.070491551328468"><ele>150.0</ele><time>2026-04-19T07:33:00Z</time></trkpt><trkpt lat="44.89799769542383" lon="8.070332205319984"><ele>149.75</ele><time>2026-04-19T07:33:01Z</time></trkpt><trkpt lat="44.897965306700115" lon="8.070166068287579"><ele>149.5</ele><time>2026-04-19T07:33:02Z</time></trkpt><trkpt lat="44.89792490456516" lon="8.07000197658505"><ele>149.25</ele><time>2026-04-19T07:33:03Z</time></trkpt><trkpt lat="44.897887064983706" lon="8.06984235903728"><ele>149.0</ele><time>2026-04-19T07:33:04Z</time></trkpt><trkpt lat="44.897865927699435" lon="8.06967828597299"><ele>149.75</ele><time>2026-04-19T07:33:05Z</time></trkpt><trkpt lat="44.897842408077956" lon="8.069521206625009"><ele>150.5</ele><time>2026-04-19T07:33:06Z</time></trkpt><trkpt lat="44.89781000678976" lon="8.069352276980322"><ele>151.25</ele><time>2026-04-19T07:33:07Z</time></trkpt><trkpt lat="44.89777402420275" lon="8.0691924908724"><ele>152.0</ele><time>2026-04-19T07:33:08Z</time></trkpt><trkpt lat="44.897757416785325" lon="8.069020813250638"><ele>152.2</ele><time>2026-04-19T07:33:09Z</time></trkpt><trkpt lat="44.897711245412644" lon="8.068872476551409"><ele>152.39999999999998</ele><time>2026-04-19T07:33:10Z</time></trkpt><trkpt lat="44.897680499720416" lon="8.068710637343495"><ele>152.60000000000002</ele><time>2026-04-19T07:33:11Z</time></trkpt><trkpt lat="44.89764143282459" lon="8.068562345706294"><ele>152.8</ele><time>2026-04-19T07:33:12Z</time></trkpt><trkpt lat="44.8976197825628" lon="8.068435872329962"><ele>153.0</ele><time>2026-04-19T07:33:13Z</time></trkpt><trkpt lat="44.89760222877866" lon="8.068322729247916"><ele>153.8</ele><time>2026-04-19T07:33:14Z</time></trkpt><trkpt lat="44.89757435955657" lon="8.06822816418309"><ele>154.60000000000002</ele><time>2026-04-19T07:33:15Z</time></trkpt><trkpt lat="44.897454634581145" lon="8.068219017621345"><ele>155.39999999999998</ele><time>2026-04-19T07:33:18Z</time></trkpt><trkpt lat="44.897370126771094" lon="8.068244580219632"><ele>156.2</ele><time>2026-04-19T07:33:19Z</time></trkpt><trkpt lat="44.89729172677431" lon="8.068288221288586"><ele>157.0</ele><time>2026-04-19T07:33:20Z</time></trkpt><trkpt lat="44.89718617272465" lon="8.068315825583236"><ele>157.0</ele><time>2026-04-19T07:33:21Z</time></trkpt><trkpt lat="44.89708154879722" lon="8.068322515685608"><ele>157.0</ele><time>2026-04-19T07:33:22Z</time></trkpt><trkpt lat="44.896981222466316" lon="8.068315404574241"><ele>157.0</ele><time>2026-04-19T07:33:23Z</time></trkpt><trkpt lat="44.896892762860965" lon="8.068285488959615"><ele>157.0</ele><time>2026-04-19T07:33:24Z</time></trkpt><trkpt lat="44.896821887925846" lon="8.068215357878122"><ele>157.0</ele><time>2026-04-19T07:33:25Z</time></trkpt><trkpt lat="44.896764490982115" lon="8.06815647309061"><ele>162.39999999999998</ele><time>2026-04-19T07:33:26Z</time></trkpt><trkpt lat="44.89670671682641" lon="8.067990439270645"><ele>167.79999999999998</ele><time>2026-04-19T07:33:28Z</time></trkpt><trkpt lat="44.896678634980056" lon="8.067888906028266"><ele>173.2</ele><time>2026-04-19T07:33:29Z</time></trkpt><trkpt lat="44.896674666656224" lon="8.067714991075986"><ele>178.6</ele><time>2026-04-19T07:33:30Z</time></trkpt><trkpt lat="44.89666414589022" lon="8.067584547603955"><ele>184.0</ele><time>2026-04-19T07:33:31Z</time></trkpt><trkpt lat="44.89669814153497" lon="8.06743417144263"><ele>184.6</ele><time>2026-04-19T07:33:32Z</time></trkpt><trkpt lat="44.89673989002071" lon="8.067287377040591"><ele>185.2</ele><time>2026-04-19T07:33:33Z</time></trkpt><trkpt lat="44.896761726247554" lon="8.067121987117137"><ele>185.79999999999998</ele><time>2026-04-19T07:33:34Z</time></trkpt><trkpt lat="44.89677135452405" lon="8.067009330716749"><ele>186.39999999999998</ele><time>2026-04-19T07:33:35Z</time></trkpt><trkpt lat="44.89673768299182" lon="8.06689055313892"><ele>187.0</ele><time>2026-04-19T07:33:36Z</time></trkpt><trkpt lat="44.89670364387603" lon="8.066753488767096"><ele>187.0</ele><time>2026-04-19T07:33:37Z</time></trkpt><trkpt lat="44.89668301502534" lon="8.066628905824128"><ele>187.0</ele><time>2026-04-19T07:33:38Z</time></trkpt><trkpt lat="44.89665503765021" lon="8.06650331068923"><ele>187.0</ele><time>2026-04-19T07:33:39Z</time></trkpt><trkpt lat="44.89662366934376" lon="8.066379349654369"><ele>187.0</ele><time>2026-04-19T07:33:40Z</time></trkpt><trkpt lat="44.896580714263415" lon="8.066290194316263"><ele>187.0</ele><time>2026-04-19T07:33:41Z</time></trkpt><trkpt lat="44.8965226656094" lon="8.06624792446102"><ele>187.0</ele><time>2026-04-19T07:33:42Z</time></trkpt><trkpt lat="44.896449419771656" lon="8.066375663481708"><ele>187.0</ele><time>2026-04-19T07:33:44Z</time></trkpt><trkpt lat="44.896416398960625" lon="8.066461195869783"><ele>187.0</ele><time>2026-04-19T07:33:45Z</time></trkpt><trkpt lat="44.89639632997728" lon="8.066574477310661"><ele>187.0</ele><time>2026-04-19T07:33:46Z</time></trkpt><trkpt lat="44.89637728277554" lon="8.06667690320115"><ele>187.0</ele><time>2026-04-19T07:33:47Z</time></trkpt><trkpt lat="44.89635139407826" lon="8.06679593617426"><ele>187.0</ele><time>2026-04-19T07:33:48Z</time></trkpt><trkpt lat="44.896340622975" lon="8.066907676573578"><ele>187.0</ele><time>2026-04-19T07:33:49Z</time></trkpt><trkpt lat="44.89632034274307" lon="8.067019676695018"><ele>187.0</ele><time>2026-04-19T07:33:50Z</time></trkpt><trkpt lat="44.896290730766395" lon="8.067101454024725"><ele>187.0</ele><time>2026-04-19T07:33:51Z</time></trkpt><trkpt lat="44.89623847729408" lon="8.067207701712636"><ele>187.0</ele><time>2026-04-19T07:33:52Z</time></trkpt><trkpt lat="44.896175737387274" lon="8.067300967327332"><ele>187.0</ele><time>2026-04-19T07:33:53Z</time></trkpt><trkpt lat="44.896102092119484" lon="8.067382078386625"><ele>187.0</ele><time>2026-04-19T07:33:54Z</time></trkpt><trkpt lat="44.89600786355737" lon="8.067429020196684"><ele>187.0</ele><time>2026-04-19T07:33:55Z</time></trkpt><trkpt lat="44.895903529106135" lon="8.067462422503922"><ele>190.8</ele><time>2026-04-19T07:33:56Z</time></trkpt><trkpt lat="44.89578404980606" lon="8.067460157005973"><ele>194.6</ele><time>2026-04-19T07:33:57Z</time></trkpt><trkpt lat="44.8956723338641" lon="8.067481624613613"><ele>198.4</ele><time>2026-04-19T07:33:58Z</time></trkpt><trkpt lat="44.89557020072269" lon="8.067519609142707"><ele>202.20000000000002</ele><time>2026-04-19T07:33:59Z</time></trkpt><trkpt lat="44.89548102105406" lon="8.067563761644456"><ele>206.0</ele><time>2026-04-19T07:34:00Z</time></trkpt><trkpt lat="44.8953653759173" lon="8.067683266805725"><ele>206.0</ele><time>2026-04-19T07:34:02Z</time></trkpt><trkpt lat="44.89530660551815" lon="8.067754453321786"><ele>206.0</ele><time>2026-04-19T07:34:03Z</time></trkpt><trkpt lat="44.89523822973334" lon="8.067859054111228"><ele>206.0</ele><time>2026-04-19T07:34:04Z</time></trkpt><trkpt lat="44.895129161114106" lon="8.0680474863798"><ele>206.0</ele><time>2026-04-19T07:34:06Z</time></trkpt><trkpt lat="44.89507171411817" lon="8.068170112267296"><ele>207.60000000000002</ele><time>2026-04-19T07:34:07Z</time></trkpt><trkpt lat="44.89503606278626" lon="8.06830793492607"><ele>209.2</ele><time>2026-04-19T07:34:08Z</time></trkpt><trkpt lat="44.89498339443992" lon="8.06841252862891"><ele>210.79999999999998</ele><time>2026-04-19T07:34:09Z</time></trkpt><trkpt lat="44.89493058631496" lon="8.068530845417037"><ele>212.39999999999998</ele><time>2026-04-19T07:34:10Z</time></trkpt><trkpt lat="44.89487240632506" lon="8.068640209378088"><ele>214.0</ele><time>2026-04-19T07:34:11Z</time></trkpt><trkpt lat="44.894813223091575" lon="8.068720850806432"><ele>214.0</ele><time>2026-04-19T07:34:12Z</time></trkpt><trkpt lat="44.89471776956486" lon="8.068772825069098"><ele>213.99999999999997</ele><time>2026-04-19T07:34:13Z</time></trkpt><trkpt lat="44.89461856753387" lon="8.068797639279119"><ele>213.99999999999997</ele><time>2026-04-19T07:34:14Z</time></trkpt><trkpt lat="44.89452406442445" lon="8.068834618233337"><ele>214.0</ele><time>2026-04-19T07:34:15Z</time></trkpt><trkpt lat="44.89441666225829" lon="8.068893240394752"><ele>214.0</ele><time>2026-04-19T07:34:16Z</time></trkpt><trkpt lat="44.894329703442594" lon="8.068944573129201"><ele>214.0</ele><time>2026-04-19T07:34:17Z</time></trkpt><trkpt lat="44.89424025293026" lon="8.06900078891505"><ele>213.99999999999997</ele><time>2026-04-19T07:34:18Z</time></trkpt><trkpt lat="44.89416542770993" lon="8.068987021053747"><ele>213.99999999999997</ele><time>2026-04-19T07:34:20Z</time></trkpt><trkpt lat="44.89412605018522" lon="8.06882701464355"><ele>214.0</ele><time>2026-04-19T07:34:22Z</time></trkpt><trkpt lat="44.89407048201409" lon="8.068723748389674"><ele>214.0</ele><time>2026-04-19T07:34:23Z</time></trkpt><trkpt lat="44.89398869206953" lon="8.06860834586392"><ele>214.0</ele><time>2026-04-19T07:34:24Z</time></trkpt><trkpt lat="44.89390301223812" lon="8.068475586454964"><ele>213.99999999999997</ele><time>2026-04-19T07:34:25Z</time></trkpt><trkpt lat="44.893852987220626" lon="8.068344566170918"><ele>213.99999999999997</ele><time>2026-04-19T07:34:26Z</time></trkpt><trkpt lat="44.8938598256475" lon="8.068201758977464"><ele>214.0</ele><time>2026-04-19T07:34:27Z</time></trkpt><trkpt lat="44.8938458624927" lon="8.068053117751191"><ele>214.0</ele><time>2026-04-19T07:34:28Z</time></trkpt><trkpt lat="44.89382240528577" lon="8.06787483922019"><ele>213.2</ele><time>2026-04-19T07:34:29Z</time></trkpt><trkpt lat="44.89378673951881" lon="8.067711503231763"><ele>212.39999999999998</ele><time>2026-04-19T07:34:30Z</time></trkpt><trkpt lat="44.89374689951801" lon="8.067538748401287"><ele>211.6</ele><time>2026-04-19T07:34:31Z</time></trkpt><trkpt lat="44.8937124914213" lon="8.067395117129145"><ele>210.8</ele><time>2026-04-19T07:34:32Z</time></trkpt><trkpt lat="44.89367724358359" lon="8.067301650920093"><ele>210.0</ele><time>2026-04-19T07:34:33Z</time></trkpt><trkpt lat="44.8936336404985" lon="8.067163290424745"><ele>210.0</ele><time>2026-04-19T07:34:35Z</time></trkpt><trkpt lat="44.89362550091688" lon="8.067390921885753"><ele>210.0</ele><time>2026-04-19T07:34:41Z</time></trkpt><trkpt lat="44.893652107756886" lon="8.067557771693517"><ele>210.0</ele><time>2026-04-19T07:34:42Z</time></trkpt><trkpt lat="44.89368208203861" lon="8.067722148217278"><ele>210.0</ele><time>2026-04-19T07:34:43Z</time></trkpt><trkpt lat="44.89377066081333" lon="8.06787616603003"><ele>210.0</ele><time>2026-04-19T07:34:44Z</time></trkpt><trkpt lat="44.893791202900076" lon="8.068013155520637"><ele>210.0</ele><time>2026-04-19T07:34:45Z</time></trkpt><trkpt lat="44.89380839085916" lon="8.068178597922161"><ele>210.0</ele><time>2026-04-19T07:34:46Z</time></trkpt><trkpt lat="44.89382917435508" lon="8.068309304401058"><ele>210.0</ele><time>2026-04-19T07:34:47Z</time></trkpt><trkpt lat="44.893858874295226" lon="8.068418041718436"><ele>210.0</ele><time>2026-04-19T07:34:48Z</time></trkpt><trkpt lat="44.893895398538035" lon="8.068519679332198"><ele>210.8</ele><time>2026-04-19T07:34:49Z</time></trkpt><trkpt lat="44.89395459112945" lon="8.068607613508583"><ele>211.6</ele><time>2026-04-19T07:34:50Z</time></trkpt><trkpt lat="44.8940206390683" lon="8.068695055007016"><ele>212.39999999999998</ele><time>2026-04-19T07:34:51Z</time></trkpt><trkpt lat="44.894083978012915" lon="8.068786993613793"><ele>213.2</ele><time>2026-04-19T07:34:52Z</time></trkpt><trkpt lat="44.89412967613997" lon="8.068872821397566"><ele>214.0</ele><time>2026-04-19T07:34:53Z</time></trkpt><trkpt lat="44.894178115962184" lon="8.069015945981404"><ele>214.2</ele><time>2026-04-19T07:34:54Z</time></trkpt><trkpt lat="44.89415132680044" lon="8.069249080711318"><ele>214.39999999999998</ele><time>2026-04-19T07:34:55Z</time></trkpt><trkpt lat="44.894126064319536" lon="8.069369705896538"><ele>214.6</ele><time>2026-04-19T07:34:56Z</time></trkpt><trkpt lat="44.89409907133037" lon="8.069522160505464"><ele>214.8</ele><time>2026-04-19T07:34:57Z</time></trkpt><trkpt lat="44.89407367850796" lon="8.069605267764073"><ele>215.0</ele><time>2026-04-19T07:34:58Z</time></trkpt><trkpt lat="44.893526180983486" lon="8.06950162129832"><ele>215.0</ele><time>2026-04-19T07:35:00Z</time></trkpt><trkpt lat="44.89348071722212" lon="8.06957243277721"><ele>215.0</ele><time>2026-04-19T07:35:01Z</time></trkpt><trkpt lat="44.893481073958085" lon="8.06971526533009"><ele>215.0</ele><time>2026-04-19T07:35:02Z</time></trkpt><trkpt lat="44.89345862999214" lon="8.069875130734061"><ele>215.0</ele><time>2026-04-19T07:35:03Z</time></trkpt><trkpt lat="44.89343965067393" lon="8.070028890680039"><ele>215.0</ele><time>2026-04-19T07:35:04Z</time></trkpt><trkpt lat="44.89340817649514" lon="8.070184557868208"><ele>214.66666666666669</ele><time>2026-04-19T07:35:06Z</time></trkpt><trkpt lat="44.893440500000786" lon="8.070267581825457"><ele>214.33333333333334</ele><time>2026-04-19T07:35:07Z</time></trkpt><trkpt lat="44.893488493456736" lon="8.07034841160069"><ele>214.0</ele><time>2026-04-19T07:35:08Z</time></trkpt><trkpt lat="44.893623337852745" lon="8.070275081863006"><ele>213.66666666666669</ele><time>2026-04-19T07:35:10Z</time></trkpt><trkpt lat="44.893694047223555" lon="8.070203719592739"><ele>213.33333333333334</ele><time>2026-04-19T07:35:11Z</time></trkpt><trkpt lat="44.89376399096115" lon="8.070221634544557"><ele>213.0</ele><time>2026-04-19T07:35:12Z</time></trkpt><trkpt lat="44.893735924142455" lon="8.070318896318605"><ele>213.0</ele><time>2026-04-19T07:35:13Z</time></trkpt><trkpt lat="44.89372288317336" lon="8.070410002656038"><ele>213.0</ele><time>2026-04-19T07:35:14Z</time></trkpt><trkpt lat="44.89364800685223" lon="8.07051388480586"><ele>213.0</ele><time>2026-04-19T07:35:15Z</time></trkpt><trkpt lat="44.8935329636145" lon="8.070650049373365"><ele>213.0</ele><time>2026-04-19T07:35:16Z</time></trkpt><trkpt lat="44.89345531189193" lon="8.070810880231416"><ele>209.60000000000002</ele><time>2026-04-19T07:35:17Z</time></trkpt><trkpt lat="44.89339192224727" lon="8.070921614038939"><ele>206.20000000000002</ele><time>2026-04-19T07:35:18Z</time></trkpt><trkpt lat="44.89333560297596" lon="8.070997463837594"><ele>202.8</ele><time>2026-04-19T07:35:20Z</time></trkpt><trkpt lat="44.89326626645918" lon="8.070875392989185"><ele>199.4</ele><time>2026-04-19T07:35:24Z</time></trkpt><trkpt lat="44.89322389214496" lon="8.070768035042377"><ele>196.0</ele><time>2026-04-19T07:35:25Z</time></trkpt><trkpt lat="44.893169875261094" lon="8.070636462062117"><ele>196.0</ele><time>2026-04-19T07:35:26Z</time></trkpt><trkpt lat="44.89312622433258" lon="8.070559325285444"><ele>196.0</ele><time>2026-04-19T07:35:27Z</time></trkpt><trkpt lat="44.893087671787484" lon="8.07047703438902"><ele>196.0</ele><time>2026-04-19T07:35:28Z</time></trkpt><trkpt lat="44.89305510926319" lon="8.0703861104749"><ele>196.0</ele><time>2026-04-19T07:35:29Z</time></trkpt><trkpt lat="44.89300852096122" lon="8.070320700384984"><ele>196.0</ele><time>2026-04-19T07:35:30Z</time></trkpt><trkpt lat="44.89293522726144" lon="8.070314827643106"><ele>196.0</ele><time>2026-04-19T07:35:31Z</time></trkpt><trkpt lat="44.89287177852702" lon="8.070286411839273"><ele>196.0</ele><time>2026-04-19T07:35:32Z</time></trkpt><trkpt lat="44.89285643649802" lon="8.070083450934838"><ele>196.0</ele><time>2026-04-19T07:35:34Z</time></trkpt><trkpt lat="44.8929022387584" lon="8.06995230518936"><ele>196.0</ele><time>2026-04-19T07:35:35Z</time></trkpt><trkpt lat="44.892924222007416" lon="8.069811315277043"><ele>196.0</ele><time>2026-04-19T07:35:36Z</time></trkpt><trkpt lat="44.89296992542534" lon="8.069661988947956"><ele>196.0</ele><time>2026-04-19T07:35:37Z</time></trkpt><trkpt lat="44.892959034492556" lon="8.06952170394544"><ele>196.0</ele><time>2026-04-19T07:35:38Z</time></trkpt><trkpt lat="44.892958397205085" lon="8.069412148807913"><ele>195.66666666666666</ele><time>2026-04-19T07:35:39Z</time></trkpt><trkpt lat="44.892943910099255" lon="8.069320410476633"><ele>195.33333333333331</ele><time>2026-04-19T07:35:40Z</time></trkpt><trkpt lat="44.89288984708901" lon="8.069248625281151"><ele>195.0</ele><time>2026-04-19T07:35:41Z</time></trkpt><trkpt lat="44.89282230057591" lon="8.069143333958714"><ele>194.66666666666669</ele><time>2026-04-19T07:35:42Z</time></trkpt><trkpt lat="44.892820072090664" lon="8.06904860654094"><ele>194.33333333333334</ele><time>2026-04-19T07:35:43Z</time></trkpt><trkpt lat="44.89280187760653" lon="8.068932017183577"><ele>194.0</ele><time>2026-04-19T07:35:44Z</time></trkpt><trkpt lat="44.89278004420735" lon="8.068812410664231"><ele>195.0</ele><time>2026-04-19T07:35:45Z</time></trkpt><trkpt lat="44.89278351701681" lon="8.068700092457698"><ele>196.0</ele><time>2026-04-19T07:35:46Z</time></trkpt><trkpt lat="44.8927163145834" lon="8.06854798200832"><ele>197.0</ele><time>2026-04-19T07:35:48Z</time></trkpt><trkpt lat="44.892629308865764" lon="8.068464277536949"><ele>198.0</ele><time>2026-04-19T07:35:49Z</time></trkpt><trkpt lat="44.892587390894406" lon="8.068393049589162"><ele>199.0</ele><time>2026-04-19T07:35:50Z</time></trkpt><trkpt lat="44.89253280702654" lon="8.068313700233922"><ele>200.0</ele><time>2026-04-19T07:35:51Z</time></trkpt><trkpt lat="44.89245722490412" lon="8.068242491483698"><ele>201.0</ele><time>2026-04-19T07:35:53Z</time></trkpt><trkpt lat="44.89246418708085" lon="8.0681497488987"><ele>202.0</ele><time>2026-04-19T07:35:54Z</time></trkpt><trkpt lat="44.89247589279251" lon="8.068059634170917"><ele>203.0</ele><time>2026-04-19T07:35:55Z</time></trkpt><trkpt lat="44.892674546765626" lon="8.067853484409996"><ele>203.0</ele><time>2026-04-19T07:36:00Z</time></trkpt><trkpt lat="44.892665387944774" lon="8.06775697693056"><ele>203.0</ele><time>2026-04-19T07:36:01Z</time></trkpt><trkpt lat="44.89260847606733" lon="8.067582674196597"><ele>203.0</ele><time>2026-04-19T07:36:03Z</time></trkpt><trkpt lat="44.89256855924199" lon="8.067459500489344"><ele>203.0</ele><time>2026-04-19T07:36:04Z</time></trkpt><trkpt lat="44.89254826232554" lon="8.067338284191289"><ele>203.0</ele><time>2026-04-19T07:36:05Z</time></trkpt><trkpt lat="44.892546951635325" lon="8.067216823174098"><ele>202.4</ele><time>2026-04-19T07:36:06Z</time></trkpt><trkpt lat="44.89253573869584" lon="8.067069198193616"><ele>201.8</ele><time>2026-04-19T07:36:07Z</time></trkpt><trkpt lat="44.89252778843303" lon="8.06696363587171"><ele>201.2</ele><time>2026-04-19T07:36:08Z</time></trkpt><trkpt lat="44.89249022740556" lon="8.066890947666245"><ele>200.6</ele><time>2026-04-19T07:36:09Z</time></trkpt><trkpt lat="44.89247765399206" lon="8.066753552867542"><ele>200.0</ele><time>2026-04-19T07:36:11Z</time></trkpt><trkpt lat="44.89237095859919" lon="8.066654945790757"><ele>200.4</ele><time>2026-04-19T07:36:13Z</time></trkpt><trkpt lat="44.89226959728962" lon="8.066585636110435"><ele>200.8</ele><time>2026-04-19T07:36:14Z</time></trkpt><trkpt lat="44.89223601096376" lon="8.066480523443255"><ele>201.2</ele><time>2026-04-19T07:36:15Z</time></trkpt><trkpt lat="44.89221152037544" lon="8.066353882937035"><ele>201.6</ele><time>2026-04-19T07:36:16Z</time></trkpt><trkpt lat="44.8921899791329" lon="8.066193900018993"><ele>202.0</ele><time>2026-04-19T07:36:17Z</time></trkpt><trkpt lat="44.89217836789857" lon="8.066045151628847"><ele>202.0</ele><time>2026-04-19T07:36:18Z</time></trkpt><trkpt lat="44.89215774512882" lon="8.065891963684996"><ele>202.0</ele><time>2026-04-19T07:36:19Z</time></trkpt><trkpt lat="44.8921275645216" lon="8.065765507558133"><ele>202.0</ele><time>2026-04-19T07:36:20Z</time></trkpt><trkpt lat="44.892091254613305" lon="8.065681977210795"><ele>202.0</ele><time>2026-04-19T07:36:21Z</time></trkpt><trkpt lat="44.89197682470714" lon="8.065610044349004"><ele>202.0</ele><time>2026-04-19T07:36:23Z</time></trkpt><trkpt lat="44.891899498011135" lon="8.06563022739488"><ele>202.39999999999998</ele><time>2026-04-19T07:36:24Z</time></trkpt><trkpt lat="44.89182047552816" lon="8.065654921189413"><ele>202.79999999999998</ele><time>2026-04-19T07:36:25Z</time></trkpt><trkpt lat="44.89172854278371" lon="8.065676179967683"><ele>203.2</ele><time>2026-04-19T07:36:27Z</time></trkpt><trkpt lat="44.891717062253875" lon="8.06557972988844"><ele>203.6</ele><time>2026-04-19T07:36:28Z</time></trkpt><trkpt lat="44.891767482310875" lon="8.065444643576699"><ele>204.0</ele><time>2026-04-19T07:36:29Z</time></trkpt><trkpt lat="44.89184673396962" lon="8.06534736731161"><ele>205.2</ele><time>2026-04-19T07:36:30Z</time></trkpt><trkpt lat="44.89196054463882" lon="8.065285758781245"><ele>206.39999999999998</ele><time>2026-04-19T07:36:31Z</time></trkpt><trkpt lat="44.89192640479673" lon="8.0650954778074"><ele>207.6</ele><time>2026-04-19T07:36:33Z</time></trkpt><trkpt lat="44.89191544192978" lon="8.064990853393526"><ele>208.8</ele><time>2026-04-19T07:36:34Z</time></trkpt><trkpt lat="44.89188596499359" lon="8.064860854935871"><ele>210.0</ele><time>2026-04-19T07:36:35Z</time></trkpt><trkpt lat="44.89191366789532" lon="8.064728545425094"><ele>210.2</ele><time>2026-04-19T07:36:36Z</time></trkpt><trkpt lat="44.891926331969884" lon="8.064604457542794"><ele>210.4</ele><time>2026-04-19T07:36:37Z</time></trkpt><trkpt lat="44.89193031325193" lon="8.064468493572177"><ele>210.60000000000002</ele><time>2026-04-19T07:36:38Z</time></trkpt><trkpt lat="44.89192313716043" lon="8.06432776287582"><ele>210.8</ele><time>2026-04-19T07:36:39Z</time></trkpt><trkpt lat="44.89188914611004" lon="8.064190662469006"><ele>211.0</ele><time>2026-04-19T07:36:40Z</time></trkpt><trkpt lat="44.89189154732087" lon="8.064057152500162"><ele>210.99999999999997</ele><time>2026-04-19T07:36:41Z</time></trkpt><trkpt lat="44.89188771957487" lon="8.063924900436549"><ele>211.0</ele><time>2026-04-19T07:36:42Z</time></trkpt><trkpt lat="44.891876079186396" lon="8.063783941425504"><ele>211.0</ele><time>2026-04-19T07:36:43Z</time></trkpt><trkpt lat="44.89188133426352" lon="8.06365388600379"><ele>211.0</ele><time>2026-04-19T07:36:44Z</time></trkpt><trkpt lat="44.891899886888986" lon="8.063549468917799"><ele>210.99999999999997</ele><time>2026-04-19T07:36:45Z</time></trkpt><trkpt lat="44.89188130341403" lon="8.063439909148919"><ele>211.0</ele><time>2026-04-19T07:36:46Z</time></trkpt><trkpt lat="44.89183886394673" lon="8.063331756391108"><ele>210.49999999999997</ele><time>2026-04-19T07:36:47Z</time></trkpt><trkpt lat="44.891801218160765" lon="8.06321098700965"><ele>210.0</ele><time>2026-04-19T07:36:48Z</time></trkpt><trkpt lat="44.89177338154382" lon="8.063083138268167"><ele>209.5</ele><time>2026-04-19T07:36:49Z</time></trkpt><trkpt lat="44.89174467107919" lon="8.062987683182799"><ele>209.0</ele><time>2026-04-19T07:36:50Z</time></trkpt><trkpt lat="44.8917112679032" lon="8.062876371361352"><ele>208.49999999999997</ele><time>2026-04-19T07:36:51Z</time></trkpt><trkpt lat="44.89167881254807" lon="8.062779947689487"><ele>208.0</ele><time>2026-04-19T07:36:52Z</time></trkpt><trkpt lat="44.8916260418605" lon="8.062665926913759"><ele>208.0</ele><time>2026-04-19T07:36:53Z</time></trkpt><trkpt lat="44.89157707669291" lon="8.062548878431404"><ele>208.0</ele><time>2026-04-19T07:36:54Z</time></trkpt><trkpt lat="44.89151737955185" lon="8.062457899529067"><ele>208.0</ele><time>2026-04-19T07:36:55Z</time></trkpt><trkpt lat="44.89144271957015" lon="8.062368380111307"><ele>208.0</ele><time>2026-04-19T07:36:56Z</time></trkpt><trkpt lat="44.89136079522397" lon="8.06220101205852"><ele>208.0</ele><time>2026-04-19T07:36:58Z</time></trkpt><trkpt lat="44.89136152483911" lon="8.062084292266539"><ele>209.25</ele><time>2026-04-19T07:36:59Z</time></trkpt><trkpt lat="44.8913249021936" lon="8.061942090182479"><ele>210.5</ele><time>2026-04-19T07:37:00Z</time></trkpt><trkpt lat="44.89130641371313" lon="8.061760595623602"><ele>211.75</ele><time>2026-04-19T07:37:01Z</time></trkpt><trkpt lat="44.891249694237196" lon="8.061626070259141"><ele>213.0</ele><time>2026-04-19T07:37:02Z</time></trkpt><trkpt lat="44.89120912031475" lon="8.061492331280299"><ele>215.2</ele><time>2026-04-19T07:37:03Z</time></trkpt><trkpt lat="44.89122548551549" lon="8.061397320492686"><ele>217.4</ele><time>2026-04-19T07:37:04Z</time></trkpt><trkpt lat="44.89118460920228" lon="8.061206377385929"><ele>219.59999999999997</ele><time>2026-04-19T07:37:06Z</time></trkpt><trkpt lat="44.89114591451357" lon="8.061097154131996"><ele>221.79999999999998</ele><time>2026-04-19T07:37:07Z</time></trkpt><trkpt lat="44.891092277964525" lon="8.061001939307648"><ele>224.0</ele><time>2026-04-19T07:37:08Z</time></trkpt><trkpt lat="44.891032413139165" lon="8.060951056261779"><ele>221.79999999999998</ele><time>2026-04-19T07:37:09Z</time></trkpt><trkpt lat="44.89097856269462" lon="8.060775124265117"><ele>219.59999999999997</ele><time>2026-04-19T07:37:11Z</time></trkpt><trkpt lat="44.89096002838184" lon="8.060684363028145"><ele>217.4</ele><time>2026-04-19T07:37:12Z</time></trkpt><trkpt lat="44.8909216132965" lon="8.06057017744409"><ele>215.2</ele><time>2026-04-19T07:37:13Z</time></trkpt><trkpt lat="44.89086089569412" lon="8.060482629931219"><ele>213.0</ele><time>2026-04-19T07:37:14Z</time></trkpt><trkpt lat="44.89079592803019" lon="8.06040073101407"><ele>212.99999999999997</ele><time>2026-04-19T07:37:15Z</time></trkpt><trkpt lat="44.890743095010755" lon="8.06033784482145"><ele>213.0</ele><time>2026-04-19T07:37:16Z</time></trkpt><trkpt lat="44.890691790251395" lon="8.06026025592193"><ele>213.0</ele><time>2026-04-19T07:37:17Z</time></trkpt><trkpt lat="44.89065298298386" lon="8.060147218274691"><ele>213.0</ele><time>2026-04-19T07:37:18Z</time></trkpt><trkpt lat="44.89061113134" lon="8.060075589938032"><ele>213.0</ele><time>2026-04-19T07:37:19Z</time></trkpt><trkpt lat="44.890564885353086" lon="8.060003287537134"><ele>212.99999999999997</ele><time>2026-04-19T07:37:20Z</time></trkpt><trkpt lat="44.89054553783206" lon="8.059910624021013"><ele>213.0</ele><time>2026-04-19T07:37:21Z</time></trkpt><trkpt lat="44.89052866863046" lon="8.059824205058831"><ele>214.5</ele><time>2026-04-19T07:37:22Z</time></trkpt><trkpt lat="44.89052607107628" lon="8.059726282321089"><ele>216.0</ele><time>2026-04-19T07:37:23Z</time></trkpt><trkpt lat="44.89051080738225" lon="8.059617975652232"><ele>217.5</ele><time>2026-04-19T07:37:24Z</time></trkpt><trkpt lat="44.89046275645091" lon="8.059509229991507"><ele>219.0</ele><time>2026-04-19T07:37:25Z</time></trkpt><trkpt lat="44.89041839521792" lon="8.059416973898376"><ele>220.5</ele><time>2026-04-19T07:37:26Z</time></trkpt><trkpt lat="44.89038832467454" lon="8.05930438232242"><ele>222.0</ele><time>2026-04-19T07:37:27Z</time></trkpt><trkpt lat="44.890353165267705" lon="8.059215334415699"><ele>220.6</ele><time>2026-04-19T07:37:28Z</time></trkpt><trkpt lat="44.89029702295174" lon="8.059106104622852"><ele>219.2</ele><time>2026-04-19T07:37:29Z</time></trkpt><trkpt lat="44.89022762722772" lon="8.059020875874682"><ele>217.8</ele><time>2026-04-19T07:37:30Z</time></trkpt><trkpt lat="44.89016500259267" lon="8.058911332666828"><ele>216.4</ele><time>2026-04-19T07:37:31Z</time></trkpt><trkpt lat="44.890127267465616" lon="8.058794283802571"><ele>215.0</ele><time>2026-04-19T07:37:32Z</time></trkpt><trkpt lat="44.89006823670096" lon="8.058676449941071"><ele>215.0</ele><time>2026-04-19T07:37:33Z</time></trkpt><trkpt lat="44.88999253779504" lon="8.058557668876663"><ele>215.0</ele><time>2026-04-19T07:37:34Z</time></trkpt><trkpt lat="44.88991446005022" lon="8.058446801167568"><ele>215.0</ele><time>2026-04-19T07:37:35Z</time></trkpt><trkpt lat="44.88984634984162" lon="8.058325481829813"><ele>215.0</ele><time>2026-04-19T07:37:36Z</time></trkpt><trkpt lat="44.88977895102403" lon="8.058223723769283"><ele>215.0</ele><time>2026-04-19T07:37:37Z</time></trkpt><trkpt lat="44.889727651024636" lon="8.058132414321793"><ele>216.8</ele><time>2026-04-19T07:37:38Z</time></trkpt><trkpt lat="44.88963145186173" lon="8.058056460611192"><ele>218.6</ele><time>2026-04-19T07:37:40Z</time></trkpt><trkpt lat="44.88952056599084" lon="8.058060635683962"><ele>220.39999999999998</ele><time>2026-04-19T07:37:42Z</time></trkpt><trkpt lat="44.88944731320236" lon="8.057942885457354"><ele>222.2</ele><time>2026-04-19T07:37:44Z</time></trkpt><trkpt lat="44.88946006851433" lon="8.057851673916495"><ele>224.0</ele><time>2026-04-19T07:37:45Z</time></trkpt><trkpt lat="44.8894178824595" lon="8.057744629053019"><ele>224.0</ele><time>2026-04-19T07:37:46Z</time></trkpt><trkpt lat="44.8893587943429" lon="8.057641684180803"><ele>223.99999999999997</ele><time>2026-04-19T07:37:47Z</time></trkpt><trkpt lat="44.88928898983732" lon="8.057530786070599"><ele>223.99999999999997</ele><time>2026-04-19T07:37:48Z</time></trkpt><trkpt lat="44.889202360663454" lon="8.057380525150966"><ele>224.0</ele><time>2026-04-19T07:37:49Z</time></trkpt><trkpt lat="44.88913365267227" lon="8.057301331367588"><ele>224.0</ele><time>2026-04-19T07:37:50Z</time></trkpt><trkpt lat="44.88905837425968" lon="8.057217893299615"><ele>224.2</ele><time>2026-04-19T07:37:51Z</time></trkpt><trkpt lat="44.888972821833526" lon="8.057142409006026"><ele>224.39999999999998</ele><time>2026-04-19T07:37:52Z</time></trkpt><trkpt lat="44.888894611577264" lon="8.057062364810866"><ele>224.6</ele><time>2026-04-19T07:37:53Z</time></trkpt><trkpt lat="44.88880502475146" lon="8.056973140962686"><ele>224.8</ele><time>2026-04-19T07:37:54Z</time></trkpt><trkpt lat="44.888703571960626" lon="8.056891623030166"><ele>225.0</ele><time>2026-04-19T07:37:55Z</time></trkpt><trkpt lat="44.888618299789506" lon="8.056821155166507"><ele>225.0</ele><time>2026-04-19T07:37:56Z</time></trkpt><trkpt lat="44.88852336498958" lon="8.056734226085899"><ele>225.0</ele><time>2026-04-19T07:37:57Z</time></trkpt><trkpt lat="44.88843943225393" lon="8.05664669520525"><ele>225.0</ele><time>2026-04-19T07:37:58Z</time></trkpt><trkpt lat="44.88837651334593" lon="8.05656352304415"><ele>225.0</ele><time>2026-04-19T07:37:59Z</time></trkpt><trkpt lat="44.88833103709999" lon="8.05637622322929"><ele>225.0</ele><time>2026-04-19T07:38:01Z</time></trkpt><trkpt lat="44.88829117045922" lon="8.056279389131149"><ele>224.83333333333334</ele><time>2026-04-19T07:38:02Z</time></trkpt><trkpt lat="44.88819653432891" lon="8.056219600962207"><ele>224.66666666666669</ele><time>2026-04-19T07:38:04Z</time></trkpt><trkpt lat="44.88813475339975" lon="8.056251241624796"><ele>224.5</ele><time>2026-04-19T07:38:05Z</time></trkpt><trkpt lat="44.888068421930456" lon="8.056281203846613"><ele>224.33333333333334</ele><time>2026-04-19T07:38:06Z</time></trkpt><trkpt lat="44.88800993406539" lon="8.056237321401552"><ele>224.16666666666669</ele><time>2026-04-19T07:38:07Z</time></trkpt><trkpt lat="44.8879486963533" lon="8.056154134680206"><ele>224.0</ele><time>2026-04-19T07:38:08Z</time></trkpt><trkpt lat="44.88791627502582" lon="8.056048949510556"><ele>224.0</ele><time>2026-04-19T07:38:09Z</time></trkpt><trkpt lat="44.887874489092546" lon="8.055930449710521"><ele>223.99999999999997</ele><time>2026-04-19T07:38:10Z</time></trkpt><trkpt lat="44.88783339492202" lon="8.055759046317307"><ele>223.99999999999997</ele><time>2026-04-19T07:38:11Z</time></trkpt><trkpt lat="44.887793037677866" lon="8.055621104119638"><ele>224.0</ele><time>2026-04-19T07:38:12Z</time></trkpt><trkpt lat="44.887748742763826" lon="8.05551129483993"><ele>224.0</ele><time>2026-04-19T07:38:13Z</time></trkpt><trkpt lat="44.887692581636706" lon="8.055405377940343"><ele>224.0</ele><time>2026-04-19T07:38:14Z</time></trkpt><trkpt lat="44.887639655338056" lon="8.055289317051619"><ele>223.99999999999997</ele><time>2026-04-19T07:38:15Z</time></trkpt><trkpt lat="44.887572704163325" lon="8.055180953690547"><ele>223.99999999999997</ele><time>2026-04-19T07:38:16Z</time></trkpt><trkpt lat="44.88748340574248" lon="8.055088559847741"><ele>224.0</ele><time>2026-04-19T07:38:17Z</time></trkpt><trkpt lat="44.887387957572685" lon="8.055012701000706"><ele>224.0</ele><time>2026-04-19T07:38:18Z</time></trkpt><trkpt lat="44.88729502715633" lon="8.054939828730996"><ele>227.2</ele><time>2026-04-19T07:38:19Z</time></trkpt><trkpt lat="44.8872158010538" lon="8.054835226768542"><ele>230.39999999999998</ele><time>2026-04-19T07:38:20Z</time></trkpt><trkpt lat="44.88712371699334" lon="8.054760805410888"><ele>233.6</ele><time>2026-04-19T07:38:21Z</time></trkpt><trkpt lat="44.88705334942688" lon="8.054667828871217"><ele>236.8</ele><time>2026-04-19T07:38:22Z</time></trkpt><trkpt lat="44.88700293458196" lon="8.054552592763132"><ele>240.0</ele><time>2026-04-19T07:38:23Z</time></trkpt><trkpt lat="44.88694461726751" lon="8.054478414696177"><ele>240.0</ele><time>2026-04-19T07:38:24Z</time></trkpt><trkpt lat="44.88689042773595" lon="8.054417758528052"><ele>240.0</ele><time>2026-04-19T07:38:25Z</time></trkpt><trkpt lat="44.88682443671561" lon="8.054358589224329"><ele>240.0</ele><time>2026-04-19T07:38:26Z</time></trkpt><trkpt lat="44.88675817066774" lon="8.05429883324757"><ele>240.0</ele><time>2026-04-19T07:38:27Z</time></trkpt><trkpt lat="44.886697775964905" lon="8.054136106874651"><ele>240.0</ele><time>2026-04-19T07:38:29Z</time></trkpt><trkpt lat="44.88666320639367" lon="8.054039348929047"><ele>240.0</ele><time>2026-04-19T07:38:30Z</time></trkpt><trkpt lat="44.886644253501956" lon="8.053900844051405"><ele>240.0</ele><time>2026-04-19T07:38:31Z</time></trkpt><trkpt lat="44.88664790716264" lon="8.053780230311643"><ele>240.0</ele><time>2026-04-19T07:38:32Z</time></trkpt><trkpt lat="44.886631095122496" lon="8.053665439293122"><ele>240.0</ele><time>2026-04-19T07:38:33Z</time></trkpt><trkpt lat="44.88663006831481" lon="8.053564780434566"><ele>240.0</ele><time>2026-04-19T07:38:34Z</time></trkpt><trkpt lat="44.88655797178247" lon="8.053419227719926"><ele>240.0</ele><time>2026-04-19T07:38:36Z</time></trkpt><trkpt lat="44.8864690122008" lon="8.053382879873222"><ele>240.0</ele><time>2026-04-19T07:38:37Z</time></trkpt><trkpt lat="44.886404678477156" lon="8.053295657745997"><ele>240.0</ele><time>2026-04-19T07:38:38Z</time></trkpt><trkpt lat="44.88635631061951" lon="8.053163242488534"><ele>240.0</ele><time>2026-04-19T07:38:40Z</time></trkpt><trkpt lat="44.886497585843045" lon="8.053213352073042"><ele>240.0</ele><time>2026-04-19T07:38:54Z</time></trkpt><trkpt lat="44.886590257783695" lon="8.053261974298856"><ele>240.0</ele><time>2026-04-19T07:38:56Z</time></trkpt><trkpt lat="44.88671148612448" lon="8.053209943329808"><ele>240.16666666666666</ele><time>2026-04-19T07:38:58Z</time></trkpt><trkpt lat="44.886772043532666" lon="8.053146634417416"><ele>240.33333333333331</ele><time>2026-04-19T07:38:59Z</time></trkpt><trkpt lat="44.88683544320437" lon="8.053110588854098"><ele>240.5</ele><time>2026-04-19T07:39:00Z</time></trkpt><trkpt lat="44.886925833900214" lon="8.052987590123765"><ele>240.66666666666666</ele><time>2026-04-19T07:39:02Z</time></trkpt><trkpt lat="44.88697042112166" lon="8.052907892208937"><ele>240.83333333333331</ele><time>2026-04-19T07:39:03Z</time></trkpt><trkpt lat="44.887029251653104" lon="8.052853186012397"><ele>241.0</ele><time>2026-04-19T07:39:04Z</time></trkpt><trkpt lat="44.88705161177801" lon="8.05273916811334"><ele>240.99999999999997</ele><time>2026-04-19T07:39:05Z</time></trkpt><trkpt lat="44.88708274564081" lon="8.052661069698873"><ele>241.0</ele><time>2026-04-19T07:39:06Z</time></trkpt><trkpt lat="44.887108776723174" lon="8.052578218818471"><ele>241.0</ele><time>2026-04-19T07:39:07Z</time></trkpt><trkpt lat="44.887133036915" lon="8.052473543984716"><ele>241.0</ele><time>2026-04-19T07:39:08Z</time></trkpt><trkpt lat="44.887164583477926" lon="8.0523542961552"><ele>240.99999999999997</ele><time>2026-04-19T07:39:09Z</time></trkpt><trkpt lat="44.88720510679226" lon="8.052230697844733"><ele>241.0</ele><time>2026-04-19T07:39:10Z</time></trkpt><trkpt lat="44.88723722532198" lon="8.052109411052971"><ele>239.0</ele><time>2026-04-19T07:39:11Z</time></trkpt><trkpt lat="44.887289551502924" lon="8.052007407086316"><ele>237.00000000000003</ele><time>2026-04-19T07:39:12Z</time></trkpt><trkpt lat="44.88733497892573" lon="8.051896264261687"><ele>235.00000000000003</ele><time>2026-04-19T07:39:13Z</time></trkpt><trkpt lat="44.88734474012919" lon="8.051772176607992"><ele>233.0</ele><time>2026-04-19T07:39:14Z</time></trkpt><trkpt lat="44.88736016239837" lon="8.051661509065008"><ele>231.0</ele><time>2026-04-19T07:39:15Z</time></trkpt><trkpt lat="44.88734588677074" lon="8.051513802868394"><ele>228.60000000000002</ele><time>2026-04-19T07:39:16Z</time></trkpt><trkpt lat="44.88734142451243" lon="8.051361962536063"><ele>226.20000000000002</ele><time>2026-04-19T07:39:17Z</time></trkpt><trkpt lat="44.88732245391649" lon="8.051202474888271"><ele>223.79999999999998</ele><time>2026-04-19T07:39:18Z</time></trkpt><trkpt lat="44.887350644772695" lon="8.0510470315521"><ele>221.39999999999998</ele><time>2026-04-19T07:39:20Z</time></trkpt><trkpt lat="44.88740365461772" lon="8.050951993107516"><ele>219.0</ele><time>2026-04-19T07:39:21Z</time></trkpt><trkpt lat="44.88745415785223" lon="8.050847493190208"><ele>218.2</ele><time>2026-04-19T07:39:22Z</time></trkpt><trkpt lat="44.88750775378326" lon="8.050725354726913"><ele>217.39999999999998</ele><time>2026-04-19T07:39:23Z</time></trkpt><trkpt lat="44.88754791753894" lon="8.050612517826535"><ele>216.6</ele><time>2026-04-19T07:39:24Z</time></trkpt><trkpt lat="44.88758820650054" lon="8.050492637535333"><ele>215.8</ele><time>2026-04-19T07:39:25Z</time></trkpt><trkpt lat="44.88763513285447" lon="8.050381684947604"><ele>215.0</ele><time>2026-04-19T07:39:26Z</time></trkpt><trkpt lat="44.88770807769185" lon="8.050269095133102"><ele>214.4</ele><time>2026-04-19T07:39:27Z</time></trkpt><trkpt lat="44.88776801138564" lon="8.050143198124479"><ele>213.8</ele><time>2026-04-19T07:39:28Z</time></trkpt><trkpt lat="44.88782603660526" lon="8.050022289381351"><ele>213.2</ele><time>2026-04-19T07:39:29Z</time></trkpt><trkpt lat="44.8879022286627" lon="8.049915091990394"><ele>212.6</ele><time>2026-04-19T07:39:30Z</time></trkpt><trkpt lat="44.88798368806406" lon="8.049801322767973"><ele>212.0</ele><time>2026-04-19T07:39:31Z</time></trkpt><trkpt lat="44.88805108453934" lon="8.049694106204367"><ele>212.0</ele><time>2026-04-19T07:39:32Z</time></trkpt><trkpt lat="44.88809101886518" lon="8.049550307259802"><ele>212.0</ele><time>2026-04-19T07:39:33Z</time></trkpt><trkpt lat="44.888164281628065" lon="8.049446032762267"><ele>212.0</ele><time>2026-04-19T07:39:34Z</time></trkpt><trkpt lat="44.88819152857865" lon="8.049294918722829"><ele>212.0</ele><time>2026-04-19T07:39:35Z</time></trkpt><trkpt lat="44.88822976306878" lon="8.049157843067057"><ele>212.0</ele><time>2026-04-19T07:39:36Z</time></trkpt><trkpt lat="44.88826312281709" lon="8.048988916660377"><ele>210.2</ele><time>2026-04-19T07:39:37Z</time></trkpt><trkpt lat="44.88827787387823" lon="8.04883064301244"><ele>208.39999999999998</ele><time>2026-04-19T07:39:38Z</time></trkpt><trkpt lat="44.888307426031936" lon="8.04868893601735"><ele>206.60000000000002</ele><time>2026-04-19T07:39:39Z</time></trkpt><trkpt lat="44.88832614873496" lon="8.048573789924358"><ele>204.8</ele><time>2026-04-19T07:39:40Z</time></trkpt><trkpt lat="44.888356940604005" lon="8.048456432809516"><ele>203.0</ele><time>2026-04-19T07:39:41Z</time></trkpt><trkpt lat="44.88840605622704" lon="8.048349924184777"><ele>200.60000000000002</ele><time>2026-04-19T07:39:42Z</time></trkpt><trkpt lat="44.88846055294765" lon="8.04824182954332"><ele>198.20000000000002</ele><time>2026-04-19T07:39:43Z</time></trkpt><trkpt lat="44.88853476935015" lon="8.048118016694032"><ele>195.8</ele><time>2026-04-19T07:39:44Z</time></trkpt><trkpt lat="44.888588244651935" lon="8.048036259073765"><ele>193.4</ele><time>2026-04-19T07:39:45Z</time></trkpt><trkpt lat="44.88863677373041" lon="8.04793894506445"><ele>191.0</ele><time>2026-04-19T07:39:46Z</time></trkpt><trkpt lat="44.888701072105164" lon="8.047844095071763"><ele>191.0</ele><time>2026-04-19T07:39:47Z</time></trkpt><trkpt lat="44.88874127774164" lon="8.047732982014988"><ele>191.0</ele><time>2026-04-19T07:39:48Z</time></trkpt><trkpt lat="44.88878272985902" lon="8.047656754237257"><ele>191.0</ele><time>2026-04-19T07:39:49Z</time></trkpt><trkpt lat="44.888789177879744" lon="8.047555359490886"><ele>191.0</ele><time>2026-04-19T07:39:51Z</time></trkpt><trkpt lat="44.88878531723594" lon="8.047441034814929"><ele>191.0</ele><time>2026-04-19T07:39:54Z</time></trkpt><trkpt lat="44.88871615706912" lon="8.047331946545594"><ele>191.0</ele><time>2026-04-19T07:39:56Z</time></trkpt><trkpt lat="44.888656726848275" lon="8.047292341287044"><ele>192.20000000000002</ele><time>2026-04-19T07:39:57Z</time></trkpt><trkpt lat="44.88857213996792" lon="8.04725474942707"><ele>193.4</ele><time>2026-04-19T07:39:58Z</time></trkpt><trkpt lat="44.88849994628814" lon="8.0471854672497"><ele>194.6</ele><time>2026-04-19T07:39:59Z</time></trkpt><trkpt lat="44.88845091851637" lon="8.047071714674095"><ele>195.8</ele><time>2026-04-19T07:40:00Z</time></trkpt><trkpt lat="44.888416064741705" lon="8.046932267458244"><ele>197.0</ele><time>2026-04-19T07:40:01Z</time></trkpt><trkpt lat="44.8883849214132" lon="8.046816094747571"><ele>197.33333333333334</ele><time>2026-04-19T07:40:02Z</time></trkpt><trkpt lat="44.88834210434489" lon="8.046709684034079"><ele>197.66666666666669</ele><time>2026-04-19T07:40:03Z</time></trkpt><trkpt lat="44.8883048444608" lon="8.046557592276015"><ele>198.0</ele><time>2026-04-19T07:40:04Z</time></trkpt><trkpt lat="44.888264984292256" lon="8.046455180527603"><ele>198.33333333333331</ele><time>2026-04-19T07:40:05Z</time></trkpt><trkpt lat="44.88822319202417" lon="8.0463788805586"><ele>198.66666666666666</ele><time>2026-04-19T07:40:06Z</time></trkpt><trkpt lat="44.888157103210986" lon="8.046338153948806"><ele>199.0</ele><time>2026-04-19T07:40:07Z</time></trkpt><trkpt lat="44.888075718298914" lon="8.046282943461591"><ele>201.49999999999997</ele><time>2026-04-19T07:40:08Z</time></trkpt><trkpt lat="44.8880237264187" lon="8.046204565661315"><ele>204.0</ele><time>2026-04-19T07:40:09Z</time></trkpt><trkpt lat="44.88796691854147" lon="8.04611408590013"><ele>206.5</ele><time>2026-04-19T07:40:10Z</time></trkpt><trkpt lat="44.88788812175194" lon="8.046047314902854"><ele>209.0</ele><time>2026-04-19T07:40:11Z</time></trkpt><trkpt lat="44.88781017750403" lon="8.045981960035185"><ele>211.49999999999997</ele><time>2026-04-19T07:40:12Z</time></trkpt><trkpt lat="44.887729275669564" lon="8.045938566796332"><ele>214.0</ele><time>2026-04-19T07:40:13Z</time></trkpt><trkpt lat="44.887642709499644" lon="8.04592254272625"><ele>215.6</ele><time>2026-04-19T07:40:14Z</time></trkpt><trkpt lat="44.88753489552347" lon="8.045893679472872"><ele>217.2</ele><time>2026-04-19T07:40:15Z</time></trkpt><trkpt lat="44.88744951232488" lon="8.04586237286147"><ele>218.79999999999998</ele><time>2026-04-19T07:40:16Z</time></trkpt><trkpt lat="44.88736631129029" lon="8.045818326452842"><ele>220.39999999999998</ele><time>2026-04-19T07:40:17Z</time></trkpt><trkpt lat="44.887281363204" lon="8.045762793894532"><ele>222.0</ele><time>2026-04-19T07:40:18Z</time></trkpt><trkpt lat="44.88719290763461" lon="8.045666110578663"><ele>222.0</ele><time>2026-04-19T07:40:19Z</time></trkpt><trkpt lat="44.88710229280917" lon="8.0455347552368"><ele>222.0</ele><time>2026-04-19T07:40:21Z</time></trkpt><trkpt lat="44.88704337613999" lon="8.04543956644587"><ele>222.0</ele><time>2026-04-19T07:40:22Z</time></trkpt><trkpt lat="44.88695160804709" lon="8.045340972259316"><ele>222.0</ele><time>2026-04-19T07:40:23Z</time></trkpt><trkpt lat="44.886893098420856" lon="8.04525546582477"><ele>222.0</ele><time>2026-04-19T07:40:24Z</time></trkpt><trkpt lat="44.88682501391571" lon="8.045159733678878"><ele>220.39999999999998</ele><time>2026-04-19T07:40:25Z</time></trkpt><trkpt lat="44.886760098257874" lon="8.045046857452968"><ele>218.79999999999998</ele><time>2026-04-19T07:40:26Z</time></trkpt><trkpt lat="44.886697205140855" lon="8.044990154082589"><ele>217.2</ele><time>2026-04-19T07:40:27Z</time></trkpt><trkpt lat="44.886614946062046" lon="8.044956300182816"><ele>215.6</ele><time>2026-04-19T07:40:28Z</time></trkpt><trkpt lat="44.88653882501458" lon="8.044895034423302"><ele>214.0</ele><time>2026-04-19T07:40:29Z</time></trkpt><trkpt lat="44.8865130027675" lon="8.044750921457178"><ele>214.0</ele><time>2026-04-19T07:40:31Z</time></trkpt><trkpt lat="44.886497867475235" lon="8.04465483676449"><ele>213.99999999999997</ele><time>2026-04-19T07:40:32Z</time></trkpt><trkpt lat="44.886471165851354" lon="8.044560462755094"><ele>213.99999999999997</ele><time>2026-04-19T07:40:33Z</time></trkpt><trkpt lat="44.886389204496886" lon="8.044425420933903"><ele>214.0</ele><time>2026-04-19T07:40:35Z</time></trkpt><trkpt lat="44.886317104168604" lon="8.044365926601333"><ele>214.0</ele><time>2026-04-19T07:40:36Z</time></trkpt><trkpt lat="44.88620901312637" lon="8.044332774769142"><ele>214.0</ele><time>2026-04-19T07:40:37Z</time></trkpt><trkpt lat="44.886105782473265" lon="8.044300296525234"><ele>214.0</ele><time>2026-04-19T07:40:38Z</time></trkpt><trkpt lat="44.88598602049758" lon="8.044269891094594"><ele>214.0</ele><time>2026-04-19T07:40:39Z</time></trkpt><trkpt lat="44.88588566936681" lon="8.044222458129449"><ele>214.0</ele><time>2026-04-19T07:40:40Z</time></trkpt><trkpt lat="44.885769967913426" lon="8.044204631086608"><ele>214.0</ele><time>2026-04-19T07:40:41Z</time></trkpt><trkpt lat="44.88567710200735" lon="8.044148020845748"><ele>213.99999999999997</ele><time>2026-04-19T07:40:42Z</time></trkpt><trkpt lat="44.88558999976787" lon="8.04405010169925"><ele>213.99999999999997</ele><time>2026-04-19T07:40:43Z</time></trkpt><trkpt lat="44.88554141400999" lon="8.043965123388052"><ele>214.0</ele><time>2026-04-19T07:40:44Z</time></trkpt><trkpt lat="44.88552063413547" lon="8.043792859265478"><ele>214.0</ele><time>2026-04-19T07:40:46Z</time></trkpt><trkpt lat="44.885415842988955" lon="8.043719873995048"><ele>213.99999999999997</ele><time>2026-04-19T07:40:49Z</time></trkpt><trkpt lat="44.88531373503511" lon="8.043716943153413"><ele>214.0</ele><time>2026-04-19T07:40:50Z</time></trkpt><trkpt lat="44.8852255047669" lon="8.043648863236694"><ele>214.0</ele><time>2026-04-19T07:40:51Z</time></trkpt><trkpt lat="44.88515013387888" lon="8.04358147563701"><ele>214.0</ele><time>2026-04-19T07:40:52Z</time></trkpt><trkpt lat="44.88507679732461" lon="8.04355260152871"><ele>213.99999999999997</ele><time>2026-04-19T07:40:53Z</time></trkpt><trkpt lat="44.88499783364123" lon="8.043527634175444"><ele>214.0</ele><time>2026-04-19T07:40:55Z</time></trkpt><trkpt lat="44.88494955457181" lon="8.043450565393467"><ele>213.33333333333331</ele><time>2026-04-19T07:40:57Z</time></trkpt><trkpt lat="44.88487965346315" lon="8.043378111626852"><ele>212.66666666666666</ele><time>2026-04-19T07:40:59Z</time></trkpt><trkpt lat="44.88480362936002" lon="8.04331917136986"><ele>212.0</ele><time>2026-04-19T07:41:01Z</time></trkpt><trkpt lat="44.88474089299253" lon="8.04325940236204"><ele>211.33333333333331</ele><time>2026-04-19T07:41:02Z</time></trkpt><trkpt lat="44.88467121172554" lon="8.043191304345479"><ele>210.66666666666666</ele><time>2026-04-19T07:41:03Z</time></trkpt><trkpt lat="44.884613765804396" lon="8.043121627355914"><ele>210.0</ele><time>2026-04-19T07:41:04Z</time></trkpt><trkpt lat="44.88454751130915" lon="8.043013021843109"><ele>212.16666666666666</ele><time>2026-04-19T07:41:05Z</time></trkpt><trkpt lat="44.8844914037718" lon="8.042949972220557"><ele>214.33333333333331</ele><time>2026-04-19T07:41:06Z</time></trkpt><trkpt lat="44.88442274962507" lon="8.04291762242167"><ele>216.5</ele><time>2026-04-19T07:41:07Z</time></trkpt><trkpt lat="44.884350549792295" lon="8.04287280291964"><ele>218.66666666666666</ele><time>2026-04-19T07:41:08Z</time></trkpt><trkpt lat="44.884290978751146" lon="8.042825259721127"><ele>220.83333333333331</ele><time>2026-04-19T07:41:09Z</time></trkpt><trkpt lat="44.884196804918595" lon="8.042752473909855"><ele>223.0</ele><time>2026-04-19T07:41:11Z</time></trkpt><trkpt lat="44.884140877162864" lon="8.042709862498452"><ele>222.99999999999997</ele><time>2026-04-19T07:41:12Z</time></trkpt><trkpt lat="44.884027470543806" lon="8.042666010306801"><ele>223.0</ele><time>2026-04-19T07:41:14Z</time></trkpt><trkpt lat="44.88396087839235" lon="8.042632877717315"><ele>223.0</ele><time>2026-04-19T07:41:15Z</time></trkpt><trkpt lat="44.88389846007436" lon="8.042599193611652"><ele>223.0</ele><time>2026-04-19T07:41:16Z</time></trkpt><trkpt lat="44.88384264207989" lon="8.042555132665166"><ele>222.99999999999997</ele><time>2026-04-19T07:41:17Z</time></trkpt><trkpt lat="44.88378906958529" lon="8.04250596677919"><ele>223.0</ele><time>2026-04-19T07:41:18Z</time></trkpt><trkpt lat="44.883685107920904" lon="8.042471811692305"><ele>222.99999999999997</ele><time>2026-04-19T07:41:20Z</time></trkpt><trkpt lat="44.88355756367141" lon="8.042420887005832"><ele>223.0</ele><time>2026-04-19T07:41:22Z</time></trkpt><trkpt lat="44.8834955821701" lon="8.042399464928554"><ele>223.0</ele><time>2026-04-19T07:41:23Z</time></trkpt><trkpt lat="44.8834371179569" lon="8.04234941736216"><ele>223.0</ele><time>2026-04-19T07:41:24Z</time></trkpt><trkpt lat="44.883368827992015" lon="8.04230929978509"><ele>222.99999999999997</ele><time>2026-04-19T07:41:25Z</time></trkpt><trkpt lat="44.88328577199173" lon="8.042255159623418"><ele>223.0</ele><time>2026-04-19T07:41:26Z</time></trkpt><trkpt lat="44.88320264235493" lon="8.04219266908666"><ele>222.99999999999997</ele><time>2026-04-19T07:41:27Z</time></trkpt><trkpt lat="44.88313110822914" lon="8.042130342899695"><ele>223.0</ele><time>2026-04-19T07:41:28Z</time></trkpt><trkpt lat="44.883075466482765" lon="8.042082697317069"><ele>223.0</ele><time>2026-04-19T07:41:29Z</time></trkpt><trkpt lat="44.883009537423725" lon="8.042093255554327"><ele>223.0</ele><time>2026-04-19T07:41:30Z</time></trkpt><trkpt lat="44.882938616751865" lon="8.04208082440964"><ele>222.99999999999997</ele><time>2026-04-19T07:41:31Z</time></trkpt><trkpt lat="44.882821139863545" lon="8.042116636626682"><ele>223.0</ele><time>2026-04-19T07:41:33Z</time></trkpt><trkpt lat="44.88275065656491" lon="8.042104706379375"><ele>222.99999999999997</ele><time>2026-04-19T07:41:34Z</time></trkpt><trkpt lat="44.88266154402855" lon="8.042101918265308"><ele>223.0</ele><time>2026-04-19T07:41:36Z</time></trkpt><trkpt lat="44.88259979606846" lon="8.042196952000472"><ele>223.0</ele><time>2026-04-19T07:41:39Z</time></trkpt><trkpt lat="44.882526286631055" lon="8.042175775985298"><ele>223.0</ele><time>2026-04-19T07:41:42Z</time></trkpt><trkpt lat="44.88248075316524" lon="8.042246124545244"><ele>222.99999999999997</ele><time>2026-04-19T07:41:45Z</time></trkpt><trkpt lat="44.8824282119705" lon="8.042299332569774"><ele>223.0</ele><time>2026-04-19T07:41:47Z</time></trkpt><trkpt lat="44.88238272310343" lon="8.042381017180677"><ele>223.33333333333331</ele><time>2026-04-19T07:41:50Z</time></trkpt><trkpt lat="44.88229927076453" lon="8.04244934143326"><ele>223.66666666666666</ele><time>2026-04-19T07:41:52Z</time></trkpt><trkpt lat="44.882234214870344" lon="8.042470307166933"><ele>224.0</ele><time>2026-04-19T07:41:55Z</time></trkpt><trkpt lat="44.88215292976229" lon="8.042524898920854"><ele>224.33333333333331</ele><time>2026-04-19T07:41:58Z</time></trkpt><trkpt lat="44.88208099377586" lon="8.042579110157659"><ele>224.66666666666666</ele><time>2026-04-19T07:42:01Z</time></trkpt><trkpt lat="44.88201524888425" lon="8.042596782185974"><ele>225.0</ele><time>2026-04-19T07:42:02Z</time></trkpt><trkpt lat="44.88195080472819" lon="8.042614380203686"><ele>225.4</ele><time>2026-04-19T07:42:03Z</time></trkpt><trkpt lat="44.881870544572614" lon="8.042693608956318"><ele>225.8</ele><time>2026-04-19T07:42:05Z</time></trkpt><trkpt lat="44.88178199855861" lon="8.042788492366261"><ele>226.2</ele><time>2026-04-19T07:42:07Z</time></trkpt><trkpt lat="44.88172123249382" lon="8.042828860775417"><ele>226.6</ele><time>2026-04-19T07:42:08Z</time></trkpt><trkpt lat="44.88164643836372" lon="8.042918998741088"><ele>227.0</ele><time>2026-04-19T07:42:10Z</time></trkpt><trkpt lat="44.881668063399715" lon="8.04303044910473"><ele>229.2</ele><time>2026-04-19T07:42:12Z</time></trkpt><trkpt lat="44.8816635364475" lon="8.04318327042268"><ele>231.39999999999998</ele><time>2026-04-19T07:42:14Z</time></trkpt><trkpt lat="44.88156261211856" lon="8.043250774649499"><ele>233.60000000000002</ele><time>2026-04-19T07:42:16Z</time></trkpt><trkpt lat="44.88149010601172" lon="8.043209763418632"><ele>235.8</ele><time>2026-04-19T07:42:17Z</time></trkpt><trkpt lat="44.88142198794461" lon="8.043249370837184"><ele>238.0</ele><time>2026-04-19T07:42:19Z</time></trkpt><trkpt lat="44.8813470827604" lon="8.043184205521127"><ele>237.99999999999997</ele><time>2026-04-19T07:42:21Z</time></trkpt><trkpt lat="44.881306380240474" lon="8.043069115804636"><ele>238.0</ele><time>2026-04-19T07:42:24Z</time></trkpt><trkpt lat="44.88137398911248" lon="8.043155223249883"><ele>238.0</ele><time>2026-04-19T07:44:16Z</time></trkpt><trkpt lat="44.881444293954125" lon="8.043204456905322"><ele>238.0</ele><time>2026-04-19T07:44:18Z</time></trkpt><trkpt lat="44.881513320713466" lon="8.043241914214306"><ele>237.99999999999997</ele><time>2026-04-19T07:44:20Z</time></trkpt><trkpt lat="44.881605737265254" lon="8.043234471769075"><ele>238.0</ele><time>2026-04-19T07:44:22Z</time></trkpt><trkpt lat="44.88171058918725" lon="8.043195145434613"><ele>238.0</ele><time>2026-04-19T07:44:24Z</time></trkpt><trkpt lat="44.88172019714435" lon="8.04307907131943"><ele>238.0</ele><time>2026-04-19T07:44:26Z</time></trkpt><trkpt lat="44.881683228838256" lon="8.042955290846884"><ele>238.0</ele><time>2026-04-19T07:44:27Z</time></trkpt><trkpt lat="44.88169447705372" lon="8.042806995269881"><ele>238.0</ele><time>2026-04-19T07:44:29Z</time></trkpt><trkpt lat="44.881780406039745" lon="8.04272950692556"><ele>238.0</ele><time>2026-04-19T07:44:31Z</time></trkpt><trkpt lat="44.88185571570491" lon="8.042648841319341"><ele>235.8</ele><time>2026-04-19T07:44:33Z</time></trkpt><trkpt lat="44.88195029247889" lon="8.042579790765226"><ele>233.60000000000002</ele><time>2026-04-19T07:44:35Z</time></trkpt><trkpt lat="44.88201339383738" lon="8.042580911785805"><ele>231.39999999999998</ele><time>2026-04-19T07:44:36Z</time></trkpt><trkpt lat="44.88207964181689" lon="8.042587167807447"><ele>229.2</ele><time>2026-04-19T07:44:37Z</time></trkpt><trkpt lat="44.88219005143091" lon="8.042529029775856"><ele>227.0</ele><time>2026-04-19T07:44:39Z</time></trkpt><trkpt lat="44.88227749782092" lon="8.042420483427"><ele>226.6</ele><time>2026-04-19T07:44:41Z</time></trkpt><trkpt lat="44.8823781975724" lon="8.042337213808766"><ele>226.2</ele><time>2026-04-19T07:44:43Z</time></trkpt><trkpt lat="44.88247848450137" lon="8.042253567235928"><ele>225.8</ele><time>2026-04-19T07:44:45Z</time></trkpt><trkpt lat="44.882540182227444" lon="8.042172165251676"><ele>225.4</ele><time>2026-04-19T07:44:47Z</time></trkpt><trkpt lat="44.8826045850756" lon="8.04217991623986"><ele>225.0</ele><time>2026-04-19T07:44:52Z</time></trkpt><trkpt lat="44.88267045909383" lon="8.042106146299618"><ele>224.66666666666666</ele><time>2026-04-19T07:44:56Z</time></trkpt><trkpt lat="44.882743521654" lon="8.042135019426986"><ele>224.33333333333331</ele><time>2026-04-19T07:44:59Z</time></trkpt><trkpt lat="44.882807158466484" lon="8.042164118967792"><ele>224.0</ele><time>2026-04-19T07:45:08Z</time></trkpt><trkpt lat="44.88290190511505" lon="8.042152966961313"><ele>223.66666666666666</ele><time>2026-04-19T07:45:10Z</time></trkpt><trkpt lat="44.88299688749104" lon="8.042132630716653"><ele>223.33333333333331</ele><time>2026-04-19T07:45:12Z</time></trkpt><trkpt lat="44.88306149791312" lon="8.042122562531711"><ele>223.0</ele><time>2026-04-19T07:45:13Z</time></trkpt><trkpt lat="44.88313302437855" lon="8.042155606077424"><ele>223.0</ele><time>2026-04-19T07:45:15Z</time></trkpt><trkpt lat="44.883321187293866" lon="8.04227685817006"><ele>223.0</ele><time>2026-04-19T07:45:24Z</time></trkpt><trkpt lat="44.8833881703531" lon="8.042322877897208"><ele>223.0</ele><time>2026-04-19T07:45:25Z</time></trkpt><trkpt lat="44.88345346855474" lon="8.042363657160921"><ele>223.0</ele><time>2026-04-19T07:45:26Z</time></trkpt><trkpt lat="44.883522632240556" lon="8.042386099943448"><ele>223.0</ele><time>2026-04-19T07:45:27Z</time></trkpt><trkpt lat="44.88359484376016" lon="8.04243291998918"><ele>222.99999999999997</ele><time>2026-04-19T07:45:28Z</time></trkpt><trkpt lat="44.883663626920566" lon="8.042463437640434"><ele>223.0</ele><time>2026-04-19T07:45:29Z</time></trkpt><trkpt lat="44.883734009145726" lon="8.042475794238875"><ele>223.0</ele><time>2026-04-19T07:45:30Z</time></trkpt><trkpt lat="44.88379266316083" lon="8.0425120600472"><ele>223.0</ele><time>2026-04-19T07:45:31Z</time></trkpt><trkpt lat="44.88391253371345" lon="8.042588429332012"><ele>222.99999999999997</ele><time>2026-04-19T07:45:33Z</time></trkpt><trkpt lat="44.88397231024721" lon="8.042633599617547"><ele>223.0</ele><time>2026-04-19T07:45:34Z</time></trkpt><trkpt lat="44.88403707522061" lon="8.042661358540162"><ele>222.99999999999997</ele><time>2026-04-19T07:45:35Z</time></trkpt><trkpt lat="44.884105411233776" lon="8.042686260902283"><ele>223.0</ele><time>2026-04-19T07:45:36Z</time></trkpt><trkpt lat="44.88422383802818" lon="8.042725370631034"><ele>223.0</ele><time>2026-04-19T07:45:38Z</time></trkpt><trkpt lat="44.884327583257566" lon="8.042837453802548"><ele>223.0</ele><time>2026-04-19T07:45:40Z</time></trkpt><trkpt lat="44.88437737440481" lon="8.04289269570252"><ele>222.99999999999997</ele><time>2026-04-19T07:45:41Z</time></trkpt><trkpt lat="44.884432589348435" lon="8.042936084197498"><ele>223.0</ele><time>2026-04-19T07:45:42Z</time></trkpt><trkpt lat="44.88449341571923" lon="8.04298167434121"><ele>223.8</ele><time>2026-04-19T07:45:43Z</time></trkpt><trkpt lat="44.88457184478565" lon="8.043033157528342"><ele>224.60000000000002</ele><time>2026-04-19T07:45:45Z</time></trkpt><trkpt lat="44.884642370764624" lon="8.043107281427572"><ele>225.39999999999998</ele><time>2026-04-19T07:45:48Z</time></trkpt><trkpt lat="44.884699439515565" lon="8.043212317952925"><ele>226.2</ele><time>2026-04-19T07:45:50Z</time></trkpt><trkpt lat="44.88479617757852" lon="8.043305484908235"><ele>227.0</ele><time>2026-04-19T07:45:52Z</time></trkpt><trkpt lat="44.884858183368884" lon="8.043353938082882"><ele>224.83333333333334</ele><time>2026-04-19T07:45:53Z</time></trkpt><trkpt lat="44.88492605036799" lon="8.043424492455214"><ele>222.66666666666669</ele><time>2026-04-19T07:45:54Z</time></trkpt><trkpt lat="44.88498261313461" lon="8.043487395265645"><ele>220.5</ele><time>2026-04-19T07:45:55Z</time></trkpt><trkpt lat="44.88505456551963" lon="8.04357231932666"><ele>218.33333333333331</ele><time>2026-04-19T07:45:56Z</time></trkpt><trkpt lat="44.885114737447" lon="8.043614755949996"><ele>216.16666666666666</ele><time>2026-04-19T07:45:57Z</time></trkpt><trkpt lat="44.88519336315556" lon="8.043598211455029"><ele>214.0</ele><time>2026-04-19T07:45:58Z</time></trkpt><trkpt lat="44.88529039104602" lon="8.043677260242902"><ele>213.99999999999997</ele><time>2026-04-19T07:46:00Z</time></trkpt><trkpt lat="44.88535537606764" lon="8.04372601235382"><ele>214.0</ele><time>2026-04-19T07:46:01Z</time></trkpt><trkpt lat="44.88543509220637" lon="8.043762162927633"><ele>214.0</ele><time>2026-04-19T07:46:02Z</time></trkpt><trkpt lat="44.88552338921345" lon="8.043799901694582"><ele>214.0</ele><time>2026-04-19T07:46:03Z</time></trkpt><trkpt lat="44.88558848641805" lon="8.043830457145775"><ele>213.99999999999997</ele><time>2026-04-19T07:46:04Z</time></trkpt><trkpt lat="44.885599388506186" lon="8.04392170349473"><ele>214.0</ele><time>2026-04-19T07:46:07Z</time></trkpt><trkpt lat="44.885529352044685" lon="8.044101358946165"><ele>212.33333333333331</ele><time>2026-04-19T07:46:15Z</time></trkpt><trkpt lat="44.8854923414995" lon="8.044187367735905"><ele>210.66666666666666</ele><time>2026-04-19T07:46:16Z</time></trkpt><trkpt lat="44.885472181291796" lon="8.044285807628766"><ele>209.0</ele><time>2026-04-19T07:46:17Z</time></trkpt><trkpt lat="44.88547381682746" lon="8.044410469297247"><ele>207.33333333333331</ele><time>2026-04-19T07:46:19Z</time></trkpt><trkpt lat="44.885469807754454" lon="8.044529218742499"><ele>205.66666666666666</ele><time>2026-04-19T07:46:21Z</time></trkpt><trkpt lat="44.885540486488914" lon="8.044586042064488"><ele>204.0</ele><time>2026-04-19T07:46:23Z</time></trkpt><trkpt lat="44.885620476109736" lon="8.044608315366121"><ele>204.0</ele><time>2026-04-19T07:46:25Z</time></trkpt><trkpt lat="44.88571025066611" lon="8.044711463930083"><ele>204.0</ele><time>2026-04-19T07:46:27Z</time></trkpt><trkpt lat="44.88577817547423" lon="8.044851075597663"><ele>204.0</ele><time>2026-04-19T07:46:29Z</time></trkpt><trkpt lat="44.88587420759343" lon="8.044912937480284"><ele>204.0</ele><time>2026-04-19T07:46:31Z</time></trkpt><trkpt lat="44.88592519770119" lon="8.045032636765475"><ele>204.0</ele><time>2026-04-19T07:46:33Z</time></trkpt><trkpt lat="44.88593867159536" lon="8.045154858179732"><ele>206.0</ele><time>2026-04-19T07:46:35Z</time></trkpt><trkpt lat="44.885885856818" lon="8.045241753055558"><ele>208.0</ele><time>2026-04-19T07:46:37Z</time></trkpt><trkpt lat="44.88588491276505" lon="8.045366037858848"><ele>209.99999999999997</ele><time>2026-04-19T07:46:40Z</time></trkpt><trkpt lat="44.885851375747365" lon="8.04549830178776"><ele>212.0</ele><time>2026-04-19T07:46:42Z</time></trkpt><trkpt lat="44.88578156578769" lon="8.045537601231588"><ele>214.0</ele><time>2026-04-19T07:46:43Z</time></trkpt><trkpt lat="44.885689544901936" lon="8.045680251975645"><ele>214.0</ele><time>2026-04-19T07:46:45Z</time></trkpt><trkpt lat="44.88563972069235" lon="8.0457674388969"><ele>213.99999999999997</ele><time>2026-04-19T07:46:46Z</time></trkpt><trkpt lat="44.88556689965763" lon="8.045862296298388"><ele>213.99999999999997</ele><time>2026-04-19T07:46:47Z</time></trkpt><trkpt lat="44.88550445771768" lon="8.045921069154947"><ele>214.0</ele><time>2026-04-19T07:46:48Z</time></trkpt><trkpt lat="44.885440014223875" lon="8.046013187302187"><ele>214.0</ele><time>2026-04-19T07:46:49Z</time></trkpt><trkpt lat="44.88536568116067" lon="8.046156534576767"><ele>214.0</ele><time>2026-04-19T07:46:51Z</time></trkpt><trkpt lat="44.88528366508686" lon="8.046203600372918"><ele>213.99999999999997</ele><time>2026-04-19T07:46:52Z</time></trkpt><trkpt lat="44.88517718517181" lon="8.046158686385324"><ele>213.99999999999997</ele><time>2026-04-19T07:46:54Z</time></trkpt><trkpt lat="44.88507585261332" lon="8.046247011269505"><ele>214.0</ele><time>2026-04-19T07:46:56Z</time></trkpt><trkpt lat="44.88499387816367" lon="8.046334680627766"><ele>214.0</ele><time>2026-04-19T07:46:58Z</time></trkpt><trkpt lat="44.88492357032372" lon="8.046387921034889"><ele>218.0</ele><time>2026-04-19T07:47:00Z</time></trkpt><trkpt lat="44.88492184363129" lon="8.046280374648594"><ele>221.99999999999997</ele><time>2026-04-19T07:47:05Z</time></trkpt><trkpt lat="44.88497118288824" lon="8.046119668643971"><ele>225.99999999999997</ele><time>2026-04-19T07:47:07Z</time></trkpt><trkpt lat="44.884996940935565" lon="8.045976568182995"><ele>230.0</ele><time>2026-04-19T07:47:09Z</time></trkpt><trkpt lat="44.885049248632704" lon="8.045887305986396"><ele>234.0</ele><time>2026-04-19T07:47:12Z</time></trkpt><trkpt lat="44.884993621958984" lon="8.045817580249519"><ele>234.0</ele><time>2026-04-19T07:47:14Z</time></trkpt><trkpt lat="44.884907030349275" lon="8.045848417391221"><ele>234.0</ele><time>2026-04-19T07:47:16Z</time></trkpt><trkpt lat="44.884825537537715" lon="8.045877878331607"><ele>234.0</ele><time>2026-04-19T07:47:18Z</time></trkpt><trkpt lat="44.88474735659507" lon="8.045932612042911"><ele>234.0</ele><time>2026-04-19T07:47:20Z</time></trkpt><trkpt lat="44.88473819516734" lon="8.04605675152114"><ele>234.0</ele><time>2026-04-19T07:47:23Z</time></trkpt><trkpt lat="44.88465851679674" lon="8.046067284995566"><ele>234.0</ele><time>2026-04-19T07:47:26Z</time></trkpt><trkpt lat="44.88459557944826" lon="8.046082556318504"><ele>234.0</ele><time>2026-04-19T07:47:28Z</time></trkpt><trkpt lat="44.88455065874684" lon="8.046181233412549"><ele>234.0</ele><time>2026-04-19T07:47:30Z</time></trkpt><trkpt lat="44.88452199828011" lon="8.046281632646625"><ele>234.0</ele><time>2026-04-19T07:47:32Z</time></trkpt><trkpt lat="44.884464607469866" lon="8.046354297133664"><ele>234.0</ele><time>2026-04-19T07:47:34Z</time></trkpt><trkpt lat="44.88438181520275" lon="8.04635948579372"><ele>234.0</ele><time>2026-04-19T07:47:39Z</time></trkpt><trkpt lat="44.88431922387031" lon="8.046419948626133"><ele>234.0</ele><time>2026-04-19T07:47:41Z</time></trkpt><trkpt lat="44.88424518210899" lon="8.046479363181701"><ele>236.5</ele><time>2026-04-19T07:47:43Z</time></trkpt><trkpt lat="44.884159516820944" lon="8.046527287344174"><ele>239.0</ele><time>2026-04-19T07:47:45Z</time></trkpt><trkpt lat="44.884084525466584" lon="8.046532288290754"><ele>241.5</ele><time>2026-04-19T07:47:47Z</time></trkpt><trkpt lat="44.884012293268114" lon="8.046627523602146"><ele>244.0</ele><time>2026-04-19T07:47:49Z</time></trkpt><trkpt lat="44.88397088500682" lon="8.046701097853054"><ele>246.5</ele><time>2026-04-19T07:47:50Z</time></trkpt><trkpt lat="44.88392167792222" lon="8.046783045702965"><ele>249.0</ele><time>2026-04-19T07:47:51Z</time></trkpt><trkpt lat="44.883871940026424" lon="8.046870433391723"><ele>250.66666666666666</ele><time>2026-04-19T07:47:52Z</time></trkpt><trkpt lat="44.8838053806688" lon="8.046947753043364"><ele>252.33333333333331</ele><time>2026-04-19T07:47:53Z</time></trkpt><trkpt lat="44.88374754037033" lon="8.047005710660322"><ele>254.0</ele><time>2026-04-19T07:47:54Z</time></trkpt><trkpt lat="44.883699516787395" lon="8.047072154129733"><ele>255.66666666666666</ele><time>2026-04-19T07:47:56Z</time></trkpt><trkpt lat="44.88366681855622" lon="8.046971829897844"><ele>257.3333333333333</ele><time>2026-04-19T07:48:02Z</time></trkpt><trkpt lat="44.88367228577369" lon="8.046839708203084"><ele>259.0</ele><time>2026-04-19T07:48:04Z</time></trkpt><trkpt lat="44.88363683601328" lon="8.046765579089286"><ele>259.0</ele><time>2026-04-19T07:48:05Z</time></trkpt><trkpt lat="44.883595636754755" lon="8.046689678124933"><ele>259.0</ele><time>2026-04-19T07:48:06Z</time></trkpt><trkpt lat="44.883527036869" lon="8.046620145437636"><ele>259.0</ele><time>2026-04-19T07:48:07Z</time></trkpt><trkpt lat="44.88345047002416" lon="8.046539398334382"><ele>259.0</ele><time>2026-04-19T07:48:08Z</time></trkpt><trkpt lat="44.88337141790287" lon="8.046448833088379"><ele>259.0</ele><time>2026-04-19T07:48:09Z</time></trkpt><trkpt lat="44.8833102684746" lon="8.046348268238946"><ele>259.0</ele><time>2026-04-19T07:48:10Z</time></trkpt><trkpt lat="44.88326581673193" lon="8.04624588339952"><ele>259.0</ele><time>2026-04-19T07:48:11Z</time></trkpt><trkpt lat="44.88322568787312" lon="8.046135153102822"><ele>259.0</ele><time>2026-04-19T07:48:12Z</time></trkpt><trkpt lat="44.883184231403376" lon="8.046023161808561"><ele>259.0</ele><time>2026-04-19T07:48:13Z</time></trkpt><trkpt lat="44.883138896524756" lon="8.04594039003693"><ele>259.0</ele><time>2026-04-19T07:48:14Z</time></trkpt><trkpt lat="44.88307217923757" lon="8.045884573265372"><ele>259.0</ele><time>2026-04-19T07:48:15Z</time></trkpt><trkpt lat="44.88300950950267" lon="8.045830739809338"><ele>259.0</ele><time>2026-04-19T07:48:16Z</time></trkpt><trkpt lat="44.88296538565581" lon="8.045745822182736"><ele>259.0</ele><time>2026-04-19T07:48:17Z</time></trkpt><trkpt lat="44.882931640378935" lon="8.045665683361392"><ele>259.0</ele><time>2026-04-19T07:48:18Z</time></trkpt><trkpt lat="44.88285769222706" lon="8.04557678532815"><ele>259.0</ele><time>2026-04-19T07:48:20Z</time></trkpt><trkpt lat="44.88278118341557" lon="8.045505215005443"><ele>259.0</ele><time>2026-04-19T07:48:22Z</time></trkpt><trkpt lat="44.88277502133875" lon="8.045379910469897"><ele>259.0</ele><time>2026-04-19T07:48:23Z</time></trkpt><trkpt lat="44.88273437648642" lon="8.04529623563992"><ele>259.0</ele><time>2026-04-19T07:48:24Z</time></trkpt><trkpt lat="44.882709391755064" lon="8.045184781041941"><ele>259.0</ele><time>2026-04-19T07:48:25Z</time></trkpt><trkpt lat="44.88267563271702" lon="8.04507876324124"><ele>259.0</ele><time>2026-04-19T07:48:26Z</time></trkpt><trkpt lat="44.882588715248" lon="8.044956298535496"><ele>259.0</ele><time>2026-04-19T07:48:28Z</time></trkpt><trkpt lat="44.88254281873781" lon="8.044893232320122"><ele>259.0</ele><time>2026-04-19T07:48:29Z</time></trkpt><trkpt lat="44.88249634833022" lon="8.044734010441854"><ele>259.0</ele><time>2026-04-19T07:48:31Z</time></trkpt><trkpt lat="44.88244326032071" lon="8.044628003356193"><ele>258.8333333333333</ele><time>2026-04-19T07:48:33Z</time></trkpt><trkpt lat="44.882345305125874" lon="8.044680971806438"><ele>258.66666666666663</ele><time>2026-04-19T07:48:36Z</time></trkpt><trkpt lat="44.88227120734993" lon="8.044791153609467"><ele>258.5</ele><time>2026-04-19T07:48:38Z</time></trkpt><trkpt lat="44.8822147980499" lon="8.044854076982382"><ele>258.3333333333333</ele><time>2026-04-19T07:48:39Z</time></trkpt><trkpt lat="44.882168271294766" lon="8.044923061836316"><ele>258.1666666666667</ele><time>2026-04-19T07:48:40Z</time></trkpt><trkpt lat="44.88211430546819" lon="8.045001669997975"><ele>258.0</ele><time>2026-04-19T07:48:41Z</time></trkpt><trkpt lat="44.88206062862861" lon="8.04505142418034"><ele>259.8333333333333</ele><time>2026-04-19T07:48:42Z</time></trkpt><trkpt lat="44.881996703644006" lon="8.045076526833784"><ele>261.6666666666667</ele><time>2026-04-19T07:48:44Z</time></trkpt><trkpt lat="44.882000570430556" lon="8.045172881262564"><ele>263.5</ele><time>2026-04-19T07:48:46Z</time></trkpt><trkpt lat="44.88202600396678" lon="8.045258496398404"><ele>265.33333333333337</ele><time>2026-04-19T07:48:47Z</time></trkpt><trkpt lat="44.882049427577286" lon="8.045377648840718"><ele>267.1666666666667</ele><time>2026-04-19T07:48:48Z</time></trkpt><trkpt lat="44.882069150744385" lon="8.04551132402318"><ele>269.0</ele><time>2026-04-19T07:48:49Z</time></trkpt><trkpt lat="44.88209445358735" lon="8.045648883811447"><ele>270.75</ele><time>2026-04-19T07:48:50Z</time></trkpt><trkpt lat="44.8821277847232" lon="8.045799973286506"><ele>272.5</ele><time>2026-04-19T07:48:51Z</time></trkpt><trkpt lat="44.88216329761655" lon="8.045950995745104"><ele>274.25</ele><time>2026-04-19T07:48:52Z</time></trkpt><trkpt lat="44.88220904362714" lon="8.046108731613868"><ele>276.0</ele><time>2026-04-19T07:48:53Z</time></trkpt><trkpt lat="44.882270277335806" lon="8.046263117125404"><ele>276.0</ele><time>2026-04-19T07:48:54Z</time></trkpt><trkpt lat="44.88233334005312" lon="8.046431006557334"><ele>276.0</ele><time>2026-04-19T07:48:55Z</time></trkpt><trkpt lat="44.88239568805992" lon="8.046602556030209"><ele>276.0</ele><time>2026-04-19T07:48:56Z</time></trkpt><trkpt lat="44.88244863612102" lon="8.046749877946318"><ele>276.0</ele><time>2026-04-19T07:48:57Z</time></trkpt><trkpt lat="44.88248546656105" lon="8.046880605375874"><ele>276.8</ele><time>2026-04-19T07:48:58Z</time></trkpt><trkpt lat="44.88249736206181" lon="8.046982473450573"><ele>277.6</ele><time>2026-04-19T07:48:59Z</time></trkpt><trkpt lat="44.88253309073946" lon="8.047117843805282"><ele>278.4</ele><time>2026-04-19T07:49:00Z</time></trkpt><trkpt lat="44.882556310133175" lon="8.047244653158014"><ele>279.2</ele><time>2026-04-19T07:49:01Z</time></trkpt><trkpt lat="44.88256747374552" lon="8.047377008742776"><ele>280.0</ele><time>2026-04-19T07:49:02Z</time></trkpt><trkpt lat="44.88256902936908" lon="8.047504646835776"><ele>280.6</ele><time>2026-04-19T07:49:03Z</time></trkpt><trkpt lat="44.88254695041885" lon="8.047626768443548"><ele>281.2</ele><time>2026-04-19T07:49:04Z</time></trkpt><trkpt lat="44.88246837161305" lon="8.0477384488115"><ele>281.8</ele><time>2026-04-19T07:49:05Z</time></trkpt><trkpt lat="44.882391012347384" lon="8.047812245720126"><ele>282.4</ele><time>2026-04-19T07:49:06Z</time></trkpt><trkpt lat="44.88230272503217" lon="8.047909042095695"><ele>283.0</ele><time>2026-04-19T07:49:07Z</time></trkpt><trkpt lat="44.882207986868764" lon="8.047981046089415"><ele>283.0</ele><time>2026-04-19T07:49:08Z</time></trkpt><trkpt lat="44.882115005335805" lon="8.048070939549756"><ele>283.0</ele><time>2026-04-19T07:49:09Z</time></trkpt><trkpt lat="44.88202719761086" lon="8.048167043728727"><ele>283.0</ele><time>2026-04-19T07:49:10Z</time></trkpt><trkpt lat="44.881934613795266" lon="8.048262417786212"><ele>283.0</ele><time>2026-04-19T07:49:11Z</time></trkpt><trkpt lat="44.88184354844144" lon="8.048358658053456"><ele>283.5</ele><time>2026-04-19T07:49:12Z</time></trkpt><trkpt lat="44.881741874041175" lon="8.048456203200786"><ele>284.0</ele><time>2026-04-19T07:49:13Z</time></trkpt><trkpt lat="44.881639569856404" lon="8.0485457025282"><ele>284.5</ele><time>2026-04-19T07:49:14Z</time></trkpt><trkpt lat="44.881534856712285" lon="8.04863735910712"><ele>285.0</ele><time>2026-04-19T07:49:15Z</time></trkpt><trkpt lat="44.88142848833858" lon="8.04872345670975"><ele>285.0</ele><time>2026-04-19T07:49:16Z</time></trkpt><trkpt lat="44.88132234198707" lon="8.048815254051194"><ele>285.0</ele><time>2026-04-19T07:49:17Z</time></trkpt><trkpt lat="44.88125521192084" lon="8.04891725274727"><ele>285.0</ele><time>2026-04-19T07:49:18Z</time></trkpt><trkpt lat="44.88118510897096" lon="8.049031786073023"><ele>285.0</ele><time>2026-04-19T07:49:19Z</time></trkpt><trkpt lat="44.881138837806205" lon="8.049108608068906"><ele>285.0</ele><time>2026-04-19T07:49:20Z</time></trkpt><trkpt lat="44.88106174525446" lon="8.049235422335512"><ele>285.0</ele><time>2026-04-19T07:49:22Z</time></trkpt><trkpt lat="44.881103236084506" lon="8.049127917784583"><ele>285.0</ele><time>2026-04-19T07:49:28Z</time></trkpt><trkpt lat="44.88097239449591" lon="8.048973833827741"><ele>285.0</ele><time>2026-04-19T07:49:30Z</time></trkpt><trkpt lat="44.880875521643944" lon="8.048916415436583"><ele>285.0</ele><time>2026-04-19T07:49:31Z</time></trkpt><trkpt lat="44.88079084836142" lon="8.048828968348998"><ele>283.2</ele><time>2026-04-19T07:49:32Z</time></trkpt><trkpt lat="44.880701679234065" lon="8.048742031564043"><ele>281.4</ele><time>2026-04-19T07:49:33Z</time></trkpt><trkpt lat="44.88059824655842" lon="8.048657870191063"><ele>279.6</ele><time>2026-04-19T07:49:34Z</time></trkpt><trkpt lat="44.88051300031636" lon="8.04855974667877"><ele>277.8</ele><time>2026-04-19T07:49:35Z</time></trkpt><trkpt lat="44.88043469630137" lon="8.04846914362871"><ele>276.0</ele><time>2026-04-19T07:49:36Z</time></trkpt><trkpt lat="44.8803565680192" lon="8.048374844675113"><ele>276.0</ele><time>2026-04-19T07:49:37Z</time></trkpt><trkpt lat="44.88024490370192" lon="8.048294097990919"><ele>276.0</ele><time>2026-04-19T07:49:38Z</time></trkpt><trkpt lat="44.88016905069376" lon="8.048197506495807"><ele>276.0</ele><time>2026-04-19T07:49:39Z</time></trkpt><trkpt lat="44.880073227761066" lon="8.048101497147213"><ele>276.0</ele><time>2026-04-19T07:49:40Z</time></trkpt><trkpt lat="44.879970251410015" lon="8.047990124119924"><ele>273.2</ele><time>2026-04-19T07:49:41Z</time></trkpt><trkpt lat="44.87987752809793" lon="8.047903575876484"><ele>270.40000000000003</ele><time>2026-04-19T07:49:42Z</time></trkpt><trkpt lat="44.87979209855266" lon="8.047816445952467"><ele>267.6</ele><time>2026-04-19T07:49:43Z</time></trkpt><trkpt lat="44.87971828453806" lon="8.047839507162877"><ele>264.8</ele><time>2026-04-19T07:49:46Z</time></trkpt><trkpt lat="44.87970201125498" lon="8.047944592180885"><ele>262.0</ele><time>2026-04-19T07:49:47Z</time></trkpt><trkpt lat="44.879647220780605" lon="8.048036564326319"><ele>262.0</ele><time>2026-04-19T07:49:48Z</time></trkpt><trkpt lat="44.87960332628832" lon="8.048159647658121"><ele>262.0</ele><time>2026-04-19T07:49:49Z</time></trkpt><trkpt lat="44.87955188348245" lon="8.04825700990453"><ele>262.0</ele><time>2026-04-19T07:49:50Z</time></trkpt><trkpt lat="44.87949766428113" lon="8.048305255762989"><ele>262.0</ele><time>2026-04-19T07:49:51Z</time></trkpt><trkpt lat="44.879432536351" lon="8.04831102735371"><ele>262.0</ele><time>2026-04-19T07:49:52Z</time></trkpt><trkpt lat="44.87935006914942" lon="8.048282388435194"><ele>262.0</ele><time>2026-04-19T07:49:53Z</time></trkpt><trkpt lat="44.87923678366199" lon="8.048293096805034"><ele>262.5</ele><time>2026-04-19T07:49:54Z</time></trkpt><trkpt lat="44.87912924384816" lon="8.048317999157902"><ele>263.0</ele><time>2026-04-19T07:49:55Z</time></trkpt><trkpt lat="44.879055781476" lon="8.048340582461414"><ele>263.5</ele><time>2026-04-19T07:49:56Z</time></trkpt><trkpt lat="44.87898526788357" lon="8.048273791776026"><ele>264.0</ele><time>2026-04-19T07:49:57Z</time></trkpt><trkpt lat="44.8789492408411" lon="8.048187904789756"><ele>264.5</ele><time>2026-04-19T07:49:58Z</time></trkpt><trkpt lat="44.87888822974943" lon="8.04813402875841"><ele>265.0</ele><time>2026-04-19T07:49:59Z</time></trkpt><trkpt lat="44.878834262737946" lon="8.048081041749365"><ele>265.0</ele><time>2026-04-19T07:50:00Z</time></trkpt><trkpt lat="44.878763442956625" lon="8.04803215102395"><ele>265.0</ele><time>2026-04-19T07:50:01Z</time></trkpt><trkpt lat="44.87870726131459" lon="8.047988614199058"><ele>265.0</ele><time>2026-04-19T07:50:02Z</time></trkpt><trkpt lat="44.87864345573536" lon="8.04792777260926"><ele>265.0</ele><time>2026-04-19T07:50:03Z</time></trkpt><trkpt lat="44.87856919094078" lon="8.047854084955093"><ele>265.0</ele><time>2026-04-19T07:50:04Z</time></trkpt><trkpt lat="44.878503034598324" lon="8.047794913907547"><ele>265.0</ele><time>2026-04-19T07:50:05Z</time></trkpt><trkpt lat="44.87843960980945" lon="8.047738697980527"><ele>263.16666666666663</ele><time>2026-04-19T07:50:06Z</time></trkpt><trkpt lat="44.878373341533084" lon="8.0476773644276"><ele>261.3333333333333</ele><time>2026-04-19T07:50:07Z</time></trkpt><trkpt lat="44.87829022725128" lon="8.047645837297763"><ele>259.5</ele><time>2026-04-19T07:50:08Z</time></trkpt><trkpt lat="44.87823129330257" lon="8.047589592615058"><ele>257.6666666666667</ele><time>2026-04-19T07:50:09Z</time></trkpt><trkpt lat="44.87816657091226" lon="8.047517909913598"><ele>255.83333333333334</ele><time>2026-04-19T07:50:10Z</time></trkpt><trkpt lat="44.87809815390945" lon="8.04751049224535"><ele>254.0</ele><time>2026-04-19T07:50:11Z</time></trkpt><trkpt lat="44.87796252481243" lon="8.047480674408389"><ele>252.0</ele><time>2026-04-19T07:50:13Z</time></trkpt><trkpt lat="44.87793860173469" lon="8.047349512474652"><ele>249.99999999999997</ele><time>2026-04-19T07:50:15Z</time></trkpt><trkpt lat="44.87795710299244" lon="8.047257870928725"><ele>247.99999999999997</ele><time>2026-04-19T07:50:16Z</time></trkpt><trkpt lat="44.877971736107824" lon="8.047106175619138"><ele>246.0</ele><time>2026-04-19T07:50:18Z</time></trkpt><trkpt lat="44.87793230492379" lon="8.046964351173859"><ele>244.0</ele><time>2026-04-19T07:50:20Z</time></trkpt><trkpt lat="44.87790424108404" lon="8.046850719913403"><ele>244.0</ele><time>2026-04-19T07:50:22Z</time></trkpt><trkpt lat="44.87784287068792" lon="8.046732931538608"><ele>243.99999999999997</ele><time>2026-04-19T07:50:24Z</time></trkpt><trkpt lat="44.877759812965046" lon="8.046641078672224"><ele>243.99999999999997</ele><time>2026-04-19T07:50:26Z</time></trkpt><trkpt lat="44.87774084530473" lon="8.04651146623327"><ele>244.0</ele><time>2026-04-19T07:50:28Z</time></trkpt><trkpt lat="44.87781668698149" lon="8.046425381954894"><ele>244.0</ele><time>2026-04-19T07:50:30Z</time></trkpt><trkpt lat="44.877821276700075" lon="8.046336279632811"><ele>241.33333333333331</ele><time>2026-04-19T07:50:33Z</time></trkpt><trkpt lat="44.87775981277055" lon="8.046292345331073"><ele>238.66666666666666</ele><time>2026-04-19T07:50:35Z</time></trkpt><trkpt lat="44.877683358833835" lon="8.046291592893729"><ele>236.0</ele><time>2026-04-19T07:50:37Z</time></trkpt><trkpt lat="44.87760759210453" lon="8.046291221882052"><ele>233.33333333333331</ele><time>2026-04-19T07:50:39Z</time></trkpt><trkpt lat="44.87751432363396" lon="8.046280303709455"><ele>230.66666666666666</ele><time>2026-04-19T07:50:43Z</time></trkpt><trkpt lat="44.87744974791323" lon="8.04626331561032"><ele>228.0</ele><time>2026-04-19T07:50:45Z</time></trkpt><trkpt lat="44.87735212139542" lon="8.046268338169762"><ele>228.4</ele><time>2026-04-19T07:50:47Z</time></trkpt><trkpt lat="44.8772819297373" lon="8.046344700600228"><ele>228.8</ele><time>2026-04-19T07:50:49Z</time></trkpt><trkpt lat="44.877219622271156" lon="8.046458448911538"><ele>229.2</ele><time>2026-04-19T07:50:52Z</time></trkpt><trkpt lat="44.877143421183405" lon="8.04659219684047"><ele>229.6</ele><time>2026-04-19T07:50:54Z</time></trkpt><trkpt lat="44.87712183412635" lon="8.04668147766959"><ele>230.0</ele><time>2026-04-19T07:50:55Z</time></trkpt><trkpt lat="44.87709964201823" lon="8.046778370016748"><ele>230.0</ele><time>2026-04-19T07:50:56Z</time></trkpt><trkpt lat="44.877085831390794" lon="8.046867561171645"><ele>230.0</ele><time>2026-04-19T07:50:57Z</time></trkpt><trkpt lat="44.87707886464005" lon="8.04698882593317"><ele>230.0</ele><time>2026-04-19T07:50:59Z</time></trkpt><trkpt lat="44.87702912611997" lon="8.047058838590166"><ele>230.0</ele><time>2026-04-19T07:51:00Z</time></trkpt><trkpt lat="44.87696854855529" lon="8.047191669885791"><ele>230.0</ele><time>2026-04-19T07:51:02Z</time></trkpt><trkpt lat="44.87691815434198" lon="8.047348253210961"><ele>230.75</ele><time>2026-04-19T07:51:04Z</time></trkpt><trkpt lat="44.87687988437855" lon="8.047527084276192"><ele>231.5</ele><time>2026-04-19T07:51:06Z</time></trkpt><trkpt lat="44.87683783295382" lon="8.047664899542482"><ele>232.25</ele><time>2026-04-19T07:51:08Z</time></trkpt><trkpt lat="44.876791575165" lon="8.047787144559134"><ele>233.0</ele><time>2026-04-19T07:51:10Z</time></trkpt><trkpt lat="44.8767709785457" lon="8.047627100363346"><ele>229.66666666666669</ele><time>2026-04-19T07:51:14Z</time></trkpt><trkpt lat="44.87674907236915" lon="8.047531677959784"><ele>226.33333333333334</ele><time>2026-04-19T07:51:15Z</time></trkpt><trkpt lat="44.876690642245244" lon="8.04747960070983"><ele>223.0</ele><time>2026-04-19T07:51:16Z</time></trkpt><trkpt lat="44.876618511164025" lon="8.047467906245883"><ele>219.66666666666669</ele><time>2026-04-19T07:51:17Z</time></trkpt><trkpt lat="44.87653778470389" lon="8.047477363215913"><ele>216.33333333333334</ele><time>2026-04-19T07:51:18Z</time></trkpt><trkpt lat="44.87644397636801" lon="8.047481471097282"><ele>213.0</ele><time>2026-04-19T07:51:19Z</time></trkpt><trkpt lat="44.87637006959127" lon="8.04745172183628"><ele>213.0</ele><time>2026-04-19T07:51:20Z</time></trkpt><trkpt lat="44.87632884315492" lon="8.047322075705301"><ele>213.0</ele><time>2026-04-19T07:51:22Z</time></trkpt><trkpt lat="44.87636447306007" lon="8.047211933288676"><ele>213.0</ele><time>2026-04-19T07:51:23Z</time></trkpt><trkpt lat="44.87640528827354" lon="8.047070707629022"><ele>213.0</ele><time>2026-04-19T07:51:24Z</time></trkpt><trkpt lat="44.87644437320418" lon="8.046900774695576"><ele>213.0</ele><time>2026-04-19T07:51:25Z</time></trkpt><trkpt lat="44.876492614252555" lon="8.046735232752088"><ele>214.0</ele><time>2026-04-19T07:51:26Z</time></trkpt><trkpt lat="44.87654874020243" lon="8.04656169075433"><ele>215.0</ele><time>2026-04-19T07:51:27Z</time></trkpt><trkpt lat="44.87660944895726" lon="8.046385778992697"><ele>216.0</ele><time>2026-04-19T07:51:28Z</time></trkpt><trkpt lat="44.87664800838719" lon="8.046243437546556"><ele>217.0</ele><time>2026-04-19T07:51:29Z</time></trkpt><trkpt lat="44.87671891919638" lon="8.046111734028317"><ele>217.2</ele><time>2026-04-19T07:51:30Z</time></trkpt><trkpt lat="44.87677253778367" lon="8.045987999055427"><ele>217.39999999999998</ele><time>2026-04-19T07:51:31Z</time></trkpt><trkpt lat="44.876845564629" lon="8.045882063129929"><ele>217.60000000000002</ele><time>2026-04-19T07:51:32Z</time></trkpt><trkpt lat="44.87691791364673" lon="8.045771817818196"><ele>217.8</ele><time>2026-04-19T07:51:33Z</time></trkpt><trkpt lat="44.87697247904606" lon="8.045647176160807"><ele>218.0</ele><time>2026-04-19T07:51:34Z</time></trkpt><trkpt lat="44.877021528579974" lon="8.04550926184978"><ele>218.00000000000003</ele><time>2026-04-19T07:51:35Z</time></trkpt><trkpt lat="44.87704061237927" lon="8.045361782599027"><ele>218.0</ele><time>2026-04-19T07:51:36Z</time></trkpt><trkpt lat="44.87707308851488" lon="8.045261969515643"><ele>218.0</ele><time>2026-04-19T07:51:37Z</time></trkpt><trkpt lat="44.87708372629425" lon="8.045147868997446"><ele>218.0</ele><time>2026-04-19T07:51:38Z</time></trkpt><trkpt lat="44.87706934245708" lon="8.045034933455721"><ele>218.00000000000003</ele><time>2026-04-19T07:51:39Z</time></trkpt><trkpt lat="44.87703714940874" lon="8.044932213131561"><ele>218.0</ele><time>2026-04-19T07:51:40Z</time></trkpt><trkpt lat="44.87700020357679" lon="8.044799029537993"><ele>217.83333333333334</ele><time>2026-04-19T07:51:41Z</time></trkpt><trkpt lat="44.87698222069752" lon="8.044675443662038"><ele>217.66666666666669</ele><time>2026-04-19T07:51:42Z</time></trkpt><trkpt lat="44.87700567120159" lon="8.044538080099427"><ele>217.5</ele><time>2026-04-19T07:51:43Z</time></trkpt><trkpt lat="44.87703118607792" lon="8.044405955326791"><ele>217.33333333333331</ele><time>2026-04-19T07:51:44Z</time></trkpt><trkpt lat="44.87704346066286" lon="8.04429901590292"><ele>217.16666666666666</ele><time>2026-04-19T07:51:45Z</time></trkpt><trkpt lat="44.87706710352354" lon="8.044207796128795"><ele>217.0</ele><time>2026-04-19T07:51:46Z</time></trkpt><trkpt lat="44.8771122352256" lon="8.044139853873762"><ele>217.14285714285714</ele><time>2026-04-19T07:51:47Z</time></trkpt><trkpt lat="44.87711774591995" lon="8.04405131233785"><ele>217.28571428571428</ele><time>2026-04-19T07:51:48Z</time></trkpt><trkpt lat="44.87714129674822" lon="8.043953713122484"><ele>217.42857142857144</ele><time>2026-04-19T07:51:49Z</time></trkpt><trkpt lat="44.877187938736775" lon="8.043888176550912"><ele>217.57142857142856</ele><time>2026-04-19T07:51:50Z</time></trkpt><trkpt lat="44.87721557953404" lon="8.043806333299194"><ele>217.71428571428572</ele><time>2026-04-19T07:51:51Z</time></trkpt><trkpt lat="44.87724576121437" lon="8.04371717801317"><ele>217.85714285714286</ele><time>2026-04-19T07:51:52Z</time></trkpt><trkpt lat="44.877271868971846" lon="8.043613705074657"><ele>218.0</ele><time>2026-04-19T07:51:53Z</time></trkpt><trkpt lat="44.87732008286805" lon="8.043515746045871"><ele>218.00000000000003</ele><time>2026-04-19T07:51:54Z</time></trkpt><trkpt lat="44.87734824983957" lon="8.043411073564256"><ele>218.0</ele><time>2026-04-19T07:51:55Z</time></trkpt><trkpt lat="44.87735513312902" lon="8.043301809490176"><ele>218.0</ele><time>2026-04-19T07:51:56Z</time></trkpt><trkpt lat="44.87734942042565" lon="8.043174073049308"><ele>218.0</ele><time>2026-04-19T07:51:57Z</time></trkpt><trkpt lat="44.8773483595148" lon="8.043055460983986"><ele>218.00000000000003</ele><time>2026-04-19T07:51:58Z</time></trkpt><trkpt lat="44.877363329198126" lon="8.04293006942995"><ele>218.0</ele><time>2026-04-19T07:51:59Z</time></trkpt><trkpt lat="44.877392645960825" lon="8.042808639567772"><ele>218.16666666666669</ele><time>2026-04-19T07:52:00Z</time></trkpt><trkpt lat="44.87743231032611" lon="8.042699949518473"><ele>218.33333333333334</ele><time>2026-04-19T07:52:01Z</time></trkpt><trkpt lat="44.87746293694958" lon="8.042581828914305"><ele>218.5</ele><time>2026-04-19T07:52:02Z</time></trkpt><trkpt lat="44.87748863468007" lon="8.042460169969175"><ele>218.66666666666669</ele><time>2026-04-19T07:52:03Z</time></trkpt><trkpt lat="44.877511427425276" lon="8.042341408121592"><ele>218.83333333333334</ele><time>2026-04-19T07:52:04Z</time></trkpt><trkpt lat="44.87752557332834" lon="8.042234870952791"><ele>219.0</ele><time>2026-04-19T07:52:05Z</time></trkpt><trkpt lat="44.87752495256038" lon="8.042125950814155"><ele>219.66666666666666</ele><time>2026-04-19T07:52:06Z</time></trkpt><trkpt lat="44.877524114741206" lon="8.042026877632317"><ele>220.33333333333331</ele><time>2026-04-19T07:52:07Z</time></trkpt><trkpt lat="44.87752299099156" lon="8.04192216300824"><ele>221.0</ele><time>2026-04-19T07:52:08Z</time></trkpt><trkpt lat="44.87752484979121" lon="8.041822342168341"><ele>221.66666666666666</ele><time>2026-04-19T07:52:09Z</time></trkpt><trkpt lat="44.877542817396574" lon="8.041735069678772"><ele>222.33333333333331</ele><time>2026-04-19T07:52:10Z</time></trkpt><trkpt lat="44.87754664944543" lon="8.041638550948795"><ele>223.0</ele><time>2026-04-19T07:52:11Z</time></trkpt><trkpt lat="44.87753158541904" lon="8.041447597537227"><ele>223.99999999999997</ele><time>2026-04-19T07:52:13Z</time></trkpt><trkpt lat="44.8775221641659" lon="8.04134479771631"><ele>225.0</ele><time>2026-04-19T07:52:14Z</time></trkpt><trkpt lat="44.87750304812513" lon="8.041253092763451"><ele>226.0</ele><time>2026-04-19T07:52:15Z</time></trkpt><trkpt lat="44.87751412971052" lon="8.041145774418162"><ele>227.0</ele><time>2026-04-19T07:52:16Z</time></trkpt><trkpt lat="44.877580059553416" lon="8.041079296182227"><ele>227.99999999999997</ele><time>2026-04-19T07:52:17Z</time></trkpt><trkpt lat="44.87761124343108" lon="8.040974989546848"><ele>229.0</ele><time>2026-04-19T07:52:18Z</time></trkpt><trkpt lat="44.87760829598047" lon="8.040868566364233"><ele>229.16666666666666</ele><time>2026-04-19T07:52:19Z</time></trkpt><trkpt lat="44.877612571961855" lon="8.040755698971791"><ele>229.33333333333331</ele><time>2026-04-19T07:52:20Z</time></trkpt><trkpt lat="44.87761196470259" lon="8.040635875286945"><ele>229.5</ele><time>2026-04-19T07:52:21Z</time></trkpt><trkpt lat="44.877614823699965" lon="8.040525689480026"><ele>229.66666666666669</ele><time>2026-04-19T07:52:22Z</time></trkpt><trkpt lat="44.87761429032274" lon="8.040412547051567"><ele>229.83333333333334</ele><time>2026-04-19T07:52:23Z</time></trkpt><trkpt lat="44.87763749353995" lon="8.040282543864903"><ele>230.0</ele><time>2026-04-19T07:52:24Z</time></trkpt><trkpt lat="44.877652117454325" lon="8.040155994407327"><ele>230.00000000000003</ele><time>2026-04-19T07:52:25Z</time></trkpt><trkpt lat="44.87766722321748" lon="8.040017775187524"><ele>230.0</ele><time>2026-04-19T07:52:26Z</time></trkpt><trkpt lat="44.87766639297249" lon="8.039891582442442"><ele>230.0</ele><time>2026-04-19T07:52:27Z</time></trkpt><trkpt lat="44.87766377632007" lon="8.039774051206145"><ele>230.0</ele><time>2026-04-19T07:52:28Z</time></trkpt><trkpt lat="44.87764448269631" lon="8.039660483932343"><ele>230.00000000000003</ele><time>2026-04-19T07:52:29Z</time></trkpt><trkpt lat="44.8775922940288" lon="8.039558593077244"><ele>230.0</ele><time>2026-04-19T07:52:30Z</time></trkpt><trkpt lat="44.877530796956165" lon="8.039467733583908"><ele>229.8</ele><time>2026-04-19T07:52:31Z</time></trkpt><trkpt lat="44.87746570797746" lon="8.039368994897234"><ele>229.6</ele><time>2026-04-19T07:52:32Z</time></trkpt><trkpt lat="44.87737452060691" lon="8.039281183469758"><ele>229.39999999999998</ele><time>2026-04-19T07:52:33Z</time></trkpt><trkpt lat="44.87729005454499" lon="8.039202699757684"><ele>229.2</ele><time>2026-04-19T07:52:34Z</time></trkpt><trkpt lat="44.87722662985905" lon="8.039140558327588"><ele>229.0</ele><time>2026-04-19T07:52:35Z</time></trkpt><trkpt lat="44.87717863553569" lon="8.039065045939886"><ele>231.49999999999997</ele><time>2026-04-19T07:52:36Z</time></trkpt><trkpt lat="44.877157604309836" lon="8.038954954347185"><ele>234.0</ele><time>2026-04-19T07:52:37Z</time></trkpt><trkpt lat="44.87711979347328" lon="8.038840088292552"><ele>236.5</ele><time>2026-04-19T07:52:38Z</time></trkpt><trkpt lat="44.877084378029565" lon="8.03872304885845"><ele>239.0</ele><time>2026-04-19T07:52:39Z</time></trkpt><trkpt lat="44.877033567708416" lon="8.038617078248206"><ele>241.49999999999997</ele><time>2026-04-19T07:52:40Z</time></trkpt><trkpt lat="44.876965239906774" lon="8.038554262857451"><ele>244.0</ele><time>2026-04-19T07:52:41Z</time></trkpt><trkpt lat="44.87689134190074" lon="8.038492628328479"><ele>244.0</ele><time>2026-04-19T07:52:42Z</time></trkpt><trkpt lat="44.87682107197917" lon="8.038417108096965"><ele>243.99999999999997</ele><time>2026-04-19T07:52:43Z</time></trkpt><trkpt lat="44.87675775220013" lon="8.03831201957815"><ele>243.99999999999997</ele><time>2026-04-19T07:52:44Z</time></trkpt><trkpt lat="44.87669459477716" lon="8.038195733929115"><ele>244.0</ele><time>2026-04-19T07:52:45Z</time></trkpt><trkpt lat="44.87664701448366" lon="8.038093602333182"><ele>244.0</ele><time>2026-04-19T07:52:46Z</time></trkpt><trkpt lat="44.87659468429125" lon="8.0380027626116"><ele>243.33333333333331</ele><time>2026-04-19T07:52:47Z</time></trkpt><trkpt lat="44.8765484313368" lon="8.037921661154721"><ele>242.66666666666666</ele><time>2026-04-19T07:52:48Z</time></trkpt><trkpt lat="44.87648372863402" lon="8.037861576382554"><ele>242.0</ele><time>2026-04-19T07:52:49Z</time></trkpt><trkpt lat="44.87640659751883" lon="8.037833217533443"><ele>241.33333333333331</ele><time>2026-04-19T07:52:50Z</time></trkpt><trkpt lat="44.87635443213639" lon="8.037766802799414"><ele>240.66666666666666</ele><time>2026-04-19T07:52:51Z</time></trkpt><trkpt lat="44.87630725336671" lon="8.037677204564392"><ele>240.0</ele><time>2026-04-19T07:52:52Z</time></trkpt><trkpt lat="44.8762759920742" lon="8.037575864913357"><ele>241.66666666666666</ele><time>2026-04-19T07:52:53Z</time></trkpt><trkpt lat="44.87628271844409" lon="8.03746328610797"><ele>243.33333333333331</ele><time>2026-04-19T07:52:54Z</time></trkpt><trkpt lat="44.876292670091516" lon="8.037357087489243"><ele>245.0</ele><time>2026-04-19T07:52:55Z</time></trkpt><trkpt lat="44.876265386414154" lon="8.03725773428344"><ele>246.66666666666666</ele><time>2026-04-19T07:52:56Z</time></trkpt><trkpt lat="44.87621844447029" lon="8.037145807063672"><ele>248.33333333333331</ele><time>2026-04-19T07:52:57Z</time></trkpt><trkpt lat="44.87618294353933" lon="8.037052481063043"><ele>250.0</ele><time>2026-04-19T07:52:58Z</time></trkpt><trkpt lat="44.8761464764763" lon="8.036951657851294"><ele>249.99999999999997</ele><time>2026-04-19T07:52:59Z</time></trkpt><trkpt lat="44.87610289319901" lon="8.03686416098613"><ele>250.0</ele><time>2026-04-19T07:53:00Z</time></trkpt><trkpt lat="44.87601781486452" lon="8.03680366980099"><ele>250.0</ele><time>2026-04-19T07:53:01Z</time></trkpt><trkpt lat="44.87595459235833" lon="8.036728419611666"><ele>250.0</ele><time>2026-04-19T07:53:02Z</time></trkpt><trkpt lat="44.87591615783578" lon="8.036637594045253"><ele>249.99999999999997</ele><time>2026-04-19T07:53:03Z</time></trkpt><trkpt lat="44.875914239501384" lon="8.036547501887648"><ele>250.0</ele><time>2026-04-19T07:53:04Z</time></trkpt><trkpt lat="44.875897757390845" lon="8.036356624133624"><ele>249.14285714285714</ele><time>2026-04-19T07:53:06Z</time></trkpt><trkpt lat="44.87586609138222" lon="8.036257846905057"><ele>248.28571428571428</ele><time>2026-04-19T07:53:07Z</time></trkpt><trkpt lat="44.87584077305734" lon="8.03617418578303"><ele>247.42857142857142</ele><time>2026-04-19T07:53:08Z</time></trkpt><trkpt lat="44.87584271299616" lon="8.03608144877191"><ele>246.57142857142856</ele><time>2026-04-19T07:53:09Z</time></trkpt><trkpt lat="44.87586134414611" lon="8.035985647911199"><ele>245.71428571428572</ele><time>2026-04-19T07:53:10Z</time></trkpt><trkpt lat="44.875866641162055" lon="8.035889737548226"><ele>244.85714285714283</ele><time>2026-04-19T07:53:11Z</time></trkpt><trkpt lat="44.87585803736451" lon="8.035799360010754"><ele>243.99999999999997</ele><time>2026-04-19T07:53:12Z</time></trkpt><trkpt lat="44.87582394076867" lon="8.035720207327978"><ele>243.99999999999997</ele><time>2026-04-19T07:53:13Z</time></trkpt><trkpt lat="44.87576648603619" lon="8.035653376875018"><ele>244.0</ele><time>2026-04-19T07:53:14Z</time></trkpt><trkpt lat="44.87572537193517" lon="8.03551407478143"><ele>244.0</ele><time>2026-04-19T07:53:16Z</time></trkpt><trkpt lat="44.875681198659095" lon="8.035438788087678"><ele>244.0</ele><time>2026-04-19T07:53:17Z</time></trkpt><trkpt lat="44.87561695414596" lon="8.035395811347794"><ele>243.99999999999997</ele><time>2026-04-19T07:53:18Z</time></trkpt><trkpt lat="44.875539833704835" lon="8.035337972974341"><ele>244.0</ele><time>2026-04-19T07:53:19Z</time></trkpt><trkpt lat="44.87545439985821" lon="8.035280413011687"><ele>243.99999999999997</ele><time>2026-04-19T07:53:20Z</time></trkpt><trkpt lat="44.87538123575028" lon="8.035243646026466"><ele>244.0</ele><time>2026-04-19T07:53:21Z</time></trkpt><trkpt lat="44.87531468178716" lon="8.035153290414328"><ele>244.0</ele><time>2026-04-19T07:53:22Z</time></trkpt><trkpt lat="44.875262978036126" lon="8.0350817337359"><ele>244.0</ele><time>2026-04-19T07:53:23Z</time></trkpt><trkpt lat="44.87525123807504" lon="8.034963911518776"><ele>243.99999999999997</ele><time>2026-04-19T07:53:24Z</time></trkpt><trkpt lat="44.8752258362508" lon="8.03484853861519"><ele>244.0</ele><time>2026-04-19T07:53:25Z</time></trkpt><trkpt lat="44.87513820553283" lon="8.034715295201664"><ele>245.39999999999998</ele><time>2026-04-19T07:53:27Z</time></trkpt><trkpt lat="44.8750729758808" lon="8.034658549823863"><ele>246.79999999999998</ele><time>2026-04-19T07:53:28Z</time></trkpt><trkpt lat="44.87495480061566" lon="8.034594322127958"><ele>248.20000000000002</ele><time>2026-04-19T07:53:30Z</time></trkpt><trkpt lat="44.874903175751015" lon="8.034543400667669"><ele>249.60000000000002</ele><time>2026-04-19T07:53:31Z</time></trkpt><trkpt lat="44.87478012264345" lon="8.034517303952045"><ele>251.0</ele><time>2026-04-19T07:53:33Z</time></trkpt><trkpt lat="44.87470617946264" lon="8.034468261597796"><ele>251.0</ele><time>2026-04-19T07:53:34Z</time></trkpt><trkpt lat="44.87462814477472" lon="8.034385669331654"><ele>251.00000000000003</ele><time>2026-04-19T07:53:36Z</time></trkpt><trkpt lat="44.874507411783725" lon="8.034300635642245"><ele>251.00000000000003</ele><time>2026-04-19T07:53:38Z</time></trkpt><trkpt lat="44.87442172880311" lon="8.03422110054172"><ele>251.0</ele><time>2026-04-19T07:53:40Z</time></trkpt><trkpt lat="44.87435176873795" lon="8.034102498694951"><ele>251.0</ele><time>2026-04-19T07:53:42Z</time></trkpt><trkpt lat="44.87425011350809" lon="8.033971514962083"><ele>249.20000000000002</ele><time>2026-04-19T07:53:44Z</time></trkpt><trkpt lat="44.8741261891537" lon="8.03386968326015"><ele>247.40000000000003</ele><time>2026-04-19T07:53:46Z</time></trkpt><trkpt lat="44.87404189466476" lon="8.033779640794561"><ele>245.6</ele><time>2026-04-19T07:53:47Z</time></trkpt><trkpt lat="44.87398059333738" lon="8.033682204434635"><ele>243.8</ele><time>2026-04-19T07:53:48Z</time></trkpt><trkpt lat="44.87389623640994" lon="8.033609913098323"><ele>242.0</ele><time>2026-04-19T07:53:49Z</time></trkpt><trkpt lat="44.87381913966159" lon="8.033573168208004"><ele>242.0</ele><time>2026-04-19T07:53:50Z</time></trkpt><trkpt lat="44.873760284121815" lon="8.033604695669963"><ele>242.0</ele><time>2026-04-19T07:53:51Z</time></trkpt><trkpt lat="44.873794220129135" lon="8.033464457344811"><ele>242.0</ele><time>2026-04-19T07:53:53Z</time></trkpt><trkpt lat="44.87383099388178" lon="8.033333652803982"><ele>242.0</ele><time>2026-04-19T07:53:55Z</time></trkpt><trkpt lat="44.87386428122675" lon="8.033173977754213"><ele>242.0</ele><time>2026-04-19T07:53:57Z</time></trkpt><trkpt lat="44.8738364756297" lon="8.033066077118532"><ele>243.16666666666669</ele><time>2026-04-19T07:54:01Z</time></trkpt><trkpt lat="44.87381176991129" lon="8.03292922141618"><ele>244.33333333333334</ele><time>2026-04-19T07:54:02Z</time></trkpt><trkpt lat="44.87376472599748" lon="8.03286706793386"><ele>245.5</ele><time>2026-04-19T07:54:05Z</time></trkpt><trkpt lat="44.87368096458646" lon="8.032810549758405"><ele>246.66666666666669</ele><time>2026-04-19T07:54:07Z</time></trkpt><trkpt lat="44.87361478940306" lon="8.032699066523744"><ele>247.83333333333334</ele><time>2026-04-19T07:54:10Z</time></trkpt><trkpt lat="44.87354998012818" lon="8.032636335686988"><ele>249.0</ele><time>2026-04-19T07:54:11Z</time></trkpt><trkpt lat="44.873457564196315" lon="8.03256697719992"><ele>248.5</ele><time>2026-04-19T07:54:12Z</time></trkpt><trkpt lat="44.87334907654703" lon="8.032487693493037"><ele>248.0</ele><time>2026-04-19T07:54:13Z</time></trkpt><trkpt lat="44.87328417291453" lon="8.032472430266703"><ele>247.5</ele><time>2026-04-19T07:54:14Z</time></trkpt><trkpt lat="44.87317687080699" lon="8.03240446914467"><ele>247.0</ele><time>2026-04-19T07:54:16Z</time></trkpt><trkpt lat="44.87303622769137" lon="8.032276807305562"><ele>247.0</ele><time>2026-04-19T07:54:17Z</time></trkpt><trkpt lat="44.87293053045008" lon="8.032179862891098"><ele>247.0</ele><time>2026-04-19T07:54:18Z</time></trkpt><trkpt lat="44.872832014307455" lon="8.032165452875084"><ele>247.0</ele><time>2026-04-19T07:54:19Z</time></trkpt><trkpt lat="44.87275781364194" lon="8.03211573653301"><ele>247.0</ele><time>2026-04-19T07:54:20Z</time></trkpt><trkpt lat="44.87266605675309" lon="8.032061364125154"><ele>247.0</ele><time>2026-04-19T07:54:21Z</time></trkpt><trkpt lat="44.87259363622862" lon="8.031964275276598"><ele>247.0</ele><time>2026-04-19T07:54:23Z</time></trkpt><trkpt lat="44.87263193140074" lon="8.031846446132674"><ele>247.0</ele><time>2026-04-19T07:54:25Z</time></trkpt><trkpt lat="44.87269634840869" lon="8.031803210804197"><ele>247.0</ele><time>2026-04-19T07:54:27Z</time></trkpt><trkpt lat="44.87267419325648" lon="8.031661364516385"><ele>247.0</ele><time>2026-04-19T07:54:30Z</time></trkpt><trkpt lat="44.87267462978031" lon="8.031549945879634"><ele>247.0</ele><time>2026-04-19T07:54:32Z</time></trkpt><trkpt lat="44.8727022017632" lon="8.031399785632656"><ele>248.83333333333331</ele><time>2026-04-19T07:54:35Z</time></trkpt><trkpt lat="44.87274090448318" lon="8.031281552488036"><ele>250.66666666666666</ele><time>2026-04-19T07:54:38Z</time></trkpt><trkpt lat="44.87271088392095" lon="8.031198565106335"><ele>252.5</ele><time>2026-04-19T07:54:40Z</time></trkpt><trkpt lat="44.87277016288958" lon="8.03111526659063"><ele>254.33333333333331</ele><time>2026-04-19T07:54:42Z</time></trkpt><trkpt lat="44.872687994788194" lon="8.031071875379553"><ele>256.1666666666667</ele><time>2026-04-19T07:54:44Z</time></trkpt><trkpt lat="44.87271378208728" lon="8.030962667644465"><ele>258.0</ele><time>2026-04-19T07:54:46Z</time></trkpt><trkpt lat="44.87268908088874" lon="8.030859451883327"><ele>260.0</ele><time>2026-04-19T07:54:49Z</time></trkpt><trkpt lat="44.872685433473045" lon="8.03076505936819"><ele>262.0</ele><time>2026-04-19T07:54:52Z</time></trkpt><trkpt lat="44.87266160710618" lon="8.03065630418152"><ele>264.0</ele><time>2026-04-19T07:54:53Z</time></trkpt><trkpt lat="44.872582990314946" lon="8.030631090445743"><ele>266.0</ele><time>2026-04-19T07:54:57Z</time></trkpt><trkpt lat="44.87248220277799" lon="8.03069534679443"><ele>268.0</ele><time>2026-04-19T07:55:01Z</time></trkpt><trkpt lat="44.87242289284188" lon="8.030656996248782"><ele>270.0</ele><time>2026-04-19T07:55:03Z</time></trkpt><trkpt lat="44.87238412426976" lon="8.030508090572333"><ele>271.0</ele><time>2026-04-19T07:55:05Z</time></trkpt><trkpt lat="44.87236396910957" lon="8.030377622992168"><ele>272.0</ele><time>2026-04-19T07:55:06Z</time></trkpt><trkpt lat="44.87231936521637" lon="8.030243222040294"><ele>273.0</ele><time>2026-04-19T07:55:07Z</time></trkpt><trkpt lat="44.87229024485014" lon="8.030048867410715"><ele>274.0</ele><time>2026-04-19T07:55:09Z</time></trkpt><trkpt lat="44.872272576493394" lon="8.029933406656689"><ele>275.0</ele><time>2026-04-19T07:55:10Z</time></trkpt><trkpt lat="44.872210645657866" lon="8.029797661734412"><ele>275.6</ele><time>2026-04-19T07:55:12Z</time></trkpt><trkpt lat="44.872166453098785" lon="8.029733349085422"><ele>276.2</ele><time>2026-04-19T07:55:13Z</time></trkpt><trkpt lat="44.872117298871174" lon="8.029643879940027"><ele>276.8</ele><time>2026-04-19T07:55:15Z</time></trkpt><trkpt lat="44.87220796839269" lon="8.029494627740645"><ele>277.4</ele><time>2026-04-19T07:55:17Z</time></trkpt><trkpt lat="44.87226884154547" lon="8.029398459721147"><ele>278.0</ele><time>2026-04-19T07:55:18Z</time></trkpt><trkpt lat="44.872340745502875" lon="8.029275527156164"><ele>278.0</ele><time>2026-04-19T07:55:19Z</time></trkpt><trkpt lat="44.87243946863243" lon="8.029151189268454"><ele>278.0</ele><time>2026-04-19T07:55:20Z</time></trkpt><trkpt lat="44.87255209153964" lon="8.029099429125326"><ele>278.0</ele><time>2026-04-19T07:55:21Z</time></trkpt><trkpt lat="44.8726661943121" lon="8.029057600922178"><ele>278.0</ele><time>2026-04-19T07:55:22Z</time></trkpt><trkpt lat="44.87277495683615" lon="8.029025027564488"><ele>277.2</ele><time>2026-04-19T07:55:23Z</time></trkpt><trkpt lat="44.87288201187627" lon="8.028996205494538"><ele>276.4</ele><time>2026-04-19T07:55:24Z</time></trkpt><trkpt lat="44.87298542364824" lon="8.028972127040223"><ele>275.59999999999997</ele><time>2026-04-19T07:55:25Z</time></trkpt><trkpt lat="44.873097057948584" lon="8.028941670402604"><ele>274.8</ele><time>2026-04-19T07:55:26Z</time></trkpt><trkpt lat="44.87321657229033" lon="8.028934246448918"><ele>274.0</ele><time>2026-04-19T07:55:27Z</time></trkpt><trkpt lat="44.873334940906766" lon="8.028971209374745"><ele>273.0</ele><time>2026-04-19T07:55:28Z</time></trkpt><trkpt lat="44.87344864464152" lon="8.029021632574658"><ele>272.0</ele><time>2026-04-19T07:55:29Z</time></trkpt><trkpt lat="44.87355315084498" lon="8.029089204103734"><ele>271.0</ele><time>2026-04-19T07:55:30Z</time></trkpt><trkpt lat="44.87365588743775" lon="8.029167121984077"><ele>270.0</ele><time>2026-04-19T07:55:31Z</time></trkpt><trkpt lat="44.87376484068248" lon="8.029254420293336"><ele>273.75</ele><time>2026-04-19T07:55:32Z</time></trkpt><trkpt lat="44.873869516959424" lon="8.0293415259296"><ele>277.5</ele><time>2026-04-19T07:55:33Z</time></trkpt><trkpt lat="44.873974650844055" lon="8.029430921654063"><ele>281.25</ele><time>2026-04-19T07:55:34Z</time></trkpt><trkpt lat="44.874075171810084" lon="8.029520276227723"><ele>285.0</ele><time>2026-04-19T07:55:35Z</time></trkpt><trkpt lat="44.874177444118004" lon="8.029619244462227"><ele>285.0</ele><time>2026-04-19T07:55:36Z</time></trkpt><trkpt lat="44.87427808751884" lon="8.02971057995246"><ele>285.0</ele><time>2026-04-19T07:55:37Z</time></trkpt><trkpt lat="44.87437894172727" lon="8.029785671039043"><ele>285.0</ele><time>2026-04-19T07:55:38Z</time></trkpt><trkpt lat="44.87449562702849" lon="8.029827340121269"><ele>285.0</ele><time>2026-04-19T07:55:39Z</time></trkpt><trkpt lat="44.874603801838184" lon="8.029826703658017"><ele>285.0</ele><time>2026-04-19T07:55:40Z</time></trkpt><trkpt lat="44.87471706270401" lon="8.029864422720486"><ele>285.0</ele><time>2026-04-19T07:55:41Z</time></trkpt><trkpt lat="44.87482841881166" lon="8.029882344102825"><ele>285.0</ele><time>2026-04-19T07:55:42Z</time></trkpt><trkpt lat="44.874951059490606" lon="8.02988879423558"><ele>285.0</ele><time>2026-04-19T07:55:43Z</time></trkpt><trkpt lat="44.875068312690985" lon="8.029916834175777"><ele>284.0</ele><time>2026-04-19T07:55:44Z</time></trkpt><trkpt lat="44.87515374641759" lon="8.029944564278876"><ele>283.0</ele><time>2026-04-19T07:55:45Z</time></trkpt><trkpt lat="44.87523942094139" lon="8.0299652259985"><ele>282.0</ele><time>2026-04-19T07:55:46Z</time></trkpt><trkpt lat="44.87533111692948" lon="8.030004249477267"><ele>281.0</ele><time>2026-04-19T07:55:47Z</time></trkpt><trkpt lat="44.87542764748771" lon="8.030047383109014"><ele>280.0</ele><time>2026-04-19T07:55:48Z</time></trkpt><trkpt lat="44.87552894345548" lon="8.030097140781724"><ele>283.25</ele><time>2026-04-19T07:55:49Z</time></trkpt><trkpt lat="44.87562467007143" lon="8.030164672141455"><ele>286.5</ele><time>2026-04-19T07:55:50Z</time></trkpt><trkpt lat="44.8757322325075" lon="8.030233069056603"><ele>289.75</ele><time>2026-04-19T07:55:51Z</time></trkpt><trkpt lat="44.87583386657066" lon="8.030318503453474"><ele>293.0</ele><time>2026-04-19T07:55:52Z</time></trkpt><trkpt lat="44.8759355376164" lon="8.030405725915116"><ele>292.2</ele><time>2026-04-19T07:55:53Z</time></trkpt><trkpt lat="44.87603424528948" lon="8.030498500932532"><ele>291.4</ele><time>2026-04-19T07:55:54Z</time></trkpt><trkpt lat="44.87613088639161" lon="8.030576738838604"><ele>290.59999999999997</ele><time>2026-04-19T07:55:55Z</time></trkpt><trkpt lat="44.87622127743031" lon="8.030649138078125"><ele>289.8</ele><time>2026-04-19T07:55:56Z</time></trkpt><trkpt lat="44.87631704005579" lon="8.030715291215373"><ele>289.0</ele><time>2026-04-19T07:55:57Z</time></trkpt><trkpt lat="44.87641076194222" lon="8.030772073199069"><ele>289.25</ele><time>2026-04-19T07:55:58Z</time></trkpt><trkpt lat="44.87651557813958" lon="8.030842575773002"><ele>289.5</ele><time>2026-04-19T07:55:59Z</time></trkpt><trkpt lat="44.87662639506068" lon="8.030921134462291"><ele>289.75</ele><time>2026-04-19T07:56:00Z</time></trkpt><trkpt lat="44.87673161770744" lon="8.031004274808232"><ele>290.0</ele><time>2026-04-19T07:56:01Z</time></trkpt><trkpt lat="44.876821808402404" lon="8.03108416494341"><ele>286.0</ele><time>2026-04-19T07:56:02Z</time></trkpt><trkpt lat="44.87692232385568" lon="8.031179933181567"><ele>282.0</ele><time>2026-04-19T07:56:03Z</time></trkpt><trkpt lat="44.87699828774183" lon="8.031255214650214"><ele>278.0</ele><time>2026-04-19T07:56:04Z</time></trkpt><trkpt lat="44.87710453938078" lon="8.031341020788537"><ele>274.0</ele><time>2026-04-19T07:56:05Z</time></trkpt><trkpt lat="44.8771973870949" lon="8.031448268508235"><ele>274.0</ele><time>2026-04-19T07:56:06Z</time></trkpt><trkpt lat="44.87729690651906" lon="8.03154860124553"><ele>274.0</ele><time>2026-04-19T07:56:07Z</time></trkpt><trkpt lat="44.87739565534217" lon="8.031651711312607"><ele>274.0</ele><time>2026-04-19T07:56:08Z</time></trkpt><trkpt lat="44.87747297353095" lon="8.03175636922786"><ele>274.0</ele><time>2026-04-19T07:56:09Z</time></trkpt><trkpt lat="44.877544312072544" lon="8.031844864965612"><ele>274.0</ele><time>2026-04-19T07:56:10Z</time></trkpt><trkpt lat="44.8776098277443" lon="8.03192631761731"><ele>273.8</ele><time>2026-04-19T07:56:11Z</time></trkpt><trkpt lat="44.877710733466955" lon="8.0320340361639"><ele>273.59999999999997</ele><time>2026-04-19T07:56:18Z</time></trkpt><trkpt lat="44.87780235654894" lon="8.032122721192186"><ele>273.4</ele><time>2026-04-19T07:56:19Z</time></trkpt><trkpt lat="44.877868099171884" lon="8.032176570863351"><ele>273.2</ele><time>2026-04-19T07:56:20Z</time></trkpt><trkpt lat="44.877930412937445" lon="8.032214751214942"><ele>273.0</ele><time>2026-04-19T07:56:21Z</time></trkpt><trkpt lat="44.87803829854505" lon="8.032232789150092"><ele>273.0</ele><time>2026-04-19T07:56:22Z</time></trkpt><trkpt lat="44.87813684991744" lon="8.032208545476237"><ele>273.0</ele><time>2026-04-19T07:56:23Z</time></trkpt><trkpt lat="44.87822699725255" lon="8.032192524610153"><ele>273.0</ele><time>2026-04-19T07:56:25Z</time></trkpt><trkpt lat="44.878261819141755" lon="8.031480397636395"><ele>270.6</ele><time>2026-04-19T07:56:27Z</time></trkpt><trkpt lat="44.8783120713414" lon="8.031362810058258"><ele>268.20000000000005</ele><time>2026-04-19T07:56:28Z</time></trkpt><trkpt lat="44.8783570731601" lon="8.031220655919629"><ele>265.8</ele><time>2026-04-19T07:56:29Z</time></trkpt><trkpt lat="44.87837664480951" lon="8.031081624852565"><ele>263.40000000000003</ele><time>2026-04-19T07:56:31Z</time></trkpt><trkpt lat="44.878405008119735" lon="8.03089762983823"><ele>261.0</ele><time>2026-04-19T07:56:33Z</time></trkpt><trkpt lat="44.87839674499528" lon="8.030803246074651"><ele>258.6666666666667</ele><time>2026-04-19T07:56:34Z</time></trkpt><trkpt lat="44.87836282344144" lon="8.030727278890762"><ele>256.3333333333333</ele><time>2026-04-19T07:56:35Z</time></trkpt><trkpt lat="44.878274267749134" lon="8.030599180162723"><ele>254.0</ele><time>2026-04-19T07:56:37Z</time></trkpt><trkpt lat="44.87822619415066" lon="8.030541665709142"><ele>251.66666666666666</ele><time>2026-04-19T07:56:38Z</time></trkpt><trkpt lat="44.878225521205685" lon="8.030429514062526"><ele>249.33333333333331</ele><time>2026-04-19T07:56:40Z</time></trkpt><trkpt lat="44.87824656394138" lon="8.03034526047864"><ele>247.0</ele><time>2026-04-19T07:56:41Z</time></trkpt><trkpt lat="44.878283029821716" lon="8.030267920577469"><ele>247.0</ele><time>2026-04-19T07:56:42Z</time></trkpt><trkpt lat="44.878297472511385" lon="8.030145709720717"><ele>247.0</ele><time>2026-04-19T07:56:43Z</time></trkpt><trkpt lat="44.87832767726812" lon="8.030020093683717"><ele>247.0</ele><time>2026-04-19T07:56:44Z</time></trkpt><trkpt lat="44.87838626638211" lon="8.029925685914804"><ele>247.0</ele><time>2026-04-19T07:56:45Z</time></trkpt><trkpt lat="44.87843211725198" lon="8.02980138986018"><ele>247.0</ele><time>2026-04-19T07:56:46Z</time></trkpt><trkpt lat="44.878465605918414" lon="8.029695142133178"><ele>244.16666666666666</ele><time>2026-04-19T07:56:47Z</time></trkpt><trkpt lat="44.87849322152344" lon="8.029605683549272"><ele>241.33333333333331</ele><time>2026-04-19T07:56:48Z</time></trkpt><trkpt lat="44.878517730706676" lon="8.02952150564213"><ele>238.5</ele><time>2026-04-19T07:56:49Z</time></trkpt><trkpt lat="44.87856698096475" lon="8.029379004323863"><ele>235.66666666666669</ele><time>2026-04-19T07:56:51Z</time></trkpt><trkpt lat="44.87861060167701" lon="8.029252865466976"><ele>232.83333333333334</ele><time>2026-04-19T07:56:53Z</time></trkpt><trkpt lat="44.87858940333653" lon="8.02914608399853"><ele>230.0</ele><time>2026-04-19T07:56:55Z</time></trkpt><trkpt lat="44.878617620157854" lon="8.028951016965136"><ele>229.33333333333334</ele><time>2026-04-19T07:56:57Z</time></trkpt><trkpt lat="44.87864029465524" lon="8.028796561759352"><ele>228.66666666666669</ele><time>2026-04-19T07:56:58Z</time></trkpt><trkpt lat="44.87865426240351" lon="8.028669634369841"><ele>228.0</ele><time>2026-04-19T07:56:59Z</time></trkpt><trkpt lat="44.878676196282186" lon="8.02857046793113"><ele>227.33333333333331</ele><time>2026-04-19T07:57:00Z</time></trkpt><trkpt lat="44.8786920098081" lon="8.028459968170687"><ele>226.66666666666666</ele><time>2026-04-19T07:57:01Z</time></trkpt><trkpt lat="44.87874461826535" lon="8.028359608880779"><ele>226.0</ele><time>2026-04-19T07:57:02Z</time></trkpt><trkpt lat="44.87879930054513" lon="8.028269605879922"><ele>228.60000000000002</ele><time>2026-04-19T07:57:03Z</time></trkpt><trkpt lat="44.87882961261995" lon="8.028151710053983"><ele>231.20000000000002</ele><time>2026-04-19T07:57:04Z</time></trkpt><trkpt lat="44.878862717617665" lon="8.02802334604048"><ele>233.79999999999998</ele><time>2026-04-19T07:57:06Z</time></trkpt><trkpt lat="44.87896956635245" lon="8.027911438158723"><ele>236.39999999999998</ele><time>2026-04-19T07:57:08Z</time></trkpt><trkpt lat="44.8790377144556" lon="8.027905846934821"><ele>239.0</ele><time>2026-04-19T07:57:09Z</time></trkpt><trkpt lat="44.87917599983815" lon="8.027950891501693"><ele>239.0</ele><time>2026-04-19T07:57:11Z</time></trkpt><trkpt lat="44.879237458752776" lon="8.027987552884085"><ele>239.0</ele><time>2026-04-19T07:57:12Z</time></trkpt><trkpt lat="44.879321928203915" lon="8.028061597626587"><ele>239.0</ele><time>2026-04-19T07:57:13Z</time></trkpt><trkpt lat="44.87947113271487" lon="8.028157758987252"><ele>239.0</ele><time>2026-04-19T07:57:15Z</time></trkpt><trkpt lat="44.879584072034845" lon="8.028213650146318"><ele>238.0</ele><time>2026-04-19T07:57:16Z</time></trkpt><trkpt lat="44.87967552069167" lon="8.028281123210727"><ele>236.99999999999997</ele><time>2026-04-19T07:57:17Z</time></trkpt><trkpt lat="44.8797500873197" lon="8.028342218160049"><ele>235.99999999999997</ele><time>2026-04-19T07:57:18Z</time></trkpt><trkpt lat="44.87985225249484" lon="8.028454559267711"><ele>235.0</ele><time>2026-04-19T07:57:20Z</time></trkpt><trkpt lat="44.87992605085107" lon="8.028433771865043"><ele>234.0</ele><time>2026-04-19T07:57:21Z</time></trkpt><trkpt lat="44.880013560691914" lon="8.028369363838834"><ele>231.2</ele><time>2026-04-19T07:57:22Z</time></trkpt><trkpt lat="44.880109717390425" lon="8.028268327218584"><ele>228.39999999999998</ele><time>2026-04-19T07:57:23Z</time></trkpt><trkpt lat="44.880200316739625" lon="8.028210795197046"><ele>225.6</ele><time>2026-04-19T07:57:24Z</time></trkpt><trkpt lat="44.88028688489786" lon="8.028179852658981"><ele>222.8</ele><time>2026-04-19T07:57:25Z</time></trkpt><trkpt lat="44.88037240103072" lon="8.02822699715328"><ele>220.0</ele><time>2026-04-19T07:57:27Z</time></trkpt><trkpt lat="44.88047887240728" lon="8.028300903011562"><ele>220.0</ele><time>2026-04-19T07:57:29Z</time></trkpt><trkpt lat="44.88054347399694" lon="8.028249276558972"><ele>220.0</ele><time>2026-04-19T07:57:30Z</time></trkpt><trkpt lat="44.880640947570704" lon="8.028127603342305"><ele>220.0</ele><time>2026-04-19T07:57:32Z</time></trkpt><trkpt lat="44.88068573731638" lon="8.027990536426055"><ele>220.0</ele><time>2026-04-19T07:57:33Z</time></trkpt><trkpt lat="44.880742059148304" lon="8.027900871424096"><ele>220.0</ele><time>2026-04-19T07:57:35Z</time></trkpt><trkpt lat="44.880807556843216" lon="8.027969693545124"><ele>219.99999999999997</ele><time>2026-04-19T07:57:36Z</time></trkpt><trkpt lat="44.88086427111475" lon="8.02804495988936"><ele>220.0</ele><time>2026-04-19T07:57:37Z</time></trkpt><trkpt lat="44.880920548902424" lon="8.028160696853341"><ele>220.0</ele><time>2026-04-19T07:57:38Z</time></trkpt><trkpt lat="44.88097639293766" lon="8.028300758336187"><ele>220.0</ele><time>2026-04-19T07:57:39Z</time></trkpt><trkpt lat="44.88101833845034" lon="8.028395632371558"><ele>219.99999999999997</ele><time>2026-04-19T07:57:40Z</time></trkpt><trkpt lat="44.88107200491237" lon="8.028465853400608"><ele>220.0</ele><time>2026-04-19T07:57:41Z</time></trkpt><trkpt lat="44.88113019374067" lon="8.028551323751882"><ele>222.33333333333331</ele><time>2026-04-19T07:57:42Z</time></trkpt><trkpt lat="44.88118257927376" lon="8.028614014601816"><ele>224.66666666666666</ele><time>2026-04-19T07:57:43Z</time></trkpt><trkpt lat="44.88129465244915" lon="8.028715954170861"><ele>227.0</ele><time>2026-04-19T07:57:45Z</time></trkpt><trkpt lat="44.881360328003275" lon="8.02875096714624"><ele>229.33333333333331</ele><time>2026-04-19T07:57:46Z</time></trkpt><trkpt lat="44.88141250859595" lon="8.02881378367055"><ele>231.66666666666666</ele><time>2026-04-19T07:57:47Z</time></trkpt><trkpt lat="44.88146838314882" lon="8.028866139829747"><ele>234.0</ele><time>2026-04-19T07:57:48Z</time></trkpt><trkpt lat="44.88153463809481" lon="8.02891638860398"><ele>234.0</ele><time>2026-04-19T07:57:49Z</time></trkpt><trkpt lat="44.88159641170984" lon="8.028968460047055"><ele>233.99999999999997</ele><time>2026-04-19T07:57:50Z</time></trkpt><trkpt lat="44.881702789511735" lon="8.029129546161805"><ele>233.99999999999997</ele><time>2026-04-19T07:57:52Z</time></trkpt><trkpt lat="44.88175666003501" lon="8.029203518129876"><ele>234.0</ele><time>2026-04-19T07:57:53Z</time></trkpt><trkpt lat="44.881815980560695" lon="8.029264257427855"><ele>234.0</ele><time>2026-04-19T07:57:54Z</time></trkpt><trkpt lat="44.88185532981837" lon="8.0293826175023"><ele>235.6</ele><time>2026-04-19T07:57:56Z</time></trkpt><trkpt lat="44.88181165739343" lon="8.029531187595797"><ele>237.2</ele><time>2026-04-19T07:57:58Z</time></trkpt><trkpt lat="44.881775323522795" lon="8.029672416250602"><ele>238.79999999999998</ele><time>2026-04-19T07:57:59Z</time></trkpt><trkpt lat="44.881752419664046" lon="8.029791077107793"><ele>240.39999999999998</ele><time>2026-04-19T07:58:00Z</time></trkpt><trkpt lat="44.88173062217914" lon="8.029895560452667"><ele>242.0</ele><time>2026-04-19T07:58:01Z</time></trkpt><trkpt lat="44.8817961314043" lon="8.029868191709179"><ele>244.0</ele><time>2026-04-19T07:58:06Z</time></trkpt><trkpt lat="44.88184880914421" lon="8.029751847901267"><ele>246.0</ele><time>2026-04-19T07:58:08Z</time></trkpt><trkpt lat="44.88191781946468" lon="8.029594788277187"><ele>248.0</ele><time>2026-04-19T07:58:09Z</time></trkpt><trkpt lat="44.88198870701309" lon="8.029444855455122"><ele>250.0</ele><time>2026-04-19T07:58:10Z</time></trkpt><trkpt lat="44.88205151093868" lon="8.029307091927166"><ele>250.0</ele><time>2026-04-19T07:58:11Z</time></trkpt><trkpt lat="44.882124785784555" lon="8.029213804948395"><ele>250.0</ele><time>2026-04-19T07:58:12Z</time></trkpt><trkpt lat="44.88219760910373" lon="8.02909714919587"><ele>250.0</ele><time>2026-04-19T07:58:13Z</time></trkpt><trkpt lat="44.882208463192015" lon="8.028987354486945"><ele>250.0</ele><time>2026-04-19T07:58:14Z</time></trkpt><trkpt lat="44.88218431917331" lon="8.02883994906593"><ele>250.0</ele><time>2026-04-19T07:58:16Z</time></trkpt><trkpt lat="44.882126690500286" lon="8.028753619713601"><ele>250.85714285714283</ele><time>2026-04-19T07:58:17Z</time></trkpt><trkpt lat="44.88209451664396" lon="8.028666228786406"><ele>251.71428571428572</ele><time>2026-04-19T07:58:18Z</time></trkpt><trkpt lat="44.88209622049165" lon="8.028573751737987"><ele>252.57142857142856</ele><time>2026-04-19T07:58:19Z</time></trkpt><trkpt lat="44.88213342600207" lon="8.028472547296113"><ele>253.42857142857142</ele><time>2026-04-19T07:58:21Z</time></trkpt><trkpt lat="44.882195343786236" lon="8.028441800714972"><ele>254.28571428571428</ele><time>2026-04-19T07:58:22Z</time></trkpt><trkpt lat="44.88226411835398" lon="8.028453024178596"><ele>255.14285714285714</ele><time>2026-04-19T07:58:23Z</time></trkpt><trkpt lat="44.88219020871795" lon="8.028409201082816"><ele>256.0</ele><time>2026-04-19T07:58:29Z</time></trkpt><trkpt lat="44.88212831310793" lon="8.02838775562319"><ele>256.0</ele><time>2026-04-19T07:58:31Z</time></trkpt><trkpt lat="44.882065153140196" lon="8.028311257779347"><ele>256.0</ele><time>2026-04-19T07:58:33Z</time></trkpt><trkpt lat="44.88213398124216" lon="8.028181837702993"><ele>256.0</ele><time>2026-04-19T07:58:35Z</time></trkpt><trkpt lat="44.88218506248699" lon="8.028115742865856"><ele>256.0</ele><time>2026-04-19T07:58:36Z</time></trkpt><trkpt lat="44.88223429219989" lon="8.027973665913521"><ele>256.0</ele><time>2026-04-19T07:58:38Z</time></trkpt><trkpt lat="44.88228168351297" lon="8.02789890874235"><ele>254.33333333333331</ele><time>2026-04-19T07:58:39Z</time></trkpt><trkpt lat="44.882325032091366" lon="8.027829731340164"><ele>252.66666666666666</ele><time>2026-04-19T07:58:40Z</time></trkpt><trkpt lat="44.88239238576639" lon="8.027723281556533"><ele>251.0</ele><time>2026-04-19T07:58:42Z</time></trkpt><trkpt lat="44.88246549846682" lon="8.027788857554228"><ele>249.33333333333331</ele><time>2026-04-19T07:58:44Z</time></trkpt><trkpt lat="44.882552983766615" lon="8.027727281563328"><ele>247.66666666666666</ele><time>2026-04-19T07:58:46Z</time></trkpt><trkpt lat="44.882641015394995" lon="8.027685929748953"><ele>246.0</ele><time>2026-04-19T07:58:47Z</time></trkpt><trkpt lat="44.88271487976647" lon="8.027675989495352"><ele>246.0</ele><time>2026-04-19T07:58:48Z</time></trkpt><trkpt lat="44.88276971991871" lon="8.027613924557595"><ele>246.0</ele><time>2026-04-19T07:58:50Z</time></trkpt><trkpt lat="44.88277547959277" lon="8.027501192159454"><ele>246.0</ele><time>2026-04-19T07:58:52Z</time></trkpt><trkpt lat="44.88280119934858" lon="8.027335132912148"><ele>246.0</ele><time>2026-04-19T07:58:54Z</time></trkpt><trkpt lat="44.88280726559355" lon="8.027229522436341"><ele>246.0</ele><time>2026-04-19T07:58:56Z</time></trkpt><trkpt lat="44.88283248282373" lon="8.02712365677664"><ele>246.0</ele><time>2026-04-19T07:58:59Z</time></trkpt><trkpt lat="44.88284192883465" lon="8.027000978667056"><ele>243.16666666666666</ele><time>2026-04-19T07:59:01Z</time></trkpt><trkpt lat="44.882834902635736" lon="8.026887243656851"><ele>240.33333333333331</ele><time>2026-04-19T07:59:03Z</time></trkpt><trkpt lat="44.8828378524668" lon="8.026789740549212"><ele>237.5</ele><time>2026-04-19T07:59:04Z</time></trkpt><trkpt lat="44.882828071288046" lon="8.026658598701909"><ele>234.66666666666666</ele><time>2026-04-19T07:59:06Z</time></trkpt><trkpt lat="44.8828028855699" lon="8.026562363767136"><ele>231.83333333333331</ele><time>2026-04-19T07:59:07Z</time></trkpt><trkpt lat="44.88277951606226" lon="8.026417184340847"><ele>229.0</ele><time>2026-04-19T07:59:09Z</time></trkpt><trkpt lat="44.88275699923568" lon="8.02630820314009"><ele>226.0</ele><time>2026-04-19T07:59:11Z</time></trkpt><trkpt lat="44.8826701511202" lon="8.026284656630386"><ele>222.99999999999997</ele><time>2026-04-19T07:59:14Z</time></trkpt><trkpt lat="44.88261466045548" lon="8.026209466567702"><ele>219.99999999999997</ele><time>2026-04-19T07:59:16Z</time></trkpt><trkpt lat="44.88258962527743" lon="8.026073150271868"><ele>217.0</ele><time>2026-04-19T07:59:18Z</time></trkpt><trkpt lat="44.88251555393635" lon="8.025976123470723"><ele>214.0</ele><time>2026-04-19T07:59:20Z</time></trkpt><trkpt lat="44.882430621345996" lon="8.025927116284754"><ele>213.2</ele><time>2026-04-19T07:59:22Z</time></trkpt><trkpt lat="44.88248275004015" lon="8.025803267673052"><ele>212.39999999999998</ele><time>2026-04-19T07:59:25Z</time></trkpt><trkpt lat="44.8824993118245" lon="8.025713569622717"><ele>211.6</ele><time>2026-04-19T07:59:26Z</time></trkpt><trkpt lat="44.882511485114556" lon="8.025593333350352"><ele>210.8</ele><time>2026-04-19T07:59:28Z</time></trkpt><trkpt lat="44.8825986273591" lon="8.025496915104261"><ele>210.0</ele><time>2026-04-19T07:59:30Z</time></trkpt><trkpt lat="44.88268381521857" lon="8.025405287859751"><ele>210.0</ele><time>2026-04-19T07:59:32Z</time></trkpt><trkpt lat="44.882762886024416" lon="8.025346813327548"><ele>210.0</ele><time>2026-04-19T07:59:34Z</time></trkpt><trkpt lat="44.88283014190293" lon="8.025255661574928"><ele>210.0</ele><time>2026-04-19T07:59:37Z</time></trkpt><trkpt lat="44.88291813276954" lon="8.025214122195989"><ele>210.0</ele><time>2026-04-19T07:59:39Z</time></trkpt><trkpt lat="44.88299548349617" lon="8.025150265714036"><ele>210.0</ele><time>2026-04-19T07:59:40Z</time></trkpt><trkpt lat="44.88349860212794" lon="8.025021726164816"><ele>210.2</ele><time>2026-04-19T07:59:42Z</time></trkpt><trkpt lat="44.883583685032185" lon="8.024984890801056"><ele>210.4</ele><time>2026-04-19T07:59:43Z</time></trkpt><trkpt lat="44.88371549390898" lon="8.025012860340777"><ele>210.60000000000002</ele><time>2026-04-19T07:59:44Z</time></trkpt><trkpt lat="44.883849205658734" lon="8.02503221607531"><ele>210.8</ele><time>2026-04-19T07:59:45Z</time></trkpt><trkpt lat="44.883940233032746" lon="8.025015090279663"><ele>211.0</ele><time>2026-04-19T07:59:46Z</time></trkpt><trkpt lat="44.88408713140055" lon="8.024902788105837"><ele>211.0</ele><time>2026-04-19T07:59:48Z</time></trkpt><trkpt lat="44.88421426481352" lon="8.024768145096683"><ele>211.0</ele><time>2026-04-19T07:59:49Z</time></trkpt><trkpt lat="44.88433602804029" lon="8.024707964639992"><ele>211.0</ele><time>2026-04-19T07:59:50Z</time></trkpt><trkpt lat="44.88442359420695" lon="8.02465753942935"><ele>211.0</ele><time>2026-04-19T07:59:51Z</time></trkpt><trkpt lat="44.88451863767463" lon="8.02456458296795"><ele>210.20000000000002</ele><time>2026-04-19T07:59:52Z</time></trkpt><trkpt lat="44.88455725150052" lon="8.024489605340614"><ele>209.4</ele><time>2026-04-19T07:59:53Z</time></trkpt><trkpt lat="44.88465243961884" lon="8.024380287046002"><ele>208.6</ele><time>2026-04-19T07:59:54Z</time></trkpt><trkpt lat="44.88472692959898" lon="8.024260861902395"><ele>207.8</ele><time>2026-04-19T07:59:55Z</time></trkpt><trkpt lat="44.88480435894001" lon="8.024126792579604"><ele>207.0</ele><time>2026-04-19T07:59:56Z</time></trkpt><trkpt lat="44.88489258830352" lon="8.024012307337431"><ele>207.0</ele><time>2026-04-19T07:59:57Z</time></trkpt><trkpt lat="44.88498058715292" lon="8.023894282165127"><ele>207.0</ele><time>2026-04-19T07:59:58Z</time></trkpt><trkpt lat="44.88503198123691" lon="8.023799812655843"><ele>207.0</ele><time>2026-04-19T07:59:59Z</time></trkpt><trkpt lat="44.88509206176197" lon="8.023674626275799"><ele>207.0</ele><time>2026-04-19T08:00:00Z</time></trkpt><trkpt lat="44.88514156235827" lon="8.023533783004943"><ele>207.0</ele><time>2026-04-19T08:00:01Z</time></trkpt><trkpt lat="44.88519778778596" lon="8.023390230130401"><ele>205.0</ele><time>2026-04-19T08:00:02Z</time></trkpt><trkpt lat="44.885268199412835" lon="8.023245079323436"><ele>203.0</ele><time>2026-04-19T08:00:03Z</time></trkpt><trkpt lat="44.885355948728005" lon="8.023123197919833"><ele>201.0</ele><time>2026-04-19T08:00:04Z</time></trkpt><trkpt lat="44.88543786722673" lon="8.022988166441365"><ele>199.0</ele><time>2026-04-19T08:00:05Z</time></trkpt><trkpt lat="44.885520581875895" lon="8.022828946313165"><ele>199.0</ele><time>2026-04-19T08:00:06Z</time></trkpt><trkpt lat="44.885599865280334" lon="8.022738084754698"><ele>199.0</ele><time>2026-04-19T08:00:07Z</time></trkpt><trkpt lat="44.8856839513288" lon="8.022625042926613"><ele>199.0</ele><time>2026-04-19T08:00:08Z</time></trkpt><trkpt lat="44.88574929484933" lon="8.022458844701541"><ele>199.0</ele><time>2026-04-19T08:00:09Z</time></trkpt><trkpt lat="44.88580991676162" lon="8.022309115193291"><ele>199.0</ele><time>2026-04-19T08:00:10Z</time></trkpt><trkpt lat="44.88586552947535" lon="8.022177806855593"><ele>199.0</ele><time>2026-04-19T08:00:11Z</time></trkpt><trkpt lat="44.88591243557824" lon="8.022064898287876"><ele>199.0</ele><time>2026-04-19T08:00:13Z</time></trkpt><trkpt lat="44.88595955476206" lon="8.021977750473381"><ele>199.0</ele><time>2026-04-19T08:00:15Z</time></trkpt><trkpt lat="44.88588409378621" lon="8.021953066000309"><ele>199.0</ele><time>2026-04-19T08:00:17Z</time></trkpt><trkpt lat="44.885763404154204" lon="8.021892260209166"><ele>198.75</ele><time>2026-04-19T08:00:19Z</time></trkpt><trkpt lat="44.88569073572604" lon="8.021820466055019"><ele>198.5</ele><time>2026-04-19T08:00:20Z</time></trkpt><trkpt lat="44.8855952711713" lon="8.021725367427933"><ele>198.25</ele><time>2026-04-19T08:00:21Z</time></trkpt><trkpt lat="44.88546792051431" lon="8.02162592414046"><ele>198.0</ele><time>2026-04-19T08:00:22Z</time></trkpt><trkpt lat="44.88533093070328" lon="8.021535383860638"><ele>197.8</ele><time>2026-04-19T08:00:23Z</time></trkpt><trkpt lat="44.88520789602516" lon="8.021452522567177"><ele>197.60000000000002</ele><time>2026-04-19T08:00:24Z</time></trkpt><trkpt lat="44.885132235344926" lon="8.021401484232547"><ele>197.39999999999998</ele><time>2026-04-19T08:00:25Z</time></trkpt><trkpt lat="44.88504540891027" lon="8.021350172969786"><ele>197.2</ele><time>2026-04-19T08:00:26Z</time></trkpt><trkpt lat="44.88496083038091" lon="8.02131003898256"><ele>197.0</ele><time>2026-04-19T08:00:27Z</time></trkpt><trkpt lat="44.88487844473875" lon="8.021306004294178"><ele>199.39999999999998</ele><time>2026-04-19T08:00:28Z</time></trkpt><trkpt lat="44.88477015890509" lon="8.021318099124763"><ele>201.79999999999998</ele><time>2026-04-19T08:00:29Z</time></trkpt><trkpt lat="44.884669677909635" lon="8.021341753440415"><ele>204.2</ele><time>2026-04-19T08:00:30Z</time></trkpt><trkpt lat="44.88456708868661" lon="8.021364056831745"><ele>206.6</ele><time>2026-04-19T08:00:31Z</time></trkpt><trkpt lat="44.88445572782423" lon="8.02135679042345"><ele>209.0</ele><time>2026-04-19T08:00:32Z</time></trkpt><trkpt lat="44.88434537825494" lon="8.021327944015"><ele>210.0</ele><time>2026-04-19T08:00:33Z</time></trkpt><trkpt lat="44.88426006798864" lon="8.021311147410838"><ele>211.0</ele><time>2026-04-19T08:00:34Z</time></trkpt><trkpt lat="44.8841763701272" lon="8.021325430552869"><ele>211.99999999999997</ele><time>2026-04-19T08:00:35Z</time></trkpt><trkpt lat="44.884085856363754" lon="8.02132412016106"><ele>213.0</ele><time>2026-04-19T08:00:36Z</time></trkpt><trkpt lat="44.8839764495298" lon="8.02139283946599"><ele>214.0</ele><time>2026-04-19T08:00:37Z</time></trkpt><trkpt lat="44.88386740055912" lon="8.02141593800523"><ele>214.0</ele><time>2026-04-19T08:00:38Z</time></trkpt><trkpt lat="44.883756287300685" lon="8.021471931579741"><ele>213.99999999999997</ele><time>2026-04-19T08:00:39Z</time></trkpt><trkpt lat="44.883678423960845" lon="8.021539431972826"><ele>213.99999999999997</ele><time>2026-04-19T08:00:40Z</time></trkpt><trkpt lat="44.88359622921588" lon="8.021641193875382"><ele>214.0</ele><time>2026-04-19T08:00:41Z</time></trkpt><trkpt lat="44.88352177331033" lon="8.021691596339997"><ele>214.0</ele><time>2026-04-19T08:00:42Z</time></trkpt><trkpt lat="44.8834154305571" lon="8.021744785613624"><ele>213.75</ele><time>2026-04-19T08:00:43Z</time></trkpt><trkpt lat="44.88330531707779" lon="8.021760724924876"><ele>213.5</ele><time>2026-04-19T08:00:44Z</time></trkpt><trkpt lat="44.883201093619896" lon="8.021774540553858"><ele>213.25</ele><time>2026-04-19T08:00:45Z</time></trkpt><trkpt lat="44.883092198583824" lon="8.021832080080216"><ele>213.0</ele><time>2026-04-19T08:00:46Z</time></trkpt><trkpt lat="44.88295530287467" lon="8.021864783905418"><ele>213.0</ele><time>2026-04-19T08:00:47Z</time></trkpt><trkpt lat="44.88285996839788" lon="8.021906114970921"><ele>213.0</ele><time>2026-04-19T08:00:48Z</time></trkpt><trkpt lat="44.88276599658564" lon="8.021942744440995"><ele>213.0</ele><time>2026-04-19T08:00:49Z</time></trkpt><trkpt lat="44.882683027126006" lon="8.021962063294461"><ele>213.0</ele><time>2026-04-19T08:00:50Z</time></trkpt><trkpt lat="44.882584666079005" lon="8.02200095297607"><ele>213.0</ele><time>2026-04-19T08:00:51Z</time></trkpt><trkpt lat="44.88248745701941" lon="8.022037919697716"><ele>214.0</ele><time>2026-04-19T08:00:52Z</time></trkpt><trkpt lat="44.882365244478486" lon="8.022022251911684"><ele>215.0</ele><time>2026-04-19T08:00:53Z</time></trkpt><trkpt lat="44.88226798289229" lon="8.021968290456499"><ele>216.0</ele><time>2026-04-19T08:00:54Z</time></trkpt><trkpt lat="44.88220066118023" lon="8.021898898747933"><ele>217.0</ele><time>2026-04-19T08:00:55Z</time></trkpt><trkpt lat="44.88213266561587" lon="8.021849168098436"><ele>218.0</ele><time>2026-04-19T08:00:56Z</time></trkpt><trkpt lat="44.882049739555114" lon="8.021800472492297"><ele>218.0</ele><time>2026-04-19T08:00:57Z</time></trkpt><trkpt lat="44.88194109655151" lon="8.021722253013051"><ele>218.0</ele><time>2026-04-19T08:00:58Z</time></trkpt><trkpt lat="44.88185384513669" lon="8.02169211626096"><ele>218.0</ele><time>2026-04-19T08:00:59Z</time></trkpt><trkpt lat="44.88173593218995" lon="8.021649463644733"><ele>218.0</ele><time>2026-04-19T08:01:00Z</time></trkpt><trkpt lat="44.88163944649369" lon="8.021537427806637"><ele>221.33333333333334</ele><time>2026-04-19T08:01:02Z</time></trkpt><trkpt lat="44.88163252747333" lon="8.021397675568233"><ele>224.66666666666669</ele><time>2026-04-19T08:01:04Z</time></trkpt><trkpt lat="44.881567182033486" lon="8.02131401197397"><ele>228.0</ele><time>2026-04-19T08:01:05Z</time></trkpt><trkpt lat="44.881508155087296" lon="8.021256081240308"><ele>231.33333333333331</ele><time>2026-04-19T08:01:06Z</time></trkpt><trkpt lat="44.88144932803378" lon="8.021220678162258"><ele>234.66666666666666</ele><time>2026-04-19T08:01:07Z</time></trkpt><trkpt lat="44.881376588152335" lon="8.021184643420822"><ele>238.0</ele><time>2026-04-19T08:01:08Z</time></trkpt><trkpt lat="44.881291538241726" lon="8.021229478719732"><ele>238.0</ele><time>2026-04-19T08:01:09Z</time></trkpt><trkpt lat="44.881175148613956" lon="8.02117860658263"><ele>238.0</ele><time>2026-04-19T08:01:11Z</time></trkpt><trkpt lat="44.8810747127225" lon="8.021181033611883"><ele>238.0</ele><time>2026-04-19T08:01:13Z</time></trkpt><trkpt lat="44.88097649242759" lon="8.021239095983299"><ele>238.0</ele><time>2026-04-19T08:01:15Z</time></trkpt><trkpt lat="44.880846994075604" lon="8.021264065421272"><ele>240.16666666666666</ele><time>2026-04-19T08:01:17Z</time></trkpt><trkpt lat="44.88076827639399" lon="8.021287262744181"><ele>242.33333333333331</ele><time>2026-04-19T08:01:18Z</time></trkpt><trkpt lat="44.88069850484294" lon="8.021301094978556"><ele>244.5</ele><time>2026-04-19T08:01:19Z</time></trkpt><trkpt lat="44.8806281948611" lon="8.021338884098023"><ele>246.66666666666669</ele><time>2026-04-19T08:01:20Z</time></trkpt><trkpt lat="44.88055452438856" lon="8.021362970851564"><ele>248.83333333333334</ele><time>2026-04-19T08:01:21Z</time></trkpt><trkpt lat="44.880471139506696" lon="8.021383660672253"><ele>251.0</ele><time>2026-04-19T08:01:23Z</time></trkpt><trkpt lat="44.880402925622406" lon="8.02137134268964"><ele>251.0</ele><time>2026-04-19T08:01:24Z</time></trkpt><trkpt lat="44.88032144636565" lon="8.021364246556924"><ele>251.00000000000003</ele><time>2026-04-19T08:01:25Z</time></trkpt><trkpt lat="44.880250500728856" lon="8.02133754210835"><ele>251.00000000000003</ele><time>2026-04-19T08:01:26Z</time></trkpt><trkpt lat="44.88017688936036" lon="8.021331443316036"><ele>251.0</ele><time>2026-04-19T08:01:27Z</time></trkpt><trkpt lat="44.8800336890467" lon="8.021343657519825"><ele>251.0</ele><time>2026-04-19T08:01:29Z</time></trkpt><trkpt lat="44.879951473306924" lon="8.021360123993373"><ele>253.4</ele><time>2026-04-19T08:01:30Z</time></trkpt><trkpt lat="44.879887411809406" lon="8.021361844851576"><ele>255.8</ele><time>2026-04-19T08:01:31Z</time></trkpt><trkpt lat="44.879807108560115" lon="8.021268009989452"><ele>258.20000000000005</ele><time>2026-04-19T08:01:33Z</time></trkpt><trkpt lat="44.87986551539322" lon="8.021125753799739"><ele>260.6</ele><time>2026-04-19T08:01:35Z</time></trkpt><trkpt lat="44.87991838813851" lon="8.021006090996615"><ele>263.0</ele><time>2026-04-19T08:01:37Z</time></trkpt><trkpt lat="44.87992128432847" lon="8.020907036746877"><ele>261.8</ele><time>2026-04-19T08:01:39Z</time></trkpt><trkpt lat="44.87992727040724" lon="8.0207804605297"><ele>260.6</ele><time>2026-04-19T08:01:43Z</time></trkpt><trkpt lat="44.8800100108991" lon="8.020667126162149"><ele>259.4</ele><time>2026-04-19T08:01:46Z</time></trkpt><trkpt lat="44.880108078498345" lon="8.020512823536372"><ele>258.2</ele><time>2026-04-19T08:01:49Z</time></trkpt><trkpt lat="44.88010340223152" lon="8.020420456489735"><ele>257.0</ele><time>2026-04-19T08:01:50Z</time></trkpt><trkpt lat="44.880060564266834" lon="8.020327388393303"><ele>256.6</ele><time>2026-04-19T08:01:51Z</time></trkpt><trkpt lat="44.88001659250515" lon="8.020204134921885"><ele>256.2</ele><time>2026-04-19T08:01:52Z</time></trkpt><trkpt lat="44.87993278752444" lon="8.020125462711588"><ele>255.8</ele><time>2026-04-19T08:01:53Z</time></trkpt><trkpt lat="44.87983919709328" lon="8.02004908564377"><ele>255.4</ele><time>2026-04-19T08:01:54Z</time></trkpt><trkpt lat="44.879741446482974" lon="8.019980054875745"><ele>255.0</ele><time>2026-04-19T08:01:55Z</time></trkpt><trkpt lat="44.879645327829095" lon="8.019886858479339"><ele>252.2</ele><time>2026-04-19T08:01:56Z</time></trkpt><trkpt lat="44.87956597928774" lon="8.019792748128483"><ele>249.4</ele><time>2026-04-19T08:01:57Z</time></trkpt><trkpt lat="44.87950008641785" lon="8.019691058613477"><ele>246.60000000000002</ele><time>2026-04-19T08:01:58Z</time></trkpt><trkpt lat="44.879447136237445" lon="8.019593119958051"><ele>243.8</ele><time>2026-04-19T08:01:59Z</time></trkpt><trkpt lat="44.87945404679774" lon="8.019441878145999"><ele>241.0</ele><time>2026-04-19T08:02:01Z</time></trkpt><trkpt lat="44.879384763397965" lon="8.01936000724024"><ele>241.0</ele><time>2026-04-19T08:02:04Z</time></trkpt><trkpt lat="44.87943290680128" lon="8.019241048237802"><ele>241.0</ele><time>2026-04-19T08:02:06Z</time></trkpt><trkpt lat="44.87942341834045" lon="8.019150907865885"><ele>241.0</ele><time>2026-04-19T08:02:07Z</time></trkpt><trkpt lat="44.87909911056967" lon="8.019141106575892"><ele>239.60000000000002</ele><time>2026-04-19T08:02:10Z</time></trkpt><trkpt lat="44.879039472155995" lon="8.01917055734772"><ele>238.20000000000002</ele><time>2026-04-19T08:02:11Z</time></trkpt><trkpt lat="44.878924630907996" lon="8.019129861477174"><ele>236.79999999999998</ele><time>2026-04-19T08:02:13Z</time></trkpt><trkpt lat="44.87888279774775" lon="8.019063310714028"><ele>235.39999999999998</ele><time>2026-04-19T08:02:14Z</time></trkpt><trkpt lat="44.878779806037805" lon="8.018999884487418"><ele>234.0</ele><time>2026-04-19T08:02:16Z</time></trkpt><trkpt lat="44.87867982424701" lon="8.019036639679076"><ele>234.0</ele><time>2026-04-19T08:02:18Z</time></trkpt><trkpt lat="44.878614566686174" lon="8.019071500076823"><ele>233.99999999999997</ele><time>2026-04-19T08:02:19Z</time></trkpt><trkpt lat="44.878551563469514" lon="8.019072865657867"><ele>233.99999999999997</ele><time>2026-04-19T08:02:20Z</time></trkpt><trkpt lat="44.8784262032575" lon="8.019037904344081"><ele>234.0</ele><time>2026-04-19T08:02:22Z</time></trkpt><trkpt lat="44.87831487529539" lon="8.019100781651948"><ele>234.0</ele><time>2026-04-19T08:02:24Z</time></trkpt><trkpt lat="44.878282146647734" lon="8.019186894057036"><ele>237.2</ele><time>2026-04-19T08:02:25Z</time></trkpt><trkpt lat="44.87823205726066" lon="8.019275225749183"><ele>240.39999999999998</ele><time>2026-04-19T08:02:27Z</time></trkpt><trkpt lat="44.878264322559225" lon="8.019461254815939"><ele>243.6</ele><time>2026-04-19T08:02:29Z</time></trkpt><trkpt lat="44.87829337931056" lon="8.019576455989679"><ele>246.8</ele><time>2026-04-19T08:02:30Z</time></trkpt><trkpt lat="44.87830668183533" lon="8.019732349371555"><ele>250.0</ele><time>2026-04-19T08:02:31Z</time></trkpt><trkpt lat="44.87833410733994" lon="8.019870073544416"><ele>249.99999999999997</ele><time>2026-04-19T08:02:32Z</time></trkpt><trkpt lat="44.87835929790953" lon="8.019973703822664"><ele>250.0</ele><time>2026-04-19T08:02:33Z</time></trkpt><trkpt lat="44.87838865748855" lon="8.020067615334808"><ele>250.0</ele><time>2026-04-19T08:02:34Z</time></trkpt><trkpt lat="44.87840323189892" lon="8.02018266073216"><ele>250.0</ele><time>2026-04-19T08:02:35Z</time></trkpt><trkpt lat="44.87843983174084" lon="8.020307819176354"><ele>249.99999999999997</ele><time>2026-04-19T08:02:36Z</time></trkpt><trkpt lat="44.87847110163082" lon="8.020431566045126"><ele>250.0</ele><time>2026-04-19T08:02:37Z</time></trkpt><trkpt lat="44.87850728868064" lon="8.02052611896891"><ele>252.16666666666666</ele><time>2026-04-19T08:02:38Z</time></trkpt><trkpt lat="44.87853091403645" lon="8.020628182682072"><ele>254.33333333333331</ele><time>2026-04-19T08:02:39Z</time></trkpt><trkpt lat="44.878541110865775" lon="8.020724921269622"><ele>256.5</ele><time>2026-04-19T08:02:40Z</time></trkpt><trkpt lat="44.87853162601409" lon="8.020851899811047"><ele>258.6666666666667</ele><time>2026-04-19T08:02:41Z</time></trkpt><trkpt lat="44.87854580809538" lon="8.020959103796402"><ele>260.83333333333337</ele><time>2026-04-19T08:02:42Z</time></trkpt><trkpt lat="44.87853144019008" lon="8.021058384922032"><ele>263.0</ele><time>2026-04-19T08:02:43Z</time></trkpt><trkpt lat="44.87849508283461" lon="8.02116134504037"><ele>261.8</ele><time>2026-04-19T08:02:44Z</time></trkpt><trkpt lat="44.878426433084876" lon="8.021235978829424"><ele>260.6</ele><time>2026-04-19T08:02:45Z</time></trkpt><trkpt lat="44.87835767771969" lon="8.021339169134157"><ele>259.4</ele><time>2026-04-19T08:02:46Z</time></trkpt><trkpt lat="44.87829798317047" lon="8.021402371242171"><ele>258.2</ele><time>2026-04-19T08:02:47Z</time></trkpt><trkpt lat="44.87819680943142" lon="8.02154125222964"><ele>257.0</ele><time>2026-04-19T08:02:49Z</time></trkpt><trkpt lat="44.878181035223655" lon="8.021639437253617"><ele>258.6</ele><time>2026-04-19T08:02:51Z</time></trkpt><trkpt lat="44.87826818492432" lon="8.021801073559603"><ele>260.2</ele><time>2026-04-19T08:02:53Z</time></trkpt><trkpt lat="44.87833039100869" lon="8.021893220470975"><ele>261.8</ele><time>2026-04-19T08:02:54Z</time></trkpt><trkpt lat="44.87837815113175" lon="8.022016086548282"><ele>263.4</ele><time>2026-04-19T08:02:55Z</time></trkpt><trkpt lat="44.87841400051398" lon="8.02210983357778"><ele>265.0</ele><time>2026-04-19T08:02:56Z</time></trkpt><trkpt lat="44.87838032595114" lon="8.022190798315744"><ele>265.0</ele><time>2026-04-19T08:02:57Z</time></trkpt><trkpt lat="44.8783734369857" lon="8.022345155334074"><ele>265.0</ele><time>2026-04-19T08:02:59Z</time></trkpt><trkpt lat="44.87835835910824" lon="8.022488576637112"><ele>265.0</ele><time>2026-04-19T08:03:01Z</time></trkpt><trkpt lat="44.8783198436346" lon="8.022561700011067"><ele>265.0</ele><time>2026-04-19T08:03:03Z</time></trkpt><trkpt lat="44.878251941685555" lon="8.022705783072361"><ele>265.0</ele><time>2026-04-19T08:03:05Z</time></trkpt><trkpt lat="44.87825469482373" lon="8.022812975388529"><ele>265.0</ele><time>2026-04-19T08:03:06Z</time></trkpt><trkpt lat="44.87822891101378" lon="8.022900818769715"><ele>265.0</ele><time>2026-04-19T08:03:07Z</time></trkpt><trkpt lat="44.87821715882514" lon="8.023047861353724"><ele>265.0</ele><time>2026-04-19T08:03:09Z</time></trkpt><trkpt lat="44.878263276063294" lon="8.023145271559752"><ele>265.0</ele><time>2026-04-19T08:03:11Z</time></trkpt><trkpt lat="44.87823778829339" lon="8.023228351178565"><ele>265.0</ele><time>2026-04-19T08:03:13Z</time></trkpt><trkpt lat="44.87818229635605" lon="8.023328772494887"><ele>265.0</ele><time>2026-04-19T08:03:14Z</time></trkpt><trkpt lat="44.878143385386814" lon="8.02344568507978"><ele>265.16666666666663</ele><time>2026-04-19T08:03:15Z</time></trkpt><trkpt lat="44.87812405913663" lon="8.023545755571115"><ele>265.3333333333333</ele><time>2026-04-19T08:03:16Z</time></trkpt><trkpt lat="44.87809814534795" lon="8.023631597455545"><ele>265.5</ele><time>2026-04-19T08:03:17Z</time></trkpt><trkpt lat="44.87804032640438" lon="8.023706116680737"><ele>265.6666666666667</ele><time>2026-04-19T08:03:18Z</time></trkpt><trkpt lat="44.87796105974949" lon="8.023772885234905"><ele>265.83333333333337</ele><time>2026-04-19T08:03:19Z</time></trkpt><trkpt lat="44.877872719290856" lon="8.023824478889175"><ele>266.0</ele><time>2026-04-19T08:03:20Z</time></trkpt><trkpt lat="44.877768533866515" lon="8.023908485505592"><ele>266.0</ele><time>2026-04-19T08:03:21Z</time></trkpt><trkpt lat="44.877678727962945" lon="8.02397891853364"><ele>266.0</ele><time>2026-04-19T08:03:22Z</time></trkpt><trkpt lat="44.87759643808943" lon="8.024025963737872"><ele>266.0</ele><time>2026-04-19T08:03:23Z</time></trkpt><trkpt lat="44.87753616370778" lon="8.024085023097129"><ele>266.0</ele><time>2026-04-19T08:03:24Z</time></trkpt><trkpt lat="44.877473572947935" lon="8.024153992775963"><ele>266.0</ele><time>2026-04-19T08:03:25Z</time></trkpt><trkpt lat="44.877417825756744" lon="8.0242476504708"><ele>266.0</ele><time>2026-04-19T08:03:26Z</time></trkpt><trkpt lat="44.87735482133019" lon="8.024342603243097"><ele>268.0</ele><time>2026-04-19T08:03:27Z</time></trkpt><trkpt lat="44.87730627198564" lon="8.024452075531984"><ele>270.0</ele><time>2026-04-19T08:03:28Z</time></trkpt><trkpt lat="44.877275354910324" lon="8.02458346895449"><ele>272.0</ele><time>2026-04-19T08:03:29Z</time></trkpt><trkpt lat="44.877242441123485" lon="8.02470815377737"><ele>274.0</ele><time>2026-04-19T08:03:30Z</time></trkpt><trkpt lat="44.87721383094916" lon="8.024832901956875"><ele>276.0</ele><time>2026-04-19T08:03:31Z</time></trkpt><trkpt lat="44.87718374684313" lon="8.024951183934697"><ele>277.8</ele><time>2026-04-19T08:03:32Z</time></trkpt><trkpt lat="44.877151078643784" lon="8.025062699672521"><ele>279.6</ele><time>2026-04-19T08:03:33Z</time></trkpt><trkpt lat="44.877091030430144" lon="8.0251884064964"><ele>281.4</ele><time>2026-04-19T08:03:34Z</time></trkpt><trkpt lat="44.877050550824066" lon="8.025306896985596"><ele>283.2</ele><time>2026-04-19T08:03:35Z</time></trkpt><trkpt lat="44.877007875535114" lon="8.025414424064513"><ele>285.0</ele><time>2026-04-19T08:03:36Z</time></trkpt><trkpt lat="44.876943441953706" lon="8.025528394568552"><ele>285.0</ele><time>2026-04-19T08:03:37Z</time></trkpt><trkpt lat="44.87687963385169" lon="8.025616538515184"><ele>285.0</ele><time>2026-04-19T08:03:38Z</time></trkpt><trkpt lat="44.87681342214135" lon="8.025692625581243"><ele>285.0</ele><time>2026-04-19T08:03:39Z</time></trkpt><trkpt lat="44.876743516510246" lon="8.025769900623919"><ele>285.0</ele><time>2026-04-19T08:03:40Z</time></trkpt><trkpt lat="44.87669608704757" lon="8.025868885594114"><ele>285.0</ele><time>2026-04-19T08:03:41Z</time></trkpt><trkpt lat="44.876652600479" lon="8.025949128952677"><ele>285.0</ele><time>2026-04-19T08:03:42Z</time></trkpt><trkpt lat="44.87661687014809" lon="8.02605039313058"><ele>283.4</ele><time>2026-04-19T08:03:43Z</time></trkpt><trkpt lat="44.87658960725288" lon="8.026183631550458"><ele>281.8</ele><time>2026-04-19T08:03:44Z</time></trkpt><trkpt lat="44.87653273395695" lon="8.026312402820754"><ele>280.2</ele><time>2026-04-19T08:03:45Z</time></trkpt><trkpt lat="44.87647021646936" lon="8.026444295725739"><ele>278.6</ele><time>2026-04-19T08:03:46Z</time></trkpt><trkpt lat="44.87640194755766" lon="8.026568723453387"><ele>277.0</ele><time>2026-04-19T08:03:47Z</time></trkpt><trkpt lat="44.8763511315217" lon="8.026681349108308"><ele>275.8333333333333</ele><time>2026-04-19T08:03:48Z</time></trkpt><trkpt lat="44.876327145268924" lon="8.02677560740625"><ele>274.66666666666663</ele><time>2026-04-19T08:03:49Z</time></trkpt><trkpt lat="44.87629771543285" lon="8.02687414825332"><ele>273.5</ele><time>2026-04-19T08:03:50Z</time></trkpt><trkpt lat="44.87630485170493" lon="8.026978707587372"><ele>272.3333333333333</ele><time>2026-04-19T08:03:51Z</time></trkpt><trkpt lat="44.876304429476235" lon="8.02712247013206"><ele>271.1666666666667</ele><time>2026-04-19T08:03:52Z</time></trkpt><trkpt lat="44.87631386822294" lon="8.027243179707366"><ele>270.0</ele><time>2026-04-19T08:03:53Z</time></trkpt><trkpt lat="44.87631239407181" lon="8.027387651175209"><ele>268.2</ele><time>2026-04-19T08:03:54Z</time></trkpt><trkpt lat="44.876310634971105" lon="8.027580319089354"><ele>266.4</ele><time>2026-04-19T08:03:55Z</time></trkpt><trkpt lat="44.87631431177039" lon="8.02771594074166"><ele>264.6</ele><time>2026-04-19T08:03:56Z</time></trkpt><trkpt lat="44.87631412380063" lon="8.027840483091033"><ele>262.8</ele><time>2026-04-19T08:03:57Z</time></trkpt><trkpt lat="44.87629872188087" lon="8.027952916025855"><ele>261.0</ele><time>2026-04-19T08:03:58Z</time></trkpt><trkpt lat="44.876272875105194" lon="8.028075057097631"><ele>261.0</ele><time>2026-04-19T08:03:59Z</time></trkpt><trkpt lat="44.87622779038162" lon="8.02817643326398"><ele>261.0</ele><time>2026-04-19T08:04:00Z</time></trkpt><trkpt lat="44.87618595151026" lon="8.028244788168305"><ele>261.0</ele><time>2026-04-19T08:04:01Z</time></trkpt><trkpt lat="44.87618286778937" lon="8.028336683952846"><ele>261.0</ele><time>2026-04-19T08:04:02Z</time></trkpt><trkpt lat="44.87622465059537" lon="8.02843438715885"><ele>261.0</ele><time>2026-04-19T08:04:03Z</time></trkpt><trkpt lat="44.87624815451425" lon="8.028543799929315"><ele>261.0</ele><time>2026-04-19T08:04:04Z</time></trkpt><trkpt lat="44.876172693534244" lon="8.02849220087702"><ele>261.0</ele><time>2026-04-19T08:04:10Z</time></trkpt><trkpt lat="44.87613343889557" lon="8.028388233753041"><ele>261.0</ele><time>2026-04-19T08:04:12Z</time></trkpt><trkpt lat="44.87614905917663" lon="8.028301221195639"><ele>261.0</ele><time>2026-04-19T08:04:15Z</time></trkpt><trkpt lat="44.876074985791526" lon="8.028249010106993"><ele>261.0</ele><time>2026-04-19T08:04:19Z</time></trkpt><trkpt lat="44.87601786413689" lon="8.028206726212224"><ele>261.0</ele><time>2026-04-19T08:04:20Z</time></trkpt><trkpt lat="44.87597957412549" lon="8.02827957228304"><ele>261.0</ele><time>2026-04-19T08:04:21Z</time></trkpt><trkpt lat="44.87592614940892" lon="8.028347171210267"><ele>261.0</ele><time>2026-04-19T08:04:23Z</time></trkpt><trkpt lat="44.87583358171772" lon="8.028307383772248"><ele>260.0</ele><time>2026-04-19T08:04:26Z</time></trkpt><trkpt lat="44.87570808508606" lon="8.028275702700055"><ele>259.0</ele><time>2026-04-19T08:04:29Z</time></trkpt><trkpt lat="44.87564512237093" lon="8.02818044312767"><ele>258.0</ele><time>2026-04-19T08:04:33Z</time></trkpt><trkpt lat="44.87562433949527" lon="8.028060511203295"><ele>257.0</ele><time>2026-04-19T08:04:35Z</time></trkpt><trkpt lat="44.87558010877725" lon="8.027926780186867"><ele>256.0</ele><time>2026-04-19T08:04:37Z</time></trkpt><trkpt lat="44.87552523012627" lon="8.027846254798284"><ele>255.99999999999997</ele><time>2026-04-19T08:04:39Z</time></trkpt><trkpt lat="44.875464563306544" lon="8.027750641123163"><ele>256.0</ele><time>2026-04-19T08:04:41Z</time></trkpt><trkpt lat="44.87540959673381" lon="8.027674729784268"><ele>256.0</ele><time>2026-04-19T08:04:42Z</time></trkpt><trkpt lat="44.875390619624106" lon="8.02754079532432"><ele>256.0</ele><time>2026-04-19T08:04:45Z</time></trkpt><trkpt lat="44.875365193358924" lon="8.027443399051855"><ele>255.99999999999997</ele><time>2026-04-19T08:04:47Z</time></trkpt><trkpt lat="44.87534884436559" lon="8.027321958021991"><ele>256.0</ele><time>2026-04-19T08:04:48Z</time></trkpt><trkpt lat="44.87532358479433" lon="8.027206392847564"><ele>255.83333333333331</ele><time>2026-04-19T08:04:50Z</time></trkpt><trkpt lat="44.875292996339866" lon="8.027104736530905"><ele>255.66666666666666</ele><time>2026-04-19T08:04:54Z</time></trkpt><trkpt lat="44.87526954512998" lon="8.026995922093617"><ele>255.5</ele><time>2026-04-19T08:04:56Z</time></trkpt><trkpt lat="44.87527346695444" lon="8.026862369598726"><ele>255.33333333333331</ele><time>2026-04-19T08:04:58Z</time></trkpt><trkpt lat="44.8752854516855" lon="8.02673523526617"><ele>255.16666666666666</ele><time>2026-04-19T08:05:00Z</time></trkpt><trkpt lat="44.875292149610054" lon="8.02663487793644"><ele>255.0</ele><time>2026-04-19T08:05:02Z</time></trkpt><trkpt lat="44.87535623698044" lon="8.026518081574931"><ele>254.66666666666666</ele><time>2026-04-19T08:05:04Z</time></trkpt><trkpt lat="44.87539023064117" lon="8.026391525243863"><ele>254.33333333333331</ele><time>2026-04-19T08:05:06Z</time></trkpt><trkpt lat="44.875356709844844" lon="8.026311931663203"><ele>254.0</ele><time>2026-04-19T08:05:07Z</time></trkpt><trkpt lat="44.87530778921517" lon="8.026229313684215"><ele>253.66666666666666</ele><time>2026-04-19T08:05:08Z</time></trkpt><trkpt lat="44.87527705201668" lon="8.026145488345426"><ele>253.33333333333331</ele><time>2026-04-19T08:05:09Z</time></trkpt><trkpt lat="44.87517449099834" lon="8.02616773437705"><ele>253.0</ele><time>2026-04-19T08:05:12Z</time></trkpt><trkpt lat="44.875089150608076" lon="8.02621216163509"><ele>249.16666666666666</ele><time>2026-04-19T08:05:14Z</time></trkpt><trkpt lat="44.87503354498989" lon="8.026157290841727"><ele>245.33333333333331</ele><time>2026-04-19T08:05:16Z</time></trkpt><trkpt lat="44.87500411216498" lon="8.026064298888146"><ele>241.5</ele><time>2026-04-19T08:05:17Z</time></trkpt><trkpt lat="44.87496127224344" lon="8.02596342287271"><ele>237.66666666666669</ele><time>2026-04-19T08:05:18Z</time></trkpt><trkpt lat="44.87493315404336" lon="8.025841422118823"><ele>233.83333333333334</ele><time>2026-04-19T08:05:19Z</time></trkpt><trkpt lat="44.874893377631025" lon="8.02571761047697"><ele>230.0</ele><time>2026-04-19T08:05:20Z</time></trkpt><trkpt lat="44.874832746334825" lon="8.025585258709048"><ele>228.4</ele><time>2026-04-19T08:05:21Z</time></trkpt><trkpt lat="44.87475350689628" lon="8.025465660459151"><ele>226.8</ele><time>2026-04-19T08:05:22Z</time></trkpt><trkpt lat="44.87469387781893" lon="8.025355789129666"><ele>225.2</ele><time>2026-04-19T08:05:23Z</time></trkpt><trkpt lat="44.87467276012152" lon="8.025228334782774"><ele>223.6</ele><time>2026-04-19T08:05:24Z</time></trkpt><trkpt lat="44.874650324381726" lon="8.025075581059845"><ele>222.0</ele><time>2026-04-19T08:05:25Z</time></trkpt><trkpt lat="44.87467797753586" lon="8.02491982422199"><ele>221.0</ele><time>2026-04-19T08:05:26Z</time></trkpt><trkpt lat="44.87469318788103" lon="8.024753167108193"><ele>220.0</ele><time>2026-04-19T08:05:27Z</time></trkpt><trkpt lat="44.87469953133917" lon="8.024606235517338"><ele>219.0</ele><time>2026-04-19T08:05:28Z</time></trkpt><trkpt lat="44.87469104340199" lon="8.024479626795545"><ele>218.0</ele><time>2026-04-19T08:05:29Z</time></trkpt><trkpt lat="44.87465347718639" lon="8.024347004079267"><ele>217.0</ele><time>2026-04-19T08:05:30Z</time></trkpt><trkpt lat="44.87462313160941" lon="8.024191501082639"><ele>217.2</ele><time>2026-04-19T08:05:31Z</time></trkpt><trkpt lat="44.87460450743001" lon="8.024068436912485"><ele>217.39999999999998</ele><time>2026-04-19T08:05:32Z</time></trkpt><trkpt lat="44.874618642570034" lon="8.023977350443843"><ele>217.60000000000002</ele><time>2026-04-19T08:05:33Z</time></trkpt><trkpt lat="44.874651237373044" lon="8.023868737866202"><ele>217.8</ele><time>2026-04-19T08:05:34Z</time></trkpt><trkpt lat="44.87470145899002" lon="8.023733478673472"><ele>218.0</ele><time>2026-04-19T08:05:35Z</time></trkpt><trkpt lat="44.87476853312444" lon="8.023609238233462"><ele>218.0</ele><time>2026-04-19T08:05:36Z</time></trkpt><trkpt lat="44.874827354307286" lon="8.023469893112612"><ele>218.0</ele><time>2026-04-19T08:05:37Z</time></trkpt><trkpt lat="44.87490349941387" lon="8.02332697980728"><ele>218.0</ele><time>2026-04-19T08:05:38Z</time></trkpt><trkpt lat="44.87495971248954" lon="8.023163115329151"><ele>218.0</ele><time>2026-04-19T08:05:39Z</time></trkpt><trkpt lat="44.8750298235928" lon="8.02297581813701"><ele>217.5</ele><time>2026-04-19T08:05:40Z</time></trkpt><trkpt lat="44.875103693618335" lon="8.02281559396853"><ele>217.0</ele><time>2026-04-19T08:05:41Z</time></trkpt><trkpt lat="44.87517093922075" lon="8.02264542536637"><ele>216.5</ele><time>2026-04-19T08:05:42Z</time></trkpt><trkpt lat="44.87519621731191" lon="8.022478556772619"><ele>216.0</ele><time>2026-04-19T08:05:43Z</time></trkpt><trkpt lat="44.875259959707826" lon="8.022338405887814"><ele>215.20000000000002</ele><time>2026-04-19T08:05:44Z</time></trkpt><trkpt lat="44.875304365784395" lon="8.022202299824023"><ele>214.40000000000003</ele><time>2026-04-19T08:05:45Z</time></trkpt><trkpt lat="44.8753803547657" lon="8.02214239649982"><ele>213.6</ele><time>2026-04-19T08:05:46Z</time></trkpt><trkpt lat="44.87545945985665" lon="8.022060426535683"><ele>212.8</ele><time>2026-04-19T08:05:47Z</time></trkpt><trkpt lat="44.87551415163047" lon="8.021955279019599"><ele>212.0</ele><time>2026-04-19T08:05:48Z</time></trkpt><trkpt lat="44.87550926075813" lon="8.021794163763168"><ele>211.6</ele><time>2026-04-19T08:05:49Z</time></trkpt><trkpt lat="44.87553401839828" lon="8.021644984781345"><ele>211.2</ele><time>2026-04-19T08:05:50Z</time></trkpt><trkpt lat="44.875556555549764" lon="8.021480891347656"><ele>210.8</ele><time>2026-04-19T08:05:51Z</time></trkpt><trkpt lat="44.87557049381336" lon="8.021328032240557"><ele>210.4</ele><time>2026-04-19T08:05:52Z</time></trkpt><trkpt lat="44.8756049580588" lon="8.021217646120698"><ele>210.0</ele><time>2026-04-19T08:05:53Z</time></trkpt><trkpt lat="44.875668563959366" lon="8.021126246794354"><ele>210.0</ele><time>2026-04-19T08:05:54Z</time></trkpt><trkpt lat="44.87570333692441" lon="8.021005762861634"><ele>210.0</ele><time>2026-04-19T08:05:55Z</time></trkpt><trkpt lat="44.87568996232855" lon="8.020853027703502"><ele>210.0</ele><time>2026-04-19T08:05:56Z</time></trkpt><trkpt lat="44.8756558484047" lon="8.02068192035873"><ele>210.0</ele><time>2026-04-19T08:05:57Z</time></trkpt><trkpt lat="44.87563584151526" lon="8.020498983105483"><ele>209.2</ele><time>2026-04-19T08:05:58Z</time></trkpt><trkpt lat="44.87563203494354" lon="8.020364665092988"><ele>208.4</ele><time>2026-04-19T08:05:59Z</time></trkpt><trkpt lat="44.87562105717941" lon="8.020237818380771"><ele>207.60000000000002</ele><time>2026-04-19T08:06:01Z</time></trkpt><trkpt lat="44.8754966646235" lon="8.020107274109298"><ele>206.8</ele><time>2026-04-19T08:06:05Z</time></trkpt><trkpt lat="44.875445686641775" lon="8.019996484350846"><ele>206.0</ele><time>2026-04-19T08:06:07Z</time></trkpt><trkpt lat="44.87551285831781" lon="8.019921981174457"><ele>206.0</ele><time>2026-04-19T08:06:09Z</time></trkpt><trkpt lat="44.875602442642844" lon="8.01986456663432"><ele>206.0</ele><time>2026-04-19T08:06:10Z</time></trkpt><trkpt lat="44.875700180172124" lon="8.019782743780926"><ele>206.0</ele><time>2026-04-19T08:06:11Z</time></trkpt><trkpt lat="44.87581619859634" lon="8.019672522158901"><ele>206.0</ele><time>2026-04-19T08:06:12Z</time></trkpt><trkpt lat="44.87591686854295" lon="8.019525312220512"><ele>207.33333333333334</ele><time>2026-04-19T08:06:13Z</time></trkpt><trkpt lat="44.87600476324594" lon="8.01935302071653"><ele>208.66666666666669</ele><time>2026-04-19T08:06:14Z</time></trkpt><trkpt lat="44.87607484323738" lon="8.019169456992772"><ele>210.0</ele><time>2026-04-19T08:06:15Z</time></trkpt><trkpt lat="44.87613837815739" lon="8.018970555673667"><ele>210.0</ele><time>2026-04-19T08:06:16Z</time></trkpt><trkpt lat="44.87622030477205" lon="8.018779585246591"><ele>210.0</ele><time>2026-04-19T08:06:17Z</time></trkpt><trkpt lat="44.87628227578129" lon="8.018585747746274"><ele>210.0</ele><time>2026-04-19T08:06:18Z</time></trkpt><trkpt lat="44.876344264163016" lon="8.018389917437261"><ele>207.66666666666669</ele><time>2026-04-19T08:06:19Z</time></trkpt><trkpt lat="44.876410155571364" lon="8.018193180719306"><ele>205.33333333333334</ele><time>2026-04-19T08:06:20Z</time></trkpt><trkpt lat="44.87648279217296" lon="8.018006874696372"><ele>203.0</ele><time>2026-04-19T08:06:21Z</time></trkpt><trkpt lat="44.876566337621796" lon="8.017833274960651"><ele>203.0</ele><time>2026-04-19T08:06:22Z</time></trkpt><trkpt lat="44.87665956970815" lon="8.017664189512237"><ele>203.0</ele><time>2026-04-19T08:06:23Z</time></trkpt><trkpt lat="44.87676371891586" lon="8.017529376306225"><ele>203.0</ele><time>2026-04-19T08:06:24Z</time></trkpt><trkpt lat="44.876877109347824" lon="8.017430974745873"><ele>203.0</ele><time>2026-04-19T08:06:25Z</time></trkpt><trkpt lat="44.87699775753916" lon="8.017345538925408"><ele>201.75</ele><time>2026-04-19T08:06:26Z</time></trkpt><trkpt lat="44.87713287070539" lon="8.017290288659472"><ele>200.5</ele><time>2026-04-19T08:06:27Z</time></trkpt><trkpt lat="44.87724876446554" lon="8.017271950473894"><ele>199.25</ele><time>2026-04-19T08:06:28Z</time></trkpt><trkpt lat="44.877362266038006" lon="8.017236214867037"><ele>198.0</ele><time>2026-04-19T08:06:29Z</time></trkpt><trkpt lat="44.877493955951046" lon="8.01722953310234"><ele>199.25</ele><time>2026-04-19T08:06:30Z</time></trkpt><trkpt lat="44.87760999162948" lon="8.01716291154547"><ele>200.5</ele><time>2026-04-19T08:06:31Z</time></trkpt><trkpt lat="44.87774317259123" lon="8.017109499726152"><ele>201.75</ele><time>2026-04-19T08:06:32Z</time></trkpt><trkpt lat="44.87785770409312" lon="8.017025623026083"><ele>203.0</ele><time>2026-04-19T08:06:33Z</time></trkpt><trkpt lat="44.877955659907805" lon="8.016923409584729"><ele>203.0</ele><time>2026-04-19T08:06:34Z</time></trkpt><trkpt lat="44.87805536520914" lon="8.016815943627497"><ele>203.0</ele><time>2026-04-19T08:06:35Z</time></trkpt><trkpt lat="44.87814072156259" lon="8.016709620759766"><ele>203.0</ele><time>2026-04-19T08:06:36Z</time></trkpt><trkpt lat="44.878244114408126" lon="8.016614554896986"><ele>203.0</ele><time>2026-04-19T08:06:37Z</time></trkpt><trkpt lat="44.8783199999634" lon="8.01652029118533"><ele>201.5</ele><time>2026-04-19T08:06:38Z</time></trkpt><trkpt lat="44.87843194757058" lon="8.016438840989307"><ele>200.0</ele><time>2026-04-19T08:06:39Z</time></trkpt><trkpt lat="44.87853791672057" lon="8.01639133953258"><ele>198.5</ele><time>2026-04-19T08:06:40Z</time></trkpt><trkpt lat="44.87864393062381" lon="8.016359143668424"><ele>197.0</ele><time>2026-04-19T08:06:41Z</time></trkpt><trkpt lat="44.878763700323354" lon="8.016361749552088"><ele>197.0</ele><time>2026-04-19T08:06:42Z</time></trkpt><trkpt lat="44.878906411844355" lon="8.016351417957491"><ele>197.0</ele><time>2026-04-19T08:06:43Z</time></trkpt><trkpt lat="44.87904724630464" lon="8.016347016244895"><ele>197.0</ele><time>2026-04-19T08:06:44Z</time></trkpt><trkpt lat="44.87919549378936" lon="8.01634610584312"><ele>197.0</ele><time>2026-04-19T08:06:45Z</time></trkpt><trkpt lat="44.879339260111585" lon="8.01633556813183"><ele>197.75</ele><time>2026-04-19T08:06:46Z</time></trkpt><trkpt lat="44.879485491122736" lon="8.016308301888941"><ele>198.5</ele><time>2026-04-19T08:06:47Z</time></trkpt><trkpt lat="44.87962894707051" lon="8.01627037463252"><ele>199.25</ele><time>2026-04-19T08:06:48Z</time></trkpt><trkpt lat="44.87975040091263" lon="8.016237518299773"><ele>200.0</ele><time>2026-04-19T08:06:49Z</time></trkpt><trkpt lat="44.87985046085232" lon="8.016223139540624"><ele>200.0</ele><time>2026-04-19T08:06:50Z</time></trkpt><trkpt lat="44.879929558371856" lon="8.01622071351143"><ele>200.0</ele><time>2026-04-19T08:06:51Z</time></trkpt><trkpt lat="44.88006861007559" lon="8.016239081239508"><ele>200.0</ele><time>2026-04-19T08:06:53Z</time></trkpt><trkpt lat="44.880153639015916" lon="8.016237336329356"><ele>200.0</ele><time>2026-04-19T08:06:54Z</time></trkpt><trkpt lat="44.8802243334099" lon="8.016236687162934"><ele>200.0</ele><time>2026-04-19T08:06:55Z</time></trkpt><trkpt lat="44.88031860026779" lon="8.016246273825557"><ele>200.4</ele><time>2026-04-19T08:06:56Z</time></trkpt><trkpt lat="44.88041139047996" lon="8.016283132812845"><ele>200.8</ele><time>2026-04-19T08:06:57Z</time></trkpt><trkpt lat="44.880476417501654" lon="8.01636157819466"><ele>201.2</ele><time>2026-04-19T08:06:58Z</time></trkpt><trkpt lat="44.8805139106751" lon="8.016472848148222"><ele>201.6</ele><time>2026-04-19T08:06:59Z</time></trkpt><trkpt lat="44.88050275198262" lon="8.016594000778738"><ele>202.0</ele><time>2026-04-19T08:07:00Z</time></trkpt><trkpt lat="44.88046690614353" lon="8.016716246547523"><ele>204.39999999999998</ele><time>2026-04-19T08:07:01Z</time></trkpt><trkpt lat="44.8804439294169" lon="8.016836322348949"><ele>206.79999999999998</ele><time>2026-04-19T08:07:02Z</time></trkpt><trkpt lat="44.88041694114663" lon="8.01698954846163"><ele>209.2</ele><time>2026-04-19T08:07:03Z</time></trkpt><trkpt lat="44.880415231712604" lon="8.01716037743749"><ele>211.6</ele><time>2026-04-19T08:07:04Z</time></trkpt><trkpt lat="44.88041357419142" lon="8.017324381122071"><ele>214.0</ele><time>2026-04-19T08:07:05Z</time></trkpt><trkpt lat="44.88042392932202" lon="8.017465720748012"><ele>215.39999999999998</ele><time>2026-04-19T08:07:06Z</time></trkpt><trkpt lat="44.88045785133926" lon="8.017595820179388"><ele>216.79999999999998</ele><time>2026-04-19T08:07:07Z</time></trkpt><trkpt lat="44.880514902673575" lon="8.017717240573644"><ele>218.20000000000002</ele><time>2026-04-19T08:07:08Z</time></trkpt><trkpt lat="44.88059189514154" lon="8.01783690020474"><ele>219.60000000000002</ele><time>2026-04-19T08:07:09Z</time></trkpt><trkpt lat="44.88068529965619" lon="8.01793436133029"><ele>221.0</ele><time>2026-04-19T08:07:10Z</time></trkpt><trkpt lat="44.88077200555373" lon="8.018001469151631"><ele>221.0</ele><time>2026-04-19T08:07:12Z</time></trkpt><trkpt lat="44.88082897148501" lon="8.01810400079399"><ele>221.0</ele><time>2026-04-19T08:07:18Z</time></trkpt><trkpt lat="44.88087990334834" lon="8.018168788878757"><ele>221.0</ele><time>2026-04-19T08:07:20Z</time></trkpt><trkpt lat="44.88109426014059" lon="8.017930499510793"><ele>221.0</ele><time>2026-04-19T08:07:26Z</time></trkpt><trkpt lat="44.88117244412767" lon="8.017879891053866"><ele>221.00000000000003</ele><time>2026-04-19T08:07:27Z</time></trkpt><trkpt lat="44.881242691108724" lon="8.017847271151087"><ele>221.0</ele><time>2026-04-19T08:07:28Z</time></trkpt><trkpt lat="44.881313085147106" lon="8.017781596373025"><ele>221.0</ele><time>2026-04-19T08:07:29Z</time></trkpt><trkpt lat="44.88137629894511" lon="8.017703350074049"><ele>221.0</ele><time>2026-04-19T08:07:30Z</time></trkpt><trkpt lat="44.88145117757631" lon="8.01764997146236"><ele>221.00000000000003</ele><time>2026-04-19T08:07:31Z</time></trkpt><trkpt lat="44.88154038387311" lon="8.017547208532918"><ele>221.0</ele><time>2026-04-19T08:07:32Z</time></trkpt><trkpt lat="44.881598211922885" lon="8.017464165474925"><ele>221.4</ele><time>2026-04-19T08:07:33Z</time></trkpt><trkpt lat="44.881650269594324" lon="8.01739377756636"><ele>221.8</ele><time>2026-04-19T08:07:34Z</time></trkpt><trkpt lat="44.88170149433704" lon="8.01733096975686"><ele>222.20000000000002</ele><time>2026-04-19T08:07:35Z</time></trkpt><trkpt lat="44.88177172403777" lon="8.017252456686334"><ele>222.60000000000002</ele><time>2026-04-19T08:07:36Z</time></trkpt><trkpt lat="44.88187904983879" lon="8.017183249087454"><ele>223.0</ele><time>2026-04-19T08:07:37Z</time></trkpt><trkpt lat="44.88198156517607" lon="8.017123694471138"><ele>221.60000000000002</ele><time>2026-04-19T08:07:38Z</time></trkpt><trkpt lat="44.88213103049662" lon="8.017082855678332"><ele>220.20000000000002</ele><time>2026-04-19T08:07:39Z</time></trkpt><trkpt lat="44.882206648724825" lon="8.017030071833119"><ele>218.8</ele><time>2026-04-19T08:07:40Z</time></trkpt><trkpt lat="44.882289832632374" lon="8.016987042526349"><ele>217.4</ele><time>2026-04-19T08:07:41Z</time></trkpt><trkpt lat="44.88240042789376" lon="8.016934740886395"><ele>216.0</ele><time>2026-04-19T08:07:42Z</time></trkpt><trkpt lat="44.882498382391255" lon="8.016893020743735"><ele>216.0</ele><time>2026-04-19T08:07:43Z</time></trkpt><trkpt lat="44.882580208551545" lon="8.016881066797541"><ele>216.0</ele><time>2026-04-19T08:07:44Z</time></trkpt><trkpt lat="44.882653193557665" lon="8.016853687600596"><ele>216.0</ele><time>2026-04-19T08:07:45Z</time></trkpt><trkpt lat="44.88271264263894" lon="8.016812955609105"><ele>216.0</ele><time>2026-04-19T08:07:46Z</time></trkpt><trkpt lat="44.88279466662929" lon="8.016775664301242"><ele>216.0</ele><time>2026-04-19T08:07:47Z</time></trkpt><trkpt lat="44.88289795209103" lon="8.016773305467787"><ele>216.0</ele><time>2026-04-19T08:07:49Z</time></trkpt><trkpt lat="44.88297385909519" lon="8.016669292268473"><ele>214.8</ele><time>2026-04-19T08:07:50Z</time></trkpt><trkpt lat="44.883077901746596" lon="8.01662155813341"><ele>213.60000000000002</ele><time>2026-04-19T08:07:51Z</time></trkpt><trkpt lat="44.88316450071636" lon="8.016555111624635"><ele>212.4</ele><time>2026-04-19T08:07:52Z</time></trkpt><trkpt lat="44.88324395180595" lon="8.016523587857522"><ele>211.2</ele><time>2026-04-19T08:07:53Z</time></trkpt><trkpt lat="44.88334280717183" lon="8.016517776094217"><ele>210.0</ele><time>2026-04-19T08:07:54Z</time></trkpt><trkpt lat="44.88343073094362" lon="8.016491554770107"><ele>209.0</ele><time>2026-04-19T08:07:55Z</time></trkpt><trkpt lat="44.88353074996998" lon="8.016487380962394"><ele>208.0</ele><time>2026-04-19T08:07:56Z</time></trkpt><trkpt lat="44.88360901509043" lon="8.016459455303886"><ele>207.0</ele><time>2026-04-19T08:07:57Z</time></trkpt><trkpt lat="44.88368756195953" lon="8.016476490752904"><ele>206.0</ele><time>2026-04-19T08:07:58Z</time></trkpt><trkpt lat="44.88375277937548" lon="8.016451749545507"><ele>205.0</ele><time>2026-04-19T08:07:59Z</time></trkpt><trkpt lat="44.88382996102683" lon="8.016421816628817"><ele>204.0</ele><time>2026-04-19T08:08:00Z</time></trkpt><trkpt lat="44.8838998412794" lon="8.01636933058215"><ele>204.0</ele><time>2026-04-19T08:08:01Z</time></trkpt><trkpt lat="44.883964177635384" lon="8.016306464079742"><ele>204.0</ele><time>2026-04-19T08:08:02Z</time></trkpt><trkpt lat="44.884064025637855" lon="8.016281875111675"><ele>204.0</ele><time>2026-04-19T08:08:03Z</time></trkpt><trkpt lat="44.88416779177061" lon="8.01627786835767"><ele>204.0</ele><time>2026-04-19T08:08:04Z</time></trkpt><trkpt lat="44.884263691758605" lon="8.01627585212885"><ele>204.0</ele><time>2026-04-19T08:08:05Z</time></trkpt><trkpt lat="44.88435998952455" lon="8.016245534895846"><ele>202.2</ele><time>2026-04-19T08:08:06Z</time></trkpt><trkpt lat="44.88445914655267" lon="8.01623717193284"><ele>200.39999999999998</ele><time>2026-04-19T08:08:07Z</time></trkpt><trkpt lat="44.88455070388154" lon="8.016184439979552"><ele>198.6</ele><time>2026-04-19T08:08:08Z</time></trkpt><trkpt lat="44.88464094920766" lon="8.01613211549593"><ele>196.8</ele><time>2026-04-19T08:08:09Z</time></trkpt><trkpt lat="44.88471868085335" lon="8.016072323155198"><ele>195.0</ele><time>2026-04-19T08:08:10Z</time></trkpt><trkpt lat="44.884780793795905" lon="8.015989412000968"><ele>195.0</ele><time>2026-04-19T08:08:11Z</time></trkpt><trkpt lat="44.884817824002496" lon="8.015848055253294"><ele>195.0</ele><time>2026-04-19T08:08:12Z</time></trkpt><trkpt lat="44.88487343300007" lon="8.01573016614945"><ele>195.0</ele><time>2026-04-19T08:08:13Z</time></trkpt><trkpt lat="44.884900663464286" lon="8.015596531387473"><ele>195.0</ele><time>2026-04-19T08:08:14Z</time></trkpt><trkpt lat="44.88492325777438" lon="8.015463465571683"><ele>195.0</ele><time>2026-04-19T08:08:15Z</time></trkpt><trkpt lat="44.884952574358714" lon="8.015316267063344"><ele>195.0</ele><time>2026-04-19T08:08:16Z</time></trkpt><trkpt lat="44.88496257085774" lon="8.0151952534231"><ele>195.0</ele><time>2026-04-19T08:08:17Z</time></trkpt><trkpt lat="44.88496205880797" lon="8.015087050403919"><ele>195.0</ele><time>2026-04-19T08:08:18Z</time></trkpt><trkpt lat="44.884932034014966" lon="8.015001381245192"><ele>195.0</ele><time>2026-04-19T08:08:19Z</time></trkpt><trkpt lat="44.88498651204576" lon="8.014938203510928"><ele>195.0</ele><time>2026-04-19T08:08:23Z</time></trkpt><trkpt lat="44.88511671446576" lon="8.014995606581232"><ele>195.0</ele><time>2026-04-19T08:08:25Z</time></trkpt><trkpt lat="44.88519726903498" lon="8.01502664732915"><ele>194.2</ele><time>2026-04-19T08:08:26Z</time></trkpt><trkpt lat="44.8852576716218" lon="8.015095128454375"><ele>193.4</ele><time>2026-04-19T08:08:27Z</time></trkpt><trkpt lat="44.885330944531276" lon="8.01514514698242"><ele>192.60000000000002</ele><time>2026-04-19T08:08:28Z</time></trkpt><trkpt lat="44.88537508612673" lon="8.015252806472544"><ele>191.8</ele><time>2026-04-19T08:08:29Z</time></trkpt><trkpt lat="44.88543469770095" lon="8.015377571999199"><ele>191.0</ele><time>2026-04-19T08:08:30Z</time></trkpt><trkpt lat="44.88546514190025" lon="8.015521240878181"><ele>191.0</ele><time>2026-04-19T08:08:31Z</time></trkpt><trkpt lat="44.88551115494536" lon="8.015625443870757"><ele>191.0</ele><time>2026-04-19T08:08:32Z</time></trkpt><trkpt lat="44.88556568571974" lon="8.015688603246756"><ele>191.0</ele><time>2026-04-19T08:08:33Z</time></trkpt><trkpt lat="44.88564633914304" lon="8.015733178990123"><ele>191.0</ele><time>2026-04-19T08:08:34Z</time></trkpt><trkpt lat="44.88574550634587" lon="8.015773677147202"><ele>191.0</ele><time>2026-04-19T08:08:35Z</time></trkpt><trkpt lat="44.88586079941432" lon="8.015807790518833"><ele>190.5</ele><time>2026-04-19T08:08:36Z</time></trkpt><trkpt lat="44.88597965074255" lon="8.015838377121117"><ele>190.0</ele><time>2026-04-19T08:08:37Z</time></trkpt><trkpt lat="44.88610280243721" lon="8.015872104986203"><ele>189.5</ele><time>2026-04-19T08:08:38Z</time></trkpt><trkpt lat="44.886231227768626" lon="8.015910669103285"><ele>189.0</ele><time>2026-04-19T08:08:39Z</time></trkpt><trkpt lat="44.88635629949111" lon="8.015945099993415"><ele>189.0</ele><time>2026-04-19T08:08:40Z</time></trkpt><trkpt lat="44.886483643646216" lon="8.015978489816787"><ele>189.0</ele><time>2026-04-19T08:08:41Z</time></trkpt><trkpt lat="44.886610931789015" lon="8.01600533518071"><ele>189.0</ele><time>2026-04-19T08:08:42Z</time></trkpt><trkpt lat="44.886729584359095" lon="8.016021410657002"><ele>189.0</ele><time>2026-04-19T08:08:43Z</time></trkpt><trkpt lat="44.88682465526795" lon="8.016026599920904"><ele>188.5</ele><time>2026-04-19T08:08:44Z</time></trkpt><trkpt lat="44.88688893328798" lon="8.016057334959655"><ele>188.0</ele><time>2026-04-19T08:08:46Z</time></trkpt><trkpt lat="44.88691081414551" lon="8.016336223752921"><ele>187.5</ele><time>2026-04-19T08:08:49Z</time></trkpt><trkpt lat="44.8868933135773" lon="8.016485060295253"><ele>187.0</ele><time>2026-04-19T08:08:50Z</time></trkpt><trkpt lat="44.88687563871393" lon="8.01664781102984"><ele>187.75</ele><time>2026-04-19T08:08:51Z</time></trkpt><trkpt lat="44.88687093057733" lon="8.016820117425748"><ele>188.5</ele><time>2026-04-19T08:08:52Z</time></trkpt><trkpt lat="44.886859506571554" lon="8.017016214803757"><ele>189.25</ele><time>2026-04-19T08:08:53Z</time></trkpt><trkpt lat="44.88684161938763" lon="8.017201871629364"><ele>190.0</ele><time>2026-04-19T08:08:54Z</time></trkpt><trkpt lat="44.88682849441639" lon="8.01737380618472"><ele>191.5</ele><time>2026-04-19T08:08:55Z</time></trkpt><trkpt lat="44.886823854833054" lon="8.017551167805404"><ele>193.0</ele><time>2026-04-19T08:08:56Z</time></trkpt><trkpt lat="44.886815422405036" lon="8.017739415684124"><ele>194.5</ele><time>2026-04-19T08:08:57Z</time></trkpt><trkpt lat="44.886805080204226" lon="8.017925837837192"><ele>196.0</ele><time>2026-04-19T08:08:58Z</time></trkpt><trkpt lat="44.88680254049496" lon="8.018111580140259"><ele>196.0</ele><time>2026-04-19T08:08:59Z</time></trkpt><trkpt lat="44.88679946977598" lon="8.018295885892103"><ele>196.0</ele><time>2026-04-19T08:09:00Z</time></trkpt><trkpt lat="44.8868032363928" lon="8.018477166719666"><ele>196.0</ele><time>2026-04-19T08:09:01Z</time></trkpt><trkpt lat="44.88680838740201" lon="8.018652737072063"><ele>196.0</ele><time>2026-04-19T08:09:02Z</time></trkpt><trkpt lat="44.88680903305682" lon="8.01882470833311"><ele>195.75</ele><time>2026-04-19T08:09:03Z</time></trkpt><trkpt lat="44.886794754836544" lon="8.01898598702402"><ele>195.5</ele><time>2026-04-19T08:09:04Z</time></trkpt><trkpt lat="44.88675905209158" lon="8.019140678354447"><ele>195.25</ele><time>2026-04-19T08:09:05Z</time></trkpt><trkpt lat="44.88670953514475" lon="8.019326196145707"><ele>195.0</ele><time>2026-04-19T08:09:06Z</time></trkpt><trkpt lat="44.88665409637061" lon="8.019518424985703"><ele>194.5</ele><time>2026-04-19T08:09:07Z</time></trkpt><trkpt lat="44.88660639969187" lon="8.019727125488423"><ele>194.0</ele><time>2026-04-19T08:09:08Z</time></trkpt><trkpt lat="44.88656243292594" lon="8.019926801133863"><ele>193.5</ele><time>2026-04-19T08:09:09Z</time></trkpt><trkpt lat="44.88652598399668" lon="8.020077146002226"><ele>193.0</ele><time>2026-04-19T08:09:10Z</time></trkpt><trkpt lat="44.88650090095938" lon="8.020176574279759"><ele>193.0</ele><time>2026-04-19T08:09:11Z</time></trkpt><trkpt lat="44.88653217008667" lon="8.020293686725328"><ele>193.0</ele><time>2026-04-19T08:09:14Z</time></trkpt><trkpt lat="44.886603420108514" lon="8.020350520461642"><ele>193.0</ele><time>2026-04-19T08:09:15Z</time></trkpt><trkpt lat="44.88669700465788" lon="8.020415623584729"><ele>193.0</ele><time>2026-04-19T08:09:16Z</time></trkpt><trkpt lat="44.88680450926791" lon="8.020508660755352"><ele>193.0</ele><time>2026-04-19T08:09:17Z</time></trkpt><trkpt lat="44.886912015060844" lon="8.020616418985464"><ele>194.60000000000002</ele><time>2026-04-19T08:09:18Z</time></trkpt><trkpt lat="44.88700217524483" lon="8.02072347490431"><ele>196.20000000000002</ele><time>2026-04-19T08:09:19Z</time></trkpt><trkpt lat="44.88706588039956" lon="8.020829624338718"><ele>197.8</ele><time>2026-04-19T08:09:20Z</time></trkpt><trkpt lat="44.887110107009704" lon="8.02095901647738"><ele>199.4</ele><time>2026-04-19T08:09:21Z</time></trkpt><trkpt lat="44.887159949318004" lon="8.021089700340168"><ele>201.0</ele><time>2026-04-19T08:09:22Z</time></trkpt><trkpt lat="44.8872048009902" lon="8.021218682302228"><ele>203.0</ele><time>2026-04-19T08:09:23Z</time></trkpt><trkpt lat="44.88724722109578" lon="8.021312743803776"><ele>205.0</ele><time>2026-04-19T08:09:24Z</time></trkpt><trkpt lat="44.887282696451805" lon="8.02142198423019"><ele>207.0</ele><time>2026-04-19T08:09:26Z</time></trkpt><trkpt lat="44.88734407183265" lon="8.02153029944439"><ele>209.0</ele><time>2026-04-19T08:09:28Z</time></trkpt><trkpt lat="44.887386378451424" lon="8.021597863701063"><ele>211.0</ele><time>2026-04-19T08:09:29Z</time></trkpt><trkpt lat="44.88736855244546" lon="8.021760691876455"><ele>213.0</ele><time>2026-04-19T08:09:31Z</time></trkpt><trkpt lat="44.887308852753286" lon="8.02184956975502"><ele>214.66666666666666</ele><time>2026-04-19T08:09:32Z</time></trkpt><trkpt lat="44.88725458386829" lon="8.021941210836475"><ele>216.33333333333331</ele><time>2026-04-19T08:09:33Z</time></trkpt><trkpt lat="44.88722916602566" lon="8.022085485674038"><ele>218.0</ele><time>2026-04-19T08:09:35Z</time></trkpt><trkpt lat="44.88718111460062" lon="8.02220380817481"><ele>219.66666666666666</ele><time>2026-04-19T08:09:37Z</time></trkpt><trkpt lat="44.88714499880277" lon="8.022291514525332"><ele>221.33333333333331</ele><time>2026-04-19T08:09:38Z</time></trkpt><trkpt lat="44.88713390246627" lon="8.022386326071018"><ele>223.0</ele><time>2026-04-19T08:09:39Z</time></trkpt><trkpt lat="44.887133152656226" lon="8.022482359301888"><ele>224.66666666666666</ele><time>2026-04-19T08:09:40Z</time></trkpt><trkpt lat="44.88714935425854" lon="8.02259561228134"><ele>226.33333333333331</ele><time>2026-04-19T08:09:41Z</time></trkpt><trkpt lat="44.88715171255654" lon="8.022702713891666"><ele>228.0</ele><time>2026-04-19T08:09:42Z</time></trkpt><trkpt lat="44.887159311717326" lon="8.022803356604744"><ele>229.66666666666669</ele><time>2026-04-19T08:09:43Z</time></trkpt><trkpt lat="44.8871815367043" lon="8.022910558368368"><ele>231.33333333333334</ele><time>2026-04-19T08:09:44Z</time></trkpt><trkpt lat="44.88721404880056" lon="8.02302142320048"><ele>233.0</ele><time>2026-04-19T08:09:45Z</time></trkpt><trkpt lat="44.88726325017466" lon="8.023119850824449"><ele>233.00000000000003</ele><time>2026-04-19T08:09:47Z</time></trkpt><trkpt lat="44.88734127422477" lon="8.023075574070008"><ele>233.0</ele><time>2026-04-19T08:09:49Z</time></trkpt><trkpt lat="44.887395107520135" lon="8.023019736429337"><ele>233.0</ele><time>2026-04-19T08:09:50Z</time></trkpt><trkpt lat="44.8874390454623" lon="8.022932465959183"><ele>233.0</ele><time>2026-04-19T08:09:51Z</time></trkpt><trkpt lat="44.88747417769491" lon="8.022812196406262"><ele>233.00000000000003</ele><time>2026-04-19T08:09:52Z</time></trkpt><trkpt lat="44.88751318312528" lon="8.022658561458195"><ele>233.0</ele><time>2026-04-19T08:09:53Z</time></trkpt><trkpt lat="44.887567094936315" lon="8.022503321979368"><ele>233.60000000000002</ele><time>2026-04-19T08:09:54Z</time></trkpt><trkpt lat="44.887621773997815" lon="8.02238368792456"><ele>234.20000000000002</ele><time>2026-04-19T08:09:55Z</time></trkpt><trkpt lat="44.88770185418969" lon="8.022297205773926"><ele>234.8</ele><time>2026-04-19T08:09:57Z</time></trkpt><trkpt lat="44.88778883726637" lon="8.02238455551811"><ele>235.4</ele><time>2026-04-19T08:09:59Z</time></trkpt><trkpt lat="44.8878666880566" lon="8.022452554112062"><ele>236.0</ele><time>2026-04-19T08:10:00Z</time></trkpt><trkpt lat="44.8879408551663" lon="8.022482638752804"><ele>236.00000000000003</ele><time>2026-04-19T08:10:01Z</time></trkpt><trkpt lat="44.88800746788738" lon="8.022493342436086"><ele>236.0</ele><time>2026-04-19T08:10:02Z</time></trkpt><trkpt lat="44.88809832129548" lon="8.022428588835814"><ele>236.0</ele><time>2026-04-19T08:10:04Z</time></trkpt><trkpt lat="44.88815882992264" lon="8.022338911201848"><ele>236.0</ele><time>2026-04-19T08:10:05Z</time></trkpt><trkpt lat="44.8882406079497" lon="8.022321904982759"><ele>236.00000000000003</ele><time>2026-04-19T08:10:06Z</time></trkpt><trkpt lat="44.88833013796227" lon="8.022349909693537"><ele>236.0</ele><time>2026-04-19T08:10:07Z</time></trkpt><trkpt lat="44.88842319422553" lon="8.022323496780892"><ele>233.0</ele><time>2026-04-19T08:10:09Z</time></trkpt><trkpt lat="44.88847801269134" lon="8.022156942920809"><ele>230.00000000000003</ele><time>2026-04-19T08:10:11Z</time></trkpt><trkpt lat="44.88849981165392" lon="8.022030653164258"><ele>227.00000000000003</ele><time>2026-04-19T08:10:12Z</time></trkpt><trkpt lat="44.88851637022139" lon="8.0218837016458"><ele>224.0</ele><time>2026-04-19T08:10:13Z</time></trkpt><trkpt lat="44.888555310603195" lon="8.021744506563378"><ele>221.0</ele><time>2026-04-19T08:10:14Z</time></trkpt><trkpt lat="44.88860128264806" lon="8.021627922598032"><ele>220.83333333333334</ele><time>2026-04-19T08:10:15Z</time></trkpt><trkpt lat="44.888622614358155" lon="8.021543643916397"><ele>220.66666666666669</ele><time>2026-04-19T08:10:16Z</time></trkpt><trkpt lat="44.88865373549929" lon="8.02135947973505"><ele>220.5</ele><time>2026-04-19T08:10:18Z</time></trkpt><trkpt lat="44.88867583341978" lon="8.02124019230591"><ele>220.33333333333331</ele><time>2026-04-19T08:10:19Z</time></trkpt><trkpt lat="44.888693086351815" lon="8.021133407214782"><ele>220.16666666666666</ele><time>2026-04-19T08:10:20Z</time></trkpt><trkpt lat="44.88867867908214" lon="8.02104008574634"><ele>220.0</ele><time>2026-04-19T08:10:23Z</time></trkpt><trkpt lat="44.88858990750129" lon="8.020990662006795"><ele>220.0</ele><time>2026-04-19T08:10:25Z</time></trkpt><trkpt lat="44.888487992752445" lon="8.020928427116527"><ele>220.0</ele><time>2026-04-19T08:10:27Z</time></trkpt><trkpt lat="44.88846528869486" lon="8.020752734502677"><ele>220.0</ele><time>2026-04-19T08:10:29Z</time></trkpt><trkpt lat="44.88843628221352" lon="8.020616038574001"><ele>220.0</ele><time>2026-04-19T08:10:31Z</time></trkpt><trkpt lat="44.888380571986524" lon="8.020479878964963"><ele>220.16666666666666</ele><time>2026-04-19T08:10:33Z</time></trkpt><trkpt lat="44.88838273821488" lon="8.020388602842576"><ele>220.33333333333331</ele><time>2026-04-19T08:10:35Z</time></trkpt><trkpt lat="44.8884037893328" lon="8.020300835144965"><ele>220.5</ele><time>2026-04-19T08:10:37Z</time></trkpt><trkpt lat="44.888392266014456" lon="8.02014858942587"><ele>220.66666666666669</ele><time>2026-04-19T08:10:39Z</time></trkpt><trkpt lat="44.88840790101961" lon="8.020003804620961"><ele>220.83333333333334</ele><time>2026-04-19T08:10:40Z</time></trkpt><trkpt lat="44.88839852981297" lon="8.019854741960975"><ele>221.0</ele><time>2026-04-19T08:10:41Z</time></trkpt><trkpt lat="44.88837883684534" lon="8.019714488742768"><ele>221.0</ele><time>2026-04-19T08:10:42Z</time></trkpt><trkpt lat="44.88835759029051" lon="8.019574169651712"><ele>221.00000000000003</ele><time>2026-04-19T08:10:43Z</time></trkpt><trkpt lat="44.888334382714746" lon="8.0194398205396"><ele>221.00000000000003</ele><time>2026-04-19T08:10:44Z</time></trkpt><trkpt lat="44.88835359636793" lon="8.019329161695039"><ele>221.0</ele><time>2026-04-19T08:10:45Z</time></trkpt><trkpt lat="44.888433953531276" lon="8.019230813855271"><ele>221.0</ele><time>2026-04-19T08:10:46Z</time></trkpt><trkpt lat="44.88848280201149" lon="8.019119788938626"><ele>224.00000000000003</ele><time>2026-04-19T08:10:47Z</time></trkpt><trkpt lat="44.88854985845554" lon="8.019020916239457"><ele>227.0</ele><time>2026-04-19T08:10:48Z</time></trkpt><trkpt lat="44.888592532044385" lon="8.018912950355245"><ele>230.0</ele><time>2026-04-19T08:10:49Z</time></trkpt><trkpt lat="44.888643041572216" lon="8.01884148608902"><ele>233.0</ele><time>2026-04-19T08:10:50Z</time></trkpt><trkpt lat="44.88875191536143" lon="8.018813672719066"><ele>236.00000000000003</ele><time>2026-04-19T08:10:52Z</time></trkpt><trkpt lat="44.88881667065487" lon="8.018784317383174"><ele>239.0</ele><time>2026-04-19T08:10:53Z</time></trkpt><trkpt lat="44.888911755697514" lon="8.0187806107679"><ele>239.0</ele><time>2026-04-19T08:10:54Z</time></trkpt><trkpt lat="44.88903502067363" lon="8.018752694974857"><ele>238.99999999999997</ele><time>2026-04-19T08:10:55Z</time></trkpt><trkpt lat="44.88912183318348" lon="8.018762793769103"><ele>238.99999999999997</ele><time>2026-04-19T08:10:56Z</time></trkpt><trkpt lat="44.88920677941813" lon="8.01876848432851"><ele>239.0</ele><time>2026-04-19T08:10:57Z</time></trkpt><trkpt lat="44.889273409711876" lon="8.018787184689979"><ele>239.0</ele><time>2026-04-19T08:10:58Z</time></trkpt><trkpt lat="44.88935373835091" lon="8.018863671270275"><ele>237.50000000000003</ele><time>2026-04-19T08:10:59Z</time></trkpt><trkpt lat="44.889429125628176" lon="8.018932148795182"><ele>236.0</ele><time>2026-04-19T08:11:00Z</time></trkpt><trkpt lat="44.88949510129353" lon="8.018993450614456"><ele>234.5</ele><time>2026-04-19T08:11:01Z</time></trkpt><trkpt lat="44.889562221715465" lon="8.019030306229117"><ele>233.0</ele><time>2026-04-19T08:11:02Z</time></trkpt><trkpt lat="44.88963192595575" lon="8.019083820408012"><ele>231.50000000000003</ele><time>2026-04-19T08:11:03Z</time></trkpt><trkpt lat="44.88970039144118" lon="8.019169302875325"><ele>230.0</ele><time>2026-04-19T08:11:04Z</time></trkpt><trkpt lat="44.88976576250986" lon="8.019249570655308"><ele>228.66666666666669</ele><time>2026-04-19T08:11:05Z</time></trkpt><trkpt lat="44.88984339226594" lon="8.019328988898577"><ele>227.33333333333334</ele><time>2026-04-19T08:11:06Z</time></trkpt><trkpt lat="44.88992070868721" lon="8.019395684144778"><ele>226.0</ele><time>2026-04-19T08:11:07Z</time></trkpt><trkpt lat="44.889985462794456" lon="8.01942835531472"><ele>224.66666666666669</ele><time>2026-04-19T08:11:08Z</time></trkpt><trkpt lat="44.890075906175746" lon="8.0194503296916"><ele>223.33333333333334</ele><time>2026-04-19T08:11:09Z</time></trkpt><trkpt lat="44.89017583823042" lon="8.019434436058669"><ele>222.0</ele><time>2026-04-19T08:11:10Z</time></trkpt><trkpt lat="44.890273920695904" lon="8.019415468025882"><ele>219.33333333333334</ele><time>2026-04-19T08:11:11Z</time></trkpt><trkpt lat="44.890350402371574" lon="8.01940536235829"><ele>216.66666666666669</ele><time>2026-04-19T08:11:12Z</time></trkpt><trkpt lat="44.890431860947956" lon="8.019389350521545"><ele>214.0</ele><time>2026-04-19T08:11:13Z</time></trkpt><trkpt lat="44.89049449133878" lon="8.01937627292569"><ele>211.33333333333334</ele><time>2026-04-19T08:11:14Z</time></trkpt><trkpt lat="44.89047189832468" lon="8.019259319155056"><ele>208.66666666666669</ele><time>2026-04-19T08:11:19Z</time></trkpt><trkpt lat="44.89038682880579" lon="8.019212561638234"><ele>206.0</ele><time>2026-04-19T08:11:23Z</time></trkpt><trkpt lat="44.890353546111335" lon="8.019134582903515"><ele>205.20000000000002</ele><time>2026-04-19T08:11:25Z</time></trkpt><trkpt lat="44.89034578675157" lon="8.019005911917283"><ele>204.4</ele><time>2026-04-19T08:11:27Z</time></trkpt><trkpt lat="44.89032073388239" lon="8.01887743138611"><ele>203.6</ele><time>2026-04-19T08:11:30Z</time></trkpt><trkpt lat="44.890266318151625" lon="8.018724506123583"><ele>202.8</ele><time>2026-04-19T08:11:32Z</time></trkpt><trkpt lat="44.89023475037117" lon="8.018612620094453"><ele>202.0</ele><time>2026-04-19T08:11:35Z</time></trkpt><trkpt lat="44.89023609194609" lon="8.018516940210393"><ele>201.99999999999997</ele><time>2026-04-19T08:11:38Z</time></trkpt><trkpt lat="44.89025161074043" lon="8.018425987246456"><ele>202.0</ele><time>2026-04-19T08:11:40Z</time></trkpt><trkpt lat="44.89026245736062" lon="8.018338407141242"><ele>202.0</ele><time>2026-04-19T08:11:42Z</time></trkpt><trkpt lat="44.890252383023146" lon="8.018243946466859"><ele>202.0</ele><time>2026-04-19T08:11:44Z</time></trkpt><trkpt lat="44.89020186671266" lon="8.018083710513634"><ele>201.99999999999997</ele><time>2026-04-19T08:11:47Z</time></trkpt><trkpt lat="44.890185302141674" lon="8.01795410485141"><ele>202.0</ele><time>2026-04-19T08:11:49Z</time></trkpt><trkpt lat="44.89019944406689" lon="8.017795276793073"><ele>203.0</ele><time>2026-04-19T08:11:50Z</time></trkpt><trkpt lat="44.89022251111176" lon="8.017643490896264"><ele>204.0</ele><time>2026-04-19T08:11:51Z</time></trkpt><trkpt lat="44.89027217047587" lon="8.01746129793677"><ele>205.0</ele><time>2026-04-19T08:11:53Z</time></trkpt><trkpt lat="44.890291736269475" lon="8.017352394546995"><ele>206.0</ele><time>2026-04-19T08:11:54Z</time></trkpt><trkpt lat="44.890305562948015" lon="8.01722725870067"><ele>207.0</ele><time>2026-04-19T08:11:55Z</time></trkpt><trkpt lat="44.89033438777385" lon="8.017104349161539"><ele>209.5</ele><time>2026-04-19T08:11:56Z</time></trkpt><trkpt lat="44.89036020778808" lon="8.017008418434338"><ele>212.0</ele><time>2026-04-19T08:11:57Z</time></trkpt><trkpt lat="44.890413232653124" lon="8.016776859034715"><ele>214.5</ele><time>2026-04-19T08:11:59Z</time></trkpt><trkpt lat="44.890465363372456" lon="8.016653394573675"><ele>217.0</ele><time>2026-04-19T08:12:00Z</time></trkpt><trkpt lat="44.89047674467056" lon="8.016373062647688"><ele>218.49999999999997</ele><time>2026-04-19T08:12:01Z</time></trkpt><trkpt lat="44.89054421127343" lon="8.016331710900854"><ele>220.0</ele><time>2026-04-19T08:12:02Z</time></trkpt><trkpt lat="44.89061062429327" lon="8.016280081894628"><ele>221.5</ele><time>2026-04-19T08:12:03Z</time></trkpt><trkpt lat="44.89070113113093" lon="8.016216906816151"><ele>223.0</ele><time>2026-04-19T08:12:04Z</time></trkpt><trkpt lat="44.89074138598065" lon="8.01614574001641"><ele>224.49999999999997</ele><time>2026-04-19T08:12:05Z</time></trkpt><trkpt lat="44.89077066535086" lon="8.016058400241025"><ele>226.0</ele><time>2026-04-19T08:12:06Z</time></trkpt><trkpt lat="44.89078118755668" lon="8.015937367803865"><ele>225.60000000000002</ele><time>2026-04-19T08:12:07Z</time></trkpt><trkpt lat="44.890846535908246" lon="8.01581890478301"><ele>225.20000000000002</ele><time>2026-04-19T08:12:08Z</time></trkpt><trkpt lat="44.8909205896187" lon="8.015725854944042"><ele>224.79999999999998</ele><time>2026-04-19T08:12:09Z</time></trkpt><trkpt lat="44.890906730120854" lon="8.015573121203035"><ele>224.39999999999998</ele><time>2026-04-19T08:12:11Z</time></trkpt><trkpt lat="44.89088827521811" lon="8.015480795496"><ele>224.0</ele><time>2026-04-19T08:12:12Z</time></trkpt><trkpt lat="44.89087259702397" lon="8.015382517277091"><ele>224.00000000000003</ele><time>2026-04-19T08:12:13Z</time></trkpt><trkpt lat="44.89079657564846" lon="8.015333449774898"><ele>224.0</ele><time>2026-04-19T08:12:16Z</time></trkpt><trkpt lat="44.89077089038767" lon="8.015174943650825"><ele>224.0</ele><time>2026-04-19T08:12:21Z</time></trkpt><trkpt lat="44.890808396774105" lon="8.015093227967016"><ele>224.0</ele><time>2026-04-19T08:12:24Z</time></trkpt><trkpt lat="44.8908149667196" lon="8.014932236380465"><ele>224.00000000000003</ele><time>2026-04-19T08:12:26Z</time></trkpt><trkpt lat="44.890831262622335" lon="8.014839867052713"><ele>224.0</ele><time>2026-04-19T08:12:27Z</time></trkpt><trkpt lat="44.890832115009026" lon="8.01474967612779"><ele>222.2</ele><time>2026-04-19T08:12:28Z</time></trkpt><trkpt lat="44.890827437499134" lon="8.014555188349153"><ele>220.39999999999998</ele><time>2026-04-19T08:12:30Z</time></trkpt><trkpt lat="44.89080605169459" lon="8.014456029406228"><ele>218.6</ele><time>2026-04-19T08:12:31Z</time></trkpt><trkpt lat="44.8908014273172" lon="8.014335716918193"><ele>216.8</ele><time>2026-04-19T08:12:32Z</time></trkpt><trkpt lat="44.89080889082902" lon="8.014193479749931"><ele>215.0</ele><time>2026-04-19T08:12:34Z</time></trkpt><trkpt lat="44.89084663152424" lon="8.014091891764757"><ele>212.2</ele><time>2026-04-19T08:12:37Z</time></trkpt><trkpt lat="44.89086565382025" lon="8.013952282154113"><ele>209.4</ele><time>2026-04-19T08:12:39Z</time></trkpt><trkpt lat="44.89086909288677" lon="8.013838334748991"><ele>206.60000000000002</ele><time>2026-04-19T08:12:40Z</time></trkpt><trkpt lat="44.890890441733106" lon="8.013717530551592"><ele>203.8</ele><time>2026-04-19T08:12:41Z</time></trkpt><trkpt lat="44.89091090638289" lon="8.013626462721158"><ele>201.0</ele><time>2026-04-19T08:12:42Z</time></trkpt><trkpt lat="44.89092978673694" lon="8.01343044144389"><ele>199.0</ele><time>2026-04-19T08:12:44Z</time></trkpt><trkpt lat="44.89093472209925" lon="8.013334627460534"><ele>197.0</ele><time>2026-04-19T08:12:45Z</time></trkpt><trkpt lat="44.890911800295534" lon="8.013191991155246"><ele>195.0</ele><time>2026-04-19T08:12:47Z</time></trkpt><trkpt lat="44.89084008558291" lon="8.013119957459025"><ele>193.0</ele><time>2026-04-19T08:12:49Z</time></trkpt><trkpt lat="44.89076507511579" lon="8.013164516181764"><ele>191.0</ele><time>2026-04-19T08:12:53Z</time></trkpt><trkpt lat="44.89072089223789" lon="8.013252742827099"><ele>189.0</ele><time>2026-04-19T08:12:56Z</time></trkpt><trkpt lat="44.89064097950169" lon="8.013304201281187"><ele>188.2</ele><time>2026-04-19T08:12:59Z</time></trkpt><trkpt lat="44.890556020014884" lon="8.013353506757294"><ele>187.39999999999998</ele><time>2026-04-19T08:13:01Z</time></trkpt><trkpt lat="44.8904448371125" lon="8.013349533045625"><ele>186.6</ele><time>2026-04-19T08:13:02Z</time></trkpt><trkpt lat="44.89034579780274" lon="8.013339751141588"><ele>185.8</ele><time>2026-04-19T08:13:03Z</time></trkpt><trkpt lat="44.89026771843577" lon="8.01324621838995"><ele>185.0</ele><time>2026-04-19T08:13:04Z</time></trkpt><trkpt lat="44.89021853842762" lon="8.013119388212475"><ele>185.0</ele><time>2026-04-19T08:13:06Z</time></trkpt><trkpt lat="44.89027883734865" lon="8.012968226876593"><ele>185.0</ele><time>2026-04-19T08:13:08Z</time></trkpt><trkpt lat="44.89033576590113" lon="8.012890684479737"><ele>185.0</ele><time>2026-04-19T08:13:09Z</time></trkpt><trkpt lat="44.8903872315163" lon="8.012794707019763"><ele>185.0</ele><time>2026-04-19T08:13:10Z</time></trkpt><trkpt lat="44.89045712071168" lon="8.012668123352476"><ele>185.0</ele><time>2026-04-19T08:13:11Z</time></trkpt><trkpt lat="44.89051430280114" lon="8.012544727621183"><ele>184.0</ele><time>2026-04-19T08:13:12Z</time></trkpt><trkpt lat="44.890566685875335" lon="8.01247284772391"><ele>183.0</ele><time>2026-04-19T08:13:13Z</time></trkpt><trkpt lat="44.89061394646188" lon="8.012378194806987"><ele>182.0</ele><time>2026-04-19T08:13:15Z</time></trkpt><trkpt lat="44.89063707641507" lon="8.012259889931554"><ele>181.0</ele><time>2026-04-19T08:13:16Z</time></trkpt><trkpt lat="44.89065958428607" lon="8.01209189625494"><ele>180.0</ele><time>2026-04-19T08:13:17Z</time></trkpt><trkpt lat="44.89070827253362" lon="8.011929498823235"><ele>180.0</ele><time>2026-04-19T08:13:18Z</time></trkpt><trkpt lat="44.890767357317586" lon="8.011765114903568"><ele>180.0</ele><time>2026-04-19T08:13:19Z</time></trkpt><trkpt lat="44.89083091185035" lon="8.011590956865057"><ele>180.0</ele><time>2026-04-19T08:13:20Z</time></trkpt><trkpt lat="44.890893966663135" lon="8.011416084502708"><ele>180.0</ele><time>2026-04-19T08:13:21Z</time></trkpt><trkpt lat="44.890944548575725" lon="8.01124647544887"><ele>179.0</ele><time>2026-04-19T08:13:22Z</time></trkpt><trkpt lat="44.891023224705364" lon="8.011084553642437"><ele>178.0</ele><time>2026-04-19T08:13:23Z</time></trkpt><trkpt lat="44.89109242559397" lon="8.010911711754522"><ele>177.0</ele><time>2026-04-19T08:13:24Z</time></trkpt><trkpt lat="44.891163564827565" lon="8.010740844575755"><ele>176.0</ele><time>2026-04-19T08:13:25Z</time></trkpt><trkpt lat="44.89123686699928" lon="8.010567106474989"><ele>176.0</ele><time>2026-04-19T08:13:26Z</time></trkpt><trkpt lat="44.891312019052286" lon="8.01038439063083"><ele>176.0</ele><time>2026-04-19T08:13:27Z</time></trkpt><trkpt lat="44.891387015264634" lon="8.01020778005165"><ele>176.0</ele><time>2026-04-19T08:13:28Z</time></trkpt><trkpt lat="44.89146126135398" lon="8.010028131741592"><ele>176.0</ele><time>2026-04-19T08:13:29Z</time></trkpt><trkpt lat="44.89152782728614" lon="8.009868128679313"><ele>176.16666666666666</ele><time>2026-04-19T08:13:30Z</time></trkpt><trkpt lat="44.891590526004265" lon="8.009713337233185"><ele>176.33333333333331</ele><time>2026-04-19T08:13:31Z</time></trkpt><trkpt lat="44.89164088683953" lon="8.009592534089439"><ele>176.5</ele><time>2026-04-19T08:13:32Z</time></trkpt><trkpt lat="44.89168082183994" lon="8.009510207641974"><ele>176.66666666666666</ele><time>2026-04-19T08:13:34Z</time></trkpt><trkpt lat="44.89161976974997" lon="8.009464932382048"><ele>176.83333333333334</ele><time>2026-04-19T08:13:37Z</time></trkpt><trkpt lat="44.89154916910974" lon="8.009430050262523"><ele>177.0</ele><time>2026-04-19T08:13:38Z</time></trkpt><trkpt lat="44.89145674086647" lon="8.009382551854019"><ele>177.0</ele><time>2026-04-19T08:13:39Z</time></trkpt><trkpt lat="44.891375021258696" lon="8.009333209047897"><ele>177.0</ele><time>2026-04-19T08:13:40Z</time></trkpt><trkpt lat="44.89131466178222" lon="8.009288932878846"><ele>177.0</ele><time>2026-04-19T08:13:43Z</time></trkpt><trkpt lat="44.89122092727065" lon="8.00925575841529"><ele>177.0</ele><time>2026-04-19T08:13:47Z</time></trkpt><trkpt lat="44.891115436711395" lon="8.009230367423765"><ele>177.0</ele><time>2026-04-19T08:13:48Z</time></trkpt><trkpt lat="44.89104659413293" lon="8.009213051488347"><ele>177.0</ele><time>2026-04-19T08:13:49Z</time></trkpt><trkpt lat="44.89100471357571" lon="8.00910076621565"><ele>178.0</ele><time>2026-04-19T08:13:52Z</time></trkpt><trkpt lat="44.890933098379165" lon="8.009022217374069"><ele>179.0</ele><time>2026-04-19T08:13:54Z</time></trkpt><trkpt lat="44.89092198526011" lon="8.008910258173053"><ele>180.0</ele><time>2026-04-19T08:14:01Z</time></trkpt><trkpt lat="44.89082764445695" lon="8.008860022704123"><ele>181.0</ele><time>2026-04-19T08:14:04Z</time></trkpt><trkpt lat="44.89078493691888" lon="8.008787931402814"><ele>182.0</ele><time>2026-04-19T08:14:06Z</time></trkpt><trkpt lat="44.890717148489756" lon="8.0086601018606"><ele>182.0</ele><time>2026-04-19T08:14:08Z</time></trkpt><trkpt lat="44.89062878174145" lon="8.008586899771657"><ele>182.0</ele><time>2026-04-19T08:14:10Z</time></trkpt><trkpt lat="44.890527206641494" lon="8.008574530559093"><ele>182.0</ele><time>2026-04-19T08:14:13Z</time></trkpt><trkpt lat="44.89042828856518" lon="8.008597019482423"><ele>182.0</ele><time>2026-04-19T08:14:15Z</time></trkpt><trkpt lat="44.89035598203375" lon="8.008682141310903"><ele>182.0</ele><time>2026-04-19T08:14:18Z</time></trkpt><trkpt lat="44.89025371390121" lon="8.008756880202663"><ele>182.0</ele><time>2026-04-19T08:14:20Z</time></trkpt><trkpt lat="44.89017639683432" lon="8.008729007844593"><ele>182.0</ele><time>2026-04-19T08:14:23Z</time></trkpt><trkpt lat="44.890063693233486" lon="8.008663279266848"><ele>182.0</ele><time>2026-04-19T08:14:25Z</time></trkpt><trkpt lat="44.88999395871325" lon="8.008657338352247"><ele>182.0</ele><time>2026-04-19T08:14:26Z</time></trkpt><trkpt lat="44.8899001756815" lon="8.00870381436654"><ele>182.0</ele><time>2026-04-19T08:14:28Z</time></trkpt><trkpt lat="44.88984354772093" lon="8.008791506335996"><ele>181.85714285714286</ele><time>2026-04-19T08:14:30Z</time></trkpt><trkpt lat="44.889779039935696" lon="8.008803687990303"><ele>181.71428571428572</ele><time>2026-04-19T08:14:32Z</time></trkpt><trkpt lat="44.88974456598427" lon="8.00871424683385"><ele>181.57142857142856</ele><time>2026-04-19T08:14:36Z</time></trkpt><trkpt lat="44.889682898704734" lon="8.008693185982391"><ele>181.42857142857144</ele><time>2026-04-19T08:14:40Z</time></trkpt><trkpt lat="44.88959834832093" lon="8.008742625531378"><ele>181.28571428571428</ele><time>2026-04-19T08:14:41Z</time></trkpt><trkpt lat="44.88952259054675" lon="8.008792138831016"><ele>181.14285714285714</ele><time>2026-04-19T08:14:42Z</time></trkpt><trkpt lat="44.88945949264564" lon="8.008832415088131"><ele>181.0</ele><time>2026-04-19T08:14:43Z</time></trkpt><trkpt lat="44.88935640232425" lon="8.00885114046733"><ele>181.5</ele><time>2026-04-19T08:14:45Z</time></trkpt><trkpt lat="44.88925078045896" lon="8.008885035669325"><ele>182.0</ele><time>2026-04-19T08:14:47Z</time></trkpt><trkpt lat="44.889168974985765" lon="8.00890379121475"><ele>182.5</ele><time>2026-04-19T08:14:51Z</time></trkpt><trkpt lat="44.88910162959057" lon="8.00890952045528"><ele>183.0</ele><time>2026-04-19T08:14:53Z</time></trkpt><trkpt lat="44.88902327052469" lon="8.008946350904177"><ele>183.5</ele><time>2026-04-19T08:14:54Z</time></trkpt><trkpt lat="44.88896046135888" lon="8.008974930783683"><ele>184.0</ele><time>2026-04-19T08:14:55Z</time></trkpt><trkpt lat="44.88885398796831" lon="8.008953036164298"><ele>184.0</ele><time>2026-04-19T08:14:57Z</time></trkpt><trkpt lat="44.888780107684845" lon="8.008958187509132"><ele>184.0</ele><time>2026-04-19T08:14:58Z</time></trkpt><trkpt lat="44.88870731577886" lon="8.00895493900573"><ele>184.0</ele><time>2026-04-19T08:14:59Z</time></trkpt><trkpt lat="44.88864833479478" lon="8.008988335078802"><ele>184.0</ele><time>2026-04-19T08:15:01Z</time></trkpt><trkpt lat="44.88861588273963" lon="8.009077399959523"><ele>184.0</ele><time>2026-04-19T08:15:03Z</time></trkpt><trkpt lat="44.888520818921045" lon="8.009101151098907"><ele>184.0</ele><time>2026-04-19T08:15:05Z</time></trkpt><trkpt lat="44.888397175371416" lon="8.009043808630945"><ele>184.39999999999998</ele><time>2026-04-19T08:15:07Z</time></trkpt><trkpt lat="44.8882734336532" lon="8.009018896486163"><ele>184.8</ele><time>2026-04-19T08:15:09Z</time></trkpt><trkpt lat="44.88818225169631" lon="8.009045260091078"><ele>185.2</ele><time>2026-04-19T08:15:11Z</time></trkpt><trkpt lat="44.88810381547959" lon="8.009147084269184"><ele>185.60000000000002</ele><time>2026-04-19T08:15:13Z</time></trkpt><trkpt lat="44.88803278025522" lon="8.009231183831753"><ele>186.0</ele><time>2026-04-19T08:15:15Z</time></trkpt><trkpt lat="44.88791375723345" lon="8.009235082992854"><ele>186.0</ele><time>2026-04-19T08:15:17Z</time></trkpt><trkpt lat="44.887871997485384" lon="8.00912145832559"><ele>186.0</ele><time>2026-04-19T08:15:21Z</time></trkpt><trkpt lat="44.88779255509284" lon="8.00908109063057"><ele>186.0</ele><time>2026-04-19T08:15:23Z</time></trkpt><trkpt lat="44.887731389400756" lon="8.009022532821282"><ele>186.0</ele><time>2026-04-19T08:15:27Z</time></trkpt><trkpt lat="44.88763023708033" lon="8.008949072593749"><ele>186.0</ele><time>2026-04-19T08:15:29Z</time></trkpt><trkpt lat="44.887539734528616" lon="8.008948396885444"><ele>186.0</ele><time>2026-04-19T08:15:32Z</time></trkpt><trkpt lat="44.887467872206216" lon="8.00902260168917"><ele>186.0</ele><time>2026-04-19T08:15:35Z</time></trkpt><trkpt lat="44.88740120814012" lon="8.009082121135881"><ele>186.0</ele><time>2026-04-19T08:15:38Z</time></trkpt><trkpt lat="44.88733719402132" lon="8.00919219472071"><ele>186.0</ele><time>2026-04-19T08:15:41Z</time></trkpt><trkpt lat="44.88726544255018" lon="8.009314247236214"><ele>186.0</ele><time>2026-04-19T08:15:45Z</time></trkpt><trkpt lat="44.88720919676409" lon="8.009360286330052"><ele>186.0</ele><time>2026-04-19T08:15:47Z</time></trkpt><trkpt lat="44.887147078043846" lon="8.00942288077529"><ele>186.0</ele><time>2026-04-19T08:15:49Z</time></trkpt><trkpt lat="44.88709523732979" lon="8.009476095872452"><ele>186.0</ele><time>2026-04-19T08:15:50Z</time></trkpt><trkpt lat="44.88705202199243" lon="8.009554131789928"><ele>186.0</ele><time>2026-04-19T08:15:51Z</time></trkpt><trkpt lat="44.8869262869125" lon="8.009602445460056"><ele>186.0</ele><time>2026-04-19T08:15:53Z</time></trkpt><trkpt lat="44.88685924448438" lon="8.009600962954652"><ele>186.0</ele><time>2026-04-19T08:15:54Z</time></trkpt><trkpt lat="44.88675960761675" lon="8.009623720253579"><ele>186.0</ele><time>2026-04-19T08:15:56Z</time></trkpt><trkpt lat="44.88670251097989" lon="8.009669979739943"><ele>186.20000000000002</ele><time>2026-04-19T08:15:58Z</time></trkpt><trkpt lat="44.886616720177166" lon="8.0097482963287"><ele>186.4</ele><time>2026-04-19T08:16:00Z</time></trkpt><trkpt lat="44.886517697624576" lon="8.009836055343017"><ele>186.6</ele><time>2026-04-19T08:16:02Z</time></trkpt><trkpt lat="44.88642039586096" lon="8.009838569550652"><ele>186.8</ele><time>2026-04-19T08:16:04Z</time></trkpt><trkpt lat="44.88635430456495" lon="8.009897748113884"><ele>187.0</ele><time>2026-04-19T08:16:06Z</time></trkpt><trkpt lat="44.886261876054895" lon="8.009960027577558"><ele>187.0</ele><time>2026-04-19T08:16:09Z</time></trkpt><trkpt lat="44.886185918711405" lon="8.010017683383527"><ele>187.0</ele><time>2026-04-19T08:16:12Z</time></trkpt><trkpt lat="44.88614040908607" lon="8.010086747725243"><ele>187.0</ele><time>2026-04-19T08:16:14Z</time></trkpt><trkpt lat="44.886032618674" lon="8.010226051194296"><ele>187.0</ele><time>2026-04-19T08:16:16Z</time></trkpt><trkpt lat="44.88596341157458" lon="8.010292598287583"><ele>187.0</ele><time>2026-04-19T08:16:17Z</time></trkpt><trkpt lat="44.88586830152479" lon="8.010350058906512"><ele>187.0</ele><time>2026-04-19T08:16:18Z</time></trkpt><trkpt lat="44.88574440362166" lon="8.01038757503809"><ele>187.0</ele><time>2026-04-19T08:16:19Z</time></trkpt><trkpt lat="44.8856663151951" lon="8.010414567062362"><ele>187.0</ele><time>2026-04-19T08:16:20Z</time></trkpt><trkpt lat="44.88559331224679" lon="8.010466423449488"><ele>187.0</ele><time>2026-04-19T08:16:21Z</time></trkpt><trkpt lat="44.885512065720285" lon="8.010533634691118"><ele>187.0</ele><time>2026-04-19T08:16:22Z</time></trkpt><trkpt lat="44.885429588088144" lon="8.010593847222278"><ele>187.0</ele><time>2026-04-19T08:16:23Z</time></trkpt><trkpt lat="44.88534251207759" lon="8.010632297492304"><ele>187.0</ele><time>2026-04-19T08:16:24Z</time></trkpt><trkpt lat="44.885265393242115" lon="8.010712206966444"><ele>187.0</ele><time>2026-04-19T08:16:25Z</time></trkpt><trkpt lat="44.8851967741355" lon="8.010776978653967"><ele>187.0</ele><time>2026-04-19T08:16:26Z</time></trkpt><trkpt lat="44.885117963535976" lon="8.010848672979424"><ele>187.0</ele><time>2026-04-19T08:16:27Z</time></trkpt><trkpt lat="44.885027365352435" lon="8.010891578435906"><ele>187.5</ele><time>2026-04-19T08:16:28Z</time></trkpt><trkpt lat="44.88494239545337" lon="8.010928607134423"><ele>188.0</ele><time>2026-04-19T08:16:29Z</time></trkpt><trkpt lat="44.88487936981685" lon="8.010991565098363"><ele>188.5</ele><time>2026-04-19T08:16:30Z</time></trkpt><trkpt lat="44.88482544120588" lon="8.01106754314958"><ele>189.0</ele><time>2026-04-19T08:16:31Z</time></trkpt><trkpt lat="44.88476744264652" lon="8.011136252645635"><ele>189.5</ele><time>2026-04-19T08:16:32Z</time></trkpt><trkpt lat="44.88468244385145" lon="8.011274101476365"><ele>190.0</ele><time>2026-04-19T08:16:34Z</time></trkpt><trkpt lat="44.88458982524496" lon="8.011310604941194"><ele>190.0</ele><time>2026-04-19T08:16:36Z</time></trkpt><trkpt lat="44.88446388609459" lon="8.011347487463931"><ele>190.0</ele><time>2026-04-19T08:16:38Z</time></trkpt><trkpt lat="44.88439639896099" lon="8.01133576118817"><ele>190.0</ele><time>2026-04-19T08:16:39Z</time></trkpt><trkpt lat="44.884290961506274" lon="8.011315503579413"><ele>190.0</ele><time>2026-04-19T08:16:40Z</time></trkpt><trkpt lat="44.88420032753554" lon="8.011341782300393"><ele>190.0</ele><time>2026-04-19T08:16:41Z</time></trkpt><trkpt lat="44.88412825259574" lon="8.011336163427739"><ele>191.0</ele><time>2026-04-19T08:16:42Z</time></trkpt><trkpt lat="44.884027770541174" lon="8.011313961532702"><ele>192.0</ele><time>2026-04-19T08:16:43Z</time></trkpt><trkpt lat="44.88392833298126" lon="8.011301776187867"><ele>193.0</ele><time>2026-04-19T08:16:44Z</time></trkpt><trkpt lat="44.883831688114775" lon="8.011308671948902"><ele>194.0</ele><time>2026-04-19T08:16:45Z</time></trkpt><trkpt lat="44.88374661945469" lon="8.011315016244222"><ele>195.0</ele><time>2026-04-19T08:16:46Z</time></trkpt><trkpt lat="44.88367269634234" lon="8.01132920659237"><ele>195.0</ele><time>2026-04-19T08:16:47Z</time></trkpt><trkpt lat="44.88361669590702" lon="8.011256708119861"><ele>195.0</ele><time>2026-04-19T08:16:50Z</time></trkpt><trkpt lat="44.8835512006389" lon="8.011297041209962"><ele>195.0</ele><time>2026-04-19T08:16:52Z</time></trkpt><trkpt lat="44.883445392118944" lon="8.01136840288089"><ele>195.0</ele><time>2026-04-19T08:16:54Z</time></trkpt><trkpt lat="44.88338090270207" lon="8.011412748695225"><ele>195.0</ele><time>2026-04-19T08:16:55Z</time></trkpt><trkpt lat="44.88330700295907" lon="8.011419582435558"><ele>195.0</ele><time>2026-04-19T08:16:56Z</time></trkpt><trkpt lat="44.88321902137832" lon="8.011342217330961"><ele>195.33333333333334</ele><time>2026-04-19T08:16:58Z</time></trkpt><trkpt lat="44.88316591586796" lon="8.011271027649592"><ele>195.66666666666669</ele><time>2026-04-19T08:16:59Z</time></trkpt><trkpt lat="44.8830543477936" lon="8.011261614201764"><ele>196.0</ele><time>2026-04-19T08:17:01Z</time></trkpt><trkpt lat="44.88294417707381" lon="8.01121574107505"><ele>196.33333333333334</ele><time>2026-04-19T08:17:03Z</time></trkpt><trkpt lat="44.88287609333391" lon="8.011192016552267"><ele>196.66666666666669</ele><time>2026-04-19T08:17:04Z</time></trkpt><trkpt lat="44.88280750562523" lon="8.011175312539876"><ele>197.0</ele><time>2026-04-19T08:17:05Z</time></trkpt><trkpt lat="44.882707423422296" lon="8.011188149809744"><ele>197.00000000000003</ele><time>2026-04-19T08:17:07Z</time></trkpt><trkpt lat="44.88262136477094" lon="8.011228209934568"><ele>197.0</ele><time>2026-04-19T08:17:11Z</time></trkpt><trkpt lat="44.882544806544864" lon="8.011254076840856"><ele>197.0</ele><time>2026-04-19T08:17:13Z</time></trkpt><trkpt lat="44.88242259364307" lon="8.011321546837005"><ele>197.0</ele><time>2026-04-19T08:17:16Z</time></trkpt><trkpt lat="44.8823441967" lon="8.011350311102808"><ele>197.00000000000003</ele><time>2026-04-19T08:17:18Z</time></trkpt><trkpt lat="44.88227742771582" lon="8.01133319188348"><ele>197.0</ele><time>2026-04-19T08:17:21Z</time></trkpt><trkpt lat="44.88214595681679" lon="8.01132481876894"><ele>196.50000000000003</ele><time>2026-04-19T08:17:23Z</time></trkpt><trkpt lat="44.88209156024663" lon="8.011273209277409"><ele>196.0</ele><time>2026-04-19T08:17:26Z</time></trkpt><trkpt lat="44.88201902254477" lon="8.0112781799833"><ele>195.5</ele><time>2026-04-19T08:17:28Z</time></trkpt><trkpt lat="44.88194162650913" lon="8.011300278780437"><ele>195.0</ele><time>2026-04-19T08:17:31Z</time></trkpt><trkpt lat="44.88182879365568" lon="8.011309293058277"><ele>194.50000000000003</ele><time>2026-04-19T08:17:34Z</time></trkpt><trkpt lat="44.88175440351351" lon="8.01127467877174"><ele>194.0</ele><time>2026-04-19T08:17:37Z</time></trkpt><trkpt lat="44.880951078358414" lon="8.011524081318385"><ele>193.79999999999998</ele><time>2026-04-19T08:17:39Z</time></trkpt><trkpt lat="44.880942421291444" lon="8.01168751324703"><ele>193.6</ele><time>2026-04-19T08:17:41Z</time></trkpt><trkpt lat="44.88088547318377" lon="8.0117820212748"><ele>193.4</ele><time>2026-04-19T08:17:43Z</time></trkpt><trkpt lat="44.88077853197639" lon="8.011772866761923"><ele>193.2</ele><time>2026-04-19T08:17:45Z</time></trkpt><trkpt lat="44.880720055549375" lon="8.011820873845288"><ele>193.0</ele><time>2026-04-19T08:17:47Z</time></trkpt><trkpt lat="44.88061143908699" lon="8.011945557842227"><ele>193.0</ele><time>2026-04-19T08:17:57Z</time></trkpt><trkpt lat="44.880523223960175" lon="8.011976330581142"><ele>193.0</ele><time>2026-04-19T08:17:59Z</time></trkpt><trkpt lat="44.88042498194655" lon="8.012098125469478"><ele>193.0</ele><time>2026-04-19T08:18:01Z</time></trkpt><trkpt lat="44.88032534678895" lon="8.012060099789482"><ele>193.0</ele><time>2026-04-19T08:18:04Z</time></trkpt><trkpt lat="44.880235789914764" lon="8.01210107021658"><ele>193.0</ele><time>2026-04-19T08:18:05Z</time></trkpt><trkpt lat="44.88015493829867" lon="8.012180375706388"><ele>193.49999999999997</ele><time>2026-04-19T08:18:07Z</time></trkpt><trkpt lat="44.880059629067276" lon="8.01220446807815"><ele>194.0</ele><time>2026-04-19T08:18:09Z</time></trkpt><trkpt lat="44.879994404631965" lon="8.012177792053789"><ele>194.5</ele><time>2026-04-19T08:18:10Z</time></trkpt><trkpt lat="44.87992813839026" lon="8.012189104318525"><ele>195.0</ele><time>2026-04-19T08:18:11Z</time></trkpt><trkpt lat="44.87986065053766" lon="8.012182580382294"><ele>195.49999999999997</ele><time>2026-04-19T08:18:12Z</time></trkpt><trkpt lat="44.87976854684842" lon="8.0122601328982"><ele>196.0</ele><time>2026-04-19T08:18:14Z</time></trkpt><trkpt lat="44.879681499998604" lon="8.012432045189394"><ele>195.99999999999997</ele><time>2026-04-19T08:18:16Z</time></trkpt><trkpt lat="44.87963439771358" lon="8.012517643347149"><ele>196.0</ele><time>2026-04-19T08:18:17Z</time></trkpt><trkpt lat="44.879583103153536" lon="8.012596054392683"><ele>196.0</ele><time>2026-04-19T08:18:18Z</time></trkpt><trkpt lat="44.87952317783218" lon="8.012530014029672"><ele>196.0</ele><time>2026-04-19T08:18:20Z</time></trkpt><trkpt lat="44.87939981391653" lon="8.012598170661809"><ele>195.99999999999997</ele><time>2026-04-19T08:18:22Z</time></trkpt><trkpt lat="44.87931950848204" lon="8.012575549968382"><ele>196.0</ele><time>2026-04-19T08:18:23Z</time></trkpt><trkpt lat="44.87920891241931" lon="8.012598912111331"><ele>196.0</ele><time>2026-04-19T08:18:25Z</time></trkpt><trkpt lat="44.879106730994465" lon="8.012576223751253"><ele>196.0</ele><time>2026-04-19T08:18:27Z</time></trkpt><trkpt lat="44.87900756335476" lon="8.01260812627119"><ele>196.0</ele><time>2026-04-19T08:18:29Z</time></trkpt><trkpt lat="44.87891933698988" lon="8.012658527766577"><ele>196.0</ele><time>2026-04-19T08:18:31Z</time></trkpt><trkpt lat="44.87883568794782" lon="8.012683196810245"><ele>196.0</ele><time>2026-04-19T08:18:34Z</time></trkpt><trkpt lat="44.87877148490563" lon="8.012795024288295"><ele>195.99999999999997</ele><time>2026-04-19T08:18:37Z</time></trkpt><trkpt lat="44.87869483524122" lon="8.012815236955154"><ele>196.0</ele><time>2026-04-19T08:18:39Z</time></trkpt><trkpt lat="44.87860728249872" lon="8.012869661700517"><ele>196.0</ele><time>2026-04-19T08:18:41Z</time></trkpt><trkpt lat="44.87858401939502" lon="8.012953593334663"><ele>196.0</ele><time>2026-04-19T08:18:45Z</time></trkpt><trkpt lat="44.8785429328643" lon="8.013028287950963"><ele>195.99999999999997</ele><time>2026-04-19T08:18:48Z</time></trkpt><trkpt lat="44.87848835237594" lon="8.013106900904837"><ele>196.0</ele><time>2026-04-19T08:18:50Z</time></trkpt><trkpt lat="44.878424373545116" lon="8.013186406030464"><ele>195.99999999999997</ele><time>2026-04-19T08:18:51Z</time></trkpt><trkpt lat="44.87836574009888" lon="8.013265341774957"><ele>196.0</ele><time>2026-04-19T08:18:54Z</time></trkpt><trkpt lat="44.878298367334295" lon="8.013310829029471"><ele>196.0</ele><time>2026-04-19T08:18:58Z</time></trkpt><trkpt lat="44.878231570699974" lon="8.013326273956146"><ele>196.0</ele><time>2026-04-19T08:19:00Z</time></trkpt><trkpt lat="44.87814878230979" lon="8.013369011498002"><ele>195.99999999999997</ele><time>2026-04-19T08:19:01Z</time></trkpt><trkpt lat="44.87806729291962" lon="8.0134235956391"><ele>196.0</ele><time>2026-04-19T08:19:02Z</time></trkpt><trkpt lat="44.87798850184615" lon="8.013454136444373"><ele>196.8</ele><time>2026-04-19T08:19:03Z</time></trkpt><trkpt lat="44.877917044029594" lon="8.013474704305898"><ele>197.60000000000002</ele><time>2026-04-19T08:19:04Z</time></trkpt><trkpt lat="44.877812555547074" lon="8.013515832932374"><ele>198.4</ele><time>2026-04-19T08:19:06Z</time></trkpt><trkpt lat="44.877718775020675" lon="8.013589893433128"><ele>199.2</ele><time>2026-04-19T08:19:08Z</time></trkpt><trkpt lat="44.87765256208855" lon="8.013703150663485"><ele>200.0</ele><time>2026-04-19T08:19:10Z</time></trkpt><trkpt lat="44.87758227978349" lon="8.013791870225852"><ele>200.0</ele><time>2026-04-19T08:19:12Z</time></trkpt><trkpt lat="44.87758767096495" lon="8.013958626790098"><ele>200.0</ele><time>2026-04-19T08:19:14Z</time></trkpt><trkpt lat="44.87754957125018" lon="8.01404184031285"><ele>200.0</ele><time>2026-04-19T08:19:15Z</time></trkpt><trkpt lat="44.877462273364614" lon="8.014159984464229"><ele>200.0</ele><time>2026-04-19T08:19:17Z</time></trkpt><trkpt lat="44.87739203640326" lon="8.014271413393002"><ele>200.0</ele><time>2026-04-19T08:19:19Z</time></trkpt><trkpt lat="44.877329133311854" lon="8.014391058209332"><ele>200.0</ele><time>2026-04-19T08:19:21Z</time></trkpt><trkpt lat="44.87730487609367" lon="8.014548455920114"><ele>200.0</ele><time>2026-04-19T08:19:23Z</time></trkpt><trkpt lat="44.877220745263635" lon="8.014612836935735"><ele>200.0</ele><time>2026-04-19T08:19:25Z</time></trkpt><trkpt lat="44.87710774548921" lon="8.014645968873406"><ele>200.0</ele><time>2026-04-19T08:19:27Z</time></trkpt><trkpt lat="44.877010104344016" lon="8.01470148216843"><ele>200.0</ele><time>2026-04-19T08:19:29Z</time></trkpt><trkpt lat="44.87690061910023" lon="8.014749345447438"><ele>200.0</ele><time>2026-04-19T08:19:31Z</time></trkpt><trkpt lat="44.876808601253046" lon="8.014857319527579"><ele>200.0</ele><time>2026-04-19T08:19:33Z</time></trkpt><trkpt lat="44.87673530195584" lon="8.014943301530165"><ele>200.0</ele><time>2026-04-19T08:19:35Z</time></trkpt><trkpt lat="44.87678427761995" lon="8.015025672287413"><ele>200.0</ele><time>2026-04-19T08:19:37Z</time></trkpt><trkpt lat="44.87667190392419" lon="8.015082814713889"><ele>200.0</ele><time>2026-04-19T08:19:39Z</time></trkpt><trkpt lat="44.876621308692215" lon="8.015146176888715"><ele>199.33333333333334</ele><time>2026-04-19T08:19:40Z</time></trkpt><trkpt lat="44.876587278746115" lon="8.015236091763528"><ele>198.66666666666669</ele><time>2026-04-19T08:19:41Z</time></trkpt><trkpt lat="44.87648265013971" lon="8.015235116050809"><ele>198.0</ele><time>2026-04-19T08:19:43Z</time></trkpt><trkpt lat="44.87642916035402" lon="8.015349854875604"><ele>197.33333333333331</ele><time>2026-04-19T08:19:45Z</time></trkpt><trkpt lat="44.87636892576919" lon="8.015378822741212"><ele>196.66666666666666</ele><time>2026-04-19T08:19:46Z</time></trkpt><trkpt lat="44.87631019291125" lon="8.015333787793907"><ele>196.0</ele><time>2026-04-19T08:19:47Z</time></trkpt><trkpt lat="44.87624718370035" lon="8.015226338110963"><ele>195.99999999999997</ele><time>2026-04-19T08:19:49Z</time></trkpt><trkpt lat="44.8761551488055" lon="8.015246709457081"><ele>196.0</ele><time>2026-04-19T08:19:51Z</time></trkpt><trkpt lat="44.876104167393834" lon="8.015315695527963"><ele>196.0</ele><time>2026-04-19T08:19:52Z</time></trkpt><trkpt lat="44.87604250707777" lon="8.015351566702817"><ele>196.0</ele><time>2026-04-19T08:19:53Z</time></trkpt><trkpt lat="44.87595698537853" lon="8.015455070486363"><ele>195.99999999999997</ele><time>2026-04-19T08:19:55Z</time></trkpt><trkpt lat="44.87586456490005" lon="8.015526518859403"><ele>196.0</ele><time>2026-04-19T08:19:57Z</time></trkpt><trkpt lat="44.875779201881436" lon="8.015608868912834"><ele>196.71428571428572</ele><time>2026-04-19T08:19:59Z</time></trkpt><trkpt lat="44.875754411389934" lon="8.015698399427167"><ele>197.42857142857144</ele><time>2026-04-19T08:20:00Z</time></trkpt><trkpt lat="44.87572686891396" lon="8.015785631442736"><ele>198.14285714285714</ele><time>2026-04-19T08:20:01Z</time></trkpt><trkpt lat="44.87568550249405" lon="8.015857717490157"><ele>198.85714285714286</ele><time>2026-04-19T08:20:02Z</time></trkpt><trkpt lat="44.87564147442176" lon="8.015957331140209"><ele>199.57142857142858</ele><time>2026-04-19T08:20:05Z</time></trkpt><trkpt lat="44.87560888553067" lon="8.01604190562696"><ele>200.28571428571428</ele><time>2026-04-19T08:20:07Z</time></trkpt><trkpt lat="44.87554953757803" lon="8.016108948142213"><ele>201.0</ele><time>2026-04-19T08:20:09Z</time></trkpt><trkpt lat="44.87548484155039" lon="8.016125742227409"><ele>201.0</ele><time>2026-04-19T08:20:10Z</time></trkpt><trkpt lat="44.87536994030698" lon="8.016162991948198"><ele>201.0</ele><time>2026-04-19T08:20:12Z</time></trkpt><trkpt lat="44.875306408979895" lon="8.016255530676878"><ele>201.0</ele><time>2026-04-19T08:20:15Z</time></trkpt><trkpt lat="44.875264377296304" lon="8.016322837261525"><ele>201.0</ele><time>2026-04-19T08:20:18Z</time></trkpt><trkpt lat="44.875202634392075" lon="8.0163837288473"><ele>201.0</ele><time>2026-04-19T08:20:20Z</time></trkpt><trkpt lat="44.87513533445327" lon="8.016425618069208"><ele>201.0</ele><time>2026-04-19T08:20:22Z</time></trkpt><trkpt lat="44.87505602133362" lon="8.016543874907617"><ele>201.8</ele><time>2026-04-19T08:20:25Z</time></trkpt><trkpt lat="44.87500100608495" lon="8.016600423859455"><ele>202.60000000000002</ele><time>2026-04-19T08:20:26Z</time></trkpt><trkpt lat="44.87490706659924" lon="8.01667378776142"><ele>203.4</ele><time>2026-04-19T08:20:28Z</time></trkpt><trkpt lat="44.87481165276833" lon="8.016757099735672"><ele>204.2</ele><time>2026-04-19T08:20:30Z</time></trkpt><trkpt lat="44.874717094069524" lon="8.0168329487748"><ele>205.0</ele><time>2026-04-19T08:20:32Z</time></trkpt><trkpt lat="44.874630408360204" lon="8.016866084962457"><ele>204.99999999999997</ele><time>2026-04-19T08:20:34Z</time></trkpt><trkpt lat="44.874548361795185" lon="8.016893389045912"><ele>205.0</ele><time>2026-04-19T08:20:36Z</time></trkpt><trkpt lat="44.87447415827795" lon="8.01698814158021"><ele>205.0</ele><time>2026-04-19T08:20:38Z</time></trkpt><trkpt lat="44.8744143375061" lon="8.017080141868563"><ele>205.0</ele><time>2026-04-19T08:20:40Z</time></trkpt><trkpt lat="44.874369391389266" lon="8.017156697369371"><ele>204.99999999999997</ele><time>2026-04-19T08:20:42Z</time></trkpt><trkpt lat="44.87429297360731" lon="8.017250237035162"><ele>205.0</ele><time>2026-04-19T08:20:45Z</time></trkpt><trkpt lat="44.87420605603596" lon="8.017322642776369"><ele>204.99999999999997</ele><time>2026-04-19T08:20:47Z</time></trkpt><trkpt lat="44.87409457197778" lon="8.017381282291598"><ele>205.0</ele><time>2026-04-19T08:20:49Z</time></trkpt><trkpt lat="44.874054185181976" lon="8.017456507793522"><ele>205.0</ele><time>2026-04-19T08:20:52Z</time></trkpt><trkpt lat="44.87398666179601" lon="8.017496007258769"><ele>205.0</ele><time>2026-04-19T08:20:54Z</time></trkpt><trkpt lat="44.87392184325703" lon="8.017516717360134"><ele>204.99999999999997</ele><time>2026-04-19T08:20:56Z</time></trkpt><trkpt lat="44.87385622670178" lon="8.017523878868673"><ele>205.0</ele><time>2026-04-19T08:20:58Z</time></trkpt><trkpt lat="44.87378810590433" lon="8.01755489005391"><ele>204.99999999999997</ele><time>2026-04-19T08:21:00Z</time></trkpt><trkpt lat="44.87370002279648" lon="8.017614280800037"><ele>205.0</ele><time>2026-04-19T08:21:02Z</time></trkpt><trkpt lat="44.87363160884462" lon="8.017633315664796"><ele>205.0</ele><time>2026-04-19T08:21:03Z</time></trkpt><trkpt lat="44.87353336666813" lon="8.017621576691608"><ele>205.0</ele><time>2026-04-19T08:21:05Z</time></trkpt><trkpt lat="44.87343344200197" lon="8.017640477501784"><ele>204.99999999999997</ele><time>2026-04-19T08:21:07Z</time></trkpt><trkpt lat="44.8733612696153" lon="8.017635213875607"><ele>205.0</ele><time>2026-04-19T08:21:11Z</time></trkpt><trkpt lat="44.873277763238185" lon="8.017580115253507"><ele>204.83333333333331</ele><time>2026-04-19T08:21:13Z</time></trkpt><trkpt lat="44.873206054897565" lon="8.017572115182217"><ele>204.66666666666666</ele><time>2026-04-19T08:21:14Z</time></trkpt><trkpt lat="44.873102157786974" lon="8.017593310156263"><ele>204.5</ele><time>2026-04-19T08:21:15Z</time></trkpt><trkpt lat="44.8730226707333" lon="8.017585811100812"><ele>204.33333333333331</ele><time>2026-04-19T08:21:16Z</time></trkpt><trkpt lat="44.87294858544293" lon="8.017590421980234"><ele>204.16666666666666</ele><time>2026-04-19T08:21:17Z</time></trkpt><trkpt lat="44.872875428282605" lon="8.01761078819767"><ele>204.0</ele><time>2026-04-19T08:21:18Z</time></trkpt><trkpt lat="44.87280868192307" lon="8.017610177599003"><ele>204.0</ele><time>2026-04-19T08:21:19Z</time></trkpt><trkpt lat="44.87270253184712" lon="8.017605515027238"><ele>204.0</ele><time>2026-04-19T08:21:21Z</time></trkpt><trkpt lat="44.87259480898942" lon="8.017551437534607"><ele>204.0</ele><time>2026-04-19T08:21:23Z</time></trkpt><trkpt lat="44.87253238483097" lon="8.017526352984309"><ele>204.0</ele><time>2026-04-19T08:21:24Z</time></trkpt><trkpt lat="44.87241871252205" lon="8.01749008548686"><ele>204.0</ele><time>2026-04-19T08:21:26Z</time></trkpt><trkpt lat="44.872339449288184" lon="8.017414771899672"><ele>204.0</ele><time>2026-04-19T08:21:28Z</time></trkpt><trkpt lat="44.87223504234565" lon="8.017420267932774"><ele>204.0</ele><time>2026-04-19T08:21:30Z</time></trkpt><trkpt lat="44.87217275911641" lon="8.017447954507793"><ele>204.0</ele><time>2026-04-19T08:21:32Z</time></trkpt><trkpt lat="44.872168504598925" lon="8.017541782542853"><ele>204.0</ele><time>2026-04-19T08:21:34Z</time></trkpt><trkpt lat="44.872165907936136" lon="8.017667164261479"><ele>204.0</ele><time>2026-04-19T08:21:36Z</time></trkpt><trkpt lat="44.87221744432481" lon="8.017723915902225"><ele>204.0</ele><time>2026-04-19T08:21:38Z</time></trkpt><trkpt lat="44.872194132935725" lon="8.01780721537753"><ele>204.0</ele><time>2026-04-19T08:21:40Z</time></trkpt><trkpt lat="44.8721181843087" lon="8.017886727574236"><ele>204.0</ele><time>2026-04-19T08:21:42Z</time></trkpt><trkpt lat="44.87205648808138" lon="8.017925567020137"><ele>204.0</ele><time>2026-04-19T08:21:43Z</time></trkpt><trkpt lat="44.871967784479345" lon="8.017998132412941"><ele>204.0</ele><time>2026-04-19T08:21:44Z</time></trkpt><trkpt lat="44.87188872637671" lon="8.018052532181196"><ele>204.0</ele><time>2026-04-19T08:21:45Z</time></trkpt><trkpt lat="44.87181861334264" lon="8.018081435859054"><ele>204.0</ele><time>2026-04-19T08:21:46Z</time></trkpt><trkpt lat="44.87173327883295" lon="8.018101115642253"><ele>204.33333333333334</ele><time>2026-04-19T08:21:47Z</time></trkpt><trkpt lat="44.87165269507267" lon="8.01813456607688"><ele>204.66666666666669</ele><time>2026-04-19T08:21:48Z</time></trkpt><trkpt lat="44.87156566440245" lon="8.01816986058178"><ele>205.0</ele><time>2026-04-19T08:21:49Z</time></trkpt><trkpt lat="44.87148706786783" lon="8.018185828232408"><ele>205.33333333333334</ele><time>2026-04-19T08:21:50Z</time></trkpt><trkpt lat="44.87140625648559" lon="8.01818687977025"><ele>205.66666666666669</ele><time>2026-04-19T08:21:51Z</time></trkpt><trkpt lat="44.87130429795884" lon="8.018161257468886"><ele>206.0</ele><time>2026-04-19T08:21:52Z</time></trkpt><trkpt lat="44.87120301711457" lon="8.018161693644714"><ele>206.0</ele><time>2026-04-19T08:21:53Z</time></trkpt><trkpt lat="44.87109111437134" lon="8.018187421236043"><ele>206.0</ele><time>2026-04-19T08:21:54Z</time></trkpt><trkpt lat="44.87097445397728" lon="8.018218008326537"><ele>206.0</ele><time>2026-04-19T08:21:55Z</time></trkpt><trkpt lat="44.87086403081761" lon="8.018218353040064"><ele>206.0</ele><time>2026-04-19T08:21:56Z</time></trkpt><trkpt lat="44.87074161438606" lon="8.018218757184073"><ele>206.25</ele><time>2026-04-19T08:21:57Z</time></trkpt><trkpt lat="44.870619861294564" lon="8.018229561731847"><ele>206.5</ele><time>2026-04-19T08:21:58Z</time></trkpt><trkpt lat="44.87047712100111" lon="8.018242446879823"><ele>206.75</ele><time>2026-04-19T08:21:59Z</time></trkpt><trkpt lat="44.87035395752685" lon="8.018250338542767"><ele>207.0</ele><time>2026-04-19T08:22:00Z</time></trkpt><trkpt lat="44.87023194146616" lon="8.01825524658462"><ele>207.0</ele><time>2026-04-19T08:22:01Z</time></trkpt><trkpt lat="44.870135513688744" lon="8.018246673479688"><ele>207.0</ele><time>2026-04-19T08:22:02Z</time></trkpt><trkpt lat="44.87005666714725" lon="8.018248773141428"><ele>207.0</ele><time>2026-04-19T08:22:03Z</time></trkpt><trkpt lat="44.86995778962418" lon="8.01823196974481"><ele>207.0</ele><time>2026-04-19T08:22:06Z</time></trkpt><trkpt lat="44.86990365414301" lon="8.018184857607958"><ele>207.0</ele><time>2026-04-19T08:22:07Z</time></trkpt><trkpt lat="44.86982814967741" lon="8.018144983802527"><ele>207.0</ele><time>2026-04-19T08:22:08Z</time></trkpt><trkpt lat="44.86975843437679" lon="8.0181036044911"><ele>207.2</ele><time>2026-04-19T08:22:09Z</time></trkpt><trkpt lat="44.86968863909312" lon="8.018064890058579"><ele>207.39999999999998</ele><time>2026-04-19T08:22:10Z</time></trkpt><trkpt lat="44.86955430073355" lon="8.018157769718544"><ele>207.60000000000002</ele><time>2026-04-19T08:22:12Z</time></trkpt><trkpt lat="44.86954776583853" lon="8.018031639997155"><ele>207.8</ele><time>2026-04-19T08:22:15Z</time></trkpt><trkpt lat="44.86960754313256" lon="8.017924970667716"><ele>208.0</ele><time>2026-04-19T08:22:16Z</time></trkpt><trkpt lat="44.86969255497392" lon="8.01779037115912"><ele>208.0</ele><time>2026-04-19T08:22:17Z</time></trkpt><trkpt lat="44.86977666277205" lon="8.017654331897267"><ele>208.0</ele><time>2026-04-19T08:22:18Z</time></trkpt><trkpt lat="44.86984848900082" lon="8.017504064696693"><ele>208.0</ele><time>2026-04-19T08:22:19Z</time></trkpt><trkpt lat="44.86991532983929" lon="8.01737601116173"><ele>208.0</ele><time>2026-04-19T08:22:20Z</time></trkpt><trkpt lat="44.86997596957824" lon="8.01726712517625"><ele>208.0</ele><time>2026-04-19T08:22:21Z</time></trkpt><trkpt lat="44.87002343916278" lon="8.017176109844272"><ele>208.0</ele><time>2026-04-19T08:22:22Z</time></trkpt><trkpt lat="44.87009255451001" lon="8.017081221046377"><ele>208.0</ele><time>2026-04-19T08:22:23Z</time></trkpt><trkpt lat="44.870149534041005" lon="8.016972320910279"><ele>208.0</ele><time>2026-04-19T08:22:24Z</time></trkpt><trkpt lat="44.8702007224055" lon="8.016842604975093"><ele>208.0</ele><time>2026-04-19T08:22:25Z</time></trkpt><trkpt lat="44.87027160496576" lon="8.016712698412466"><ele>208.0</ele><time>2026-04-19T08:22:26Z</time></trkpt><trkpt lat="44.87034375784073" lon="8.016569947825685"><ele>208.0</ele><time>2026-04-19T08:22:27Z</time></trkpt><trkpt lat="44.87041641249967" lon="8.01643743740273"><ele>208.0</ele><time>2026-04-19T08:22:28Z</time></trkpt><trkpt lat="44.87049003813296" lon="8.01630690236352"><ele>208.0</ele><time>2026-04-19T08:22:29Z</time></trkpt><trkpt lat="44.87056294595123" lon="8.016172883224616"><ele>208.0</ele><time>2026-04-19T08:22:30Z</time></trkpt><trkpt lat="44.87064012693636" lon="8.016019214099744"><ele>208.0</ele><time>2026-04-19T08:22:31Z</time></trkpt><trkpt lat="44.87072476333976" lon="8.015836811250342"><ele>208.0</ele><time>2026-04-19T08:22:32Z</time></trkpt><trkpt lat="44.87080143771212" lon="8.015725414541691"><ele>208.0</ele><time>2026-04-19T08:22:33Z</time></trkpt><trkpt lat="44.87085437801411" lon="8.015622622142399"><ele>208.25</ele><time>2026-04-19T08:22:34Z</time></trkpt><trkpt lat="44.87090008718821" lon="8.015519605342016"><ele>208.5</ele><time>2026-04-19T08:22:35Z</time></trkpt><trkpt lat="44.87094623071789" lon="8.015440345944043"><ele>208.75</ele><time>2026-04-19T08:22:36Z</time></trkpt><trkpt lat="44.870786274596426" lon="8.015236998313691"><ele>209.0</ele><time>2026-04-19T08:22:39Z</time></trkpt><trkpt lat="44.8706957030022" lon="8.015227264383311"><ele>209.0</ele><time>2026-04-19T08:22:40Z</time></trkpt><trkpt lat="44.87060146304993" lon="8.015198604907928"><ele>209.0</ele><time>2026-04-19T08:22:41Z</time></trkpt><trkpt lat="44.870478639086755" lon="8.015172023584599"><ele>209.0</ele><time>2026-04-19T08:22:42Z</time></trkpt><trkpt lat="44.87035620362254" lon="8.015131436557057"><ele>209.0</ele><time>2026-04-19T08:22:43Z</time></trkpt><trkpt lat="44.870235738271646" lon="8.015089412183508"><ele>209.75</ele><time>2026-04-19T08:22:44Z</time></trkpt><trkpt lat="44.87010657790686" lon="8.01504485811461"><ele>210.5</ele><time>2026-04-19T08:22:45Z</time></trkpt><trkpt lat="44.86998483804643" lon="8.01500187765003"><ele>211.25</ele><time>2026-04-19T08:22:46Z</time></trkpt><trkpt lat="44.869869286428944" lon="8.01496692658936"><ele>212.0</ele><time>2026-04-19T08:22:47Z</time></trkpt><trkpt lat="44.86976834913987" lon="8.014944765866758"><ele>214.0</ele><time>2026-04-19T08:22:48Z</time></trkpt><trkpt lat="44.86967005370873" lon="8.014933479451622"><ele>216.0</ele><time>2026-04-19T08:22:49Z</time></trkpt><trkpt lat="44.86957431751076" lon="8.014925190261842"><ele>218.0</ele><time>2026-04-19T08:22:51Z</time></trkpt><trkpt lat="44.86952806231976" lon="8.01485773225256"><ele>220.0</ele><time>2026-04-19T08:22:53Z</time></trkpt><trkpt lat="44.8695067206524" lon="8.014676161714478"><ele>222.0</ele><time>2026-04-19T08:22:55Z</time></trkpt><trkpt lat="44.86954548840554" lon="8.014586195964037"><ele>222.0</ele><time>2026-04-19T08:22:56Z</time></trkpt><trkpt lat="44.86954327298075" lon="8.014465340737624"><ele>222.0</ele><time>2026-04-19T08:22:57Z</time></trkpt><trkpt lat="44.869542046908165" lon="8.014324972266817"><ele>222.0</ele><time>2026-04-19T08:22:58Z</time></trkpt><trkpt lat="44.8695486937357" lon="8.01416980252001"><ele>222.0</ele><time>2026-04-19T08:22:59Z</time></trkpt><trkpt lat="44.86956129951396" lon="8.014013444377763"><ele>222.0</ele><time>2026-04-19T08:23:00Z</time></trkpt><trkpt lat="44.86957089892097" lon="8.013871318679808"><ele>225.39999999999998</ele><time>2026-04-19T08:23:01Z</time></trkpt><trkpt lat="44.86955592979034" lon="8.013728773373456"><ele>228.79999999999998</ele><time>2026-04-19T08:23:02Z</time></trkpt><trkpt lat="44.86956931714999" lon="8.013608086069777"><ele>232.2</ele><time>2026-04-19T08:23:03Z</time></trkpt><trkpt lat="44.86955173417889" lon="8.013489402788547"><ele>235.6</ele><time>2026-04-19T08:23:04Z</time></trkpt><trkpt lat="44.86940885767305" lon="8.013425661394221"><ele>239.0</ele><time>2026-04-19T08:23:05Z</time></trkpt><trkpt lat="44.869386264030766" lon="8.013310981290191"><ele>240.66666666666669</ele><time>2026-04-19T08:23:06Z</time></trkpt><trkpt lat="44.86935879319578" lon="8.013166871948973"><ele>242.33333333333334</ele><time>2026-04-19T08:23:07Z</time></trkpt><trkpt lat="44.86933444678018" lon="8.013067945381152"><ele>244.0</ele><time>2026-04-19T08:23:08Z</time></trkpt><trkpt lat="44.86930881543843" lon="8.012975371497486"><ele>245.66666666666669</ele><time>2026-04-19T08:23:09Z</time></trkpt><trkpt lat="44.8692842805325" lon="8.012884185289412"><ele>247.33333333333334</ele><time>2026-04-19T08:23:10Z</time></trkpt><trkpt lat="44.86925185335376" lon="8.012763666726329"><ele>249.0</ele><time>2026-04-19T08:23:11Z</time></trkpt><trkpt lat="44.86923020772922" lon="8.012647275961848"><ele>248.0</ele><time>2026-04-19T08:23:12Z</time></trkpt><trkpt lat="44.869565059142836" lon="8.012356360478822"><ele>247.0</ele><time>2026-04-19T08:23:13Z</time></trkpt><trkpt lat="44.86958508452743" lon="8.01226710947163"><ele>246.99999999999997</ele><time>2026-04-19T08:23:14Z</time></trkpt><trkpt lat="44.86962943933269" lon="8.012200510081929"><ele>247.0</ele><time>2026-04-19T08:23:15Z</time></trkpt><trkpt lat="44.86976716892338" lon="8.01215640137458"><ele>247.0</ele><time>2026-04-19T08:23:17Z</time></trkpt><trkpt lat="44.86984066940656" lon="8.012132357888751"><ele>247.0</ele><time>2026-04-19T08:23:18Z</time></trkpt><trkpt lat="44.86991699954611" lon="8.012099451404277"><ele>246.99999999999997</ele><time>2026-04-19T08:23:19Z</time></trkpt><trkpt lat="44.869993487749646" lon="8.012047119702661"><ele>247.0</ele><time>2026-04-19T08:23:20Z</time></trkpt><trkpt lat="44.8699724659546" lon="8.011900072897236"><ele>247.0</ele><time>2026-04-19T08:23:23Z</time></trkpt><trkpt lat="44.86998411809439" lon="8.011783377542416"><ele>247.0</ele><time>2026-04-19T08:23:24Z</time></trkpt><trkpt lat="44.86998723933571" lon="8.011615721193035"><ele>247.0</ele><time>2026-04-19T08:23:26Z</time></trkpt><trkpt lat="44.87000007248712" lon="8.011491261692026"><ele>247.0</ele><time>2026-04-19T08:23:28Z</time></trkpt><trkpt lat="44.87003547013549" lon="8.011404733199402"><ele>247.0</ele><time>2026-04-19T08:23:29Z</time></trkpt><trkpt lat="44.870071795672104" lon="8.011287295489579"><ele>247.25</ele><time>2026-04-19T08:23:31Z</time></trkpt><trkpt lat="44.87013689183591" lon="8.011126494140857"><ele>247.5</ele><time>2026-04-19T08:23:33Z</time></trkpt><trkpt lat="44.870225625486604" lon="8.01106436178375"><ele>247.75</ele><time>2026-04-19T08:23:36Z</time></trkpt><trkpt lat="44.87037653551105" lon="8.01097663611285"><ele>248.0</ele><time>2026-04-19T08:23:40Z</time></trkpt><trkpt lat="44.870435757428424" lon="8.010877753054022"><ele>246.00000000000003</ele><time>2026-04-19T08:23:44Z</time></trkpt><trkpt lat="44.87044834564826" lon="8.01076228821762"><ele>244.0</ele><time>2026-04-19T08:23:46Z</time></trkpt><trkpt lat="44.870458440268195" lon="8.010665697180652"><ele>242.0</ele><time>2026-04-19T08:23:48Z</time></trkpt><trkpt lat="44.870459062230346" lon="8.010531086396343"><ele>240.0</ele><time>2026-04-19T08:23:49Z</time></trkpt><trkpt lat="44.8704825075869" lon="8.010419983548699"><ele>238.00000000000003</ele><time>2026-04-19T08:23:50Z</time></trkpt><trkpt lat="44.870519923945686" lon="8.01029859546277"><ele>236.0</ele><time>2026-04-19T08:23:51Z</time></trkpt><trkpt lat="44.87054747371913" lon="8.010188508954935"><ele>236.0</ele><time>2026-04-19T08:23:52Z</time></trkpt><trkpt lat="44.87054988394659" lon="8.010051820584753"><ele>236.00000000000003</ele><time>2026-04-19T08:23:53Z</time></trkpt><trkpt lat="44.87051706815765" lon="8.009863614959349"><ele>236.00000000000003</ele><time>2026-04-19T08:23:54Z</time></trkpt><trkpt lat="44.870528841849314" lon="8.009720814943767"><ele>236.0</ele><time>2026-04-19T08:23:55Z</time></trkpt><trkpt lat="44.870543213373" lon="8.009597456170232"><ele>236.0</ele><time>2026-04-19T08:23:56Z</time></trkpt><trkpt lat="44.87057707844649" lon="8.009451539797636"><ele>236.60000000000002</ele><time>2026-04-19T08:23:57Z</time></trkpt><trkpt lat="44.87059299462566" lon="8.009357444039633"><ele>237.20000000000002</ele><time>2026-04-19T08:23:58Z</time></trkpt><trkpt lat="44.87063911403391" lon="8.00926600812307"><ele>237.79999999999998</ele><time>2026-04-19T08:23:59Z</time></trkpt><trkpt lat="44.87072804090402" lon="8.009166983637824"><ele>238.39999999999998</ele><time>2026-04-19T08:24:01Z</time></trkpt><trkpt lat="44.87082618396362" lon="8.009082363706911"><ele>239.0</ele><time>2026-04-19T08:24:02Z</time></trkpt><trkpt lat="44.87086839428311" lon="8.008970108242147"><ele>238.0</ele><time>2026-04-19T08:24:03Z</time></trkpt><trkpt lat="44.8709464766022" lon="8.008890112496927"><ele>236.99999999999997</ele><time>2026-04-19T08:24:04Z</time></trkpt><trkpt lat="44.87104505547166" lon="8.00883284649225"><ele>235.99999999999997</ele><time>2026-04-19T08:24:05Z</time></trkpt><trkpt lat="44.87113970323744" lon="8.008787568713398"><ele>235.0</ele><time>2026-04-19T08:24:06Z</time></trkpt><trkpt lat="44.87124881736312" lon="8.008779653441252"><ele>234.0</ele><time>2026-04-19T08:24:07Z</time></trkpt><trkpt lat="44.87137414051674" lon="8.008820993647753"><ele>234.0</ele><time>2026-04-19T08:24:08Z</time></trkpt><trkpt lat="44.87150019847678" lon="8.00886033564799"><ele>234.0</ele><time>2026-04-19T08:24:09Z</time></trkpt><trkpt lat="44.87163283471157" lon="8.008897463567985"><ele>234.0</ele><time>2026-04-19T08:24:10Z</time></trkpt><trkpt lat="44.871748150611296" lon="8.008940622078834"><ele>234.0</ele><time>2026-04-19T08:24:11Z</time></trkpt><trkpt lat="44.87185224551649" lon="8.008984399965076"><ele>234.79999999999998</ele><time>2026-04-19T08:24:12Z</time></trkpt><trkpt lat="44.87193706026616" lon="8.009036831265465"><ele>235.59999999999997</ele><time>2026-04-19T08:24:13Z</time></trkpt><trkpt lat="44.872022333796934" lon="8.00911267746309"><ele>236.4</ele><time>2026-04-19T08:24:14Z</time></trkpt><trkpt lat="44.8721270030129" lon="8.009157901732367"><ele>237.2</ele><time>2026-04-19T08:24:15Z</time></trkpt><trkpt lat="44.872222846869775" lon="8.009147101256087"><ele>238.0</ele><time>2026-04-19T08:24:16Z</time></trkpt><trkpt lat="44.87233188653556" lon="8.009135518370416"><ele>238.0</ele><time>2026-04-19T08:24:17Z</time></trkpt><trkpt lat="44.87243351449569" lon="8.009104111763648"><ele>238.0</ele><time>2026-04-19T08:24:18Z</time></trkpt><trkpt lat="44.87254460537512" lon="8.00907471840911"><ele>238.0</ele><time>2026-04-19T08:24:19Z</time></trkpt><trkpt lat="44.87266828126228" lon="8.009065101604106"><ele>238.0</ele><time>2026-04-19T08:24:20Z</time></trkpt><trkpt lat="44.87279272847675" lon="8.009047710195034"><ele>235.75</ele><time>2026-04-19T08:24:21Z</time></trkpt><trkpt lat="44.87291092208869" lon="8.00903376619573"><ele>233.5</ele><time>2026-04-19T08:24:22Z</time></trkpt><trkpt lat="44.87304111436997" lon="8.009022365799094"><ele>231.25</ele><time>2026-04-19T08:24:23Z</time></trkpt><trkpt lat="44.87316590747382" lon="8.00901400558019"><ele>229.0</ele><time>2026-04-19T08:24:24Z</time></trkpt><trkpt lat="44.873297608834015" lon="8.009007096067423"><ele>229.0</ele><time>2026-04-19T08:24:25Z</time></trkpt><trkpt lat="44.873409420685974" lon="8.008987004332317"><ele>229.0</ele><time>2026-04-19T08:24:26Z</time></trkpt><trkpt lat="44.87352587396197" lon="8.00894269205734"><ele>229.0</ele><time>2026-04-19T08:24:27Z</time></trkpt><trkpt lat="44.873640056574274" lon="8.008886466320364"><ele>229.0</ele><time>2026-04-19T08:24:28Z</time></trkpt><trkpt lat="44.87374010338017" lon="8.008831993414868"><ele>227.5</ele><time>2026-04-19T08:24:29Z</time></trkpt><trkpt lat="44.87386293355596" lon="8.008791185742018"><ele>226.0</ele><time>2026-04-19T08:24:30Z</time></trkpt><trkpt lat="44.87398001923181" lon="8.008732808504506"><ele>224.5</ele><time>2026-04-19T08:24:31Z</time></trkpt><trkpt lat="44.87410870852861" lon="8.008651544906636"><ele>223.0</ele><time>2026-04-19T08:24:32Z</time></trkpt><trkpt lat="44.8742257715607" lon="8.008580968037123"><ele>221.75</ele><time>2026-04-19T08:24:33Z</time></trkpt><trkpt lat="44.87436007868719" lon="8.00848813661215"><ele>220.5</ele><time>2026-04-19T08:24:34Z</time></trkpt><trkpt lat="44.87449710999817" lon="8.008430351997783"><ele>219.25</ele><time>2026-04-19T08:24:35Z</time></trkpt><trkpt lat="44.8746201344468" lon="8.008380266172415"><ele>218.0</ele><time>2026-04-19T08:24:36Z</time></trkpt><trkpt lat="44.874726997416595" lon="8.008316577487784"><ele>218.0</ele><time>2026-04-19T08:24:37Z</time></trkpt><trkpt lat="44.87484842136069" lon="8.008248386906835"><ele>218.0</ele><time>2026-04-19T08:24:38Z</time></trkpt><trkpt lat="44.874967953513966" lon="8.008168277873194"><ele>218.0</ele><time>2026-04-19T08:24:39Z</time></trkpt><trkpt lat="44.87509042713423" lon="8.008094412940187"><ele>218.0</ele><time>2026-04-19T08:24:40Z</time></trkpt><trkpt lat="44.87521265105198" lon="8.008029253083384"><ele>216.83333333333334</ele><time>2026-04-19T08:24:41Z</time></trkpt><trkpt lat="44.875305037879016" lon="8.007973494774701"><ele>215.66666666666669</ele><time>2026-04-19T08:24:42Z</time></trkpt><trkpt lat="44.875378985091906" lon="8.00790594958328"><ele>214.5</ele><time>2026-04-19T08:24:43Z</time></trkpt><trkpt lat="44.87544133298738" lon="8.007851961690218"><ele>213.33333333333331</ele><time>2026-04-19T08:24:44Z</time></trkpt><trkpt lat="44.875494982192535" lon="8.007801706679258"><ele>212.16666666666666</ele><time>2026-04-19T08:24:47Z</time></trkpt><trkpt lat="44.87560780766318" lon="8.007822026444849"><ele>211.0</ele><time>2026-04-19T08:24:53Z</time></trkpt><trkpt lat="44.87570018548026" lon="8.007790380651652"><ele>211.0</ele><time>2026-04-19T08:24:55Z</time></trkpt><trkpt lat="44.875779516224235" lon="8.007773234567573"><ele>211.0</ele><time>2026-04-19T08:24:57Z</time></trkpt><trkpt lat="44.87588910626851" lon="8.00777578008897"><ele>211.0</ele><time>2026-04-19T08:24:59Z</time></trkpt><trkpt lat="44.875956525824776" lon="8.007801196118244"><ele>211.0</ele><time>2026-04-19T08:25:01Z</time></trkpt><trkpt lat="44.87602690766041" lon="8.007875476031568"><ele>211.0</ele><time>2026-04-19T08:25:04Z</time></trkpt><trkpt lat="44.87606582424369" lon="8.008011703659934"><ele>211.0</ele><time>2026-04-19T08:25:06Z</time></trkpt><trkpt lat="44.876102610658776" lon="8.00812455507645"><ele>211.0</ele><time>2026-04-19T08:25:08Z</time></trkpt><trkpt lat="44.87604941120633" lon="8.008022621623258"><ele>211.0</ele><time>2026-04-19T08:25:19Z</time></trkpt><trkpt lat="44.87602203954586" lon="8.007882451457084"><ele>211.0</ele><time>2026-04-19T08:25:20Z</time></trkpt><trkpt lat="44.875982999115955" lon="8.007801315222967"><ele>211.0</ele><time>2026-04-19T08:25:21Z</time></trkpt><trkpt lat="44.875843306224056" lon="8.007765385740615"><ele>210.99999999999997</ele><time>2026-04-19T08:25:23Z</time></trkpt><trkpt lat="44.87575908196041" lon="8.007765955553914"><ele>211.0</ele><time>2026-04-19T08:25:24Z</time></trkpt><trkpt lat="44.87568616140837" lon="8.007790756324022"><ele>211.0</ele><time>2026-04-19T08:25:25Z</time></trkpt><trkpt lat="44.87560629767696" lon="8.007803072119865"><ele>211.0</ele><time>2026-04-19T08:25:26Z</time></trkpt><trkpt lat="44.875523580736875" lon="8.007809688463068"><ele>210.99999999999997</ele><time>2026-04-19T08:25:27Z</time></trkpt><trkpt lat="44.875459652742336" lon="8.007813465765212"><ele>211.0</ele><time>2026-04-19T08:25:28Z</time></trkpt><trkpt lat="44.8753662907429" lon="8.007847773916135"><ele>210.99999999999997</ele><time>2026-04-19T08:25:30Z</time></trkpt><trkpt lat="44.875348046596116" lon="8.007949286574314"><ele>211.0</ele><time>2026-04-19T08:25:32Z</time></trkpt><trkpt lat="44.875423276428506" lon="8.00808109128053"><ele>211.0</ele><time>2026-04-19T08:25:34Z</time></trkpt><trkpt lat="44.87547751976829" lon="8.008160374866726"><ele>211.0</ele><time>2026-04-19T08:25:35Z</time></trkpt><trkpt lat="44.8755389672451" lon="8.008195349487266"><ele>210.99999999999997</ele><time>2026-04-19T08:25:36Z</time></trkpt><trkpt lat="44.875594222907445" lon="8.00825693419749"><ele>211.0</ele><time>2026-04-19T08:25:37Z</time></trkpt><trkpt lat="44.875683300158286" lon="8.008267574639948"><ele>210.99999999999997</ele><time>2026-04-19T08:25:39Z</time></trkpt><trkpt lat="44.8757559815664" lon="8.008312727353863"><ele>211.0</ele><time>2026-04-19T08:25:41Z</time></trkpt><trkpt lat="44.875819374998386" lon="8.0084302367409"><ele>211.0</ele><time>2026-04-19T08:25:43Z</time></trkpt><trkpt lat="44.875870865071484" lon="8.008509260250262"><ele>211.0</ele><time>2026-04-19T08:25:44Z</time></trkpt><trkpt lat="44.875921660176004" lon="8.008572233653819"><ele>210.99999999999997</ele><time>2026-04-19T08:25:45Z</time></trkpt><trkpt lat="44.8759618206254" lon="8.008652631212659"><ele>211.0</ele><time>2026-04-19T08:25:46Z</time></trkpt><trkpt lat="44.87597194145132" lon="8.008805319948605"><ele>213.0</ele><time>2026-04-19T08:25:48Z</time></trkpt><trkpt lat="44.87593470687914" lon="8.00891519097193"><ele>211.0</ele><time>2026-04-19T08:25:51Z</time></trkpt><trkpt lat="44.87595851798589" lon="8.009008753846132"><ele>213.0</ele><time>2026-04-19T08:25:53Z</time></trkpt><trkpt lat="44.876038638142745" lon="8.009056204367317"><ele>213.0</ele><time>2026-04-19T08:25:56Z</time></trkpt><trkpt lat="44.87612268425955" lon="8.009004678928935"><ele>213.0</ele><time>2026-04-19T08:25:59Z</time></trkpt><trkpt lat="44.876152041979275" lon="8.008924087265802"><ele>213.0</ele><time>2026-04-19T08:26:02Z</time></trkpt></trkseg><trkseg><trkpt lat="44.87620378295678" lon="8.008945783740032"><ele>212.99999999999997</ele><time>2026-04-19T08:49:16Z</time></trkpt><trkpt lat="44.87624965250784" lon="8.008869637328308"><ele>213.0</ele><time>2026-04-19T08:49:34.001Z</time></trkpt><trkpt lat="44.8762894854594" lon="8.008799759868154"><ele>213.0</ele><time>2026-04-19T08:49:35.001Z</time></trkpt><trkpt lat="44.87629032571271" lon="8.008695922979417"><ele>213.0</ele><time>2026-04-19T08:49:36.001Z</time></trkpt><trkpt lat="44.87626527901927" lon="8.008571148577143"><ele>213.0</ele><time>2026-04-19T08:49:37.001Z</time></trkpt><trkpt lat="44.87624962300231" lon="8.008477594742137"><ele>212.99999999999997</ele><time>2026-04-19T08:49:38.001Z</time></trkpt><trkpt lat="44.876267374217264" lon="8.00836829655668"><ele>213.0</ele><time>2026-04-19T08:49:40.001Z</time></trkpt><trkpt lat="44.87637221303793" lon="8.00829875885916"><ele>213.0</ele><time>2026-04-19T08:49:42.001Z</time></trkpt><trkpt lat="44.87644415862347" lon="8.008314754295279"><ele>213.0</ele><time>2026-04-19T08:49:43.001Z</time></trkpt><trkpt lat="44.87652023689165" lon="8.0083905792147"><ele>213.0</ele><time>2026-04-19T08:49:45.001Z</time></trkpt><trkpt lat="44.87657768627454" lon="8.008512816144757"><ele>213.0</ele><time>2026-04-19T08:49:47.001Z</time></trkpt><trkpt lat="44.8765538757176" lon="8.008696906581797"><ele>213.0</ele><time>2026-04-19T08:49:48.001Z</time></trkpt><trkpt lat="44.87658758068995" lon="8.008828787077254"><ele>213.0</ele><time>2026-04-19T08:49:49.001Z</time></trkpt><trkpt lat="44.87662031064595" lon="8.008953213907086"><ele>213.0</ele><time>2026-04-19T08:49:50.001Z</time></trkpt><trkpt lat="44.87666949376586" lon="8.009137466892954"><ele>213.0</ele><time>2026-04-19T08:49:51.001Z</time></trkpt><trkpt lat="44.876705042275695" lon="8.009301295589431"><ele>213.0</ele><time>2026-04-19T08:49:52.001Z</time></trkpt><trkpt lat="44.87673156939372" lon="8.009456728032559"><ele>212.5</ele><time>2026-04-19T08:49:53.001Z</time></trkpt><trkpt lat="44.87678203746926" lon="8.009614305882709"><ele>212.0</ele><time>2026-04-19T08:49:54.001Z</time></trkpt><trkpt lat="44.87684363753378" lon="8.00974881746215"><ele>211.5</ele><time>2026-04-19T08:49:55.001Z</time></trkpt><trkpt lat="44.876920175423244" lon="8.009881108621698"><ele>211.0</ele><time>2026-04-19T08:49:56.001Z</time></trkpt><trkpt lat="44.87698935441647" lon="8.010017774659332"><ele>209.60000000000002</ele><time>2026-04-19T08:49:57.001Z</time></trkpt><trkpt lat="44.87705694736908" lon="8.010136104896416"><ele>208.2</ele><time>2026-04-19T08:49:58.001Z</time></trkpt><trkpt lat="44.87711709403489" lon="8.01024679567723"><ele>206.8</ele><time>2026-04-19T08:49:59.001Z</time></trkpt><trkpt lat="44.87718689357222" lon="8.010337404839307"><ele>205.39999999999998</ele><time>2026-04-19T08:50:00.001Z</time></trkpt><trkpt lat="44.877266653142655" lon="8.01041574154795"><ele>204.0</ele><time>2026-04-19T08:50:01.001Z</time></trkpt><trkpt lat="44.87733712761678" lon="8.01052737421025"><ele>204.0</ele><time>2026-04-19T08:50:02.001Z</time></trkpt><trkpt lat="44.87736135670002" lon="8.010673206412664"><ele>204.0</ele><time>2026-04-19T08:50:03.001Z</time></trkpt><trkpt lat="44.87739809334041" lon="8.010811281595153"><ele>204.0</ele><time>2026-04-19T08:50:04.001Z</time></trkpt><trkpt lat="44.87743309283449" lon="8.010936937306658"><ele>204.0</ele><time>2026-04-19T08:50:06.001Z</time></trkpt><trkpt lat="44.87746333463258" lon="8.011043306538978"><ele>204.0</ele><time>2026-04-19T08:50:07.001Z</time></trkpt><trkpt lat="44.87748686613298" lon="8.011126073487677"><ele>202.5</ele><time>2026-04-19T08:50:08.001Z</time></trkpt><trkpt lat="44.87750883116897" lon="8.011213116714307"><ele>201.0</ele><time>2026-04-19T08:50:10.001Z</time></trkpt><trkpt lat="44.877766989282094" lon="8.01113204545365"><ele>199.5</ele><time>2026-04-19T08:50:13.001Z</time></trkpt><trkpt lat="44.87786659716653" lon="8.011122006761612"><ele>198.0</ele><time>2026-04-19T08:50:14.001Z</time></trkpt><trkpt lat="44.87797325889903" lon="8.011088297477059"><ele>198.0</ele><time>2026-04-19T08:50:15.001Z</time></trkpt><trkpt lat="44.878087785732575" lon="8.011037166238545"><ele>198.0</ele><time>2026-04-19T08:50:16.001Z</time></trkpt><trkpt lat="44.87819493862124" lon="8.010984097896417"><ele>198.0</ele><time>2026-04-19T08:50:17.001Z</time></trkpt><trkpt lat="44.87832790089454" lon="8.010929327214988"><ele>198.0</ele><time>2026-04-19T08:50:18.001Z</time></trkpt><trkpt lat="44.87844140462801" lon="8.010828269934219"><ele>197.5</ele><time>2026-04-19T08:50:19.001Z</time></trkpt><trkpt lat="44.87854690848689" lon="8.010788927703379"><ele>197.0</ele><time>2026-04-19T08:50:20.001Z</time></trkpt><trkpt lat="44.87864247546417" lon="8.010769507458122"><ele>196.5</ele><time>2026-04-19T08:50:21.001Z</time></trkpt><trkpt lat="44.878762601397625" lon="8.010796934372864"><ele>196.0</ele><time>2026-04-19T08:50:22.001Z</time></trkpt><trkpt lat="44.87889545907252" lon="8.010828721919303"><ele>196.0</ele><time>2026-04-19T08:50:23.001Z</time></trkpt><trkpt lat="44.87902299153317" lon="8.01082938094637"><ele>196.0</ele><time>2026-04-19T08:50:24.001Z</time></trkpt><trkpt lat="44.87914314981758" lon="8.010808345475299"><ele>196.0</ele><time>2026-04-19T08:50:25.001Z</time></trkpt><trkpt lat="44.879266346810354" lon="8.01076877657098"><ele>196.0</ele><time>2026-04-19T08:50:26.001Z</time></trkpt><trkpt lat="44.879395557307426" lon="8.010737647173729"><ele>195.75</ele><time>2026-04-19T08:50:27.001Z</time></trkpt><trkpt lat="44.87952043524127" lon="8.010683655909341"><ele>195.5</ele><time>2026-04-19T08:50:28.001Z</time></trkpt><trkpt lat="44.87963965942417" lon="8.010608623422796"><ele>195.25</ele><time>2026-04-19T08:50:29.002Z</time></trkpt><trkpt lat="44.87975494604025" lon="8.010543578577098"><ele>195.0</ele><time>2026-04-19T08:50:30.002Z</time></trkpt><trkpt lat="44.87986379312147" lon="8.010481760734983"><ele>195.0</ele><time>2026-04-19T08:50:31.002Z</time></trkpt><trkpt lat="44.87997427651754" lon="8.010405700429944"><ele>195.0</ele><time>2026-04-19T08:50:32.002Z</time></trkpt><trkpt lat="44.880088795774405" lon="8.01033154830921"><ele>195.0</ele><time>2026-04-19T08:50:33.002Z</time></trkpt><trkpt lat="44.88019641241637" lon="8.010273775714474"><ele>195.0</ele><time>2026-04-19T08:50:34.002Z</time></trkpt><trkpt lat="44.88031162768862" lon="8.01023572810378"><ele>195.25</ele><time>2026-04-19T08:50:35.002Z</time></trkpt><trkpt lat="44.88043459580879" lon="8.010199300326873"><ele>195.5</ele><time>2026-04-19T08:50:36.002Z</time></trkpt><trkpt lat="44.880564646765514" lon="8.010164064913544"><ele>195.75</ele><time>2026-04-19T08:50:37.002Z</time></trkpt><trkpt lat="44.8806944222053" lon="8.010120021649671"><ele>196.0</ele><time>2026-04-19T08:50:38.002Z</time></trkpt><trkpt lat="44.88077644705228" lon="8.010042270529175"><ele>196.0</ele><time>2026-04-19T08:50:39.002Z</time></trkpt><trkpt lat="44.88084989217128" lon="8.00995519563315"><ele>196.0</ele><time>2026-04-19T08:50:40Z</time></trkpt><trkpt lat="44.88089926298354" lon="8.009859993111395"><ele>196.0</ele><time>2026-04-19T08:50:41Z</time></trkpt><trkpt lat="44.880936451317694" lon="8.00974067424042"><ele>196.0</ele><time>2026-04-19T08:50:42Z</time></trkpt><trkpt lat="44.880964020143956" lon="8.009617233771582"><ele>196.0</ele><time>2026-04-19T08:50:43Z</time></trkpt><trkpt lat="44.88100448306545" lon="8.009484579441514"><ele>196.0</ele><time>2026-04-19T08:50:44Z</time></trkpt><trkpt lat="44.88104092000555" lon="8.009331541964722"><ele>196.0</ele><time>2026-04-19T08:50:45Z</time></trkpt><trkpt lat="44.88108512204805" lon="8.009210263815133"><ele>196.0</ele><time>2026-04-19T08:50:46Z</time></trkpt><trkpt lat="44.881117537500124" lon="8.009075924765442"><ele>196.0</ele><time>2026-04-19T08:50:47Z</time></trkpt><trkpt lat="44.8811510268697" lon="8.008933503877383"><ele>196.0</ele><time>2026-04-19T08:50:48Z</time></trkpt><trkpt lat="44.881177779412134" lon="8.008780869122566"><ele>197.0</ele><time>2026-04-19T08:50:49Z</time></trkpt><trkpt lat="44.8812168387159" lon="8.00864999474003"><ele>198.0</ele><time>2026-04-19T08:50:50Z</time></trkpt><trkpt lat="44.88125697062049" lon="8.008477893123102"><ele>199.0</ele><time>2026-04-19T08:50:51Z</time></trkpt><trkpt lat="44.881306701237364" lon="8.008297962640498"><ele>200.0</ele><time>2026-04-19T08:50:52Z</time></trkpt><trkpt lat="44.881362325498756" lon="8.008123783717412"><ele>200.4</ele><time>2026-04-19T08:50:53Z</time></trkpt><trkpt lat="44.881417969568396" lon="8.007950771203264"><ele>200.8</ele><time>2026-04-19T08:50:54Z</time></trkpt><trkpt lat="44.88145503560087" lon="8.00780854775439"><ele>201.2</ele><time>2026-04-19T08:50:55Z</time></trkpt><trkpt lat="44.881497513469895" lon="8.007662547123372"><ele>201.6</ele><time>2026-04-19T08:50:56Z</time></trkpt><trkpt lat="44.88152927895805" lon="8.007541031919747"><ele>202.0</ele><time>2026-04-19T08:50:57Z</time></trkpt><trkpt lat="44.881574024415706" lon="8.007390127790773"><ele>202.0</ele><time>2026-04-19T08:50:58Z</time></trkpt><trkpt lat="44.88161242434879" lon="8.00725807642889"><ele>202.0</ele><time>2026-04-19T08:50:59Z</time></trkpt><trkpt lat="44.88167840703051" lon="8.007323789113956"><ele>202.0</ele><time>2026-04-19T08:51:04Z</time></trkpt><trkpt lat="44.88181688523244" lon="8.007391531339268"><ele>202.0</ele><time>2026-04-19T08:51:06Z</time></trkpt><trkpt lat="44.881912526757894" lon="8.007391010825744"><ele>202.0</ele><time>2026-04-19T08:51:07Z</time></trkpt><trkpt lat="44.88201672090449" lon="8.007376852468989"><ele>202.0</ele><time>2026-04-19T08:51:08Z</time></trkpt><trkpt lat="44.88214173637982" lon="8.007358604633184"><ele>202.0</ele><time>2026-04-19T08:51:09Z</time></trkpt><trkpt lat="44.88227478567794" lon="8.007343557697032"><ele>202.0</ele><time>2026-04-19T08:51:10Z</time></trkpt><trkpt lat="44.88241731562304" lon="8.00732401060127"><ele>202.0</ele><time>2026-04-19T08:51:11Z</time></trkpt><trkpt lat="44.88256061384356" lon="8.00729987206196"><ele>200.5</ele><time>2026-04-19T08:51:12Z</time></trkpt><trkpt lat="44.88269804948747" lon="8.007296851932072"><ele>199.0</ele><time>2026-04-19T08:51:13Z</time></trkpt><trkpt lat="44.88281916557921" lon="8.007269457591137"><ele>197.5</ele><time>2026-04-19T08:51:14Z</time></trkpt><trkpt lat="44.88293003801197" lon="8.007252603121094"><ele>196.0</ele><time>2026-04-19T08:51:15Z</time></trkpt><trkpt lat="44.883058195732126" lon="8.007231008622192"><ele>196.0</ele><time>2026-04-19T08:51:16Z</time></trkpt><trkpt lat="44.883196444011766" lon="8.007209112235351"><ele>196.0</ele><time>2026-04-19T08:51:17Z</time></trkpt><trkpt lat="44.88333302672515" lon="8.007205378484247"><ele>196.0</ele><time>2026-04-19T08:51:18Z</time></trkpt><trkpt lat="44.883457146920094" lon="8.007192712254017"><ele>196.0</ele><time>2026-04-19T08:51:19Z</time></trkpt><trkpt lat="44.88357243823101" lon="8.007186124881452"><ele>196.0</ele><time>2026-04-19T08:51:20Z</time></trkpt><trkpt lat="44.883698310505125" lon="8.007189034608466"><ele>196.0</ele><time>2026-04-19T08:51:21Z</time></trkpt><trkpt lat="44.883818256361785" lon="8.007185969733372"><ele>196.0</ele><time>2026-04-19T08:51:22Z</time></trkpt><trkpt lat="44.883920311277485" lon="8.007177277641901"><ele>196.0</ele><time>2026-04-19T08:51:23Z</time></trkpt><trkpt lat="44.88402164762717" lon="8.00718150746823"><ele>196.0</ele><time>2026-04-19T08:51:24Z</time></trkpt><trkpt lat="44.88412004195559" lon="8.007229184544325"><ele>196.0</ele><time>2026-04-19T08:51:25.001Z</time></trkpt><trkpt lat="44.88422951912273" lon="8.007304504431938"><ele>196.0</ele><time>2026-04-19T08:51:26.001Z</time></trkpt><trkpt lat="44.884325959174944" lon="8.007422250924158"><ele>196.0</ele><time>2026-04-19T08:51:27.001Z</time></trkpt><trkpt lat="44.88441906876893" lon="8.007511849363516"><ele>196.0</ele><time>2026-04-19T08:51:28.001Z</time></trkpt><trkpt lat="44.88452028448741" lon="8.007574557941162"><ele>195.4</ele><time>2026-04-19T08:51:29.001Z</time></trkpt><trkpt lat="44.88460284348191" lon="8.007597138744265"><ele>194.8</ele><time>2026-04-19T08:51:30.001Z</time></trkpt><trkpt lat="44.88469644348522" lon="8.007601765071783"><ele>194.20000000000002</ele><time>2026-04-19T08:51:31.001Z</time></trkpt><trkpt lat="44.884793147777025" lon="8.007580038330987"><ele>193.60000000000002</ele><time>2026-04-19T08:51:32.001Z</time></trkpt><trkpt lat="44.88489136154396" lon="8.007545500404127"><ele>193.0</ele><time>2026-04-19T08:51:33.001Z</time></trkpt><trkpt lat="44.88499468809739" lon="8.007505528644117"><ele>193.0</ele><time>2026-04-19T08:51:34.001Z</time></trkpt><trkpt lat="44.88510160247939" lon="8.007401772771313"><ele>193.0</ele><time>2026-04-19T08:51:35.001Z</time></trkpt><trkpt lat="44.88520318833275" lon="8.007306721356052"><ele>193.0</ele><time>2026-04-19T08:51:36.001Z</time></trkpt><trkpt lat="44.885312681556194" lon="8.007242190500213"><ele>193.0</ele><time>2026-04-19T08:51:37.001Z</time></trkpt><trkpt lat="44.885425339536404" lon="8.007174633991502"><ele>193.0</ele><time>2026-04-19T08:51:38.001Z</time></trkpt><trkpt lat="44.88552159661534" lon="8.007110554860894"><ele>193.0</ele><time>2026-04-19T08:51:39.001Z</time></trkpt><trkpt lat="44.88559250179293" lon="8.007050607047614"><ele>193.0</ele><time>2026-04-19T08:51:40.001Z</time></trkpt><trkpt lat="44.88565634227492" lon="8.006957343953"><ele>193.0</ele><time>2026-04-19T08:51:41.001Z</time></trkpt><trkpt lat="44.885713192214745" lon="8.006832061785444"><ele>193.0</ele><time>2026-04-19T08:51:42.001Z</time></trkpt><trkpt lat="44.88576075975989" lon="8.006693300111083"><ele>193.8</ele><time>2026-04-19T08:51:43.001Z</time></trkpt><trkpt lat="44.88582039307387" lon="8.006557635644537"><ele>194.60000000000002</ele><time>2026-04-19T08:51:44.001Z</time></trkpt><trkpt lat="44.88587893709271" lon="8.00646892115614"><ele>195.39999999999998</ele><time>2026-04-19T08:51:45.001Z</time></trkpt><trkpt lat="44.885955540868345" lon="8.006401181279571"><ele>196.2</ele><time>2026-04-19T08:51:46.001Z</time></trkpt><trkpt lat="44.88606590884051" lon="8.00636112972737"><ele>197.0</ele><time>2026-04-19T08:51:47.001Z</time></trkpt><trkpt lat="44.88618819678553" lon="8.006316564872453"><ele>197.0</ele><time>2026-04-19T08:51:48.001Z</time></trkpt><trkpt lat="44.886306214348934" lon="8.006264958404516"><ele>197.0</ele><time>2026-04-19T08:51:49.001Z</time></trkpt><trkpt lat="44.88643317421048" lon="8.006234013704654"><ele>197.0</ele><time>2026-04-19T08:51:50.001Z</time></trkpt><trkpt lat="44.88655789459332" lon="8.006215910072456"><ele>197.0</ele><time>2026-04-19T08:51:51.001Z</time></trkpt><trkpt lat="44.88666620881009" lon="8.006211677167862"><ele>196.50000000000003</ele><time>2026-04-19T08:51:52.001Z</time></trkpt><trkpt lat="44.88676337567483" lon="8.006193866007012"><ele>196.0</ele><time>2026-04-19T08:51:53.001Z</time></trkpt><trkpt lat="44.8868465440819" lon="8.006185651136505"><ele>195.5</ele><time>2026-04-19T08:51:54.001Z</time></trkpt><trkpt lat="44.88692902167156" lon="8.006173949203514"><ele>195.0</ele><time>2026-04-19T08:51:55.001Z</time></trkpt><trkpt lat="44.8870155960371" lon="8.00615552467935"><ele>194.50000000000003</ele><time>2026-04-19T08:51:56.001Z</time></trkpt><trkpt lat="44.88709402959738" lon="8.006114876643498"><ele>194.0</ele><time>2026-04-19T08:51:57.001Z</time></trkpt><trkpt lat="44.88717927890942" lon="8.006064160482826"><ele>194.0</ele><time>2026-04-19T08:51:58.001Z</time></trkpt><trkpt lat="44.88725796840242" lon="8.006021661714385"><ele>194.0</ele><time>2026-04-19T08:51:59.001Z</time></trkpt><trkpt lat="44.88735920702366" lon="8.005925876861951"><ele>194.0</ele><time>2026-04-19T08:52:00.001Z</time></trkpt><trkpt lat="44.88745237693979" lon="8.005803933168266"><ele>194.0</ele><time>2026-04-19T08:52:01.001Z</time></trkpt><trkpt lat="44.88755635169748" lon="8.005719758832717"><ele>194.75</ele><time>2026-04-19T08:52:02.001Z</time></trkpt><trkpt lat="44.88767271218057" lon="8.00565020576361"><ele>195.5</ele><time>2026-04-19T08:52:03.001Z</time></trkpt><trkpt lat="44.88777826809243" lon="8.005578713968644"><ele>196.25</ele><time>2026-04-19T08:52:04.001Z</time></trkpt><trkpt lat="44.88788970546506" lon="8.005515367020944"><ele>197.0</ele><time>2026-04-19T08:52:05.001Z</time></trkpt><trkpt lat="44.888006826843565" lon="8.00546296776159"><ele>197.00000000000003</ele><time>2026-04-19T08:52:06.001Z</time></trkpt><trkpt lat="44.888119935219535" lon="8.005394274226274"><ele>197.0</ele><time>2026-04-19T08:52:07.001Z</time></trkpt><trkpt lat="44.8882169034479" lon="8.005373428351083"><ele>197.0</ele><time>2026-04-19T08:52:08.001Z</time></trkpt><trkpt lat="44.888290325868404" lon="8.005356644132098"><ele>197.0</ele><time>2026-04-19T08:52:09.001Z</time></trkpt><trkpt lat="44.88834686573719" lon="8.005409378192523"><ele>197.00000000000003</ele><time>2026-04-19T08:52:10.001Z</time></trkpt><trkpt lat="44.88841675773434" lon="8.005476054339939"><ele>197.0</ele><time>2026-04-19T08:52:11.001Z</time></trkpt><trkpt lat="44.888468257842845" lon="8.00556551483258"><ele>196.0</ele><time>2026-04-19T08:52:12.001Z</time></trkpt><trkpt lat="44.88852071035762" lon="8.005664158659869"><ele>195.0</ele><time>2026-04-19T08:52:13.001Z</time></trkpt><trkpt lat="44.88858080876195" lon="8.005755273067901"><ele>194.0</ele><time>2026-04-19T08:52:14.001Z</time></trkpt><trkpt lat="44.888625298251135" lon="8.00582272300897"><ele>193.0</ele><time>2026-04-19T08:52:15.001Z</time></trkpt><trkpt lat="44.88880826759839" lon="8.005683387417509"><ele>192.0</ele><time>2026-04-19T08:52:16.001Z</time></trkpt><trkpt lat="44.888881580085055" lon="8.005730500764072"><ele>192.0</ele><time>2026-04-19T08:52:17.001Z</time></trkpt><trkpt lat="44.88897342870293" lon="8.005750961878974"><ele>192.0</ele><time>2026-04-19T08:52:18.001Z</time></trkpt><trkpt lat="44.889076902271846" lon="8.005758069495677"><ele>192.0</ele><time>2026-04-19T08:52:19.001Z</time></trkpt><trkpt lat="44.889184270667215" lon="8.00573040727624"><ele>192.0</ele><time>2026-04-19T08:52:20.001Z</time></trkpt><trkpt lat="44.88929324331833" lon="8.005735054049948"><ele>192.0</ele><time>2026-04-19T08:52:21.001Z</time></trkpt><trkpt lat="44.88939640371675" lon="8.005740349841656"><ele>193.0</ele><time>2026-04-19T08:52:22.001Z</time></trkpt><trkpt lat="44.88950151903835" lon="8.0057458374147"><ele>194.0</ele><time>2026-04-19T08:52:23.001Z</time></trkpt><trkpt lat="44.88959770882337" lon="8.005734906232036"><ele>195.0</ele><time>2026-04-19T08:52:24.001Z</time></trkpt><trkpt lat="44.889686056689776" lon="8.005719439168036"><ele>196.0</ele><time>2026-04-19T08:52:25.001Z</time></trkpt><trkpt lat="44.889775385905914" lon="8.005701541710483"><ele>197.0</ele><time>2026-04-19T08:52:26.001Z</time></trkpt><trkpt lat="44.88984635018554" lon="8.00568635398371"><ele>197.0</ele><time>2026-04-19T08:52:27.001Z</time></trkpt><trkpt lat="44.88994100362446" lon="8.005663804157914"><ele>197.0</ele><time>2026-04-19T08:52:29.001Z</time></trkpt><trkpt lat="44.89001107065011" lon="8.005660800823309"><ele>197.0</ele><time>2026-04-19T08:52:32.002Z</time></trkpt><trkpt lat="44.890145064418014" lon="8.005753628117825"><ele>197.0</ele><time>2026-04-19T08:52:34.002Z</time></trkpt><trkpt lat="44.890237281681905" lon="8.00582742649613"><ele>197.0</ele><time>2026-04-19T08:52:35.002Z</time></trkpt><trkpt lat="44.89033621944358" lon="8.00590197146313"><ele>196.0</ele><time>2026-04-19T08:52:36.002Z</time></trkpt><trkpt lat="44.8904470063646" lon="8.005968182704628"><ele>195.0</ele><time>2026-04-19T08:52:37.002Z</time></trkpt><trkpt lat="44.89055157658182" lon="8.006042566331022"><ele>194.0</ele><time>2026-04-19T08:52:38.002Z</time></trkpt><trkpt lat="44.890659136173255" lon="8.006131059147636"><ele>193.0</ele><time>2026-04-19T08:52:39.002Z</time></trkpt><trkpt lat="44.89076874203066" lon="8.006208665087232"><ele>193.0</ele><time>2026-04-19T08:52:40.002Z</time></trkpt><trkpt lat="44.89087711908234" lon="8.006289903477427"><ele>193.0</ele><time>2026-04-19T08:52:41.002Z</time></trkpt><trkpt lat="44.89098420847059" lon="8.00636533361283"><ele>193.0</ele><time>2026-04-19T08:52:42.002Z</time></trkpt><trkpt lat="44.8910857147296" lon="8.006466116439256"><ele>193.0</ele><time>2026-04-19T08:52:43.002Z</time></trkpt><trkpt lat="44.89119616589136" lon="8.006524155203515"><ele>191.75</ele><time>2026-04-19T08:52:44.002Z</time></trkpt><trkpt lat="44.89129792342613" lon="8.006602800013642"><ele>190.5</ele><time>2026-04-19T08:52:45.002Z</time></trkpt><trkpt lat="44.89139862704473" lon="8.006702458353306"><ele>189.25</ele><time>2026-04-19T08:52:46Z</time></trkpt><trkpt lat="44.89150428732825" lon="8.006759817392119"><ele>188.0</ele><time>2026-04-19T08:52:47Z</time></trkpt><trkpt lat="44.89159308443907" lon="8.006849349724071"><ele>188.0</ele><time>2026-04-19T08:52:48Z</time></trkpt><trkpt lat="44.891679852775596" lon="8.006914894166233"><ele>188.0</ele><time>2026-04-19T08:52:49Z</time></trkpt><trkpt lat="44.89175419571487" lon="8.00697184805929"><ele>188.0</ele><time>2026-04-19T08:52:50Z</time></trkpt><trkpt lat="44.89183236807648" lon="8.007031657841795"><ele>188.0</ele><time>2026-04-19T08:52:51Z</time></trkpt><trkpt lat="44.89192329564366" lon="8.007101226540103"><ele>188.0</ele><time>2026-04-19T08:52:52Z</time></trkpt><trkpt lat="44.89202596664342" lon="8.00716988360665"><ele>188.0</ele><time>2026-04-19T08:52:53Z</time></trkpt><trkpt lat="44.89212381760185" lon="8.007263280564635"><ele>188.0</ele><time>2026-04-19T08:52:54Z</time></trkpt><trkpt lat="44.89223398454452" lon="8.007344758867333"><ele>188.0</ele><time>2026-04-19T08:52:55Z</time></trkpt><trkpt lat="44.892351202623374" lon="8.007449821906672"><ele>188.0</ele><time>2026-04-19T08:52:56Z</time></trkpt><trkpt lat="44.89247724902872" lon="8.00754253647842"><ele>188.75</ele><time>2026-04-19T08:52:57Z</time></trkpt><trkpt lat="44.8925907843487" lon="8.00762987258356"><ele>189.5</ele><time>2026-04-19T08:52:58Z</time></trkpt><trkpt lat="44.89270387174675" lon="8.007698630775945"><ele>190.25</ele><time>2026-04-19T08:52:59Z</time></trkpt><trkpt lat="44.89281831602216" lon="8.007795087303373"><ele>191.0</ele><time>2026-04-19T08:53:00Z</time></trkpt><trkpt lat="44.89293825509036" lon="8.007894926893623"><ele>191.0</ele><time>2026-04-19T08:53:01Z</time></trkpt><trkpt lat="44.8930548359528" lon="8.008001852724611"><ele>191.0</ele><time>2026-04-19T08:53:02Z</time></trkpt><trkpt lat="44.89317522148245" lon="8.008108217339048"><ele>191.0</ele><time>2026-04-19T08:53:03Z</time></trkpt><trkpt lat="44.89329542198941" lon="8.008210072992528"><ele>191.0</ele><time>2026-04-19T08:53:04Z</time></trkpt><trkpt lat="44.89341593113356" lon="8.008308275121728"><ele>191.0</ele><time>2026-04-19T08:53:05Z</time></trkpt><trkpt lat="44.89353478426094" lon="8.008407748382098"><ele>191.0</ele><time>2026-04-19T08:53:06Z</time></trkpt><trkpt lat="44.89365448061206" lon="8.008515313171"><ele>191.0</ele><time>2026-04-19T08:53:07Z</time></trkpt><trkpt lat="44.893772623909996" lon="8.008600772586206"><ele>191.0</ele><time>2026-04-19T08:53:08Z</time></trkpt><trkpt lat="44.89389363385708" lon="8.008698395902067"><ele>191.0</ele><time>2026-04-19T08:53:09Z</time></trkpt><trkpt lat="44.89401541250602" lon="8.00881313939525"><ele>191.0</ele><time>2026-04-19T08:53:10Z</time></trkpt><trkpt lat="44.89414368240814" lon="8.008932972832575"><ele>191.0</ele><time>2026-04-19T08:53:11Z</time></trkpt><trkpt lat="44.89426430535442" lon="8.009049323909633"><ele>191.0</ele><time>2026-04-19T08:53:12Z</time></trkpt><trkpt lat="44.8943900477076" lon="8.009153326808848"><ele>190.5</ele><time>2026-04-19T08:53:13Z</time></trkpt><trkpt lat="44.89451517363123" lon="8.009258148019459"><ele>190.0</ele><time>2026-04-19T08:53:14Z</time></trkpt><trkpt lat="44.894643978543336" lon="8.009364523142182"><ele>189.5</ele><time>2026-04-19T08:53:15Z</time></trkpt><trkpt lat="44.894774202688446" lon="8.009469955069566"><ele>189.0</ele><time>2026-04-19T08:53:16Z</time></trkpt><trkpt lat="44.89490688949269" lon="8.00958092592232"><ele>189.0</ele><time>2026-04-19T08:53:17Z</time></trkpt><trkpt lat="44.89504235271444" lon="8.00968630429749"><ele>189.0</ele><time>2026-04-19T08:53:18Z</time></trkpt><trkpt lat="44.89517531278069" lon="8.009789158835519"><ele>189.0</ele><time>2026-04-19T08:53:19Z</time></trkpt><trkpt lat="44.895306524541816" lon="8.009906370829018"><ele>187.0</ele><time>2026-04-19T08:53:20Z</time></trkpt><trkpt lat="44.89543217287378" lon="8.010020318669484"><ele>185.0</ele><time>2026-04-19T08:53:21Z</time></trkpt><trkpt lat="44.89554948475646" lon="8.010111899228633"><ele>183.0</ele><time>2026-04-19T08:53:22.001Z</time></trkpt><trkpt lat="44.895646630174596" lon="8.010195267418949"><ele>181.0</ele><time>2026-04-19T08:53:23.001Z</time></trkpt><trkpt lat="44.895723994174766" lon="8.01026628297734"><ele>181.0</ele><time>2026-04-19T08:53:24.001Z</time></trkpt><trkpt lat="44.89578845587479" lon="8.01031951158718"><ele>181.0</ele><time>2026-04-19T08:53:25.001Z</time></trkpt><trkpt lat="44.89588591424068" lon="8.01040005521386"><ele>181.0</ele><time>2026-04-19T08:53:27.001Z</time></trkpt><trkpt lat="44.89581582272017" lon="8.01060063248356"><ele>181.0</ele><time>2026-04-19T08:53:30.001Z</time></trkpt><trkpt lat="44.89572279749747" lon="8.010681335684113"><ele>181.0</ele><time>2026-04-19T08:53:31.001Z</time></trkpt><trkpt lat="44.89561097861207" lon="8.010744270592477"><ele>181.0</ele><time>2026-04-19T08:53:32.001Z</time></trkpt><trkpt lat="44.89549810306519" lon="8.01077790176382"><ele>181.0</ele><time>2026-04-19T08:53:33.001Z</time></trkpt><trkpt lat="44.8953954948665" lon="8.010787423518124"><ele>181.0</ele><time>2026-04-19T08:53:34.001Z</time></trkpt><trkpt lat="44.895276402985715" lon="8.010797868859957"><ele>180.4</ele><time>2026-04-19T08:53:35.001Z</time></trkpt><trkpt lat="44.89516940985741" lon="8.010830513764132"><ele>179.8</ele><time>2026-04-19T08:53:36.001Z</time></trkpt><trkpt lat="44.895080067931815" lon="8.010896119644489"><ele>179.20000000000002</ele><time>2026-04-19T08:53:37.001Z</time></trkpt><trkpt lat="44.894985571426446" lon="8.01099924866228"><ele>178.60000000000002</ele><time>2026-04-19T08:53:38.001Z</time></trkpt><trkpt lat="44.89489252844325" lon="8.011096859967733"><ele>178.0</ele><time>2026-04-19T08:53:39.001Z</time></trkpt><trkpt lat="44.89480379854979" lon="8.011170342343535"><ele>178.0</ele><time>2026-04-19T08:53:40.001Z</time></trkpt><trkpt lat="44.89471823135381" lon="8.011277574493255"><ele>178.0</ele><time>2026-04-19T08:53:41.001Z</time></trkpt><trkpt lat="44.89466254751703" lon="8.011393663595467"><ele>178.0</ele><time>2026-04-19T08:53:42.001Z</time></trkpt><trkpt lat="44.89463283658968" lon="8.011474477317964"><ele>178.0</ele><time>2026-04-19T08:53:43.001Z</time></trkpt><trkpt lat="44.894659856114984" lon="8.011393767832569"><ele>178.0</ele><time>2026-04-19T08:53:52.001Z</time></trkpt><trkpt lat="44.89472341535821" lon="8.011327192226368"><ele>178.0</ele><time>2026-04-19T08:53:55.001Z</time></trkpt><trkpt lat="44.89478271291187" lon="8.011388298709939"><ele>178.0</ele><time>2026-04-19T08:53:59.001Z</time></trkpt><trkpt lat="44.89480054038064" lon="8.011475244660929"><ele>178.0</ele><time>2026-04-19T08:54:00.001Z</time></trkpt><trkpt lat="44.89484029527128" lon="8.011581793787808"><ele>178.0</ele><time>2026-04-19T08:54:02.001Z</time></trkpt><trkpt lat="44.89491998933934" lon="8.011665785314154"><ele>178.0</ele><time>2026-04-19T08:54:04.001Z</time></trkpt><trkpt lat="44.89494524439711" lon="8.011765765506611"><ele>178.0</ele><time>2026-04-19T08:54:06.001Z</time></trkpt><trkpt lat="44.894918528657094" lon="8.011853570473196"><ele>178.0</ele><time>2026-04-19T08:54:09.001Z</time></trkpt><trkpt lat="44.89483506598509" lon="8.01190420624724"><ele>178.0</ele><time>2026-04-19T08:54:12.001Z</time></trkpt><trkpt lat="44.89473655651846" lon="8.01187406078567"><ele>178.0</ele><time>2026-04-19T08:54:14.001Z</time></trkpt><trkpt lat="44.894652838305184" lon="8.01191815168402"><ele>178.0</ele><time>2026-04-19T08:54:18.001Z</time></trkpt><trkpt lat="44.89457226393502" lon="8.011962293056289"><ele>178.0</ele><time>2026-04-19T08:54:20.001Z</time></trkpt><trkpt lat="44.894505047982605" lon="8.01196715697269"><ele>178.0</ele><time>2026-04-19T08:54:22.001Z</time></trkpt><trkpt lat="44.89455379655192" lon="8.01203058216807"><ele>178.0</ele><time>2026-04-19T08:54:25.001Z</time></trkpt><trkpt lat="44.89462363335065" lon="8.012034843977565"><ele>178.0</ele><time>2026-04-19T08:54:26.001Z</time></trkpt><trkpt lat="44.89470361576721" lon="8.012058414078203"><ele>178.0</ele><time>2026-04-19T08:54:27.001Z</time></trkpt><trkpt lat="44.89477176109193" lon="8.012066970316399"><ele>178.0</ele><time>2026-04-19T08:54:28.001Z</time></trkpt><trkpt lat="44.89490969022612" lon="8.012060867738121"><ele>178.0</ele><time>2026-04-19T08:54:30.001Z</time></trkpt><trkpt lat="44.8949861301995" lon="8.012059278150442"><ele>178.0</ele><time>2026-04-19T08:54:31.001Z</time></trkpt><trkpt lat="44.895077357621176" lon="8.012085924772855"><ele>177.60000000000002</ele><time>2026-04-19T08:54:32.001Z</time></trkpt><trkpt lat="44.89516698151029" lon="8.012103801776293"><ele>177.20000000000002</ele><time>2026-04-19T08:54:33.001Z</time></trkpt><trkpt lat="44.895248441903334" lon="8.012148906264384"><ele>176.8</ele><time>2026-04-19T08:54:34.002Z</time></trkpt><trkpt lat="44.89538017174505" lon="8.01220716845826"><ele>176.4</ele><time>2026-04-19T08:54:35.002Z</time></trkpt><trkpt lat="44.89548731798243" lon="8.01225701686995"><ele>176.0</ele><time>2026-04-19T08:54:36.002Z</time></trkpt><trkpt lat="44.89559864064805" lon="8.012315086686863"><ele>176.0</ele><time>2026-04-19T08:54:37.002Z</time></trkpt><trkpt lat="44.895718361912195" lon="8.012387533212609"><ele>176.0</ele><time>2026-04-19T08:54:38.002Z</time></trkpt><trkpt lat="44.89582660404978" lon="8.012416885616686"><ele>176.0</ele><time>2026-04-19T08:54:39.002Z</time></trkpt><trkpt lat="44.89595165936025" lon="8.012447268594151"><ele>176.0</ele><time>2026-04-19T08:54:40.002Z</time></trkpt><trkpt lat="44.8960650504248" lon="8.012506995306916"><ele>176.75</ele><time>2026-04-19T08:54:41.002Z</time></trkpt><trkpt lat="44.89617622604767" lon="8.012597553577718"><ele>177.5</ele><time>2026-04-19T08:54:42.002Z</time></trkpt><trkpt lat="44.89629776297731" lon="8.012678754501499"><ele>178.25</ele><time>2026-04-19T08:54:43.002Z</time></trkpt><trkpt lat="44.89638259348707" lon="8.012801604621815"><ele>179.0</ele><time>2026-04-19T08:54:44.002Z</time></trkpt><trkpt lat="44.89645649237616" lon="8.012918993212027"><ele>179.0</ele><time>2026-04-19T08:54:45.002Z</time></trkpt><trkpt lat="44.89652306009721" lon="8.013033944547558"><ele>179.0</ele><time>2026-04-19T08:54:46.002Z</time></trkpt><trkpt lat="44.896571756305" lon="8.013150994456755"><ele>179.0</ele><time>2026-04-19T08:54:47.002Z</time></trkpt><trkpt lat="44.896586393511974" lon="8.013299985009013"><ele>179.0</ele><time>2026-04-19T08:54:48.002Z</time></trkpt><trkpt lat="44.89660116484667" lon="8.013459423068502"><ele>179.0</ele><time>2026-04-19T08:54:49.002Z</time></trkpt><trkpt lat="44.8966003365507" lon="8.013675121052431"><ele>178.25</ele><time>2026-04-19T08:54:50.002Z</time></trkpt><trkpt lat="44.89662679484574" lon="8.013879504978863"><ele>177.5</ele><time>2026-04-19T08:54:51.002Z</time></trkpt><trkpt lat="44.896668317473186" lon="8.014072762680433"><ele>176.75</ele><time>2026-04-19T08:54:52.001Z</time></trkpt><trkpt lat="44.8967210032438" lon="8.014233221932287"><ele>176.0</ele><time>2026-04-19T08:54:53.001Z</time></trkpt><trkpt lat="44.89676298707896" lon="8.014402416301197"><ele>175.8</ele><time>2026-04-19T08:54:54.001Z</time></trkpt><trkpt lat="44.89682360768291" lon="8.014533223771798"><ele>175.60000000000002</ele><time>2026-04-19T08:54:55.001Z</time></trkpt><trkpt lat="44.896899041525906" lon="8.014650798795557"><ele>175.4</ele><time>2026-04-19T08:54:56.001Z</time></trkpt><trkpt lat="44.89697965248799" lon="8.014741631009441"><ele>175.2</ele><time>2026-04-19T08:54:57.001Z</time></trkpt><trkpt lat="44.89706163588681" lon="8.014862790758238"><ele>175.0</ele><time>2026-04-19T08:54:58.001Z</time></trkpt><trkpt lat="44.897147408200595" lon="8.014982257348482"><ele>174.25</ele><time>2026-04-19T08:54:59.001Z</time></trkpt><trkpt lat="44.89725196006347" lon="8.015111795747714"><ele>173.5</ele><time>2026-04-19T08:55:00.001Z</time></trkpt><trkpt lat="44.89735214300237" lon="8.015227541456179"><ele>172.75</ele><time>2026-04-19T08:55:01.001Z</time></trkpt><trkpt lat="44.897436605507345" lon="8.015369410082007"><ele>172.0</ele><time>2026-04-19T08:55:02.001Z</time></trkpt><trkpt lat="44.89752041471338" lon="8.015472024455422"><ele>173.25</ele><time>2026-04-19T08:55:03.001Z</time></trkpt><trkpt lat="44.89760496953408" lon="8.015593226283809"><ele>174.5</ele><time>2026-04-19T08:55:04.001Z</time></trkpt><trkpt lat="44.89768762117618" lon="8.015728034226056"><ele>175.75</ele><time>2026-04-19T08:55:05.001Z</time></trkpt><trkpt lat="44.89777156756103" lon="8.015861845508311"><ele>177.0</ele><time>2026-04-19T08:55:06.001Z</time></trkpt><trkpt lat="44.897857366092715" lon="8.015989067492429"><ele>177.0</ele><time>2026-04-19T08:55:07.001Z</time></trkpt><trkpt lat="44.89794990516317" lon="8.016122436505016"><ele>177.0</ele><time>2026-04-19T08:55:08.001Z</time></trkpt><trkpt lat="44.89803683444145" lon="8.01622667947951"><ele>177.0</ele><time>2026-04-19T08:55:09.001Z</time></trkpt><trkpt lat="44.89812234255818" lon="8.016349203262294"><ele>177.0</ele><time>2026-04-19T08:55:10.001Z</time></trkpt><trkpt lat="44.898202043636005" lon="8.016485315132124"><ele>177.0</ele><time>2026-04-19T08:55:11.001Z</time></trkpt><trkpt lat="44.89827843417895" lon="8.016616217902998"><ele>177.0</ele><time>2026-04-19T08:55:12.001Z</time></trkpt><trkpt lat="44.89835837041859" lon="8.016731162056189"><ele>177.0</ele><time>2026-04-19T08:55:13.001Z</time></trkpt><trkpt lat="44.89844820208741" lon="8.016848128275498"><ele>177.0</ele><time>2026-04-19T08:55:14.001Z</time></trkpt><trkpt lat="44.89855108163729" lon="8.016975654531171"><ele>176.25</ele><time>2026-04-19T08:55:15.001Z</time></trkpt><trkpt lat="44.89865678814136" lon="8.017081657501008"><ele>175.5</ele><time>2026-04-19T08:55:16.001Z</time></trkpt><trkpt lat="44.89875575322754" lon="8.017213347183338"><ele>174.75</ele><time>2026-04-19T08:55:17.001Z</time></trkpt><trkpt lat="44.89883866406115" lon="8.017349994740782"><ele>174.0</ele><time>2026-04-19T08:55:18.001Z</time></trkpt><trkpt lat="44.89892286285368" lon="8.017513495222213"><ele>174.0</ele><time>2026-04-19T08:55:19.001Z</time></trkpt><trkpt lat="44.89901626533967" lon="8.017679499756152"><ele>174.0</ele><time>2026-04-19T08:55:20.001Z</time></trkpt><trkpt lat="44.89910828981438" lon="8.017811753413277"><ele>174.0</ele><time>2026-04-19T08:55:21.001Z</time></trkpt><trkpt lat="44.89918259146695" lon="8.017980295979228"><ele>174.0</ele><time>2026-04-19T08:55:22.001Z</time></trkpt><trkpt lat="44.899260996757135" lon="8.018132631139409"><ele>174.0</ele><time>2026-04-19T08:55:23.001Z</time></trkpt><trkpt lat="44.89932796583577" lon="8.018297999909553"><ele>174.0</ele><time>2026-04-19T08:55:24.001Z</time></trkpt><trkpt lat="44.899398949829944" lon="8.018423332490896"><ele>174.0</ele><time>2026-04-19T08:55:25.001Z</time></trkpt><trkpt lat="44.89948327423104" lon="8.018559203079393"><ele>174.0</ele><time>2026-04-19T08:55:26.001Z</time></trkpt><trkpt lat="44.89959432758922" lon="8.018667672518955"><ele>173.75</ele><time>2026-04-19T08:55:27.001Z</time></trkpt><trkpt lat="44.89971437293027" lon="8.018740977843105"><ele>173.5</ele><time>2026-04-19T08:55:28.001Z</time></trkpt><trkpt lat="44.89983963002234" lon="8.018814783104286"><ele>173.25</ele><time>2026-04-19T08:55:29.001Z</time></trkpt><trkpt lat="44.899957903280175" lon="8.01890287084764"><ele>173.0</ele><time>2026-04-19T08:55:30.001Z</time></trkpt><trkpt lat="44.9001047615792" lon="8.018981026621027"><ele>173.0</ele><time>2026-04-19T08:55:31.001Z</time></trkpt><trkpt lat="44.90023785704875" lon="8.019061350363103"><ele>173.0</ele><time>2026-04-19T08:55:32.001Z</time></trkpt><trkpt lat="44.900369554754846" lon="8.019158430027394"><ele>173.0</ele><time>2026-04-19T08:55:33.001Z</time></trkpt><trkpt lat="44.90048380590411" lon="8.019265540668831"><ele>173.0</ele><time>2026-04-19T08:55:34.001Z</time></trkpt><trkpt lat="44.90060283829505" lon="8.019389439804744"><ele>172.5</ele><time>2026-04-19T08:55:35.001Z</time></trkpt><trkpt lat="44.90072611945156" lon="8.019496209372585"><ele>172.0</ele><time>2026-04-19T08:55:36.001Z</time></trkpt><trkpt lat="44.90085240747629" lon="8.019572303334975"><ele>171.5</ele><time>2026-04-19T08:55:37.001Z</time></trkpt><trkpt lat="44.90097598647624" lon="8.01966308408417"><ele>171.0</ele><time>2026-04-19T08:55:38.001Z</time></trkpt><trkpt lat="44.901089998594315" lon="8.019763414815756"><ele>171.0</ele><time>2026-04-19T08:55:39.001Z</time></trkpt><trkpt lat="44.90121165750653" lon="8.019860254913352"><ele>171.0</ele><time>2026-04-19T08:55:40.001Z</time></trkpt><trkpt lat="44.90133129864025" lon="8.019966135112844"><ele>171.0</ele><time>2026-04-19T08:55:41.001Z</time></trkpt><trkpt lat="44.901449327776014" lon="8.020076170144364"><ele>171.0</ele><time>2026-04-19T08:55:42.001Z</time></trkpt><trkpt lat="44.901561528991486" lon="8.020190865053303"><ele>170.8</ele><time>2026-04-19T08:55:43.001Z</time></trkpt><trkpt lat="44.901662189711125" lon="8.020329191019982"><ele>170.60000000000002</ele><time>2026-04-19T08:55:44.001Z</time></trkpt><trkpt lat="44.901736671772824" lon="8.020440086555627"><ele>170.4</ele><time>2026-04-19T08:55:45.001Z</time></trkpt><trkpt lat="44.9017944813276" lon="8.020494753422973"><ele>170.2</ele><time>2026-04-19T08:55:46.001Z</time></trkpt><trkpt lat="44.90190194068804" lon="8.02039146189049"><ele>170.0</ele><time>2026-04-19T08:55:48.001Z</time></trkpt><trkpt lat="44.90196122757238" lon="8.020308452891312"><ele>170.8</ele><time>2026-04-19T08:55:49.001Z</time></trkpt><trkpt lat="44.90203061969267" lon="8.020234511002243"><ele>171.6</ele><time>2026-04-19T08:55:50.001Z</time></trkpt><trkpt lat="44.902103126221526" lon="8.020165715205804"><ele>172.39999999999998</ele><time>2026-04-19T08:55:51.001Z</time></trkpt><trkpt lat="44.90217979696712" lon="8.020101729731945"><ele>173.2</ele><time>2026-04-19T08:55:52.001Z</time></trkpt><trkpt lat="44.90225909963061" lon="8.020018919306212"><ele>174.0</ele><time>2026-04-19T08:55:53.001Z</time></trkpt><trkpt lat="44.902351897619326" lon="8.01993372405784"><ele>174.39999999999998</ele><time>2026-04-19T08:55:54.001Z</time></trkpt><trkpt lat="44.90245205588314" lon="8.01983041162057"><ele>174.8</ele><time>2026-04-19T08:55:55.001Z</time></trkpt><trkpt lat="44.90254640667885" lon="8.019773559341946"><ele>175.2</ele><time>2026-04-19T08:55:56.001Z</time></trkpt><trkpt lat="44.90261238716269" lon="8.019700339620703"><ele>175.60000000000002</ele><time>2026-04-19T08:55:57.001Z</time></trkpt><trkpt lat="44.90268504949897" lon="8.019679031576711"><ele>176.0</ele><time>2026-04-19T08:55:58.001Z</time></trkpt><trkpt lat="44.90274395880066" lon="8.019722574537235"><ele>176.20000000000002</ele><time>2026-04-19T08:55:59.001Z</time></trkpt><trkpt lat="44.902801222320676" lon="8.019816080815932"><ele>176.4</ele><time>2026-04-19T08:56:00.001Z</time></trkpt><trkpt lat="44.90286416482129" lon="8.019934285140682"><ele>176.6</ele><time>2026-04-19T08:56:01.001Z</time></trkpt><trkpt lat="44.902934306792794" lon="8.020056399700216"><ele>176.8</ele><time>2026-04-19T08:56:02.001Z</time></trkpt><trkpt lat="44.90302387652694" lon="8.020199909885594"><ele>177.0</ele><time>2026-04-19T08:56:03.001Z</time></trkpt><trkpt lat="44.903114451104365" lon="8.020335935594469"><ele>177.0</ele><time>2026-04-19T08:56:04.001Z</time></trkpt><trkpt lat="44.90320529263966" lon="8.020465883162322"><ele>177.0</ele><time>2026-04-19T08:56:05.001Z</time></trkpt><trkpt lat="44.90330430726753" lon="8.020595778405733"><ele>177.0</ele><time>2026-04-19T08:56:06.001Z</time></trkpt><trkpt lat="44.903411236823565" lon="8.020740643326901"><ele>177.0</ele><time>2026-04-19T08:56:07.001Z</time></trkpt><trkpt lat="44.903528933555144" lon="8.020853324530655"><ele>175.75</ele><time>2026-04-19T08:56:08.001Z</time></trkpt><trkpt lat="44.90364631145136" lon="8.020975743692356"><ele>174.5</ele><time>2026-04-19T08:56:09.001Z</time></trkpt><trkpt lat="44.90376279074812" lon="8.021077218999197"><ele>173.25</ele><time>2026-04-19T08:56:10.001Z</time></trkpt><trkpt lat="44.90387454737803" lon="8.021216435671052"><ele>172.0</ele><time>2026-04-19T08:56:11.001Z</time></trkpt><trkpt lat="44.90398350151902" lon="8.021351080321628"><ele>172.0</ele><time>2026-04-19T08:56:12.001Z</time></trkpt><trkpt lat="44.90407042663441" lon="8.021452628179894"><ele>172.0</ele><time>2026-04-19T08:56:13.001Z</time></trkpt><trkpt lat="44.90415639783865" lon="8.021567595335618"><ele>172.0</ele><time>2026-04-19T08:56:14.001Z</time></trkpt><trkpt lat="44.904244236836526" lon="8.021660533812947"><ele>172.0</ele><time>2026-04-19T08:56:15.001Z</time></trkpt><trkpt lat="44.904331802018575" lon="8.021764766793769"><ele>171.25</ele><time>2026-04-19T08:56:16.001Z</time></trkpt><trkpt lat="44.90442380288083" lon="8.021864940390625"><ele>170.5</ele><time>2026-04-19T08:56:17.001Z</time></trkpt><trkpt lat="44.904526798489975" lon="8.021978970015647"><ele>169.75</ele><time>2026-04-19T08:56:18.001Z</time></trkpt><trkpt lat="44.904620623197744" lon="8.022103952686784"><ele>169.0</ele><time>2026-04-19T08:56:19.001Z</time></trkpt><trkpt lat="44.90472808408895" lon="8.02222745035621"><ele>169.0</ele><time>2026-04-19T08:56:20.001Z</time></trkpt><trkpt lat="44.90483680974608" lon="8.02235107216508"><ele>169.0</ele><time>2026-04-19T08:56:21.001Z</time></trkpt><trkpt lat="44.90493986013503" lon="8.022480941681273"><ele>169.0</ele><time>2026-04-19T08:56:22.001Z</time></trkpt><trkpt lat="44.905040089798625" lon="8.022619484361739"><ele>169.0</ele><time>2026-04-19T08:56:23.001Z</time></trkpt><trkpt lat="44.90513769999515" lon="8.022738094276134"><ele>171.75</ele><time>2026-04-19T08:56:24.001Z</time></trkpt><trkpt lat="44.90522533180004" lon="8.022878069159603"><ele>174.5</ele><time>2026-04-19T08:56:25.001Z</time></trkpt><trkpt lat="44.905312636748995" lon="8.023012026587892"><ele>177.25</ele><time>2026-04-19T08:56:26.001Z</time></trkpt><trkpt lat="44.90538120798905" lon="8.023132187527427"><ele>180.0</ele><time>2026-04-19T08:56:27.001Z</time></trkpt><trkpt lat="44.90545259354351" lon="8.02324241684347"><ele>180.0</ele><time>2026-04-19T08:56:28.001Z</time></trkpt><trkpt lat="44.90550739990518" lon="8.02333655204998"><ele>180.0</ele><time>2026-04-19T08:56:29.001Z</time></trkpt><trkpt lat="44.9055389277541" lon="8.023415137943756"><ele>180.0</ele><time>2026-04-19T08:56:30.001Z</time></trkpt><trkpt lat="44.905712008783084" lon="8.023253658918783"><ele>180.0</ele><time>2026-04-19T08:56:33.001Z</time></trkpt><trkpt lat="44.90575483360936" lon="8.023127716054077"><ele>180.0</ele><time>2026-04-19T08:56:34.001Z</time></trkpt><trkpt lat="44.90580702532947" lon="8.022985109208259"><ele>180.0</ele><time>2026-04-19T08:56:35.001Z</time></trkpt><trkpt lat="44.905835972616245" lon="8.022826342965983"><ele>180.0</ele><time>2026-04-19T08:56:36.001Z</time></trkpt><trkpt lat="44.90583824812804" lon="8.022658000400064"><ele>180.0</ele><time>2026-04-19T08:56:37.001Z</time></trkpt><trkpt lat="44.90583321880262" lon="8.022493692472654"><ele>179.5</ele><time>2026-04-19T08:56:38.001Z</time></trkpt><trkpt lat="44.90582540581612" lon="8.022357575127895"><ele>179.0</ele><time>2026-04-19T08:56:39.001Z</time></trkpt><trkpt lat="44.90581642489757" lon="8.02220207478556"><ele>178.5</ele><time>2026-04-19T08:56:40.001Z</time></trkpt><trkpt lat="44.90579024787998" lon="8.022017733631658"><ele>178.0</ele><time>2026-04-19T08:56:41.001Z</time></trkpt><trkpt lat="44.90576144731872" lon="8.02181035156147"><ele>178.5</ele><time>2026-04-19T08:56:42.001Z</time></trkpt><trkpt lat="44.90573801459676" lon="8.021606656557577"><ele>179.0</ele><time>2026-04-19T08:56:43.001Z</time></trkpt><trkpt lat="44.90574011010183" lon="8.021424499064572"><ele>179.5</ele><time>2026-04-19T08:56:44.001Z</time></trkpt><trkpt lat="44.9057382467332" lon="8.021267633859239"><ele>180.0</ele><time>2026-04-19T08:56:45.001Z</time></trkpt><trkpt lat="44.90573675151018" lon="8.021116102646534"><ele>180.0</ele><time>2026-04-19T08:56:46.001Z</time></trkpt><trkpt lat="44.90573583558015" lon="8.020981025643735"><ele>180.0</ele><time>2026-04-19T08:56:47.002Z</time></trkpt><trkpt lat="44.90573767727723" lon="8.020877155731558"><ele>180.0</ele><time>2026-04-19T08:56:48.002Z</time></trkpt><trkpt lat="44.90574554629452" lon="8.020759841298858"><ele>180.0</ele><time>2026-04-19T08:56:49.002Z</time></trkpt><trkpt lat="44.9057593166494" lon="8.0206055185993"><ele>180.0</ele><time>2026-04-19T08:56:50.002Z</time></trkpt><trkpt lat="44.90578888977767" lon="8.02044014907845"><ele>180.4</ele><time>2026-04-19T08:56:51.002Z</time></trkpt><trkpt lat="44.90581911382119" lon="8.020294097306387"><ele>180.8</ele><time>2026-04-19T08:56:52.002Z</time></trkpt><trkpt lat="44.905851076244" lon="8.020171237311361"><ele>181.2</ele><time>2026-04-19T08:56:53.002Z</time></trkpt><trkpt lat="44.90588794797151" lon="8.020029741028182"><ele>181.6</ele><time>2026-04-19T08:56:54.002Z</time></trkpt><trkpt lat="44.90591994924608" lon="8.019906935270463"><ele>182.0</ele><time>2026-04-19T08:56:55.002Z</time></trkpt><trkpt lat="44.90594952358239" lon="8.019793442965707"><ele>181.33333333333331</ele><time>2026-04-19T08:56:56.002Z</time></trkpt><trkpt lat="44.905698369246714" lon="8.019523138350966"><ele>180.66666666666666</ele><time>2026-04-19T08:56:57.002Z</time></trkpt><trkpt lat="44.905710878184145" lon="8.019374920870366"><ele>180.0</ele><time>2026-04-19T08:56:58.001Z</time></trkpt><trkpt lat="44.905754627114995" lon="8.019181307403354"><ele>179.25</ele><time>2026-04-19T08:56:59.001Z</time></trkpt><trkpt lat="44.90581365750468" lon="8.019026120520097"><ele>178.5</ele><time>2026-04-19T08:57:00.001Z</time></trkpt><trkpt lat="44.905897504224974" lon="8.018884266804346"><ele>177.75</ele><time>2026-04-19T08:57:01.001Z</time></trkpt><trkpt lat="44.905995828795646" lon="8.018753471125509"><ele>177.0</ele><time>2026-04-19T08:57:02.001Z</time></trkpt><trkpt lat="44.90607491688217" lon="8.018606788786082"><ele>179.0</ele><time>2026-04-19T08:57:03.001Z</time></trkpt><trkpt lat="44.906154922856715" lon="8.018473378863007"><ele>181.0</ele><time>2026-04-19T08:57:04.001Z</time></trkpt><trkpt lat="44.90622576517429" lon="8.018354143103927"><ele>183.0</ele><time>2026-04-19T08:57:05.001Z</time></trkpt><trkpt lat="44.90632170639968" lon="8.018218323710057"><ele>185.0</ele><time>2026-04-19T08:57:06.001Z</time></trkpt><trkpt lat="44.90643424188261" lon="8.018084195956233"><ele>185.0</ele><time>2026-04-19T08:57:07.001Z</time></trkpt><trkpt lat="44.90652204744565" lon="8.017945063579992"><ele>185.0</ele><time>2026-04-19T08:57:08.001Z</time></trkpt><trkpt lat="44.90662037986522" lon="8.017791797689977"><ele>185.0</ele><time>2026-04-19T08:57:09.001Z</time></trkpt><trkpt lat="44.90672958630149" lon="8.017619437843807"><ele>185.0</ele><time>2026-04-19T08:57:10.001Z</time></trkpt><trkpt lat="44.90683254369973" lon="8.017484632857412"><ele>187.0</ele><time>2026-04-19T08:57:11.001Z</time></trkpt><trkpt lat="44.90691712636599" lon="8.017353136781951"><ele>189.0</ele><time>2026-04-19T08:57:12.001Z</time></trkpt><trkpt lat="44.90700875494715" lon="8.017214012970896"><ele>191.0</ele><time>2026-04-19T08:57:13.001Z</time></trkpt><trkpt lat="44.907093315746216" lon="8.017048573909399"><ele>193.0</ele><time>2026-04-19T08:57:14.001Z</time></trkpt><trkpt lat="44.907190758259425" lon="8.016909122508876"><ele>193.0</ele><time>2026-04-19T08:57:15.001Z</time></trkpt><trkpt lat="44.90727173152578" lon="8.016760722522786"><ele>193.0</ele><time>2026-04-19T08:57:16.001Z</time></trkpt><trkpt lat="44.907336372766146" lon="8.016607348867398"><ele>193.0</ele><time>2026-04-19T08:57:17.001Z</time></trkpt><trkpt lat="44.9074170064273" lon="8.016482423049318"><ele>193.0</ele><time>2026-04-19T08:57:18.001Z</time></trkpt><trkpt lat="44.90749761234013" lon="8.016345729454477"><ele>192.5</ele><time>2026-04-19T08:57:19.001Z</time></trkpt><trkpt lat="44.90757880864481" lon="8.016224753979133"><ele>192.0</ele><time>2026-04-19T08:57:20.001Z</time></trkpt><trkpt lat="44.90762654043092" lon="8.016062276717317"><ele>191.5</ele><time>2026-04-19T08:57:21.001Z</time></trkpt><trkpt lat="44.907716464044576" lon="8.015904987157965"><ele>191.0</ele><time>2026-04-19T08:57:22.001Z</time></trkpt><trkpt lat="44.907791220106205" lon="8.015737022976044"><ele>191.0</ele><time>2026-04-19T08:57:23.001Z</time></trkpt><trkpt lat="44.907853423394435" lon="8.015594997455397"><ele>191.0</ele><time>2026-04-19T08:57:24.001Z</time></trkpt><trkpt lat="44.90790999119239" lon="8.015440784848513"><ele>191.0</ele><time>2026-04-19T08:57:25.001Z</time></trkpt><trkpt lat="44.90797636962871" lon="8.015287427446452"><ele>191.0</ele><time>2026-04-19T08:57:26.001Z</time></trkpt><trkpt lat="44.908044163374896" lon="8.01514032432841"><ele>190.0</ele><time>2026-04-19T08:57:27.001Z</time></trkpt><trkpt lat="44.908115796619505" lon="8.014946057387956"><ele>189.0</ele><time>2026-04-19T08:57:28.001Z</time></trkpt><trkpt lat="44.90817314126393" lon="8.014764672223594"><ele>188.0</ele><time>2026-04-19T08:57:29.001Z</time></trkpt><trkpt lat="44.90822530801914" lon="8.014580598365939"><ele>187.0</ele><time>2026-04-19T08:57:30.001Z</time></trkpt><trkpt lat="44.9082743366029" lon="8.014407590714821"><ele>187.0</ele><time>2026-04-19T08:57:31.001Z</time></trkpt><trkpt lat="44.90830894749657" lon="8.014295344735858"><ele>187.0</ele><time>2026-04-19T08:57:32.001Z</time></trkpt><trkpt lat="44.90837842839445" lon="8.014169630804455"><ele>187.0</ele><time>2026-04-19T08:57:33.001Z</time></trkpt><trkpt lat="44.90845673741483" lon="8.014063639909295"><ele>187.0</ele><time>2026-04-19T08:57:34.001Z</time></trkpt><trkpt lat="44.90854628233211" lon="8.013987923813026"><ele>187.0</ele><time>2026-04-19T08:57:35.001Z</time></trkpt><trkpt lat="44.90860155531359" lon="8.01385232678828"><ele>189.0</ele><time>2026-04-19T08:57:36.001Z</time></trkpt><trkpt lat="44.90863597388949" lon="8.01369841770204"><ele>191.0</ele><time>2026-04-19T08:57:37.001Z</time></trkpt><trkpt lat="44.90865100062913" lon="8.01353346509979"><ele>193.0</ele><time>2026-04-19T08:57:38.001Z</time></trkpt><trkpt lat="44.90867790688507" lon="8.013368751926713"><ele>195.0</ele><time>2026-04-19T08:57:39.001Z</time></trkpt><trkpt lat="44.90869803096509" lon="8.013192783951032"><ele>195.0</ele><time>2026-04-19T08:57:40.001Z</time></trkpt><trkpt lat="44.908697975522756" lon="8.012986092086457"><ele>195.0</ele><time>2026-04-19T08:57:41.001Z</time></trkpt><trkpt lat="44.90869831403217" lon="8.012828088041708"><ele>195.0</ele><time>2026-04-19T08:57:42.001Z</time></trkpt><trkpt lat="44.9087001338799" lon="8.012668078551117"><ele>195.0</ele><time>2026-04-19T08:57:43.001Z</time></trkpt><trkpt lat="44.90871449032353" lon="8.01252893926303"><ele>196.4</ele><time>2026-04-19T08:57:44.001Z</time></trkpt><trkpt lat="44.90875500337477" lon="8.01237606852729"><ele>197.8</ele><time>2026-04-19T08:57:45.001Z</time></trkpt><trkpt lat="44.908762409731686" lon="8.012275296007717"><ele>199.2</ele><time>2026-04-19T08:57:46.001Z</time></trkpt><trkpt lat="44.90873485211622" lon="8.01214985632029"><ele>200.6</ele><time>2026-04-19T08:57:47.001Z</time></trkpt><trkpt lat="44.90869261000385" lon="8.012004171061353"><ele>202.0</ele><time>2026-04-19T08:57:48.001Z</time></trkpt><trkpt lat="44.9086490062558" lon="8.011859642731322"><ele>202.0</ele><time>2026-04-19T08:57:49.001Z</time></trkpt><trkpt lat="44.90856457448481" lon="8.011713712975475"><ele>202.0</ele><time>2026-04-19T08:57:50.001Z</time></trkpt><trkpt lat="44.90846026832967" lon="8.011563899470287"><ele>202.0</ele><time>2026-04-19T08:57:51.001Z</time></trkpt><trkpt lat="44.90835276280342" lon="8.011395495033769"><ele>202.0</ele><time>2026-04-19T08:57:52.001Z</time></trkpt><trkpt lat="44.90826079778696" lon="8.011211866709399"><ele>202.0</ele><time>2026-04-19T08:57:53.001Z</time></trkpt><trkpt lat="44.90815508060231" lon="8.011052616760907"><ele>202.0</ele><time>2026-04-19T08:57:54.001Z</time></trkpt><trkpt lat="44.90806198695628" lon="8.010901660095888"><ele>202.0</ele><time>2026-04-19T08:57:55.001Z</time></trkpt><trkpt lat="44.90797604070287" lon="8.01076041214488"><ele>202.0</ele><time>2026-04-19T08:57:56.001Z</time></trkpt><trkpt lat="44.90788647933009" lon="8.010630890412555"><ele>204.2</ele><time>2026-04-19T08:57:57.001Z</time></trkpt><trkpt lat="44.90782783533035" lon="8.010499683108597"><ele>206.39999999999998</ele><time>2026-04-19T08:57:58.001Z</time></trkpt><trkpt lat="44.90780193613929" lon="8.010358038795589"><ele>208.60000000000002</ele><time>2026-04-19T08:57:59.001Z</time></trkpt><trkpt lat="44.9077589177272" lon="8.01021515317166"><ele>210.8</ele><time>2026-04-19T08:58:00.001Z</time></trkpt><trkpt lat="44.90773672599836" lon="8.010053130933947"><ele>213.0</ele><time>2026-04-19T08:58:01.001Z</time></trkpt><trkpt lat="44.90769007979903" lon="8.009882127050684"><ele>215.0</ele><time>2026-04-19T08:58:02.001Z</time></trkpt><trkpt lat="44.90764317767736" lon="8.009699972137733"><ele>217.0</ele><time>2026-04-19T08:58:03.001Z</time></trkpt><trkpt lat="44.90760050316601" lon="8.009561452614415"><ele>219.0</ele><time>2026-04-19T08:58:04.001Z</time></trkpt><trkpt lat="44.90753530454058" lon="8.009407006533708"><ele>221.0</ele><time>2026-04-19T08:58:05.001Z</time></trkpt><trkpt lat="44.907480343268894" lon="8.009246077208084"><ele>217.4</ele><time>2026-04-19T08:58:06.001Z</time></trkpt><trkpt lat="44.90743313209534" lon="8.009089289255547"><ele>213.8</ele><time>2026-04-19T08:58:07.001Z</time></trkpt><trkpt lat="44.90739303149659" lon="8.00897005119795"><ele>210.20000000000002</ele><time>2026-04-19T08:58:08.001Z</time></trkpt><trkpt lat="44.90736154328168" lon="8.008854440341757"><ele>206.60000000000002</ele><time>2026-04-19T08:58:09.001Z</time></trkpt><trkpt lat="44.90733098432473" lon="8.008761704190256"><ele>203.0</ele><time>2026-04-19T08:58:10.001Z</time></trkpt><trkpt lat="44.9073249631323" lon="8.008604693303672"><ele>203.0</ele><time>2026-04-19T08:58:11.001Z</time></trkpt><trkpt lat="44.907302291190945" lon="8.00843312847981"><ele>203.0</ele><time>2026-04-19T08:58:12.001Z</time></trkpt><trkpt lat="44.907283333011854" lon="8.008255502279736"><ele>203.0</ele><time>2026-04-19T08:58:13.001Z</time></trkpt><trkpt lat="44.907281318999495" lon="8.008034012536243"><ele>203.0</ele><time>2026-04-19T08:58:14.001Z</time></trkpt><trkpt lat="44.90729325121915" lon="8.007897300493806"><ele>203.00000000000003</ele><time>2026-04-19T08:58:15.001Z</time></trkpt><trkpt lat="44.90728018395721" lon="8.00779595858568"><ele>203.0</ele><time>2026-04-19T08:58:16.001Z</time></trkpt><trkpt lat="44.90729711655113" lon="8.007645374831629"><ele>203.0</ele><time>2026-04-19T08:58:18.001Z</time></trkpt><trkpt lat="44.90732443868427" lon="8.00755723147432"><ele>203.0</ele><time>2026-04-19T08:58:19.001Z</time></trkpt><trkpt lat="44.907341485276035" lon="8.007455864793945"><ele>203.00000000000003</ele><time>2026-04-19T08:58:20.001Z</time></trkpt><trkpt lat="44.90735749779678" lon="8.007311149212944"><ele>203.0</ele><time>2026-04-19T08:58:21.001Z</time></trkpt><trkpt lat="44.907401271849956" lon="8.007157928855504"><ele>203.0</ele><time>2026-04-19T08:58:22.001Z</time></trkpt><trkpt lat="44.90745907080588" lon="8.007017099377801"><ele>203.0</ele><time>2026-04-19T08:58:23.001Z</time></trkpt><trkpt lat="44.90751080875714" lon="8.00686433703917"><ele>203.0</ele><time>2026-04-19T08:58:24.001Z</time></trkpt><trkpt lat="44.90756754550466" lon="8.0067230421077"><ele>203.0</ele><time>2026-04-19T08:58:25.001Z</time></trkpt><trkpt lat="44.90764514382503" lon="8.006610615300946"><ele>203.25</ele><time>2026-04-19T08:58:26.001Z</time></trkpt><trkpt lat="44.90773108872671" lon="8.006454901669157"><ele>203.5</ele><time>2026-04-19T08:58:27.001Z</time></trkpt><trkpt lat="44.907810558629436" lon="8.006279856330458"><ele>203.75</ele><time>2026-04-19T08:58:28.001Z</time></trkpt><trkpt lat="44.90789685443499" lon="8.006128256302759"><ele>204.0</ele><time>2026-04-19T08:58:29.001Z</time></trkpt><trkpt lat="44.90796893548692" lon="8.005978753286719"><ele>204.0</ele><time>2026-04-19T08:58:30.001Z</time></trkpt><trkpt lat="44.90803805716995" lon="8.005902711350968"><ele>204.0</ele><time>2026-04-19T08:58:31.001Z</time></trkpt><trkpt lat="44.9080840357922" lon="8.00578599577406"><ele>204.0</ele><time>2026-04-19T08:58:32.001Z</time></trkpt><trkpt lat="44.90816009107511" lon="8.005656563004523"><ele>204.0</ele><time>2026-04-19T08:58:33.001Z</time></trkpt><trkpt lat="44.90824154856649" lon="8.005528591197457"><ele>204.0</ele><time>2026-04-19T08:58:34.001Z</time></trkpt><trkpt lat="44.90833163609353" lon="8.005399570844528"><ele>203.5</ele><time>2026-04-19T08:58:35.001Z</time></trkpt><trkpt lat="44.90841277987086" lon="8.005279270090853"><ele>203.0</ele><time>2026-04-19T08:58:36.001Z</time></trkpt><trkpt lat="44.9084929613114" lon="8.00513204615769"><ele>202.5</ele><time>2026-04-19T08:58:37.001Z</time></trkpt><trkpt lat="44.908572177830116" lon="8.005001517303588"><ele>202.0</ele><time>2026-04-19T08:58:38.001Z</time></trkpt><trkpt lat="44.90864172670778" lon="8.004885745985096"><ele>202.0</ele><time>2026-04-19T08:58:39.001Z</time></trkpt><trkpt lat="44.90871617790236" lon="8.00474005209807"><ele>202.0</ele><time>2026-04-19T08:58:40.001Z</time></trkpt><trkpt lat="44.90878500045367" lon="8.004600516757508"><ele>202.0</ele><time>2026-04-19T08:58:41.001Z</time></trkpt><trkpt lat="44.90884629157928" lon="8.004521467794042"><ele>202.0</ele><time>2026-04-19T08:58:42.001Z</time></trkpt><trkpt lat="44.908890626939964" lon="8.004383487331276"><ele>202.0</ele><time>2026-04-19T08:58:43.001Z</time></trkpt><trkpt lat="44.9089768828988" lon="8.004270828100411"><ele>202.0</ele><time>2026-04-19T08:58:44.001Z</time></trkpt><trkpt lat="44.90906620744734" lon="8.004164254596898"><ele>202.0</ele><time>2026-04-19T08:58:45.001Z</time></trkpt><trkpt lat="44.909185430344635" lon="8.00412327468445"><ele>202.0</ele><time>2026-04-19T08:58:46.001Z</time></trkpt><trkpt lat="44.90925232392491" lon="8.00412404340979"><ele>202.0</ele><time>2026-04-19T08:58:47.001Z</time></trkpt><trkpt lat="44.909338740873636" lon="8.0041909786041"><ele>202.0</ele><time>2026-04-19T08:58:48.001Z</time></trkpt><trkpt lat="44.909393509084964" lon="8.004265086622347"><ele>204.8</ele><time>2026-04-19T08:58:49.001Z</time></trkpt><trkpt lat="44.909461633481854" lon="8.00439065573939"><ele>207.6</ele><time>2026-04-19T08:58:50.001Z</time></trkpt><trkpt lat="44.90950995320517" lon="8.004502283927918"><ele>210.40000000000003</ele><time>2026-04-19T08:58:51.001Z</time></trkpt><trkpt lat="44.90957889690805" lon="8.004577223740485"><ele>213.20000000000002</ele><time>2026-04-19T08:58:52.001Z</time></trkpt><trkpt lat="44.90966679306113" lon="8.00464964868226"><ele>216.0</ele><time>2026-04-19T08:58:53.001Z</time></trkpt><trkpt lat="44.90975476979464" lon="8.004729237450173"><ele>216.0</ele><time>2026-04-19T08:58:54.001Z</time></trkpt><trkpt lat="44.9098395986166" lon="8.004810018011675"><ele>216.00000000000003</ele><time>2026-04-19T08:58:55.001Z</time></trkpt><trkpt lat="44.90990369810385" lon="8.004850438730713"><ele>216.00000000000003</ele><time>2026-04-19T08:58:56.001Z</time></trkpt><trkpt lat="44.9099560879414" lon="8.004909717963729"><ele>216.0</ele><time>2026-04-19T08:58:57.001Z</time></trkpt><trkpt lat="44.910068242620184" lon="8.005014930371479"><ele>216.0</ele><time>2026-04-19T08:58:59.001Z</time></trkpt><trkpt lat="44.9101974091603" lon="8.005045580890481"><ele>220.4</ele><time>2026-04-19T08:59:01.001Z</time></trkpt><trkpt lat="44.910295151487524" lon="8.005122827135867"><ele>224.8</ele><time>2026-04-19T08:59:02.001Z</time></trkpt><trkpt lat="44.91035063051055" lon="8.005189512364378"><ele>229.20000000000002</ele><time>2026-04-19T08:59:03.001Z</time></trkpt><trkpt lat="44.910415182021424" lon="8.005271380300968"><ele>233.60000000000002</ele><time>2026-04-19T08:59:04.001Z</time></trkpt><trkpt lat="44.910473243029635" lon="8.00536923715428"><ele>238.0</ele><time>2026-04-19T08:59:05.001Z</time></trkpt><trkpt lat="44.910514208333154" lon="8.005495027324988"><ele>238.0</ele><time>2026-04-19T08:59:06.001Z</time></trkpt><trkpt lat="44.91055468462282" lon="8.00558126701107"><ele>238.0</ele><time>2026-04-19T08:59:07.001Z</time></trkpt><trkpt lat="44.91066276177231" lon="8.005501825430827"><ele>238.0</ele><time>2026-04-19T08:59:09.001Z</time></trkpt><trkpt lat="44.91073522022999" lon="8.005417707564595"><ele>238.0</ele><time>2026-04-19T08:59:10.001Z</time></trkpt><trkpt lat="44.91080461348714" lon="8.005318791264882"><ele>238.0</ele><time>2026-04-19T08:59:11.001Z</time></trkpt><trkpt lat="44.91087227524692" lon="8.005244177338408"><ele>238.49999999999997</ele><time>2026-04-19T08:59:12.001Z</time></trkpt><trkpt lat="44.910931752710404" lon="8.0051356609022"><ele>239.0</ele><time>2026-04-19T08:59:13.001Z</time></trkpt><trkpt lat="44.911003555835386" lon="8.005045187329133"><ele>239.5</ele><time>2026-04-19T08:59:14Z</time></trkpt><trkpt lat="44.91108031344626" lon="8.004968107658062"><ele>240.0</ele><time>2026-04-19T08:59:15Z</time></trkpt><trkpt lat="44.9111329607439" lon="8.004900482371582"><ele>240.49999999999997</ele><time>2026-04-19T08:59:16Z</time></trkpt><trkpt lat="44.91116632568383" lon="8.004824961729692"><ele>241.0</ele><time>2026-04-19T08:59:17Z</time></trkpt><trkpt lat="44.91122379296156" lon="8.004693977612055"><ele>241.0</ele><time>2026-04-19T08:59:19Z</time></trkpt><trkpt lat="44.91139788522237" lon="8.004859169947819"><ele>241.0</ele><time>2026-04-19T08:59:21Z</time></trkpt><trkpt lat="44.91144009243136" lon="8.004997742858768"><ele>241.0</ele><time>2026-04-19T08:59:22Z</time></trkpt><trkpt lat="44.91151337588072" lon="8.005166417938657"><ele>241.0</ele><time>2026-04-19T08:59:24Z</time></trkpt><trkpt lat="44.911596270893284" lon="8.005278444534623"><ele>241.00000000000003</ele><time>2026-04-19T08:59:25Z</time></trkpt><trkpt lat="44.911645648845216" lon="8.005380697708501"><ele>241.00000000000003</ele><time>2026-04-19T08:59:26Z</time></trkpt><trkpt lat="44.91168030420261" lon="8.005494049569691"><ele>241.0</ele><time>2026-04-19T08:59:27Z</time></trkpt><trkpt lat="44.911718321361796" lon="8.005599227242246"><ele>241.0</ele><time>2026-04-19T08:59:28Z</time></trkpt><trkpt lat="44.91176947075853" lon="8.0057023698468"><ele>242.20000000000002</ele><time>2026-04-19T08:59:29Z</time></trkpt><trkpt lat="44.91181126081985" lon="8.005783381514815"><ele>243.40000000000003</ele><time>2026-04-19T08:59:30Z</time></trkpt><trkpt lat="44.9118776471663" lon="8.005876014626445"><ele>244.6</ele><time>2026-04-19T08:59:31Z</time></trkpt><trkpt lat="44.91194569429558" lon="8.0060029928924"><ele>245.8</ele><time>2026-04-19T08:59:32Z</time></trkpt><trkpt lat="44.91200850183919" lon="8.006134721765957"><ele>247.0</ele><time>2026-04-19T08:59:33Z</time></trkpt><trkpt lat="44.91208762831378" lon="8.006199341294383"><ele>247.0</ele><time>2026-04-19T08:59:34Z</time></trkpt><trkpt lat="44.912192607159064" lon="8.006229877682037"><ele>247.0</ele><time>2026-04-19T08:59:35Z</time></trkpt><trkpt lat="44.91230267759432" lon="8.00623521805466"><ele>247.0</ele><time>2026-04-19T08:59:36Z</time></trkpt><trkpt lat="44.91240630412008" lon="8.006253382308278"><ele>247.0</ele><time>2026-04-19T08:59:37Z</time></trkpt><trkpt lat="44.91247781896854" lon="8.006249440200623"><ele>247.0</ele><time>2026-04-19T08:59:38Z</time></trkpt><trkpt lat="44.91257353303876" lon="8.006141985994475"><ele>247.0</ele><time>2026-04-19T08:59:40Z</time></trkpt><trkpt lat="44.91261815020131" lon="8.006041667661842"><ele>247.0</ele><time>2026-04-19T08:59:41Z</time></trkpt><trkpt lat="44.91268752725873" lon="8.005938024487198"><ele>247.0</ele><time>2026-04-19T08:59:42Z</time></trkpt><trkpt lat="44.91276878666546" lon="8.005829501772322"><ele>247.0</ele><time>2026-04-19T08:59:43Z</time></trkpt><trkpt lat="44.91285327829596" lon="8.005714385719722"><ele>247.0</ele><time>2026-04-19T08:59:44Z</time></trkpt><trkpt lat="44.912922787502964" lon="8.00560503418019"><ele>246.6</ele><time>2026-04-19T08:59:45.001Z</time></trkpt><trkpt lat="44.91298605811545" lon="8.005520563550999"><ele>246.2</ele><time>2026-04-19T08:59:46.001Z</time></trkpt><trkpt lat="44.91305239416364" lon="8.005412721471235"><ele>245.8</ele><time>2026-04-19T08:59:48.001Z</time></trkpt><trkpt lat="44.91304474880505" lon="8.00524304211803"><ele>245.4</ele><time>2026-04-19T08:59:50.001Z</time></trkpt><trkpt lat="44.91310228680244" lon="8.00519486048634"><ele>245.0</ele><time>2026-04-19T08:59:58.001Z</time></trkpt><trkpt lat="44.91317631245312" lon="8.005265244831012"><ele>245.0</ele><time>2026-04-19T09:00:00.001Z</time></trkpt><trkpt lat="44.91331199284733" lon="8.005319562244173"><ele>245.0</ele><time>2026-04-19T09:00:02.001Z</time></trkpt><trkpt lat="44.91340615955874" lon="8.005302937247766"><ele>245.0</ele><time>2026-04-19T09:00:03.001Z</time></trkpt><trkpt lat="44.91353055963633" lon="8.005260790706604"><ele>245.0</ele><time>2026-04-19T09:00:04.001Z</time></trkpt><trkpt lat="44.91364221431405" lon="8.005275871924745"><ele>245.25</ele><time>2026-04-19T09:00:05.001Z</time></trkpt><trkpt lat="44.91374911481508" lon="8.005325436257099"><ele>245.5</ele><time>2026-04-19T09:00:06.001Z</time></trkpt><trkpt lat="44.91386598419271" lon="8.00539605906146"><ele>245.75</ele><time>2026-04-19T09:00:07.001Z</time></trkpt><trkpt lat="44.91397591684841" lon="8.00545329388526"><ele>246.0</ele><time>2026-04-19T09:00:08.001Z</time></trkpt><trkpt lat="44.914085780399645" lon="8.00547327979616"><ele>246.0</ele><time>2026-04-19T09:00:09.001Z</time></trkpt><trkpt lat="44.914216560983064" lon="8.005464603076694"><ele>246.0</ele><time>2026-04-19T09:00:10.001Z</time></trkpt><trkpt lat="44.91433565896969" lon="8.00547547360329"><ele>246.0</ele><time>2026-04-19T09:00:11.001Z</time></trkpt><trkpt lat="44.91444749613456" lon="8.005489917754907"><ele>246.0</ele><time>2026-04-19T09:00:12.001Z</time></trkpt><trkpt lat="44.914549712627206" lon="8.005513148104658"><ele>245.20000000000002</ele><time>2026-04-19T09:00:13.001Z</time></trkpt><trkpt lat="44.91466627008296" lon="8.00553369816193"><ele>244.40000000000003</ele><time>2026-04-19T09:00:14.001Z</time></trkpt><trkpt lat="44.914772617198885" lon="8.005563843868215"><ele>243.6</ele><time>2026-04-19T09:00:15.001Z</time></trkpt><trkpt lat="44.91486641140885" lon="8.005574987462735"><ele>242.8</ele><time>2026-04-19T09:00:16.001Z</time></trkpt><trkpt lat="44.91496686224522" lon="8.005600270775542"><ele>242.0</ele><time>2026-04-19T09:00:17.001Z</time></trkpt><trkpt lat="44.915043804154145" lon="8.005607705602994"><ele>239.0</ele><time>2026-04-19T09:00:18.001Z</time></trkpt><trkpt lat="44.91511334086306" lon="8.00559370634387"><ele>236.0</ele><time>2026-04-19T09:00:19.001Z</time></trkpt><trkpt lat="44.91522959941287" lon="8.00559723236286"><ele>233.0</ele><time>2026-04-19T09:00:20.001Z</time></trkpt><trkpt lat="44.91530699405763" lon="8.00561147903654"><ele>230.0</ele><time>2026-04-19T09:00:21.001Z</time></trkpt><trkpt lat="44.91542508985958" lon="8.005628454295108"><ele>227.0</ele><time>2026-04-19T09:00:22.001Z</time></trkpt><trkpt lat="44.915541816499406" lon="8.00562621291526"><ele>227.0</ele><time>2026-04-19T09:00:23.001Z</time></trkpt><trkpt lat="44.91568329488531" lon="8.005678052423136"><ele>227.0</ele><time>2026-04-19T09:00:24.001Z</time></trkpt><trkpt lat="44.91581881492264" lon="8.00573235306448"><ele>227.0</ele><time>2026-04-19T09:00:25.001Z</time></trkpt><trkpt lat="44.915963236100616" lon="8.005730714630388"><ele>227.0</ele><time>2026-04-19T09:00:26.001Z</time></trkpt><trkpt lat="44.91609721548444" lon="8.005771012659924"><ele>225.25</ele><time>2026-04-19T09:00:27.001Z</time></trkpt><trkpt lat="44.916213887733285" lon="8.005775461651092"><ele>223.5</ele><time>2026-04-19T09:00:28.001Z</time></trkpt><trkpt lat="44.91632783137911" lon="8.00579952501492"><ele>221.75</ele><time>2026-04-19T09:00:29.001Z</time></trkpt><trkpt lat="44.916447310764916" lon="8.00583970833841"><ele>220.0</ele><time>2026-04-19T09:00:30.001Z</time></trkpt><trkpt lat="44.91655159997727" lon="8.00587845986177"><ele>220.0</ele><time>2026-04-19T09:00:31.001Z</time></trkpt><trkpt lat="44.91665420718776" lon="8.005969737851297"><ele>220.0</ele><time>2026-04-19T09:00:32.001Z</time></trkpt><trkpt lat="44.91673720250746" lon="8.006037951738561"><ele>220.0</ele><time>2026-04-19T09:00:33.001Z</time></trkpt><trkpt lat="44.91680903812648" lon="8.00611425936687"><ele>220.0</ele><time>2026-04-19T09:00:34.001Z</time></trkpt><trkpt lat="44.91688124124016" lon="8.006176988257915"><ele>220.0</ele><time>2026-04-19T09:00:35.001Z</time></trkpt><trkpt lat="44.9169594675454" lon="8.006163320302758"><ele>219.25</ele><time>2026-04-19T09:00:36.001Z</time></trkpt><trkpt lat="44.91703589031725" lon="8.006016133798388"><ele>218.5</ele><time>2026-04-19T09:00:37.001Z</time></trkpt><trkpt lat="44.917106835159665" lon="8.005871587326446"><ele>217.75</ele><time>2026-04-19T09:00:38.001Z</time></trkpt><trkpt lat="44.91717598678236" lon="8.005806595842605"><ele>217.0</ele><time>2026-04-19T09:00:39.001Z</time></trkpt><trkpt lat="44.917288221214974" lon="8.005821845976625"><ele>217.0</ele><time>2026-04-19T09:00:41.001Z</time></trkpt><trkpt lat="44.91731840509262" lon="8.005932767706812"><ele>217.0</ele><time>2026-04-19T09:00:43.001Z</time></trkpt><trkpt lat="44.91737424826484" lon="8.00589109088645"><ele>217.0</ele><time>2026-04-19T09:00:45.001Z</time></trkpt><trkpt lat="44.91742310237982" lon="8.00582241774304"><ele>217.0</ele><time>2026-04-19T09:00:46.001Z</time></trkpt><trkpt lat="44.91748345442229" lon="8.005770330396498"><ele>217.0</ele><time>2026-04-19T09:00:47.001Z</time></trkpt><trkpt lat="44.91754713277786" lon="8.005738691615186"><ele>217.0</ele><time>2026-04-19T09:00:48.001Z</time></trkpt><trkpt lat="44.91761492016855" lon="8.005725640708738"><ele>217.0</ele><time>2026-04-19T09:00:49.001Z</time></trkpt><trkpt lat="44.91768880857172" lon="8.005713275855683"><ele>212.99999999999997</ele><time>2026-04-19T09:00:50.001Z</time></trkpt><trkpt lat="44.91775390635329" lon="8.005700824646222"><ele>209.0</ele><time>2026-04-19T09:00:51.001Z</time></trkpt><trkpt lat="44.917814298229196" lon="8.005582676698392"><ele>205.0</ele><time>2026-04-19T09:00:53.001Z</time></trkpt><trkpt lat="44.91790011879859" lon="8.005499282134597"><ele>201.0</ele><time>2026-04-19T09:00:55.001Z</time></trkpt><trkpt lat="44.91796866437623" lon="8.00543112852204"><ele>196.99999999999997</ele><time>2026-04-19T09:00:57.001Z</time></trkpt><trkpt lat="44.91794304369149" lon="8.005339800875094"><ele>193.0</ele><time>2026-04-19T09:00:59.001Z</time></trkpt><trkpt lat="44.91789335304028" lon="8.005281467811075"><ele>192.99999999999997</ele><time>2026-04-19T09:01:03.001Z</time></trkpt><trkpt lat="44.917972824961616" lon="8.00521673751337"><ele>193.0</ele><time>2026-04-19T09:01:05.001Z</time></trkpt><trkpt lat="44.9180194139789" lon="8.005111403449327"><ele>193.0</ele><time>2026-04-19T09:01:08.001Z</time></trkpt><trkpt lat="44.918093635061865" lon="8.005071412416024"><ele>193.0</ele><time>2026-04-19T09:01:10Z</time></trkpt><trkpt lat="44.91817108332829" lon="8.005017861025081"><ele>192.99999999999997</ele><time>2026-04-19T09:01:13Z</time></trkpt><trkpt lat="44.91819534647053" lon="8.00488719133614"><ele>193.0</ele><time>2026-04-19T09:01:15Z</time></trkpt><trkpt lat="44.918258898736646" lon="8.004808427905495"><ele>191.2</ele><time>2026-04-19T09:01:17Z</time></trkpt><trkpt lat="44.91827850783761" lon="8.00471254595477"><ele>189.4</ele><time>2026-04-19T09:01:19Z</time></trkpt><trkpt lat="44.91834219423554" lon="8.004626095175734"><ele>187.6</ele><time>2026-04-19T09:01:21Z</time></trkpt><trkpt lat="44.91829200923422" lon="8.004528569941735"><ele>185.79999999999998</ele><time>2026-04-19T09:01:23Z</time></trkpt><trkpt lat="44.918250811187804" lon="8.004378732142209"><ele>184.0</ele><time>2026-04-19T09:01:25Z</time></trkpt><trkpt lat="44.918248805134596" lon="8.004207496249636"><ele>182.83333333333334</ele><time>2026-04-19T09:01:27Z</time></trkpt><trkpt lat="44.91827723925804" lon="8.004116546700025"><ele>181.66666666666669</ele><time>2026-04-19T09:01:29Z</time></trkpt><trkpt lat="44.91824569454181" lon="8.004003836219319"><ele>180.5</ele><time>2026-04-19T09:01:32Z</time></trkpt><trkpt lat="44.91821768044472" lon="8.00392024282906"><ele>179.33333333333334</ele><time>2026-04-19T09:01:33Z</time></trkpt><trkpt lat="44.918167502730164" lon="8.003805173497463"><ele>178.16666666666666</ele><time>2026-04-19T09:01:35Z</time></trkpt><trkpt lat="44.91819077845411" lon="8.003698070505129"><ele>177.0</ele><time>2026-04-19T09:01:37Z</time></trkpt><trkpt lat="44.91818789669947" lon="8.003560969942482"><ele>177.0</ele><time>2026-04-19T09:01:39Z</time></trkpt><trkpt lat="44.91822775959249" lon="8.003468130944587"><ele>177.0</ele><time>2026-04-19T09:01:41Z</time></trkpt><trkpt lat="44.9183155801531" lon="8.00339214907559"><ele>177.0</ele><time>2026-04-19T09:01:43Z</time></trkpt><trkpt lat="44.91831694016737" lon="8.003277750533234"><ele>177.0</ele><time>2026-04-19T09:01:46Z</time></trkpt><trkpt lat="44.91823455377176" lon="8.00313217953984"><ele>177.0</ele><time>2026-04-19T09:01:48Z</time></trkpt><trkpt lat="44.918199142359086" lon="8.00304205191428"><ele>176.33333333333334</ele><time>2026-04-19T09:01:49Z</time></trkpt><trkpt lat="44.918151241540215" lon="8.002967434395165"><ele>175.66666666666666</ele><time>2026-04-19T09:01:50Z</time></trkpt><trkpt lat="44.91808287499067" lon="8.00290140167221"><ele>175.0</ele><time>2026-04-19T09:01:52Z</time></trkpt><trkpt lat="44.91796698852539" lon="8.002907958629999"><ele>174.33333333333331</ele><time>2026-04-19T09:01:54.001Z</time></trkpt><trkpt lat="44.91788756974704" lon="8.002908337536011"><ele>173.66666666666666</ele><time>2026-04-19T09:01:55.001Z</time></trkpt><trkpt lat="44.9178126242938" lon="8.00290888500416"><ele>173.0</ele><time>2026-04-19T09:01:56.001Z</time></trkpt><trkpt lat="44.91773541263942" lon="8.002884213783988"><ele>173.0</ele><time>2026-04-19T09:01:57.001Z</time></trkpt><trkpt lat="44.91767069778646" lon="8.002842479773374"><ele>173.0</ele><time>2026-04-19T09:01:58.001Z</time></trkpt><trkpt lat="44.91760424752643" lon="8.002808911458363"><ele>173.0</ele><time>2026-04-19T09:01:59.001Z</time></trkpt><trkpt lat="44.91754870539151" lon="8.002752811434629"><ele>173.0</ele><time>2026-04-19T09:02:00.001Z</time></trkpt><trkpt lat="44.91745056330658" lon="8.002732020359693"><ele>173.0</ele><time>2026-04-19T09:02:02.001Z</time></trkpt><trkpt lat="44.91738476692256" lon="8.002714769289517"><ele>173.0</ele><time>2026-04-19T09:02:03.001Z</time></trkpt><trkpt lat="44.91731924104145" lon="8.002659552728446"><ele>173.5</ele><time>2026-04-19T09:02:04.001Z</time></trkpt><trkpt lat="44.917243478543945" lon="8.002600337964832"><ele>174.0</ele><time>2026-04-19T09:02:05.001Z</time></trkpt><trkpt lat="44.91717216910572" lon="8.002604947597652"><ele>174.5</ele><time>2026-04-19T09:02:06.001Z</time></trkpt><trkpt lat="44.917102523407515" lon="8.002566629117291"><ele>175.0</ele><time>2026-04-19T09:02:08.001Z</time></trkpt><trkpt lat="44.917065506093294" lon="8.002483868073487"><ele>175.5</ele><time>2026-04-19T09:02:15.001Z</time></trkpt><trkpt lat="44.91698110684317" lon="8.002458026763673"><ele>176.0</ele><time>2026-04-19T09:02:18.001Z</time></trkpt><trkpt lat="44.91692187766746" lon="8.002412429135138"><ele>175.60000000000002</ele><time>2026-04-19T09:02:28.001Z</time></trkpt><trkpt lat="44.91687620476187" lon="8.002302949127511"><ele>175.2</ele><time>2026-04-19T09:02:47.001Z</time></trkpt><trkpt lat="44.91674388413385" lon="8.00234576628212"><ele>174.8</ele><time>2026-04-19T09:02:49.001Z</time></trkpt><trkpt lat="44.91665507605488" lon="8.002330018520723"><ele>174.39999999999998</ele><time>2026-04-19T09:02:50.001Z</time></trkpt><trkpt lat="44.91657141625141" lon="8.002295329321544"><ele>174.0</ele><time>2026-04-19T09:02:51.001Z</time></trkpt><trkpt lat="44.916468651210415" lon="8.002228421753493"><ele>174.0</ele><time>2026-04-19T09:02:52.001Z</time></trkpt><trkpt lat="44.91636937773462" lon="8.002156803479119"><ele>174.0</ele><time>2026-04-19T09:02:53.001Z</time></trkpt><trkpt lat="44.91630833486765" lon="8.002037380997889"><ele>174.0</ele><time>2026-04-19T09:02:54.001Z</time></trkpt><trkpt lat="44.91624322655325" lon="8.001925454848696"><ele>174.0</ele><time>2026-04-19T09:02:55.001Z</time></trkpt><trkpt lat="44.91618798621925" lon="8.001813703616593"><ele>174.0</ele><time>2026-04-19T09:02:56.001Z</time></trkpt><trkpt lat="44.916120003199794" lon="8.001683403738012"><ele>173.6</ele><time>2026-04-19T09:02:57.001Z</time></trkpt><trkpt lat="44.91610372659557" lon="8.001546818996994"><ele>173.2</ele><time>2026-04-19T09:02:58.001Z</time></trkpt><trkpt lat="44.91608346316471" lon="8.001402515095355"><ele>172.79999999999998</ele><time>2026-04-19T09:02:59.001Z</time></trkpt><trkpt lat="44.91602556455497" lon="8.001321501744135"><ele>172.39999999999998</ele><time>2026-04-19T09:03:00.001Z</time></trkpt><trkpt lat="44.91597496332993" lon="8.001254686329169"><ele>172.0</ele><time>2026-04-19T09:03:01.001Z</time></trkpt><trkpt lat="44.915877786061984" lon="8.001267646737222"><ele>172.8</ele><time>2026-04-19T09:03:03.001Z</time></trkpt><trkpt lat="44.915760258193515" lon="8.00119855989716"><ele>173.6</ele><time>2026-04-19T09:03:05.001Z</time></trkpt><trkpt lat="44.91569083552412" lon="8.001127281904878"><ele>174.4</ele><time>2026-04-19T09:03:06.001Z</time></trkpt><trkpt lat="44.915611563929495" lon="8.001068007611478"><ele>175.20000000000002</ele><time>2026-04-19T09:03:07.001Z</time></trkpt><trkpt lat="44.91554270865146" lon="8.001008136429384"><ele>176.0</ele><time>2026-04-19T09:03:08.001Z</time></trkpt><trkpt lat="44.915489088482055" lon="8.000953446186001"><ele>176.0</ele><time>2026-04-19T09:03:09.001Z</time></trkpt><trkpt lat="44.915432516000145" lon="8.000868280659452"><ele>176.0</ele><time>2026-04-19T09:03:10.001Z</time></trkpt><trkpt lat="44.91537732784226" lon="8.00076240645495"><ele>176.0</ele><time>2026-04-19T09:03:11.001Z</time></trkpt><trkpt lat="44.91530362439292" lon="8.000664637287851"><ele>176.0</ele><time>2026-04-19T09:03:12.001Z</time></trkpt><trkpt lat="44.91524301961935" lon="8.00055916494506"><ele>176.0</ele><time>2026-04-19T09:03:13.001Z</time></trkpt><trkpt lat="44.91522301485106" lon="8.00046618415881"><ele>176.0</ele><time>2026-04-19T09:03:14.001Z</time></trkpt><trkpt lat="44.91521331443652" lon="8.000376164994506"><ele>175.0</ele><time>2026-04-19T09:03:15.001Z</time></trkpt><trkpt lat="44.91525129480856" lon="8.000270457816338"><ele>174.0</ele><time>2026-04-19T09:03:16Z</time></trkpt><trkpt lat="44.91519888497026" lon="8.00019660237871"><ele>173.0</ele><time>2026-04-19T09:03:17Z</time></trkpt><trkpt lat="44.91511552428128" lon="8.000127331346283"><ele>172.0</ele><time>2026-04-19T09:03:18Z</time></trkpt><trkpt lat="44.915033135467674" lon="8.000050029206278"><ele>171.0</ele><time>2026-04-19T09:03:19Z</time></trkpt><trkpt lat="44.91494579884952" lon="7.999954423841044"><ele>173.0</ele><time>2026-04-19T09:03:20Z</time></trkpt><trkpt lat="44.914870237970895" lon="7.999827158079289"><ele>175.0</ele><time>2026-04-19T09:03:21Z</time></trkpt><trkpt lat="44.91480101579232" lon="7.999685023647605"><ele>177.0</ele><time>2026-04-19T09:03:22Z</time></trkpt><trkpt lat="44.91474868985366" lon="7.999580987730763"><ele>179.0</ele><time>2026-04-19T09:03:23Z</time></trkpt><trkpt lat="44.914798968384474" lon="7.999506992436611"><ele>181.0</ele><time>2026-04-19T09:03:27Z</time></trkpt><trkpt lat="44.914772255396976" lon="7.999357712896836"><ele>181.0</ele><time>2026-04-19T09:03:29Z</time></trkpt><trkpt lat="44.91469477592647" lon="7.999325711132261"><ele>181.0</ele><time>2026-04-19T09:03:32Z</time></trkpt><trkpt lat="44.914673241170625" lon="7.999141882980159"><ele>181.0</ele><time>2026-04-19T09:03:35Z</time></trkpt><trkpt lat="44.91471268144775" lon="7.999002913113914"><ele>181.0</ele><time>2026-04-19T09:03:39Z</time></trkpt><trkpt lat="44.91464449849221" lon="7.9989035740221075"><ele>181.0</ele><time>2026-04-19T09:03:41Z</time></trkpt><trkpt lat="44.91458093714339" lon="7.998763268118997"><ele>181.0</ele><time>2026-04-19T09:03:42Z</time></trkpt><trkpt lat="44.91454035409877" lon="7.998678265030717"><ele>181.0</ele><time>2026-04-19T09:03:43Z</time></trkpt><trkpt lat="44.91446901119002" lon="7.998719712887128"><ele>181.0</ele><time>2026-04-19T09:03:46Z</time></trkpt><trkpt lat="44.914410372691414" lon="7.998679168873368"><ele>181.0</ele><time>2026-04-19T09:03:47Z</time></trkpt><trkpt lat="44.91436926820488" lon="7.998556601912556"><ele>181.0</ele><time>2026-04-19T09:03:50Z</time></trkpt><trkpt lat="44.91429921315085" lon="7.998511034599015"><ele>181.0</ele><time>2026-04-19T09:03:52Z</time></trkpt><trkpt lat="44.9141594267454" lon="7.998472115326006"><ele>181.83333333333334</ele><time>2026-04-19T09:03:54Z</time></trkpt><trkpt lat="44.914079201342176" lon="7.998452819641894"><ele>182.66666666666669</ele><time>2026-04-19T09:03:55Z</time></trkpt><trkpt lat="44.91399228790794" lon="7.9983845822130935"><ele>183.5</ele><time>2026-04-19T09:03:56Z</time></trkpt><trkpt lat="44.9139139958377" lon="7.998317527801303"><ele>184.33333333333334</ele><time>2026-04-19T09:03:57Z</time></trkpt><trkpt lat="44.91384008545378" lon="7.9982777032955585"><ele>185.16666666666666</ele><time>2026-04-19T09:03:58Z</time></trkpt><trkpt lat="44.91376743344156" lon="7.998238693332469"><ele>186.0</ele><time>2026-04-19T09:04:01Z</time></trkpt><trkpt lat="44.91370075751571" lon="7.998210112513465"><ele>186.0</ele><time>2026-04-19T09:04:03Z</time></trkpt><trkpt lat="44.91357685656029" lon="7.998065305273117"><ele>186.0</ele><time>2026-04-19T09:04:05Z</time></trkpt><trkpt lat="44.91348234914185" lon="7.9979866399572614"><ele>186.0</ele><time>2026-04-19T09:04:06Z</time></trkpt><trkpt lat="44.913411310307936" lon="7.997884931765261"><ele>186.0</ele><time>2026-04-19T09:04:07Z</time></trkpt><trkpt lat="44.91339993993758" lon="7.997729961254557"><ele>186.0</ele><time>2026-04-19T09:04:09Z</time></trkpt><trkpt lat="44.91341328619005" lon="7.99764121050201"><ele>186.0</ele><time>2026-04-19T09:04:10.001Z</time></trkpt><trkpt lat="44.91348380666392" lon="7.997647927793695"><ele>186.0</ele><time>2026-04-19T09:04:12.001Z</time></trkpt><trkpt lat="44.913556361325554" lon="7.997607381667461"><ele>186.0</ele><time>2026-04-19T09:04:13.001Z</time></trkpt><trkpt lat="44.91358786839274" lon="7.997498355143779"><ele>186.0</ele><time>2026-04-19T09:04:15.001Z</time></trkpt><trkpt lat="44.91357667758521" lon="7.997388322403528"><ele>186.0</ele><time>2026-04-19T09:04:17.001Z</time></trkpt><trkpt lat="44.913519723811255" lon="7.99731561169185"><ele>186.8</ele><time>2026-04-19T09:04:19.001Z</time></trkpt><trkpt lat="44.913403896158584" lon="7.997308642418326"><ele>187.60000000000002</ele><time>2026-04-19T09:04:22.001Z</time></trkpt><trkpt lat="44.91332535629238" lon="7.997300027611424"><ele>188.4</ele><time>2026-04-19T09:04:23.001Z</time></trkpt><trkpt lat="44.913255264848495" lon="7.997195880572545"><ele>189.2</ele><time>2026-04-19T09:04:27.001Z</time></trkpt><trkpt lat="44.91319045730645" lon="7.9970597845721425"><ele>190.0</ele><time>2026-04-19T09:04:30.001Z</time></trkpt><trkpt lat="44.91314859227995" lon="7.99693013318141"><ele>190.0</ele><time>2026-04-19T09:04:32.001Z</time></trkpt><trkpt lat="44.91309053151247" lon="7.996805636947985"><ele>190.0</ele><time>2026-04-19T09:04:35.001Z</time></trkpt><trkpt lat="44.913074707821295" lon="7.996717100011326"><ele>190.0</ele><time>2026-04-19T09:04:37.001Z</time></trkpt><trkpt lat="44.913038123223124" lon="7.996640896385248"><ele>190.0</ele><time>2026-04-19T09:04:39.001Z</time></trkpt><trkpt lat="44.91302402913827" lon="7.9965343378827365"><ele>190.0</ele><time>2026-04-19T09:04:40.001Z</time></trkpt><trkpt lat="44.9130536246168" lon="7.996441263570349"><ele>190.0</ele><time>2026-04-19T09:04:41.001Z</time></trkpt><trkpt lat="44.913019096092825" lon="7.996314777912742"><ele>187.0</ele><time>2026-04-19T09:04:44.001Z</time></trkpt><trkpt lat="44.91297168386742" lon="7.996200275414881"><ele>184.0</ele><time>2026-04-19T09:04:46.001Z</time></trkpt><trkpt lat="44.9130040774709" lon="7.996087196829649"><ele>181.0</ele><time>2026-04-19T09:04:49.001Z</time></trkpt><trkpt lat="44.91309914908789" lon="7.995674023437875"><ele>180.60000000000002</ele><time>2026-04-19T09:04:52.001Z</time></trkpt><trkpt lat="44.91313814014548" lon="7.9955218800721255"><ele>180.2</ele><time>2026-04-19T09:04:53.001Z</time></trkpt><trkpt lat="44.91314386713782" lon="7.995359191902539"><ele>179.8</ele><time>2026-04-19T09:04:54.001Z</time></trkpt><trkpt lat="44.91311920582221" lon="7.995250798432643"><ele>179.39999999999998</ele><time>2026-04-19T09:04:55.001Z</time></trkpt><trkpt lat="44.91309415501771" lon="7.995143347543209"><ele>179.0</ele><time>2026-04-19T09:04:56.001Z</time></trkpt><trkpt lat="44.913049572172234" lon="7.995060466826204"><ele>179.00000000000003</ele><time>2026-04-19T09:04:57.001Z</time></trkpt><trkpt lat="44.913000313732425" lon="7.99498609898599"><ele>179.0</ele><time>2026-04-19T09:04:58.001Z</time></trkpt><trkpt lat="44.91301153880387" lon="7.99487564848278"><ele>179.0</ele><time>2026-04-19T09:05:00.001Z</time></trkpt><trkpt lat="44.91305029578158" lon="7.994804638005898"><ele>179.0</ele><time>2026-04-19T09:05:03.001Z</time></trkpt><trkpt lat="44.913062361094745" lon="7.994711976657421"><ele>179.0</ele><time>2026-04-19T09:05:06.001Z</time></trkpt><trkpt lat="44.91309373539307" lon="7.994617203146234"><ele>179.00000000000003</ele><time>2026-04-19T09:05:10.001Z</time></trkpt><trkpt lat="44.913049923231604" lon="7.99454795165569"><ele>179.0</ele><time>2026-04-19T09:05:14.001Z</time></trkpt><trkpt lat="44.91296605676787" lon="7.9946078324699"><ele>179.0</ele><time>2026-04-19T09:05:16.001Z</time></trkpt><trkpt lat="44.9128985796771" lon="7.994599663922234"><ele>179.0</ele><time>2026-04-19T09:05:17.001Z</time></trkpt><trkpt lat="44.91280307979385" lon="7.994639652003932"><ele>179.0</ele><time>2026-04-19T09:05:18.001Z</time></trkpt><trkpt lat="44.91271245353214" lon="7.99464496698404"><ele>179.0</ele><time>2026-04-19T09:05:19.001Z</time></trkpt><trkpt lat="44.91261710784521" lon="7.9946877371200715"><ele>179.0</ele><time>2026-04-19T09:05:20.001Z</time></trkpt><trkpt lat="44.912519828550636" lon="7.994724096379683"><ele>179.39999999999998</ele><time>2026-04-19T09:05:21.001Z</time></trkpt><trkpt lat="44.91242891724361" lon="7.9947722807264405"><ele>179.8</ele><time>2026-04-19T09:05:22Z</time></trkpt><trkpt lat="44.91232708999481" lon="7.994810409620471"><ele>180.2</ele><time>2026-04-19T09:05:23Z</time></trkpt><trkpt lat="44.912230496817784" lon="7.994852471344246"><ele>180.60000000000002</ele><time>2026-04-19T09:05:24Z</time></trkpt><trkpt lat="44.91214266846239" lon="7.994911510311097"><ele>181.0</ele><time>2026-04-19T09:05:25Z</time></trkpt><trkpt lat="44.912071876687655" lon="7.9949697815398135"><ele>181.60000000000002</ele><time>2026-04-19T09:05:26Z</time></trkpt><trkpt lat="44.91198947689505" lon="7.995007892280772"><ele>182.2</ele><time>2026-04-19T09:05:27Z</time></trkpt><trkpt lat="44.91193032032355" lon="7.995054716427301"><ele>182.8</ele><time>2026-04-19T09:05:28Z</time></trkpt><trkpt lat="44.91186117028277" lon="7.995057519288881"><ele>183.39999999999998</ele><time>2026-04-19T09:05:29Z</time></trkpt><trkpt lat="44.91175683778612" lon="7.995068114224662"><ele>184.0</ele><time>2026-04-19T09:05:30Z</time></trkpt><trkpt lat="44.91163413710197" lon="7.995062382882633"><ele>184.79999999999998</ele><time>2026-04-19T09:05:31Z</time></trkpt><trkpt lat="44.91151967896064" lon="7.995076996061207"><ele>185.6</ele><time>2026-04-19T09:05:32Z</time></trkpt><trkpt lat="44.91142172313336" lon="7.995121963953932"><ele>186.4</ele><time>2026-04-19T09:05:33Z</time></trkpt><trkpt lat="44.91131675078685" lon="7.995173267731921"><ele>187.2</ele><time>2026-04-19T09:05:34Z</time></trkpt><trkpt lat="44.91123227842827" lon="7.9952108784438725"><ele>188.0</ele><time>2026-04-19T09:05:35Z</time></trkpt><trkpt lat="44.91110788727697" lon="7.99519869590772"><ele>188.0</ele><time>2026-04-19T09:05:37Z</time></trkpt><trkpt lat="44.911032824767126" lon="7.99511366045224"><ele>188.0</ele><time>2026-04-19T09:05:38Z</time></trkpt><trkpt lat="44.91094273312204" lon="7.995081617000501"><ele>188.0</ele><time>2026-04-19T09:05:39Z</time></trkpt><trkpt lat="44.91086367142779" lon="7.995057921862994"><ele>188.0</ele><time>2026-04-19T09:05:40Z</time></trkpt><trkpt lat="44.910797404353524" lon="7.99506827920173"><ele>188.0</ele><time>2026-04-19T09:05:41Z</time></trkpt><trkpt lat="44.91073163293761" lon="7.9951054084388735"><ele>188.0</ele><time>2026-04-19T09:05:42Z</time></trkpt><trkpt lat="44.91063295926428" lon="7.995131698800998"><ele>189.0</ele><time>2026-04-19T09:05:44Z</time></trkpt><trkpt lat="44.910564423177945" lon="7.9951077830543715"><ele>190.0</ele><time>2026-04-19T09:05:47Z</time></trkpt><trkpt lat="44.910472781324806" lon="7.995075254117189"><ele>191.0</ele><time>2026-04-19T09:05:49Z</time></trkpt><trkpt lat="44.910412129443614" lon="7.994885453131328"><ele>192.0</ele><time>2026-04-19T09:05:51Z</time></trkpt><trkpt lat="44.91034536893117" lon="7.994844562239368"><ele>193.0</ele><time>2026-04-19T09:05:53Z</time></trkpt><trkpt lat="44.910365883788046" lon="7.994753034629261"><ele>191.33333333333331</ele><time>2026-04-19T09:05:55Z</time></trkpt><trkpt lat="44.91032961771536" lon="7.9946751001707765"><ele>189.66666666666666</ele><time>2026-04-19T09:05:57Z</time></trkpt><trkpt lat="44.91033606104218" lon="7.994566920276709"><ele>188.0</ele><time>2026-04-19T09:06:00Z</time></trkpt><trkpt lat="44.91031657090595" lon="7.994452411467403"><ele>186.33333333333331</ele><time>2026-04-19T09:06:02Z</time></trkpt><trkpt lat="44.910294115473924" lon="7.994368317022008"><ele>184.66666666666666</ele><time>2026-04-19T09:06:04Z</time></trkpt><trkpt lat="44.91025412439711" lon="7.994260624879204"><ele>183.0</ele><time>2026-04-19T09:06:08Z</time></trkpt><trkpt lat="44.91015342217681" lon="7.994237933173209"><ele>183.0</ele><time>2026-04-19T09:06:11Z</time></trkpt><trkpt lat="44.910101272179624" lon="7.994184495578259"><ele>183.0</ele><time>2026-04-19T09:06:13Z</time></trkpt><trkpt lat="44.91010877541104" lon="7.9940922443341655"><ele>183.0</ele><time>2026-04-19T09:06:16Z</time></trkpt><trkpt lat="44.910054946499116" lon="7.994014289416551"><ele>183.0</ele><time>2026-04-19T09:06:20Z</time></trkpt><trkpt lat="44.91000771950131" lon="7.994083896324157"><ele>183.0</ele><time>2026-04-19T09:06:22Z</time></trkpt><trkpt lat="44.90991746636742" lon="7.994109498571917"><ele>183.0</ele><time>2026-04-19T09:06:26Z</time></trkpt><trkpt lat="44.90983126908428" lon="7.994126898231327"><ele>183.5</ele><time>2026-04-19T09:06:29Z</time></trkpt><trkpt lat="44.90973311580774" lon="7.994139764877648"><ele>184.0</ele><time>2026-04-19T09:06:33Z</time></trkpt><trkpt lat="44.90968335277255" lon="7.9940809614901145"><ele>184.5</ele><time>2026-04-19T09:06:36Z</time></trkpt><trkpt lat="44.90958056273476" lon="7.994092660107168"><ele>185.0</ele><time>2026-04-19T09:06:38Z</time></trkpt><trkpt lat="44.90952345841834" lon="7.99415422080381"><ele>185.5</ele><time>2026-04-19T09:06:41Z</time></trkpt><trkpt lat="44.909416036706546" lon="7.994170536219051"><ele>186.0</ele><time>2026-04-19T09:06:43Z</time></trkpt><trkpt lat="44.90931153669597" lon="7.994201911649218"><ele>186.14285714285717</ele><time>2026-04-19T09:06:46Z</time></trkpt><trkpt lat="44.90922784115308" lon="7.994225644772533"><ele>186.28571428571428</ele><time>2026-04-19T09:06:48Z</time></trkpt><trkpt lat="44.90915772852343" lon="7.9942284313684135"><ele>186.42857142857144</ele><time>2026-04-19T09:06:52Z</time></trkpt><trkpt lat="44.90906774401849" lon="7.994206325282428"><ele>186.57142857142858</ele><time>2026-04-19T09:08:34Z</time></trkpt><trkpt lat="44.90903690549832" lon="7.994287437642501"><ele>186.71428571428572</ele><time>2026-04-19T09:08:42Z</time></trkpt><trkpt lat="44.90901263119816" lon="7.994381360898202"><ele>186.85714285714286</ele><time>2026-04-19T09:08:45Z</time></trkpt><trkpt lat="44.908946523086634" lon="7.994377590406972"><ele>187.0</ele><time>2026-04-19T09:08:58.001Z</time></trkpt><trkpt lat="44.908847157940784" lon="7.994413362576899"><ele>187.0</ele><time>2026-04-19T09:09:01.001Z</time></trkpt><trkpt lat="44.90883113028739" lon="7.994743450717835"><ele>187.0</ele><time>2026-04-19T09:09:09.001Z</time></trkpt><trkpt lat="44.908767696917636" lon="7.99464052086599"><ele>187.0</ele><time>2026-04-19T09:09:13.001Z</time></trkpt><trkpt lat="44.90870249057453" lon="7.994574772795192"><ele>187.0</ele><time>2026-04-19T09:09:18.001Z</time></trkpt><trkpt lat="44.90861115703814" lon="7.994603548534542"><ele>187.0</ele><time>2026-04-19T09:09:23.001Z</time></trkpt><trkpt lat="44.90857652810171" lon="7.994514786411398"><ele>187.0</ele><time>2026-04-19T09:09:25.001Z</time></trkpt><trkpt lat="44.9085428282668" lon="7.994410219954985"><ele>187.0</ele><time>2026-04-19T09:09:26.001Z</time></trkpt><trkpt lat="44.908617541351894" lon="7.994361478526925"><ele>187.0</ele><time>2026-04-19T09:09:29.001Z</time></trkpt><trkpt lat="44.908464292509336" lon="7.994163852609125"><ele>187.0</ele><time>2026-04-19T09:09:32.001Z</time></trkpt><trkpt lat="44.90845082906159" lon="7.994059564398895"><ele>189.0</ele><time>2026-04-19T09:09:34Z</time></trkpt><trkpt lat="44.90840952281502" lon="7.993947892660476"><ele>191.0</ele><time>2026-04-19T09:09:38Z</time></trkpt><trkpt lat="44.908370796097614" lon="7.993786366848286"><ele>193.0</ele><time>2026-04-19T09:09:40Z</time></trkpt><trkpt lat="44.90831813826474" lon="7.993608525618475"><ele>195.0</ele><time>2026-04-19T09:09:43Z</time></trkpt><trkpt lat="44.908279938953164" lon="7.993452553571092"><ele>193.5</ele><time>2026-04-19T09:09:44Z</time></trkpt><trkpt lat="44.90821222011074" lon="7.9932839490474485"><ele>192.0</ele><time>2026-04-19T09:09:45Z</time></trkpt><trkpt lat="44.90814565976036" lon="7.993101904689125"><ele>190.5</ele><time>2026-04-19T09:09:46Z</time></trkpt><trkpt lat="44.90807958557827" lon="7.992922101941885"><ele>189.0</ele><time>2026-04-19T09:09:47Z</time></trkpt><trkpt lat="44.90797959521034" lon="7.99274476920427"><ele>189.0</ele><time>2026-04-19T09:09:48Z</time></trkpt><trkpt lat="44.907890785033054" lon="7.992563971536679"><ele>189.0</ele><time>2026-04-19T09:09:49Z</time></trkpt><trkpt lat="44.907824869300526" lon="7.992410605031319"><ele>189.0</ele><time>2026-04-19T09:09:50Z</time></trkpt><trkpt lat="44.90776128229574" lon="7.992338451587236"><ele>189.0</ele><time>2026-04-19T09:09:51Z</time></trkpt><trkpt lat="44.90767754255928" lon="7.992281212006982"><ele>188.83333333333334</ele><time>2026-04-19T09:09:52Z</time></trkpt><trkpt lat="44.90760388131898" lon="7.992213192042921"><ele>188.66666666666666</ele><time>2026-04-19T09:09:53Z</time></trkpt><trkpt lat="44.90752829160565" lon="7.99218193180507"><ele>188.5</ele><time>2026-04-19T09:09:54Z</time></trkpt><trkpt lat="44.90745473840611" lon="7.992207314148346"><ele>188.33333333333331</ele><time>2026-04-19T09:09:55Z</time></trkpt><trkpt lat="44.907363156437945" lon="7.992235077649624"><ele>188.16666666666666</ele><time>2026-04-19T09:09:56Z</time></trkpt><trkpt lat="44.907276836889025" lon="7.992270959357829"><ele>188.0</ele><time>2026-04-19T09:09:57Z</time></trkpt><trkpt lat="44.9071331557833" lon="7.992268773259165"><ele>188.0</ele><time>2026-04-19T09:09:58Z</time></trkpt><trkpt lat="44.9070109822387" lon="7.992255606724674"><ele>188.0</ele><time>2026-04-19T09:09:59Z</time></trkpt><trkpt lat="44.906873905152224" lon="7.992163855560785"><ele>188.0</ele><time>2026-04-19T09:10:00Z</time></trkpt><trkpt lat="44.906674839943534" lon="7.992042348886006"><ele>189.0</ele><time>2026-04-19T09:10:01Z</time></trkpt><trkpt lat="44.906502022600996" lon="7.991899092761647"><ele>190.0</ele><time>2026-04-19T09:10:02Z</time></trkpt><trkpt lat="44.90640306370697" lon="7.99184187966339"><ele>191.0</ele><time>2026-04-19T09:10:03Z</time></trkpt><trkpt lat="44.906308490505836" lon="7.9917704823537115"><ele>192.0</ele><time>2026-04-19T09:10:04Z</time></trkpt><trkpt lat="44.90628350273127" lon="7.991670404778725"><ele>190.39999999999998</ele><time>2026-04-19T09:10:05Z</time></trkpt><trkpt lat="44.9062724744856" lon="7.991553088441773"><ele>188.79999999999998</ele><time>2026-04-19T09:10:06Z</time></trkpt><trkpt lat="44.90623378462272" lon="7.991439707241827"><ele>187.2</ele><time>2026-04-19T09:10:07Z</time></trkpt><trkpt lat="44.90619694109575" lon="7.991324948030393"><ele>185.6</ele><time>2026-04-19T09:10:08Z</time></trkpt><trkpt lat="44.90613508864806" lon="7.991419706647843"><ele>184.0</ele><time>2026-04-19T09:10:12Z</time></trkpt><trkpt lat="44.906094173779444" lon="7.99161757694167"><ele>185.6</ele><time>2026-04-19T09:10:14Z</time></trkpt><trkpt lat="44.90606483666028" lon="7.991738172215452"><ele>187.2</ele><time>2026-04-19T09:10:15Z</time></trkpt><trkpt lat="44.906049682458935" lon="7.99187425033949"><ele>188.79999999999998</ele><time>2026-04-19T09:10:16Z</time></trkpt><trkpt lat="44.906033867052045" lon="7.99200205552901"><ele>190.39999999999998</ele><time>2026-04-19T09:10:17Z</time></trkpt><trkpt lat="44.90602227908112" lon="7.9921409342549525"><ele>192.0</ele><time>2026-04-19T09:10:18Z</time></trkpt><trkpt lat="44.90601813407124" lon="7.992264899391107"><ele>192.0</ele><time>2026-04-19T09:10:19Z</time></trkpt><trkpt lat="44.90600885539278" lon="7.992396946820501"><ele>192.0</ele><time>2026-04-19T09:10:20Z</time></trkpt><trkpt lat="44.90601970752783" lon="7.992517595927482"><ele>192.0</ele><time>2026-04-19T09:10:21Z</time></trkpt><trkpt lat="44.90603905409456" lon="7.992655804847703"><ele>192.0</ele><time>2026-04-19T09:10:22Z</time></trkpt><trkpt lat="44.90605066212345" lon="7.992775452283581"><ele>192.0</ele><time>2026-04-19T09:10:23Z</time></trkpt><trkpt lat="44.90607953282388" lon="7.992889967134754"><ele>195.8</ele><time>2026-04-19T09:10:25Z</time></trkpt><trkpt lat="44.90614833506963" lon="7.992947296945153"><ele>199.6</ele><time>2026-04-19T09:10:28Z</time></trkpt><trkpt lat="44.90624631411021" lon="7.993045609642502"><ele>203.4</ele><time>2026-04-19T09:11:43Z</time></trkpt><trkpt lat="44.90630669368526" lon="7.993096773260153"><ele>207.20000000000002</ele><time>2026-04-19T09:11:46Z</time></trkpt><trkpt lat="44.90638166080743" lon="7.9931717455315905"><ele>211.0</ele><time>2026-04-19T09:11:49Z</time></trkpt><trkpt lat="44.906470519151036" lon="7.993253429596505"><ele>210.99999999999997</ele><time>2026-04-19T09:11:51Z</time></trkpt><trkpt lat="44.90653890990677" lon="7.993266275652391"><ele>211.0</ele><time>2026-04-19T09:11:52Z</time></trkpt><trkpt lat="44.90662106353198" lon="7.993290525499483"><ele>211.0</ele><time>2026-04-19T09:11:53Z</time></trkpt><trkpt lat="44.90668650390426" lon="7.9933250662567215"><ele>211.0</ele><time>2026-04-19T09:11:54Z</time></trkpt><trkpt lat="44.90677849389991" lon="7.993399716275948"><ele>210.99999999999997</ele><time>2026-04-19T09:11:55Z</time></trkpt><trkpt lat="44.90685737757228" lon="7.993474583209995"><ele>211.0</ele><time>2026-04-19T09:11:56Z</time></trkpt><trkpt lat="44.90692838368443" lon="7.993541597881432"><ele>211.20000000000002</ele><time>2026-04-19T09:11:57Z</time></trkpt><trkpt lat="44.90700509070152" lon="7.993595688363912"><ele>211.4</ele><time>2026-04-19T09:11:58Z</time></trkpt><trkpt lat="44.90709058108354" lon="7.993654005700001"><ele>211.6</ele><time>2026-04-19T09:11:59Z</time></trkpt><trkpt lat="44.907158566375536" lon="7.9937860079948075"><ele>211.8</ele><time>2026-04-19T09:12:01Z</time></trkpt><trkpt lat="44.9071956769288" lon="7.993870890524425"><ele>212.0</ele><time>2026-04-19T09:12:03Z</time></trkpt><trkpt lat="44.90717041824322" lon="7.993988787698176"><ele>212.00000000000003</ele><time>2026-04-19T09:12:04Z</time></trkpt><trkpt lat="44.90714408504717" lon="7.994081875983525"><ele>212.0</ele><time>2026-04-19T09:12:05Z</time></trkpt><trkpt lat="44.907104344356995" lon="7.99417436935232"><ele>212.0</ele><time>2026-04-19T09:12:06Z</time></trkpt><trkpt lat="44.907034758567875" lon="7.99429897897214"><ele>212.0</ele><time>2026-04-19T09:12:08Z</time></trkpt><trkpt lat="44.907024043599186" lon="7.994390526621285"><ele>212.00000000000003</ele><time>2026-04-19T09:12:09Z</time></trkpt><trkpt lat="44.907015123889664" lon="7.994484349452481"><ele>212.0</ele><time>2026-04-19T09:12:10Z</time></trkpt><trkpt lat="44.90705386386056" lon="7.994566360395131"><ele>213.16666666666669</ele><time>2026-04-19T09:12:11Z</time></trkpt><trkpt lat="44.90707637921988" lon="7.994650016385107"><ele>214.33333333333334</ele><time>2026-04-19T09:12:12Z</time></trkpt><trkpt lat="44.907122106615745" lon="7.994763209190105"><ele>215.5</ele><time>2026-04-19T09:12:13Z</time></trkpt><trkpt lat="44.90714914654691" lon="7.994859649281654"><ele>216.66666666666669</ele><time>2026-04-19T09:12:14Z</time></trkpt><trkpt lat="44.90715975635302" lon="7.994982468298443"><ele>217.83333333333334</ele><time>2026-04-19T09:12:15Z</time></trkpt><trkpt lat="44.90715768981711" lon="7.995103072774329"><ele>219.0</ele><time>2026-04-19T09:12:16Z</time></trkpt><trkpt lat="44.90713894475477" lon="7.995252248794927"><ele>219.79999999999998</ele><time>2026-04-19T09:12:17Z</time></trkpt><trkpt lat="44.90715558715316" lon="7.995400568394664"><ele>220.59999999999997</ele><time>2026-04-19T09:12:18Z</time></trkpt><trkpt lat="44.90719523335581" lon="7.99553569251556"><ele>221.4</ele><time>2026-04-19T09:12:19Z</time></trkpt><trkpt lat="44.90724599529789" lon="7.995678617569991"><ele>222.2</ele><time>2026-04-19T09:12:21Z</time></trkpt><trkpt lat="44.907201223527686" lon="7.9957742704516415"><ele>223.0</ele><time>2026-04-19T09:12:23Z</time></trkpt><trkpt lat="44.90710806277346" lon="7.995772088897497"><ele>223.0</ele><time>2026-04-19T09:12:24Z</time></trkpt><trkpt lat="44.90704056696225" lon="7.995682327701703"><ele>223.0</ele><time>2026-04-19T09:12:25Z</time></trkpt><trkpt lat="44.90698014916056" lon="7.995605263910903"><ele>223.0</ele><time>2026-04-19T09:12:26Z</time></trkpt><trkpt lat="44.90689861206351" lon="7.995525122015981"><ele>223.0</ele><time>2026-04-19T09:12:27Z</time></trkpt><trkpt lat="44.90680787533694" lon="7.995448579887629"><ele>223.0</ele><time>2026-04-19T09:12:28Z</time></trkpt><trkpt lat="44.906746181446124" lon="7.995375317656241"><ele>226.4</ele><time>2026-04-19T09:12:29Z</time></trkpt><trkpt lat="44.906718379299086" lon="7.9952783672680106"><ele>229.8</ele><time>2026-04-19T09:12:30Z</time></trkpt><trkpt lat="44.90670781419027" lon="7.9951585094874105"><ele>233.2</ele><time>2026-04-19T09:12:31Z</time></trkpt><trkpt lat="44.90667436447576" lon="7.995013443915742"><ele>236.6</ele><time>2026-04-19T09:12:32Z</time></trkpt><trkpt lat="44.90663361731572" lon="7.9948769609257315"><ele>240.0</ele><time>2026-04-19T09:12:33Z</time></trkpt><trkpt lat="44.906606900207215" lon="7.994773364969847"><ele>240.0</ele><time>2026-04-19T09:12:34Z</time></trkpt><trkpt lat="44.90658580878078" lon="7.9946709768067965"><ele>240.0</ele><time>2026-04-19T09:12:35Z</time></trkpt><trkpt lat="44.90648959052943" lon="7.9946425480503756"><ele>240.0</ele><time>2026-04-19T09:12:37Z</time></trkpt><trkpt lat="44.90645148026686" lon="7.99473997650118"><ele>240.0</ele><time>2026-04-19T09:12:38Z</time></trkpt><trkpt lat="44.90642779955326" lon="7.994822944734356"><ele>240.0</ele><time>2026-04-19T09:12:39Z</time></trkpt><trkpt lat="44.9064065691672" lon="7.994917945842686"><ele>240.0</ele><time>2026-04-19T09:12:40Z</time></trkpt><trkpt lat="44.90636297406306" lon="7.995109725772532"><ele>241.16666666666666</ele><time>2026-04-19T09:12:42Z</time></trkpt><trkpt lat="44.90632761008572" lon="7.995229029495318"><ele>242.33333333333331</ele><time>2026-04-19T09:12:43Z</time></trkpt><trkpt lat="44.906329467240944" lon="7.995336366607438"><ele>243.5</ele><time>2026-04-19T09:12:44Z</time></trkpt><trkpt lat="44.90627027298566" lon="7.99543012617385"><ele>244.66666666666666</ele><time>2026-04-19T09:12:45Z</time></trkpt><trkpt lat="44.90619713812337" lon="7.99551245002936"><ele>245.83333333333331</ele><time>2026-04-19T09:12:46Z</time></trkpt><trkpt lat="44.90612007867954" lon="7.995555852802173"><ele>247.0</ele><time>2026-04-19T09:12:47Z</time></trkpt><trkpt lat="44.90603097145142" lon="7.995603740641314"><ele>247.0</ele><time>2026-04-19T09:12:48Z</time></trkpt><trkpt lat="44.90591565064174" lon="7.995633808223636"><ele>247.0</ele><time>2026-04-19T09:12:49Z</time></trkpt><trkpt lat="44.905776204537034" lon="7.9956558153983694"><ele>247.0</ele><time>2026-04-19T09:12:50Z</time></trkpt><trkpt lat="44.90568193908747" lon="7.9957008037096395"><ele>247.0</ele><time>2026-04-19T09:12:51Z</time></trkpt><trkpt lat="44.90562034805159" lon="7.995751074714907"><ele>247.0</ele><time>2026-04-19T09:12:52Z</time></trkpt><trkpt lat="44.90557173122429" lon="7.995831262470362"><ele>249.6</ele><time>2026-04-19T09:12:53Z</time></trkpt><trkpt lat="44.90551025558441" lon="7.995927936914286"><ele>252.2</ele><time>2026-04-19T09:12:54Z</time></trkpt><trkpt lat="44.905473949618184" lon="7.996044638664611"><ele>254.8</ele><time>2026-04-19T09:12:55Z</time></trkpt><trkpt lat="44.90542847781572" lon="7.9961720607651365"><ele>257.4</ele><time>2026-04-19T09:12:56Z</time></trkpt><trkpt lat="44.90538813728511" lon="7.996297438519694"><ele>260.0</ele><time>2026-04-19T09:12:57Z</time></trkpt><trkpt lat="44.90533883462868" lon="7.99645339599433"><ele>260.0</ele><time>2026-04-19T09:12:58Z</time></trkpt><trkpt lat="44.905265498233256" lon="7.996548667245612"><ele>260.0</ele><time>2026-04-19T09:12:59Z</time></trkpt><trkpt lat="44.90519934516985" lon="7.996591413963481"><ele>260.0</ele><time>2026-04-19T09:13:00Z</time></trkpt><trkpt lat="44.90513478460492" lon="7.996600298681524"><ele>260.0</ele><time>2026-04-19T09:13:01Z</time></trkpt><trkpt lat="44.90505844448856" lon="7.996587666164023"><ele>260.0</ele><time>2026-04-19T09:13:02Z</time></trkpt><trkpt lat="44.90497772669123" lon="7.996609598523845"><ele>260.0</ele><time>2026-04-19T09:13:03Z</time></trkpt><trkpt lat="44.90488653087734" lon="7.9966505760928595"><ele>259.4</ele><time>2026-04-19T09:13:04Z</time></trkpt><trkpt lat="44.90479459470352" lon="7.996692027493637"><ele>258.8</ele><time>2026-04-19T09:13:05Z</time></trkpt><trkpt lat="44.90467590855801" lon="7.9967432564205865"><ele>258.2</ele><time>2026-04-19T09:13:06Z</time></trkpt><trkpt lat="44.9046022211963" lon="7.996715549768134"><ele>257.6</ele><time>2026-04-19T09:13:09Z</time></trkpt><trkpt lat="44.904469491962104" lon="7.996637825864736"><ele>257.0</ele><time>2026-04-19T09:13:11Z</time></trkpt><trkpt lat="44.90439628988443" lon="7.996555130580671"><ele>255.75</ele><time>2026-04-19T09:13:12Z</time></trkpt><trkpt lat="44.9043003494219" lon="7.996498283714658"><ele>254.5</ele><time>2026-04-19T09:13:13Z</time></trkpt><trkpt lat="44.90420484432652" lon="7.996411315411231"><ele>253.25</ele><time>2026-04-19T09:13:14Z</time></trkpt><trkpt lat="44.90410437843527" lon="7.996324436544737"><ele>252.0</ele><time>2026-04-19T09:13:15Z</time></trkpt><trkpt lat="44.90401153853399" lon="7.996216788639151"><ele>251.75</ele><time>2026-04-19T09:13:16Z</time></trkpt><trkpt lat="44.90390180943288" lon="7.996133457611681"><ele>251.5</ele><time>2026-04-19T09:13:17Z</time></trkpt><trkpt lat="44.90382209153649" lon="7.996022447017492"><ele>251.25</ele><time>2026-04-19T09:13:18Z</time></trkpt><trkpt lat="44.90373236979672" lon="7.995929250913316"><ele>251.0</ele><time>2026-04-19T09:13:19.001Z</time></trkpt><trkpt lat="44.903635822770156" lon="7.995848734114358"><ele>251.0</ele><time>2026-04-19T09:13:20.001Z</time></trkpt><trkpt lat="44.90354028853607" lon="7.995750797452159"><ele>251.0</ele><time>2026-04-19T09:13:21.001Z</time></trkpt><trkpt lat="44.90344018105427" lon="7.995667636967785"><ele>251.0</ele><time>2026-04-19T09:13:22.001Z</time></trkpt><trkpt lat="44.903329878254695" lon="7.995606432026714"><ele>251.0</ele><time>2026-04-19T09:13:23.001Z</time></trkpt><trkpt lat="44.9032060638244" lon="7.995556686413237"><ele>251.0</ele><time>2026-04-19T09:13:24.001Z</time></trkpt><trkpt lat="44.90307924042923" lon="7.995532477070108"><ele>251.0</ele><time>2026-04-19T09:13:25.001Z</time></trkpt><trkpt lat="44.90295830464606" lon="7.995511915603611"><ele>251.0</ele><time>2026-04-19T09:13:26.001Z</time></trkpt><trkpt lat="44.90283610423282" lon="7.995486772536193"><ele>251.0</ele><time>2026-04-19T09:13:27.001Z</time></trkpt><trkpt lat="44.90271139047479" lon="7.9954776484828205"><ele>251.00000000000003</ele><time>2026-04-19T09:13:28.001Z</time></trkpt><trkpt lat="44.902609863023" lon="7.9954985913088406"><ele>251.0</ele><time>2026-04-19T09:13:29.001Z</time></trkpt><trkpt lat="44.90251095048488" lon="7.995514757987704"><ele>251.0</ele><time>2026-04-19T09:13:30.001Z</time></trkpt><trkpt lat="44.90243359035375" lon="7.99551875925006"><ele>251.0</ele><time>2026-04-19T09:13:31.001Z</time></trkpt><trkpt lat="44.90236318576258" lon="7.995499513686474"><ele>251.00000000000003</ele><time>2026-04-19T09:13:32.001Z</time></trkpt><trkpt lat="44.902276425531454" lon="7.995447809648103"><ele>251.0</ele><time>2026-04-19T09:13:33.001Z</time></trkpt><trkpt lat="44.90222537577715" lon="7.995313801481756"><ele>251.8</ele><time>2026-04-19T09:13:34.001Z</time></trkpt><trkpt lat="44.9021545212685" lon="7.995212128010425"><ele>252.60000000000002</ele><time>2026-04-19T09:13:35.001Z</time></trkpt><trkpt lat="44.902077642956165" lon="7.9951314035545"><ele>253.4</ele><time>2026-04-19T09:13:36.001Z</time></trkpt><trkpt lat="44.90199421956986" lon="7.995025954245426"><ele>254.2</ele><time>2026-04-19T09:13:37.001Z</time></trkpt><trkpt lat="44.90190326164106" lon="7.994964362161036"><ele>255.0</ele><time>2026-04-19T09:13:38.001Z</time></trkpt><trkpt lat="44.9018064276547" lon="7.9949171980181015"><ele>255.8</ele><time>2026-04-19T09:13:39.001Z</time></trkpt><trkpt lat="44.90172055838727" lon="7.994828177109907"><ele>256.6</ele><time>2026-04-19T09:13:40.001Z</time></trkpt><trkpt lat="44.90163239019919" lon="7.994737023041852"><ele>257.4</ele><time>2026-04-19T09:13:41.001Z</time></trkpt><trkpt lat="44.90155495649086" lon="7.994641710795086"><ele>258.2</ele><time>2026-04-19T09:13:42.001Z</time></trkpt><trkpt lat="44.901476852802325" lon="7.9945401953149124"><ele>259.0</ele><time>2026-04-19T09:13:43.001Z</time></trkpt><trkpt lat="44.9014098186297" lon="7.994413271106329"><ele>259.0</ele><time>2026-04-19T09:13:44.001Z</time></trkpt><trkpt lat="44.90135231454178" lon="7.994277426271906"><ele>259.0</ele><time>2026-04-19T09:13:45.001Z</time></trkpt><trkpt lat="44.901296010856996" lon="7.9941350309131955"><ele>259.0</ele><time>2026-04-19T09:13:46Z</time></trkpt><trkpt lat="44.90122222952904" lon="7.993976964493057"><ele>259.0</ele><time>2026-04-19T09:13:47Z</time></trkpt><trkpt lat="44.90116934110235" lon="7.9938043700245816"><ele>259.0</ele><time>2026-04-19T09:13:48Z</time></trkpt><trkpt lat="44.901132142556506" lon="7.993645779252841"><ele>259.0</ele><time>2026-04-19T09:13:49Z</time></trkpt><trkpt lat="44.9010650041309" lon="7.993489193832149"><ele>259.0</ele><time>2026-04-19T09:13:50Z</time></trkpt><trkpt lat="44.90100767611431" lon="7.993324829190618"><ele>259.0</ele><time>2026-04-19T09:13:51Z</time></trkpt><trkpt lat="44.900944869492875" lon="7.993207086354347"><ele>259.2</ele><time>2026-04-19T09:13:52Z</time></trkpt><trkpt lat="44.900885846927046" lon="7.993077632418901"><ele>259.4</ele><time>2026-04-19T09:13:53Z</time></trkpt><trkpt lat="44.90081852853944" lon="7.992943470071804"><ele>259.6</ele><time>2026-04-19T09:13:54Z</time></trkpt><trkpt lat="44.90076775864775" lon="7.992809142574856"><ele>259.8</ele><time>2026-04-19T09:13:55Z</time></trkpt><trkpt lat="44.90072182682406" lon="7.992664764009698"><ele>260.0</ele><time>2026-04-19T09:13:56Z</time></trkpt><trkpt lat="44.90066699964419" lon="7.992501988216022"><ele>260.0</ele><time>2026-04-19T09:13:57Z</time></trkpt><trkpt lat="44.9005985001517" lon="7.992347867244348"><ele>260.0</ele><time>2026-04-19T09:13:58Z</time></trkpt><trkpt lat="44.90052500818889" lon="7.992216801168258"><ele>260.0</ele><time>2026-04-19T09:13:59Z</time></trkpt><trkpt lat="44.900438057053876" lon="7.99208042414389"><ele>260.0</ele><time>2026-04-19T09:14:00Z</time></trkpt><trkpt lat="44.90037067234747" lon="7.991961862473421"><ele>260.0</ele><time>2026-04-19T09:14:01Z</time></trkpt><trkpt lat="44.90033707787459" lon="7.99183819750314"><ele>260.0</ele><time>2026-04-19T09:14:02Z</time></trkpt><trkpt lat="44.90030115647222" lon="7.991661475100223"><ele>260.0</ele><time>2026-04-19T09:14:03Z</time></trkpt><trkpt lat="44.90023334002217" lon="7.991487590173905"><ele>260.0</ele><time>2026-04-19T09:14:05Z</time></trkpt><trkpt lat="44.90019671584513" lon="7.9913931383164085"><ele>260.0</ele><time>2026-04-19T09:14:06Z</time></trkpt><trkpt lat="44.9001324414999" lon="7.99128291015948"><ele>258.0</ele><time>2026-04-19T09:14:08Z</time></trkpt><trkpt lat="44.900253911833865" lon="7.991102712362589"><ele>256.0</ele><time>2026-04-19T09:14:11Z</time></trkpt><trkpt lat="44.900351619268065" lon="7.991023783655198"><ele>254.0</ele><time>2026-04-19T09:14:12Z</time></trkpt><trkpt lat="44.900435727806524" lon="7.9909282298557125"><ele>252.0</ele><time>2026-04-19T09:14:13Z</time></trkpt><trkpt lat="44.9005266573735" lon="7.990821088311395"><ele>251.25</ele><time>2026-04-19T09:14:14Z</time></trkpt><trkpt lat="44.90060091454961" lon="7.990708225521575"><ele>250.5</ele><time>2026-04-19T09:14:15Z</time></trkpt><trkpt lat="44.90068901965489" lon="7.990612249830914"><ele>249.75</ele><time>2026-04-19T09:14:16Z</time></trkpt><trkpt lat="44.90077783632476" lon="7.990498453944544"><ele>249.0</ele><time>2026-04-19T09:14:17Z</time></trkpt><trkpt lat="44.900873516698155" lon="7.990401319185309"><ele>246.79999999999998</ele><time>2026-04-19T09:14:18Z</time></trkpt><trkpt lat="44.90095010315851" lon="7.99028221470168"><ele>244.59999999999997</ele><time>2026-04-19T09:14:19Z</time></trkpt><trkpt lat="44.90103561397538" lon="7.990158893054648"><ele>242.4</ele><time>2026-04-19T09:14:20Z</time></trkpt><trkpt lat="44.90108213455195" lon="7.990071716492048"><ele>240.2</ele><time>2026-04-19T09:14:21Z</time></trkpt><trkpt lat="44.90112550004423" lon="7.989987577131659"><ele>238.0</ele><time>2026-04-19T09:14:22Z</time></trkpt><trkpt lat="44.901171178939215" lon="7.9898989151696025"><ele>237.99999999999997</ele><time>2026-04-19T09:14:23Z</time></trkpt><trkpt lat="44.90116448503762" lon="7.989787732084012"><ele>238.0</ele><time>2026-04-19T09:14:32Z</time></trkpt><trkpt lat="44.9012421640643" lon="7.989778390612561"><ele>238.0</ele><time>2026-04-19T09:14:35Z</time></trkpt><trkpt lat="44.9012992584887" lon="7.989839767883472"><ele>238.0</ele><time>2026-04-19T09:14:37Z</time></trkpt><trkpt lat="44.90129997743393" lon="7.989974028336421"><ele>237.99999999999997</ele><time>2026-04-19T09:14:40Z</time></trkpt><trkpt lat="44.90130785264302" lon="7.990093982681042"><ele>238.0</ele><time>2026-04-19T09:14:42Z</time></trkpt><trkpt lat="44.90137962777883" lon="7.990103710579101"><ele>237.99999999999997</ele><time>2026-04-19T09:14:45Z</time></trkpt><trkpt lat="44.901436880323466" lon="7.990173761335471"><ele>238.0</ele><time>2026-04-19T09:14:47Z</time></trkpt><trkpt lat="44.90151691943632" lon="7.990129770158241"><ele>238.0</ele><time>2026-04-19T09:14:50Z</time></trkpt><trkpt lat="44.90154858215419" lon="7.990014830629289"><ele>238.0</ele><time>2026-04-19T09:14:53Z</time></trkpt><trkpt lat="44.901585733796516" lon="7.989923282072953"><ele>237.99999999999997</ele><time>2026-04-19T09:14:55Z</time></trkpt><trkpt lat="44.90161316073241" lon="7.989807537909484"><ele>238.0</ele><time>2026-04-19T09:14:57Z</time></trkpt><trkpt lat="44.9016463506882" lon="7.989683796979814"><ele>238.0</ele><time>2026-04-19T09:15:00Z</time></trkpt><trkpt lat="44.901644000426735" lon="7.989527839540609"><ele>238.0</ele><time>2026-04-19T09:15:03Z</time></trkpt><trkpt lat="44.901689656694046" lon="7.989437729741857"><ele>238.0</ele><time>2026-04-19T09:15:20.001Z</time></trkpt><trkpt lat="44.9017619342401" lon="7.989400073251807"><ele>238.0</ele><time>2026-04-19T09:15:26.001Z</time></trkpt><trkpt lat="44.90188153042471" lon="7.989389721535493"><ele>238.0</ele><time>2026-04-19T09:15:28.001Z</time></trkpt><trkpt lat="44.9019459730671" lon="7.989363354386425"><ele>235.66666666666666</ele><time>2026-04-19T09:15:29.001Z</time></trkpt><trkpt lat="44.902005056059856" lon="7.989320379742851"><ele>233.33333333333331</ele><time>2026-04-19T09:15:30.001Z</time></trkpt><trkpt lat="44.90206843860582" lon="7.989267424295414"><ele>231.0</ele><time>2026-04-19T09:15:31.001Z</time></trkpt><trkpt lat="44.90211363513136" lon="7.989129054736267"><ele>228.66666666666669</ele><time>2026-04-19T09:15:33.001Z</time></trkpt><trkpt lat="44.90216387008794" lon="7.988971053868309"><ele>226.33333333333334</ele><time>2026-04-19T09:15:35.001Z</time></trkpt><trkpt lat="44.90220105803177" lon="7.988892507563691"><ele>224.0</ele><time>2026-04-19T09:15:36.001Z</time></trkpt><trkpt lat="44.902231660888546" lon="7.9888038335208815"><ele>224.00000000000003</ele><time>2026-04-19T09:15:37.001Z</time></trkpt><trkpt lat="44.90226574974411" lon="7.988720789857229"><ele>224.0</ele><time>2026-04-19T09:15:38.001Z</time></trkpt><trkpt lat="44.90229281095415" lon="7.988638215106787"><ele>224.0</ele><time>2026-04-19T09:15:40.001Z</time></trkpt><trkpt lat="44.902282861867356" lon="7.988535567784596"><ele>224.0</ele><time>2026-04-19T09:15:44.001Z</time></trkpt><trkpt lat="44.90222079318127" lon="7.988469837224323"><ele>224.00000000000003</ele><time>2026-04-19T09:15:48.001Z</time></trkpt><trkpt lat="44.90218364803402" lon="7.988329890984414"><ele>224.0</ele><time>2026-04-19T09:15:51.001Z</time></trkpt><trkpt lat="44.90214728031383" lon="7.988246977807388"><ele>223.71428571428572</ele><time>2026-04-19T09:15:53Z</time></trkpt><trkpt lat="44.90219427445649" lon="7.988171427412949"><ele>223.42857142857144</ele><time>2026-04-19T09:15:56Z</time></trkpt><trkpt lat="44.90226998583219" lon="7.988140029100841"><ele>223.14285714285714</ele><time>2026-04-19T09:15:59Z</time></trkpt><trkpt lat="44.90231543944864" lon="7.988065719205531"><ele>222.85714285714286</ele><time>2026-04-19T09:16:04Z</time></trkpt><trkpt lat="44.90237956184093" lon="7.9880620673317875"><ele>222.57142857142858</ele><time>2026-04-19T09:16:07Z</time></trkpt><trkpt lat="44.902441473135056" lon="7.98809163571213"><ele>222.28571428571428</ele><time>2026-04-19T09:16:13Z</time></trkpt><trkpt lat="44.90250815043334" lon="7.988157719579538"><ele>222.0</ele><time>2026-04-19T09:16:16Z</time></trkpt><trkpt lat="44.90256842947355" lon="7.988219777925095"><ele>217.33333333333334</ele><time>2026-04-19T09:16:18Z</time></trkpt><trkpt lat="44.902657394986335" lon="7.988236929233202"><ele>212.66666666666669</ele><time>2026-04-19T09:16:22Z</time></trkpt><trkpt lat="44.902710683287445" lon="7.9883202037616545"><ele>208.0</ele><time>2026-04-19T09:16:26Z</time></trkpt><trkpt lat="44.902778464078146" lon="7.988404524463364"><ele>203.33333333333334</ele><time>2026-04-19T09:16:29Z</time></trkpt><trkpt lat="44.90282292609693" lon="7.9885206917691605"><ele>198.66666666666669</ele><time>2026-04-19T09:16:33Z</time></trkpt><trkpt lat="44.90289446970849" lon="7.988575631715517"><ele>194.0</ele><time>2026-04-19T09:16:36Z</time></trkpt><trkpt lat="44.90296178672797" lon="7.9885384052661355"><ele>194.0</ele><time>2026-04-19T09:16:38Z</time></trkpt><trkpt lat="44.9029834527502" lon="7.988452003555209"><ele>194.0</ele><time>2026-04-19T09:16:41Z</time></trkpt><trkpt lat="44.90300459486141" lon="7.988362370052644"><ele>194.0</ele><time>2026-04-19T09:16:46Z</time></trkpt><trkpt lat="44.90303538699138" lon="7.988277804776908"><ele>194.0</ele><time>2026-04-19T09:16:49Z</time></trkpt><trkpt lat="44.9030606226108" lon="7.988192245071959"><ele>194.0</ele><time>2026-04-19T09:16:51Z</time></trkpt><trkpt lat="44.903051178146875" lon="7.988084860350043"><ele>194.0</ele><time>2026-04-19T09:16:54Z</time></trkpt><trkpt lat="44.903044502268806" lon="7.987982246782089"><ele>194.0</ele><time>2026-04-19T09:17:00Z</time></trkpt><trkpt lat="44.90304005431718" lon="7.987875402435259"><ele>194.0</ele><time>2026-04-19T09:17:05Z</time></trkpt><trkpt lat="44.903049235614155" lon="7.987749048615918"><ele>194.0</ele><time>2026-04-19T09:17:09Z</time></trkpt><trkpt lat="44.90304490905163" lon="7.98764692770566"><ele>194.0</ele><time>2026-04-19T09:17:12Z</time></trkpt><trkpt lat="44.90302022588583" lon="7.987559501992211"><ele>194.0</ele><time>2026-04-19T09:17:14.001Z</time></trkpt><trkpt lat="44.90297975825467" lon="7.987419279967278"><ele>194.0</ele><time>2026-04-19T09:17:17.001Z</time></trkpt><trkpt lat="44.90287095105819" lon="7.987315339300618"><ele>193.5</ele><time>2026-04-19T09:17:18.001Z</time></trkpt><trkpt lat="44.90276183361847" lon="7.9871852842610895"><ele>193.0</ele><time>2026-04-19T09:17:20.001Z</time></trkpt><trkpt lat="44.90270389158651" lon="7.987080538460272"><ele>192.5</ele><time>2026-04-19T09:17:21.001Z</time></trkpt><trkpt lat="44.902638621716704" lon="7.986966070430104"><ele>192.0</ele><time>2026-04-19T09:17:22.001Z</time></trkpt><trkpt lat="44.902573961293484" lon="7.986840931072037"><ele>192.75</ele><time>2026-04-19T09:17:23.001Z</time></trkpt><trkpt lat="44.90249790613446" lon="7.986709563453572"><ele>193.5</ele><time>2026-04-19T09:17:24.001Z</time></trkpt><trkpt lat="44.902419562381596" lon="7.9866042324404445"><ele>194.25</ele><time>2026-04-19T09:17:25.001Z</time></trkpt><trkpt lat="44.90232588137612" lon="7.986518854122216"><ele>195.0</ele><time>2026-04-19T09:17:26.001Z</time></trkpt><trkpt lat="44.90221909475889" lon="7.986451667064782"><ele>195.0</ele><time>2026-04-19T09:17:27.001Z</time></trkpt><trkpt lat="44.90210801499737" lon="7.986390114541519"><ele>195.0</ele><time>2026-04-19T09:17:28.001Z</time></trkpt><trkpt lat="44.9019946393764" lon="7.986331014327252"><ele>195.0</ele><time>2026-04-19T09:17:29.001Z</time></trkpt><trkpt lat="44.90188391541631" lon="7.98625865610733"><ele>195.0</ele><time>2026-04-19T09:17:30.001Z</time></trkpt><trkpt lat="44.9017768118849" lon="7.986192129397061"><ele>194.75</ele><time>2026-04-19T09:17:31.001Z</time></trkpt><trkpt lat="44.901677477149" lon="7.986112808144737"><ele>194.5</ele><time>2026-04-19T09:17:32.001Z</time></trkpt><trkpt lat="44.90157525660597" lon="7.986018623582155"><ele>194.25</ele><time>2026-04-19T09:17:33.001Z</time></trkpt><trkpt lat="44.901479047114385" lon="7.985911174390794"><ele>194.0</ele><time>2026-04-19T09:17:34.001Z</time></trkpt><trkpt lat="44.901378074072774" lon="7.985830528733963"><ele>194.0</ele><time>2026-04-19T09:17:35.001Z</time></trkpt><trkpt lat="44.90126540430659" lon="7.985758415052883"><ele>194.0</ele><time>2026-04-19T09:17:36.001Z</time></trkpt><trkpt lat="44.901148611869125" lon="7.985712443563627"><ele>194.0</ele><time>2026-04-19T09:17:37.001Z</time></trkpt><trkpt lat="44.90102820789685" lon="7.985678048881232"><ele>194.0</ele><time>2026-04-19T09:17:38.001Z</time></trkpt><trkpt lat="44.90090868456136" lon="7.9856285194437095"><ele>196.5</ele><time>2026-04-19T09:17:39.001Z</time></trkpt><trkpt lat="44.9007912504388" lon="7.9855648219000415"><ele>199.0</ele><time>2026-04-19T09:17:40.001Z</time></trkpt><trkpt lat="44.90067364115712" lon="7.985492191745052"><ele>201.5</ele><time>2026-04-19T09:17:41.001Z</time></trkpt><trkpt lat="44.900556484460374" lon="7.985416485351473"><ele>204.0</ele><time>2026-04-19T09:17:42.001Z</time></trkpt><trkpt lat="44.900447783185136" lon="7.985336946432003"><ele>204.0</ele><time>2026-04-19T09:17:43.001Z</time></trkpt><trkpt lat="44.900348915866104" lon="7.9852899356733555"><ele>204.0</ele><time>2026-04-19T09:17:44.001Z</time></trkpt><trkpt lat="44.9002462591078" lon="7.985262802840199"><ele>204.0</ele><time>2026-04-19T09:17:45.001Z</time></trkpt><trkpt lat="44.90013787058367" lon="7.985257071631776"><ele>204.0</ele><time>2026-04-19T09:17:46.001Z</time></trkpt><trkpt lat="44.90001991865134" lon="7.9852568438077745"><ele>204.0</ele><time>2026-04-19T09:17:47.001Z</time></trkpt><trkpt lat="44.89989646749107" lon="7.985265481718087"><ele>203.79999999999998</ele><time>2026-04-19T09:17:48.001Z</time></trkpt><trkpt lat="44.89977923070193" lon="7.9852621042055185"><ele>203.6</ele><time>2026-04-19T09:17:49.001Z</time></trkpt><trkpt lat="44.89967529742926" lon="7.985248106564772"><ele>203.4</ele><time>2026-04-19T09:17:50.001Z</time></trkpt><trkpt lat="44.89958497835806" lon="7.985216505448117"><ele>203.2</ele><time>2026-04-19T09:17:51.001Z</time></trkpt><trkpt lat="44.899496209401704" lon="7.985169531419582"><ele>203.0</ele><time>2026-04-19T09:17:52.001Z</time></trkpt><trkpt lat="44.89939086326694" lon="7.98511175738384"><ele>203.0</ele><time>2026-04-19T09:17:53.001Z</time></trkpt><trkpt lat="44.899279792125284" lon="7.985064901859536"><ele>203.0</ele><time>2026-04-19T09:17:54.001Z</time></trkpt><trkpt lat="44.899154821416815" lon="7.985005596910079"><ele>203.0</ele><time>2026-04-19T09:17:55.001Z</time></trkpt><trkpt lat="44.899033283262376" lon="7.984931255757124"><ele>203.0</ele><time>2026-04-19T09:17:56.001Z</time></trkpt><trkpt lat="44.89891317850556" lon="7.984872953772195"><ele>202.25</ele><time>2026-04-19T09:17:57.001Z</time></trkpt><trkpt lat="44.89879014641888" lon="7.984800670191306"><ele>201.5</ele><time>2026-04-19T09:17:58Z</time></trkpt><trkpt lat="44.898693807289106" lon="7.984721373654204"><ele>200.75</ele><time>2026-04-19T09:17:59Z</time></trkpt><trkpt lat="44.89862067581164" lon="7.984609974223844"><ele>200.0</ele><time>2026-04-19T09:18:00Z</time></trkpt><trkpt lat="44.89854969223604" lon="7.9844893555917915"><ele>200.0</ele><time>2026-04-19T09:18:01Z</time></trkpt><trkpt lat="44.898465269541376" lon="7.984342988518134"><ele>200.0</ele><time>2026-04-19T09:18:02Z</time></trkpt><trkpt lat="44.89838030174263" lon="7.984249220261734"><ele>200.0</ele><time>2026-04-19T09:18:03Z</time></trkpt><trkpt lat="44.89828504765385" lon="7.98419421367156"><ele>200.0</ele><time>2026-04-19T09:18:04Z</time></trkpt><trkpt lat="44.89819150015426" lon="7.984159556660918"><ele>200.0</ele><time>2026-04-19T09:18:05Z</time></trkpt><trkpt lat="44.898116855587844" lon="7.984012596869934"><ele>200.4</ele><time>2026-04-19T09:18:06Z</time></trkpt><trkpt lat="44.8982109177395" lon="7.983923428589649"><ele>200.8</ele><time>2026-04-19T09:18:11Z</time></trkpt><trkpt lat="44.89830233289978" lon="7.9839179264707765"><ele>201.2</ele><time>2026-04-19T09:18:12Z</time></trkpt><trkpt lat="44.89839645942895" lon="7.98386814738742"><ele>201.6</ele><time>2026-04-19T09:18:13Z</time></trkpt><trkpt lat="44.89848730967415" lon="7.983806908004416"><ele>202.0</ele><time>2026-04-19T09:18:14Z</time></trkpt><trkpt lat="44.89858719456259" lon="7.983730734081134"><ele>200.25</ele><time>2026-04-19T09:18:15Z</time></trkpt><trkpt lat="44.89870086529773" lon="7.9836163502555015"><ele>198.5</ele><time>2026-04-19T09:18:16Z</time></trkpt><trkpt lat="44.89877003903974" lon="7.983487122187943"><ele>196.75</ele><time>2026-04-19T09:18:17Z</time></trkpt><trkpt lat="44.898826181306774" lon="7.983348021525234"><ele>195.0</ele><time>2026-04-19T09:18:18Z</time></trkpt><trkpt lat="44.89888014966487" lon="7.983192838375374"><ele>194.5</ele><time>2026-04-19T09:18:19Z</time></trkpt><trkpt lat="44.89894997432253" lon="7.983040251348263"><ele>194.0</ele><time>2026-04-19T09:18:20Z</time></trkpt><trkpt lat="44.89901905124812" lon="7.98288356705303"><ele>193.5</ele><time>2026-04-19T09:18:21Z</time></trkpt><trkpt lat="44.89908976415307" lon="7.9827269395617515"><ele>193.0</ele><time>2026-04-19T09:18:22Z</time></trkpt><trkpt lat="44.89915199287656" lon="7.982564539563569"><ele>193.25</ele><time>2026-04-19T09:18:23Z</time></trkpt><trkpt lat="44.899211914833174" lon="7.982397841503786"><ele>193.5</ele><time>2026-04-19T09:18:24Z</time></trkpt><trkpt lat="44.8992803180812" lon="7.982229555140521"><ele>193.75</ele><time>2026-04-19T09:18:25Z</time></trkpt><trkpt lat="44.899339086862604" lon="7.982065974581307"><ele>194.0</ele><time>2026-04-19T09:18:26Z</time></trkpt><trkpt lat="44.899409048476244" lon="7.981921718196693"><ele>193.5</ele><time>2026-04-19T09:18:27Z</time></trkpt><trkpt lat="44.8994725086049" lon="7.981763927397508"><ele>193.0</ele><time>2026-04-19T09:18:28Z</time></trkpt><trkpt lat="44.89953482127969" lon="7.98160898969845"><ele>192.5</ele><time>2026-04-19T09:18:29Z</time></trkpt><trkpt lat="44.89959504712293" lon="7.981441085039624"><ele>192.0</ele><time>2026-04-19T09:18:30Z</time></trkpt><trkpt lat="44.899658397447105" lon="7.981272894966802"><ele>193.5</ele><time>2026-04-19T09:18:31Z</time></trkpt><trkpt lat="44.89971882118259" lon="7.981105387236497"><ele>195.0</ele><time>2026-04-19T09:18:32Z</time></trkpt><trkpt lat="44.89979320365463" lon="7.980966533371921"><ele>196.5</ele><time>2026-04-19T09:18:33Z</time></trkpt><trkpt lat="44.899852840091164" lon="7.980818327653523"><ele>198.0</ele><time>2026-04-19T09:18:34Z</time></trkpt><trkpt lat="44.89991261275805" lon="7.980669820842599"><ele>198.4</ele><time>2026-04-19T09:18:35Z</time></trkpt><trkpt lat="44.899960799439086" lon="7.980550099713045"><ele>198.8</ele><time>2026-04-19T09:18:36Z</time></trkpt><trkpt lat="44.90000418715001" lon="7.980442301778878"><ele>199.2</ele><time>2026-04-19T09:18:37Z</time></trkpt><trkpt lat="44.9000419589357" lon="7.98034845675656"><ele>199.6</ele><time>2026-04-19T09:18:38Z</time></trkpt><trkpt lat="44.90007380404218" lon="7.9802684540071045"><ele>200.0</ele><time>2026-04-19T09:18:39Z</time></trkpt><trkpt lat="44.89991960648268" lon="7.980059902688838"><ele>200.75</ele><time>2026-04-19T09:18:40Z</time></trkpt><trkpt lat="44.89984417007987" lon="7.979941243741633"><ele>201.5</ele><time>2026-04-19T09:18:41Z</time></trkpt><trkpt lat="44.89974909460226" lon="7.979831847518415"><ele>202.25</ele><time>2026-04-19T09:18:42Z</time></trkpt><trkpt lat="44.89963736130598" lon="7.979781893558855"><ele>203.0</ele><time>2026-04-19T09:18:43Z</time></trkpt><trkpt lat="44.89952955626773" lon="7.979730570473399"><ele>203.0</ele><time>2026-04-19T09:18:44Z</time></trkpt><trkpt lat="44.899415205797396" lon="7.979686281005273"><ele>203.0</ele><time>2026-04-19T09:18:45Z</time></trkpt><trkpt lat="44.89930332752648" lon="7.9796439033362345"><ele>203.0</ele><time>2026-04-19T09:18:46Z</time></trkpt><trkpt lat="44.89918802278831" lon="7.979597881857873"><ele>203.0</ele><time>2026-04-19T09:18:47Z</time></trkpt><trkpt lat="44.899077466138955" lon="7.979573154538827"><ele>202.0</ele><time>2026-04-19T09:18:48Z</time></trkpt><trkpt lat="44.89896971044576" lon="7.979591879997233"><ele>201.0</ele><time>2026-04-19T09:18:49Z</time></trkpt><trkpt lat="44.89886156316275" lon="7.979616816769647"><ele>200.0</ele><time>2026-04-19T09:18:50Z</time></trkpt><trkpt lat="44.89880344078781" lon="7.979770113494588"><ele>199.0</ele><time>2026-04-19T09:18:51Z</time></trkpt><trkpt lat="44.898714196519876" lon="7.979829593778241"><ele>198.0</ele><time>2026-04-19T09:18:52Z</time></trkpt><trkpt lat="44.898631121346305" lon="7.979930378243284"><ele>198.0</ele><time>2026-04-19T09:18:53Z</time></trkpt><trkpt lat="44.8985293105501" lon="7.97996024131132"><ele>198.0</ele><time>2026-04-19T09:18:54Z</time></trkpt><trkpt lat="44.89840488228318" lon="7.979991037268331"><ele>198.0</ele><time>2026-04-19T09:18:55Z</time></trkpt><trkpt lat="44.89828333905836" lon="7.98000463498057"><ele>198.0</ele><time>2026-04-19T09:18:56Z</time></trkpt><trkpt lat="44.89814516089102" lon="7.980012982144708"><ele>197.5</ele><time>2026-04-19T09:18:57Z</time></trkpt><trkpt lat="44.898000913300315" lon="7.980017964032716"><ele>197.0</ele><time>2026-04-19T09:18:58Z</time></trkpt><trkpt lat="44.89784713411573" lon="7.980049294808926"><ele>196.5</ele><time>2026-04-19T09:18:59Z</time></trkpt><trkpt lat="44.89771284567012" lon="7.980058835873763"><ele>196.0</ele><time>2026-04-19T09:19:00Z</time></trkpt><trkpt lat="44.89756026811177" lon="7.980068129578585"><ele>196.0</ele><time>2026-04-19T09:19:01Z</time></trkpt><trkpt lat="44.897414752442" lon="7.98008980903916"><ele>196.0</ele><time>2026-04-19T09:19:02Z</time></trkpt><trkpt lat="44.89728158509297" lon="7.980113644878751"><ele>196.0</ele><time>2026-04-19T09:19:03Z</time></trkpt><trkpt lat="44.897147241833494" lon="7.980130044327149"><ele>196.0</ele><time>2026-04-19T09:19:04Z</time></trkpt><trkpt lat="44.89700015788491" lon="7.980151003113296"><ele>196.0</ele><time>2026-04-19T09:19:05Z</time></trkpt><trkpt lat="44.89688899165023" lon="7.980186036580468"><ele>196.0</ele><time>2026-04-19T09:19:06Z</time></trkpt><trkpt lat="44.89677743966573" lon="7.980203302952385"><ele>196.0</ele><time>2026-04-19T09:19:07Z</time></trkpt><trkpt lat="44.89668217024815" lon="7.980185199609213"><ele>196.0</ele><time>2026-04-19T09:19:08Z</time></trkpt><trkpt lat="44.89657803839281" lon="7.980152520482273"><ele>196.0</ele><time>2026-04-19T09:19:09Z</time></trkpt><trkpt lat="44.89648047394098" lon="7.980120415486335"><ele>197.8</ele><time>2026-04-19T09:19:10Z</time></trkpt><trkpt lat="44.896422651217016" lon="7.979991767382003"><ele>199.60000000000002</ele><time>2026-04-19T09:19:11.001Z</time></trkpt><trkpt lat="44.89638172079481" lon="7.979869510111007"><ele>201.4</ele><time>2026-04-19T09:19:12.001Z</time></trkpt><trkpt lat="44.89633319609724" lon="7.979736714829565"><ele>203.2</ele><time>2026-04-19T09:19:13.001Z</time></trkpt><trkpt lat="44.89627613195148" lon="7.979596764693428"><ele>205.0</ele><time>2026-04-19T09:19:14.001Z</time></trkpt><trkpt lat="44.896215419159" lon="7.9794835093337175"><ele>204.99999999999997</ele><time>2026-04-19T09:19:15.001Z</time></trkpt><trkpt lat="44.896185342930444" lon="7.9793594398608905"><ele>205.0</ele><time>2026-04-19T09:19:16.001Z</time></trkpt><trkpt lat="44.89615931787526" lon="7.979277472211336"><ele>205.0</ele><time>2026-04-19T09:19:17.001Z</time></trkpt><trkpt lat="44.89613319971347" lon="7.9791900954372945"><ele>205.0</ele><time>2026-04-19T09:19:18.001Z</time></trkpt><trkpt lat="44.89610543492708" lon="7.9790933041964385"><ele>204.99999999999997</ele><time>2026-04-19T09:19:19.001Z</time></trkpt><trkpt lat="44.896080426552345" lon="7.978988421790448"><ele>205.0</ele><time>2026-04-19T09:19:20.001Z</time></trkpt><trkpt lat="44.896054400051874" lon="7.978850800356465"><ele>207.2</ele><time>2026-04-19T09:19:21.001Z</time></trkpt><trkpt lat="44.89603481528937" lon="7.978708839244267"><ele>209.4</ele><time>2026-04-19T09:19:22.001Z</time></trkpt><trkpt lat="44.896032233710244" lon="7.978582686588734"><ele>211.60000000000002</ele><time>2026-04-19T09:19:23.001Z</time></trkpt><trkpt lat="44.896025054941475" lon="7.978406844062925"><ele>213.8</ele><time>2026-04-19T09:19:24.001Z</time></trkpt><trkpt lat="44.89601689914504" lon="7.97825976525278"><ele>216.0</ele><time>2026-04-19T09:19:25.001Z</time></trkpt><trkpt lat="44.8960085959674" lon="7.978110028907993"><ele>216.25</ele><time>2026-04-19T09:19:26.001Z</time></trkpt><trkpt lat="44.89598646861649" lon="7.97793159304091"><ele>216.5</ele><time>2026-04-19T09:19:27.001Z</time></trkpt><trkpt lat="44.895962301284" lon="7.977767500887412"><ele>216.75</ele><time>2026-04-19T09:19:28.001Z</time></trkpt><trkpt lat="44.895936944404035" lon="7.977621783890155"><ele>217.0</ele><time>2026-04-19T09:19:29.001Z</time></trkpt><trkpt lat="44.89590860791507" lon="7.977480091675987"><ele>217.0</ele><time>2026-04-19T09:19:30.001Z</time></trkpt><trkpt lat="44.89525348861746" lon="7.977406278132621"><ele>217.0</ele><time>2026-04-19T09:19:31.001Z</time></trkpt><trkpt lat="44.89517913680695" lon="7.977272537898536"><ele>217.0</ele><time>2026-04-19T09:19:32.001Z</time></trkpt><trkpt lat="44.89510350106136" lon="7.977144565078276"><ele>217.0</ele><time>2026-04-19T09:19:33.001Z</time></trkpt><trkpt lat="44.89505470261586" lon="7.97696639960164"><ele>217.0</ele><time>2026-04-19T09:19:34.001Z</time></trkpt><trkpt lat="44.8950247729411" lon="7.976816394139405"><ele>216.0</ele><time>2026-04-19T09:19:35.001Z</time></trkpt><trkpt lat="44.894967513410585" lon="7.976708099922218"><ele>215.0</ele><time>2026-04-19T09:19:36.001Z</time></trkpt><trkpt lat="44.89488097095003" lon="7.976607378590265"><ele>214.0</ele><time>2026-04-19T09:19:37.001Z</time></trkpt><trkpt lat="44.89479226643888" lon="7.97651468760989"><ele>213.0</ele><time>2026-04-19T09:19:38.001Z</time></trkpt><trkpt lat="44.89466984173365" lon="7.976429593359969"><ele>213.0</ele><time>2026-04-19T09:19:39.001Z</time></trkpt><trkpt lat="44.894555377102094" lon="7.976354781114324"><ele>213.0</ele><time>2026-04-19T09:19:40.001Z</time></trkpt><trkpt lat="44.89445206655662" lon="7.976278144916756"><ele>213.0</ele><time>2026-04-19T09:19:41.001Z</time></trkpt><trkpt lat="44.8943467746168" lon="7.976201929989975"><ele>213.0</ele><time>2026-04-19T09:19:42.001Z</time></trkpt><trkpt lat="44.89424132677812" lon="7.976126792184262"><ele>210.8</ele><time>2026-04-19T09:19:43.001Z</time></trkpt><trkpt lat="44.89415699923919" lon="7.976064057777791"><ele>208.60000000000002</ele><time>2026-04-19T09:19:44.001Z</time></trkpt><trkpt lat="44.89408953127478" lon="7.976022559126457"><ele>206.39999999999998</ele><time>2026-04-19T09:19:45.001Z</time></trkpt><trkpt lat="44.89398880386873" lon="7.975963185869254"><ele>204.2</ele><time>2026-04-19T09:19:47.001Z</time></trkpt><trkpt lat="44.893917328481685" lon="7.975908878401049"><ele>202.0</ele><time>2026-04-19T09:19:50.001Z</time></trkpt><trkpt lat="44.893814243053455" lon="7.975880126184356"><ele>201.99999999999997</ele><time>2026-04-19T09:19:52.001Z</time></trkpt><trkpt lat="44.89373577091647" lon="7.975860943856658"><ele>202.0</ele><time>2026-04-19T09:19:53.001Z</time></trkpt><trkpt lat="44.89367021901724" lon="7.975819689558045"><ele>202.0</ele><time>2026-04-19T09:19:54.001Z</time></trkpt><trkpt lat="44.89358423790569" lon="7.975768055352013"><ele>202.0</ele><time>2026-04-19T09:19:55.001Z</time></trkpt><trkpt lat="44.89351062782534" lon="7.97570515184799"><ele>201.99999999999997</ele><time>2026-04-19T09:19:56.001Z</time></trkpt><trkpt lat="44.893438920205156" lon="7.975626631198575"><ele>202.0</ele><time>2026-04-19T09:19:57.001Z</time></trkpt><trkpt lat="44.89332746693051" lon="7.975530863459543"><ele>203.49999999999997</ele><time>2026-04-19T09:19:58.001Z</time></trkpt><trkpt lat="44.893252549423494" lon="7.975480920470696"><ele>205.0</ele><time>2026-04-19T09:19:59.001Z</time></trkpt><trkpt lat="44.89319371580426" lon="7.975408448438692"><ele>206.5</ele><time>2026-04-19T09:20:00.001Z</time></trkpt><trkpt lat="44.89309887495483" lon="7.975357547094987"><ele>208.0</ele><time>2026-04-19T09:20:01.001Z</time></trkpt><trkpt lat="44.89302371411168" lon="7.975316149474459"><ele>209.49999999999997</ele><time>2026-04-19T09:20:02.001Z</time></trkpt><trkpt lat="44.892940650169294" lon="7.975263678063405"><ele>211.0</ele><time>2026-04-19T09:20:03.001Z</time></trkpt><trkpt lat="44.8928609117366" lon="7.975212923791753"><ele>211.0</ele><time>2026-04-19T09:20:04Z</time></trkpt><trkpt lat="44.89277074031179" lon="7.975168750097571"><ele>211.0</ele><time>2026-04-19T09:20:05Z</time></trkpt><trkpt lat="44.89269295424705" lon="7.975122874887727"><ele>211.0</ele><time>2026-04-19T09:20:06Z</time></trkpt><trkpt lat="44.89261129729283" lon="7.975072803372193"><ele>211.0</ele><time>2026-04-19T09:20:07Z</time></trkpt><trkpt lat="44.892521768107905" lon="7.975021301794016"><ele>211.0</ele><time>2026-04-19T09:20:08Z</time></trkpt><trkpt lat="44.89242253922831" lon="7.974964875278629"><ele>213.60000000000002</ele><time>2026-04-19T09:20:09Z</time></trkpt><trkpt lat="44.89234809876097" lon="7.974921180919758"><ele>216.2</ele><time>2026-04-19T09:20:10Z</time></trkpt><trkpt lat="44.892207901499944" lon="7.974863129329529"><ele>218.79999999999998</ele><time>2026-04-19T09:20:12Z</time></trkpt><trkpt lat="44.8921506102761" lon="7.97479824753977"><ele>221.39999999999998</ele><time>2026-04-19T09:20:13Z</time></trkpt><trkpt lat="44.89207043773787" lon="7.97475874076182"><ele>224.0</ele><time>2026-04-19T09:20:14Z</time></trkpt><trkpt lat="44.89195112139603" lon="7.9746679108338565"><ele>224.0</ele><time>2026-04-19T09:20:16Z</time></trkpt><trkpt lat="44.89186799528191" lon="7.974631073681052"><ele>223.99999999999997</ele><time>2026-04-19T09:20:17Z</time></trkpt><trkpt lat="44.89181780374681" lon="7.974547499291613"><ele>223.99999999999997</ele><time>2026-04-19T09:20:18Z</time></trkpt><trkpt lat="44.89175931283169" lon="7.974458164305863"><ele>224.0</ele><time>2026-04-19T09:20:19Z</time></trkpt><trkpt lat="44.89166114532737" lon="7.974401395211768"><ele>224.0</ele><time>2026-04-19T09:20:20Z</time></trkpt><trkpt lat="44.89157558473985" lon="7.974340106537488"><ele>224.39999999999998</ele><time>2026-04-19T09:20:21Z</time></trkpt><trkpt lat="44.891601508261154" lon="7.9741924138306794"><ele>224.79999999999998</ele><time>2026-04-19T09:20:23Z</time></trkpt><trkpt lat="44.89168938320609" lon="7.974108536846471"><ele>225.20000000000002</ele><time>2026-04-19T09:20:25Z</time></trkpt><trkpt lat="44.891794159847834" lon="7.973994957520889"><ele>225.60000000000002</ele><time>2026-04-19T09:20:27Z</time></trkpt><trkpt lat="44.891850739158905" lon="7.97395441604993"><ele>226.0</ele><time>2026-04-19T09:20:28Z</time></trkpt><trkpt lat="44.89191790946088" lon="7.973904718845848"><ele>227.83333333333331</ele><time>2026-04-19T09:20:29Z</time></trkpt><trkpt lat="44.89198647382661" lon="7.9738519834056625"><ele>229.66666666666666</ele><time>2026-04-19T09:20:30Z</time></trkpt><trkpt lat="44.8920595680651" lon="7.973777468311276"><ele>231.5</ele><time>2026-04-19T09:20:31Z</time></trkpt><trkpt lat="44.89214647719733" lon="7.973717383222054"><ele>233.33333333333331</ele><time>2026-04-19T09:20:32Z</time></trkpt><trkpt lat="44.892220621877264" lon="7.973651210345299"><ele>235.16666666666666</ele><time>2026-04-19T09:20:33Z</time></trkpt><trkpt lat="44.89229708818422" lon="7.973568952097335"><ele>237.0</ele><time>2026-04-19T09:20:34Z</time></trkpt><trkpt lat="44.89241229789743" lon="7.973451959257136"><ele>239.16666666666666</ele><time>2026-04-19T09:20:36Z</time></trkpt><trkpt lat="44.89248365305512" lon="7.9733412374848704"><ele>241.33333333333331</ele><time>2026-04-19T09:20:37Z</time></trkpt><trkpt lat="44.89255105004763" lon="7.973291505506456"><ele>243.5</ele><time>2026-04-19T09:20:38Z</time></trkpt><trkpt lat="44.89264611265176" lon="7.973281248420614"><ele>245.66666666666666</ele><time>2026-04-19T09:20:40Z</time></trkpt><trkpt lat="44.89266260353304" lon="7.973156043837151"><ele>247.83333333333331</ele><time>2026-04-19T09:20:43Z</time></trkpt><trkpt lat="44.89268212955299" lon="7.973059497388777"><ele>250.0</ele><time>2026-04-19T09:20:44Z</time></trkpt><trkpt lat="44.89279073776011" lon="7.97296727925454"><ele>251.0</ele><time>2026-04-19T09:20:47Z</time></trkpt><trkpt lat="44.89288081384448" lon="7.972907868648414"><ele>252.0</ele><time>2026-04-19T09:20:48Z</time></trkpt><trkpt lat="44.892951391353854" lon="7.972818087697402"><ele>253.0</ele><time>2026-04-19T09:20:49Z</time></trkpt><trkpt lat="44.892987557605345" lon="7.972735231410309"><ele>254.0</ele><time>2026-04-19T09:20:50Z</time></trkpt><trkpt lat="44.89304035203842" lon="7.972658537868643"><ele>255.0</ele><time>2026-04-19T09:20:51Z</time></trkpt><trkpt lat="44.89297014004763" lon="7.9725064288316565"><ele>255.6</ele><time>2026-04-19T09:20:53Z</time></trkpt><trkpt lat="44.89295454147195" lon="7.972393623977548"><ele>256.2</ele><time>2026-04-19T09:20:54Z</time></trkpt><trkpt lat="44.89293426876716" lon="7.972274066136673"><ele>256.8</ele><time>2026-04-19T09:20:55Z</time></trkpt><trkpt lat="44.89290909571658" lon="7.972083867348113"><ele>257.4</ele><time>2026-04-19T09:20:56Z</time></trkpt><trkpt lat="44.892920486863396" lon="7.971905622877537"><ele>258.0</ele><time>2026-04-19T09:20:57Z</time></trkpt><trkpt lat="44.89293808653821" lon="7.971781562496339"><ele>258.6</ele><time>2026-04-19T09:20:58Z</time></trkpt><trkpt lat="44.89296831578558" lon="7.971637609254533"><ele>259.20000000000005</ele><time>2026-04-19T09:20:59Z</time></trkpt><trkpt lat="44.892999299203105" lon="7.971507453535894"><ele>259.8</ele><time>2026-04-19T09:21:00Z</time></trkpt><trkpt lat="44.89302733388323" lon="7.971382286780766"><ele>260.40000000000003</ele><time>2026-04-19T09:21:01Z</time></trkpt><trkpt lat="44.89303674672748" lon="7.971275644213552"><ele>261.0</ele><time>2026-04-19T09:21:02Z</time></trkpt><trkpt lat="44.89303149326207" lon="7.971119827814381"><ele>261.0</ele><time>2026-04-19T09:21:03Z</time></trkpt><trkpt lat="44.893014487110634" lon="7.970981051281539"><ele>261.0</ele><time>2026-04-19T09:21:04Z</time></trkpt><trkpt lat="44.89296456288939" lon="7.970838483637067"><ele>261.0</ele><time>2026-04-19T09:21:05Z</time></trkpt><trkpt lat="44.89291993318152" lon="7.9706996203999125"><ele>261.0</ele><time>2026-04-19T09:21:06Z</time></trkpt><trkpt lat="44.892887273012775" lon="7.970541899033714"><ele>261.0</ele><time>2026-04-19T09:21:07Z</time></trkpt><trkpt lat="44.8928380059581" lon="7.9704012931420944"><ele>261.25</ele><time>2026-04-19T09:21:08Z</time></trkpt><trkpt lat="44.89279902193729" lon="7.970232482076991"><ele>261.5</ele><time>2026-04-19T09:21:09Z</time></trkpt><trkpt lat="44.892751169658666" lon="7.970078523585404"><ele>261.75</ele><time>2026-04-19T09:21:10Z</time></trkpt><trkpt lat="44.892689158417596" lon="7.969937671429339"><ele>262.0</ele><time>2026-04-19T09:21:11Z</time></trkpt><trkpt lat="44.89263211009432" lon="7.9698363662946665"><ele>263.2</ele><time>2026-04-19T09:21:12Z</time></trkpt><trkpt lat="44.89255621960206" lon="7.969772491339801"><ele>264.4</ele><time>2026-04-19T09:21:13Z</time></trkpt><trkpt lat="44.892458143937354" lon="7.969746413596512"><ele>265.6</ele><time>2026-04-19T09:21:14Z</time></trkpt><trkpt lat="44.89235686836361" lon="7.969737625616754"><ele>266.8</ele><time>2026-04-19T09:21:15Z</time></trkpt><trkpt lat="44.89225802573514" lon="7.969704544487488"><ele>268.0</ele><time>2026-04-19T09:21:16Z</time></trkpt><trkpt lat="44.8921494667623" lon="7.969650794558014"><ele>268.0</ele><time>2026-04-19T09:21:17Z</time></trkpt><trkpt lat="44.892052264254964" lon="7.969591858068385"><ele>268.0</ele><time>2026-04-19T09:21:18Z</time></trkpt><trkpt lat="44.89196412316528" lon="7.9695181949097025"><ele>268.0</ele><time>2026-04-19T09:21:19Z</time></trkpt><trkpt lat="44.89187408623201" lon="7.969396782566432"><ele>268.0</ele><time>2026-04-19T09:21:20Z</time></trkpt><trkpt lat="44.89178074016033" lon="7.969300373460241"><ele>268.0</ele><time>2026-04-19T09:21:21Z</time></trkpt><trkpt lat="44.89169858805327" lon="7.969188251194648"><ele>267.75</ele><time>2026-04-19T09:21:22Z</time></trkpt><trkpt lat="44.89162737968702" lon="7.969096058394823"><ele>267.5</ele><time>2026-04-19T09:21:23Z</time></trkpt><trkpt lat="44.89148983030114" lon="7.969024840453049"><ele>267.25</ele><time>2026-04-19T09:21:25Z</time></trkpt><trkpt lat="44.89139280902634" lon="7.969048863697198"><ele>267.0</ele><time>2026-04-19T09:21:26Z</time></trkpt><trkpt lat="44.89127952742507" lon="7.9690741192021095"><ele>267.0</ele><time>2026-04-19T09:21:27.001Z</time></trkpt><trkpt lat="44.89115994296265" lon="7.9691169401510855"><ele>267.0</ele><time>2026-04-19T09:21:28.001Z</time></trkpt><trkpt lat="44.891036627732866" lon="7.969170244830664"><ele>267.0</ele><time>2026-04-19T09:21:29.001Z</time></trkpt><trkpt lat="44.89090702445825" lon="7.969228319156371"><ele>267.0</ele><time>2026-04-19T09:21:30.001Z</time></trkpt><trkpt lat="44.890778915731275" lon="7.969285656801071"><ele>266.4</ele><time>2026-04-19T09:21:31.001Z</time></trkpt><trkpt lat="44.89065724839778" lon="7.9693339810283135"><ele>265.79999999999995</ele><time>2026-04-19T09:21:32.001Z</time></trkpt><trkpt lat="44.890563696522214" lon="7.969379363175678"><ele>265.2</ele><time>2026-04-19T09:21:33.001Z</time></trkpt><trkpt lat="44.890459042504474" lon="7.969438738407969"><ele>264.59999999999997</ele><time>2026-04-19T09:21:34.001Z</time></trkpt><trkpt lat="44.89036062404227" lon="7.969510700474203"><ele>264.0</ele><time>2026-04-19T09:21:35.001Z</time></trkpt><trkpt lat="44.8902777154289" lon="7.969608224417112"><ele>264.0</ele><time>2026-04-19T09:21:36.001Z</time></trkpt><trkpt lat="44.8901910117363" lon="7.96972091489979"><ele>264.0</ele><time>2026-04-19T09:21:37.001Z</time></trkpt><trkpt lat="44.8900799146896" lon="7.9697833271439364"><ele>264.0</ele><time>2026-04-19T09:21:38.001Z</time></trkpt><trkpt lat="44.88997119599215" lon="7.969853157716541"><ele>264.0</ele><time>2026-04-19T09:21:39.001Z</time></trkpt><trkpt lat="44.88988247102242" lon="7.969906232671855"><ele>263.25</ele><time>2026-04-19T09:21:40.001Z</time></trkpt><trkpt lat="44.889780138252" lon="7.969938952817827"><ele>262.5</ele><time>2026-04-19T09:21:41.001Z</time></trkpt><trkpt lat="44.889672100135144" lon="7.969986130440629"><ele>261.75</ele><time>2026-04-19T09:21:42.001Z</time></trkpt><trkpt lat="44.88956300120306" lon="7.970015841120132"><ele>261.0</ele><time>2026-04-19T09:21:43.001Z</time></trkpt><trkpt lat="44.8894327946035" lon="7.970059006893806"><ele>261.0</ele><time>2026-04-19T09:21:44.001Z</time></trkpt><trkpt lat="44.889300120970695" lon="7.970094784700463"><ele>261.0</ele><time>2026-04-19T09:21:45.001Z</time></trkpt><trkpt lat="44.88920760884538" lon="7.970135881795737"><ele>261.0</ele><time>2026-04-19T09:21:46.001Z</time></trkpt><trkpt lat="44.889132319666494" lon="7.97014896013532"><ele>261.0</ele><time>2026-04-19T09:21:48.001Z</time></trkpt><trkpt lat="44.88903354985145" lon="7.970241992135859"><ele>261.0</ele><time>2026-04-19T09:21:51.001Z</time></trkpt><trkpt lat="44.888956290808125" lon="7.970288288383368"><ele>264.0</ele><time>2026-04-19T09:21:52.001Z</time></trkpt><trkpt lat="44.88887746727669" lon="7.970353621532751"><ele>267.0</ele><time>2026-04-19T09:21:53.001Z</time></trkpt><trkpt lat="44.88879892097417" lon="7.970416781953699"><ele>270.0</ele><time>2026-04-19T09:21:54.001Z</time></trkpt><trkpt lat="44.88871861049546" lon="7.970501731806166"><ele>273.0</ele><time>2026-04-19T09:21:55.001Z</time></trkpt><trkpt lat="44.88862289575311" lon="7.9705756359581486"><ele>276.0</ele><time>2026-04-19T09:21:56.001Z</time></trkpt><trkpt lat="44.88852302970337" lon="7.970640039800341"><ele>277.5</ele><time>2026-04-19T09:21:57.001Z</time></trkpt><trkpt lat="44.888418542869196" lon="7.97070499839053"><ele>279.0</ele><time>2026-04-19T09:21:58.001Z</time></trkpt><trkpt lat="44.88837598224921" lon="7.970774126289313"><ele>280.5</ele><time>2026-04-19T09:21:59.001Z</time></trkpt><trkpt lat="44.888309956933476" lon="7.970777907859959"><ele>282.0</ele><time>2026-04-19T09:22:01.001Z</time></trkpt><trkpt lat="44.88828559819913" lon="7.970690114919595"><ele>283.5</ele><time>2026-04-19T09:22:02.001Z</time></trkpt><trkpt lat="44.888300571019386" lon="7.970573599126164"><ele>285.0</ele><time>2026-04-19T09:22:03.001Z</time></trkpt><trkpt lat="44.88826515390505" lon="7.97043539000908"><ele>285.0</ele><time>2026-04-19T09:22:04.001Z</time></trkpt><trkpt lat="44.88823547772531" lon="7.970266082448699"><ele>285.0</ele><time>2026-04-19T09:22:05.001Z</time></trkpt><trkpt lat="44.88820111559923" lon="7.9700944958391124"><ele>285.0</ele><time>2026-04-19T09:22:06.001Z</time></trkpt><trkpt lat="44.888166759861946" lon="7.969919274779736"><ele>285.0</ele><time>2026-04-19T09:22:07.001Z</time></trkpt><trkpt lat="44.88813293200046" lon="7.96973463416878"><ele>285.0</ele><time>2026-04-19T09:22:08.001Z</time></trkpt><trkpt lat="44.888070581205724" lon="7.969558474680818"><ele>285.0</ele><time>2026-04-19T09:22:09.001Z</time></trkpt><trkpt lat="44.888002205379614" lon="7.969389037628298"><ele>285.0</ele><time>2026-04-19T09:22:10Z</time></trkpt><trkpt lat="44.887919511286746" lon="7.969248160455425"><ele>285.0</ele><time>2026-04-19T09:22:11Z</time></trkpt><trkpt lat="44.887820029295035" lon="7.969089997452641"><ele>285.0</ele><time>2026-04-19T09:22:12Z</time></trkpt><trkpt lat="44.88771684970276" lon="7.968975831576714"><ele>285.0</ele><time>2026-04-19T09:22:13Z</time></trkpt><trkpt lat="44.88759985436269" lon="7.968859511793809"><ele>285.0</ele><time>2026-04-19T09:22:14Z</time></trkpt><trkpt lat="44.88748489414703" lon="7.968743085328317"><ele>285.0</ele><time>2026-04-19T09:22:15Z</time></trkpt><trkpt lat="44.88736655907453" lon="7.96864169774474"><ele>285.0</ele><time>2026-04-19T09:22:16Z</time></trkpt><trkpt lat="44.88724790095205" lon="7.968535723262409"><ele>285.0</ele><time>2026-04-19T09:22:17Z</time></trkpt><trkpt lat="44.887143035224966" lon="7.968415098244503"><ele>285.0</ele><time>2026-04-19T09:22:18Z</time></trkpt><trkpt lat="44.887031142705474" lon="7.968312373134815"><ele>285.0</ele><time>2026-04-19T09:22:19Z</time></trkpt><trkpt lat="44.88690333018474" lon="7.968239013438258"><ele>285.0</ele><time>2026-04-19T09:22:20Z</time></trkpt><trkpt lat="44.88677288857778" lon="7.9682038762665615"><ele>285.0</ele><time>2026-04-19T09:22:21Z</time></trkpt><trkpt lat="44.88665352917964" lon="7.968164979970716"><ele>285.0</ele><time>2026-04-19T09:22:22Z</time></trkpt><trkpt lat="44.88654472018022" lon="7.968128398331868"><ele>285.0</ele><time>2026-04-19T09:22:23Z</time></trkpt><trkpt lat="44.88644773295602" lon="7.968083837252499"><ele>285.4</ele><time>2026-04-19T09:22:24Z</time></trkpt><trkpt lat="44.88636920256835" lon="7.968054879049167"><ele>285.8</ele><time>2026-04-19T09:22:25Z</time></trkpt><trkpt lat="44.88628962333707" lon="7.968014228567861"><ele>286.2</ele><time>2026-04-19T09:22:26Z</time></trkpt><trkpt lat="44.88621554494761" lon="7.967949725858894"><ele>286.6</ele><time>2026-04-19T09:22:27Z</time></trkpt><trkpt lat="44.88611142678428" lon="7.967877440788209"><ele>287.0</ele><time>2026-04-19T09:22:28Z</time></trkpt><trkpt lat="44.8860266619923" lon="7.967788236141393"><ele>287.0</ele><time>2026-04-19T09:22:29Z</time></trkpt><trkpt lat="44.885962831510206" lon="7.96770152863078"><ele>287.0</ele><time>2026-04-19T09:22:30Z</time></trkpt><trkpt lat="44.8859282415173" lon="7.96760234017695"><ele>287.0</ele><time>2026-04-19T09:22:31Z</time></trkpt><trkpt lat="44.88590136556763" lon="7.967466626267193"><ele>287.0</ele><time>2026-04-19T09:22:32Z</time></trkpt><trkpt lat="44.885892025385544" lon="7.96732059094094"><ele>287.0</ele><time>2026-04-19T09:22:33Z</time></trkpt><trkpt lat="44.88586865560454" lon="7.967170340828282"><ele>286.8</ele><time>2026-04-19T09:22:34Z</time></trkpt><trkpt lat="44.88582025974118" lon="7.967024277715135"><ele>286.6</ele><time>2026-04-19T09:22:35Z</time></trkpt><trkpt lat="44.88577151794208" lon="7.966877896647063"><ele>286.40000000000003</ele><time>2026-04-19T09:22:36Z</time></trkpt><trkpt lat="44.88570601876129" lon="7.966752782488917"><ele>286.2</ele><time>2026-04-19T09:22:37Z</time></trkpt><trkpt lat="44.885632456669754" lon="7.966638266021325"><ele>286.0</ele><time>2026-04-19T09:22:38Z</time></trkpt><trkpt lat="44.885549321272286" lon="7.966527480362031"><ele>286.0</ele><time>2026-04-19T09:22:39Z</time></trkpt><trkpt lat="44.88550032707786" lon="7.966405919602725"><ele>286.0</ele><time>2026-04-19T09:22:40Z</time></trkpt><trkpt lat="44.88548029781094" lon="7.966261250064534"><ele>286.0</ele><time>2026-04-19T09:22:41Z</time></trkpt><trkpt lat="44.885509396964714" lon="7.96614249502757"><ele>286.0</ele><time>2026-04-19T09:22:42Z</time></trkpt><trkpt lat="44.8855018312234" lon="7.966017972182947"><ele>286.0</ele><time>2026-04-19T09:22:43Z</time></trkpt><trkpt lat="44.88550649409809" lon="7.965914706602252"><ele>284.2</ele><time>2026-04-19T09:22:44Z</time></trkpt><trkpt lat="44.88550335870908" lon="7.965821587941852"><ele>282.40000000000003</ele><time>2026-04-19T09:22:45Z</time></trkpt><trkpt lat="44.88543715329028" lon="7.965749337602223"><ele>280.6</ele><time>2026-04-19T09:22:46Z</time></trkpt><trkpt lat="44.88535316723826" lon="7.96567352610366"><ele>278.8</ele><time>2026-04-19T09:22:47Z</time></trkpt><trkpt lat="44.88526069077923" lon="7.965577197451844"><ele>277.0</ele><time>2026-04-19T09:22:48Z</time></trkpt><trkpt lat="44.885164868604974" lon="7.965484198842348"><ele>277.2</ele><time>2026-04-19T09:22:49Z</time></trkpt><trkpt lat="44.8850643242353" lon="7.96541473120335"><ele>277.4</ele><time>2026-04-19T09:22:50Z</time></trkpt><trkpt lat="44.884968607791905" lon="7.965369104719869"><ele>277.6</ele><time>2026-04-19T09:22:51Z</time></trkpt><trkpt lat="44.88485854261271" lon="7.965348505242979"><ele>277.8</ele><time>2026-04-19T09:22:52Z</time></trkpt><trkpt lat="44.88475177644495" lon="7.96533503922634"><ele>278.0</ele><time>2026-04-19T09:22:53Z</time></trkpt><trkpt lat="44.88465249738553" lon="7.965349302681681"><ele>278.0</ele><time>2026-04-19T09:22:54Z</time></trkpt><trkpt lat="44.88454483196509" lon="7.965401467256511"><ele>278.0</ele><time>2026-04-19T09:22:55Z</time></trkpt><trkpt lat="44.88442481384611" lon="7.965460343535423"><ele>278.0</ele><time>2026-04-19T09:22:56Z</time></trkpt><trkpt lat="44.88429970422185" lon="7.965493138979697"><ele>278.0</ele><time>2026-04-19T09:22:57Z</time></trkpt><trkpt lat="44.88417495848518" lon="7.9655338287896695"><ele>277.0</ele><time>2026-04-19T09:22:58Z</time></trkpt><trkpt lat="44.884049614561384" lon="7.965513295129679"><ele>276.0</ele><time>2026-04-19T09:22:59Z</time></trkpt><trkpt lat="44.883923397951676" lon="7.9654731624497845"><ele>275.0</ele><time>2026-04-19T09:23:00Z</time></trkpt><trkpt lat="44.88380965355608" lon="7.96545476469105"><ele>274.0</ele><time>2026-04-19T09:23:01Z</time></trkpt><trkpt lat="44.88367424071096" lon="7.965432947727068"><ele>274.0</ele><time>2026-04-19T09:23:02Z</time></trkpt><trkpt lat="44.883545127462014" lon="7.9654152984609565"><ele>274.0</ele><time>2026-04-19T09:23:03Z</time></trkpt><trkpt lat="44.8834176585739" lon="7.965379976709915"><ele>274.0</ele><time>2026-04-19T09:23:04Z</time></trkpt><trkpt lat="44.883275313265706" lon="7.965374698891441"><ele>274.0</ele><time>2026-04-19T09:23:05Z</time></trkpt><trkpt lat="44.883141874056165" lon="7.965349467514841"><ele>277.0</ele><time>2026-04-19T09:23:06Z</time></trkpt><trkpt lat="44.88301098933693" lon="7.965349669988616"><ele>280.0</ele><time>2026-04-19T09:23:07Z</time></trkpt><trkpt lat="44.88287105117654" lon="7.965348726780535"><ele>283.0</ele><time>2026-04-19T09:23:08Z</time></trkpt><trkpt lat="44.882747076668146" lon="7.965360806465627"><ele>286.0</ele><time>2026-04-19T09:23:09Z</time></trkpt><trkpt lat="44.882629429112626" lon="7.9653790421784265"><ele>287.5</ele><time>2026-04-19T09:23:10Z</time></trkpt><trkpt lat="44.88250186189247" lon="7.965374113263414"><ele>289.0</ele><time>2026-04-19T09:23:11Z</time></trkpt><trkpt lat="44.88236568515012" lon="7.9653953721470625"><ele>290.5</ele><time>2026-04-19T09:23:12Z</time></trkpt><trkpt lat="44.88222306857" lon="7.96542465248759"><ele>292.0</ele><time>2026-04-19T09:23:13Z</time></trkpt><trkpt lat="44.8820697867192" lon="7.96545101108127"><ele>292.0</ele><time>2026-04-19T09:23:14Z</time></trkpt><trkpt lat="44.88192098994008" lon="7.965500702603089"><ele>292.0</ele><time>2026-04-19T09:23:15Z</time></trkpt><trkpt lat="44.88178335198893" lon="7.965544056582675"><ele>292.0</ele><time>2026-04-19T09:23:16Z</time></trkpt><trkpt lat="44.8816654777067" lon="7.965571450163767"><ele>292.0</ele><time>2026-04-19T09:23:17Z</time></trkpt><trkpt lat="44.881548268792535" lon="7.965546572800046"><ele>291.5</ele><time>2026-04-19T09:23:18Z</time></trkpt><trkpt lat="44.88142227334336" lon="7.965558567130279"><ele>291.0</ele><time>2026-04-19T09:23:19Z</time></trkpt><trkpt lat="44.88128956909375" lon="7.965560413367128"><ele>290.5</ele><time>2026-04-19T09:23:20Z</time></trkpt><trkpt lat="44.8811561806104" lon="7.965570958654514"><ele>290.0</ele><time>2026-04-19T09:23:21Z</time></trkpt><trkpt lat="44.88102564975415" lon="7.965575223949579"><ele>289.5</ele><time>2026-04-19T09:23:22Z</time></trkpt><trkpt lat="44.88088682439398" lon="7.965636092784407"><ele>289.0</ele><time>2026-04-19T09:23:23Z</time></trkpt><trkpt lat="44.88074532573493" lon="7.965665695466717"><ele>288.5</ele><time>2026-04-19T09:23:24Z</time></trkpt><trkpt lat="44.880600937802974" lon="7.965672059707521"><ele>288.0</ele><time>2026-04-19T09:23:25Z</time></trkpt><trkpt lat="44.880483514489356" lon="7.965691736231385"><ele>288.0</ele><time>2026-04-19T09:23:26Z</time></trkpt><trkpt lat="44.880350922478115" lon="7.965720222339919"><ele>288.0</ele><time>2026-04-19T09:23:27Z</time></trkpt><trkpt lat="44.88023940301918" lon="7.965762930029172"><ele>288.0</ele><time>2026-04-19T09:23:28Z</time></trkpt><trkpt lat="44.88011263865873" lon="7.9658310386501725"><ele>288.0</ele><time>2026-04-19T09:23:29Z</time></trkpt><trkpt lat="44.879967763906436" lon="7.965925827775345"><ele>288.0</ele><time>2026-04-19T09:23:30.001Z</time></trkpt><trkpt lat="44.87984763637249" lon="7.965995255365728"><ele>288.0</ele><time>2026-04-19T09:23:31.001Z</time></trkpt><trkpt lat="44.879713591839796" lon="7.966045538468482"><ele>288.0</ele><time>2026-04-19T09:23:32.001Z</time></trkpt><trkpt lat="44.879596818298" lon="7.9660842590571095"><ele>288.0</ele><time>2026-04-19T09:23:33.001Z</time></trkpt><trkpt lat="44.87949900149668" lon="7.9661139269284496"><ele>288.0</ele><time>2026-04-19T09:23:34.001Z</time></trkpt><trkpt lat="44.87939457553815" lon="7.9661571217869955"><ele>288.0</ele><time>2026-04-19T09:23:35.001Z</time></trkpt><trkpt lat="44.87928317742114" lon="7.966239123541271"><ele>288.0</ele><time>2026-04-19T09:23:36.001Z</time></trkpt><trkpt lat="44.87920547954137" lon="7.96635954165824"><ele>288.0</ele><time>2026-04-19T09:23:37.001Z</time></trkpt><trkpt lat="44.879127785929775" lon="7.966450234172969"><ele>289.25</ele><time>2026-04-19T09:23:38.001Z</time></trkpt><trkpt lat="44.879022268469974" lon="7.966498806823132"><ele>290.5</ele><time>2026-04-19T09:23:39.001Z</time></trkpt><trkpt lat="44.87891336704033" lon="7.966536772530579"><ele>291.75</ele><time>2026-04-19T09:23:40.001Z</time></trkpt><trkpt lat="44.8787943221882" lon="7.966571829752885"><ele>293.0</ele><time>2026-04-19T09:23:41.001Z</time></trkpt><trkpt lat="44.878675834597495" lon="7.9666027071583105"><ele>293.0</ele><time>2026-04-19T09:23:42.001Z</time></trkpt><trkpt lat="44.87856046780357" lon="7.966638224500092"><ele>293.0</ele><time>2026-04-19T09:23:43.001Z</time></trkpt><trkpt lat="44.87846014341481" lon="7.966665700979111"><ele>293.0</ele><time>2026-04-19T09:23:44.001Z</time></trkpt><trkpt lat="44.87835463994021" lon="7.966710077375859"><ele>293.0</ele><time>2026-04-19T09:23:45.001Z</time></trkpt><trkpt lat="44.87823064445038" lon="7.966747584758194"><ele>292.75</ele><time>2026-04-19T09:23:46.001Z</time></trkpt><trkpt lat="44.87810661818825" lon="7.966760370984231"><ele>292.5</ele><time>2026-04-19T09:23:47.001Z</time></trkpt><trkpt lat="44.8779949047024" lon="7.9668019041405405"><ele>292.25</ele><time>2026-04-19T09:23:48.001Z</time></trkpt><trkpt lat="44.87787852798471" lon="7.966843296262247"><ele>292.0</ele><time>2026-04-19T09:23:49.001Z</time></trkpt><trkpt lat="44.87776353603734" lon="7.966885992647933"><ele>292.0</ele><time>2026-04-19T09:23:50.001Z</time></trkpt><trkpt lat="44.87764720328258" lon="7.96691628991463"><ele>292.0</ele><time>2026-04-19T09:23:51.001Z</time></trkpt><trkpt lat="44.87752738938594" lon="7.966934720817511"><ele>292.0</ele><time>2026-04-19T09:23:52.001Z</time></trkpt><trkpt lat="44.8774113905006" lon="7.966946741757999"><ele>292.0</ele><time>2026-04-19T09:23:53.001Z</time></trkpt><trkpt lat="44.87729174718847" lon="7.966950445470967"><ele>293.5</ele><time>2026-04-19T09:23:54.001Z</time></trkpt><trkpt lat="44.87717125592817" lon="7.966963593443592"><ele>295.0</ele><time>2026-04-19T09:23:55.001Z</time></trkpt><trkpt lat="44.877044241733465" lon="7.966971906439496"><ele>296.5</ele><time>2026-04-19T09:23:56.001Z</time></trkpt><trkpt lat="44.87691933533888" lon="7.9669862902749555"><ele>298.0</ele><time>2026-04-19T09:23:57.001Z</time></trkpt><trkpt lat="44.87680346968918" lon="7.967018140587921"><ele>298.75</ele><time>2026-04-19T09:23:58.001Z</time></trkpt><trkpt lat="44.87668923845595" lon="7.967074435913474"><ele>299.5</ele><time>2026-04-19T09:23:59.001Z</time></trkpt><trkpt lat="44.876567953520784" lon="7.9671519508845465"><ele>300.25</ele><time>2026-04-19T09:24:00.001Z</time></trkpt><trkpt lat="44.87645741983879" lon="7.967242143326993"><ele>301.0</ele><time>2026-04-19T09:24:01.001Z</time></trkpt><trkpt lat="44.876346403009265" lon="7.967331297914477"><ele>301.0</ele><time>2026-04-19T09:24:02.001Z</time></trkpt><trkpt lat="44.87623004577475" lon="7.967421836633831"><ele>301.0</ele><time>2026-04-19T09:24:03.001Z</time></trkpt><trkpt lat="44.876117979517936" lon="7.967516187903012"><ele>301.0</ele><time>2026-04-19T09:24:04.001Z</time></trkpt><trkpt lat="44.876000414824375" lon="7.967612673056135"><ele>301.0</ele><time>2026-04-19T09:24:05.001Z</time></trkpt><trkpt lat="44.875889321227056" lon="7.967708152537209"><ele>301.8333333333333</ele><time>2026-04-19T09:24:06.001Z</time></trkpt><trkpt lat="44.87580928922043" lon="7.967803277309172"><ele>302.66666666666663</ele><time>2026-04-19T09:24:07.001Z</time></trkpt><trkpt lat="44.8757312982336" lon="7.967883050997702"><ele>303.5</ele><time>2026-04-19T09:24:08.001Z</time></trkpt><trkpt lat="44.87564744251129" lon="7.967927258243255"><ele>304.3333333333333</ele><time>2026-04-19T09:24:09.001Z</time></trkpt><trkpt lat="44.875578408763836" lon="7.967992618247351"><ele>305.1666666666667</ele><time>2026-04-19T09:24:10.001Z</time></trkpt><trkpt lat="44.875518744673904" lon="7.9680527748219605"><ele>306.0</ele><time>2026-04-19T09:24:11.001Z</time></trkpt><trkpt lat="44.87545991552271" lon="7.968133720009691"><ele>306.0</ele><time>2026-04-19T09:24:12.001Z</time></trkpt><trkpt lat="44.87538678767584" lon="7.968201944398357"><ele>306.0</ele><time>2026-04-19T09:24:13.001Z</time></trkpt><trkpt lat="44.875321993855295" lon="7.968275261761556"><ele>306.0</ele><time>2026-04-19T09:24:14.001Z</time></trkpt><trkpt lat="44.87526488381721" lon="7.968347900756473"><ele>306.0</ele><time>2026-04-19T09:24:15.001Z</time></trkpt><trkpt lat="44.8752078556249" lon="7.96842025618967"><ele>306.0</ele><time>2026-04-19T09:24:16Z</time></trkpt><trkpt lat="44.87514935442336" lon="7.9684924808625"><ele>306.0</ele><time>2026-04-19T09:24:17Z</time></trkpt><trkpt lat="44.875082550001856" lon="7.968563429453261"><ele>306.0</ele><time>2026-04-19T09:24:18Z</time></trkpt><trkpt lat="44.875019630490065" lon="7.968645227191468"><ele>306.0</ele><time>2026-04-19T09:24:19Z</time></trkpt><trkpt lat="44.87495534124668" lon="7.968733121876329"><ele>306.0</ele><time>2026-04-19T09:24:20Z</time></trkpt><trkpt lat="44.874891182149725" lon="7.968827830494494"><ele>306.0</ele><time>2026-04-19T09:24:21Z</time></trkpt><trkpt lat="44.87482499719134" lon="7.968922454978374"><ele>306.0</ele><time>2026-04-19T09:24:22Z</time></trkpt><trkpt lat="44.874749384076345" lon="7.968999288491208"><ele>306.0</ele><time>2026-04-19T09:24:23Z</time></trkpt><trkpt lat="44.874668781999794" lon="7.969064364450196"><ele>306.0</ele><time>2026-04-19T09:24:24Z</time></trkpt><trkpt lat="44.874585381192105" lon="7.9691353315886975"><ele>306.0</ele><time>2026-04-19T09:24:25Z</time></trkpt><trkpt lat="44.87450027284287" lon="7.969202552161878"><ele>306.0</ele><time>2026-04-19T09:24:26Z</time></trkpt><trkpt lat="44.874420853668774" lon="7.969275095027308"><ele>306.0</ele><time>2026-04-19T09:24:27Z</time></trkpt><trkpt lat="44.87434796196752" lon="7.969360375743488"><ele>306.0</ele><time>2026-04-19T09:24:28Z</time></trkpt><trkpt lat="44.87428397798951" lon="7.969460221235234"><ele>306.0</ele><time>2026-04-19T09:24:29Z</time></trkpt><trkpt lat="44.874219157714364" lon="7.969570002855455"><ele>306.0</ele><time>2026-04-19T09:24:30Z</time></trkpt><trkpt lat="44.87416141603368" lon="7.969679219601017"><ele>306.0</ele><time>2026-04-19T09:24:31Z</time></trkpt><trkpt lat="44.87409587064743" lon="7.969772056762366"><ele>306.0</ele><time>2026-04-19T09:24:32Z</time></trkpt><trkpt lat="44.874020105332846" lon="7.969848684149515"><ele>306.0</ele><time>2026-04-19T09:24:33Z</time></trkpt><trkpt lat="44.87393738762346" lon="7.969927104339147"><ele>306.0</ele><time>2026-04-19T09:24:34Z</time></trkpt><trkpt lat="44.87385894419893" lon="7.970003004629276"><ele>306.0</ele><time>2026-04-19T09:24:35Z</time></trkpt><trkpt lat="44.87379254760239" lon="7.970076358091486"><ele>306.0</ele><time>2026-04-19T09:24:36Z</time></trkpt><trkpt lat="44.873738450088844" lon="7.970152170304477"><ele>306.0</ele><time>2026-04-19T09:24:37Z</time></trkpt><trkpt lat="44.87372813142998" lon="7.970264215401944"><ele>306.0</ele><time>2026-04-19T09:24:38Z</time></trkpt><trkpt lat="44.87370917256612" lon="7.970432362078463"><ele>305.2</ele><time>2026-04-19T09:24:40Z</time></trkpt><trkpt lat="44.87366246719067" lon="7.970536165489295"><ele>304.40000000000003</ele><time>2026-04-19T09:24:42Z</time></trkpt><trkpt lat="44.87352604365878" lon="7.970551101091738"><ele>303.6</ele><time>2026-04-19T09:24:44Z</time></trkpt><trkpt lat="44.873437184618155" lon="7.97053876537995"><ele>302.8</ele><time>2026-04-19T09:24:45Z</time></trkpt><trkpt lat="44.87336002449017" lon="7.970549027777521"><ele>302.0</ele><time>2026-04-19T09:24:46Z</time></trkpt><trkpt lat="44.87326565558026" lon="7.970556523325397"><ele>303.8</ele><time>2026-04-19T09:24:47Z</time></trkpt><trkpt lat="44.87317752323891" lon="7.970578657642315"><ele>305.6</ele><time>2026-04-19T09:24:48Z</time></trkpt><trkpt lat="44.87306797445365" lon="7.970574397535683"><ele>307.40000000000003</ele><time>2026-04-19T09:24:49Z</time></trkpt><trkpt lat="44.87296181497528" lon="7.970586170607988"><ele>309.2</ele><time>2026-04-19T09:24:50Z</time></trkpt><trkpt lat="44.87284399992179" lon="7.970567484136286"><ele>311.0</ele><time>2026-04-19T09:24:51Z</time></trkpt><trkpt lat="44.87273373998455" lon="7.970571302744711"><ele>311.0</ele><time>2026-04-19T09:24:52Z</time></trkpt><trkpt lat="44.87262314598003" lon="7.970582883779054"><ele>311.0</ele><time>2026-04-19T09:24:53Z</time></trkpt><trkpt lat="44.872506998494465" lon="7.970582497676967"><ele>311.0</ele><time>2026-04-19T09:24:54Z</time></trkpt><trkpt lat="44.872388978665754" lon="7.9705859073099745"><ele>311.0</ele><time>2026-04-19T09:24:55Z</time></trkpt><trkpt lat="44.87226794881132" lon="7.970583062604829"><ele>311.5</ele><time>2026-04-19T09:24:56Z</time></trkpt><trkpt lat="44.87212716074696" lon="7.970579730246074"><ele>312.0</ele><time>2026-04-19T09:24:57Z</time></trkpt><trkpt lat="44.872008544254555" lon="7.970587065167869"><ele>312.5</ele><time>2026-04-19T09:24:58Z</time></trkpt><trkpt lat="44.87190919062842" lon="7.970577373632214"><ele>313.0</ele><time>2026-04-19T09:24:59Z</time></trkpt><trkpt lat="44.87179262123115" lon="7.970576774805255"><ele>313.25</ele><time>2026-04-19T09:25:00Z</time></trkpt><trkpt lat="44.87167467109078" lon="7.97057999815248"><ele>313.5</ele><time>2026-04-19T09:25:01Z</time></trkpt><trkpt lat="44.87155910693412" lon="7.9705832563484975"><ele>313.75</ele><time>2026-04-19T09:25:02Z</time></trkpt><trkpt lat="44.87143768378152" lon="7.970569019055511"><ele>314.0</ele><time>2026-04-19T09:25:03Z</time></trkpt><trkpt lat="44.871318096257305" lon="7.970521635012261"><ele>314.0</ele><time>2026-04-19T09:25:04Z</time></trkpt><trkpt lat="44.87119520061754" lon="7.97045738511319"><ele>314.0</ele><time>2026-04-19T09:25:05Z</time></trkpt><trkpt lat="44.871072875390084" lon="7.970375571192276"><ele>314.0</ele><time>2026-04-19T09:25:06Z</time></trkpt><trkpt lat="44.870951709741846" lon="7.970311248029888"><ele>314.0</ele><time>2026-04-19T09:25:07Z</time></trkpt><trkpt lat="44.87082301236652" lon="7.9702598897603965"><ele>313.0</ele><time>2026-04-19T09:25:08Z</time></trkpt><trkpt lat="44.87068747921223" lon="7.970212532324172"><ele>312.0</ele><time>2026-04-19T09:25:09Z</time></trkpt><trkpt lat="44.870574457081425" lon="7.970191759550511"><ele>311.0</ele><time>2026-04-19T09:25:10Z</time></trkpt><trkpt lat="44.87046083099777" lon="7.970183459452711"><ele>310.0</ele><time>2026-04-19T09:25:11Z</time></trkpt><trkpt lat="44.87036242431259" lon="7.970176457360959"><ele>310.0</ele><time>2026-04-19T09:25:12Z</time></trkpt><trkpt lat="44.87025719819175" lon="7.970165271263424"><ele>310.0</ele><time>2026-04-19T09:25:13Z</time></trkpt><trkpt lat="44.87015611973914" lon="7.970151584757146"><ele>310.0</ele><time>2026-04-19T09:25:14Z</time></trkpt><trkpt lat="44.87005915840133" lon="7.970138857228958"><ele>310.0</ele><time>2026-04-19T09:25:15Z</time></trkpt><trkpt lat="44.86995734917412" lon="7.970123737265282"><ele>310.0</ele><time>2026-04-19T09:25:16Z</time></trkpt><trkpt lat="44.86985175958451" lon="7.97011246124073"><ele>311.6</ele><time>2026-04-19T09:25:17Z</time></trkpt><trkpt lat="44.86974278403965" lon="7.970098530255852"><ele>313.2</ele><time>2026-04-19T09:25:18Z</time></trkpt><trkpt lat="44.86963574061077" lon="7.970082983005308"><ele>314.8</ele><time>2026-04-19T09:25:19Z</time></trkpt><trkpt lat="44.869527975286815" lon="7.970071313699304"><ele>316.4</ele><time>2026-04-19T09:25:20Z</time></trkpt><trkpt lat="44.86941756140665" lon="7.970056369651345"><ele>318.0</ele><time>2026-04-19T09:25:21Z</time></trkpt><trkpt lat="44.869309639456326" lon="7.970039976276762"><ele>318.2</ele><time>2026-04-19T09:25:22Z</time></trkpt><trkpt lat="44.869211846613" lon="7.97002671007777"><ele>318.4</ele><time>2026-04-19T09:25:23Z</time></trkpt><trkpt lat="44.86912315299883" lon="7.970007211836302"><ele>318.59999999999997</ele><time>2026-04-19T09:25:24Z</time></trkpt><trkpt lat="44.86905210119711" lon="7.9699859166401925"><ele>318.8</ele><time>2026-04-19T09:25:25.001Z</time></trkpt><trkpt lat="44.8689679056343" lon="7.969933703872493"><ele>319.0</ele><time>2026-04-19T09:25:27.001Z</time></trkpt><trkpt lat="44.86890441614068" lon="7.9697846664001"><ele>318.59999999999997</ele><time>2026-04-19T09:25:29.001Z</time></trkpt><trkpt lat="44.868885678475884" lon="7.9696578834696785"><ele>318.2</ele><time>2026-04-19T09:25:30.001Z</time></trkpt><trkpt lat="44.86884124571249" lon="7.969534682203552"><ele>317.79999999999995</ele><time>2026-04-19T09:25:31.001Z</time></trkpt><trkpt lat="44.86879197537182" lon="7.969392551161717"><ele>317.4</ele><time>2026-04-19T09:25:32.001Z</time></trkpt><trkpt lat="44.86875053076382" lon="7.969250228206402"><ele>317.0</ele><time>2026-04-19T09:25:33.001Z</time></trkpt><trkpt lat="44.868713532671066" lon="7.96910121480792"><ele>317.0</ele><time>2026-04-19T09:25:34.001Z</time></trkpt><trkpt lat="44.86868748395626" lon="7.96893964079927"><ele>317.0</ele><time>2026-04-19T09:25:35.001Z</time></trkpt><trkpt lat="44.868671864789306" lon="7.968777945305276"><ele>317.0</ele><time>2026-04-19T09:25:36.001Z</time></trkpt><trkpt lat="44.868659933268205" lon="7.968615777645651"><ele>317.0</ele><time>2026-04-19T09:25:37.001Z</time></trkpt><trkpt lat="44.86863498080086" lon="7.968453554498712"><ele>317.25</ele><time>2026-04-19T09:25:38.001Z</time></trkpt><trkpt lat="44.868604830818086" lon="7.968286122636953"><ele>317.5</ele><time>2026-04-19T09:25:39.001Z</time></trkpt><trkpt lat="44.86858275378426" lon="7.9681157473996285"><ele>317.75</ele><time>2026-04-19T09:25:40.001Z</time></trkpt><trkpt lat="44.868572328554635" lon="7.96794697532938"><ele>318.0</ele><time>2026-04-19T09:25:41.001Z</time></trkpt><trkpt lat="44.868570341679984" lon="7.967774107052647"><ele>318.0</ele><time>2026-04-19T09:25:42.001Z</time></trkpt><trkpt lat="44.868579410461514" lon="7.967605106965941"><ele>318.0</ele><time>2026-04-19T09:25:43.001Z</time></trkpt><trkpt lat="44.86859834963156" lon="7.967438454553355"><ele>318.0</ele><time>2026-04-19T09:25:44.001Z</time></trkpt><trkpt lat="44.86864365578264" lon="7.967275357040613"><ele>318.0</ele><time>2026-04-19T09:25:45.001Z</time></trkpt><trkpt lat="44.86867691129652" lon="7.967103206195359"><ele>317.25</ele><time>2026-04-19T09:25:46.001Z</time></trkpt><trkpt lat="44.86871022922307" lon="7.966940819119875"><ele>316.5</ele><time>2026-04-19T09:25:47.001Z</time></trkpt><trkpt lat="44.86872719486489" lon="7.966788087347565"><ele>315.75</ele><time>2026-04-19T09:25:48.001Z</time></trkpt><trkpt lat="44.8687564915927" lon="7.9666180699251585"><ele>315.0</ele><time>2026-04-19T09:25:49.001Z</time></trkpt><trkpt lat="44.868777557927146" lon="7.9664565430873795"><ele>315.0</ele><time>2026-04-19T09:25:50.001Z</time></trkpt><trkpt lat="44.868812882382414" lon="7.966273941635133"><ele>315.0</ele><time>2026-04-19T09:25:51.001Z</time></trkpt><trkpt lat="44.86878709888183" lon="7.966128916737903"><ele>315.0</ele><time>2026-04-19T09:25:52.001Z</time></trkpt><trkpt lat="44.868738646163" lon="7.9660054005661145"><ele>315.0</ele><time>2026-04-19T09:25:53.001Z</time></trkpt><trkpt lat="44.8686836151357" lon="7.965863370628756"><ele>315.6</ele><time>2026-04-19T09:25:54.001Z</time></trkpt><trkpt lat="44.86862722796341" lon="7.965720684311459"><ele>316.2</ele><time>2026-04-19T09:25:55.001Z</time></trkpt><trkpt lat="44.86858638359543" lon="7.965580347768951"><ele>316.8</ele><time>2026-04-19T09:25:56.001Z</time></trkpt><trkpt lat="44.86853264113688" lon="7.965457933122803"><ele>317.4</ele><time>2026-04-19T09:25:57.001Z</time></trkpt><trkpt lat="44.868487006519636" lon="7.965326782224436"><ele>318.0</ele><time>2026-04-19T09:25:58.001Z</time></trkpt><trkpt lat="44.86846192505522" lon="7.965184919887658"><ele>317.75</ele><time>2026-04-19T09:25:59.001Z</time></trkpt><trkpt lat="44.86844661149382" lon="7.965021668494557"><ele>317.5</ele><time>2026-04-19T09:26:00.001Z</time></trkpt><trkpt lat="44.86842988943201" lon="7.964860749420174"><ele>317.25</ele><time>2026-04-19T09:26:01.001Z</time></trkpt><trkpt lat="44.868435493469235" lon="7.964709413004156"><ele>317.0</ele><time>2026-04-19T09:26:02.001Z</time></trkpt><trkpt lat="44.86841957183922" lon="7.964535157979229"><ele>318.0</ele><time>2026-04-19T09:26:03.001Z</time></trkpt><trkpt lat="44.86842243981564" lon="7.964396308993425"><ele>319.0</ele><time>2026-04-19T09:26:04.001Z</time></trkpt><trkpt lat="44.868422866316024" lon="7.964262737380051"><ele>320.0</ele><time>2026-04-19T09:26:05.001Z</time></trkpt><trkpt lat="44.8684106088566" lon="7.964141011505496"><ele>321.0</ele><time>2026-04-19T09:26:06.001Z</time></trkpt><trkpt lat="44.868394730443306" lon="7.964037719013915"><ele>322.0</ele><time>2026-04-19T09:26:07.001Z</time></trkpt><trkpt lat="44.86837185046381" lon="7.963950443157096"><ele>323.0</ele><time>2026-04-19T09:26:12.001Z</time></trkpt><trkpt lat="44.868302110055495" lon="7.963849611495087"><ele>323.0</ele><time>2026-04-19T09:26:14.001Z</time></trkpt><trkpt lat="44.868239864791114" lon="7.963810868067313"><ele>323.0</ele><time>2026-04-19T09:26:15.001Z</time></trkpt><trkpt lat="44.86816578111643" lon="7.963770396384993"><ele>323.0</ele><time>2026-04-19T09:26:16.001Z</time></trkpt><trkpt lat="44.86808504821646" lon="7.963738904967339"><ele>323.0</ele><time>2026-04-19T09:26:17.001Z</time></trkpt><trkpt lat="44.86799781835547" lon="7.963713967979753"><ele>323.0</ele><time>2026-04-19T09:26:18.001Z</time></trkpt><trkpt lat="44.867900984578256" lon="7.963703860007005"><ele>323.0</ele><time>2026-04-19T09:26:19.001Z</time></trkpt><trkpt lat="44.86779303249091" lon="7.963730486800992"><ele>323.0</ele><time>2026-04-19T09:26:20.001Z</time></trkpt><trkpt lat="44.86767118635567" lon="7.96378240634668"><ele>323.0</ele><time>2026-04-19T09:26:21.001Z</time></trkpt><trkpt lat="44.867543950730955" lon="7.963842577937523"><ele>323.0</ele><time>2026-04-19T09:26:22Z</time></trkpt><trkpt lat="44.867402832330825" lon="7.963897244289293"><ele>323.0</ele><time>2026-04-19T09:26:23Z</time></trkpt><trkpt lat="44.8672574590108" lon="7.963961241688255"><ele>322.5</ele><time>2026-04-19T09:26:24Z</time></trkpt><trkpt lat="44.86711273925905" lon="7.96402195353003"><ele>322.0</ele><time>2026-04-19T09:26:25Z</time></trkpt><trkpt lat="44.86698187575537" lon="7.9640848035205405"><ele>321.5</ele><time>2026-04-19T09:26:26Z</time></trkpt><trkpt lat="44.86685055496659" lon="7.964139449807856"><ele>321.0</ele><time>2026-04-19T09:26:27Z</time></trkpt><trkpt lat="44.86670032003021" lon="7.964189339957717"><ele>317.5</ele><time>2026-04-19T09:26:28Z</time></trkpt><trkpt lat="44.86654270919808" lon="7.964240111781366"><ele>314.0</ele><time>2026-04-19T09:26:29Z</time></trkpt><trkpt lat="44.8664138813916" lon="7.964279346132595"><ele>310.5</ele><time>2026-04-19T09:26:30Z</time></trkpt><trkpt lat="44.86626663979285" lon="7.964302139668766"><ele>307.0</ele><time>2026-04-19T09:26:31Z</time></trkpt><trkpt lat="44.866132202752425" lon="7.964336034981287"><ele>307.0</ele><time>2026-04-19T09:26:32Z</time></trkpt><trkpt lat="44.86600961991842" lon="7.964387002351095"><ele>307.0</ele><time>2026-04-19T09:26:33Z</time></trkpt><trkpt lat="44.86590908564808" lon="7.964459891083213"><ele>307.0</ele><time>2026-04-19T09:26:34Z</time></trkpt><trkpt lat="44.86582902065976" lon="7.964527938645117"><ele>307.0</ele><time>2026-04-19T09:26:35Z</time></trkpt><trkpt lat="44.86576150571776" lon="7.9645784860481905"><ele>307.0</ele><time>2026-04-19T09:26:36Z</time></trkpt><trkpt lat="44.86569095143943" lon="7.964644763078165"><ele>307.0</ele><time>2026-04-19T09:26:38Z</time></trkpt><trkpt lat="44.865709942107145" lon="7.965016502348029"><ele>307.0</ele><time>2026-04-19T09:26:41Z</time></trkpt><trkpt lat="44.8657226776571" lon="7.965155651990426"><ele>307.0</ele><time>2026-04-19T09:26:42Z</time></trkpt><trkpt lat="44.86571375991688" lon="7.965283258088541"><ele>306.0</ele><time>2026-04-19T09:26:43Z</time></trkpt><trkpt lat="44.865705847014894" lon="7.965386520558844"><ele>305.0</ele><time>2026-04-19T09:26:44Z</time></trkpt><trkpt lat="44.86566562089857" lon="7.96550516823652"><ele>304.0</ele><time>2026-04-19T09:26:45Z</time></trkpt><trkpt lat="44.86562813081745" lon="7.965625094829108"><ele>303.0</ele><time>2026-04-19T09:26:46Z</time></trkpt><trkpt lat="44.86558043322156" lon="7.965749975988196"><ele>302.0</ele><time>2026-04-19T09:26:47Z</time></trkpt><trkpt lat="44.865539542025516" lon="7.96585695999952"><ele>301.0</ele><time>2026-04-19T09:26:48Z</time></trkpt><trkpt lat="44.8655185968007" lon="7.965965987215394"><ele>299.5</ele><time>2026-04-19T09:26:49Z</time></trkpt><trkpt lat="44.86550747435961" lon="7.966092929979617"><ele>298.0</ele><time>2026-04-19T09:26:50Z</time></trkpt><trkpt lat="44.86550820185306" lon="7.966212523596628"><ele>296.5</ele><time>2026-04-19T09:26:51Z</time></trkpt><trkpt lat="44.86550556467376" lon="7.966310647268994"><ele>295.0</ele><time>2026-04-19T09:26:52Z</time></trkpt><trkpt lat="44.865502729444934" lon="7.966403352175366"><ele>293.5</ele><time>2026-04-19T09:26:53Z</time></trkpt><trkpt lat="44.86547185001396" lon="7.966504558135815"><ele>292.0</ele><time>2026-04-19T09:26:54Z</time></trkpt><trkpt lat="44.865441150077054" lon="7.966595674975626"><ele>290.0</ele><time>2026-04-19T09:26:55Z</time></trkpt><trkpt lat="44.86548121010556" lon="7.966730469134514"><ele>288.0</ele><time>2026-04-19T09:26:57Z</time></trkpt><trkpt lat="44.86553127329337" lon="7.966798078094573"><ele>286.0</ele><time>2026-04-19T09:26:58Z</time></trkpt><trkpt lat="44.86561165001563" lon="7.966914346479232"><ele>284.0</ele><time>2026-04-19T09:27:00Z</time></trkpt><trkpt lat="44.86567892737623" lon="7.967025554385632"><ele>282.0</ele><time>2026-04-19T09:27:02Z</time></trkpt><trkpt lat="44.865672861983754" lon="7.967120426205101"><ele>282.0</ele><time>2026-04-19T09:27:03Z</time></trkpt><trkpt lat="44.86563555082973" lon="7.967206379606142"><ele>282.0</ele><time>2026-04-19T09:27:04Z</time></trkpt><trkpt lat="44.86556216956488" lon="7.967305913948347"><ele>282.0</ele><time>2026-04-19T09:27:05Z</time></trkpt><trkpt lat="44.86551583930815" lon="7.967393082678834"><ele>282.0</ele><time>2026-04-19T09:27:06Z</time></trkpt><trkpt lat="44.86543532107301" lon="7.967469389163976"><ele>282.0</ele><time>2026-04-19T09:27:07Z</time></trkpt><trkpt lat="44.86535866819211" lon="7.967540180954945"><ele>282.0</ele><time>2026-04-19T09:27:08Z</time></trkpt><trkpt lat="44.86530302766761" lon="7.96760918195574"><ele>280.3333333333333</ele><time>2026-04-19T09:27:09Z</time></trkpt><trkpt lat="44.86524824890673" lon="7.967681882296509"><ele>278.6666666666667</ele><time>2026-04-19T09:27:10Z</time></trkpt><trkpt lat="44.86517876045259" lon="7.967728650781925"><ele>277.0</ele><time>2026-04-19T09:27:11Z</time></trkpt><trkpt lat="44.8650845363795" lon="7.967788384210381"><ele>275.33333333333337</ele><time>2026-04-19T09:27:13Z</time></trkpt><trkpt lat="44.86507912105634" lon="7.96793475149278"><ele>273.6666666666667</ele><time>2026-04-19T09:27:15Z</time></trkpt><trkpt lat="44.86514209680254" lon="7.967961322836253"><ele>272.0</ele><time>2026-04-19T09:27:16Z</time></trkpt><trkpt lat="44.86522651814899" lon="7.967993834037271"><ele>270.8</ele><time>2026-04-19T09:27:17Z</time></trkpt><trkpt lat="44.86530663850342" lon="7.967934785668563"><ele>269.6</ele><time>2026-04-19T09:27:18Z</time></trkpt><trkpt lat="44.865408426951895" lon="7.96782800324205"><ele>268.40000000000003</ele><time>2026-04-19T09:27:19Z</time></trkpt><trkpt lat="44.865509774856" lon="7.967788302264831"><ele>267.2</ele><time>2026-04-19T09:27:20Z</time></trkpt><trkpt lat="44.86560065652018" lon="7.967759683240977"><ele>266.0</ele><time>2026-04-19T09:27:21Z</time></trkpt><trkpt lat="44.86567577540834" lon="7.9677075360132195"><ele>266.0</ele><time>2026-04-19T09:27:22Z</time></trkpt><trkpt lat="44.86576136944764" lon="7.967664798465289"><ele>266.0</ele><time>2026-04-19T09:27:23Z</time></trkpt><trkpt lat="44.86583525641619" lon="7.967634147717584"><ele>266.0</ele><time>2026-04-19T09:27:24Z</time></trkpt><trkpt lat="44.8658984280892" lon="7.967596205922553"><ele>266.0</ele><time>2026-04-19T09:27:25Z</time></trkpt><trkpt lat="44.86597087749315" lon="7.967560705586129"><ele>266.0</ele><time>2026-04-19T09:27:26Z</time></trkpt><trkpt lat="44.866049376993224" lon="7.967552568215321"><ele>266.0</ele><time>2026-04-19T09:27:27Z</time></trkpt><trkpt lat="44.866136716685766" lon="7.9674572116597036"><ele>267.33333333333337</ele><time>2026-04-19T09:27:29Z</time></trkpt><trkpt lat="44.866174719511044" lon="7.967385252208943"><ele>268.6666666666667</ele><time>2026-04-19T09:27:30Z</time></trkpt><trkpt lat="44.86619632186869" lon="7.967292908395419"><ele>270.0</ele><time>2026-04-19T09:27:31Z</time></trkpt><trkpt lat="44.8662647207418" lon="7.967198655365082"><ele>271.3333333333333</ele><time>2026-04-19T09:27:33Z</time></trkpt><trkpt lat="44.86635549149046" lon="7.967209769504636"><ele>272.66666666666663</ele><time>2026-04-19T09:27:35Z</time></trkpt><trkpt lat="44.866332818311264" lon="7.967307744825558"><ele>274.0</ele><time>2026-04-19T09:27:37Z</time></trkpt><trkpt lat="44.86626824130099" lon="7.967356898340159"><ele>274.0</ele><time>2026-04-19T09:27:39Z</time></trkpt><trkpt lat="44.86615514183871" lon="7.967482539862415"><ele>274.0</ele><time>2026-04-19T09:27:42Z</time></trkpt><trkpt lat="44.86606966221623" lon="7.96760736375274"><ele>274.0</ele><time>2026-04-19T09:27:43Z</time></trkpt><trkpt lat="44.86599290942739" lon="7.967719538276535"><ele>274.0</ele><time>2026-04-19T09:27:44Z</time></trkpt><trkpt lat="44.86591856926479" lon="7.967847676695757"><ele>272.4</ele><time>2026-04-19T09:27:45Z</time></trkpt><trkpt lat="44.8658469383326" lon="7.967962793866548"><ele>270.79999999999995</ele><time>2026-04-19T09:27:46Z</time></trkpt><trkpt lat="44.86577829204572" lon="7.968069356733625"><ele>269.20000000000005</ele><time>2026-04-19T09:27:47Z</time></trkpt><trkpt lat="44.86570116759911" lon="7.968142295472917"><ele>267.6</ele><time>2026-04-19T09:27:48Z</time></trkpt><trkpt lat="44.86560881446016" lon="7.968207070514863"><ele>266.0</ele><time>2026-04-19T09:27:49.001Z</time></trkpt><trkpt lat="44.86551057863838" lon="7.968245093428171"><ele>266.0</ele><time>2026-04-19T09:27:50.001Z</time></trkpt><trkpt lat="44.86540359093708" lon="7.968293617329448"><ele>266.0</ele><time>2026-04-19T09:27:51.001Z</time></trkpt><trkpt lat="44.86533697903496" lon="7.968383934883182"><ele>266.0</ele><time>2026-04-19T09:27:52.001Z</time></trkpt><trkpt lat="44.8652989803169" lon="7.9684728881577325"><ele>266.0</ele><time>2026-04-19T09:27:53.001Z</time></trkpt><trkpt lat="44.86529566531755" lon="7.9685638762388855"><ele>266.0</ele><time>2026-04-19T09:27:55.001Z</time></trkpt><trkpt lat="44.8652072422437" lon="7.968687513470872"><ele>264.6666666666667</ele><time>2026-04-19T09:27:57.001Z</time></trkpt><trkpt lat="44.86513657146894" lon="7.9687625214455045"><ele>263.33333333333337</ele><time>2026-04-19T09:27:58.001Z</time></trkpt><trkpt lat="44.86505024493433" lon="7.968756807986519"><ele>262.0</ele><time>2026-04-19T09:27:59.001Z</time></trkpt><trkpt lat="44.86498642068732" lon="7.968808971517207"><ele>260.6666666666667</ele><time>2026-04-19T09:28:00.001Z</time></trkpt><trkpt lat="44.864933496609574" lon="7.968887184728982"><ele>259.3333333333333</ele><time>2026-04-19T09:28:01.001Z</time></trkpt><trkpt lat="44.86486523848637" lon="7.9690007690678595"><ele>258.0</ele><time>2026-04-19T09:28:03.001Z</time></trkpt><trkpt lat="44.864795919766486" lon="7.9690258149188455"><ele>257.6</ele><time>2026-04-19T09:28:05.001Z</time></trkpt><trkpt lat="44.86472946390902" lon="7.968997623082063"><ele>257.20000000000005</ele><time>2026-04-19T09:28:07.001Z</time></trkpt><trkpt lat="44.864663711896135" lon="7.968902680869639"><ele>256.8</ele><time>2026-04-19T09:28:09.001Z</time></trkpt><trkpt lat="44.86457354698157" lon="7.968868598765819"><ele>256.40000000000003</ele><time>2026-04-19T09:28:11.001Z</time></trkpt><trkpt lat="44.86448013828982" lon="7.968817703323757"><ele>256.0</ele><time>2026-04-19T09:28:13.001Z</time></trkpt><trkpt lat="44.864404525636814" lon="7.968897372279724"><ele>256.0</ele><time>2026-04-19T09:28:16.001Z</time></trkpt><trkpt lat="44.86435609799848" lon="7.968967604330453"><ele>256.0</ele><time>2026-04-19T09:28:18.001Z</time></trkpt><trkpt lat="44.864296468953434" lon="7.969054276161422"><ele>256.0</ele><time>2026-04-19T09:28:21.001Z</time></trkpt><trkpt lat="44.864160501032636" lon="7.969296079110047"><ele>256.0</ele><time>2026-04-19T09:28:26.001Z</time></trkpt><trkpt lat="44.86407785611652" lon="7.969288037509728"><ele>254.5</ele><time>2026-04-19T09:28:32Z</time></trkpt><trkpt lat="44.86399003641093" lon="7.969202315188928"><ele>253.0</ele><time>2026-04-19T09:28:36Z</time></trkpt><trkpt lat="44.86385934522663" lon="7.969094159857017"><ele>251.5</ele><time>2026-04-19T09:28:37Z</time></trkpt><trkpt lat="44.86374314954196" lon="7.969021218483638"><ele>250.0</ele><time>2026-04-19T09:28:38Z</time></trkpt><trkpt lat="44.86366164161023" lon="7.9689358666963725"><ele>250.0</ele><time>2026-04-19T09:28:39Z</time></trkpt><trkpt lat="44.863579195018275" lon="7.968902080488709"><ele>250.0</ele><time>2026-04-19T09:28:40Z</time></trkpt><trkpt lat="44.86349714829655" lon="7.968833619352285"><ele>250.0</ele><time>2026-04-19T09:28:41Z</time></trkpt><trkpt lat="44.86341322041628" lon="7.968727475168979"><ele>250.0</ele><time>2026-04-19T09:28:42Z</time></trkpt><trkpt lat="44.86325569179388" lon="7.968685943077499"><ele>249.5</ele><time>2026-04-19T09:28:43Z</time></trkpt><trkpt lat="44.863131534593165" lon="7.968640953223535"><ele>249.0</ele><time>2026-04-19T09:28:44Z</time></trkpt><trkpt lat="44.86294684781478" lon="7.968592542405742"><ele>248.5</ele><time>2026-04-19T09:28:45Z</time></trkpt><trkpt lat="44.862820266640654" lon="7.968537761081537"><ele>248.0</ele><time>2026-04-19T09:28:46Z</time></trkpt><trkpt lat="44.86269728528571" lon="7.968474138055938"><ele>248.75</ele><time>2026-04-19T09:28:47Z</time></trkpt><trkpt lat="44.862575469854455" lon="7.968388216075233"><ele>249.5</ele><time>2026-04-19T09:28:48Z</time></trkpt><trkpt lat="44.86246461021958" lon="7.96832070641798"><ele>250.25</ele><time>2026-04-19T09:28:49Z</time></trkpt><trkpt lat="44.86236636847483" lon="7.968244621514783"><ele>251.0</ele><time>2026-04-19T09:28:50Z</time></trkpt><trkpt lat="44.862289248890534" lon="7.968151300315258"><ele>251.0</ele><time>2026-04-19T09:28:51Z</time></trkpt><trkpt lat="44.86217897996408" lon="7.968058013206701"><ele>251.00000000000003</ele><time>2026-04-19T09:28:52Z</time></trkpt><trkpt lat="44.86208655267333" lon="7.967991279336048"><ele>251.00000000000003</ele><time>2026-04-19T09:28:53Z</time></trkpt><trkpt lat="44.861992519120726" lon="7.967946805403633"><ele>251.0</ele><time>2026-04-19T09:28:54Z</time></trkpt><trkpt lat="44.8618859598612" lon="7.967888109952095"><ele>251.0</ele><time>2026-04-19T09:28:55Z</time></trkpt><trkpt lat="44.86180557848838" lon="7.967825422559719"><ele>251.83333333333334</ele><time>2026-04-19T09:28:56Z</time></trkpt><trkpt lat="44.861734858345834" lon="7.967773135701643"><ele>252.66666666666669</ele><time>2026-04-19T09:28:57Z</time></trkpt><trkpt lat="44.86167160267992" lon="7.9677313703782175"><ele>253.5</ele><time>2026-04-19T09:28:58Z</time></trkpt><trkpt lat="44.861615050559976" lon="7.967675032924134"><ele>254.33333333333331</ele><time>2026-04-19T09:28:59Z</time></trkpt><trkpt lat="44.86153595946989" lon="7.9676372034579215"><ele>255.16666666666666</ele><time>2026-04-19T09:29:00Z</time></trkpt><trkpt lat="44.861456622172625" lon="7.967592756486026"><ele>256.0</ele><time>2026-04-19T09:29:01Z</time></trkpt><trkpt lat="44.861366580704924" lon="7.967533069017023"><ele>255.33333333333331</ele><time>2026-04-19T09:29:02Z</time></trkpt><trkpt lat="44.8613006815789" lon="7.967465083432872"><ele>254.66666666666666</ele><time>2026-04-19T09:29:03Z</time></trkpt><trkpt lat="44.86125575542673" lon="7.967376622369951"><ele>254.0</ele><time>2026-04-19T09:29:04Z</time></trkpt><trkpt lat="44.86122450435423" lon="7.96728208188693"><ele>253.33333333333331</ele><time>2026-04-19T09:29:05Z</time></trkpt><trkpt lat="44.86119107018941" lon="7.967175825056643"><ele>252.66666666666666</ele><time>2026-04-19T09:29:06Z</time></trkpt><trkpt lat="44.861151527550916" lon="7.967074650057515"><ele>252.0</ele><time>2026-04-19T09:29:07Z</time></trkpt><trkpt lat="44.86109166097525" lon="7.966950738539539"><ele>252.0</ele><time>2026-04-19T09:29:08Z</time></trkpt><trkpt lat="44.8610362316975" lon="7.966872911356076"><ele>252.0</ele><time>2026-04-19T09:29:09Z</time></trkpt><trkpt lat="44.860978870208264" lon="7.966760695882254"><ele>252.0</ele><time>2026-04-19T09:29:10Z</time></trkpt><trkpt lat="44.860914536838486" lon="7.966669705800821"><ele>252.0</ele><time>2026-04-19T09:29:11Z</time></trkpt><trkpt lat="44.860873513260884" lon="7.966594325553662"><ele>252.0</ele><time>2026-04-19T09:29:12Z</time></trkpt><trkpt lat="44.86082892184284" lon="7.966502950714687"><ele>252.0</ele><time>2026-04-19T09:29:13Z</time></trkpt><trkpt lat="44.860774065378216" lon="7.96641541205682"><ele>252.39999999999998</ele><time>2026-04-19T09:29:14Z</time></trkpt><trkpt lat="44.86068806397846" lon="7.96633458180236"><ele>252.79999999999998</ele><time>2026-04-19T09:29:15Z</time></trkpt><trkpt lat="44.8606063647899" lon="7.966254887966534"><ele>253.2</ele><time>2026-04-19T09:29:16Z</time></trkpt><trkpt lat="44.860545902161874" lon="7.966181044703246"><ele>253.6</ele><time>2026-04-19T09:29:17Z</time></trkpt><trkpt lat="44.860486274826854" lon="7.966089350685989"><ele>254.0</ele><time>2026-04-19T09:29:18Z</time></trkpt><trkpt lat="44.860415476112294" lon="7.9660310187160945"><ele>254.0</ele><time>2026-04-19T09:29:19Z</time></trkpt><trkpt lat="44.860339631795995" lon="7.965989312822558"><ele>253.99999999999997</ele><time>2026-04-19T09:29:20Z</time></trkpt><trkpt lat="44.860257851278874" lon="7.965906207100182"><ele>253.99999999999997</ele><time>2026-04-19T09:29:21Z</time></trkpt><trkpt lat="44.86015907867286" lon="7.965863727107913"><ele>254.0</ele><time>2026-04-19T09:29:22Z</time></trkpt><trkpt lat="44.86007546548281" lon="7.965832825250507"><ele>254.0</ele><time>2026-04-19T09:29:23Z</time></trkpt><trkpt lat="44.85998957844173" lon="7.965778981905561"><ele>254.39999999999998</ele><time>2026-04-19T09:29:24Z</time></trkpt><trkpt lat="44.85988956852516" lon="7.965762920869527"><ele>254.79999999999998</ele><time>2026-04-19T09:29:25Z</time></trkpt><trkpt lat="44.85977776875936" lon="7.965735897685159"><ele>255.20000000000002</ele><time>2026-04-19T09:29:26Z</time></trkpt><trkpt lat="44.85967564652198" lon="7.965695233378855"><ele>255.60000000000002</ele><time>2026-04-19T09:29:27Z</time></trkpt><trkpt lat="44.85958079293222" lon="7.965678881954802"><ele>256.0</ele><time>2026-04-19T09:29:28Z</time></trkpt><trkpt lat="44.85947980475163" lon="7.965664919782424"><ele>256.0</ele><time>2026-04-19T09:29:29Z</time></trkpt><trkpt lat="44.85937450216224" lon="7.965685912226277"><ele>256.0</ele><time>2026-04-19T09:29:30Z</time></trkpt><trkpt lat="44.85928728237728" lon="7.965713963148049"><ele>256.0</ele><time>2026-04-19T09:29:31Z</time></trkpt><trkpt lat="44.85919035157492" lon="7.965718751591782"><ele>256.0</ele><time>2026-04-19T09:29:32Z</time></trkpt><trkpt lat="44.859110714924924" lon="7.965706210789644"><ele>256.0</ele><time>2026-04-19T09:29:33Z</time></trkpt><trkpt lat="44.8590217030581" lon="7.965683859111768"><ele>256.3333333333333</ele><time>2026-04-19T09:29:34Z</time></trkpt><trkpt lat="44.858917711143775" lon="7.965680678084973"><ele>256.66666666666663</ele><time>2026-04-19T09:29:35Z</time></trkpt><trkpt lat="44.858832817465235" lon="7.965685233516016"><ele>257.0</ele><time>2026-04-19T09:29:36Z</time></trkpt><trkpt lat="44.85875729343758" lon="7.9656769347299665"><ele>257.3333333333333</ele><time>2026-04-19T09:29:37Z</time></trkpt><trkpt lat="44.85869215615827" lon="7.965613867481562"><ele>257.6666666666667</ele><time>2026-04-19T09:29:38Z</time></trkpt><trkpt lat="44.858612153986" lon="7.965571811813027"><ele>258.0</ele><time>2026-04-19T09:29:39Z</time></trkpt><trkpt lat="44.85856663542052" lon="7.965491413622576"><ele>258.0</ele><time>2026-04-19T09:29:40Z</time></trkpt><trkpt lat="44.858475768502764" lon="7.9654429740427615"><ele>258.0</ele><time>2026-04-19T09:29:41Z</time></trkpt><trkpt lat="44.85837539685676" lon="7.965416913715664"><ele>258.0</ele><time>2026-04-19T09:29:42Z</time></trkpt><trkpt lat="44.85828516100677" lon="7.965356033164324"><ele>258.0</ele><time>2026-04-19T09:29:43Z</time></trkpt><trkpt lat="44.85820071761867" lon="7.965265601030438"><ele>258.0</ele><time>2026-04-19T09:29:44Z</time></trkpt><trkpt lat="44.85813410232344" lon="7.965196664695093"><ele>258.6</ele><time>2026-04-19T09:29:45Z</time></trkpt><trkpt lat="44.85805110083395" lon="7.965112602337902"><ele>259.20000000000005</ele><time>2026-04-19T09:29:46Z</time></trkpt><trkpt lat="44.85797783502652" lon="7.9650772124437585"><ele>259.8</ele><time>2026-04-19T09:29:47Z</time></trkpt><trkpt lat="44.85789387772245" lon="7.965023986415836"><ele>260.40000000000003</ele><time>2026-04-19T09:29:48Z</time></trkpt><trkpt lat="44.85779840182109" lon="7.964972237321346"><ele>261.0</ele><time>2026-04-19T09:29:49Z</time></trkpt><trkpt lat="44.85771332734844" lon="7.964915771083108"><ele>260.6</ele><time>2026-04-19T09:29:50Z</time></trkpt><trkpt lat="44.85761666468729" lon="7.964880028077616"><ele>260.20000000000005</ele><time>2026-04-19T09:29:51Z</time></trkpt><trkpt lat="44.85752510079188" lon="7.964852500075528"><ele>259.79999999999995</ele><time>2026-04-19T09:29:52Z</time></trkpt><trkpt lat="44.85746384818205" lon="7.9648147327236325"><ele>259.4</ele><time>2026-04-19T09:29:53.001Z</time></trkpt><trkpt lat="44.85737478444118" lon="7.964778986478065"><ele>259.0</ele><time>2026-04-19T09:29:55.001Z</time></trkpt><trkpt lat="44.85726528499632" lon="7.964738657400383"><ele>259.0</ele><time>2026-04-19T09:29:57.001Z</time></trkpt><trkpt lat="44.85720160983474" lon="7.964703592031513"><ele>259.0</ele><time>2026-04-19T09:29:58.001Z</time></trkpt><trkpt lat="44.857160289605574" lon="7.964603315055762"><ele>259.0</ele><time>2026-04-19T09:29:59.001Z</time></trkpt><trkpt lat="44.85708500450139" lon="7.96453264364001"><ele>259.0</ele><time>2026-04-19T09:30:00.001Z</time></trkpt><trkpt lat="44.85702189522276" lon="7.964511906518597"><ele>259.0</ele><time>2026-04-19T09:30:01.001Z</time></trkpt><trkpt lat="44.85695157767944" lon="7.964479412492697"><ele>259.0</ele><time>2026-04-19T09:30:02.001Z</time></trkpt><trkpt lat="44.85687558541385" lon="7.964445741880205"><ele>258.5</ele><time>2026-04-19T09:30:03.001Z</time></trkpt><trkpt lat="44.85678521220583" lon="7.964385269206048"><ele>258.0</ele><time>2026-04-19T09:30:04.001Z</time></trkpt><trkpt lat="44.856698256298806" lon="7.964297387064777"><ele>257.5</ele><time>2026-04-19T09:30:05.001Z</time></trkpt><trkpt lat="44.85663832847768" lon="7.964255632553612"><ele>257.0</ele><time>2026-04-19T09:30:06.001Z</time></trkpt><trkpt lat="44.85655318785245" lon="7.964224653283454"><ele>256.5</ele><time>2026-04-19T09:30:07.001Z</time></trkpt><trkpt lat="44.85648325015868" lon="7.964235752290571"><ele>256.0</ele><time>2026-04-19T09:30:08.001Z</time></trkpt><trkpt lat="44.85638183574864" lon="7.964180987451952"><ele>256.0</ele><time>2026-04-19T09:30:10.001Z</time></trkpt><trkpt lat="44.85629726415421" lon="7.964078145299698"><ele>256.0</ele><time>2026-04-19T09:30:12.001Z</time></trkpt><trkpt lat="44.85621680610187" lon="7.963930905670921"><ele>256.0</ele><time>2026-04-19T09:30:14.001Z</time></trkpt><trkpt lat="44.856181623902636" lon="7.9638347409452015"><ele>256.0</ele><time>2026-04-19T09:30:16.001Z</time></trkpt><trkpt lat="44.85611394642357" lon="7.963756919752369"><ele>256.0</ele><time>2026-04-19T09:30:18.001Z</time></trkpt><trkpt lat="44.85608957715104" lon="7.963667713648814"><ele>256.0</ele><time>2026-04-19T09:30:19.001Z</time></trkpt><trkpt lat="44.85602345225638" lon="7.963457119971854"><ele>256.0</ele><time>2026-04-19T09:30:21.001Z</time></trkpt><trkpt lat="44.85593903211871" lon="7.963353511493177"><ele>256.0</ele><time>2026-04-19T09:30:22.001Z</time></trkpt><trkpt lat="44.855867748576834" lon="7.963254468215847"><ele>256.0</ele><time>2026-04-19T09:30:23.001Z</time></trkpt><trkpt lat="44.85581686325274" lon="7.963156761193683"><ele>257.16666666666663</ele><time>2026-04-19T09:30:24.001Z</time></trkpt><trkpt lat="44.85573164369259" lon="7.963002305397978"><ele>258.3333333333333</ele><time>2026-04-19T09:30:26.001Z</time></trkpt><trkpt lat="44.85568338336856" lon="7.96292116071431"><ele>259.5</ele><time>2026-04-19T09:30:27.001Z</time></trkpt><trkpt lat="44.85565012783116" lon="7.962841514660922"><ele>260.6666666666667</ele><time>2026-04-19T09:30:28.001Z</time></trkpt><trkpt lat="44.85559352922517" lon="7.962785124091329"><ele>261.83333333333337</ele><time>2026-04-19T09:30:29.001Z</time></trkpt><trkpt lat="44.85552643868819" lon="7.962699141927859"><ele>263.0</ele><time>2026-04-19T09:30:30.001Z</time></trkpt><trkpt lat="44.85544962109101" lon="7.962643535762714"><ele>263.0</ele><time>2026-04-19T09:30:31.001Z</time></trkpt><trkpt lat="44.85535895345665" lon="7.962646347756842"><ele>263.0</ele><time>2026-04-19T09:30:33.001Z</time></trkpt><trkpt lat="44.8552955905551" lon="7.962589162651901"><ele>263.0</ele><time>2026-04-19T09:30:35Z</time></trkpt><trkpt lat="44.85521302127336" lon="7.962555480763582"><ele>263.0</ele><time>2026-04-19T09:30:37Z</time></trkpt><trkpt lat="44.85513380792033" lon="7.9625225915848095"><ele>263.0</ele><time>2026-04-19T09:30:40Z</time></trkpt><trkpt lat="44.85501457703928" lon="7.962464940721664"><ele>263.4</ele><time>2026-04-19T09:30:42Z</time></trkpt><trkpt lat="44.854938592461615" lon="7.962400899302876"><ele>263.8</ele><time>2026-04-19T09:30:46Z</time></trkpt><trkpt lat="44.85484445271944" lon="7.9623962067640415"><ele>264.2</ele><time>2026-04-19T09:30:49Z</time></trkpt><trkpt lat="44.854792765191206" lon="7.9623217882670225"><ele>264.6</ele><time>2026-04-19T09:30:51Z</time></trkpt><trkpt lat="44.854696406429056" lon="7.962247201599348"><ele>265.0</ele><time>2026-04-19T09:30:52Z</time></trkpt><trkpt lat="44.85461726872246" lon="7.9621759607717335"><ele>265.0</ele><time>2026-04-19T09:30:53Z</time></trkpt><trkpt lat="44.85452620686517" lon="7.9620990144254655"><ele>265.0</ele><time>2026-04-19T09:30:54Z</time></trkpt><trkpt lat="44.854441781554414" lon="7.962007543153249"><ele>265.0</ele><time>2026-04-19T09:30:55Z</time></trkpt><trkpt lat="44.85435776292295" lon="7.961990648908637"><ele>265.0</ele><time>2026-04-19T09:30:57Z</time></trkpt><trkpt lat="44.85430997904978" lon="7.961901736098982"><ele>265.0</ele><time>2026-04-19T09:30:59Z</time></trkpt><trkpt lat="44.85421027257359" lon="7.961841980126402"><ele>264.8</ele><time>2026-04-19T09:31:02Z</time></trkpt><trkpt lat="44.85408929466531" lon="7.9617337633610115"><ele>264.6</ele><time>2026-04-19T09:31:04Z</time></trkpt><trkpt lat="44.854022484276115" lon="7.9617142452976575"><ele>264.4</ele><time>2026-04-19T09:31:08Z</time></trkpt><trkpt lat="44.853950470125675" lon="7.961727081164784"><ele>264.2</ele><time>2026-04-19T09:31:10Z</time></trkpt><trkpt lat="44.853842661114854" lon="7.961725030017614"><ele>264.0</ele><time>2026-04-19T09:31:13Z</time></trkpt><trkpt lat="44.85373143620262" lon="7.96169513625818"><ele>264.0</ele><time>2026-04-19T09:31:14Z</time></trkpt><trkpt lat="44.85363098637104" lon="7.96170928423303"><ele>264.0</ele><time>2026-04-19T09:31:15Z</time></trkpt><trkpt lat="44.85353933650554" lon="7.961723499712838"><ele>264.0</ele><time>2026-04-19T09:31:16Z</time></trkpt><trkpt lat="44.85346453757322" lon="7.96170548760694"><ele>264.0</ele><time>2026-04-19T09:31:17Z</time></trkpt><trkpt lat="44.85339445887814" lon="7.961699838014159"><ele>264.0</ele><time>2026-04-19T09:31:18Z</time></trkpt><trkpt lat="44.853304800563244" lon="7.961697569860828"><ele>264.0</ele><time>2026-04-19T09:31:19Z</time></trkpt><trkpt lat="44.85323281537746" lon="7.961672123264448"><ele>263.8333333333333</ele><time>2026-04-19T09:31:20Z</time></trkpt><trkpt lat="44.85315522638118" lon="7.961628838668253"><ele>263.6666666666667</ele><time>2026-04-19T09:31:21Z</time></trkpt><trkpt lat="44.85308823028525" lon="7.961646170655758"><ele>263.5</ele><time>2026-04-19T09:31:22Z</time></trkpt><trkpt lat="44.85302188054929" lon="7.96161049625562"><ele>263.33333333333337</ele><time>2026-04-19T09:31:23Z</time></trkpt><trkpt lat="44.85294318568231" lon="7.961512203455239"><ele>263.1666666666667</ele><time>2026-04-19T09:31:24Z</time></trkpt><trkpt lat="44.85289168261664" lon="7.961457467593694"><ele>263.0</ele><time>2026-04-19T09:31:25Z</time></trkpt><trkpt lat="44.852826129143224" lon="7.961394606757627"><ele>263.0</ele><time>2026-04-19T09:31:27Z</time></trkpt><trkpt lat="44.852752568312525" lon="7.9613049288056885"><ele>263.0</ele><time>2026-04-19T09:31:29Z</time></trkpt><trkpt lat="44.852691008451906" lon="7.961280791850567"><ele>263.0</ele><time>2026-04-19T09:31:30Z</time></trkpt><trkpt lat="44.852628114392736" lon="7.961245800366418"><ele>263.0</ele><time>2026-04-19T09:31:31Z</time></trkpt><trkpt lat="44.85256504402113" lon="7.961212074217283"><ele>263.0</ele><time>2026-04-19T09:31:32Z</time></trkpt><trkpt lat="44.852495763129134" lon="7.961172077365506"><ele>263.0</ele><time>2026-04-19T09:31:34Z</time></trkpt><trkpt lat="44.85242715581914" lon="7.9611432399129605"><ele>263.0</ele><time>2026-04-19T09:31:36Z</time></trkpt><trkpt lat="44.85233305713907" lon="7.961085007102467"><ele>263.33333333333337</ele><time>2026-04-19T09:31:38Z</time></trkpt><trkpt lat="44.85225705163308" lon="7.96103706054884"><ele>263.6666666666667</ele><time>2026-04-19T09:31:39Z</time></trkpt><trkpt lat="44.85220804974891" lon="7.960967823096276"><ele>264.0</ele><time>2026-04-19T09:31:40Z</time></trkpt><trkpt lat="44.8521332992546" lon="7.960918800514493"><ele>264.3333333333333</ele><time>2026-04-19T09:31:41Z</time></trkpt><trkpt lat="44.852057659138836" lon="7.960867230530627"><ele>264.66666666666663</ele><time>2026-04-19T09:31:42Z</time></trkpt><trkpt lat="44.85197126367659" lon="7.960820849282754"><ele>265.0</ele><time>2026-04-19T09:31:43Z</time></trkpt><trkpt lat="44.85189866710004" lon="7.960778415240488"><ele>265.0</ele><time>2026-04-19T09:31:44Z</time></trkpt><trkpt lat="44.85181714960673" lon="7.96074371654765"><ele>265.0</ele><time>2026-04-19T09:31:45Z</time></trkpt><trkpt lat="44.85174606191314" lon="7.960721167607193"><ele>265.0</ele><time>2026-04-19T09:31:46Z</time></trkpt><trkpt lat="44.85165387635583" lon="7.960681569010339"><ele>265.0</ele><time>2026-04-19T09:31:48Z</time></trkpt><trkpt lat="44.851569523200254" lon="7.960622130685654"><ele>265.0</ele><time>2026-04-19T09:31:50Z</time></trkpt><trkpt lat="44.85149592419733" lon="7.960550236760227"><ele>265.0</ele><time>2026-04-19T09:31:52.001Z</time></trkpt><trkpt lat="44.85143440657127" lon="7.960451447593657"><ele>265.2</ele><time>2026-04-19T09:31:54.001Z</time></trkpt><trkpt lat="44.85136088097594" lon="7.960400509029543"><ele>265.4</ele><time>2026-04-19T09:31:56.001Z</time></trkpt><trkpt lat="44.85127109421192" lon="7.960323331379075"><ele>265.6</ele><time>2026-04-19T09:31:58.001Z</time></trkpt><trkpt lat="44.85120151854188" lon="7.96025955492004"><ele>265.8</ele><time>2026-04-19T09:31:59.001Z</time></trkpt><trkpt lat="44.85110056521969" lon="7.960138770154152"><ele>266.0</ele><time>2026-04-19T09:32:01.001Z</time></trkpt><trkpt lat="44.851049346569695" lon="7.960078456721465"><ele>267.2</ele><time>2026-04-19T09:32:02.001Z</time></trkpt><trkpt lat="44.8510072555664" lon="7.960001723750976"><ele>268.40000000000003</ele><time>2026-04-19T09:32:03.001Z</time></trkpt><trkpt lat="44.85090703121961" lon="7.959876699382274"><ele>269.6</ele><time>2026-04-19T09:32:05.001Z</time></trkpt><trkpt lat="44.85081883043804" lon="7.95978198565537"><ele>270.8</ele><time>2026-04-19T09:32:07.001Z</time></trkpt><trkpt lat="44.85072337614272" lon="7.959688628872895"><ele>272.0</ele><time>2026-04-19T09:32:09.001Z</time></trkpt><trkpt lat="44.85064400933454" lon="7.959659561265468"><ele>272.0</ele><time>2026-04-19T09:32:10.001Z</time></trkpt><trkpt lat="44.850562391092545" lon="7.959633535215816"><ele>272.0</ele><time>2026-04-19T09:32:11.001Z</time></trkpt><trkpt lat="44.850466747335346" lon="7.95965210542801"><ele>272.0</ele><time>2026-04-19T09:32:12.001Z</time></trkpt><trkpt lat="44.85039231576677" lon="7.95959943216843"><ele>272.0</ele><time>2026-04-19T09:32:13.001Z</time></trkpt><trkpt lat="44.85031785536016" lon="7.959579502222644"><ele>272.0</ele><time>2026-04-19T09:32:14.001Z</time></trkpt><trkpt lat="44.850249224616554" lon="7.959559912118559"><ele>272.0</ele><time>2026-04-19T09:32:15.001Z</time></trkpt><trkpt lat="44.85015449745136" lon="7.959494387187155"><ele>272.6666666666667</ele><time>2026-04-19T09:32:17.001Z</time></trkpt><trkpt lat="44.850080151984265" lon="7.959473056321266"><ele>273.33333333333337</ele><time>2026-04-19T09:32:18.001Z</time></trkpt><trkpt lat="44.84998677130472" lon="7.959468665391021"><ele>274.0</ele><time>2026-04-19T09:32:19.001Z</time></trkpt><trkpt lat="44.84990735278948" lon="7.9594741692114965"><ele>274.6666666666667</ele><time>2026-04-19T09:32:20.001Z</time></trkpt><trkpt lat="44.84981305335582" lon="7.959431745576131"><ele>275.3333333333333</ele><time>2026-04-19T09:32:21.001Z</time></trkpt><trkpt lat="44.84972965649417" lon="7.959418063010405"><ele>276.0</ele><time>2026-04-19T09:32:22.001Z</time></trkpt><trkpt lat="44.84964018469332" lon="7.959406729465507"><ele>276.0</ele><time>2026-04-19T09:32:23.001Z</time></trkpt><trkpt lat="44.849571364215166" lon="7.959398113617677"><ele>276.0</ele><time>2026-04-19T09:32:24.001Z</time></trkpt><trkpt lat="44.84950430917891" lon="7.959400267623566"><ele>276.0</ele><time>2026-04-19T09:32:25.001Z</time></trkpt><trkpt lat="44.84939858607402" lon="7.959490984736089"><ele>276.0</ele><time>2026-04-19T09:32:27.001Z</time></trkpt><trkpt lat="44.84935277360036" lon="7.959553160907043"><ele>276.0</ele><time>2026-04-19T09:32:28.001Z</time></trkpt><trkpt lat="44.849282768488926" lon="7.9595910899036575"><ele>276.0</ele><time>2026-04-19T09:32:29.001Z</time></trkpt><trkpt lat="44.84914321739336" lon="7.9595627674253615"><ele>277.1666666666667</ele><time>2026-04-19T09:32:31.001Z</time></trkpt><trkpt lat="44.849045506367084" lon="7.959527643165241"><ele>278.3333333333333</ele><time>2026-04-19T09:32:32.001Z</time></trkpt><trkpt lat="44.84897995671323" lon="7.959461876459965"><ele>279.5</ele><time>2026-04-19T09:32:33.001Z</time></trkpt><trkpt lat="44.84888986875303" lon="7.9594297821158335"><ele>280.66666666666663</ele><time>2026-04-19T09:32:34.001Z</time></trkpt><trkpt lat="44.84880262681696" lon="7.959390696431299"><ele>281.8333333333333</ele><time>2026-04-19T09:32:35.001Z</time></trkpt><trkpt lat="44.84872180656631" lon="7.9593769234955705"><ele>283.0</ele><time>2026-04-19T09:32:36.001Z</time></trkpt><trkpt lat="44.848651714540345" lon="7.959355871045682"><ele>283.0</ele><time>2026-04-19T09:32:37.001Z</time></trkpt><trkpt lat="44.848575531913184" lon="7.959337330312909"><ele>283.0</ele><time>2026-04-19T09:32:38.001Z</time></trkpt><trkpt lat="44.84849386072015" lon="7.95929531237043"><ele>283.0</ele><time>2026-04-19T09:32:39.001Z</time></trkpt><trkpt lat="44.84842814926133" lon="7.95926991523844"><ele>283.0</ele><time>2026-04-19T09:32:40Z</time></trkpt><trkpt lat="44.8482995248533" lon="7.959252474139835"><ele>283.0</ele><time>2026-04-19T09:32:42Z</time></trkpt><trkpt lat="44.84820637146704" lon="7.959270928969198"><ele>282.6</ele><time>2026-04-19T09:32:44Z</time></trkpt><trkpt lat="44.84811877580121" lon="7.9592714404732"><ele>282.20000000000005</ele><time>2026-04-19T09:32:46Z</time></trkpt><trkpt lat="44.847982348275025" lon="7.959252469812535"><ele>281.8</ele><time>2026-04-19T09:32:48Z</time></trkpt><trkpt lat="44.84791213686714" lon="7.959232400962778"><ele>281.40000000000003</ele><time>2026-04-19T09:32:49Z</time></trkpt><trkpt lat="44.84781577198744" lon="7.959240808173927"><ele>281.0</ele><time>2026-04-19T09:32:50Z</time></trkpt><trkpt lat="44.84771819792616" lon="7.959251770290677"><ele>281.0</ele><time>2026-04-19T09:32:51Z</time></trkpt><trkpt lat="44.84764314002564" lon="7.959251335648611"><ele>281.0</ele><time>2026-04-19T09:32:52Z</time></trkpt><trkpt lat="44.847561045410394" lon="7.9592526839410285"><ele>281.0</ele><time>2026-04-19T09:32:53Z</time></trkpt><trkpt lat="44.84742278863483" lon="7.959280368224764"><ele>281.0</ele><time>2026-04-19T09:32:55Z</time></trkpt><trkpt lat="44.84732197046479" lon="7.959276841180933"><ele>281.0</ele><time>2026-04-19T09:32:57Z</time></trkpt><trkpt lat="44.84727306839569" lon="7.959201217822631"><ele>281.0</ele><time>2026-04-19T09:32:59Z</time></trkpt><trkpt lat="44.84719904704949" lon="7.959158088671852"><ele>281.0</ele><time>2026-04-19T09:33:06Z</time></trkpt><trkpt lat="44.84712789467603" lon="7.95913519632354"><ele>281.0</ele><time>2026-04-19T09:33:08Z</time></trkpt><trkpt lat="44.84705133284285" lon="7.959135666980874"><ele>281.0</ele><time>2026-04-19T09:33:09Z</time></trkpt><trkpt lat="44.84697498947678" lon="7.95914283353154"><ele>281.0</ele><time>2026-04-19T09:33:10Z</time></trkpt><trkpt lat="44.846848053221365" lon="7.959122032443325"><ele>281.0</ele><time>2026-04-19T09:33:12Z</time></trkpt><trkpt lat="44.84674932637347" lon="7.9591408319559065"><ele>281.0</ele><time>2026-04-19T09:33:13Z</time></trkpt><trkpt lat="44.84665441011778" lon="7.959181173763865"><ele>281.0</ele><time>2026-04-19T09:33:14Z</time></trkpt><trkpt lat="44.84655325896624" lon="7.959199111887739"><ele>281.0</ele><time>2026-04-19T09:33:15Z</time></trkpt><trkpt lat="44.8464861861331" lon="7.959234562467117"><ele>281.0</ele><time>2026-04-19T09:33:16Z</time></trkpt><trkpt lat="44.84643354833689" lon="7.959335760916759"><ele>281.0</ele><time>2026-04-19T09:33:17Z</time></trkpt><trkpt lat="44.84637876020435" lon="7.959421544249727"><ele>281.0</ele><time>2026-04-19T09:33:18Z</time></trkpt><trkpt lat="44.84633236629519" lon="7.959508415525402"><ele>282.6</ele><time>2026-04-19T09:33:19Z</time></trkpt><trkpt lat="44.84625979478432" lon="7.959613427584849"><ele>284.20000000000005</ele><time>2026-04-19T09:33:20Z</time></trkpt><trkpt lat="44.846225686119624" lon="7.9597292434485825"><ele>285.79999999999995</ele><time>2026-04-19T09:33:21Z</time></trkpt><trkpt lat="44.84618045474944" lon="7.95983496384334"><ele>287.4</ele><time>2026-04-19T09:33:22Z</time></trkpt><trkpt lat="44.846128860778634" lon="7.959893427720883"><ele>289.0</ele><time>2026-04-19T09:33:23Z</time></trkpt><trkpt lat="44.84598509010102" lon="7.959993297223731"><ele>289.8</ele><time>2026-04-19T09:33:25Z</time></trkpt><trkpt lat="44.84590067536391" lon="7.960061489749636"><ele>290.59999999999997</ele><time>2026-04-19T09:33:26Z</time></trkpt><trkpt lat="44.845831932675154" lon="7.9601261051245285"><ele>291.4</ele><time>2026-04-19T09:33:27Z</time></trkpt><trkpt lat="44.84569938667294" lon="7.960155792604093"><ele>292.2</ele><time>2026-04-19T09:33:29Z</time></trkpt><trkpt lat="44.84558048055185" lon="7.960144855483776"><ele>293.0</ele><time>2026-04-19T09:33:30Z</time></trkpt><trkpt lat="44.84547694634765" lon="7.9601197261373375"><ele>293.0</ele><time>2026-04-19T09:33:31Z</time></trkpt><trkpt lat="44.84537502622116" lon="7.960168963747446"><ele>293.0</ele><time>2026-04-19T09:33:32Z</time></trkpt><trkpt lat="44.84530603532032" lon="7.9602937087900845"><ele>293.0</ele><time>2026-04-19T09:33:33Z</time></trkpt><trkpt lat="44.845260933730096" lon="7.960405911689463"><ele>293.0</ele><time>2026-04-19T09:33:34Z</time></trkpt><trkpt lat="44.845204101574126" lon="7.960532416158334"><ele>293.0</ele><time>2026-04-19T09:33:35Z</time></trkpt><trkpt lat="44.84515389198566" lon="7.960673843603069"><ele>292.2</ele><time>2026-04-19T09:33:36Z</time></trkpt><trkpt lat="44.845086229413134" lon="7.960768872105481"><ele>291.4</ele><time>2026-04-19T09:33:37Z</time></trkpt><trkpt lat="44.845019605685835" lon="7.960812311859209"><ele>290.59999999999997</ele><time>2026-04-19T09:33:38Z</time></trkpt><trkpt lat="44.844870631131435" lon="7.960792275660139"><ele>289.8</ele><time>2026-04-19T09:33:40Z</time></trkpt><trkpt lat="44.84477278694069" lon="7.96071073933608"><ele>289.0</ele><time>2026-04-19T09:33:41Z</time></trkpt><trkpt lat="44.8446779063913" lon="7.960654057227183"><ele>289.0</ele><time>2026-04-19T09:33:42Z</time></trkpt><trkpt lat="44.844597024934785" lon="7.960626562540365"><ele>289.0</ele><time>2026-04-19T09:33:43Z</time></trkpt><trkpt lat="44.84453245659202" lon="7.960579490404125"><ele>289.0</ele><time>2026-04-19T09:33:44Z</time></trkpt><trkpt lat="44.844468060119794" lon="7.960536993881132"><ele>289.0</ele><time>2026-04-19T09:33:45Z</time></trkpt><trkpt lat="44.84435492428405" lon="7.960525496371773"><ele>289.0</ele><time>2026-04-19T09:33:47Z</time></trkpt><trkpt lat="44.84425677865112" lon="7.960573557349912"><ele>289.0</ele><time>2026-04-19T09:33:49Z</time></trkpt><trkpt lat="44.844202970241675" lon="7.960516449090648"><ele>290.2</ele><time>2026-04-19T09:33:50Z</time></trkpt><trkpt lat="44.84416931167067" lon="7.960389090727884"><ele>291.4</ele><time>2026-04-19T09:33:51Z</time></trkpt><trkpt lat="44.84412757690911" lon="7.96026581688444"><ele>292.6</ele><time>2026-04-19T09:33:52Z</time></trkpt><trkpt lat="44.844058380480114" lon="7.9601222063464885"><ele>293.8</ele><time>2026-04-19T09:33:53Z</time></trkpt><trkpt lat="44.84401343875397" lon="7.959995699037456"><ele>295.0</ele><time>2026-04-19T09:33:54Z</time></trkpt><trkpt lat="44.84396171759462" lon="7.959891420000896"><ele>295.0</ele><time>2026-04-19T09:33:55Z</time></trkpt><trkpt lat="44.84391775145815" lon="7.959812226290259"><ele>295.0</ele><time>2026-04-19T09:33:56Z</time></trkpt><trkpt lat="44.84385557621227" lon="7.95973474958212"><ele>295.0</ele><time>2026-04-19T09:33:57Z</time></trkpt><trkpt lat="44.84382420200536" lon="7.959607824352931"><ele>295.0</ele><time>2026-04-19T09:33:58Z</time></trkpt><trkpt lat="44.843772535572406" lon="7.959470081288735"><ele>295.0</ele><time>2026-04-19T09:33:59Z</time></trkpt><trkpt lat="44.84370685158292" lon="7.959347623580872"><ele>295.0</ele><time>2026-04-19T09:34:00Z</time></trkpt><trkpt lat="44.84362898214313" lon="7.95922218882134"><ele>295.0</ele><time>2026-04-19T09:34:01Z</time></trkpt><trkpt lat="44.843589442633196" lon="7.95906500305432"><ele>295.0</ele><time>2026-04-19T09:34:02Z</time></trkpt><trkpt lat="44.843520877150524" lon="7.95891049704001"><ele>295.0</ele><time>2026-04-19T09:34:04Z</time></trkpt><trkpt lat="44.843478914777975" lon="7.958790078375325"><ele>296.2</ele><time>2026-04-19T09:34:06Z</time></trkpt><trkpt lat="44.84361990500626" lon="7.958768812733315"><ele>297.4</ele><time>2026-04-19T09:34:08Z</time></trkpt><trkpt lat="44.843697518947316" lon="7.95866922723298"><ele>298.6</ele><time>2026-04-19T09:34:09Z</time></trkpt><trkpt lat="44.84375723720189" lon="7.958550356324343"><ele>299.8</ele><time>2026-04-19T09:34:10Z</time></trkpt><trkpt lat="44.84381266852976" lon="7.95846562742463"><ele>301.0</ele><time>2026-04-19T09:34:11Z</time></trkpt><trkpt lat="44.84390092486917" lon="7.9585159096408296"><ele>301.0</ele><time>2026-04-19T09:34:13Z</time></trkpt><trkpt lat="44.843894387905564" lon="7.958631926378436"><ele>301.0</ele><time>2026-04-19T09:34:14Z</time></trkpt><trkpt lat="44.84391103797525" lon="7.958735536557069"><ele>301.0</ele><time>2026-04-19T09:34:15Z</time></trkpt><trkpt lat="44.843960058540794" lon="7.958792925933402"><ele>301.0</ele><time>2026-04-19T09:34:16Z</time></trkpt><trkpt lat="44.84401435881691" lon="7.95886619790369"><ele>301.0</ele><time>2026-04-19T09:34:17Z</time></trkpt><trkpt lat="44.84408528373036" lon="7.958931038510911"><ele>301.0</ele><time>2026-04-19T09:34:18Z</time></trkpt><trkpt lat="44.844167249467525" lon="7.9589774055085165"><ele>301.0</ele><time>2026-04-19T09:34:19Z</time></trkpt><trkpt lat="44.8442452346535" lon="7.959028512270291"><ele>301.0</ele><time>2026-04-19T09:34:20Z</time></trkpt><trkpt lat="44.84430945391846" lon="7.959102759664775"><ele>301.0</ele><time>2026-04-19T09:34:21Z</time></trkpt><trkpt lat="44.844382102085284" lon="7.959157800499134"><ele>301.0</ele><time>2026-04-19T09:34:22Z</time></trkpt><trkpt lat="44.8444678649549" lon="7.959225737335871"><ele>301.0</ele><time>2026-04-19T09:34:23.001Z</time></trkpt><trkpt lat="44.844572473527215" lon="7.959248338657557"><ele>300.3333333333333</ele><time>2026-04-19T09:34:24.001Z</time></trkpt><trkpt lat="44.84465090257881" lon="7.95928626751006"><ele>299.66666666666663</ele><time>2026-04-19T09:34:25.001Z</time></trkpt><trkpt lat="44.84473043928536" lon="7.95932375608936"><ele>299.0</ele><time>2026-04-19T09:34:26.001Z</time></trkpt><trkpt lat="44.844795103072755" lon="7.959338839838942"><ele>298.3333333333333</ele><time>2026-04-19T09:34:27.001Z</time></trkpt><trkpt lat="44.84486776376267" lon="7.95932944343461"><ele>297.6666666666667</ele><time>2026-04-19T09:34:28.001Z</time></trkpt><trkpt lat="44.84493793961408" lon="7.959297270316841"><ele>297.0</ele><time>2026-04-19T09:34:29.001Z</time></trkpt><trkpt lat="44.8450669380912" lon="7.95921407721033"><ele>297.5</ele><time>2026-04-19T09:34:31.001Z</time></trkpt><trkpt lat="44.845162464182316" lon="7.959095139467726"><ele>298.0</ele><time>2026-04-19T09:34:33.001Z</time></trkpt><trkpt lat="44.84513864243481" lon="7.958905412616117"><ele>298.5</ele><time>2026-04-19T09:34:35.001Z</time></trkpt><trkpt lat="44.84509281240118" lon="7.958844404171072"><ele>299.0</ele><time>2026-04-19T09:34:36.001Z</time></trkpt><trkpt lat="44.844977180921774" lon="7.958736160189724"><ele>301.59999999999997</ele><time>2026-04-19T09:34:38.001Z</time></trkpt><trkpt lat="44.84488237591783" lon="7.958646456680743"><ele>304.2</ele><time>2026-04-19T09:34:39.001Z</time></trkpt><trkpt lat="44.8448123561422" lon="7.958533941636762"><ele>306.79999999999995</ele><time>2026-04-19T09:34:40.001Z</time></trkpt><trkpt lat="44.84474410887689" lon="7.958434371773324"><ele>309.4</ele><time>2026-04-19T09:34:41.001Z</time></trkpt><trkpt lat="44.8446759830404" lon="7.9583621924444845"><ele>312.0</ele><time>2026-04-19T09:34:42.001Z</time></trkpt><trkpt lat="44.84461710649637" lon="7.958295326589999"><ele>313.42857142857144</ele><time>2026-04-19T09:34:43.001Z</time></trkpt><trkpt lat="44.844594568125224" lon="7.958208214294958"><ele>314.85714285714283</ele><time>2026-04-19T09:34:44.001Z</time></trkpt><trkpt lat="44.8445735450867" lon="7.958117727654927"><ele>316.2857142857143</ele><time>2026-04-19T09:34:45.001Z</time></trkpt><trkpt lat="44.84455541527842" lon="7.958023085160246"><ele>317.7142857142857</ele><time>2026-04-19T09:34:45.999Z</time></trkpt><trkpt lat="44.844543385131814" lon="7.957912731931297"><ele>319.1428571428571</ele><time>2026-04-19T09:34:46.999Z</time></trkpt><trkpt lat="44.84452987996096" lon="7.957816818809749"><ele>320.57142857142856</ele><time>2026-04-19T09:34:47.999Z</time></trkpt><trkpt lat="44.844501235345845" lon="7.957704957699759"><ele>322.0</ele><time>2026-04-19T09:34:48.999Z</time></trkpt><trkpt lat="44.84449205137721" lon="7.957594734600541"><ele>322.66666666666663</ele><time>2026-04-19T09:34:49.999Z</time></trkpt><trkpt lat="44.84450291283794" lon="7.957494081312176"><ele>323.3333333333333</ele><time>2026-04-19T09:34:50.999Z</time></trkpt><trkpt lat="44.844486899814626" lon="7.957392733753504"><ele>324.0</ele><time>2026-04-19T09:34:51.999Z</time></trkpt><trkpt lat="44.8444827196434" lon="7.957285599952777"><ele>324.6666666666667</ele><time>2026-04-19T09:34:52.999Z</time></trkpt><trkpt lat="44.84447634218076" lon="7.957169343094386"><ele>325.33333333333337</ele><time>2026-04-19T09:34:53.999Z</time></trkpt><trkpt lat="44.84447752657035" lon="7.957054101519287"><ele>326.0</ele><time>2026-04-19T09:34:54.999Z</time></trkpt><trkpt lat="44.84443751866951" lon="7.956935861196086"><ele>326.0</ele><time>2026-04-19T09:34:55.999Z</time></trkpt><trkpt lat="44.844410012484175" lon="7.956852131124106"><ele>326.0</ele><time>2026-04-19T09:34:56.999Z</time></trkpt><trkpt lat="44.844333692565" lon="7.956790091365616"><ele>326.0</ele><time>2026-04-19T09:34:57.999Z</time></trkpt><trkpt lat="44.84427224804653" lon="7.956726975120153"><ele>326.0</ele><time>2026-04-19T09:34:58.999Z</time></trkpt><trkpt lat="44.844217044793545" lon="7.956623974750786"><ele>326.0</ele><time>2026-04-19T09:34:59.999Z</time></trkpt><trkpt lat="44.84416532049471" lon="7.9565357183335825"><ele>326.0</ele><time>2026-04-19T09:35:00.999Z</time></trkpt><trkpt lat="44.84407911473921" lon="7.956412371794596"><ele>329.8</ele><time>2026-04-19T09:35:02Z</time></trkpt><trkpt lat="44.84399966049585" lon="7.956301174734071"><ele>333.6</ele><time>2026-04-19T09:35:03Z</time></trkpt><trkpt lat="44.843930698017545" lon="7.956215294984969"><ele>337.4</ele><time>2026-04-19T09:35:04Z</time></trkpt><trkpt lat="44.843859811393195" lon="7.9561134203144395"><ele>341.2</ele><time>2026-04-19T09:35:05Z</time></trkpt><trkpt lat="44.84381826270266" lon="7.955994170066265"><ele>345.0</ele><time>2026-04-19T09:35:06Z</time></trkpt><trkpt lat="44.84380527496831" lon="7.955883109017192"><ele>345.8333333333333</ele><time>2026-04-19T09:35:07Z</time></trkpt><trkpt lat="44.84380925589543" lon="7.955790750981891"><ele>346.6666666666667</ele><time>2026-04-19T09:35:08Z</time></trkpt><trkpt lat="44.84375232980796" lon="7.955616731600915"><ele>347.5</ele><time>2026-04-19T09:35:10Z</time></trkpt><trkpt lat="44.84371635552179" lon="7.955537081254161"><ele>348.33333333333337</ele><time>2026-04-19T09:35:11Z</time></trkpt><trkpt lat="44.843669991237036" lon="7.955458414355257"><ele>349.1666666666667</ele><time>2026-04-19T09:35:14Z</time></trkpt><trkpt lat="44.843597885382614" lon="7.955432899890178"><ele>350.0</ele><time>2026-04-19T09:35:16Z</time></trkpt><trkpt lat="44.84351973505993" lon="7.955450723128022"><ele>350.0</ele><time>2026-04-19T09:35:17Z</time></trkpt><trkpt lat="44.84343321244219" lon="7.955493256993665"><ele>350.0</ele><time>2026-04-19T09:35:18Z</time></trkpt><trkpt lat="44.84333584493667" lon="7.9555494089466485"><ele>350.0</ele><time>2026-04-19T09:35:19Z</time></trkpt><trkpt lat="44.843220715645266" lon="7.955615100742953"><ele>350.0</ele><time>2026-04-19T09:35:20Z</time></trkpt><trkpt lat="44.8431066419613" lon="7.955669732066893"><ele>350.0</ele><time>2026-04-19T09:35:21Z</time></trkpt><trkpt lat="44.842982399864965" lon="7.955735261041486"><ele>350.0</ele><time>2026-04-19T09:35:22Z</time></trkpt><trkpt lat="44.84284657072855" lon="7.9558033373994865"><ele>350.0</ele><time>2026-04-19T09:35:23Z</time></trkpt><trkpt lat="44.8427078000834" lon="7.9558843878043275"><ele>350.0</ele><time>2026-04-19T09:35:24Z</time></trkpt><trkpt lat="44.84256735831371" lon="7.9559585397860895"><ele>350.0</ele><time>2026-04-19T09:35:25Z</time></trkpt><trkpt lat="44.842414342538724" lon="7.956038390700456"><ele>348.33333333333337</ele><time>2026-04-19T09:35:26Z</time></trkpt><trkpt lat="44.842254092657676" lon="7.956103521465036"><ele>346.6666666666667</ele><time>2026-04-19T09:35:27Z</time></trkpt><trkpt lat="44.842119231168446" lon="7.956179031708181"><ele>345.0</ele><time>2026-04-19T09:35:28Z</time></trkpt><trkpt lat="44.84197360467329" lon="7.956255825125303"><ele>345.0</ele><time>2026-04-19T09:35:29Z</time></trkpt><trkpt lat="44.84185379014101" lon="7.956325197560217"><ele>345.0</ele><time>2026-04-19T09:35:30Z</time></trkpt><trkpt lat="44.84177911528638" lon="7.956369391167411"><ele>345.0</ele><time>2026-04-19T09:35:31Z</time></trkpt><trkpt lat="44.841715889004" lon="7.956385427434236"><ele>345.0</ele><time>2026-04-19T09:35:32Z</time></trkpt><trkpt lat="44.84186452764154" lon="7.956459161625142"><ele>345.0</ele><time>2026-04-19T09:35:41Z</time></trkpt><trkpt lat="44.841911343811084" lon="7.956643342869531"><ele>344.5</ele><time>2026-04-19T09:35:44Z</time></trkpt><trkpt lat="44.84184028966746" lon="7.956799267183914"><ele>344.0</ele><time>2026-04-19T09:35:45Z</time></trkpt><trkpt lat="44.841789828910464" lon="7.956974655145284"><ele>343.5</ele><time>2026-04-19T09:35:46Z</time></trkpt><trkpt lat="44.84176611848744" lon="7.957144047244043"><ele>343.0</ele><time>2026-04-19T09:35:47Z</time></trkpt><trkpt lat="44.84173353860673" lon="7.957323483382021"><ele>343.0</ele><time>2026-04-19T09:35:48Z</time></trkpt><trkpt lat="44.84170807370521" lon="7.957504884063151"><ele>343.0</ele><time>2026-04-19T09:35:49Z</time></trkpt><trkpt lat="44.84168683161267" lon="7.957698249920478"><ele>343.0</ele><time>2026-04-19T09:35:50Z</time></trkpt><trkpt lat="44.841669944534246" lon="7.957859511020819"><ele>343.0</ele><time>2026-04-19T09:35:51Z</time></trkpt><trkpt lat="44.8416317037246" lon="7.95803663667488"><ele>341.5</ele><time>2026-04-19T09:35:52Z</time></trkpt><trkpt lat="44.84161067453125" lon="7.958192416588481"><ele>340.0</ele><time>2026-04-19T09:35:53Z</time></trkpt><trkpt lat="44.84157106358242" lon="7.958348849224375"><ele>338.5</ele><time>2026-04-19T09:35:54Z</time></trkpt><trkpt lat="44.84150500609779" lon="7.958488873206371"><ele>337.0</ele><time>2026-04-19T09:35:55Z</time></trkpt><trkpt lat="44.84143197708362" lon="7.958624578721089"><ele>336.75</ele><time>2026-04-19T09:35:56Z</time></trkpt><trkpt lat="44.84135916858715" lon="7.958775541158512"><ele>336.5</ele><time>2026-04-19T09:35:57Z</time></trkpt><trkpt lat="44.84130591550892" lon="7.958934056825894"><ele>336.25</ele><time>2026-04-19T09:35:58Z</time></trkpt><trkpt lat="44.841283577470485" lon="7.959102676713695"><ele>336.0</ele><time>2026-04-19T09:35:59Z</time></trkpt><trkpt lat="44.84127176058234" lon="7.959260643578416"><ele>336.0</ele><time>2026-04-19T09:36:00Z</time></trkpt><trkpt lat="44.84126910054334" lon="7.959410614946816"><ele>336.0</ele><time>2026-04-19T09:36:01Z</time></trkpt><trkpt lat="44.84132066764157" lon="7.9595779347760445"><ele>336.0</ele><time>2026-04-19T09:36:02Z</time></trkpt><trkpt lat="44.84142610431803" lon="7.959701706049758"><ele>336.0</ele><time>2026-04-19T09:36:03Z</time></trkpt><trkpt lat="44.841526418514746" lon="7.959822741431396"><ele>336.0</ele><time>2026-04-19T09:36:04Z</time></trkpt><trkpt lat="44.8416195399211" lon="7.959946030203465"><ele>336.0</ele><time>2026-04-19T09:36:05Z</time></trkpt><trkpt lat="44.84171598131436" lon="7.960081802766759"><ele>336.0</ele><time>2026-04-19T09:36:06Z</time></trkpt><trkpt lat="44.841796031955056" lon="7.96023550003393"><ele>336.0</ele><time>2026-04-19T09:36:07Z</time></trkpt><trkpt lat="44.841854500523446" lon="7.96040760353134"><ele>333.25</ele><time>2026-04-19T09:36:08Z</time></trkpt><trkpt lat="44.841883140688466" lon="7.960573279609172"><ele>330.5</ele><time>2026-04-19T09:36:09Z</time></trkpt><trkpt lat="44.8418898740664" lon="7.960755749138081"><ele>327.75</ele><time>2026-04-19T09:36:10Z</time></trkpt><trkpt lat="44.84185323585546" lon="7.960919884513551"><ele>325.0</ele><time>2026-04-19T09:36:11Z</time></trkpt><trkpt lat="44.84181045513428" lon="7.961115687254699"><ele>328.0</ele><time>2026-04-19T09:36:12Z</time></trkpt><trkpt lat="44.84176162429392" lon="7.96132234857254"><ele>331.0</ele><time>2026-04-19T09:36:13Z</time></trkpt><trkpt lat="44.84169370504288" lon="7.961514733016512"><ele>334.0</ele><time>2026-04-19T09:36:14Z</time></trkpt><trkpt lat="44.84165027455237" lon="7.961707696904944"><ele>334.0</ele><time>2026-04-19T09:36:15Z</time></trkpt><trkpt lat="44.84161478881254" lon="7.961888917573132"><ele>334.0</ele><time>2026-04-19T09:36:16.001Z</time></trkpt><trkpt lat="44.84160813193226" lon="7.962057426025386"><ele>334.0</ele><time>2026-04-19T09:36:17.001Z</time></trkpt><trkpt lat="44.84164698526426" lon="7.962217761897887"><ele>334.0</ele><time>2026-04-19T09:36:18.001Z</time></trkpt><trkpt lat="44.841713247899754" lon="7.9623561467844715"><ele>333.5</ele><time>2026-04-19T09:36:19.001Z</time></trkpt><trkpt lat="44.841817584519525" lon="7.962477254090958"><ele>333.0</ele><time>2026-04-19T09:36:20.001Z</time></trkpt><trkpt lat="44.841929227637415" lon="7.962595676480889"><ele>332.5</ele><time>2026-04-19T09:36:21.001Z</time></trkpt><trkpt lat="44.842051421772545" lon="7.962690386789557"><ele>332.0</ele><time>2026-04-19T09:36:22.001Z</time></trkpt><trkpt lat="44.842171878872634" lon="7.962783421614265"><ele>332.0</ele><time>2026-04-19T09:36:23.001Z</time></trkpt><trkpt lat="44.84230034536809" lon="7.9628781372887865"><ele>332.0</ele><time>2026-04-19T09:36:24.001Z</time></trkpt><trkpt lat="44.84242874369451" lon="7.962960450216963"><ele>332.0</ele><time>2026-04-19T09:36:25.001Z</time></trkpt><trkpt lat="44.84255630010627" lon="7.963045983572348"><ele>332.0</ele><time>2026-04-19T09:36:26.001Z</time></trkpt><trkpt lat="44.84268606833672" lon="7.963143787852734"><ele>331.0</ele><time>2026-04-19T09:36:27.001Z</time></trkpt><trkpt lat="44.84281911357825" lon="7.963241503240387"><ele>330.0</ele><time>2026-04-19T09:36:28.001Z</time></trkpt><trkpt lat="44.842948087869345" lon="7.963319192286922"><ele>329.0</ele><time>2026-04-19T09:36:29.001Z</time></trkpt><trkpt lat="44.843079132577785" lon="7.963378549246469"><ele>328.0</ele><time>2026-04-19T09:36:30.001Z</time></trkpt><trkpt lat="44.84320319087058" lon="7.9634043737491735"><ele>326.75</ele><time>2026-04-19T09:36:31.001Z</time></trkpt><trkpt lat="44.84334302161801" lon="7.9633866717301665"><ele>325.5</ele><time>2026-04-19T09:36:32.001Z</time></trkpt><trkpt lat="44.84347655979394" lon="7.963353236253255"><ele>324.25</ele><time>2026-04-19T09:36:33.001Z</time></trkpt><trkpt lat="44.843602812390635" lon="7.963302238547306"><ele>323.0</ele><time>2026-04-19T09:36:34.001Z</time></trkpt><trkpt lat="44.84374039413459" lon="7.963267281209473"><ele>325.75</ele><time>2026-04-19T09:36:35.001Z</time></trkpt><trkpt lat="44.84386893123084" lon="7.963215842025473"><ele>328.5</ele><time>2026-04-19T09:36:36.001Z</time></trkpt><trkpt lat="44.844002629969836" lon="7.963177147231815"><ele>331.25</ele><time>2026-04-19T09:36:37.001Z</time></trkpt><trkpt lat="44.844148628509814" lon="7.963182700620521"><ele>334.0</ele><time>2026-04-19T09:36:38.001Z</time></trkpt><trkpt lat="44.844290801468595" lon="7.963170542586447"><ele>335.5</ele><time>2026-04-19T09:36:39.001Z</time></trkpt><trkpt lat="44.84442727597783" lon="7.963177994585572"><ele>337.0</ele><time>2026-04-19T09:36:40.001Z</time></trkpt><trkpt lat="44.84457059227424" lon="7.963163221406714"><ele>338.5</ele><time>2026-04-19T09:36:41.001Z</time></trkpt><trkpt lat="44.84471358989022" lon="7.9631488086892785"><ele>340.0</ele><time>2026-04-19T09:36:42.001Z</time></trkpt><trkpt lat="44.84484653478355" lon="7.963118426879726"><ele>340.0</ele><time>2026-04-19T09:36:43.001Z</time></trkpt><trkpt lat="44.84498874804601" lon="7.963064971303699"><ele>340.0</ele><time>2026-04-19T09:36:44.001Z</time></trkpt><trkpt lat="44.8451140543002" lon="7.962991439211791"><ele>340.0</ele><time>2026-04-19T09:36:45.001Z</time></trkpt><trkpt lat="44.845239021938575" lon="7.9629442242774084"><ele>340.0</ele><time>2026-04-19T09:36:46.001Z</time></trkpt><trkpt lat="44.845358175417736" lon="7.96288147659664"><ele>338.6</ele><time>2026-04-19T09:36:47.001Z</time></trkpt><trkpt lat="44.84546510931332" lon="7.962825592635808"><ele>337.2</ele><time>2026-04-19T09:36:48.001Z</time></trkpt><trkpt lat="44.845552449778395" lon="7.962762987603916"><ele>335.79999999999995</ele><time>2026-04-19T09:36:49.001Z</time></trkpt><trkpt lat="44.84563286207808" lon="7.962770209882564"><ele>334.4</ele><time>2026-04-19T09:36:50.001Z</time></trkpt><trkpt lat="44.84570175765592" lon="7.962937913190716"><ele>333.0</ele><time>2026-04-19T09:36:52Z</time></trkpt><trkpt lat="44.84573123110749" lon="7.963113796563391"><ele>333.0</ele><time>2026-04-19T09:36:53Z</time></trkpt><trkpt lat="44.84575540660877" lon="7.963286489356589"><ele>333.0</ele><time>2026-04-19T09:36:54Z</time></trkpt><trkpt lat="44.84578038240522" lon="7.96350036114479"><ele>333.0</ele><time>2026-04-19T09:36:55Z</time></trkpt><trkpt lat="44.845810828559756" lon="7.963693930587765"><ele>333.0</ele><time>2026-04-19T09:36:56Z</time></trkpt><trkpt lat="44.84583617643464" lon="7.963888673120228"><ele>331.75</ele><time>2026-04-19T09:36:57Z</time></trkpt><trkpt lat="44.84585581336087" lon="7.964093810340041"><ele>330.5</ele><time>2026-04-19T09:36:58Z</time></trkpt><trkpt lat="44.845869576179275" lon="7.9642759136532995"><ele>329.25</ele><time>2026-04-19T09:36:59Z</time></trkpt><trkpt lat="44.84587165350891" lon="7.9644674804879685"><ele>328.0</ele><time>2026-04-19T09:37:00Z</time></trkpt><trkpt lat="44.84587532977677" lon="7.964655852922749"><ele>326.5</ele><time>2026-04-19T09:37:01Z</time></trkpt><trkpt lat="44.845884496888" lon="7.964851888143026"><ele>325.0</ele><time>2026-04-19T09:37:02Z</time></trkpt><trkpt lat="44.8458920988391" lon="7.965029690653772"><ele>323.5</ele><time>2026-04-19T09:37:03Z</time></trkpt><trkpt lat="44.84588825610969" lon="7.965203058877909"><ele>322.0</ele><time>2026-04-19T09:37:04Z</time></trkpt><trkpt lat="44.84585849230962" lon="7.965372855858599"><ele>319.0</ele><time>2026-04-19T09:37:05Z</time></trkpt><trkpt lat="44.845821072045055" lon="7.96556832865818"><ele>316.0</ele><time>2026-04-19T09:37:06Z</time></trkpt><trkpt lat="44.84579920664156" lon="7.965775597525963"><ele>313.0</ele><time>2026-04-19T09:37:07Z</time></trkpt><trkpt lat="44.84576885873543" lon="7.965954621605422"><ele>310.0</ele><time>2026-04-19T09:37:08Z</time></trkpt><trkpt lat="44.84578673090774" lon="7.966117251910318"><ele>307.0</ele><time>2026-04-19T09:37:09Z</time></trkpt><trkpt lat="44.84582617945083" lon="7.966280672619207"><ele>304.0</ele><time>2026-04-19T09:37:10Z</time></trkpt><trkpt lat="44.845900010776866" lon="7.966418077795722"><ele>301.0</ele><time>2026-04-19T09:37:11Z</time></trkpt><trkpt lat="44.84596015464303" lon="7.966534403652225"><ele>298.0</ele><time>2026-04-19T09:37:12Z</time></trkpt><trkpt lat="44.84601559622555" lon="7.96666779175926"><ele>294.25</ele><time>2026-04-19T09:37:13Z</time></trkpt><trkpt lat="44.84607363829806" lon="7.96682986543862"><ele>290.5</ele><time>2026-04-19T09:37:14Z</time></trkpt><trkpt lat="44.846127878428234" lon="7.9670057489176305"><ele>286.75</ele><time>2026-04-19T09:37:15Z</time></trkpt><trkpt lat="44.846172242797365" lon="7.96713358995246"><ele>283.0</ele><time>2026-04-19T09:37:16Z</time></trkpt><trkpt lat="44.84620220686546" lon="7.967246710955113"><ele>283.0</ele><time>2026-04-19T09:37:17Z</time></trkpt><trkpt lat="44.84621449995307" lon="7.967367793046713"><ele>283.0</ele><time>2026-04-19T09:37:18Z</time></trkpt><trkpt lat="44.84619462154632" lon="7.967501843605026"><ele>283.0</ele><time>2026-04-19T09:37:19Z</time></trkpt><trkpt lat="44.84609429482863" lon="7.967517337413206"><ele>283.0</ele><time>2026-04-19T09:37:20Z</time></trkpt><trkpt lat="44.8460042792116" lon="7.96746368545367"><ele>283.0</ele><time>2026-04-19T09:37:21Z</time></trkpt><trkpt lat="44.84586368383435" lon="7.967406256522956"><ele>285.3333333333333</ele><time>2026-04-19T09:37:22Z</time></trkpt><trkpt lat="44.84573325571133" lon="7.967275564769707"><ele>287.6666666666667</ele><time>2026-04-19T09:37:23Z</time></trkpt><trkpt lat="44.84562849785139" lon="7.967064174206667"><ele>290.0</ele><time>2026-04-19T09:37:24Z</time></trkpt><trkpt lat="44.84552714493427" lon="7.966895417149839"><ele>290.0</ele><time>2026-04-19T09:37:25Z</time></trkpt><trkpt lat="44.845447962830214" lon="7.966809670861702"><ele>290.0</ele><time>2026-04-19T09:37:26Z</time></trkpt><trkpt lat="44.845327201657135" lon="7.9667291635603785"><ele>290.0</ele><time>2026-04-19T09:37:27Z</time></trkpt><trkpt lat="44.84520680464289" lon="7.966655308990452"><ele>290.0</ele><time>2026-04-19T09:37:28Z</time></trkpt><trkpt lat="44.84507686217517" lon="7.966556344669078"><ele>288.25</ele><time>2026-04-19T09:37:29Z</time></trkpt><trkpt lat="44.84494894713091" lon="7.966472328567673"><ele>286.5</ele><time>2026-04-19T09:37:30Z</time></trkpt><trkpt lat="44.84483862121271" lon="7.966399537931152"><ele>284.75</ele><time>2026-04-19T09:37:31Z</time></trkpt><trkpt lat="44.84472976278949" lon="7.9663291736307755"><ele>283.0</ele><time>2026-04-19T09:37:32Z</time></trkpt><trkpt lat="44.84464398880866" lon="7.966368399159375"><ele>283.0</ele><time>2026-04-19T09:37:33Z</time></trkpt><trkpt lat="44.844546307719234" lon="7.966457032523507"><ele>283.0</ele><time>2026-04-19T09:37:34Z</time></trkpt><trkpt lat="44.844499073847054" lon="7.966595654334124"><ele>283.0</ele><time>2026-04-19T09:37:35Z</time></trkpt><trkpt lat="44.84447278108074" lon="7.966790034564853"><ele>283.0</ele><time>2026-04-19T09:37:36Z</time></trkpt><trkpt lat="44.844482793775825" lon="7.966972781679465"><ele>280.75</ele><time>2026-04-19T09:37:37Z</time></trkpt><trkpt lat="44.84449198758645" lon="7.967171963487811"><ele>278.5</ele><time>2026-04-19T09:37:38Z</time></trkpt><trkpt lat="44.84450642294071" lon="7.967375348281974"><ele>276.25</ele><time>2026-04-19T09:37:39Z</time></trkpt><trkpt lat="44.84450299268208" lon="7.967585245533862"><ele>274.0</ele><time>2026-04-19T09:37:40Z</time></trkpt><trkpt lat="44.84450818757352" lon="7.967795174666155"><ele>274.66666666666663</ele><time>2026-04-19T09:37:41Z</time></trkpt><trkpt lat="44.84448033429856" lon="7.968034514339043"><ele>275.3333333333333</ele><time>2026-04-19T09:37:42Z</time></trkpt><trkpt lat="44.844463264564766" lon="7.968252163968958"><ele>276.0</ele><time>2026-04-19T09:37:43Z</time></trkpt><trkpt lat="44.844452980381135" lon="7.96846521802809"><ele>276.0</ele><time>2026-04-19T09:37:44Z</time></trkpt><trkpt lat="44.844448525151904" lon="7.968650143561836"><ele>276.0</ele><time>2026-04-19T09:37:45Z</time></trkpt><trkpt lat="44.844445473269474" lon="7.968819156955127"><ele>276.0</ele><time>2026-04-19T09:37:46Z</time></trkpt><trkpt lat="44.844426792960526" lon="7.9689753864184265"><ele>276.0</ele><time>2026-04-19T09:37:47Z</time></trkpt><trkpt lat="44.844422959389014" lon="7.969114107837811"><ele>280.0</ele><time>2026-04-19T09:37:48Z</time></trkpt><trkpt lat="44.84442043088126" lon="7.969205604529484"><ele>284.0</ele><time>2026-04-19T09:37:49Z</time></trkpt><trkpt lat="44.84439167497861" lon="7.969292442372086"><ele>288.0</ele><time>2026-04-19T09:37:51Z</time></trkpt><trkpt lat="44.84415666689529" lon="7.96924924798109"><ele>292.0</ele><time>2026-04-19T09:37:52Z</time></trkpt><trkpt lat="44.844048105996" lon="7.969230306596501"><ele>292.0</ele><time>2026-04-19T09:37:53Z</time></trkpt><trkpt lat="44.84392299279886" lon="7.969207261342895"><ele>292.0</ele><time>2026-04-19T09:37:54Z</time></trkpt><trkpt lat="44.843796719609976" lon="7.969178575342707"><ele>292.0</ele><time>2026-04-19T09:37:55Z</time></trkpt><trkpt lat="44.84366547363437" lon="7.9691554117903305"><ele>292.0</ele><time>2026-04-19T09:37:56.001Z</time></trkpt><trkpt lat="44.843529270726776" lon="7.9691319618482"><ele>287.75</ele><time>2026-04-19T09:37:57.001Z</time></trkpt><trkpt lat="44.84339093627181" lon="7.969113554440099"><ele>283.5</ele><time>2026-04-19T09:37:58.001Z</time></trkpt><trkpt lat="44.84325130158826" lon="7.969106647822261"><ele>279.25</ele><time>2026-04-19T09:37:59.001Z</time></trkpt><trkpt lat="44.843116515821805" lon="7.969126083483583"><ele>275.0</ele><time>2026-04-19T09:38:00.001Z</time></trkpt><trkpt lat="44.84300199888749" lon="7.969180718406859"><ele>278.0</ele><time>2026-04-19T09:38:01.001Z</time></trkpt><trkpt lat="44.84291465403328" lon="7.96924606440572"><ele>281.0</ele><time>2026-04-19T09:38:02.001Z</time></trkpt><trkpt lat="44.84285654047094" lon="7.96930822671137"><ele>284.0</ele><time>2026-04-19T09:38:03.001Z</time></trkpt><trkpt lat="44.8427769846663" lon="7.969341694378074"><ele>287.0</ele><time>2026-04-19T09:38:05.001Z</time></trkpt><trkpt lat="44.84282985632874" lon="7.969587086098857"><ele>290.0</ele><time>2026-04-19T09:38:06.001Z</time></trkpt><trkpt lat="44.84287940816542" lon="7.969725271508638"><ele>290.0</ele><time>2026-04-19T09:38:07.001Z</time></trkpt><trkpt lat="44.842946821946306" lon="7.969872704141505"><ele>290.0</ele><time>2026-04-19T09:38:08.001Z</time></trkpt><trkpt lat="44.843010961604435" lon="7.9700185624257776"><ele>290.0</ele><time>2026-04-19T09:38:09.001Z</time></trkpt><trkpt lat="44.84306329838182" lon="7.970184789631452"><ele>290.0</ele><time>2026-04-19T09:38:10.001Z</time></trkpt><trkpt lat="44.843138432045876" lon="7.970361017264929"><ele>291.6666666666667</ele><time>2026-04-19T09:38:11.001Z</time></trkpt><trkpt lat="44.84320505785362" lon="7.970560641388678"><ele>293.3333333333333</ele><time>2026-04-19T09:38:12.001Z</time></trkpt><trkpt lat="44.84327916803703" lon="7.970762528496363"><ele>295.0</ele><time>2026-04-19T09:38:13.001Z</time></trkpt><trkpt lat="44.843346587837786" lon="7.970970679419443"><ele>296.0</ele><time>2026-04-19T09:38:14.001Z</time></trkpt><trkpt lat="44.84340732764931" lon="7.971165880239547"><ele>297.0</ele><time>2026-04-19T09:38:15.001Z</time></trkpt><trkpt lat="44.84345508659492" lon="7.97133626835915"><ele>298.0</ele><time>2026-04-19T09:38:16.001Z</time></trkpt><trkpt lat="44.84349758883548" lon="7.971461865644001"><ele>299.0</ele><time>2026-04-19T09:38:17.001Z</time></trkpt><trkpt lat="44.843544803398366" lon="7.971549477249627"><ele>301.4</ele><time>2026-04-19T09:38:18.001Z</time></trkpt><trkpt lat="44.843610639486506" lon="7.971602193537235"><ele>303.79999999999995</ele><time>2026-04-19T09:38:19.001Z</time></trkpt><trkpt lat="44.84366355323868" lon="7.9714918803789185"><ele>306.20000000000005</ele><time>2026-04-19T09:38:20.001Z</time></trkpt><trkpt lat="44.84366785442135" lon="7.971396221084164"><ele>308.6</ele><time>2026-04-19T09:38:21.001Z</time></trkpt><trkpt lat="44.84361074504841" lon="7.971245524302784"><ele>311.0</ele><time>2026-04-19T09:38:22.001Z</time></trkpt><trkpt lat="44.843557759792496" lon="7.971079997195491"><ele>311.0</ele><time>2026-04-19T09:38:23.001Z</time></trkpt><trkpt lat="44.843526629477125" lon="7.970924202272187"><ele>311.0</ele><time>2026-04-19T09:38:24.001Z</time></trkpt><trkpt lat="44.8435135210235" lon="7.970776370978378"><ele>311.0</ele><time>2026-04-19T09:38:25.001Z</time></trkpt><trkpt lat="44.84354829062968" lon="7.970684584050784"><ele>311.0</ele><time>2026-04-19T09:38:26.001Z</time></trkpt><trkpt lat="44.843595870491065" lon="7.970608722490399"><ele>311.0</ele><time>2026-04-19T09:38:27.001Z</time></trkpt><trkpt lat="44.8436686685162" lon="7.970715878918102"><ele>311.0</ele><time>2026-04-19T09:38:28.001Z</time></trkpt><trkpt lat="44.84376099751682" lon="7.970813575803849"><ele>311.0</ele><time>2026-04-19T09:38:29.001Z</time></trkpt><trkpt lat="44.84379970559997" lon="7.970933138878605"><ele>311.0</ele><time>2026-04-19T09:38:30.001Z</time></trkpt><trkpt lat="44.843852439269156" lon="7.971058330408216"><ele>311.0</ele><time>2026-04-19T09:38:31.001Z</time></trkpt><trkpt lat="44.84390693484417" lon="7.971247989898698"><ele>311.0</ele><time>2026-04-19T09:38:32.001Z</time></trkpt><trkpt lat="44.84391735943817" lon="7.971413830739514"><ele>311.0</ele><time>2026-04-19T09:38:33.001Z</time></trkpt><trkpt lat="44.84388168529976" lon="7.971591355714765"><ele>311.0</ele><time>2026-04-19T09:38:34.001Z</time></trkpt><trkpt lat="44.8438434664591" lon="7.971765249351138"><ele>311.0</ele><time>2026-04-19T09:38:35.001Z</time></trkpt><trkpt lat="44.84381697134067" lon="7.971953577197826"><ele>311.40000000000003</ele><time>2026-04-19T09:38:36.001Z</time></trkpt><trkpt lat="44.843791155146256" lon="7.972136208029554"><ele>311.8</ele><time>2026-04-19T09:38:37.001Z</time></trkpt><trkpt lat="44.843751348884695" lon="7.972279638961432"><ele>312.20000000000005</ele><time>2026-04-19T09:38:38.001Z</time></trkpt><trkpt lat="44.84370529139348" lon="7.972370904887748"><ele>312.6</ele><time>2026-04-19T09:38:39.001Z</time></trkpt><trkpt lat="44.843631508797756" lon="7.9724579260619866"><ele>313.0</ele><time>2026-04-19T09:38:40.001Z</time></trkpt><trkpt lat="44.84353718595666" lon="7.972533540085441"><ele>314.2</ele><time>2026-04-19T09:38:41.001Z</time></trkpt><trkpt lat="44.84344763675884" lon="7.972606220912497"><ele>315.4</ele><time>2026-04-19T09:38:42.001Z</time></trkpt><trkpt lat="44.843359642738356" lon="7.972678285479968"><ele>316.59999999999997</ele><time>2026-04-19T09:38:43.001Z</time></trkpt><trkpt lat="44.843293059760605" lon="7.972733564276647"><ele>317.8</ele><time>2026-04-19T09:38:44.001Z</time></trkpt><trkpt lat="44.84322462287662" lon="7.972873331026962"><ele>319.0</ele><time>2026-04-19T09:38:46.001Z</time></trkpt><trkpt lat="44.843100257639385" lon="7.9728396420662255"><ele>319.0</ele><time>2026-04-19T09:38:47.001Z</time></trkpt><trkpt lat="44.842995113186745" lon="7.972860616917052"><ele>319.0</ele><time>2026-04-19T09:38:48.001Z</time></trkpt><trkpt lat="44.84287300148213" lon="7.972875897370909"><ele>319.0</ele><time>2026-04-19T09:38:49.001Z</time></trkpt><trkpt lat="44.84273361561761" lon="7.972897450432166"><ele>319.0</ele><time>2026-04-19T09:38:50.001Z</time></trkpt><trkpt lat="44.84259381681042" lon="7.972940278125118"><ele>319.66666666666663</ele><time>2026-04-19T09:38:51.001Z</time></trkpt><trkpt lat="44.84244109253637" lon="7.972977073208554"><ele>320.3333333333333</ele><time>2026-04-19T09:38:52.001Z</time></trkpt><trkpt lat="44.842294426585916" lon="7.973013823859036"><ele>321.0</ele><time>2026-04-19T09:38:53.001Z</time></trkpt><trkpt lat="44.842143124802455" lon="7.973044914711039"><ele>321.0</ele><time>2026-04-19T09:38:54.001Z</time></trkpt><trkpt lat="44.842003455233595" lon="7.97307417997129"><ele>321.0</ele><time>2026-04-19T09:38:55.001Z</time></trkpt><trkpt lat="44.84185959215935" lon="7.973098330912314"><ele>321.0</ele><time>2026-04-19T09:38:56.001Z</time></trkpt><trkpt lat="44.84171405374162" lon="7.973124018075319"><ele>321.0</ele><time>2026-04-19T09:38:57.001Z</time></trkpt><trkpt lat="44.84157818958833" lon="7.973184909886725"><ele>321.75</ele><time>2026-04-19T09:38:58Z</time></trkpt><trkpt lat="44.841465064159124" lon="7.97330134955982"><ele>322.5</ele><time>2026-04-19T09:38:59Z</time></trkpt><trkpt lat="44.8413382518068" lon="7.973409650703158"><ele>323.25</ele><time>2026-04-19T09:39:00Z</time></trkpt><trkpt lat="44.8412074719324" lon="7.9735061085941625"><ele>324.0</ele><time>2026-04-19T09:39:01Z</time></trkpt><trkpt lat="44.84109522721864" lon="7.973602193988721"><ele>326.25</ele><time>2026-04-19T09:39:02Z</time></trkpt><trkpt lat="44.840960285857854" lon="7.973685702736429"><ele>328.5</ele><time>2026-04-19T09:39:03Z</time></trkpt><trkpt lat="44.84081993849946" lon="7.9737026586006285"><ele>330.75</ele><time>2026-04-19T09:39:04Z</time></trkpt><trkpt lat="44.84068551888835" lon="7.973705046376717"><ele>333.0</ele><time>2026-04-19T09:39:05Z</time></trkpt><trkpt lat="44.8405338006824" lon="7.973709806206153"><ele>333.0</ele><time>2026-04-19T09:39:06Z</time></trkpt><trkpt lat="44.84037317806679" lon="7.973718282064932"><ele>333.0</ele><time>2026-04-19T09:39:07Z</time></trkpt><trkpt lat="44.84020893278299" lon="7.973729885208019"><ele>333.0</ele><time>2026-04-19T09:39:08Z</time></trkpt><trkpt lat="44.84004100066265" lon="7.973734372748025"><ele>334.6666666666667</ele><time>2026-04-19T09:39:09Z</time></trkpt><trkpt lat="44.83987684983801" lon="7.97373587744453"><ele>336.33333333333337</ele><time>2026-04-19T09:39:10Z</time></trkpt><trkpt lat="44.839717022601405" lon="7.973739752196664"><ele>338.0</ele><time>2026-04-19T09:39:11Z</time></trkpt><trkpt lat="44.83955492700994" lon="7.973741485619698"><ele>338.0</ele><time>2026-04-19T09:39:12Z</time></trkpt><trkpt lat="44.83939829096529" lon="7.9737407671658875"><ele>338.0</ele><time>2026-04-19T09:39:13Z</time></trkpt><trkpt lat="44.83923906326106" lon="7.973742627764288"><ele>338.0</ele><time>2026-04-19T09:39:14Z</time></trkpt><trkpt lat="44.83908580495166" lon="7.9737309831442795"><ele>337.33333333333337</ele><time>2026-04-19T09:39:15Z</time></trkpt><trkpt lat="44.83893408290887" lon="7.973707113713478"><ele>336.6666666666667</ele><time>2026-04-19T09:39:16Z</time></trkpt><trkpt lat="44.83878498468074" lon="7.973681316936125"><ele>336.0</ele><time>2026-04-19T09:39:17Z</time></trkpt><trkpt lat="44.838626101002106" lon="7.973648088396319"><ele>336.0</ele><time>2026-04-19T09:39:18Z</time></trkpt><trkpt lat="44.838483056490595" lon="7.973628430367929"><ele>336.0</ele><time>2026-04-19T09:39:19Z</time></trkpt><trkpt lat="44.8383270814735" lon="7.9735929329110835"><ele>336.0</ele><time>2026-04-19T09:39:20Z</time></trkpt><trkpt lat="44.83818504037565" lon="7.973585483756525"><ele>336.0</ele><time>2026-04-19T09:39:21Z</time></trkpt><trkpt lat="44.83802089855035" lon="7.973598594372256"><ele>337.0</ele><time>2026-04-19T09:39:22Z</time></trkpt><trkpt lat="44.83786755223172" lon="7.973659095041332"><ele>338.0</ele><time>2026-04-19T09:39:23Z</time></trkpt><trkpt lat="44.83772103646071" lon="7.973734836024773"><ele>339.0</ele><time>2026-04-19T09:39:24Z</time></trkpt><trkpt lat="44.837573600463664" lon="7.9738212098244725"><ele>340.3333333333333</ele><time>2026-04-19T09:39:25Z</time></trkpt><trkpt lat="44.83742605078585" lon="7.973909824936124"><ele>341.66666666666663</ele><time>2026-04-19T09:39:26Z</time></trkpt><trkpt lat="44.837275654979045" lon="7.973996751897204"><ele>343.0</ele><time>2026-04-19T09:39:27Z</time></trkpt><trkpt lat="44.83712998043039" lon="7.974087479516517"><ele>345.0</ele><time>2026-04-19T09:39:28Z</time></trkpt><trkpt lat="44.83698394034527" lon="7.974196857085375"><ele>347.0</ele><time>2026-04-19T09:39:29Z</time></trkpt><trkpt lat="44.836850294454095" lon="7.974326255864211"><ele>349.0</ele><time>2026-04-19T09:39:30Z</time></trkpt><trkpt lat="44.83671880276389" lon="7.974462131393465"><ele>349.0</ele><time>2026-04-19T09:39:31Z</time></trkpt><trkpt lat="44.8365748911762" lon="7.9745772801075425"><ele>349.0</ele><time>2026-04-19T09:39:32Z</time></trkpt><trkpt lat="44.83643954320743" lon="7.974712500375284"><ele>349.0</ele><time>2026-04-19T09:39:33Z</time></trkpt><trkpt lat="44.836312299122255" lon="7.974866398237109"><ele>349.0</ele><time>2026-04-19T09:39:34Z</time></trkpt><trkpt lat="44.83616782416955" lon="7.974995282191133"><ele>349.0</ele><time>2026-04-19T09:39:35Z</time></trkpt><trkpt lat="44.83602700872055" lon="7.975124949607045"><ele>349.0</ele><time>2026-04-19T09:39:36Z</time></trkpt><trkpt lat="44.83588564112972" lon="7.975256977399104"><ele>350.66666666666663</ele><time>2026-04-19T09:39:37Z</time></trkpt><trkpt lat="44.835743047236285" lon="7.9753871441166835"><ele>352.3333333333333</ele><time>2026-04-19T09:39:38Z</time></trkpt><trkpt lat="44.83560039671976" lon="7.9755184048106935"><ele>354.0</ele><time>2026-04-19T09:39:39Z</time></trkpt><trkpt lat="44.835464580571674" lon="7.975655030363037"><ele>354.0</ele><time>2026-04-19T09:39:40Z</time></trkpt><trkpt lat="44.835331661247565" lon="7.975796367433178"><ele>354.0</ele><time>2026-04-19T09:39:41Z</time></trkpt><trkpt lat="44.835200473592685" lon="7.975940274780207"><ele>354.0</ele><time>2026-04-19T09:39:42Z</time></trkpt><trkpt lat="44.835082697157084" lon="7.976094567656607"><ele>354.6666666666667</ele><time>2026-04-19T09:39:43Z</time></trkpt><trkpt lat="44.83497091767676" lon="7.976258493148251"><ele>355.33333333333337</ele><time>2026-04-19T09:39:44Z</time></trkpt><trkpt lat="44.834870345025124" lon="7.976403599930462"><ele>356.0</ele><time>2026-04-19T09:39:45Z</time></trkpt><trkpt lat="44.83476267905258" lon="7.9765587641024815"><ele>355.5</ele><time>2026-04-19T09:39:46Z</time></trkpt><trkpt lat="44.83464948321618" lon="7.9766987514390815"><ele>355.0</ele><time>2026-04-19T09:39:47Z</time></trkpt><trkpt lat="44.83452813595202" lon="7.976793747348098"><ele>354.5</ele><time>2026-04-19T09:39:48Z</time></trkpt><trkpt lat="44.834393115876416" lon="7.976872515182272"><ele>354.0</ele><time>2026-04-19T09:39:49Z</time></trkpt><trkpt lat="44.8342520406254" lon="7.9769431222334175"><ele>354.0</ele><time>2026-04-19T09:39:50Z</time></trkpt><trkpt lat="44.834098010926766" lon="7.976979280912376"><ele>354.0</ele><time>2026-04-19T09:39:51Z</time></trkpt><trkpt lat="44.83394748258671" lon="7.977017404501479"><ele>354.0</ele><time>2026-04-19T09:39:52Z</time></trkpt><trkpt lat="44.83379168826821" lon="7.977053486291176"><ele>354.0</ele><time>2026-04-19T09:39:53Z</time></trkpt><trkpt lat="44.83364215551567" lon="7.977080933228883"><ele>354.0</ele><time>2026-04-19T09:39:54Z</time></trkpt><trkpt lat="44.83349709958533" lon="7.977081037500044"><ele>354.0</ele><time>2026-04-19T09:39:55Z</time></trkpt><trkpt lat="44.833353307421994" lon="7.977056613159936"><ele>354.0</ele><time>2026-04-19T09:39:56Z</time></trkpt><trkpt lat="44.83320161473439" lon="7.977029073044624"><ele>355.0</ele><time>2026-04-19T09:39:57Z</time></trkpt><trkpt lat="44.83304748338676" lon="7.977020825048003"><ele>356.0</ele><time>2026-04-19T09:39:58Z</time></trkpt><trkpt lat="44.83289473737589" lon="7.977032798222998"><ele>357.0</ele><time>2026-04-19T09:39:59.001Z</time></trkpt><trkpt lat="44.832771877518724" lon="7.977087423445689"><ele>358.0</ele><time>2026-04-19T09:40:00.001Z</time></trkpt><trkpt lat="44.83264318577184" lon="7.977090750794978"><ele>357.5</ele><time>2026-04-19T09:40:01.001Z</time></trkpt><trkpt lat="44.832513841083056" lon="7.977102030381752"><ele>357.0</ele><time>2026-04-19T09:40:02.001Z</time></trkpt><trkpt lat="44.83238195786801" lon="7.977094091725199"><ele>356.5</ele><time>2026-04-19T09:40:03.001Z</time></trkpt><trkpt lat="44.832258849443484" lon="7.977040586460982"><ele>356.0</ele><time>2026-04-19T09:40:04.001Z</time></trkpt><trkpt lat="44.8321269562451" lon="7.976977390720637"><ele>356.0</ele><time>2026-04-19T09:40:05.001Z</time></trkpt><trkpt lat="44.83199773010588" lon="7.976918949022503"><ele>356.0</ele><time>2026-04-19T09:40:06.001Z</time></trkpt><trkpt lat="44.831856637533825" lon="7.976897967812938"><ele>356.0</ele><time>2026-04-19T09:40:07.001Z</time></trkpt><trkpt lat="44.83173080853331" lon="7.976916118925012"><ele>356.0</ele><time>2026-04-19T09:40:08.001Z</time></trkpt><trkpt lat="44.831607295769054" lon="7.9769880588033875"><ele>355.25</ele><time>2026-04-19T09:40:09.001Z</time></trkpt><trkpt lat="44.831504159421904" lon="7.977104261304128"><ele>354.5</ele><time>2026-04-19T09:40:10.001Z</time></trkpt><trkpt lat="44.831415693258414" lon="7.977255862215105"><ele>353.75</ele><time>2026-04-19T09:40:11.001Z</time></trkpt><trkpt lat="44.83132975889892" lon="7.977406981127343"><ele>353.0</ele><time>2026-04-19T09:40:12.001Z</time></trkpt><trkpt lat="44.83125385223476" lon="7.977523735454415"><ele>352.25</ele><time>2026-04-19T09:40:13.001Z</time></trkpt><trkpt lat="44.83116287548949" lon="7.977576534213995"><ele>351.5</ele><time>2026-04-19T09:40:14.001Z</time></trkpt><trkpt lat="44.83104910312869" lon="7.977547465755673"><ele>350.75</ele><time>2026-04-19T09:40:15.001Z</time></trkpt><trkpt lat="44.830954491053475" lon="7.977433024398077"><ele>350.0</ele><time>2026-04-19T09:40:16.001Z</time></trkpt><trkpt lat="44.83083693626614" lon="7.977324491563292"><ele>350.0</ele><time>2026-04-19T09:40:17.001Z</time></trkpt><trkpt lat="44.830705664625164" lon="7.977190742969287"><ele>350.0</ele><time>2026-04-19T09:40:18.001Z</time></trkpt><trkpt lat="44.830570519326066" lon="7.977065344123691"><ele>350.0</ele><time>2026-04-19T09:40:19.001Z</time></trkpt><trkpt lat="44.83044642905465" lon="7.976986561052071"><ele>350.0</ele><time>2026-04-19T09:40:20.001Z</time></trkpt><trkpt lat="44.83032054196368" lon="7.97694522323103"><ele>350.0</ele><time>2026-04-19T09:40:21.001Z</time></trkpt><trkpt lat="44.830179725785456" lon="7.976941608677205"><ele>350.0</ele><time>2026-04-19T09:40:22.001Z</time></trkpt><trkpt lat="44.83002535065776" lon="7.976991438992368"><ele>350.0</ele><time>2026-04-19T09:40:23.001Z</time></trkpt><trkpt lat="44.829873999113914" lon="7.977064535844022"><ele>350.33333333333337</ele><time>2026-04-19T09:40:24.001Z</time></trkpt><trkpt lat="44.829712857429634" lon="7.977144180620301"><ele>350.6666666666667</ele><time>2026-04-19T09:40:25.001Z</time></trkpt><trkpt lat="44.82956005890938" lon="7.977221085150766"><ele>351.0</ele><time>2026-04-19T09:40:26.001Z</time></trkpt><trkpt lat="44.829408248618726" lon="7.9773108041236735"><ele>353.75</ele><time>2026-04-19T09:40:27.001Z</time></trkpt><trkpt lat="44.82929483765695" lon="7.977407696965968"><ele>356.5</ele><time>2026-04-19T09:40:28.001Z</time></trkpt><trkpt lat="44.829194559584536" lon="7.977553841403154"><ele>359.25</ele><time>2026-04-19T09:40:29.001Z</time></trkpt><trkpt lat="44.82913249270928" lon="7.977739407161667"><ele>362.0</ele><time>2026-04-19T09:40:30.001Z</time></trkpt><trkpt lat="44.829100971569936" lon="7.97792663399405"><ele>362.0</ele><time>2026-04-19T09:40:31.001Z</time></trkpt><trkpt lat="44.829072363386466" lon="7.97811544190893"><ele>362.0</ele><time>2026-04-19T09:40:32.001Z</time></trkpt><trkpt lat="44.829030161317675" lon="7.978306815400166"><ele>362.0</ele><time>2026-04-19T09:40:33.001Z</time></trkpt><trkpt lat="44.8289634418259" lon="7.9784195780204685"><ele>362.0</ele><time>2026-04-19T09:40:34.001Z</time></trkpt><trkpt lat="44.82888446437015" lon="7.9785021343516265"><ele>359.25</ele><time>2026-04-19T09:40:35.001Z</time></trkpt><trkpt lat="44.82874856784003" lon="7.978559986423527"><ele>356.5</ele><time>2026-04-19T09:40:36.001Z</time></trkpt><trkpt lat="44.82865792909153" lon="7.978678746596926"><ele>353.75</ele><time>2026-04-19T09:40:37.001Z</time></trkpt><trkpt lat="44.82857903109457" lon="7.9788202346286825"><ele>351.0</ele><time>2026-04-19T09:40:38.001Z</time></trkpt><trkpt lat="44.82852706427241" lon="7.978909138595652"><ele>351.0</ele><time>2026-04-19T09:40:39.001Z</time></trkpt><trkpt lat="44.82849759559218" lon="7.978990233485614"><ele>351.0</ele><time>2026-04-19T09:40:40.001Z</time></trkpt><trkpt lat="44.82844909241698" lon="7.979086732120469"><ele>351.0</ele><time>2026-04-19T09:40:42.001Z</time></trkpt><trkpt lat="44.82842093739247" lon="7.979239781866619"><ele>351.0</ele><time>2026-04-19T09:40:44.001Z</time></trkpt><trkpt lat="44.82844377344611" lon="7.979363522370438"><ele>351.0</ele><time>2026-04-19T09:40:45.001Z</time></trkpt><trkpt lat="44.828503782746644" lon="7.979496858286773"><ele>350.75</ele><time>2026-04-19T09:40:46.001Z</time></trkpt><trkpt lat="44.82858069332077" lon="7.979636624629222"><ele>350.5</ele><time>2026-04-19T09:40:47.001Z</time></trkpt><trkpt lat="44.82868478277394" lon="7.979797890227903"><ele>350.25</ele><time>2026-04-19T09:40:48.001Z</time></trkpt><trkpt lat="44.82876382278743" lon="7.979938731774971"><ele>350.0</ele><time>2026-04-19T09:40:49.001Z</time></trkpt><trkpt lat="44.82882798462202" lon="7.980066774547309"><ele>348.75</ele><time>2026-04-19T09:40:50.001Z</time></trkpt><trkpt lat="44.828864328432005" lon="7.980219329807908"><ele>347.5</ele><time>2026-04-19T09:40:51.001Z</time></trkpt><trkpt lat="44.82885512689219" lon="7.980426529729803"><ele>346.25</ele><time>2026-04-19T09:40:52.001Z</time></trkpt><trkpt lat="44.828890270988595" lon="7.980588970390315"><ele>345.0</ele><time>2026-04-19T09:40:53.001Z</time></trkpt><trkpt lat="44.82895469067106" lon="7.9807187769391215"><ele>344.8</ele><time>2026-04-19T09:40:54.001Z</time></trkpt><trkpt lat="44.82904413830616" lon="7.98085107671502"><ele>344.6</ele><time>2026-04-19T09:40:55.001Z</time></trkpt><trkpt lat="44.82914000971224" lon="7.980910944044738"><ele>344.4</ele><time>2026-04-19T09:40:56.001Z</time></trkpt><trkpt lat="44.82922492464364" lon="7.9809272530247"><ele>344.2</ele><time>2026-04-19T09:40:57.001Z</time></trkpt><trkpt lat="44.8293369155227" lon="7.980972157259155"><ele>344.0</ele><time>2026-04-19T09:40:59.001Z</time></trkpt><trkpt lat="44.8294069940385" lon="7.98102168457469"><ele>344.0</ele><time>2026-04-19T09:41:00.001Z</time></trkpt><trkpt lat="44.82951785218311" lon="7.981070504189543"><ele>344.0</ele><time>2026-04-19T09:41:02.001Z</time></trkpt><trkpt lat="44.8295887837535" lon="7.981103097355262"><ele>344.0</ele><time>2026-04-19T09:41:03.001Z</time></trkpt><trkpt lat="44.82966776389615" lon="7.981143725859171"><ele>344.0</ele><time>2026-04-19T09:41:04Z</time></trkpt><trkpt lat="44.8297393122509" lon="7.98118167376255"><ele>344.0</ele><time>2026-04-19T09:41:05Z</time></trkpt><trkpt lat="44.82984214290138" lon="7.9812383050212174"><ele>344.0</ele><time>2026-04-19T09:41:07Z</time></trkpt><trkpt lat="44.82994944262988" lon="7.98129691164155"><ele>344.0</ele><time>2026-04-19T09:41:09Z</time></trkpt><trkpt lat="44.83004271815959" lon="7.98134401046295"><ele>344.0</ele><time>2026-04-19T09:41:10Z</time></trkpt><trkpt lat="44.83020375837674" lon="7.981393030091973"><ele>344.0</ele><time>2026-04-19T09:41:11Z</time></trkpt><trkpt lat="44.83037212056763" lon="7.981376928374531"><ele>345.75</ele><time>2026-04-19T09:41:12Z</time></trkpt><trkpt lat="44.83051954074348" lon="7.981277339677251"><ele>347.5</ele><time>2026-04-19T09:41:13Z</time></trkpt><trkpt lat="44.83058420771512" lon="7.981232315481016"><ele>349.25</ele><time>2026-04-19T09:41:14Z</time></trkpt><trkpt lat="44.83066597113428" lon="7.981132459309461"><ele>351.0</ele><time>2026-04-19T09:41:16Z</time></trkpt><trkpt lat="44.83038097541032" lon="7.98026268560464"><ele>351.5</ele><time>2026-04-19T09:41:18Z</time></trkpt><trkpt lat="44.830284764709546" lon="7.980256460699553"><ele>352.0</ele><time>2026-04-19T09:41:19Z</time></trkpt><trkpt lat="44.83025121774528" lon="7.9803364421846155"><ele>352.5</ele><time>2026-04-19T09:41:20Z</time></trkpt><trkpt lat="44.83022657205474" lon="7.980437352188404"><ele>353.0</ele><time>2026-04-19T09:41:21Z</time></trkpt><trkpt lat="44.83010853789283" lon="7.980507314333241"><ele>353.5</ele><time>2026-04-19T09:41:23Z</time></trkpt><trkpt lat="44.83006089685104" lon="7.980412970018611"><ele>354.0</ele><time>2026-04-19T09:41:24Z</time></trkpt><trkpt lat="44.830138429809416" lon="7.980430526792761"><ele>342.0</ele><time>2026-04-19T09:41:25Z</time></trkpt><trkpt lat="44.830060306405" lon="7.979837283894055"><ele>330.0</ele><time>2026-04-19T09:41:28Z</time></trkpt><trkpt lat="44.83006861144905" lon="7.979706466092287"><ele>330.0</ele><time>2026-04-19T09:41:29Z</time></trkpt><trkpt lat="44.83012196896197" lon="7.979625945704349"><ele>330.0</ele><time>2026-04-19T09:41:30Z</time></trkpt><trkpt lat="44.83016205368315" lon="7.97950072147057"><ele>330.0</ele><time>2026-04-19T09:41:31Z</time></trkpt><trkpt lat="44.830286073047716" lon="7.979430180858274"><ele>330.0</ele><time>2026-04-19T09:41:33Z</time></trkpt><trkpt lat="44.830318548790785" lon="7.979331878237416"><ele>330.0</ele><time>2026-04-19T09:41:34Z</time></trkpt><trkpt lat="44.83035174099894" lon="7.979149444965994"><ele>328.4</ele><time>2026-04-19T09:41:35Z</time></trkpt><trkpt lat="44.8304770203469" lon="7.979023087914521"><ele>326.8</ele><time>2026-04-19T09:41:37Z</time></trkpt><trkpt lat="44.83053662972294" lon="7.9789635085987625"><ele>325.20000000000005</ele><time>2026-04-19T09:41:38Z</time></trkpt><trkpt lat="44.8306592957286" lon="7.978906067436423"><ele>323.6</ele><time>2026-04-19T09:41:39Z</time></trkpt><trkpt lat="44.83073378987869" lon="7.9788765639329124"><ele>322.0</ele><time>2026-04-19T09:41:40Z</time></trkpt><trkpt lat="44.83086043563548" lon="7.9790273414943025"><ele>321.3333333333333</ele><time>2026-04-19T09:41:41Z</time></trkpt><trkpt lat="44.83116224248081" lon="7.979070254850877"><ele>320.6666666666667</ele><time>2026-04-19T09:41:43Z</time></trkpt><trkpt lat="44.83129329216995" lon="7.979140140331503"><ele>320.0</ele><time>2026-04-19T09:41:44Z</time></trkpt><trkpt lat="44.831439111480826" lon="7.979141896745303"><ele>320.0</ele><time>2026-04-19T09:41:45Z</time></trkpt><trkpt lat="44.831526997839035" lon="7.979158226964621"><ele>320.0</ele><time>2026-04-19T09:41:46Z</time></trkpt><trkpt lat="44.831633143188334" lon="7.9791931773704246"><ele>320.0</ele><time>2026-04-19T09:41:47Z</time></trkpt><trkpt lat="44.8317330197465" lon="7.979213865997501"><ele>320.0</ele><time>2026-04-19T09:41:49Z</time></trkpt><trkpt lat="44.83182168258515" lon="7.979246257712086"><ele>320.0</ele><time>2026-04-19T09:41:50Z</time></trkpt><trkpt lat="44.83190731937965" lon="7.979231674653837"><ele>321.4</ele><time>2026-04-19T09:41:51Z</time></trkpt><trkpt lat="44.83190982488228" lon="7.979391476565721"><ele>322.8</ele><time>2026-04-19T09:41:52Z</time></trkpt><trkpt lat="44.83196416878646" lon="7.979495840778213"><ele>324.20000000000005</ele><time>2026-04-19T09:41:53Z</time></trkpt><trkpt lat="44.83204703869821" lon="7.979488465679226"><ele>325.6</ele><time>2026-04-19T09:41:54Z</time></trkpt><trkpt lat="44.83216765527023" lon="7.979442716583247"><ele>327.0</ele><time>2026-04-19T09:41:55Z</time></trkpt><trkpt lat="44.83227919219277" lon="7.9794075067769805"><ele>327.0</ele><time>2026-04-19T09:41:56Z</time></trkpt><trkpt lat="44.83238519653965" lon="7.9794007721702345"><ele>327.0</ele><time>2026-04-19T09:41:57Z</time></trkpt><trkpt lat="44.83249199300213" lon="7.979383966447558"><ele>327.0</ele><time>2026-04-19T09:41:58Z</time></trkpt><trkpt lat="44.832602107899724" lon="7.979381647825356"><ele>327.0</ele><time>2026-04-19T09:41:59Z</time></trkpt><trkpt lat="44.833080700066645" lon="7.979475863636536"><ele>325.20000000000005</ele><time>2026-04-19T09:42:03Z</time></trkpt><trkpt lat="44.83319578560473" lon="7.979503890170787"><ele>323.40000000000003</ele><time>2026-04-19T09:42:04Z</time></trkpt><trkpt lat="44.83329706757779" lon="7.979567439583677"><ele>321.6</ele><time>2026-04-19T09:42:05Z</time></trkpt><trkpt lat="44.83339794231323" lon="7.979610334346982"><ele>319.8</ele><time>2026-04-19T09:42:06Z</time></trkpt><trkpt lat="44.83344859218529" lon="7.979684798476883"><ele>318.0</ele><time>2026-04-19T09:42:07Z</time></trkpt><trkpt lat="44.833565726156266" lon="7.9795938303682306"><ele>317.0</ele><time>2026-04-19T09:42:08Z</time></trkpt><trkpt lat="44.83367473378923" lon="7.9795858237834025"><ele>316.0</ele><time>2026-04-19T09:42:09Z</time></trkpt><trkpt lat="44.833775813778" lon="7.97959682791945"><ele>315.0</ele><time>2026-04-19T09:42:10Z</time></trkpt><trkpt lat="44.833852781609664" lon="7.979630840991493"><ele>314.0</ele><time>2026-04-19T09:42:11Z</time></trkpt><trkpt lat="44.83394207066184" lon="7.9796587486106345"><ele>313.0</ele><time>2026-04-19T09:42:12Z</time></trkpt><trkpt lat="44.83400785327068" lon="7.979701610357356"><ele>313.0</ele><time>2026-04-19T09:42:13.001Z</time></trkpt><trkpt lat="44.834097604979675" lon="7.979712147422745"><ele>313.0</ele><time>2026-04-19T09:42:14.001Z</time></trkpt><trkpt lat="44.83419896878973" lon="7.979721135522179"><ele>313.0</ele><time>2026-04-19T09:42:15.001Z</time></trkpt><trkpt lat="44.834269723169236" lon="7.979777145709617"><ele>313.0</ele><time>2026-04-19T09:42:16.001Z</time></trkpt><trkpt lat="44.83432334049214" lon="7.979861918097261"><ele>313.0</ele><time>2026-04-19T09:42:17.001Z</time></trkpt><trkpt lat="44.83440461514697" lon="7.979955476876608"><ele>313.8</ele><time>2026-04-19T09:42:18.001Z</time></trkpt><trkpt lat="44.834479701012086" lon="7.980058278435491"><ele>314.6</ele><time>2026-04-19T09:42:19.001Z</time></trkpt><trkpt lat="44.83458527478396" lon="7.980104185061609"><ele>315.4</ele><time>2026-04-19T09:42:20.001Z</time></trkpt><trkpt lat="44.83469186129988" lon="7.980161556612228"><ele>316.2</ele><time>2026-04-19T09:42:21.001Z</time></trkpt><trkpt lat="44.83480903920018" lon="7.980199366802598"><ele>317.0</ele><time>2026-04-19T09:42:22.001Z</time></trkpt><trkpt lat="44.83494883248552" lon="7.98025096258909"><ele>320.0</ele><time>2026-04-19T09:42:23.017Z</time></trkpt><trkpt lat="44.835484475330276" lon="7.980497925310536"><ele>320.0</ele><time>2026-04-19T09:42:28.001Z</time></trkpt><trkpt lat="44.83552688967728" lon="7.980303180059852"><ele>320.0</ele><time>2026-04-19T09:42:29.001Z</time></trkpt><trkpt lat="44.83558497664505" lon="7.98024407487319"><ele>320.0</ele><time>2026-04-19T09:42:30.001Z</time></trkpt><trkpt lat="44.83569925821031" lon="7.980173363901827"><ele>320.0</ele><time>2026-04-19T09:42:32.001Z</time></trkpt><trkpt lat="44.83578223436197" lon="7.980145362977962"><ele>320.0</ele><time>2026-04-19T09:42:33.001Z</time></trkpt><trkpt lat="44.83588533215916" lon="7.980108575174456"><ele>320.33333333333337</ele><time>2026-04-19T09:42:34.001Z</time></trkpt><trkpt lat="44.836077716563125" lon="7.980103935775405"><ele>320.6666666666667</ele><time>2026-04-19T09:42:35.001Z</time></trkpt><trkpt lat="44.8362122795908" lon="7.980056110661928"><ele>321.0</ele><time>2026-04-19T09:42:36.001Z</time></trkpt><trkpt lat="44.8363414682363" lon="7.980012491841802"><ele>321.0</ele><time>2026-04-19T09:42:37.001Z</time></trkpt><trkpt lat="44.836472177174564" lon="7.980024313269029"><ele>321.0</ele><time>2026-04-19T09:42:38.001Z</time></trkpt><trkpt lat="44.83657651456855" lon="7.980016726409211"><ele>321.0</ele><time>2026-04-19T09:42:39.001Z</time></trkpt><trkpt lat="44.836687285660346" lon="7.980002668342598"><ele>321.0</ele><time>2026-04-19T09:42:40.001Z</time></trkpt><trkpt lat="44.83679875566417" lon="7.980047039852893"><ele>319.6666666666667</ele><time>2026-04-19T09:42:41.001Z</time></trkpt><trkpt lat="44.836905757590394" lon="7.980043203691759"><ele>318.33333333333337</ele><time>2026-04-19T09:42:42.001Z</time></trkpt><trkpt lat="44.83712697846485" lon="7.980013003138111"><ele>317.0</ele><time>2026-04-19T09:42:44.001Z</time></trkpt><trkpt lat="44.83732807410791" lon="7.979998870453048"><ele>317.0</ele><time>2026-04-19T09:42:46.001Z</time></trkpt><trkpt lat="44.83746122221777" lon="7.980053149538933"><ele>317.0</ele><time>2026-04-19T09:42:48.001Z</time></trkpt><trkpt lat="44.837531968961514" lon="7.979997593592936"><ele>317.0</ele><time>2026-04-19T09:42:49.001Z</time></trkpt><trkpt lat="44.83759552541295" lon="7.97991318184369"><ele>317.0</ele><time>2026-04-19T09:42:50.001Z</time></trkpt><trkpt lat="44.83769238062255" lon="7.979892975162937"><ele>317.0</ele><time>2026-04-19T09:42:51.001Z</time></trkpt><trkpt lat="44.837848947866185" lon="7.979900412640871"><ele>312.75</ele><time>2026-04-19T09:42:52.001Z</time></trkpt><trkpt lat="44.83796155274441" lon="7.979870184577641"><ele>308.5</ele><time>2026-04-19T09:42:53.001Z</time></trkpt><trkpt lat="44.83808083950468" lon="7.9798753611602695"><ele>304.25</ele><time>2026-04-19T09:42:54.001Z</time></trkpt><trkpt lat="44.83819344247364" lon="7.979896414325361"><ele>300.0</ele><time>2026-04-19T09:42:55.001Z</time></trkpt><trkpt lat="44.83832277555856" lon="7.979964088811999"><ele>300.75</ele><time>2026-04-19T09:42:56.001Z</time></trkpt><trkpt lat="44.8384144409557" lon="7.980018163850165"><ele>301.5</ele><time>2026-04-19T09:42:57.001Z</time></trkpt><trkpt lat="44.83853107111904" lon="7.98004584495742"><ele>302.25</ele><time>2026-04-19T09:42:58.001Z</time></trkpt><trkpt lat="44.83859031932594" lon="7.980175951437921"><ele>303.0</ele><time>2026-04-19T09:42:59.001Z</time></trkpt><trkpt lat="44.83863213506406" lon="7.980372263304734"><ele>301.2</ele><time>2026-04-19T09:43:00.001Z</time></trkpt><trkpt lat="44.838658207927004" lon="7.980581744136723"><ele>299.4</ele><time>2026-04-19T09:43:01.001Z</time></trkpt><trkpt lat="44.838739889443254" lon="7.980674917198256"><ele>297.59999999999997</ele><time>2026-04-19T09:43:02.001Z</time></trkpt><trkpt lat="44.838815252935596" lon="7.980764815638814"><ele>295.8</ele><time>2026-04-19T09:43:03.001Z</time></trkpt><trkpt lat="44.838866787926726" lon="7.980828200581243"><ele>294.0</ele><time>2026-04-19T09:43:04.001Z</time></trkpt><trkpt lat="44.83892148206521" lon="7.980875189880554"><ele>293.8</ele><time>2026-04-19T09:43:05.001Z</time></trkpt><trkpt lat="44.83902547679687" lon="7.980821187375071"><ele>293.59999999999997</ele><time>2026-04-19T09:43:07.001Z</time></trkpt><trkpt lat="44.83916416318065" lon="7.9807863838490904"><ele>293.4</ele><time>2026-04-19T09:43:09.001Z</time></trkpt><trkpt lat="44.83923392259331" lon="7.980823949593306"><ele>293.2</ele><time>2026-04-19T09:43:10Z</time></trkpt><trkpt lat="44.8393131617274" lon="7.980801088128394"><ele>293.0</ele><time>2026-04-19T09:43:11Z</time></trkpt><trkpt lat="44.839401344794574" lon="7.980751526816464"><ele>292.5</ele><time>2026-04-19T09:43:12Z</time></trkpt><trkpt lat="44.83953451771408" lon="7.980677019122769"><ele>292.0</ele><time>2026-04-19T09:43:13Z</time></trkpt><trkpt lat="44.83965425671795" lon="7.980634032560531"><ele>291.5</ele><time>2026-04-19T09:43:14Z</time></trkpt><trkpt lat="44.8397936076518" lon="7.980556062041124"><ele>291.0</ele><time>2026-04-19T09:43:15Z</time></trkpt><trkpt lat="44.839914859510884" lon="7.980518536071569"><ele>291.0</ele><time>2026-04-19T09:43:16Z</time></trkpt><trkpt lat="44.840044899765616" lon="7.980494652620884"><ele>291.0</ele><time>2026-04-19T09:43:17Z</time></trkpt><trkpt lat="44.84014536102684" lon="7.9805008437256255"><ele>291.0</ele><time>2026-04-19T09:43:18Z</time></trkpt><trkpt lat="44.84026878475132" lon="7.980495722006539"><ele>291.0</ele><time>2026-04-19T09:43:19Z</time></trkpt><trkpt lat="44.84039442092707" lon="7.980530050887362"><ele>290.8</ele><time>2026-04-19T09:43:20Z</time></trkpt><trkpt lat="44.84048929491388" lon="7.980582351437819"><ele>290.6</ele><time>2026-04-19T09:43:21Z</time></trkpt><trkpt lat="44.840614409170904" lon="7.980617789140514"><ele>290.4</ele><time>2026-04-19T09:43:22Z</time></trkpt><trkpt lat="44.84072584284597" lon="7.9806131601887955"><ele>290.2</ele><time>2026-04-19T09:43:23Z</time></trkpt><trkpt lat="44.8408114288687" lon="7.980583363446173"><ele>290.0</ele><time>2026-04-19T09:43:24Z</time></trkpt><trkpt lat="44.84089398665365" lon="7.980562785866564"><ele>289.0</ele><time>2026-04-19T09:43:25Z</time></trkpt><trkpt lat="44.84098078810633" lon="7.980504881532093"><ele>288.0</ele><time>2026-04-19T09:43:26Z</time></trkpt><trkpt lat="44.84109427499506" lon="7.9804515824308355"><ele>287.0</ele><time>2026-04-19T09:43:27Z</time></trkpt><trkpt lat="44.841189439034146" lon="7.980393620423148"><ele>286.0</ele><time>2026-04-19T09:43:28Z</time></trkpt><trkpt lat="44.841273741748" lon="7.980364464107129"><ele>285.0</ele><time>2026-04-19T09:43:29Z</time></trkpt><trkpt lat="44.84134234140722" lon="7.9803324766945085"><ele>285.0</ele><time>2026-04-19T09:43:30Z</time></trkpt><trkpt lat="44.84142669837316" lon="7.980279382720007"><ele>285.0</ele><time>2026-04-19T09:43:31Z</time></trkpt><trkpt lat="44.84149306435507" lon="7.980216072843924"><ele>285.0</ele><time>2026-04-19T09:43:32Z</time></trkpt><trkpt lat="44.84155081909206" lon="7.980163666095436"><ele>285.0</ele><time>2026-04-19T09:43:33Z</time></trkpt><trkpt lat="44.84154153866062" lon="7.98026030309425"><ele>285.0</ele><time>2026-04-19T09:43:36Z</time></trkpt><trkpt lat="44.84151253521969" lon="7.980388339579908"><ele>285.0</ele><time>2026-04-19T09:43:37Z</time></trkpt><trkpt lat="44.841456786740835" lon="7.980563289437176"><ele>285.0</ele><time>2026-04-19T09:43:38Z</time></trkpt><trkpt lat="44.841436671379824" lon="7.980702574472068"><ele>285.0</ele><time>2026-04-19T09:43:39Z</time></trkpt><trkpt lat="44.84142713900049" lon="7.980871278084325"><ele>285.0</ele><time>2026-04-19T09:43:40Z</time></trkpt><trkpt lat="44.84141696221127" lon="7.980993812359458"><ele>285.0</ele><time>2026-04-19T09:43:41Z</time></trkpt><trkpt lat="44.84138133584083" lon="7.981116089723671"><ele>285.0</ele><time>2026-04-19T09:43:42Z</time></trkpt><trkpt lat="44.84135138334176" lon="7.981226859780744"><ele>287.2</ele><time>2026-04-19T09:43:43Z</time></trkpt><trkpt lat="44.841279411157636" lon="7.9813352242014695"><ele>289.4</ele><time>2026-04-19T09:43:44Z</time></trkpt><trkpt lat="44.841218096124834" lon="7.981478514387884"><ele>291.6</ele><time>2026-04-19T09:43:45Z</time></trkpt><trkpt lat="44.84114447314565" lon="7.981607213183049"><ele>293.8</ele><time>2026-04-19T09:43:46Z</time></trkpt><trkpt lat="44.841088695975216" lon="7.981728450977695"><ele>296.0</ele><time>2026-04-19T09:43:47Z</time></trkpt><trkpt lat="44.841056157093476" lon="7.981844353574416"><ele>299.0</ele><time>2026-04-19T09:43:48Z</time></trkpt><trkpt lat="44.841031889611465" lon="7.981970304562175"><ele>302.0</ele><time>2026-04-19T09:43:49Z</time></trkpt><trkpt lat="44.84099375504162" lon="7.9820813640894315"><ele>305.0</ele><time>2026-04-19T09:43:50Z</time></trkpt><trkpt lat="44.840996651643636" lon="7.982252738270521"><ele>308.0</ele><time>2026-04-19T09:43:51Z</time></trkpt><trkpt lat="44.84097456544799" lon="7.982411182936465"><ele>311.0</ele><time>2026-04-19T09:43:52Z</time></trkpt><trkpt lat="44.84095734606818" lon="7.982560680976046"><ele>311.6</ele><time>2026-04-19T09:43:53Z</time></trkpt><trkpt lat="44.840948577534355" lon="7.982702570474122"><ele>312.20000000000005</ele><time>2026-04-19T09:43:54Z</time></trkpt><trkpt lat="44.84093288134001" lon="7.982810537652893"><ele>312.79999999999995</ele><time>2026-04-19T09:43:55Z</time></trkpt><trkpt lat="44.840947080906176" lon="7.982962801933845"><ele>313.4</ele><time>2026-04-19T09:43:57Z</time></trkpt><trkpt lat="44.840978030786445" lon="7.9831173571573135"><ele>314.0</ele><time>2026-04-19T09:43:59Z</time></trkpt><trkpt lat="44.841071638857244" lon="7.9831921065317655"><ele>315.5</ele><time>2026-04-19T09:44:01Z</time></trkpt><trkpt lat="44.84114660085241" lon="7.98319475981035"><ele>317.0</ele><time>2026-04-19T09:44:02Z</time></trkpt><trkpt lat="44.84122582423173" lon="7.983117117635219"><ele>318.5</ele><time>2026-04-19T09:44:03Z</time></trkpt><trkpt lat="44.84128881357252" lon="7.983074102784852"><ele>320.0</ele><time>2026-04-19T09:44:04Z</time></trkpt><trkpt lat="44.84132297720096" lon="7.982994286883396"><ele>321.5</ele><time>2026-04-19T09:44:05Z</time></trkpt><trkpt lat="44.84139278447584" lon="7.9829185144375"><ele>323.0</ele><time>2026-04-19T09:44:07Z</time></trkpt><trkpt lat="44.84150062328822" lon="7.982965662495967"><ele>323.0</ele><time>2026-04-19T09:44:09Z</time></trkpt><trkpt lat="44.84153173770061" lon="7.983121753886885"><ele>323.0</ele><time>2026-04-19T09:44:10Z</time></trkpt><trkpt lat="44.84147429306742" lon="7.983248891240204"><ele>323.0</ele><time>2026-04-19T09:44:12Z</time></trkpt><trkpt lat="44.84137247121234" lon="7.983302615933292"><ele>323.0</ele><time>2026-04-19T09:44:13Z</time></trkpt><trkpt lat="44.84129549284313" lon="7.983389687713936"><ele>323.0</ele><time>2026-04-19T09:44:14Z</time></trkpt><trkpt lat="44.84125199728776" lon="7.983464888561328"><ele>323.4</ele><time>2026-04-19T09:44:15Z</time></trkpt><trkpt lat="44.84121415144455" lon="7.983542186248242"><ele>323.79999999999995</ele><time>2026-04-19T09:44:16Z</time></trkpt><trkpt lat="44.84123976536826" lon="7.983754802153988"><ele>324.2</ele><time>2026-04-19T09:44:18Z</time></trkpt><trkpt lat="44.84116646756498" lon="7.983908863100409"><ele>324.6</ele><time>2026-04-19T09:44:20Z</time></trkpt><trkpt lat="44.841097228684106" lon="7.983999925245242"><ele>325.0</ele><time>2026-04-19T09:44:21Z</time></trkpt><trkpt lat="44.840984553299194" lon="7.984085853429734"><ele>323.6</ele><time>2026-04-19T09:44:23Z</time></trkpt><trkpt lat="44.84087948505659" lon="7.984205563342512"><ele>322.2</ele><time>2026-04-19T09:44:25Z</time></trkpt><trkpt lat="44.84083079521879" lon="7.984283580013208"><ele>320.8</ele><time>2026-04-19T09:44:26.001Z</time></trkpt><trkpt lat="44.840781554905426" lon="7.9843556719241695"><ele>319.4</ele><time>2026-04-19T09:44:27.001Z</time></trkpt><trkpt lat="44.84070266957456" lon="7.984452125679148"><ele>318.0</ele><time>2026-04-19T09:44:29.001Z</time></trkpt><trkpt lat="44.8406415047045" lon="7.984495107464211"><ele>318.0</ele><time>2026-04-19T09:44:30.001Z</time></trkpt><trkpt lat="44.840563243490934" lon="7.984502468673266"><ele>318.0</ele><time>2026-04-19T09:44:31.001Z</time></trkpt><trkpt lat="44.84046828941831" lon="7.984535035547976"><ele>318.0</ele><time>2026-04-19T09:44:32.001Z</time></trkpt><trkpt lat="44.84036663919997" lon="7.984542996147981"><ele>318.0</ele><time>2026-04-19T09:44:33.001Z</time></trkpt><trkpt lat="44.84028793331669" lon="7.9845202744456"><ele>318.0</ele><time>2026-04-19T09:44:34.001Z</time></trkpt><trkpt lat="44.84019856473437" lon="7.984465625403729"><ele>320.4</ele><time>2026-04-19T09:44:35.001Z</time></trkpt><trkpt lat="44.840092729112946" lon="7.984439649724553"><ele>322.8</ele><time>2026-04-19T09:44:36.001Z</time></trkpt><trkpt lat="44.840001602069115" lon="7.98441812204335"><ele>325.2</ele><time>2026-04-19T09:44:37.001Z</time></trkpt><trkpt lat="44.83989584825041" lon="7.984414392263794"><ele>327.6</ele><time>2026-04-19T09:44:38.001Z</time></trkpt><trkpt lat="44.83979523390701" lon="7.984408565674849"><ele>330.0</ele><time>2026-04-19T09:44:39.001Z</time></trkpt><trkpt lat="44.83968655182903" lon="7.984422724571293"><ele>330.0</ele><time>2026-04-19T09:44:40.001Z</time></trkpt><trkpt lat="44.83957091005588" lon="7.984420333971198"><ele>330.0</ele><time>2026-04-19T09:44:41.001Z</time></trkpt><trkpt lat="44.83944724601499" lon="7.98441962583915"><ele>330.0</ele><time>2026-04-19T09:44:42.001Z</time></trkpt><trkpt lat="44.839318604639445" lon="7.98442824844951"><ele>330.0</ele><time>2026-04-19T09:44:43.001Z</time></trkpt><trkpt lat="44.83921023835322" lon="7.984429385398067"><ele>332.5</ele><time>2026-04-19T09:44:44.001Z</time></trkpt><trkpt lat="44.83912332665541" lon="7.984420221446666"><ele>335.0</ele><time>2026-04-19T09:44:45.001Z</time></trkpt><trkpt lat="44.839042222103856" lon="7.984425533003292"><ele>337.5</ele><time>2026-04-19T09:44:46.001Z</time></trkpt><trkpt lat="44.838966760374" lon="7.984463389609856"><ele>340.0</ele><time>2026-04-19T09:44:47.001Z</time></trkpt><trkpt lat="44.838919797135105" lon="7.984556706478859"><ele>342.5</ele><time>2026-04-19T09:44:48.001Z</time></trkpt><trkpt lat="44.8388778754276" lon="7.9846758801828965"><ele>345.0</ele><time>2026-04-19T09:44:49.001Z</time></trkpt><trkpt lat="44.83883300610179" lon="7.984773471333264"><ele>345.0</ele><time>2026-04-19T09:44:50.001Z</time></trkpt><trkpt lat="44.83879565244492" lon="7.984850141893359"><ele>345.0</ele><time>2026-04-19T09:44:51.001Z</time></trkpt><trkpt lat="44.838837639954185" lon="7.985024118067996"><ele>345.0</ele><time>2026-04-19T09:44:53.001Z</time></trkpt><trkpt lat="44.838872298516826" lon="7.985119868694719"><ele>345.0</ele><time>2026-04-19T09:44:54.001Z</time></trkpt><trkpt lat="44.83884838677151" lon="7.985249789339203"><ele>345.0</ele><time>2026-04-19T09:44:56.001Z</time></trkpt><trkpt lat="44.838794914601515" lon="7.98530652914992"><ele>345.0</ele><time>2026-04-19T09:44:57.001Z</time></trkpt><trkpt lat="44.83869625772872" lon="7.985383965502547"><ele>346.6</ele><time>2026-04-19T09:44:58.001Z</time></trkpt><trkpt lat="44.838637693785586" lon="7.9854381829357735"><ele>348.2</ele><time>2026-04-19T09:44:59.001Z</time></trkpt><trkpt lat="44.83850278605417" lon="7.985481814883739"><ele>349.79999999999995</ele><time>2026-04-19T09:45:01.001Z</time></trkpt><trkpt lat="44.83842283314477" lon="7.9854628814907525"><ele>351.4</ele><time>2026-04-19T09:45:02.001Z</time></trkpt><trkpt lat="44.83833190079425" lon="7.98545957057842"><ele>353.0</ele><time>2026-04-19T09:45:03.001Z</time></trkpt><trkpt lat="44.838260085962396" lon="7.9855525906796165"><ele>353.0</ele><time>2026-04-19T09:45:04.001Z</time></trkpt><trkpt lat="44.838173428494194" lon="7.985628119493449"><ele>353.0</ele><time>2026-04-19T09:45:05.001Z</time></trkpt><trkpt lat="44.83810050918604" lon="7.985695807303809"><ele>353.0</ele><time>2026-04-19T09:45:06.001Z</time></trkpt><trkpt lat="44.83802054058848" lon="7.985774690197155"><ele>353.0</ele><time>2026-04-19T09:45:07.001Z</time></trkpt><trkpt lat="44.83800380466357" lon="7.985876959239986"><ele>353.0</ele><time>2026-04-19T09:45:08.001Z</time></trkpt><trkpt lat="44.8379620171909" lon="7.985953093438132"><ele>353.0</ele><time>2026-04-19T09:45:09.001Z</time></trkpt><trkpt lat="44.83796896921024" lon="7.986078407578754"><ele>352.4</ele><time>2026-04-19T09:45:10.001Z</time></trkpt><trkpt lat="44.83794443787844" lon="7.986192091439173"><ele>351.79999999999995</ele><time>2026-04-19T09:45:11.001Z</time></trkpt><trkpt lat="44.83791980302575" lon="7.986319888216897"><ele>351.2</ele><time>2026-04-19T09:45:12.001Z</time></trkpt><trkpt lat="44.837897213960424" lon="7.986475493559401"><ele>350.6</ele><time>2026-04-19T09:45:13.001Z</time></trkpt><trkpt lat="44.83788280007698" lon="7.986610892405701"><ele>350.0</ele><time>2026-04-19T09:45:14.001Z</time></trkpt><trkpt lat="44.8378364966263" lon="7.98668897630073"><ele>348.8</ele><time>2026-04-19T09:45:15.001Z</time></trkpt><trkpt lat="44.837858940406285" lon="7.986776937262829"><ele>347.6</ele><time>2026-04-19T09:45:17Z</time></trkpt><trkpt lat="44.83794200220809" lon="7.986869856407209"><ele>346.4</ele><time>2026-04-19T09:45:18Z</time></trkpt><trkpt lat="44.83804187184616" lon="7.98691951778233"><ele>345.2</ele><time>2026-04-19T09:45:19Z</time></trkpt><trkpt lat="44.83813443084856" lon="7.9870186135199335"><ele>344.0</ele><time>2026-04-19T09:45:20Z</time></trkpt><trkpt lat="44.83822204426242" lon="7.987082034696043"><ele>344.0</ele><time>2026-04-19T09:45:21Z</time></trkpt><trkpt lat="44.83830384088575" lon="7.987144111510642"><ele>344.0</ele><time>2026-04-19T09:45:22Z</time></trkpt><trkpt lat="44.83838909312441" lon="7.987191143222579"><ele>344.0</ele><time>2026-04-19T09:45:23Z</time></trkpt><trkpt lat="44.83846798901649" lon="7.987225775098728"><ele>344.0</ele><time>2026-04-19T09:45:24Z</time></trkpt><trkpt lat="44.83851244277194" lon="7.9872892690710104"><ele>344.0</ele><time>2026-04-19T09:45:25Z</time></trkpt><trkpt lat="44.83857343829914" lon="7.9873784941874435"><ele>344.0</ele><time>2026-04-19T09:45:26Z</time></trkpt><trkpt lat="44.838622804497405" lon="7.987467330321073"><ele>343.0</ele><time>2026-04-19T09:45:27Z</time></trkpt><trkpt lat="44.838679680884184" lon="7.9876266352242835"><ele>342.0</ele><time>2026-04-19T09:45:28Z</time></trkpt><trkpt lat="44.83872557692857" lon="7.98773782161302"><ele>341.0</ele><time>2026-04-19T09:45:29Z</time></trkpt><trkpt lat="44.838801978887794" lon="7.987874737656542"><ele>340.0</ele><time>2026-04-19T09:45:31Z</time></trkpt><trkpt lat="44.83885899155908" lon="7.98793429492249"><ele>339.0</ele><time>2026-04-19T09:45:32Z</time></trkpt><trkpt lat="44.83891206812243" lon="7.988021948199519"><ele>339.0</ele><time>2026-04-19T09:45:33Z</time></trkpt><trkpt lat="44.838973253719914" lon="7.988122694709499"><ele>339.0</ele><time>2026-04-19T09:45:34Z</time></trkpt><trkpt lat="44.839059512822104" lon="7.988181758439472"><ele>339.0</ele><time>2026-04-19T09:45:35Z</time></trkpt><trkpt lat="44.83913382462051" lon="7.988245646205246"><ele>339.0</ele><time>2026-04-19T09:45:36Z</time></trkpt><trkpt lat="44.83919719669983" lon="7.98826326015516"><ele>339.0</ele><time>2026-04-19T09:45:37Z</time></trkpt><trkpt lat="44.839281652222404" lon="7.988282948500962"><ele>339.0</ele><time>2026-04-19T09:45:38Z</time></trkpt><trkpt lat="44.83934681499183" lon="7.988259554017388"><ele>338.5</ele><time>2026-04-19T09:45:39Z</time></trkpt><trkpt lat="44.83943453486412" lon="7.988255575944156"><ele>338.0</ele><time>2026-04-19T09:45:40Z</time></trkpt><trkpt lat="44.83950772715965" lon="7.9882361195173965"><ele>337.5</ele><time>2026-04-19T09:45:41Z</time></trkpt><trkpt lat="44.839590827868584" lon="7.988227456224721"><ele>337.0</ele><time>2026-04-19T09:45:42Z</time></trkpt><trkpt lat="44.83969017541582" lon="7.9881573802731625"><ele>336.5</ele><time>2026-04-19T09:45:43Z</time></trkpt><trkpt lat="44.83977467681837" lon="7.988177478220201"><ele>336.0</ele><time>2026-04-19T09:45:44Z</time></trkpt><trkpt lat="44.839874192208526" lon="7.988252883347925"><ele>336.0</ele><time>2026-04-19T09:45:45Z</time></trkpt><trkpt lat="44.83995550388026" lon="7.988289769576785"><ele>336.0</ele><time>2026-04-19T09:45:46Z</time></trkpt><trkpt lat="44.840014408703865" lon="7.988342475878914"><ele>336.0</ele><time>2026-04-19T09:45:47Z</time></trkpt><trkpt lat="44.84008155643322" lon="7.9883749704174365"><ele>336.0</ele><time>2026-04-19T09:45:48Z</time></trkpt><trkpt lat="44.84015474070255" lon="7.988388810757525"><ele>336.0</ele><time>2026-04-19T09:45:49Z</time></trkpt><trkpt lat="44.840240716431595" lon="7.988471576182419"><ele>336.0</ele><time>2026-04-19T09:45:51Z</time></trkpt><trkpt lat="44.84036586656892" lon="7.988516548287484"><ele>333.8333333333333</ele><time>2026-04-19T09:45:53Z</time></trkpt><trkpt lat="44.840451339995184" lon="7.988543096094637"><ele>331.6666666666667</ele><time>2026-04-19T09:45:54Z</time></trkpt><trkpt lat="44.84053103647234" lon="7.988526575235938"><ele>329.5</ele><time>2026-04-19T09:45:55Z</time></trkpt><trkpt lat="44.84060856035907" lon="7.988504400001605"><ele>327.33333333333337</ele><time>2026-04-19T09:45:56Z</time></trkpt><trkpt lat="44.84067395240217" lon="7.9884430297118785"><ele>325.1666666666667</ele><time>2026-04-19T09:45:57Z</time></trkpt><trkpt lat="44.84076128076224" lon="7.988416602967918"><ele>323.0</ele><time>2026-04-19T09:45:58Z</time></trkpt><trkpt lat="44.84086086215997" lon="7.988410026012418"><ele>323.0</ele><time>2026-04-19T09:45:59Z</time></trkpt><trkpt lat="44.840932553441704" lon="7.9884582633929995"><ele>323.0</ele><time>2026-04-19T09:46:00Z</time></trkpt><trkpt lat="44.84099543898877" lon="7.9885122830923265"><ele>323.0</ele><time>2026-04-19T09:46:01Z</time></trkpt><trkpt lat="44.841074430745564" lon="7.988569628759713"><ele>323.0</ele><time>2026-04-19T09:46:02Z</time></trkpt><trkpt lat="44.84115312944533" lon="7.988560827281187"><ele>323.0</ele><time>2026-04-19T09:46:03Z</time></trkpt><trkpt lat="44.84124803756103" lon="7.9885456889948205"><ele>323.0</ele><time>2026-04-19T09:46:04Z</time></trkpt><trkpt lat="44.84135333350609" lon="7.988553902896583"><ele>322.5</ele><time>2026-04-19T09:46:05Z</time></trkpt><trkpt lat="44.84142322879447" lon="7.988559582442749"><ele>322.0</ele><time>2026-04-19T09:46:06Z</time></trkpt><trkpt lat="44.841490486312274" lon="7.9885341514781665"><ele>321.5</ele><time>2026-04-19T09:46:07Z</time></trkpt><trkpt lat="44.84156880560194" lon="7.988534276752224"><ele>321.0</ele><time>2026-04-19T09:46:08Z</time></trkpt><trkpt lat="44.84165293997251" lon="7.988542286708508"><ele>320.5</ele><time>2026-04-19T09:46:09Z</time></trkpt><trkpt lat="44.84173030105053" lon="7.988558991477103"><ele>320.0</ele><time>2026-04-19T09:46:10Z</time></trkpt><trkpt lat="44.84180901716528" lon="7.9885819695785205"><ele>321.5</ele><time>2026-04-19T09:46:11Z</time></trkpt><trkpt lat="44.84187703651352" lon="7.98862987283856"><ele>323.0</ele><time>2026-04-19T09:46:12Z</time></trkpt><trkpt lat="44.84199605016495" lon="7.988691913631818"><ele>324.5</ele><time>2026-04-19T09:46:14Z</time></trkpt><trkpt lat="44.842081487615445" lon="7.98872400161756"><ele>326.0</ele><time>2026-04-19T09:46:15Z</time></trkpt><trkpt lat="44.84216452139619" lon="7.988736459840013"><ele>327.5</ele><time>2026-04-19T09:46:16Z</time></trkpt><trkpt lat="44.84223386954174" lon="7.988753408953103"><ele>329.0</ele><time>2026-04-19T09:46:17.001Z</time></trkpt><trkpt lat="44.84234367469573" lon="7.98864608743143"><ele>329.0</ele><time>2026-04-19T09:46:19.001Z</time></trkpt><trkpt lat="44.84242261365572" lon="7.988613422515644"><ele>329.0</ele><time>2026-04-19T09:46:20.001Z</time></trkpt><trkpt lat="44.84250511696517" lon="7.988582528958602"><ele>329.0</ele><time>2026-04-19T09:46:21.001Z</time></trkpt><trkpt lat="44.842595998389996" lon="7.988568471328456"><ele>329.0</ele><time>2026-04-19T09:46:22.001Z</time></trkpt><trkpt lat="44.84266269833412" lon="7.988542502918076"><ele>329.0</ele><time>2026-04-19T09:46:23.001Z</time></trkpt><trkpt lat="44.84280013622816" lon="7.988439220770065"><ele>327.79999999999995</ele><time>2026-04-19T09:46:25.001Z</time></trkpt><trkpt lat="44.84289513624624" lon="7.988365942906825"><ele>326.59999999999997</ele><time>2026-04-19T09:46:26.001Z</time></trkpt><trkpt lat="44.84298280253233" lon="7.988308400376462"><ele>325.4</ele><time>2026-04-19T09:46:27.001Z</time></trkpt><trkpt lat="44.843069929080244" lon="7.9882461882252285"><ele>324.2</ele><time>2026-04-19T09:46:28.001Z</time></trkpt><trkpt lat="44.8431683031622" lon="7.98816849337079"><ele>323.0</ele><time>2026-04-19T09:46:29.001Z</time></trkpt><trkpt lat="44.84325784680307" lon="7.988111277826239"><ele>323.0</ele><time>2026-04-19T09:46:31.001Z</time></trkpt><trkpt lat="44.84336440233457" lon="7.988190073894067"><ele>323.0</ele><time>2026-04-19T09:46:32.001Z</time></trkpt><trkpt lat="44.84343620379481" lon="7.9882308318537065"><ele>323.0</ele><time>2026-04-19T09:46:33.001Z</time></trkpt><trkpt lat="44.84350396018871" lon="7.988312493684219"><ele>323.0</ele><time>2026-04-19T09:46:34.001Z</time></trkpt><trkpt lat="44.84359199191028" lon="7.988414405461473"><ele>323.0</ele><time>2026-04-19T09:46:35.001Z</time></trkpt><trkpt lat="44.84363690546388" lon="7.98851565707761"><ele>318.4</ele><time>2026-04-19T09:46:36.001Z</time></trkpt><trkpt lat="44.843689867805615" lon="7.988577175125398"><ele>313.79999999999995</ele><time>2026-04-19T09:46:37.001Z</time></trkpt><trkpt lat="44.843704206636005" lon="7.988705989548667"><ele>309.2</ele><time>2026-04-19T09:46:38.001Z</time></trkpt><trkpt lat="44.84371703165812" lon="7.98879633042422"><ele>304.6</ele><time>2026-04-19T09:46:39.001Z</time></trkpt><trkpt lat="44.843618179614516" lon="7.9889934724501686"><ele>300.0</ele><time>2026-04-19T09:46:40.001Z</time></trkpt><trkpt lat="44.84359437182911" lon="7.989110988863643"><ele>299.6</ele><time>2026-04-19T09:46:41.001Z</time></trkpt><trkpt lat="44.84351963146873" lon="7.989231252668763"><ele>299.2</ele><time>2026-04-19T09:46:42.001Z</time></trkpt><trkpt lat="44.84344951178896" lon="7.989331238101533"><ele>298.8</ele><time>2026-04-19T09:46:43.001Z</time></trkpt><trkpt lat="44.843347646472644" lon="7.989399308429651"><ele>298.4</ele><time>2026-04-19T09:46:44.001Z</time></trkpt><trkpt lat="44.84328939510286" lon="7.989496264596315"><ele>298.0</ele><time>2026-04-19T09:46:45.001Z</time></trkpt><trkpt lat="44.8432473625241" lon="7.989595534087216"><ele>298.8</ele><time>2026-04-19T09:46:46.001Z</time></trkpt><trkpt lat="44.843230449320274" lon="7.989735436275982"><ele>299.6</ele><time>2026-04-19T09:46:47.001Z</time></trkpt><trkpt lat="44.843248143872785" lon="7.989925615078669"><ele>300.4</ele><time>2026-04-19T09:46:49.001Z</time></trkpt><trkpt lat="44.84323425354493" lon="7.990057470225343"><ele>301.2</ele><time>2026-04-19T09:46:50.001Z</time></trkpt><trkpt lat="44.84319098057688" lon="7.990193304345258"><ele>302.0</ele><time>2026-04-19T09:46:51.001Z</time></trkpt><trkpt lat="44.84314900762846" lon="7.990320814593252"><ele>302.0</ele><time>2026-04-19T09:46:52.001Z</time></trkpt><trkpt lat="44.84315115437205" lon="7.990504974137714"><ele>302.0</ele><time>2026-04-19T09:46:54.001Z</time></trkpt><trkpt lat="44.84323084451859" lon="7.990432044923702"><ele>302.0</ele><time>2026-04-19T09:46:56.001Z</time></trkpt><trkpt lat="44.84328247551299" lon="7.9903550947226085"><ele>302.0</ele><time>2026-04-19T09:46:57.001Z</time></trkpt><trkpt lat="44.84333853736622" lon="7.990268586876478"><ele>302.0</ele><time>2026-04-19T09:46:58.001Z</time></trkpt><trkpt lat="44.84339489845501" lon="7.9902159532524735"><ele>302.0</ele><time>2026-04-19T09:47:01.001Z</time></trkpt><trkpt lat="44.84345773818241" lon="7.990142420951162"><ele>302.0</ele><time>2026-04-19T09:47:02.001Z</time></trkpt><trkpt lat="44.8435389426668" lon="7.989995729409321"><ele>302.0</ele><time>2026-04-19T09:47:03.001Z</time></trkpt><trkpt lat="44.84365028392479" lon="7.989861039692486"><ele>302.0</ele><time>2026-04-19T09:47:04.001Z</time></trkpt><trkpt lat="44.84373737806867" lon="7.989728057527339"><ele>300.6666666666667</ele><time>2026-04-19T09:47:05.001Z</time></trkpt><trkpt lat="44.84384014470923" lon="7.989625699209253"><ele>299.3333333333333</ele><time>2026-04-19T09:47:06.001Z</time></trkpt><trkpt lat="44.84393764910881" lon="7.989445811673876"><ele>298.0</ele><time>2026-04-19T09:47:07.001Z</time></trkpt><trkpt lat="44.84409493030067" lon="7.9893381125402465"><ele>298.0</ele><time>2026-04-19T09:47:08.001Z</time></trkpt><trkpt lat="44.8442864377091" lon="7.989296703441688"><ele>298.0</ele><time>2026-04-19T09:47:09.001Z</time></trkpt><trkpt lat="44.844476344229705" lon="7.9893213648215164"><ele>298.0</ele><time>2026-04-19T09:47:11.001Z</time></trkpt><trkpt lat="44.844599097433665" lon="7.989336920861173"><ele>298.0</ele><time>2026-04-19T09:47:12.001Z</time></trkpt><trkpt lat="44.84468303491776" lon="7.989373463207547"><ele>298.0</ele><time>2026-04-19T09:47:13.001Z</time></trkpt><trkpt lat="44.844782246443316" lon="7.989391405191513"><ele>298.0</ele><time>2026-04-19T09:47:14.001Z</time></trkpt><trkpt lat="44.844882109831076" lon="7.989383900821551"><ele>298.0</ele><time>2026-04-19T09:47:15.001Z</time></trkpt><trkpt lat="44.844999097539514" lon="7.989360181117093"><ele>298.0</ele><time>2026-04-19T09:47:16.001Z</time></trkpt><trkpt lat="44.84513547286364" lon="7.989315404153566"><ele>298.0</ele><time>2026-04-19T09:47:17.001Z</time></trkpt><trkpt lat="44.845248678555514" lon="7.989286950336671"><ele>298.0</ele><time>2026-04-19T09:47:18.001Z</time></trkpt><trkpt lat="44.84535822837817" lon="7.989229045372212"><ele>298.0</ele><time>2026-04-19T09:47:19.001Z</time></trkpt><trkpt lat="44.84546125910107" lon="7.9891688286805485"><ele>298.0</ele><time>2026-04-19T09:47:20.001Z</time></trkpt><trkpt lat="44.84557332010041" lon="7.989094779007871"><ele>294.5</ele><time>2026-04-19T09:47:21.001Z</time></trkpt><trkpt lat="44.84566678825951" lon="7.98902428121507"><ele>291.0</ele><time>2026-04-19T09:47:22Z</time></trkpt><trkpt lat="44.845772643771696" lon="7.988957624021424"><ele>287.5</ele><time>2026-04-19T09:47:23Z</time></trkpt><trkpt lat="44.84589813759697" lon="7.988878595218828"><ele>284.0</ele><time>2026-04-19T09:47:24Z</time></trkpt><trkpt lat="44.8460218465435" lon="7.988786373533744"><ele>283.0</ele><time>2026-04-19T09:47:25Z</time></trkpt><trkpt lat="44.846132102960496" lon="7.988699352969906"><ele>282.0</ele><time>2026-04-19T09:47:26Z</time></trkpt><trkpt lat="44.8462312961046" lon="7.988607164118889"><ele>281.0</ele><time>2026-04-19T09:47:27Z</time></trkpt><trkpt lat="44.84631369061024" lon="7.988515502803526"><ele>280.0</ele><time>2026-04-19T09:47:28Z</time></trkpt><trkpt lat="44.846381415301316" lon="7.9884249307308375"><ele>279.0</ele><time>2026-04-19T09:47:29Z</time></trkpt><trkpt lat="44.84642847035857" lon="7.988365197475141"><ele>279.0</ele><time>2026-04-19T09:47:30Z</time></trkpt><trkpt lat="44.84648128314684" lon="7.988295362008244"><ele>279.0</ele><time>2026-04-19T09:47:32Z</time></trkpt><trkpt lat="44.84653019829273" lon="7.988441088673722"><ele>279.0</ele><time>2026-04-19T09:47:36Z</time></trkpt><trkpt lat="44.846565323920636" lon="7.988541242346952"><ele>279.0</ele><time>2026-04-19T09:47:37Z</time></trkpt><trkpt lat="44.846616577079985" lon="7.988681575148667"><ele>279.0</ele><time>2026-04-19T09:47:38Z</time></trkpt><trkpt lat="44.84666856900897" lon="7.988839985863408"><ele>279.0</ele><time>2026-04-19T09:47:39Z</time></trkpt><trkpt lat="44.846728677212624" lon="7.988987324711461"><ele>279.0</ele><time>2026-04-19T09:47:40Z</time></trkpt><trkpt lat="44.84677675486639" lon="7.98914518324873"><ele>279.0</ele><time>2026-04-19T09:47:41Z</time></trkpt><trkpt lat="44.846822702087394" lon="7.989288053466026"><ele>279.0</ele><time>2026-04-19T09:47:42Z</time></trkpt><trkpt lat="44.84686779068734" lon="7.989420260925251"><ele>283.4</ele><time>2026-04-19T09:47:43Z</time></trkpt><trkpt lat="44.8469075511726" lon="7.9895516696371445"><ele>287.79999999999995</ele><time>2026-04-19T09:47:44Z</time></trkpt><trkpt lat="44.84694462623745" lon="7.989684722858119"><ele>292.20000000000005</ele><time>2026-04-19T09:47:45Z</time></trkpt><trkpt lat="44.846989909422476" lon="7.989801866304944"><ele>296.6</ele><time>2026-04-19T09:47:46Z</time></trkpt><trkpt lat="44.84704776225344" lon="7.989911187350951"><ele>301.0</ele><time>2026-04-19T09:47:47Z</time></trkpt><trkpt lat="44.847186220646975" lon="7.98981627328846"><ele>301.0</ele><time>2026-04-19T09:47:49Z</time></trkpt><trkpt lat="44.84720745898969" lon="7.989717110903792"><ele>301.0</ele><time>2026-04-19T09:47:50Z</time></trkpt><trkpt lat="44.84717605442066" lon="7.989561971013236"><ele>301.0</ele><time>2026-04-19T09:47:51Z</time></trkpt><trkpt lat="44.84713748144841" lon="7.98936137959286"><ele>301.0</ele><time>2026-04-19T09:47:52Z</time></trkpt><trkpt lat="44.84712590601693" lon="7.989210580978131"><ele>301.0</ele><time>2026-04-19T09:47:53Z</time></trkpt><trkpt lat="44.847140284429805" lon="7.989093589778957"><ele>301.0</ele><time>2026-04-19T09:47:54Z</time></trkpt><trkpt lat="44.8472098579418" lon="7.988945706689218"><ele>301.0</ele><time>2026-04-19T09:47:56Z</time></trkpt><trkpt lat="44.84735891541349" lon="7.988966946147408"><ele>301.0</ele><time>2026-04-19T09:47:58Z</time></trkpt><trkpt lat="44.847510658518324" lon="7.98905760961782"><ele>301.0</ele><time>2026-04-19T09:47:59Z</time></trkpt><trkpt lat="44.84743631897017" lon="7.9892158857385445"><ele>301.0</ele><time>2026-04-19T09:48:01Z</time></trkpt><trkpt lat="44.84738625008772" lon="7.989407564096709"><ele>301.0</ele><time>2026-04-19T09:48:02Z</time></trkpt><trkpt lat="44.84737701708903" lon="7.989551669203799"><ele>301.0</ele><time>2026-04-19T09:48:03Z</time></trkpt><trkpt lat="44.84738759043702" lon="7.989741085275538"><ele>301.0</ele><time>2026-04-19T09:48:04Z</time></trkpt><trkpt lat="44.84742929333321" lon="7.989880606952603"><ele>301.0</ele><time>2026-04-19T09:48:05Z</time></trkpt><trkpt lat="44.84751839879557" lon="7.989939368171204"><ele>301.0</ele><time>2026-04-19T09:48:07Z</time></trkpt><trkpt lat="44.847569439740035" lon="7.989827894826884"><ele>301.0</ele><time>2026-04-19T09:48:08Z</time></trkpt><trkpt lat="44.84760847644479" lon="7.989736907679756"><ele>301.0</ele><time>2026-04-19T09:48:09Z</time></trkpt><trkpt lat="44.847651116939744" lon="7.989644023812485"><ele>301.0</ele><time>2026-04-19T09:48:10Z</time></trkpt><trkpt lat="44.84770287404423" lon="7.989574483555285"><ele>301.0</ele><time>2026-04-19T09:48:11Z</time></trkpt><trkpt lat="44.84775032030473" lon="7.9895028985823044"><ele>304.0</ele><time>2026-04-19T09:48:12Z</time></trkpt><trkpt lat="44.847805777158776" lon="7.989430324868097"><ele>307.0</ele><time>2026-04-19T09:48:13Z</time></trkpt><trkpt lat="44.84788427193817" lon="7.989348577225998"><ele>310.0</ele><time>2026-04-19T09:48:14Z</time></trkpt><trkpt lat="44.84797530500142" lon="7.989278341734082"><ele>313.0</ele><time>2026-04-19T09:48:15Z</time></trkpt><trkpt lat="44.848043038780176" lon="7.98924060585757"><ele>316.0</ele><time>2026-04-19T09:48:16Z</time></trkpt><trkpt lat="44.84816045236651" lon="7.989304494083537"><ele>316.0</ele><time>2026-04-19T09:48:18Z</time></trkpt><trkpt lat="44.84806997492265" lon="7.989504210777269"><ele>316.0</ele><time>2026-04-19T09:48:20Z</time></trkpt><trkpt lat="44.84797762221054" lon="7.989585611918153"><ele>316.0</ele><time>2026-04-19T09:48:21Z</time></trkpt><trkpt lat="44.84794867144594" lon="7.98968036392291"><ele>316.0</ele><time>2026-04-19T09:48:22.001Z</time></trkpt><trkpt lat="44.847951015696204" lon="7.989783989024184"><ele>316.0</ele><time>2026-04-19T09:48:23.001Z</time></trkpt><trkpt lat="44.84797030122287" lon="7.989918401434219"><ele>318.0</ele><time>2026-04-19T09:48:24.001Z</time></trkpt><trkpt lat="44.84799635506789" lon="7.990067191915877"><ele>320.0</ele><time>2026-04-19T09:48:25.001Z</time></trkpt><trkpt lat="44.84803551475939" lon="7.990188643475503"><ele>322.0</ele><time>2026-04-19T09:48:26.001Z</time></trkpt><trkpt lat="44.84806235621519" lon="7.990311397564213"><ele>324.0</ele><time>2026-04-19T09:48:27.001Z</time></trkpt><trkpt lat="44.848077312242495" lon="7.990447669350981"><ele>326.0</ele><time>2026-04-19T09:48:28.001Z</time></trkpt><trkpt lat="44.84808036166954" lon="7.990569750587367"><ele>326.0</ele><time>2026-04-19T09:48:29.001Z</time></trkpt><trkpt lat="44.84808970973542" lon="7.99070773392243"><ele>326.0</ele><time>2026-04-19T09:48:30.001Z</time></trkpt><trkpt lat="44.84810715050802" lon="7.990853338086851"><ele>326.0</ele><time>2026-04-19T09:48:31.001Z</time></trkpt><trkpt lat="44.84813828838612" lon="7.990995558467588"><ele>326.0</ele><time>2026-04-19T09:48:32.001Z</time></trkpt><trkpt lat="44.84816090073821" lon="7.991135481871469"><ele>326.0</ele><time>2026-04-19T09:48:33.001Z</time></trkpt><trkpt lat="44.848191448999565" lon="7.9912838021923625"><ele>326.0</ele><time>2026-04-19T09:48:34.001Z</time></trkpt><trkpt lat="44.84821007980227" lon="7.991425121550889"><ele>326.0</ele><time>2026-04-19T09:48:35.001Z</time></trkpt><trkpt lat="44.848217786008696" lon="7.991564753304251"><ele>326.0</ele><time>2026-04-19T09:48:36.001Z</time></trkpt><trkpt lat="44.84820686066044" lon="7.991672806020814"><ele>326.0</ele><time>2026-04-19T09:48:37.001Z</time></trkpt><trkpt lat="44.848178392903044" lon="7.991788196114557"><ele>326.0</ele><time>2026-04-19T09:48:38.001Z</time></trkpt><trkpt lat="44.84811329872345" lon="7.991901807068215"><ele>324.40000000000003</ele><time>2026-04-19T09:48:39.001Z</time></trkpt><trkpt lat="44.848051497234316" lon="7.991997091065611"><ele>322.8</ele><time>2026-04-19T09:48:40.001Z</time></trkpt><trkpt lat="44.84799075162432" lon="7.992081183425549"><ele>321.20000000000005</ele><time>2026-04-19T09:48:41.001Z</time></trkpt><trkpt lat="44.84795432483457" lon="7.992170216862507"><ele>319.6</ele><time>2026-04-19T09:48:42.001Z</time></trkpt><trkpt lat="44.847940666744606" lon="7.992277033199081"><ele>318.0</ele><time>2026-04-19T09:48:43.001Z</time></trkpt><trkpt lat="44.84801426897856" lon="7.992503169091758"><ele>317.4</ele><time>2026-04-19T09:48:45.001Z</time></trkpt><trkpt lat="44.84803926300246" lon="7.992663512072489"><ele>316.8</ele><time>2026-04-19T09:48:46.001Z</time></trkpt><trkpt lat="44.84812095852976" lon="7.992820480344184"><ele>316.2</ele><time>2026-04-19T09:48:47.001Z</time></trkpt><trkpt lat="44.848195346003145" lon="7.992946258376699"><ele>315.6</ele><time>2026-04-19T09:48:48.001Z</time></trkpt><trkpt lat="44.84824108461354" lon="7.993030153595452"><ele>315.0</ele><time>2026-04-19T09:48:49.001Z</time></trkpt><trkpt lat="44.84826153918905" lon="7.993125561209912"><ele>315.0</ele><time>2026-04-19T09:48:51.001Z</time></trkpt><trkpt lat="44.84829501564242" lon="7.99300460785375"><ele>315.0</ele><time>2026-04-19T09:48:55.001Z</time></trkpt><trkpt lat="44.848268291819906" lon="7.992859057808164"><ele>315.0</ele><time>2026-04-19T09:48:58.001Z</time></trkpt><trkpt lat="44.84828636483757" lon="7.992761220249738"><ele>315.0</ele><time>2026-04-19T09:48:59.001Z</time></trkpt><trkpt lat="44.848294293947795" lon="7.992627985031407"><ele>315.0</ele><time>2026-04-19T09:49:00.001Z</time></trkpt><trkpt lat="44.84830045111588" lon="7.992512785419862"><ele>315.0</ele><time>2026-04-19T09:49:01.001Z</time></trkpt><trkpt lat="44.84827238650926" lon="7.992404800097921"><ele>315.5</ele><time>2026-04-19T09:49:02.001Z</time></trkpt><trkpt lat="44.848310449924234" lon="7.992325080687334"><ele>316.0</ele><time>2026-04-19T09:49:05.001Z</time></trkpt><trkpt lat="44.848382371858996" lon="7.992314289232126"><ele>316.5</ele><time>2026-04-19T09:49:07.001Z</time></trkpt><trkpt lat="44.84846762691441" lon="7.992241082308444"><ele>317.0</ele><time>2026-04-19T09:49:09.001Z</time></trkpt><trkpt lat="44.84851038172837" lon="7.992142439981942"><ele>317.5</ele><time>2026-04-19T09:49:10.001Z</time></trkpt><trkpt lat="44.84859685480062" lon="7.992046564128962"><ele>318.0</ele><time>2026-04-19T09:49:11.001Z</time></trkpt><trkpt lat="44.848689169509036" lon="7.992021682272823"><ele>313.1666666666667</ele><time>2026-04-19T09:49:12.001Z</time></trkpt><trkpt lat="44.848803757585344" lon="7.992035999201962"><ele>308.3333333333333</ele><time>2026-04-19T09:49:13.001Z</time></trkpt><trkpt lat="44.848878165703404" lon="7.992074853711637"><ele>303.5</ele><time>2026-04-19T09:49:14.001Z</time></trkpt><trkpt lat="44.84894309730415" lon="7.992180603928127"><ele>298.66666666666663</ele><time>2026-04-19T09:49:15.001Z</time></trkpt><trkpt lat="44.84895975792037" lon="7.992277419877364"><ele>293.8333333333333</ele><time>2026-04-19T09:49:16.001Z</time></trkpt><trkpt lat="44.849029897022085" lon="7.992273286199266"><ele>289.0</ele><time>2026-04-19T09:49:17.001Z</time></trkpt><trkpt lat="44.84909580431624" lon="7.992268567755044"><ele>289.0</ele><time>2026-04-19T09:49:18.001Z</time></trkpt><trkpt lat="44.84916368613613" lon="7.992321624928579"><ele>289.0</ele><time>2026-04-19T09:49:20.001Z</time></trkpt><trkpt lat="44.84912840568292" lon="7.992418476083524"><ele>289.0</ele><time>2026-04-19T09:49:23.001Z</time></trkpt><trkpt lat="44.84919039699923" lon="7.992451812200461"><ele>289.0</ele><time>2026-04-19T09:49:26.001Z</time></trkpt><trkpt lat="44.84928629474964" lon="7.9924392723854885"><ele>289.0</ele><time>2026-04-19T09:49:27.001Z</time></trkpt><trkpt lat="44.84928592764452" lon="7.99255193371315"><ele>289.0</ele><time>2026-04-19T09:49:29Z</time></trkpt><trkpt lat="44.849353300804076" lon="7.992660728328722"><ele>289.3333333333333</ele><time>2026-04-19T09:49:33Z</time></trkpt><trkpt lat="44.849552873612296" lon="7.9927115104587125"><ele>289.6666666666667</ele><time>2026-04-19T09:49:39Z</time></trkpt><trkpt lat="44.84975902698873" lon="7.992721723270012"><ele>290.0</ele><time>2026-04-19T09:49:46Z</time></trkpt><trkpt lat="44.849867224098126" lon="7.992782671636717"><ele>290.0</ele><time>2026-04-19T09:49:47Z</time></trkpt><trkpt lat="44.84989483278356" lon="7.992913781447809"><ele>290.0</ele><time>2026-04-19T09:49:51Z</time></trkpt><trkpt lat="44.849964889326266" lon="7.992954070701798"><ele>290.0</ele><time>2026-04-19T09:49:53Z</time></trkpt><trkpt lat="44.85005019939673" lon="7.993005066554828"><ele>290.0</ele><time>2026-04-19T09:49:55Z</time></trkpt><trkpt lat="44.85014224831293" lon="7.993137932243541"><ele>290.0</ele><time>2026-04-19T09:49:56Z</time></trkpt><trkpt lat="44.85022869097586" lon="7.993301133167641"><ele>292.0</ele><time>2026-04-19T09:49:57Z</time></trkpt><trkpt lat="44.85025094053273" lon="7.993391472326492"><ele>294.0</ele><time>2026-04-19T09:49:58Z</time></trkpt><trkpt lat="44.85033858431553" lon="7.993477595125867"><ele>296.0</ele><time>2026-04-19T09:50:00Z</time></trkpt><trkpt lat="44.85058803876313" lon="7.993469868538422"><ele>298.0</ele><time>2026-04-19T09:50:04Z</time></trkpt><trkpt lat="44.85179279675926" lon="7.9935651026092716"><ele>290.6</ele><time>2026-04-19T09:50:05Z</time></trkpt><trkpt lat="44.851884837752515" lon="7.9935794585383535"><ele>283.20000000000005</ele><time>2026-04-19T09:50:06Z</time></trkpt><trkpt lat="44.85198079636958" lon="7.993594212181272"><ele>275.8</ele><time>2026-04-19T09:50:07Z</time></trkpt><trkpt lat="44.852058031017535" lon="7.993633361536587"><ele>268.40000000000003</ele><time>2026-04-19T09:50:08Z</time></trkpt><trkpt lat="44.85213727087788" lon="7.99367592437242"><ele>261.0</ele><time>2026-04-19T09:50:09Z</time></trkpt><trkpt lat="44.85234027126723" lon="7.993683137897022"><ele>261.0</ele><time>2026-04-19T09:50:12Z</time></trkpt><trkpt lat="44.85241477282009" lon="7.99375537791691"><ele>261.0</ele><time>2026-04-19T09:50:13Z</time></trkpt><trkpt lat="44.85229363775933" lon="7.993978047121543"><ele>261.0</ele><time>2026-04-19T09:50:14Z</time></trkpt><trkpt lat="44.85239004425812" lon="7.994033751166344"><ele>261.0</ele><time>2026-04-19T09:50:15Z</time></trkpt><trkpt lat="44.8524808687596" lon="7.994119166614976"><ele>261.2</ele><time>2026-04-19T09:50:16Z</time></trkpt><trkpt lat="44.85257478525852" lon="7.994178465396794"><ele>261.40000000000003</ele><time>2026-04-19T09:50:17Z</time></trkpt><trkpt lat="44.852641440498104" lon="7.994206627836021"><ele>261.6</ele><time>2026-04-19T09:50:18Z</time></trkpt><trkpt lat="44.85273667620903" lon="7.99424074846669"><ele>261.8</ele><time>2026-04-19T09:50:19Z</time></trkpt><trkpt lat="44.85285286140926" lon="7.994302901935305"><ele>262.0</ele><time>2026-04-19T09:50:20Z</time></trkpt><trkpt lat="44.85293738587425" lon="7.994375370407879"><ele>262.0</ele><time>2026-04-19T09:50:21Z</time></trkpt><trkpt lat="44.85292714658125" lon="7.9945696512684865"><ele>262.0</ele><time>2026-04-19T09:50:22Z</time></trkpt><trkpt lat="44.85296824873605" lon="7.9946434777776725"><ele>262.0</ele><time>2026-04-19T09:50:23Z</time></trkpt><trkpt lat="44.8530685511241" lon="7.9947503399181405"><ele>262.0</ele><time>2026-04-19T09:50:25Z</time></trkpt><trkpt lat="44.85311875152929" lon="7.994826625034589"><ele>262.0</ele><time>2026-04-19T09:50:26Z</time></trkpt><trkpt lat="44.853224569788274" lon="7.994897469095713"><ele>262.0</ele><time>2026-04-19T09:50:27Z</time></trkpt><trkpt lat="44.853352341928314" lon="7.99494840774611"><ele>262.0</ele><time>2026-04-19T09:50:29.001Z</time></trkpt><trkpt lat="44.85344713024307" lon="7.995077623691002"><ele>262.0</ele><time>2026-04-19T09:50:30.001Z</time></trkpt><trkpt lat="44.853506375330944" lon="7.995233158840261"><ele>262.0</ele><time>2026-04-19T09:50:31.001Z</time></trkpt><trkpt lat="44.853578100392305" lon="7.995307479352148"><ele>262.3333333333333</ele><time>2026-04-19T09:50:32.001Z</time></trkpt><trkpt lat="44.85362249398354" lon="7.995412193697501"><ele>262.66666666666663</ele><time>2026-04-19T09:50:33.001Z</time></trkpt><trkpt lat="44.85367582062627" lon="7.995502397132282"><ele>263.0</ele><time>2026-04-19T09:50:34.001Z</time></trkpt><trkpt lat="44.85364716988944" lon="7.99560570319195"><ele>263.3333333333333</ele><time>2026-04-19T09:50:35.001Z</time></trkpt><trkpt lat="44.85365246665257" lon="7.995739509788906"><ele>263.6666666666667</ele><time>2026-04-19T09:50:37.001Z</time></trkpt><trkpt lat="44.853686620231905" lon="7.995851285006967"><ele>264.0</ele><time>2026-04-19T09:50:38.001Z</time></trkpt><trkpt lat="44.85377399816285" lon="7.995964217300268"><ele>262.4</ele><time>2026-04-19T09:50:39.001Z</time></trkpt><trkpt lat="44.85384573958758" lon="7.996075871681181"><ele>260.79999999999995</ele><time>2026-04-19T09:50:40.001Z</time></trkpt><trkpt lat="44.85388885578131" lon="7.996174132127816"><ele>259.20000000000005</ele><time>2026-04-19T09:50:41.001Z</time></trkpt><trkpt lat="44.85392342822063" lon="7.996331642261292"><ele>257.6</ele><time>2026-04-19T09:50:42.001Z</time></trkpt><trkpt lat="44.853992580395584" lon="7.996442690858649"><ele>256.0</ele><time>2026-04-19T09:50:43.001Z</time></trkpt><trkpt lat="44.85400912988929" lon="7.99660502740047"><ele>255.60000000000002</ele><time>2026-04-19T09:50:44.001Z</time></trkpt><trkpt lat="44.85400950195421" lon="7.996737803850649"><ele>255.20000000000002</ele><time>2026-04-19T09:50:45.001Z</time></trkpt><trkpt lat="44.85405020665136" lon="7.996805990583271"><ele>254.79999999999998</ele><time>2026-04-19T09:50:46.001Z</time></trkpt><trkpt lat="44.85408496191405" lon="7.996903409662733"><ele>254.39999999999998</ele><time>2026-04-19T09:50:47.001Z</time></trkpt><trkpt lat="44.85408716183549" lon="7.997029131247186"><ele>254.0</ele><time>2026-04-19T09:50:48.001Z</time></trkpt><trkpt lat="44.8540079924914" lon="7.9972219510329055"><ele>254.0</ele><time>2026-04-19T09:50:49.001Z</time></trkpt><trkpt lat="44.85399283415381" lon="7.997346100328537"><ele>254.0</ele><time>2026-04-19T09:50:51.001Z</time></trkpt><trkpt lat="44.854168005101236" lon="7.9975057279598225"><ele>254.0</ele><time>2026-04-19T09:50:58.001Z</time></trkpt><trkpt lat="44.85426005668187" lon="7.997545247706285"><ele>254.0</ele><time>2026-04-19T09:51:03.001Z</time></trkpt><trkpt lat="44.85473756010023" lon="7.998168785515435"><ele>253.33333333333334</ele><time>2026-04-19T09:51:04.001Z</time></trkpt><trkpt lat="44.85483773959823" lon="7.998250028022131"><ele>252.66666666666669</ele><time>2026-04-19T09:51:05.001Z</time></trkpt><trkpt lat="44.85493260888115" lon="7.998233172858714"><ele>252.0</ele><time>2026-04-19T09:51:06.001Z</time></trkpt><trkpt lat="44.85512971096455" lon="7.998041276851796"><ele>252.0</ele><time>2026-04-19T09:51:07.001Z</time></trkpt><trkpt lat="44.85523800589952" lon="7.998076551506597"><ele>252.0</ele><time>2026-04-19T09:51:08.001Z</time></trkpt><trkpt lat="44.85534515439647" lon="7.998161150328097"><ele>252.0</ele><time>2026-04-19T09:51:09.001Z</time></trkpt><trkpt lat="44.85544881895683" lon="7.998210067817224"><ele>252.0</ele><time>2026-04-19T09:51:10.001Z</time></trkpt><trkpt lat="44.85552176339159" lon="7.998246944023679"><ele>252.0</ele><time>2026-04-19T09:51:11.001Z</time></trkpt><trkpt lat="44.85566761256512" lon="7.998321357982724"><ele>253.2</ele><time>2026-04-19T09:51:13.001Z</time></trkpt><trkpt lat="44.855740806338964" lon="7.99833600444292"><ele>254.39999999999998</ele><time>2026-04-19T09:51:14.001Z</time></trkpt><trkpt lat="44.85581568478858" lon="7.998392070254614"><ele>255.60000000000002</ele><time>2026-04-19T09:51:15.001Z</time></trkpt><trkpt lat="44.855897199987545" lon="7.998425490075188"><ele>256.8</ele><time>2026-04-19T09:51:16.001Z</time></trkpt><trkpt lat="44.85574744892665" lon="7.99862092115927"><ele>258.0</ele><time>2026-04-19T09:51:20.001Z</time></trkpt><trkpt lat="44.855701988415746" lon="7.9986916910360435"><ele>258.0</ele><time>2026-04-19T09:51:21.001Z</time></trkpt><trkpt lat="44.85562676966325" lon="7.998852811369831"><ele>258.0</ele><time>2026-04-19T09:51:23.001Z</time></trkpt><trkpt lat="44.85561668004633" lon="7.999034649448256"><ele>258.0</ele><time>2026-04-19T09:51:24.001Z</time></trkpt><trkpt lat="44.85558407457164" lon="7.999131874276094"><ele>258.0</ele><time>2026-04-19T09:51:25.001Z</time></trkpt><trkpt lat="44.855530974727735" lon="7.999220586496759"><ele>258.0</ele><time>2026-04-19T09:51:26.001Z</time></trkpt><trkpt lat="44.85547487379978" lon="7.999269555576645"><ele>260.5</ele><time>2026-04-19T09:51:27.001Z</time></trkpt><trkpt lat="44.85536779399529" lon="7.999264247400744"><ele>263.0</ele><time>2026-04-19T09:51:28.001Z</time></trkpt><trkpt lat="44.85539080483094" lon="7.999376834038115"><ele>265.5</ele><time>2026-04-19T09:51:29.001Z</time></trkpt><trkpt lat="44.85538524079775" lon="7.99946676705791"><ele>268.0</ele><time>2026-04-19T09:51:30.001Z</time></trkpt><trkpt lat="44.85535738415528" lon="7.999595648535541"><ele>270.5</ele><time>2026-04-19T09:51:32.001Z</time></trkpt><trkpt lat="44.855331953003585" lon="7.999708643684382"><ele>273.0</ele><time>2026-04-19T09:51:34Z</time></trkpt><trkpt lat="44.85529604281285" lon="7.999810949280351"><ele>273.0</ele><time>2026-04-19T09:51:35Z</time></trkpt><trkpt lat="44.85527168172766" lon="7.9999577357375005"><ele>273.0</ele><time>2026-04-19T09:51:37Z</time></trkpt><trkpt lat="44.85521003910624" lon="7.999922370421218"><ele>273.0</ele><time>2026-04-19T09:51:40Z</time></trkpt><trkpt lat="44.85517828896416" lon="7.999829243320782"><ele>273.0</ele><time>2026-04-19T09:51:47Z</time></trkpt><trkpt lat="44.85517733742998" lon="7.999720243404839"><ele>273.0</ele><time>2026-04-19T09:51:51Z</time></trkpt><trkpt lat="44.855176220155904" lon="7.9996259208675164"><ele>273.0</ele><time>2026-04-19T09:51:53Z</time></trkpt><trkpt lat="44.85511900102327" lon="7.999523096566551"><ele>273.0</ele><time>2026-04-19T09:51:56Z</time></trkpt><trkpt lat="44.855104581362674" lon="7.99941832651675"><ele>273.0</ele><time>2026-04-19T09:51:57Z</time></trkpt><trkpt lat="44.85507077448592" lon="7.999328190988642"><ele>273.0</ele><time>2026-04-19T09:51:58Z</time></trkpt><trkpt lat="44.855004135109205" lon="7.999235222248095"><ele>273.0</ele><time>2026-04-19T09:52:00Z</time></trkpt><trkpt lat="44.854943359238085" lon="7.999281609687584"><ele>273.0</ele><time>2026-04-19T09:52:02Z</time></trkpt><trkpt lat="44.854851193104224" lon="7.999246800919346"><ele>273.0</ele><time>2026-04-19T09:52:04Z</time></trkpt><trkpt lat="44.85487778560444" lon="7.999132767667295"><ele>273.0</ele><time>2026-04-19T09:52:08Z</time></trkpt><trkpt lat="44.854871546687875" lon="7.999014420207447"><ele>273.0</ele><time>2026-04-19T09:52:11Z</time></trkpt><trkpt lat="44.8549081933901" lon="7.998930524810768"><ele>273.0</ele><time>2026-04-19T09:52:15Z</time></trkpt><trkpt lat="44.854876796524444" lon="7.99884474669859"><ele>273.0</ele><time>2026-04-19T09:52:18Z</time></trkpt><trkpt lat="44.85475414570595" lon="7.998831151077903"><ele>273.0</ele><time>2026-04-19T09:52:22Z</time></trkpt><trkpt lat="44.85465781415157" lon="7.998841399398204"><ele>273.0</ele><time>2026-04-19T09:52:24Z</time></trkpt><trkpt lat="44.85461847893831" lon="7.998926005208754"><ele>273.0</ele><time>2026-04-19T09:52:30Z</time></trkpt><trkpt lat="44.85456520583421" lon="7.9989847358596515"><ele>273.0</ele><time>2026-04-19T09:52:33Z</time></trkpt><trkpt lat="44.8545839171101" lon="7.999077580408283"><ele>273.0</ele><time>2026-04-19T09:52:38Z</time></trkpt><trkpt lat="44.854647200851694" lon="7.9990686636547546"><ele>273.0</ele><time>2026-04-19T09:52:41.001Z</time></trkpt><trkpt lat="44.85471102859084" lon="7.99911562889325"><ele>273.0</ele><time>2026-04-19T09:53:31.001Z</time></trkpt><trkpt lat="44.85464849457162" lon="7.999160802267145"><ele>273.0</ele><time>2026-04-19T09:53:40Z</time></trkpt><trkpt lat="44.85466763607605" lon="7.99926059898596"><ele>273.0</ele><time>2026-04-19T09:53:56Z</time></trkpt><trkpt lat="44.85462930995065" lon="7.999393953209763"><ele>274.1666666666667</ele><time>2026-04-19T09:53:58Z</time></trkpt><trkpt lat="44.85459534206581" lon="7.999507174483289"><ele>275.3333333333333</ele><time>2026-04-19T09:54:00Z</time></trkpt><trkpt lat="44.854565522369235" lon="7.999617444469834"><ele>276.5</ele><time>2026-04-19T09:54:03Z</time></trkpt><trkpt lat="44.85452577029869" lon="7.999711612330014"><ele>277.66666666666663</ele><time>2026-04-19T09:54:06Z</time></trkpt><trkpt lat="44.85449102114735" lon="7.999819292205703"><ele>278.8333333333333</ele><time>2026-04-19T09:54:08Z</time></trkpt><trkpt lat="44.85447661798114" lon="7.999940570780807"><ele>280.0</ele><time>2026-04-19T09:54:10Z</time></trkpt><trkpt lat="44.854415694098186" lon="7.99997412006188"><ele>280.0</ele><time>2026-04-19T09:54:15Z</time></trkpt><trkpt lat="44.854341005858075" lon="8.00000679454399"><ele>280.0</ele><time>2026-04-19T09:54:18Z</time></trkpt><trkpt lat="44.85432120290127" lon="8.000104344404031"><ele>280.0</ele><time>2026-04-19T09:54:20Z</time></trkpt><trkpt lat="44.85423959412763" lon="8.000221649650731"><ele>280.0</ele><time>2026-04-19T09:54:23Z</time></trkpt><trkpt lat="44.85414085428526" lon="8.00032784430123"><ele>280.0</ele><time>2026-04-19T09:54:25Z</time></trkpt><trkpt lat="44.854061553356985" lon="8.000424121430207"><ele>282.57142857142856</ele><time>2026-04-19T09:54:27Z</time></trkpt><trkpt lat="44.85400810037742" lon="8.000485123596485"><ele>285.1428571428571</ele><time>2026-04-19T09:54:29Z</time></trkpt><trkpt lat="44.85396557352906" lon="8.000554307103247"><ele>287.7142857142857</ele><time>2026-04-19T09:54:32Z</time></trkpt><trkpt lat="44.85400497377453" lon="8.000628140469376"><ele>290.2857142857143</ele><time>2026-04-19T09:55:13.001Z</time></trkpt><trkpt lat="44.8539747732902" lon="8.000540010596325"><ele>292.85714285714283</ele><time>2026-04-19T09:56:42Z</time></trkpt><trkpt lat="44.85388917124515" lon="8.000528542901572"><ele>295.42857142857144</ele><time>2026-04-19T09:58:42Z</time></trkpt><trkpt lat="44.853828866942905" lon="8.00047513193036"><ele>298.0</ele><time>2026-04-19T09:58:43Z</time></trkpt><trkpt lat="44.853712532170725" lon="8.000376550046933"><ele>298.0</ele><time>2026-04-19T09:58:45Z</time></trkpt><trkpt lat="44.85362784360732" lon="8.000320401567405"><ele>298.0</ele><time>2026-04-19T09:58:46Z</time></trkpt><trkpt lat="44.85354890535042" lon="8.000280932554956"><ele>298.0</ele><time>2026-04-19T09:58:47Z</time></trkpt><trkpt lat="44.853454956365844" lon="8.00025000651416"><ele>298.0</ele><time>2026-04-19T09:58:48Z</time></trkpt><trkpt lat="44.853367588344994" lon="8.000224074913328"><ele>298.0</ele><time>2026-04-19T09:58:49Z</time></trkpt><trkpt lat="44.85328370081089" lon="8.000205394803828"><ele>298.0</ele><time>2026-04-19T09:58:50Z</time></trkpt><trkpt lat="44.853246788117744" lon="8.000111572524611"><ele>298.8333333333333</ele><time>2026-04-19T09:58:52Z</time></trkpt><trkpt lat="44.85325608668067" lon="7.999941626055413"><ele>299.66666666666663</ele><time>2026-04-19T09:58:54Z</time></trkpt><trkpt lat="44.853229198457015" lon="7.9998500674516535"><ele>300.5</ele><time>2026-04-19T09:58:55Z</time></trkpt><trkpt lat="44.85316608379142" lon="7.999791275915352"><ele>301.3333333333333</ele><time>2026-04-19T09:58:56Z</time></trkpt><trkpt lat="44.853096004627545" lon="7.999766053810878"><ele>302.1666666666667</ele><time>2026-04-19T09:58:57Z</time></trkpt><trkpt lat="44.853000311617365" lon="7.999756992350695"><ele>303.0</ele><time>2026-04-19T09:58:58Z</time></trkpt><trkpt lat="44.8529309732034" lon="7.99975385180756"><ele>303.0</ele><time>2026-04-19T09:58:59Z</time></trkpt><trkpt lat="44.85289769235283" lon="7.999840963895439"><ele>303.0</ele><time>2026-04-19T09:59:00Z</time></trkpt><trkpt lat="44.85283626347955" lon="7.999933187876643"><ele>303.0</ele><time>2026-04-19T09:59:01Z</time></trkpt><trkpt lat="44.85276657291386" lon="8.000002588929416"><ele>303.0</ele><time>2026-04-19T09:59:02Z</time></trkpt><trkpt lat="44.852686522001534" lon="8.000093152349125"><ele>303.0</ele><time>2026-04-19T09:59:03Z</time></trkpt><trkpt lat="44.852623299660834" lon="8.000165049041389"><ele>303.0</ele><time>2026-04-19T09:59:04Z</time></trkpt><trkpt lat="44.85255879700769" lon="8.000198983809858"><ele>301.1666666666667</ele><time>2026-04-19T09:59:05Z</time></trkpt><trkpt lat="44.852492373296904" lon="8.00017349218111"><ele>299.3333333333333</ele><time>2026-04-19T09:59:07Z</time></trkpt><trkpt lat="44.85245314772405" lon="8.00009891576758"><ele>297.5</ele><time>2026-04-19T09:59:08Z</time></trkpt><trkpt lat="44.85237190689564" lon="8.000002287484769"><ele>295.66666666666663</ele><time>2026-04-19T09:59:09Z</time></trkpt><trkpt lat="44.85228271441014" lon="7.999916944630453"><ele>293.8333333333333</ele><time>2026-04-19T09:59:10Z</time></trkpt><trkpt lat="44.85222245483973" lon="7.999821967927078"><ele>292.0</ele><time>2026-04-19T09:59:12Z</time></trkpt><trkpt lat="44.8521550191263" lon="7.999694193688168"><ele>292.0</ele><time>2026-04-19T09:59:14Z</time></trkpt><trkpt lat="44.852087600181456" lon="7.999551039685504"><ele>292.0</ele><time>2026-04-19T09:59:16.001Z</time></trkpt><trkpt lat="44.8520173002172" lon="7.999461452193474"><ele>292.0</ele><time>2026-04-19T09:59:17.001Z</time></trkpt><trkpt lat="44.85197037652132" lon="7.9993929367261725"><ele>292.0</ele><time>2026-04-19T09:59:18.001Z</time></trkpt><trkpt lat="44.85190699812414" lon="7.999301832297123"><ele>292.0</ele><time>2026-04-19T09:59:19.001Z</time></trkpt><trkpt lat="44.8518342051377" lon="7.999206659989889"><ele>291.0</ele><time>2026-04-19T09:59:20.001Z</time></trkpt><trkpt lat="44.851768201775606" lon="7.999135689318225"><ele>290.0</ele><time>2026-04-19T09:59:21.001Z</time></trkpt><trkpt lat="44.851708283640484" lon="7.9990243621158506"><ele>289.0</ele><time>2026-04-19T09:59:22.001Z</time></trkpt><trkpt lat="44.851654959927" lon="7.998910976029286"><ele>288.0</ele><time>2026-04-19T09:59:23.001Z</time></trkpt><trkpt lat="44.85160791382304" lon="7.998794920769019"><ele>287.0</ele><time>2026-04-19T09:59:24.001Z</time></trkpt><trkpt lat="44.85155326742565" lon="7.998718300579786"><ele>287.0</ele><time>2026-04-19T09:59:25.001Z</time></trkpt><trkpt lat="44.851496391066874" lon="7.998671893431117"><ele>287.0</ele><time>2026-04-19T09:59:26.001Z</time></trkpt><trkpt lat="44.85140020179848" lon="7.9986455869228825"><ele>287.0</ele><time>2026-04-19T09:59:27.001Z</time></trkpt><trkpt lat="44.851306934093515" lon="7.9986054126240544"><ele>287.0</ele><time>2026-04-19T09:59:28.001Z</time></trkpt><trkpt lat="44.85121447622724" lon="7.998584001562186"><ele>287.0</ele><time>2026-04-19T09:59:29.001Z</time></trkpt><trkpt lat="44.85110484985699" lon="7.998561627965568"><ele>287.0</ele><time>2026-04-19T09:59:30.001Z</time></trkpt><trkpt lat="44.85099784241774" lon="7.998537473299596"><ele>287.0</ele><time>2026-04-19T09:59:31.001Z</time></trkpt><trkpt lat="44.85092161943018" lon="7.998527823017049"><ele>287.0</ele><time>2026-04-19T09:59:32.001Z</time></trkpt><trkpt lat="44.85083661526275" lon="7.998538653154921"><ele>287.0</ele><time>2026-04-19T09:59:33.001Z</time></trkpt><trkpt lat="44.850760877843264" lon="7.9985460708202565"><ele>287.0</ele><time>2026-04-19T09:59:34.001Z</time></trkpt><trkpt lat="44.85066433841358" lon="7.99859535932436"><ele>287.0</ele><time>2026-04-19T09:59:35.001Z</time></trkpt><trkpt lat="44.850570354746104" lon="7.998681049350977"><ele>287.2</ele><time>2026-04-19T09:59:36.001Z</time></trkpt><trkpt lat="44.85055889259107" lon="7.99882787840562"><ele>287.4</ele><time>2026-04-19T09:59:37.001Z</time></trkpt><trkpt lat="44.850511285802106" lon="7.9989398614433584"><ele>287.6</ele><time>2026-04-19T09:59:38.001Z</time></trkpt><trkpt lat="44.850461196394086" lon="7.999041568551142"><ele>287.8</ele><time>2026-04-19T09:59:39.001Z</time></trkpt><trkpt lat="44.850434853811606" lon="7.999177366197374"><ele>288.0</ele><time>2026-04-19T09:59:40.001Z</time></trkpt><trkpt lat="44.850450012783" lon="7.999371212747459"><ele>285.0</ele><time>2026-04-19T09:59:41.001Z</time></trkpt><trkpt lat="44.85046584013107" lon="7.999542772362785"><ele>282.0</ele><time>2026-04-19T09:59:42.001Z</time></trkpt><trkpt lat="44.85047262416463" lon="7.999742384727665"><ele>279.0</ele><time>2026-04-19T09:59:43.001Z</time></trkpt><trkpt lat="44.85046278313065" lon="7.999963751261963"><ele>276.0</ele><time>2026-04-19T09:59:44.001Z</time></trkpt><trkpt lat="44.85045731172013" lon="8.000093979406229"><ele>276.0</ele><time>2026-04-19T09:59:45.001Z</time></trkpt><trkpt lat="44.850465000399645" lon="8.000244458144632"><ele>276.0</ele><time>2026-04-19T09:59:46.001Z</time></trkpt><trkpt lat="44.85048950867367" lon="8.000405881202342"><ele>276.0</ele><time>2026-04-19T09:59:47.001Z</time></trkpt><trkpt lat="44.85050174745363" lon="8.000558047109994"><ele>276.0</ele><time>2026-04-19T09:59:48.001Z</time></trkpt><trkpt lat="44.85050295078379" lon="8.000687761803967"><ele>276.0</ele><time>2026-04-19T09:59:49.001Z</time></trkpt><trkpt lat="44.850528879911465" lon="8.000791046318206"><ele>275.3333333333333</ele><time>2026-04-19T09:59:50.001Z</time></trkpt><trkpt lat="44.85053537797201" lon="8.000880847027004"><ele>274.6666666666667</ele><time>2026-04-19T09:59:51.001Z</time></trkpt><trkpt lat="44.85054843091787" lon="8.00100929542767"><ele>274.0</ele><time>2026-04-19T09:59:53.001Z</time></trkpt><trkpt lat="44.85053433344293" lon="8.001127958026482"><ele>273.33333333333337</ele><time>2026-04-19T09:59:54.001Z</time></trkpt><trkpt lat="44.85052938101858" lon="8.001268600124627"><ele>272.6666666666667</ele><time>2026-04-19T09:59:55.001Z</time></trkpt><trkpt lat="44.850475907735536" lon="8.001363297540088"><ele>272.0</ele><time>2026-04-19T09:59:56.001Z</time></trkpt><trkpt lat="44.850416773236894" lon="8.001395996654646"><ele>272.0</ele><time>2026-04-19T09:59:57.001Z</time></trkpt><trkpt lat="44.850314174984355" lon="8.001319988643996"><ele>272.0</ele><time>2026-04-19T09:59:59Z</time></trkpt><trkpt lat="44.8502916431052" lon="8.001210102069479"><ele>272.0</ele><time>2026-04-19T10:00:00Z</time></trkpt><trkpt lat="44.85019589025017" lon="8.001052758855037"><ele>272.0</ele><time>2026-04-19T10:00:02Z</time></trkpt><trkpt lat="44.85010284745182" lon="8.000946163384603"><ele>273.0</ele><time>2026-04-19T10:00:03Z</time></trkpt><trkpt lat="44.85001320147297" lon="8.000857075829769"><ele>274.0</ele><time>2026-04-19T10:00:04Z</time></trkpt><trkpt lat="44.849883796473115" lon="8.000892263726778"><ele>275.0</ele><time>2026-04-19T10:00:05Z</time></trkpt><trkpt lat="44.84976584855002" lon="8.00092773810197"><ele>276.0</ele><time>2026-04-19T10:00:06Z</time></trkpt><trkpt lat="44.849625338609854" lon="8.000947247832384"><ele>276.0</ele><time>2026-04-19T10:00:07Z</time></trkpt><trkpt lat="44.849525448332145" lon="8.000947056804556"><ele>276.0</ele><time>2026-04-19T10:00:08Z</time></trkpt><trkpt lat="44.84941121064549" lon="8.000920520522872"><ele>276.0</ele><time>2026-04-19T10:00:09Z</time></trkpt><trkpt lat="44.84931898899887" lon="8.000917285746452"><ele>276.0</ele><time>2026-04-19T10:00:10Z</time></trkpt><trkpt lat="44.84921662072464" lon="8.000897313362012"><ele>276.0</ele><time>2026-04-19T10:00:11Z</time></trkpt><trkpt lat="44.8491396752042" lon="8.00088609565724"><ele>272.8</ele><time>2026-04-19T10:00:12Z</time></trkpt><trkpt lat="44.84906391368256" lon="8.000921350051412"><ele>269.6</ele><time>2026-04-19T10:00:13Z</time></trkpt><trkpt lat="44.849003878495445" lon="8.000993922278965"><ele>266.4</ele><time>2026-04-19T10:00:14Z</time></trkpt><trkpt lat="44.848949493392816" lon="8.001089006833634"><ele>263.2</ele><time>2026-04-19T10:00:15Z</time></trkpt><trkpt lat="44.848908232383614" lon="8.001229536833987"><ele>260.0</ele><time>2026-04-19T10:00:16Z</time></trkpt><trkpt lat="44.848842428724865" lon="8.001354166912291"><ele>260.0</ele><time>2026-04-19T10:00:17Z</time></trkpt><trkpt lat="44.84881367318057" lon="8.001463403431584"><ele>260.0</ele><time>2026-04-19T10:00:18Z</time></trkpt><trkpt lat="44.84880805189123" lon="8.001566558727564"><ele>260.0</ele><time>2026-04-19T10:00:19Z</time></trkpt><trkpt lat="44.84884063030264" lon="8.0016674633297"><ele>260.0</ele><time>2026-04-19T10:00:20Z</time></trkpt><trkpt lat="44.848957314922785" lon="8.00171916283464"><ele>260.0</ele><time>2026-04-19T10:00:21Z</time></trkpt><trkpt lat="44.84907323887534" lon="8.001749483516653"><ele>259.4</ele><time>2026-04-19T10:00:22Z</time></trkpt><trkpt lat="44.84918902419743" lon="8.001728809002403"><ele>258.8</ele><time>2026-04-19T10:00:23Z</time></trkpt><trkpt lat="44.84930325623063" lon="8.001690912313524"><ele>258.2</ele><time>2026-04-19T10:00:24Z</time></trkpt><trkpt lat="44.849391153109536" lon="8.001668367363983"><ele>257.6</ele><time>2026-04-19T10:00:25Z</time></trkpt><trkpt lat="44.849462732570274" lon="8.001683160032856"><ele>257.0</ele><time>2026-04-19T10:00:26Z</time></trkpt><trkpt lat="44.84951143879649" lon="8.00173961613772"><ele>257.0</ele><time>2026-04-19T10:00:27Z</time></trkpt><trkpt lat="44.84948579073586" lon="8.001871686768537"><ele>257.0</ele><time>2026-04-19T10:00:28Z</time></trkpt><trkpt lat="44.84941218809009" lon="8.001969686376803"><ele>257.0</ele><time>2026-04-19T10:00:29Z</time></trkpt><trkpt lat="44.84931130840495" lon="8.002019830926155"><ele>257.0</ele><time>2026-04-19T10:00:30Z</time></trkpt><trkpt lat="44.84918081909095" lon="8.002158250840521"><ele>255.8</ele><time>2026-04-19T10:00:31Z</time></trkpt><trkpt lat="44.84913472695097" lon="8.002265705023484"><ele>254.6</ele><time>2026-04-19T10:00:32Z</time></trkpt><trkpt lat="44.849125211558295" lon="8.002386590337906"><ele>253.40000000000003</ele><time>2026-04-19T10:00:33Z</time></trkpt><trkpt lat="44.84911898017252" lon="8.002539143916728"><ele>252.20000000000002</ele><time>2026-04-19T10:00:34Z</time></trkpt><trkpt lat="44.84910301871188" lon="8.002724180716003"><ele>251.0</ele><time>2026-04-19T10:00:35Z</time></trkpt><trkpt lat="44.849104904834675" lon="8.002885298118308"><ele>248.83333333333334</ele><time>2026-04-19T10:00:36Z</time></trkpt><trkpt lat="44.84909484515038" lon="8.00303252945952"><ele>246.66666666666669</ele><time>2026-04-19T10:00:37Z</time></trkpt><trkpt lat="44.84908439092473" lon="8.003158612607947"><ele>244.5</ele><time>2026-04-19T10:00:38Z</time></trkpt><trkpt lat="44.84907270437628" lon="8.003266048477046"><ele>242.33333333333331</ele><time>2026-04-19T10:00:39Z</time></trkpt><trkpt lat="44.849044184830646" lon="8.003366379615958"><ele>240.16666666666666</ele><time>2026-04-19T10:00:41Z</time></trkpt><trkpt lat="44.849022235947736" lon="8.003456527967336"><ele>238.0</ele><time>2026-04-19T10:00:48Z</time></trkpt><trkpt lat="44.849152316892116" lon="8.003565566072798"><ele>238.0</ele><time>2026-04-19T10:00:50Z</time></trkpt><trkpt lat="44.84925050591628" lon="8.003627748500685"><ele>238.0</ele><time>2026-04-19T10:00:51Z</time></trkpt><trkpt lat="44.84937073091711" lon="8.003695184984371"><ele>238.0</ele><time>2026-04-19T10:00:52Z</time></trkpt><trkpt lat="44.84949683767407" lon="8.00374376692152"><ele>238.0</ele><time>2026-04-19T10:00:53Z</time></trkpt><trkpt lat="44.84959815741771" lon="8.003798243100766"><ele>237.0</ele><time>2026-04-19T10:00:54Z</time></trkpt><trkpt lat="44.84967825155466" lon="8.003897590448338"><ele>236.0</ele><time>2026-04-19T10:00:55Z</time></trkpt><trkpt lat="44.849790128531026" lon="8.003960817837422"><ele>235.0</ele><time>2026-04-19T10:00:56Z</time></trkpt><trkpt lat="44.84991001500039" lon="8.004016183053455"><ele>234.0</ele><time>2026-04-19T10:00:57Z</time></trkpt><trkpt lat="44.85002509634537" lon="8.004062787589573"><ele>234.0</ele><time>2026-04-19T10:00:58Z</time></trkpt><trkpt lat="44.85012224385573" lon="8.004086109474107"><ele>233.99999999999997</ele><time>2026-04-19T10:00:59Z</time></trkpt><trkpt lat="44.850190648516104" lon="8.004140197852664"><ele>233.99999999999997</ele><time>2026-04-19T10:01:00Z</time></trkpt><trkpt lat="44.850249254134326" lon="8.004184826616079"><ele>234.0</ele><time>2026-04-19T10:01:01Z</time></trkpt><trkpt lat="44.850153733933595" lon="8.00428002566781"><ele>234.0</ele><time>2026-04-19T10:01:04Z</time></trkpt><trkpt lat="44.850062283402195" lon="8.004337006106551"><ele>235.0</ele><time>2026-04-19T10:01:05Z</time></trkpt><trkpt lat="44.849952847790114" lon="8.004415158591652"><ele>236.0</ele><time>2026-04-19T10:01:06Z</time></trkpt><trkpt lat="44.849845371515045" lon="8.004497461286174"><ele>237.0</ele><time>2026-04-19T10:01:07Z</time></trkpt><trkpt lat="44.849730621073704" lon="8.004592644481884"><ele>238.0</ele><time>2026-04-19T10:01:08Z</time></trkpt><trkpt lat="44.849619793952954" lon="8.004692891295042"><ele>238.0</ele><time>2026-04-19T10:01:09Z</time></trkpt><trkpt lat="44.84949760237391" lon="8.004796575755682"><ele>238.0</ele><time>2026-04-19T10:01:10Z</time></trkpt><trkpt lat="44.849385013765094" lon="8.004914346392892"><ele>238.0</ele><time>2026-04-19T10:01:11Z</time></trkpt><trkpt lat="44.8492814205163" lon="8.00505816317159"><ele>238.0</ele><time>2026-04-19T10:01:12Z</time></trkpt><trkpt lat="44.849160654638084" lon="8.00518234982244"><ele>240.25</ele><time>2026-04-19T10:01:13Z</time></trkpt><trkpt lat="44.849046424678974" lon="8.005314592398001"><ele>242.5</ele><time>2026-04-19T10:01:14Z</time></trkpt><trkpt lat="44.84891210494934" lon="8.005444628067341"><ele>244.75</ele><time>2026-04-19T10:01:15Z</time></trkpt><trkpt lat="44.848814745359185" lon="8.005577607458308"><ele>247.0</ele><time>2026-04-19T10:01:16Z</time></trkpt><trkpt lat="44.84871057678069" lon="8.005680266776253"><ele>247.0</ele><time>2026-04-19T10:01:17Z</time></trkpt><trkpt lat="44.84860072960971" lon="8.005760168016224"><ele>247.0</ele><time>2026-04-19T10:01:18Z</time></trkpt><trkpt lat="44.84847028733094" lon="8.005809468555901"><ele>247.0</ele><time>2026-04-19T10:01:19Z</time></trkpt><trkpt lat="44.848356583314896" lon="8.00585644818535"><ele>247.0</ele><time>2026-04-19T10:01:20Z</time></trkpt><trkpt lat="44.84823230637943" lon="8.005913379388213"><ele>246.25</ele><time>2026-04-19T10:01:21Z</time></trkpt><trkpt lat="44.84811754365229" lon="8.005995017179862"><ele>245.5</ele><time>2026-04-19T10:01:22Z</time></trkpt><trkpt lat="44.84801904894986" lon="8.00609769708154"><ele>244.75</ele><time>2026-04-19T10:01:23.001Z</time></trkpt><trkpt lat="44.847939792540316" lon="8.006229550886632"><ele>244.0</ele><time>2026-04-19T10:01:24.001Z</time></trkpt><trkpt lat="44.847868236153865" lon="8.006364041436575"><ele>244.0</ele><time>2026-04-19T10:01:25.001Z</time></trkpt><trkpt lat="44.84781269979673" lon="8.006514756167238"><ele>244.0</ele><time>2026-04-19T10:01:26.001Z</time></trkpt><trkpt lat="44.84776874171183" lon="8.006676836500091"><ele>244.0</ele><time>2026-04-19T10:01:27.001Z</time></trkpt><trkpt lat="44.847735283093826" lon="8.006843733375739"><ele>244.0</ele><time>2026-04-19T10:01:28.001Z</time></trkpt><trkpt lat="44.847703285743" lon="8.007019128522728"><ele>245.39999999999998</ele><time>2026-04-19T10:01:29.001Z</time></trkpt><trkpt lat="44.847669507335326" lon="8.007188319285413"><ele>246.79999999999998</ele><time>2026-04-19T10:01:30.001Z</time></trkpt><trkpt lat="44.8476221997079" lon="8.007349207092192"><ele>248.20000000000002</ele><time>2026-04-19T10:01:31.001Z</time></trkpt><trkpt lat="44.84757930045277" lon="8.007475740118764"><ele>249.60000000000002</ele><time>2026-04-19T10:01:32.001Z</time></trkpt><trkpt lat="44.84753802194951" lon="8.007576035828857"><ele>251.0</ele><time>2026-04-19T10:01:33.001Z</time></trkpt><trkpt lat="44.84750283518362" lon="8.007671334234914"><ele>253.5</ele><time>2026-04-19T10:01:35.001Z</time></trkpt><trkpt lat="44.847662521426535" lon="8.00785537212585"><ele>256.0</ele><time>2026-04-19T10:01:37.001Z</time></trkpt><trkpt lat="44.84774185841315" lon="8.00793748276846"><ele>258.5</ele><time>2026-04-19T10:01:38.001Z</time></trkpt><trkpt lat="44.84781207685167" lon="8.008018075604559"><ele>261.0</ele><time>2026-04-19T10:01:39.001Z</time></trkpt><trkpt lat="44.84785968156541" lon="8.008114119160613"><ele>261.0</ele><time>2026-04-19T10:01:40.001Z</time></trkpt><trkpt lat="44.84790183744978" lon="8.008219764007517"><ele>261.0</ele><time>2026-04-19T10:01:41.001Z</time></trkpt><trkpt lat="44.84796185493834" lon="8.008329774322481"><ele>261.0</ele><time>2026-04-19T10:01:42.001Z</time></trkpt><trkpt lat="44.84802227584392" lon="8.008494958225649"><ele>261.0</ele><time>2026-04-19T10:01:43.001Z</time></trkpt><trkpt lat="44.84811954615992" lon="8.008613471586225"><ele>261.0</ele><time>2026-04-19T10:01:44.001Z</time></trkpt><trkpt lat="44.84819642411446" lon="8.008691239741475"><ele>261.8</ele><time>2026-04-19T10:01:45.001Z</time></trkpt><trkpt lat="44.84823856008005" lon="8.008827666329628"><ele>262.6</ele><time>2026-04-19T10:01:46.001Z</time></trkpt><trkpt lat="44.848290955571166" lon="8.00892785855915"><ele>263.4</ele><time>2026-04-19T10:01:47.001Z</time></trkpt><trkpt lat="44.84834802875642" lon="8.009002054914278"><ele>264.2</ele><time>2026-04-19T10:01:48.001Z</time></trkpt><trkpt lat="44.84844272259742" lon="8.008901950400526"><ele>265.0</ele><time>2026-04-19T10:01:49.001Z</time></trkpt><trkpt lat="44.848487415275564" lon="8.008703407739919"><ele>269.0</ele><time>2026-04-19T10:01:52.001Z</time></trkpt><trkpt lat="44.84854952928507" lon="8.008652773477671"><ele>273.0</ele><time>2026-04-19T10:01:53.001Z</time></trkpt><trkpt lat="44.848613001156366" lon="8.008640297341385"><ele>277.0</ele><time>2026-04-19T10:01:54.001Z</time></trkpt><trkpt lat="44.84866567094007" lon="8.008708211532852"><ele>281.0</ele><time>2026-04-19T10:01:55.001Z</time></trkpt><trkpt lat="44.848643520978136" lon="8.008807607860495"><ele>285.0</ele><time>2026-04-19T10:01:56.001Z</time></trkpt><trkpt lat="44.848578201665845" lon="8.00892429969205"><ele>289.0</ele><time>2026-04-19T10:01:57.001Z</time></trkpt><trkpt lat="44.84850024414867" lon="8.009016193502369"><ele>288.8333333333333</ele><time>2026-04-19T10:01:58.001Z</time></trkpt><trkpt lat="44.84845298190591" lon="8.009089319500232"><ele>288.66666666666663</ele><time>2026-04-19T10:01:59.001Z</time></trkpt><trkpt lat="44.84847361658184" lon="8.009209011426664"><ele>288.5</ele><time>2026-04-19T10:02:00.001Z</time></trkpt><trkpt lat="44.84852435258498" lon="8.009323556386548"><ele>288.3333333333333</ele><time>2026-04-19T10:02:01.001Z</time></trkpt><trkpt lat="44.8485978270192" lon="8.009426426862754"><ele>288.1666666666667</ele><time>2026-04-19T10:02:02.001Z</time></trkpt><trkpt lat="44.84863376012011" lon="8.009539335748688"><ele>288.0</ele><time>2026-04-19T10:02:03.001Z</time></trkpt><trkpt lat="44.84872452415292" lon="8.009607806576287"><ele>288.0</ele><time>2026-04-19T10:02:04Z</time></trkpt><trkpt lat="44.848822040465905" lon="8.009655556573742"><ele>288.0</ele><time>2026-04-19T10:02:05Z</time></trkpt><trkpt lat="44.84889130165316" lon="8.009656058447465"><ele>288.0</ele><time>2026-04-19T10:02:06Z</time></trkpt><trkpt lat="44.848944359637684" lon="8.00958203848377"><ele>288.0</ele><time>2026-04-19T10:02:07Z</time></trkpt><trkpt lat="44.84903024330196" lon="8.00948550130767"><ele>288.0</ele><time>2026-04-19T10:02:08Z</time></trkpt><trkpt lat="44.84909715684208" lon="8.00940591567309"><ele>288.0</ele><time>2026-04-19T10:02:09Z</time></trkpt><trkpt lat="44.84916626977845" lon="8.009331048643382"><ele>288.0</ele><time>2026-04-19T10:02:10Z</time></trkpt><trkpt lat="44.849245877423904" lon="8.00931090778303"><ele>288.0</ele><time>2026-04-19T10:02:11Z</time></trkpt><trkpt lat="44.849319453506325" lon="8.00929473166418"><ele>288.0</ele><time>2026-04-19T10:02:12Z</time></trkpt><trkpt lat="44.84935697232561" lon="8.009389658526587"><ele>288.0</ele><time>2026-04-19T10:02:13Z</time></trkpt><trkpt lat="44.84937508045127" lon="8.009532566856024"><ele>288.0</ele><time>2026-04-19T10:02:14Z</time></trkpt><trkpt lat="44.84946629933091" lon="8.009545015539999"><ele>288.0</ele><time>2026-04-19T10:02:15Z</time></trkpt><trkpt lat="44.8495459911414" lon="8.009543651697575"><ele>288.4</ele><time>2026-04-19T10:02:16Z</time></trkpt><trkpt lat="44.84960904638104" lon="8.009503827150477"><ele>288.8</ele><time>2026-04-19T10:02:17Z</time></trkpt><trkpt lat="44.84970578227802" lon="8.009479536274696"><ele>289.2</ele><time>2026-04-19T10:02:18Z</time></trkpt><trkpt lat="44.849807375242854" lon="8.009440940239237"><ele>289.6</ele><time>2026-04-19T10:02:19Z</time></trkpt><trkpt lat="44.84990619311158" lon="8.009343131282309"><ele>290.0</ele><time>2026-04-19T10:02:20Z</time></trkpt><trkpt lat="44.84996995552159" lon="8.009258064443522"><ele>290.0</ele><time>2026-04-19T10:02:21Z</time></trkpt><trkpt lat="44.85001537048168" lon="8.00917669722209"><ele>290.0</ele><time>2026-04-19T10:02:22Z</time></trkpt><trkpt lat="44.849924962446124" lon="8.009011112366398"><ele>290.0</ele><time>2026-04-19T10:02:23Z</time></trkpt><trkpt lat="44.84992049872318" lon="8.008902890593744"><ele>290.0</ele><time>2026-04-19T10:02:24Z</time></trkpt><trkpt lat="44.849924125568094" lon="8.00877240411328"><ele>290.0</ele><time>2026-04-19T10:02:25Z</time></trkpt><trkpt lat="44.84993582650484" lon="8.008632407739132"><ele>290.0</ele><time>2026-04-19T10:02:26Z</time></trkpt><trkpt lat="44.84994238397825" lon="8.008510749488286"><ele>290.0</ele><time>2026-04-19T10:02:27Z</time></trkpt><trkpt lat="44.84996104349159" lon="8.008386858129008"><ele>290.0</ele><time>2026-04-19T10:02:28Z</time></trkpt><trkpt lat="44.84997302865765" lon="8.008276149608827"><ele>290.0</ele><time>2026-04-19T10:02:29Z</time></trkpt><trkpt lat="44.85003694150335" lon="8.008211357807586"><ele>290.0</ele><time>2026-04-19T10:02:30Z</time></trkpt><trkpt lat="44.850191885968336" lon="8.008330562094892"><ele>290.0</ele><time>2026-04-19T10:02:31Z</time></trkpt><trkpt lat="44.85029280030821" lon="8.008323828628454"><ele>290.0</ele><time>2026-04-19T10:02:32Z</time></trkpt><trkpt lat="44.85037617525318" lon="8.008353679260209"><ele>290.0</ele><time>2026-04-19T10:02:33Z</time></trkpt><trkpt lat="44.85046985366268" lon="8.008345705284347"><ele>290.0</ele><time>2026-04-19T10:02:34Z</time></trkpt><trkpt lat="44.85055758776147" lon="8.008319089028603"><ele>290.0</ele><time>2026-04-19T10:02:35Z</time></trkpt><trkpt lat="44.850634421460136" lon="8.008294431949022"><ele>290.0</ele><time>2026-04-19T10:02:36Z</time></trkpt><trkpt lat="44.85076990634561" lon="8.008280530033893"><ele>288.0</ele><time>2026-04-19T10:02:37Z</time></trkpt><trkpt lat="44.85087194555536" lon="8.008277538440607"><ele>286.0</ele><time>2026-04-19T10:02:38Z</time></trkpt><trkpt lat="44.85096442741795" lon="8.00824856647101"><ele>284.0</ele><time>2026-04-19T10:02:39Z</time></trkpt><trkpt lat="44.85105989928139" lon="8.008214029883733"><ele>282.0</ele><time>2026-04-19T10:02:40Z</time></trkpt><trkpt lat="44.85117251190109" lon="8.008162726278092"><ele>280.0</ele><time>2026-04-19T10:02:41Z</time></trkpt><trkpt lat="44.851259969328936" lon="8.00813835624624"><ele>280.0</ele><time>2026-04-19T10:02:42Z</time></trkpt><trkpt lat="44.851412813964394" lon="8.008049183206873"><ele>280.0</ele><time>2026-04-19T10:02:43Z</time></trkpt><trkpt lat="44.85159983971549" lon="8.007992116341596"><ele>280.0</ele><time>2026-04-19T10:02:44Z</time></trkpt><trkpt lat="44.85170810882795" lon="8.007946097191107"><ele>279.0</ele><time>2026-04-19T10:02:45Z</time></trkpt><trkpt lat="44.85179448892581" lon="8.00790922817356"><ele>278.0</ele><time>2026-04-19T10:02:46Z</time></trkpt><trkpt lat="44.85188738381869" lon="8.007876502132621"><ele>277.0</ele><time>2026-04-19T10:02:47Z</time></trkpt><trkpt lat="44.85196945587017" lon="8.007851077860556"><ele>276.0</ele><time>2026-04-19T10:02:48Z</time></trkpt><trkpt lat="44.852005161980124" lon="8.007965537657928"><ele>275.0</ele><time>2026-04-19T10:02:52Z</time></trkpt><trkpt lat="44.852073828249424" lon="8.008028974944118"><ele>274.0</ele><time>2026-04-19T10:02:54Z</time></trkpt><trkpt lat="44.85217125513007" lon="8.008007050012141"><ele>274.0</ele><time>2026-04-19T10:02:56Z</time></trkpt><trkpt lat="44.852245753554726" lon="8.007960857115128"><ele>274.0</ele><time>2026-04-19T10:02:58Z</time></trkpt><trkpt lat="44.852349180441124" lon="8.008010977590898"><ele>274.0</ele><time>2026-04-19T10:03:00Z</time></trkpt><trkpt lat="44.852415711557796" lon="8.008055501908203"><ele>274.0</ele><time>2026-04-19T10:03:01Z</time></trkpt><trkpt lat="44.85248655414826" lon="8.008084055823288"><ele>274.0</ele><time>2026-04-19T10:03:02Z</time></trkpt><trkpt lat="44.85254074296139" lon="8.008133543446132"><ele>274.0</ele><time>2026-04-19T10:03:03Z</time></trkpt><trkpt lat="44.85260885999689" lon="8.008178177154287"><ele>275.0</ele><time>2026-04-19T10:03:04Z</time></trkpt><trkpt lat="44.8526813721381" lon="8.008219006590231"><ele>276.0</ele><time>2026-04-19T10:03:05Z</time></trkpt><trkpt lat="44.85274602272073" lon="8.008282684852867"><ele>277.0</ele><time>2026-04-19T10:03:06Z</time></trkpt><trkpt lat="44.85280619683152" lon="8.008335627111572"><ele>278.0</ele><time>2026-04-19T10:03:07Z</time></trkpt><trkpt lat="44.85284753483783" lon="8.008423358472157"><ele>279.0</ele><time>2026-04-19T10:03:08Z</time></trkpt><trkpt lat="44.852919139196075" lon="8.008539348462401"><ele>280.0</ele><time>2026-04-19T10:03:10Z</time></trkpt><trkpt lat="44.85293655256796" lon="8.008670564918559"><ele>280.0</ele><time>2026-04-19T10:03:11Z</time></trkpt><trkpt lat="44.85300222322151" lon="8.008658088638994"><ele>280.0</ele><time>2026-04-19T10:03:13Z</time></trkpt><trkpt lat="44.85311325987803" lon="8.008638344360023"><ele>280.0</ele><time>2026-04-19T10:03:15Z</time></trkpt><trkpt lat="44.85320480875149" lon="8.008673740046378"><ele>280.0</ele><time>2026-04-19T10:03:16Z</time></trkpt><trkpt lat="44.853305111854404" lon="8.00869905992342"><ele>280.0</ele><time>2026-04-19T10:03:17Z</time></trkpt><trkpt lat="44.853384430419986" lon="8.008710880079033"><ele>281.3333333333333</ele><time>2026-04-19T10:03:18Z</time></trkpt><trkpt lat="44.85347352057919" lon="8.008644349238935"><ele>282.66666666666663</ele><time>2026-04-19T10:03:20Z</time></trkpt><trkpt lat="44.85354012077453" lon="8.008573276200169"><ele>284.0</ele><time>2026-04-19T10:03:21Z</time></trkpt><trkpt lat="44.853608322290086" lon="8.008518683155543"><ele>285.3333333333333</ele><time>2026-04-19T10:03:22Z</time></trkpt><trkpt lat="44.853562369544015" lon="8.008391816580591"><ele>286.6666666666667</ele><time>2026-04-19T10:03:24Z</time></trkpt><trkpt lat="44.85358339955112" lon="8.008274794758755"><ele>288.0</ele><time>2026-04-19T10:03:26.001Z</time></trkpt><trkpt lat="44.85365281252817" lon="8.00823422959596"><ele>284.4</ele><time>2026-04-19T10:03:28.001Z</time></trkpt><trkpt lat="44.853707107036435" lon="8.00828727508459"><ele>280.8</ele><time>2026-04-19T10:03:30.001Z</time></trkpt><trkpt lat="44.85380935754901" lon="8.008137318215361"><ele>277.2</ele><time>2026-04-19T10:03:32.001Z</time></trkpt><trkpt lat="44.853885273282295" lon="8.008026602615056"><ele>273.6</ele><time>2026-04-19T10:03:34.001Z</time></trkpt><trkpt lat="44.85394555568196" lon="8.007977934613722"><ele>270.0</ele><time>2026-04-19T10:03:35.001Z</time></trkpt><trkpt lat="44.85401584735698" lon="8.008009325401149"><ele>270.0</ele><time>2026-04-19T10:03:38.001Z</time></trkpt><trkpt lat="44.854030045306985" lon="8.008102042519933"><ele>270.0</ele><time>2026-04-19T10:03:39.001Z</time></trkpt><trkpt lat="44.85407530357157" lon="8.00822598265515"><ele>270.0</ele><time>2026-04-19T10:03:41.001Z</time></trkpt><trkpt lat="44.85413100863654" lon="8.008376867216752"><ele>270.0</ele><time>2026-04-19T10:03:43.001Z</time></trkpt><trkpt lat="44.85418091683295" lon="8.00843151893782"><ele>270.0</ele><time>2026-04-19T10:03:44.001Z</time></trkpt><trkpt lat="44.85422146294056" lon="8.00850845616097"><ele>270.0</ele><time>2026-04-19T10:03:47.001Z</time></trkpt><trkpt lat="44.85424714210286" lon="8.00860511969184"><ele>269.5</ele><time>2026-04-19T10:03:50.001Z</time></trkpt><trkpt lat="44.85428263226254" lon="8.008700813950018"><ele>269.0</ele><time>2026-04-19T10:03:52.001Z</time></trkpt><trkpt lat="44.85437083808958" lon="8.008683516619294"><ele>268.5</ele><time>2026-04-19T10:03:55.001Z</time></trkpt><trkpt lat="44.854423696271795" lon="8.008617183895485"><ele>268.0</ele><time>2026-04-19T10:03:57.001Z</time></trkpt><trkpt lat="44.854493227623685" lon="8.008585168838623"><ele>267.5</ele><time>2026-04-19T10:03:59.001Z</time></trkpt><trkpt lat="44.85455155408424" lon="8.008520257643482"><ele>267.0</ele><time>2026-04-19T10:04:01.001Z</time></trkpt><trkpt lat="44.85460050926344" lon="8.008425310954582"><ele>267.0</ele><time>2026-04-19T10:04:03.001Z</time></trkpt><trkpt lat="44.85467922205068" lon="8.00838726491249"><ele>267.0</ele><time>2026-04-19T10:04:05.001Z</time></trkpt><trkpt lat="44.85476048194343" lon="8.008367191065782"><ele>267.0</ele><time>2026-04-19T10:04:08.001Z</time></trkpt><trkpt lat="44.85484703455943" lon="8.00832990918089"><ele>267.0</ele><time>2026-04-19T10:04:11Z</time></trkpt><trkpt lat="44.85491381958931" lon="8.00839832653163"><ele>267.0</ele><time>2026-04-19T10:04:33Z</time></trkpt><trkpt lat="44.85498779849844" lon="8.008368792384788"><ele>267.0</ele><time>2026-04-19T10:04:35Z</time></trkpt><trkpt lat="44.85506645468784" lon="8.008312128429163"><ele>263.6666666666667</ele><time>2026-04-19T10:04:37Z</time></trkpt><trkpt lat="44.85512264112095" lon="8.008258792963135"><ele>260.3333333333333</ele><time>2026-04-19T10:04:38Z</time></trkpt><trkpt lat="44.85517846800821" lon="8.008190162375097"><ele>257.0</ele><time>2026-04-19T10:04:39Z</time></trkpt><trkpt lat="44.85523851481809" lon="8.008151388638272"><ele>253.66666666666666</ele><time>2026-04-19T10:04:40Z</time></trkpt><trkpt lat="44.8553528663684" lon="8.008091008601122"><ele>250.33333333333331</ele><time>2026-04-19T10:04:42Z</time></trkpt><trkpt lat="44.855406783743895" lon="8.00803082358734"><ele>247.0</ele><time>2026-04-19T10:04:45Z</time></trkpt><trkpt lat="44.85546804603076" lon="8.007932625849046"><ele>246.99999999999997</ele><time>2026-04-19T10:04:48Z</time></trkpt><trkpt lat="44.85547088254084" lon="8.007820270447372"><ele>247.0</ele><time>2026-04-19T10:04:52Z</time></trkpt><trkpt lat="44.855497710454465" lon="8.007710054127998"><ele>247.0</ele><time>2026-04-19T10:04:55Z</time></trkpt><trkpt lat="44.85550029090108" lon="8.007605644001186"><ele>247.0</ele><time>2026-04-19T10:04:58Z</time></trkpt><trkpt lat="44.855552132048196" lon="8.007535762632267"><ele>246.99999999999997</ele><time>2026-04-19T10:04:59Z</time></trkpt><trkpt lat="44.85559228576051" lon="8.007456372330061"><ele>247.0</ele><time>2026-04-19T10:05:00Z</time></trkpt><trkpt lat="44.85563511749009" lon="8.007334265768405"><ele>245.2</ele><time>2026-04-19T10:05:02Z</time></trkpt><trkpt lat="44.85570718067046" lon="8.007212727255071"><ele>243.39999999999998</ele><time>2026-04-19T10:05:04Z</time></trkpt><trkpt lat="44.855655812360204" lon="8.007284737267383"><ele>241.60000000000002</ele><time>2026-04-19T10:05:05Z</time></trkpt><trkpt lat="44.8557261303535" lon="8.00714652737763"><ele>239.8</ele><time>2026-04-19T10:05:08Z</time></trkpt><trkpt lat="44.85582270945749" lon="8.007147161075864"><ele>238.0</ele><time>2026-04-19T10:05:09Z</time></trkpt><trkpt lat="44.85590858886411" lon="8.007119083082758"><ele>235.33333333333331</ele><time>2026-04-19T10:05:11Z</time></trkpt><trkpt lat="44.85618877073809" lon="8.007123597818305"><ele>232.66666666666669</ele><time>2026-04-19T10:05:19Z</time></trkpt><trkpt lat="44.8562224742023" lon="8.007274754842348"><ele>230.0</ele><time>2026-04-19T10:05:20Z</time></trkpt><trkpt lat="44.85627698136332" lon="8.007392802498662"><ele>231.75</ele><time>2026-04-19T10:05:21Z</time></trkpt><trkpt lat="44.856300702298036" lon="8.007584849765928"><ele>233.5</ele><time>2026-04-19T10:05:22Z</time></trkpt><trkpt lat="44.856315604161516" lon="8.007776887787237"><ele>235.25</ele><time>2026-04-19T10:05:23Z</time></trkpt><trkpt lat="44.85632931482749" lon="8.007920354979525"><ele>237.0</ele><time>2026-04-19T10:05:24Z</time></trkpt><trkpt lat="44.85634526388037" lon="8.008107484673996"><ele>237.0</ele><time>2026-04-19T10:05:25Z</time></trkpt><trkpt lat="44.856369185240446" lon="8.008239372982851"><ele>237.0</ele><time>2026-04-19T10:05:26Z</time></trkpt><trkpt lat="44.85636590521659" lon="8.008358764522388"><ele>237.0</ele><time>2026-04-19T10:05:27Z</time></trkpt><trkpt lat="44.85637262710245" lon="8.008458097803702"><ele>237.0</ele><time>2026-04-19T10:05:28Z</time></trkpt><trkpt lat="44.85633175589407" lon="8.00861827542472"><ele>237.0</ele><time>2026-04-19T10:05:29Z</time></trkpt><trkpt lat="44.85630565377316" lon="8.008741829753978"><ele>239.33333333333334</ele><time>2026-04-19T10:05:30Z</time></trkpt><trkpt lat="44.85627861225296" lon="8.00888041665146"><ele>241.66666666666669</ele><time>2026-04-19T10:05:32.001Z</time></trkpt><trkpt lat="44.856260112576045" lon="8.00898101608385"><ele>244.0</ele><time>2026-04-19T10:05:33.001Z</time></trkpt><trkpt lat="44.8562353161679" lon="8.009147810619737"><ele>246.33333333333334</ele><time>2026-04-19T10:05:35.001Z</time></trkpt><trkpt lat="44.8562475317516" lon="8.009238316355939"><ele>248.66666666666669</ele><time>2026-04-19T10:05:37.001Z</time></trkpt><trkpt lat="44.85632504986019" lon="8.009183601994673"><ele>251.0</ele><time>2026-04-19T10:05:38.001Z</time></trkpt><trkpt lat="44.85638396813549" lon="8.009101046500398"><ele>251.0</ele><time>2026-04-19T10:05:39.001Z</time></trkpt><trkpt lat="44.85646258984324" lon="8.008948420550219"><ele>251.00000000000003</ele><time>2026-04-19T10:05:41.001Z</time></trkpt><trkpt lat="44.85653528986724" lon="8.008833223229962"><ele>251.00000000000003</ele><time>2026-04-19T10:05:43.001Z</time></trkpt><trkpt lat="44.85651955841805" lon="8.008727815020599"><ele>251.0</ele><time>2026-04-19T10:05:44.001Z</time></trkpt><trkpt lat="44.85654607046826" lon="8.008628382489446"><ele>251.0</ele><time>2026-04-19T10:05:45.001Z</time></trkpt><trkpt lat="44.856595849098234" lon="8.008572811532503"><ele>251.00000000000003</ele><time>2026-04-19T10:05:46.001Z</time></trkpt><trkpt lat="44.856667482133794" lon="8.008522141126665"><ele>251.0</ele><time>2026-04-19T10:05:47.001Z</time></trkpt><trkpt lat="44.85672255973866" lon="8.00845959398162"><ele>251.0</ele><time>2026-04-19T10:05:48.001Z</time></trkpt><trkpt lat="44.856777653991216" lon="8.00837961322135"><ele>251.0</ele><time>2026-04-19T10:05:49.001Z</time></trkpt><trkpt lat="44.85683982252818" lon="8.008313489675736"><ele>251.00000000000003</ele><time>2026-04-19T10:05:50.001Z</time></trkpt><trkpt lat="44.8569137563945" lon="8.008188585972166"><ele>251.0</ele><time>2026-04-19T10:05:52.001Z</time></trkpt><trkpt lat="44.85698067328266" lon="8.008236182462397"><ele>249.60000000000002</ele><time>2026-04-19T10:05:55.001Z</time></trkpt><trkpt lat="44.857056894014164" lon="8.008332117318142"><ele>248.20000000000002</ele><time>2026-04-19T10:05:58.001Z</time></trkpt><trkpt lat="44.857031961663345" lon="8.008440947479778"><ele>246.79999999999998</ele><time>2026-04-19T10:05:59.001Z</time></trkpt><trkpt lat="44.85696650269998" lon="8.008598176862275"><ele>245.39999999999998</ele><time>2026-04-19T10:06:00.001Z</time></trkpt><trkpt lat="44.85689916016211" lon="8.008643630165054"><ele>244.0</ele><time>2026-04-19T10:06:01.001Z</time></trkpt><trkpt lat="44.856861915523254" lon="8.00873921795709"><ele>243.99999999999997</ele><time>2026-04-19T10:06:02.001Z</time></trkpt><trkpt lat="44.85683874585263" lon="8.00883801957175"><ele>244.0</ele><time>2026-04-19T10:06:03.001Z</time></trkpt><trkpt lat="44.856802721717216" lon="8.008929090288209"><ele>243.99999999999997</ele><time>2026-04-19T10:06:04.001Z</time></trkpt><trkpt lat="44.85677752207533" lon="8.009013918240676"><ele>243.99999999999997</ele><time>2026-04-19T10:06:05.001Z</time></trkpt><trkpt lat="44.85673155747311" lon="8.009115847502095"><ele>244.0</ele><time>2026-04-19T10:06:06.001Z</time></trkpt><trkpt lat="44.85670034229184" lon="8.009197656388121"><ele>243.99999999999997</ele><time>2026-04-19T10:06:07.001Z</time></trkpt><trkpt lat="44.8566973850673" lon="8.009312496390722"><ele>243.99999999999997</ele><time>2026-04-19T10:06:08.001Z</time></trkpt><trkpt lat="44.856697351398665" lon="8.009476599402038"><ele>246.16666666666666</ele><time>2026-04-19T10:06:10.001Z</time></trkpt><trkpt lat="44.85673288667718" lon="8.00963326307283"><ele>248.33333333333331</ele><time>2026-04-19T10:06:12.001Z</time></trkpt><trkpt lat="44.856764032900074" lon="8.009731361273781"><ele>250.5</ele><time>2026-04-19T10:06:13.001Z</time></trkpt><trkpt lat="44.856791309167924" lon="8.009835528433246"><ele>252.66666666666669</ele><time>2026-04-19T10:06:14.001Z</time></trkpt><trkpt lat="44.856804576428395" lon="8.009946368242803"><ele>254.83333333333334</ele><time>2026-04-19T10:06:15.001Z</time></trkpt><trkpt lat="44.85676859895333" lon="8.010047855617318"><ele>257.0</ele><time>2026-04-19T10:06:16Z</time></trkpt><trkpt lat="44.856752087112035" lon="8.010139688457768"><ele>259.33333333333337</ele><time>2026-04-19T10:06:17Z</time></trkpt><trkpt lat="44.856723691831064" lon="8.01023161433689"><ele>261.6666666666667</ele><time>2026-04-19T10:06:18Z</time></trkpt><trkpt lat="44.85667742025129" lon="8.010352698517657"><ele>264.0</ele><time>2026-04-19T10:06:19Z</time></trkpt><trkpt lat="44.856642679739956" lon="8.010465742615544"><ele>266.3333333333333</ele><time>2026-04-19T10:06:20Z</time></trkpt><trkpt lat="44.8565966222129" lon="8.010576362943432"><ele>268.66666666666663</ele><time>2026-04-19T10:06:21Z</time></trkpt><trkpt lat="44.85656015141716" lon="8.010681403949436"><ele>271.0</ele><time>2026-04-19T10:06:22Z</time></trkpt><trkpt lat="44.856539485449275" lon="8.01077728413553"><ele>271.66666666666663</ele><time>2026-04-19T10:06:23Z</time></trkpt><trkpt lat="44.856501038230995" lon="8.010850255719559"><ele>272.3333333333333</ele><time>2026-04-19T10:06:24Z</time></trkpt><trkpt lat="44.856558554305565" lon="8.010940049597776"><ele>273.0</ele><time>2026-04-19T10:06:27Z</time></trkpt><trkpt lat="44.85660405222278" lon="8.01101383985016"><ele>273.6666666666667</ele><time>2026-04-19T10:06:28Z</time></trkpt><trkpt lat="44.856663209903346" lon="8.011106632562395"><ele>274.33333333333337</ele><time>2026-04-19T10:06:29Z</time></trkpt><trkpt lat="44.85673928966248" lon="8.01122756246481"><ele>275.0</ele><time>2026-04-19T10:06:30Z</time></trkpt><trkpt lat="44.85680673538222" lon="8.011349412782383"><ele>275.5</ele><time>2026-04-19T10:06:31Z</time></trkpt><trkpt lat="44.85686947476099" lon="8.011477373849882"><ele>276.0</ele><time>2026-04-19T10:06:32Z</time></trkpt><trkpt lat="44.856929032920014" lon="8.011564521894483"><ele>276.5</ele><time>2026-04-19T10:06:33Z</time></trkpt><trkpt lat="44.85703968470508" lon="8.011699631627948"><ele>277.0</ele><time>2026-04-19T10:06:35Z</time></trkpt><trkpt lat="44.85716343619282" lon="8.011727559591383"><ele>275.2</ele><time>2026-04-19T10:06:37Z</time></trkpt><trkpt lat="44.85724457000089" lon="8.011738645297728"><ele>273.4</ele><time>2026-04-19T10:06:38Z</time></trkpt><trkpt lat="44.85733764493208" lon="8.011733552625188"><ele>271.6</ele><time>2026-04-19T10:06:39Z</time></trkpt><trkpt lat="44.85742177121796" lon="8.011746774008142"><ele>269.8</ele><time>2026-04-19T10:06:40Z</time></trkpt><trkpt lat="44.85752778794889" lon="8.011705020450377"><ele>268.0</ele><time>2026-04-19T10:06:41Z</time></trkpt><trkpt lat="44.85762736277605" lon="8.011705891082098"><ele>266.2</ele><time>2026-04-19T10:06:42Z</time></trkpt><trkpt lat="44.857721373244374" lon="8.011628264533202"><ele>264.4</ele><time>2026-04-19T10:06:43Z</time></trkpt><trkpt lat="44.857841139929164" lon="8.011604237967072"><ele>262.59999999999997</ele><time>2026-04-19T10:06:45Z</time></trkpt><trkpt lat="44.857925690095605" lon="8.01162344463343"><ele>260.8</ele><time>2026-04-19T10:06:46Z</time></trkpt><trkpt lat="44.85800058277992" lon="8.011646074540208"><ele>259.0</ele><time>2026-04-19T10:06:47Z</time></trkpt><trkpt lat="44.85805439343727" lon="8.01170636190776"><ele>259.0</ele><time>2026-04-19T10:06:48Z</time></trkpt><trkpt lat="44.858121244815045" lon="8.011721575245831"><ele>259.0</ele><time>2026-04-19T10:06:49Z</time></trkpt><trkpt lat="44.85820188948372" lon="8.01166606644039"><ele>259.0</ele><time>2026-04-19T10:06:50Z</time></trkpt><trkpt lat="44.85827021116446" lon="8.01160662184449"><ele>259.0</ele><time>2026-04-19T10:06:51Z</time></trkpt><trkpt lat="44.858375337484695" lon="8.011525569864396"><ele>259.0</ele><time>2026-04-19T10:06:52Z</time></trkpt><trkpt lat="44.85845205370985" lon="8.01146699710169"><ele>259.0</ele><time>2026-04-19T10:06:53Z</time></trkpt><trkpt lat="44.858530316466705" lon="8.011431706993802"><ele>256.8333333333333</ele><time>2026-04-19T10:06:54Z</time></trkpt><trkpt lat="44.85860564658333" lon="8.011412821817364"><ele>254.66666666666666</ele><time>2026-04-19T10:06:55Z</time></trkpt><trkpt lat="44.8586686108579" lon="8.011383213263723"><ele>252.5</ele><time>2026-04-19T10:06:57Z</time></trkpt><trkpt lat="44.85876128263464" lon="8.011339103785295"><ele>250.33333333333331</ele><time>2026-04-19T10:06:59Z</time></trkpt><trkpt lat="44.85889333575733" lon="8.011314142067702"><ele>248.16666666666666</ele><time>2026-04-19T10:07:01Z</time></trkpt><trkpt lat="44.858956756725895" lon="8.011273505412758"><ele>246.0</ele><time>2026-04-19T10:07:02Z</time></trkpt><trkpt lat="44.85902539372211" lon="8.011221834035988"><ele>246.0</ele><time>2026-04-19T10:07:03Z</time></trkpt><trkpt lat="44.859074879656376" lon="8.011131462663387"><ele>246.0</ele><time>2026-04-19T10:07:04Z</time></trkpt><trkpt lat="44.85910836970954" lon="8.011055843762646"><ele>246.0</ele><time>2026-04-19T10:07:05Z</time></trkpt><trkpt lat="44.85912208944575" lon="8.010860504493731"><ele>246.0</ele><time>2026-04-19T10:07:07Z</time></trkpt><trkpt lat="44.85914233904434" lon="8.010748628303526"><ele>246.0</ele><time>2026-04-19T10:07:08Z</time></trkpt><trkpt lat="44.859182010984945" lon="8.010645397889302"><ele>246.0</ele><time>2026-04-19T10:07:09Z</time></trkpt><trkpt lat="44.85924644715522" lon="8.010581128859757"><ele>245.33333333333334</ele><time>2026-04-19T10:07:10Z</time></trkpt><trkpt lat="44.8593338144496" lon="8.010519769004368"><ele>244.66666666666669</ele><time>2026-04-19T10:07:11Z</time></trkpt><trkpt lat="44.85938154746934" lon="8.010433904465438"><ele>244.0</ele><time>2026-04-19T10:07:12Z</time></trkpt><trkpt lat="44.859431982916576" lon="8.010328099786964"><ele>243.33333333333334</ele><time>2026-04-19T10:07:13Z</time></trkpt><trkpt lat="44.8594716646576" lon="8.01024105145511"><ele>242.66666666666669</ele><time>2026-04-19T10:07:14Z</time></trkpt><trkpt lat="44.8595663189904" lon="8.010173743229576"><ele>242.0</ele><time>2026-04-19T10:07:16Z</time></trkpt><trkpt lat="44.859629749079915" lon="8.010222072371795"><ele>242.0</ele><time>2026-04-19T10:07:17Z</time></trkpt><trkpt lat="44.8596992130412" lon="8.0103112568112"><ele>242.0</ele><time>2026-04-19T10:07:18Z</time></trkpt><trkpt lat="44.85972540522483" lon="8.01045460076926"><ele>242.0</ele><time>2026-04-19T10:07:19Z</time></trkpt><trkpt lat="44.85973207048007" lon="8.010612765212166"><ele>242.0</ele><time>2026-04-19T10:07:20Z</time></trkpt><trkpt lat="44.85976092724261" lon="8.01080182019051"><ele>242.0</ele><time>2026-04-19T10:07:21Z</time></trkpt><trkpt lat="44.85977353034685" lon="8.010956103334872"><ele>240.6</ele><time>2026-04-19T10:07:22Z</time></trkpt><trkpt lat="44.85977815192273" lon="8.01110440396339"><ele>239.2</ele><time>2026-04-19T10:07:23Z</time></trkpt><trkpt lat="44.859764539606495" lon="8.01127395845259"><ele>237.8</ele><time>2026-04-19T10:07:25.001Z</time></trkpt><trkpt lat="44.85975812483168" lon="8.011366830368301"><ele>236.4</ele><time>2026-04-19T10:07:27.001Z</time></trkpt><trkpt lat="44.85968094280595" lon="8.011402087730824"><ele>235.0</ele><time>2026-04-19T10:07:30.001Z</time></trkpt><trkpt lat="44.85971475462502" lon="8.01156582900043"><ele>234.66666666666666</ele><time>2026-04-19T10:07:33.001Z</time></trkpt><trkpt lat="44.85978574521485" lon="8.011674470493132"><ele>234.33333333333331</ele><time>2026-04-19T10:07:35.001Z</time></trkpt><trkpt lat="44.85985890705521" lon="8.011781490106465"><ele>234.0</ele><time>2026-04-19T10:07:38.001Z</time></trkpt><trkpt lat="44.860191028938566" lon="8.012018283814717"><ele>233.66666666666669</ele><time>2026-04-19T10:07:39.001Z</time></trkpt><trkpt lat="44.860427682488165" lon="8.012175346223955"><ele>233.33333333333334</ele><time>2026-04-19T10:07:40.001Z</time></trkpt><trkpt lat="44.86053643771303" lon="8.012243994179377"><ele>233.0</ele><time>2026-04-19T10:07:41.001Z</time></trkpt><trkpt lat="44.86063767560946" lon="8.012300237512616"><ele>233.0</ele><time>2026-04-19T10:07:42.001Z</time></trkpt><trkpt lat="44.860730304450904" lon="8.012333435802118"><ele>233.0</ele><time>2026-04-19T10:07:43.001Z</time></trkpt><trkpt lat="44.86082642226107" lon="8.012380546791363"><ele>233.0</ele><time>2026-04-19T10:07:44.001Z</time></trkpt><trkpt lat="44.86103726984948" lon="8.012394637015493"><ele>233.0</ele><time>2026-04-19T10:07:46.001Z</time></trkpt><trkpt lat="44.86112095656942" lon="8.012421030167438"><ele>235.0</ele><time>2026-04-19T10:07:47.001Z</time></trkpt><trkpt lat="44.861211634948575" lon="8.012452789106275"><ele>237.0</ele><time>2026-04-19T10:07:48.001Z</time></trkpt><trkpt lat="44.86131897281569" lon="8.012471517839336"><ele>239.0</ele><time>2026-04-19T10:07:49.001Z</time></trkpt><trkpt lat="44.861384238177976" lon="8.01246931001491"><ele>241.0</ele><time>2026-04-19T10:07:50.001Z</time></trkpt><trkpt lat="44.86148409485714" lon="8.01240797781363"><ele>243.0</ele><time>2026-04-19T10:07:51.001Z</time></trkpt><trkpt lat="44.86153474088376" lon="8.012259609382568"><ele>243.0</ele><time>2026-04-19T10:07:52.001Z</time></trkpt><trkpt lat="44.86159387525761" lon="8.012225075849797"><ele>243.0</ele><time>2026-04-19T10:07:53.001Z</time></trkpt><trkpt lat="44.86166462092352" lon="8.01222163794902"><ele>243.0</ele><time>2026-04-19T10:07:54.001Z</time></trkpt><trkpt lat="44.86174157757368" lon="8.012326103129988"><ele>243.0</ele><time>2026-04-19T10:07:55.001Z</time></trkpt><trkpt lat="44.86183571852531" lon="8.012358837357436"><ele>243.0</ele><time>2026-04-19T10:07:56.001Z</time></trkpt><trkpt lat="44.86192308640638" lon="8.012382953209679"><ele>243.0</ele><time>2026-04-19T10:07:57.001Z</time></trkpt><trkpt lat="44.86200945786364" lon="8.012453277711074"><ele>244.0</ele><time>2026-04-19T10:07:58.001Z</time></trkpt><trkpt lat="44.86214452235262" lon="8.012541547447011"><ele>245.0</ele><time>2026-04-19T10:08:00.001Z</time></trkpt><trkpt lat="44.86220897397889" lon="8.012628081580123"><ele>246.0</ele><time>2026-04-19T10:08:01.001Z</time></trkpt><trkpt lat="44.86227426094043" lon="8.012697586888127"><ele>247.0</ele><time>2026-04-19T10:08:02.001Z</time></trkpt><trkpt lat="44.86233941896961" lon="8.01272574086382"><ele>248.0</ele><time>2026-04-19T10:08:03.001Z</time></trkpt><trkpt lat="44.862404854962634" lon="8.012785588819108"><ele>248.0</ele><time>2026-04-19T10:08:04.001Z</time></trkpt><trkpt lat="44.862482747654205" lon="8.01288055928143"><ele>248.0</ele><time>2026-04-19T10:08:05.001Z</time></trkpt><trkpt lat="44.86253945919102" lon="8.012957192598634"><ele>248.0</ele><time>2026-04-19T10:08:06.001Z</time></trkpt><trkpt lat="44.86261170740852" lon="8.012996129079104"><ele>248.0</ele><time>2026-04-19T10:08:07.001Z</time></trkpt><trkpt lat="44.86270878970821" lon="8.01302171334486"><ele>248.0</ele><time>2026-04-19T10:08:08.001Z</time></trkpt><trkpt lat="44.86281064680044" lon="8.01300930095768"><ele>247.16666666666669</ele><time>2026-04-19T10:08:09.001Z</time></trkpt><trkpt lat="44.86288037766717" lon="8.012970353734563"><ele>246.33333333333334</ele><time>2026-04-19T10:08:10.001Z</time></trkpt><trkpt lat="44.862960081159166" lon="8.012954692344696"><ele>245.5</ele><time>2026-04-19T10:08:11.001Z</time></trkpt><trkpt lat="44.86303353079483" lon="8.01297432267418"><ele>244.66666666666669</ele><time>2026-04-19T10:08:12.001Z</time></trkpt><trkpt lat="44.863098733382465" lon="8.01307130919842"><ele>243.83333333333334</ele><time>2026-04-19T10:08:13.001Z</time></trkpt><trkpt lat="44.86315344090387" lon="8.013211894532608"><ele>243.0</ele><time>2026-04-19T10:08:14.001Z</time></trkpt><trkpt lat="44.86321052771389" lon="8.01334164209177"><ele>243.0</ele><time>2026-04-19T10:08:15.001Z</time></trkpt><trkpt lat="44.86325947813401" lon="8.013477771049097"><ele>243.0</ele><time>2026-04-19T10:08:16.001Z</time></trkpt><trkpt lat="44.86328174117205" lon="8.01361808359408"><ele>243.0</ele><time>2026-04-19T10:08:17.001Z</time></trkpt><trkpt lat="44.86328906610497" lon="8.013742413862511"><ele>243.0</ele><time>2026-04-19T10:08:18.001Z</time></trkpt><trkpt lat="44.86333013800898" lon="8.013815229489541"><ele>243.0</ele><time>2026-04-19T10:08:19.001Z</time></trkpt><trkpt lat="44.86340973391043" lon="8.013834628416829"><ele>243.0</ele><time>2026-04-19T10:08:21.001Z</time></trkpt><trkpt lat="44.86346753156232" lon="8.013768930328387"><ele>241.0</ele><time>2026-04-19T10:08:24Z</time></trkpt><trkpt lat="44.86353585299243" lon="8.013850388097826"><ele>239.0</ele><time>2026-04-19T10:08:28Z</time></trkpt><trkpt lat="44.86357540067233" lon="8.014004329136837"><ele>237.0</ele><time>2026-04-19T10:08:31Z</time></trkpt><trkpt lat="44.86364968206986" lon="8.014043475060896"><ele>235.0</ele><time>2026-04-19T10:08:34Z</time></trkpt><trkpt lat="44.863706386720395" lon="8.014120315285382"><ele>233.0</ele><time>2026-04-19T10:08:36Z</time></trkpt><trkpt lat="44.86377485679043" lon="8.01416064039116"><ele>231.0</ele><time>2026-04-19T10:08:39Z</time></trkpt><trkpt lat="44.86387641418003" lon="8.014164443115195"><ele>231.0</ele><time>2026-04-19T10:08:42Z</time></trkpt><trkpt lat="44.86393687099447" lon="8.01409736071091"><ele>231.0</ele><time>2026-04-19T10:08:44Z</time></trkpt><trkpt lat="44.86397735475689" lon="8.014026903691956"><ele>231.0</ele><time>2026-04-19T10:08:45Z</time></trkpt><trkpt lat="44.86407848123249" lon="8.013953408182882"><ele>231.0</ele><time>2026-04-19T10:08:47Z</time></trkpt><trkpt lat="44.86417703370878" lon="8.013936551118855"><ele>231.0</ele><time>2026-04-19T10:08:49Z</time></trkpt><trkpt lat="44.86420390583188" lon="8.014050496038152"><ele>231.0</ele><time>2026-04-19T10:08:52Z</time></trkpt><trkpt lat="44.864249813067275" lon="8.01416378403584"><ele>231.0</ele><time>2026-04-19T10:08:54Z</time></trkpt><trkpt lat="44.86427881328662" lon="8.014295878931295"><ele>231.0</ele><time>2026-04-19T10:08:55Z</time></trkpt><trkpt lat="44.864332148969424" lon="8.014406357460093"><ele>231.0</ele><time>2026-04-19T10:08:56Z</time></trkpt><trkpt lat="44.864402482748865" lon="8.014478077609542"><ele>231.0</ele><time>2026-04-19T10:08:57Z</time></trkpt><trkpt lat="44.86446367351647" lon="8.014595856788818"><ele>231.0</ele><time>2026-04-19T10:08:58Z</time></trkpt><trkpt lat="44.86451231008376" lon="8.01465683523481"><ele>231.0</ele><time>2026-04-19T10:08:59Z</time></trkpt><trkpt lat="44.86460781232614" lon="8.014753386780345"><ele>228.66666666666666</ele><time>2026-04-19T10:09:01Z</time></trkpt><trkpt lat="44.86470339081446" lon="8.014704694436476"><ele>226.33333333333331</ele><time>2026-04-19T10:09:03Z</time></trkpt><trkpt lat="44.864784142569604" lon="8.014700557585119"><ele>224.0</ele><time>2026-04-19T10:09:04Z</time></trkpt><trkpt lat="44.86485237649545" lon="8.01467308959215"><ele>221.66666666666666</ele><time>2026-04-19T10:09:05Z</time></trkpt><trkpt lat="44.864924593574266" lon="8.01469343892635"><ele>219.33333333333331</ele><time>2026-04-19T10:09:06Z</time></trkpt><trkpt lat="44.86499150729656" lon="8.01472232643725"><ele>217.0</ele><time>2026-04-19T10:09:07Z</time></trkpt><trkpt lat="44.86506144888044" lon="8.01475640265772"><ele>216.33333333333331</ele><time>2026-04-19T10:09:08Z</time></trkpt><trkpt lat="44.865119739887824" lon="8.014826945257617"><ele>215.66666666666666</ele><time>2026-04-19T10:09:09Z</time></trkpt><trkpt lat="44.865197656091325" lon="8.014802374891364"><ele>215.0</ele><time>2026-04-19T10:09:10Z</time></trkpt><trkpt lat="44.86529624742115" lon="8.014851707224253"><ele>214.33333333333331</ele><time>2026-04-19T10:09:11Z</time></trkpt><trkpt lat="44.86539777796561" lon="8.014879267302293"><ele>213.66666666666666</ele><time>2026-04-19T10:09:12Z</time></trkpt><trkpt lat="44.865472106038986" lon="8.014894017009938"><ele>213.0</ele><time>2026-04-19T10:09:13Z</time></trkpt><trkpt lat="44.86553970655346" lon="8.014894736031778"><ele>213.0</ele><time>2026-04-19T10:09:14Z</time></trkpt><trkpt lat="44.86556116813085" lon="8.014797735698728"><ele>213.0</ele><time>2026-04-19T10:09:17Z</time></trkpt><trkpt lat="44.86561809319295" lon="8.014731648823613"><ele>213.0</ele><time>2026-04-19T10:09:19Z</time></trkpt><trkpt lat="44.86581590209391" lon="8.014925537268118"><ele>213.0</ele><time>2026-04-19T10:09:23Z</time></trkpt><trkpt lat="44.865873075482504" lon="8.01501007362315"><ele>212.2</ele><time>2026-04-19T10:09:26Z</time></trkpt><trkpt lat="44.86597019013364" lon="8.015085510521498"><ele>211.4</ele><time>2026-04-19T10:09:29Z</time></trkpt><trkpt lat="44.866040012855954" lon="8.015191044977431"><ele>210.6</ele><time>2026-04-19T10:09:31Z</time></trkpt><trkpt lat="44.86605846727718" lon="8.015327803154102"><ele>209.79999999999998</ele><time>2026-04-19T10:09:33Z</time></trkpt><trkpt lat="44.866076105258635" lon="8.015436524494653"><ele>209.0</ele><time>2026-04-19T10:09:34Z</time></trkpt><trkpt lat="44.86608963538891" lon="8.015531030710111"><ele>209.00000000000003</ele><time>2026-04-19T10:09:35.001Z</time></trkpt><trkpt lat="44.86612869000496" lon="8.015601791989374"><ele>209.0</ele><time>2026-04-19T10:09:36.001Z</time></trkpt><trkpt lat="44.86618291335967" lon="8.015712426695503"><ele>209.0</ele><time>2026-04-19T10:09:37.001Z</time></trkpt><trkpt lat="44.86622302647309" lon="8.015790560612018"><ele>209.0</ele><time>2026-04-19T10:09:38.001Z</time></trkpt><trkpt lat="44.86626721988415" lon="8.015868071820785"><ele>209.00000000000003</ele><time>2026-04-19T10:09:39.001Z</time></trkpt><trkpt lat="44.866381726807745" lon="8.015918995899842"><ele>209.0</ele><time>2026-04-19T10:09:41.001Z</time></trkpt><trkpt lat="44.866452789777206" lon="8.015934257863913"><ele>209.75</ele><time>2026-04-19T10:09:45.001Z</time></trkpt><trkpt lat="44.866521207419844" lon="8.015967243619059"><ele>210.5</ele><time>2026-04-19T10:09:46.001Z</time></trkpt><trkpt lat="44.86659523154425" lon="8.015910664211928"><ele>211.25</ele><time>2026-04-19T10:09:48.001Z</time></trkpt><trkpt lat="44.86660621140271" lon="8.016202883673582"><ele>212.0</ele><time>2026-04-19T10:09:49.001Z</time></trkpt><trkpt lat="44.86668846938274" lon="8.016236472830535"><ele>212.0</ele><time>2026-04-19T10:09:50.001Z</time></trkpt><trkpt lat="44.86677713191091" lon="8.016279176230833"><ele>212.0</ele><time>2026-04-19T10:09:51.001Z</time></trkpt><trkpt lat="44.866888762240016" lon="8.016331278904303"><ele>212.0</ele><time>2026-04-19T10:09:52.001Z</time></trkpt><trkpt lat="44.86696911823046" lon="8.016359757043917"><ele>212.0</ele><time>2026-04-19T10:09:53.001Z</time></trkpt><trkpt lat="44.867044414973094" lon="8.016380786365632"><ele>212.0</ele><time>2026-04-19T10:09:54.001Z</time></trkpt><trkpt lat="44.86713460697215" lon="8.016403806535045"><ele>211.0</ele><time>2026-04-19T10:09:56.001Z</time></trkpt><trkpt lat="44.867201053389024" lon="8.016420129443208"><ele>210.0</ele><time>2026-04-19T10:09:59.001Z</time></trkpt><trkpt lat="44.867288520196624" lon="8.016441616120915"><ele>209.0</ele><time>2026-04-19T10:10:02.001Z</time></trkpt><trkpt lat="44.86743995260804" lon="8.015965243696838"><ele>209.0</ele><time>2026-04-19T10:10:04.001Z</time></trkpt><trkpt lat="44.86746454520811" lon="8.016496424566288"><ele>209.0</ele><time>2026-04-19T10:10:06.001Z</time></trkpt><trkpt lat="44.86754760511533" lon="8.016210064791103"><ele>209.0</ele><time>2026-04-19T10:10:11.001Z</time></trkpt><trkpt lat="44.867495812156" lon="8.016293668196946"><ele>209.0</ele><time>2026-04-19T10:10:12.001Z</time></trkpt><trkpt lat="44.86744577229195" lon="8.01642341212608"><ele>209.0</ele><time>2026-04-19T10:10:14.001Z</time></trkpt><trkpt lat="44.8674731577328" lon="8.016511961614821"><ele>209.0</ele><time>2026-04-19T10:10:17.001Z</time></trkpt><trkpt lat="44.867573882464356" lon="8.01662656516116"><ele>209.0</ele><time>2026-04-19T10:10:19.001Z</time></trkpt><trkpt lat="44.86768351564115" lon="8.016589293528781"><ele>209.0</ele><time>2026-04-19T10:10:20.001Z</time></trkpt><trkpt lat="44.86778825227418" lon="8.01662191288816"><ele>209.0</ele><time>2026-04-19T10:10:21.001Z</time></trkpt><trkpt lat="44.86790463961245" lon="8.016640431636374"><ele>209.0</ele><time>2026-04-19T10:10:22.001Z</time></trkpt><trkpt lat="44.86804563565646" lon="8.016659524608958"><ele>209.0</ele><time>2026-04-19T10:10:23.001Z</time></trkpt><trkpt lat="44.86818885963201" lon="8.01666483529943"><ele>209.0</ele><time>2026-04-19T10:10:24.001Z</time></trkpt><trkpt lat="44.86833374712514" lon="8.016672332752936"><ele>209.0</ele><time>2026-04-19T10:10:25.001Z</time></trkpt><trkpt lat="44.86848157711377" lon="8.01667693434069"><ele>209.0</ele><time>2026-04-19T10:10:26.001Z</time></trkpt><trkpt lat="44.86861920185127" lon="8.016680438684157"><ele>209.0</ele><time>2026-04-19T10:10:27.001Z</time></trkpt><trkpt lat="44.868762826366776" lon="8.01668157348311"><ele>209.0</ele><time>2026-04-19T10:10:28Z</time></trkpt><trkpt lat="44.86890711082509" lon="8.016712974924104"><ele>209.0</ele><time>2026-04-19T10:10:29Z</time></trkpt><trkpt lat="44.869044805195266" lon="8.01672971190801"><ele>209.0</ele><time>2026-04-19T10:10:30Z</time></trkpt><trkpt lat="44.86916332448139" lon="8.01674559320033"><ele>209.0</ele><time>2026-04-19T10:10:31Z</time></trkpt><trkpt lat="44.869266999702646" lon="8.016775187542235"><ele>208.83333333333334</ele><time>2026-04-19T10:10:32Z</time></trkpt><trkpt lat="44.869364611215694" lon="8.016827707478473"><ele>208.66666666666669</ele><time>2026-04-19T10:10:33Z</time></trkpt><trkpt lat="44.869441142751725" lon="8.016872887155317"><ele>208.5</ele><time>2026-04-19T10:10:34Z</time></trkpt><trkpt lat="44.869504376774955" lon="8.016865002438998"><ele>208.33333333333331</ele><time>2026-04-19T10:10:38Z</time></trkpt><trkpt lat="44.86945500934792" lon="8.016793749371988"><ele>208.16666666666666</ele><time>2026-04-19T10:10:40Z</time></trkpt><trkpt lat="44.86938662567697" lon="8.016767168137363"><ele>208.0</ele><time>2026-04-19T10:10:41Z</time></trkpt><trkpt lat="44.8692981412846" lon="8.016784428440651"><ele>207.99999999999997</ele><time>2026-04-19T10:10:43Z</time></trkpt><trkpt lat="44.86929180247549" lon="8.01688631936194"><ele>208.0</ele><time>2026-04-19T10:10:45Z</time></trkpt><trkpt lat="44.86931451042625" lon="8.016969312878325"><ele>208.0</ele><time>2026-04-19T10:10:46Z</time></trkpt><trkpt lat="44.86928058120854" lon="8.017125691386653"><ele>208.0</ele><time>2026-04-19T10:10:48Z</time></trkpt><trkpt lat="44.86930498193149" lon="8.017216050313312"><ele>207.99999999999997</ele><time>2026-04-19T10:10:49Z</time></trkpt><trkpt lat="44.86930843404901" lon="8.01733449237726"><ele>208.0</ele><time>2026-04-19T10:10:50Z</time></trkpt><trkpt lat="44.8693232058749" lon="8.017456514787405"><ele>207.99999999999997</ele><time>2026-04-19T10:10:51Z</time></trkpt><trkpt lat="44.86936873945661" lon="8.017555162585122"><ele>208.0</ele><time>2026-04-19T10:10:52Z</time></trkpt><trkpt lat="44.869284412933574" lon="8.0175833289845"><ele>208.0</ele><time>2026-04-19T10:10:57Z</time></trkpt><trkpt lat="44.869218355351876" lon="8.017629829642948"><ele>208.0</ele><time>2026-04-19T10:14:05.001Z</time></trkpt><trkpt lat="44.86919049746074" lon="8.017719868922063"><ele>207.99999999999997</ele><time>2026-04-19T10:15:44Z</time></trkpt><trkpt lat="44.86913233310273" lon="8.017819379849561"><ele>208.0</ele><time>2026-04-19T10:15:46Z</time></trkpt><trkpt lat="44.86902787252333" lon="8.017722440355302"><ele>208.16666666666666</ele><time>2026-04-19T10:15:48Z</time></trkpt><trkpt lat="44.86899433841969" lon="8.017626498920835"><ele>208.33333333333331</ele><time>2026-04-19T10:15:49Z</time></trkpt><trkpt lat="44.868934648309974" lon="8.01759277247522"><ele>208.5</ele><time>2026-04-19T10:15:50Z</time></trkpt><trkpt lat="44.868856243190805" lon="8.0175074506141"><ele>208.66666666666669</ele><time>2026-04-19T10:15:52Z</time></trkpt><trkpt lat="44.86877042199968" lon="8.017465095252723"><ele>208.83333333333334</ele><time>2026-04-19T10:15:54.001Z</time></trkpt><trkpt lat="44.86869222488769" lon="8.017564400589105"><ele>209.0</ele><time>2026-04-19T10:15:56.001Z</time></trkpt><trkpt lat="44.8685864734969" lon="8.01751319453938"><ele>209.0</ele><time>2026-04-19T10:15:58.001Z</time></trkpt><trkpt lat="44.868496977705625" lon="8.01741354860695"><ele>209.0</ele><time>2026-04-19T10:15:59.001Z</time></trkpt><trkpt lat="44.868425986727225" lon="8.017308729982615"><ele>209.0</ele><time>2026-04-19T10:16:00.001Z</time></trkpt><trkpt lat="44.8683559324689" lon="8.017189808864792"><ele>209.0</ele><time>2026-04-19T10:16:01.001Z</time></trkpt><trkpt lat="44.868248474444634" lon="8.017142474226434"><ele>209.0</ele><time>2026-04-19T10:16:03.001Z</time></trkpt><trkpt lat="44.868178503888416" lon="8.01715395388426"><ele>209.0</ele><time>2026-04-19T10:16:04.001Z</time></trkpt><trkpt lat="44.86809566315849" lon="8.01718204316018"><ele>209.0</ele><time>2026-04-19T10:16:05.001Z</time></trkpt><trkpt lat="44.86802129305788" lon="8.017202824419144"><ele>209.0</ele><time>2026-04-19T10:16:06.001Z</time></trkpt><trkpt lat="44.86795119104433" lon="8.017188066558615"><ele>209.0</ele><time>2026-04-19T10:16:07.001Z</time></trkpt><trkpt lat="44.86789349179594" lon="8.017233522766086"><ele>209.0</ele><time>2026-04-19T10:16:09.001Z</time></trkpt><trkpt lat="44.86793055814339" lon="8.017152442118022"><ele>209.0</ele><time>2026-04-19T10:16:10.001Z</time></trkpt><trkpt lat="44.86792965417649" lon="8.01703921905069"><ele>209.0</ele><time>2026-04-19T10:16:12.001Z</time></trkpt><trkpt lat="44.86783728051564" lon="8.016957807482774"><ele>209.0</ele><time>2026-04-19T10:16:14.001Z</time></trkpt><trkpt lat="44.867782859769584" lon="8.017003749120914"><ele>209.0</ele><time>2026-04-19T10:16:17.001Z</time></trkpt><trkpt lat="44.86766447968497" lon="8.017001603160045"><ele>209.0</ele><time>2026-04-19T10:16:19.001Z</time></trkpt><trkpt lat="44.8675829998053" lon="8.016941921165758"><ele>209.0</ele><time>2026-04-19T10:16:23.001Z</time></trkpt><trkpt lat="44.86751957141928" lon="8.01687559831594"><ele>209.0</ele><time>2026-04-19T10:16:24.001Z</time></trkpt><trkpt lat="44.86741720412191" lon="8.016794958217513"><ele>209.2</ele><time>2026-04-19T10:16:25.001Z</time></trkpt><trkpt lat="44.867343502475" lon="8.016734016164992"><ele>209.39999999999998</ele><time>2026-04-19T10:16:26.001Z</time></trkpt><trkpt lat="44.86724156350174" lon="8.01670886035402"><ele>209.6</ele><time>2026-04-19T10:16:27.001Z</time></trkpt><trkpt lat="44.867128916374874" lon="8.016744025096775"><ele>209.8</ele><time>2026-04-19T10:16:28.001Z</time></trkpt><trkpt lat="44.867045121143015" lon="8.016771492734337"><ele>210.0</ele><time>2026-04-19T10:16:29.001Z</time></trkpt><trkpt lat="44.86697896243317" lon="8.01678712403113"><ele>210.0</ele><time>2026-04-19T10:16:30.001Z</time></trkpt><trkpt lat="44.86688831564941" lon="8.016710129313173"><ele>210.0</ele><time>2026-04-19T10:16:32.001Z</time></trkpt><trkpt lat="44.86678900712103" lon="8.016698592929611"><ele>210.0</ele><time>2026-04-19T10:16:34.001Z</time></trkpt><trkpt lat="44.86675110793539" lon="8.01678021182285"><ele>210.0</ele><time>2026-04-19T10:16:35.001Z</time></trkpt><trkpt lat="44.866647709130426" lon="8.016682748786542"><ele>210.0</ele><time>2026-04-19T10:16:37.001Z</time></trkpt><trkpt lat="44.86662059390626" lon="8.016585507968585"><ele>210.4</ele><time>2026-04-19T10:16:38.001Z</time></trkpt><trkpt lat="44.86656363256199" lon="8.016488787232296"><ele>210.8</ele><time>2026-04-19T10:16:39.001Z</time></trkpt><trkpt lat="44.86649415955686" lon="8.016438559196388"><ele>211.2</ele><time>2026-04-19T10:16:40.001Z</time></trkpt><trkpt lat="44.866424355398166" lon="8.016396307172267"><ele>211.6</ele><time>2026-04-19T10:16:41.001Z</time></trkpt><trkpt lat="44.866352451543165" lon="8.016398430386287"><ele>212.0</ele><time>2026-04-19T10:16:42.001Z</time></trkpt><trkpt lat="44.866217621204655" lon="8.016380038582856"><ele>212.00000000000003</ele><time>2026-04-19T10:16:44.001Z</time></trkpt><trkpt lat="44.86613365142585" lon="8.016245340981968"><ele>212.0</ele><time>2026-04-19T10:16:46Z</time></trkpt><trkpt lat="44.86606556547517" lon="8.016197020706024"><ele>212.0</ele><time>2026-04-19T10:16:47Z</time></trkpt><trkpt lat="44.86598745338692" lon="8.016189718410734"><ele>212.0</ele><time>2026-04-19T10:16:48Z</time></trkpt><trkpt lat="44.86592331466284" lon="8.016176968210079"><ele>212.00000000000003</ele><time>2026-04-19T10:16:49Z</time></trkpt><trkpt lat="44.86583132284264" lon="8.016189979799995"><ele>212.0</ele><time>2026-04-19T10:16:50Z</time></trkpt><trkpt lat="44.865749005589954" lon="8.01621906567426"><ele>212.50000000000003</ele><time>2026-04-19T10:16:51Z</time></trkpt><trkpt lat="44.86566589195215" lon="8.016254497032541"><ele>213.0</ele><time>2026-04-19T10:16:52Z</time></trkpt><trkpt lat="44.86562600140311" lon="8.016370192281288"><ele>213.5</ele><time>2026-04-19T10:16:53Z</time></trkpt><trkpt lat="44.86558034959891" lon="8.016488585133311"><ele>214.0</ele><time>2026-04-19T10:16:54Z</time></trkpt><trkpt lat="44.86555340587898" lon="8.016580872503635"><ele>214.50000000000003</ele><time>2026-04-19T10:16:55Z</time></trkpt><trkpt lat="44.8654878168481" lon="8.016632625110866"><ele>215.0</ele><time>2026-04-19T10:16:57Z</time></trkpt><trkpt lat="44.86542744338806" lon="8.016471759091786"><ele>215.00000000000003</ele><time>2026-04-19T10:16:59Z</time></trkpt><trkpt lat="44.865390055400894" lon="8.016385310515279"><ele>215.0</ele><time>2026-04-19T10:17:00Z</time></trkpt><trkpt lat="44.86532493627431" lon="8.016391631672809"><ele>215.0</ele><time>2026-04-19T10:17:03Z</time></trkpt><trkpt lat="44.8652283879188" lon="8.01635964929567"><ele>215.0</ele><time>2026-04-19T10:17:08Z</time></trkpt><trkpt lat="44.86514330935322" lon="8.016366003041039"><ele>215.00000000000003</ele><time>2026-04-19T10:17:09Z</time></trkpt><trkpt lat="44.86505889542599" lon="8.016362282832633"><ele>215.0</ele><time>2026-04-19T10:17:10Z</time></trkpt><trkpt lat="44.864954268969676" lon="8.01639553411367"><ele>214.8</ele><time>2026-04-19T10:17:11Z</time></trkpt><trkpt lat="44.86484971257363" lon="8.016462480381037"><ele>214.6</ele><time>2026-04-19T10:17:13Z</time></trkpt><trkpt lat="44.864864864855214" lon="8.01656623002174"><ele>214.39999999999998</ele><time>2026-04-19T10:17:14Z</time></trkpt><trkpt lat="44.86483677613204" lon="8.016664394591933"><ele>214.2</ele><time>2026-04-19T10:17:16Z</time></trkpt><trkpt lat="44.864716031113836" lon="8.016674776838826"><ele>214.0</ele><time>2026-04-19T10:17:19Z</time></trkpt><trkpt lat="44.86466252003015" lon="8.01673630385081"><ele>213.99999999999997</ele><time>2026-04-19T10:17:20Z</time></trkpt><trkpt lat="44.86460168556079" lon="8.016789381939862"><ele>214.0</ele><time>2026-04-19T10:17:21Z</time></trkpt><trkpt lat="44.864517435222304" lon="8.016821116325971"><ele>214.0</ele><time>2026-04-19T10:17:23Z</time></trkpt><trkpt lat="44.86444872583189" lon="8.016732101744008"><ele>214.0</ele><time>2026-04-19T10:17:26Z</time></trkpt><trkpt lat="44.86441423040755" lon="8.016595419731962"><ele>213.99999999999997</ele><time>2026-04-19T10:17:28Z</time></trkpt><trkpt lat="44.86435665087696" lon="8.01655430067126"><ele>214.0</ele><time>2026-04-19T10:17:29Z</time></trkpt><trkpt lat="44.864257115696695" lon="8.016509465540551"><ele>213.83333333333331</ele><time>2026-04-19T10:17:31Z</time></trkpt><trkpt lat="44.86419295652375" lon="8.016558345931816"><ele>213.66666666666666</ele><time>2026-04-19T10:17:35Z</time></trkpt><trkpt lat="44.86408973910687" lon="8.01656054711044"><ele>213.5</ele><time>2026-04-19T10:17:38Z</time></trkpt><trkpt lat="44.86402853217945" lon="8.016592062004364"><ele>213.33333333333331</ele><time>2026-04-19T10:17:41Z</time></trkpt><trkpt lat="44.863918075246296" lon="8.016541361847576"><ele>213.16666666666666</ele><time>2026-04-19T10:17:44Z</time></trkpt><trkpt lat="44.863843944838955" lon="8.016557367235434"><ele>213.0</ele><time>2026-04-19T10:17:46Z</time></trkpt><trkpt lat="44.863763535186784" lon="8.01660288164511"><ele>213.0</ele><time>2026-04-19T10:17:49Z</time></trkpt><trkpt lat="44.86368035037817" lon="8.016601115929312"><ele>213.0</ele><time>2026-04-19T10:17:51Z</time></trkpt><trkpt lat="44.86360002232684" lon="8.016550737131077"><ele>213.0</ele><time>2026-04-19T10:17:52Z</time></trkpt><trkpt lat="44.863525913508596" lon="8.016549607311237"><ele>213.0</ele><time>2026-04-19T10:17:54Z</time></trkpt><trkpt lat="44.86345458761161" lon="8.016534939890882"><ele>213.0</ele><time>2026-04-19T10:17:56Z</time></trkpt><trkpt lat="44.863306967697696" lon="8.016582846256828"><ele>213.0</ele><time>2026-04-19T10:17:58Z</time></trkpt><trkpt lat="44.8632041754261" lon="8.016629514124311"><ele>213.0</ele><time>2026-04-19T10:17:59Z</time></trkpt><trkpt lat="44.86311973900112" lon="8.016674421105234"><ele>213.0</ele><time>2026-04-19T10:18:00Z</time></trkpt><trkpt lat="44.86304136070411" lon="8.016646294480374"><ele>213.0</ele><time>2026-04-19T10:18:01Z</time></trkpt><trkpt lat="44.8629450869474" lon="8.016658953893426"><ele>213.0</ele><time>2026-04-19T10:18:03Z</time></trkpt><trkpt lat="44.86285020999022" lon="8.016608878969965"><ele>213.0</ele><time>2026-04-19T10:18:05.001Z</time></trkpt><trkpt lat="44.86280443829756" lon="8.016536467181016"><ele>213.0</ele><time>2026-04-19T10:18:06.001Z</time></trkpt><trkpt lat="44.86278149867093" lon="8.016415607443323"><ele>213.0</ele><time>2026-04-19T10:18:08.001Z</time></trkpt><trkpt lat="44.862710396798384" lon="8.016369300234459"><ele>213.0</ele><time>2026-04-19T10:18:10.001Z</time></trkpt><trkpt lat="44.86269306298515" lon="8.016456449512393"><ele>213.0</ele><time>2026-04-19T10:18:11.001Z</time></trkpt><trkpt lat="44.86264884827433" lon="8.01659004507"><ele>213.0</ele><time>2026-04-19T10:18:12.001Z</time></trkpt><trkpt lat="44.86258285367382" lon="8.01668549374308"><ele>214.2</ele><time>2026-04-19T10:18:13.001Z</time></trkpt><trkpt lat="44.86247877382013" lon="8.016803543356431"><ele>215.4</ele><time>2026-04-19T10:18:14.001Z</time></trkpt><trkpt lat="44.86238310011261" lon="8.0168829073845"><ele>216.59999999999997</ele><time>2026-04-19T10:18:15.001Z</time></trkpt><trkpt lat="44.862318202257" lon="8.016952947584413"><ele>217.79999999999998</ele><time>2026-04-19T10:18:16.001Z</time></trkpt><trkpt lat="44.86226614212332" lon="8.017015073333436"><ele>219.0</ele><time>2026-04-19T10:18:17.001Z</time></trkpt><trkpt lat="44.86227890168737" lon="8.017128515887983"><ele>219.0</ele><time>2026-04-19T10:18:18.001Z</time></trkpt><trkpt lat="44.86226252467053" lon="8.017249704296598"><ele>218.99999999999997</ele><time>2026-04-19T10:18:19.001Z</time></trkpt><trkpt lat="44.8622753645692" lon="8.017400683040204"><ele>218.99999999999997</ele><time>2026-04-19T10:18:20.001Z</time></trkpt><trkpt lat="44.86227114098601" lon="8.017530271799249"><ele>219.0</ele><time>2026-04-19T10:18:21.001Z</time></trkpt><trkpt lat="44.86228109452459" lon="8.017649435256791"><ele>219.0</ele><time>2026-04-19T10:18:22.001Z</time></trkpt><trkpt lat="44.86230769632232" lon="8.01779312706844"><ele>220.2</ele><time>2026-04-19T10:18:23.001Z</time></trkpt><trkpt lat="44.862352443539265" lon="8.017916238753358"><ele>221.39999999999998</ele><time>2026-04-19T10:18:24.001Z</time></trkpt><trkpt lat="44.86241764428719" lon="8.018004861001572"><ele>222.6</ele><time>2026-04-19T10:18:25.001Z</time></trkpt><trkpt lat="44.862488043213794" lon="8.018118511148995"><ele>223.8</ele><time>2026-04-19T10:18:26.001Z</time></trkpt><trkpt lat="44.862544083440376" lon="8.018191888447829"><ele>225.0</ele><time>2026-04-19T10:18:27.001Z</time></trkpt><trkpt lat="44.86260694898489" lon="8.0183418288601"><ele>229.25</ele><time>2026-04-19T10:18:28.001Z</time></trkpt><trkpt lat="44.86266972622888" lon="8.018469168898017"><ele>233.5</ele><time>2026-04-19T10:18:29.001Z</time></trkpt><trkpt lat="44.86274368232847" lon="8.018638002585787"><ele>237.75</ele><time>2026-04-19T10:18:30.001Z</time></trkpt><trkpt lat="44.862807090324466" lon="8.01877894512169"><ele>242.0</ele><time>2026-04-19T10:18:31.001Z</time></trkpt><trkpt lat="44.862859070156574" lon="8.018905178608708"><ele>242.0</ele><time>2026-04-19T10:18:32.001Z</time></trkpt><trkpt lat="44.86288963592746" lon="8.01902146913722"><ele>242.0</ele><time>2026-04-19T10:18:33.001Z</time></trkpt><trkpt lat="44.862889411445465" lon="8.019201217418615"><ele>242.0</ele><time>2026-04-19T10:18:34.001Z</time></trkpt><trkpt lat="44.86285715159951" lon="8.01940111637465"><ele>242.0</ele><time>2026-04-19T10:18:36.001Z</time></trkpt><trkpt lat="44.862847595857836" lon="8.019501833221891"><ele>242.0</ele><time>2026-04-19T10:18:37.001Z</time></trkpt><trkpt lat="44.86275405396901" lon="8.019599320638564"><ele>241.8</ele><time>2026-04-19T10:18:38.001Z</time></trkpt><trkpt lat="44.86273094783793" lon="8.019720987930134"><ele>241.6</ele><time>2026-04-19T10:18:39.001Z</time></trkpt><trkpt lat="44.862714177945996" lon="8.019858740449033"><ele>241.40000000000003</ele><time>2026-04-19T10:18:40.001Z</time></trkpt><trkpt lat="44.86268996064047" lon="8.020020096171312"><ele>241.20000000000002</ele><time>2026-04-19T10:18:41.001Z</time></trkpt><trkpt lat="44.86266763244638" lon="8.020165128889799"><ele>241.0</ele><time>2026-04-19T10:18:42.001Z</time></trkpt><trkpt lat="44.8626305057584" lon="8.020293593162203"><ele>241.20000000000002</ele><time>2026-04-19T10:18:43.001Z</time></trkpt><trkpt lat="44.862606776349395" lon="8.020424677213173"><ele>241.40000000000003</ele><time>2026-04-19T10:18:44.001Z</time></trkpt><trkpt lat="44.86256599021177" lon="8.020579551189533"><ele>241.6</ele><time>2026-04-19T10:18:45.001Z</time></trkpt><trkpt lat="44.86251063431215" lon="8.020720537640802"><ele>241.8</ele><time>2026-04-19T10:18:46.001Z</time></trkpt><trkpt lat="44.86247874165027" lon="8.020813909612881"><ele>242.0</ele><time>2026-04-19T10:18:47.001Z</time></trkpt><trkpt lat="44.86245230713051" lon="8.020965047420859"><ele>242.8</ele><time>2026-04-19T10:18:48.001Z</time></trkpt><trkpt lat="44.86244065773266" lon="8.021115077179672"><ele>243.6</ele><time>2026-04-19T10:18:49.001Z</time></trkpt><trkpt lat="44.86247357788397" lon="8.021243701223737"><ele>244.40000000000003</ele><time>2026-04-19T10:18:50.001Z</time></trkpt><trkpt lat="44.862467263123115" lon="8.021335113609346"><ele>245.20000000000002</ele><time>2026-04-19T10:18:51.001Z</time></trkpt><trkpt lat="44.862430381431736" lon="8.021436222174561"><ele>246.0</ele><time>2026-04-19T10:18:53Z</time></trkpt><trkpt lat="44.862307572372664" lon="8.021429362599958"><ele>246.0</ele><time>2026-04-19T10:18:55Z</time></trkpt><trkpt lat="44.862294131333414" lon="8.021525350345831"><ele>246.00000000000003</ele><time>2026-04-19T10:18:57Z</time></trkpt><trkpt lat="44.86226732218718" lon="8.021666996044669"><ele>246.00000000000003</ele><time>2026-04-19T10:19:00Z</time></trkpt><trkpt lat="44.8622069080396" lon="8.02186682872966"><ele>246.0</ele><time>2026-04-19T10:19:02Z</time></trkpt><trkpt lat="44.86224411412375" lon="8.021969433400086"><ele>246.0</ele><time>2026-04-19T10:19:05Z</time></trkpt><trkpt lat="44.86230528694768" lon="8.022055353283356"><ele>246.83333333333334</ele><time>2026-04-19T10:19:07Z</time></trkpt><trkpt lat="44.86232110238827" lon="8.022180079636142"><ele>247.66666666666669</ele><time>2026-04-19T10:19:12Z</time></trkpt><trkpt lat="44.8623266961318" lon="8.022293664285675"><ele>248.5</ele><time>2026-04-19T10:19:15Z</time></trkpt><trkpt lat="44.862320418408046" lon="8.022383599488258"><ele>249.33333333333334</ele><time>2026-04-19T10:19:16Z</time></trkpt><trkpt lat="44.862282550665924" lon="8.022485796588914"><ele>250.16666666666669</ele><time>2026-04-19T10:19:21Z</time></trkpt><trkpt lat="44.86229580913042" lon="8.0226233743761"><ele>251.0</ele><time>2026-04-19T10:19:23Z</time></trkpt><trkpt lat="44.862331170500354" lon="8.022762979815075"><ele>252.50000000000003</ele><time>2026-04-19T10:19:25Z</time></trkpt><trkpt lat="44.862297135984086" lon="8.022865554363326"><ele>254.0</ele><time>2026-04-19T10:19:26Z</time></trkpt><trkpt lat="44.8622135042077" lon="8.022930591395953"><ele>255.5</ele><time>2026-04-19T10:19:28Z</time></trkpt><trkpt lat="44.86212378444387" lon="8.022985763905876"><ele>257.0</ele><time>2026-04-19T10:19:29Z</time></trkpt><trkpt lat="44.86204378108407" lon="8.023030363373374"><ele>258.5</ele><time>2026-04-19T10:19:30Z</time></trkpt><trkpt lat="44.861972233893994" lon="8.023036732162966"><ele>260.0</ele><time>2026-04-19T10:19:31Z</time></trkpt><trkpt lat="44.861892895166555" lon="8.023011605957164"><ele>260.0</ele><time>2026-04-19T10:19:32Z</time></trkpt><trkpt lat="44.8618399948116" lon="8.022918183983338"><ele>260.0</ele><time>2026-04-19T10:19:33Z</time></trkpt><trkpt lat="44.86171327733188" lon="8.022848340852553"><ele>260.0</ele><time>2026-04-19T10:19:34Z</time></trkpt><trkpt lat="44.8616338022018" lon="8.022789693414902"><ele>260.0</ele><time>2026-04-19T10:19:35Z</time></trkpt><trkpt lat="44.86152970628284" lon="8.022772083346828"><ele>260.0</ele><time>2026-04-19T10:19:36Z</time></trkpt><trkpt lat="44.861498951943176" lon="8.022694433676499"><ele>261.2</ele><time>2026-04-19T10:19:37Z</time></trkpt><trkpt lat="44.8614318980538" lon="8.022697420312328"><ele>262.4</ele><time>2026-04-19T10:19:38Z</time></trkpt><trkpt lat="44.86133439668773" lon="8.022756967163158"><ele>263.6</ele><time>2026-04-19T10:19:39Z</time></trkpt><trkpt lat="44.861225250768314" lon="8.022813982878313"><ele>264.8</ele><time>2026-04-19T10:19:40Z</time></trkpt><trkpt lat="44.861142708106286" lon="8.022869614782225"><ele>266.0</ele><time>2026-04-19T10:19:41Z</time></trkpt><trkpt lat="44.86105227163737" lon="8.023036505353424"><ele>266.0</ele><time>2026-04-19T10:19:42Z</time></trkpt><trkpt lat="44.86100357940967" lon="8.023146972838257"><ele>266.0</ele><time>2026-04-19T10:19:43Z</time></trkpt><trkpt lat="44.86095152231578" lon="8.023235274251226"><ele>266.0</ele><time>2026-04-19T10:19:44Z</time></trkpt><trkpt lat="44.86089608014311" lon="8.023297133632765"><ele>266.0</ele><time>2026-04-19T10:19:45Z</time></trkpt><trkpt lat="44.86085130215824" lon="8.023375930372422"><ele>266.0</ele><time>2026-04-19T10:19:47Z</time></trkpt><trkpt lat="44.86079143756968" lon="8.023404486581942"><ele>266.0</ele><time>2026-04-19T10:19:49Z</time></trkpt><trkpt lat="44.86076748168643" lon="8.023500053745753"><ele>271.75</ele><time>2026-04-19T10:19:52Z</time></trkpt><trkpt lat="44.86076218958439" lon="8.023698738151431"><ele>277.5</ele><time>2026-04-19T10:19:54Z</time></trkpt><trkpt lat="44.860822577055636" lon="8.023864534010904"><ele>283.25</ele><time>2026-04-19T10:19:55Z</time></trkpt><trkpt lat="44.860893982790515" lon="8.023998475019118"><ele>289.0</ele><time>2026-04-19T10:19:56Z</time></trkpt><trkpt lat="44.86094739374067" lon="8.024114325241314"><ele>288.3333333333333</ele><time>2026-04-19T10:19:57Z</time></trkpt><trkpt lat="44.86097179335231" lon="8.02420291921431"><ele>287.66666666666663</ele><time>2026-04-19T10:19:58Z</time></trkpt><trkpt lat="44.86098966202456" lon="8.02429338494701"><ele>287.0</ele><time>2026-04-19T10:19:59Z</time></trkpt><trkpt lat="44.86100677201489" lon="8.024384022852463"><ele>286.3333333333333</ele><time>2026-04-19T10:20:00Z</time></trkpt><trkpt lat="44.86097666276402" lon="8.024511792490806"><ele>285.6666666666667</ele><time>2026-04-19T10:20:01Z</time></trkpt><trkpt lat="44.86090608176122" lon="8.024660732699962"><ele>285.0</ele><time>2026-04-19T10:20:02Z</time></trkpt><trkpt lat="44.86072705347985" lon="8.024923968658698"><ele>287.3333333333333</ele><time>2026-04-19T10:20:03Z</time></trkpt><trkpt lat="44.86051634063006" lon="8.025076683793374"><ele>289.66666666666663</ele><time>2026-04-19T10:20:04Z</time></trkpt><trkpt lat="44.86040453963968" lon="8.025230140660083"><ele>292.0</ele><time>2026-04-19T10:20:05.001Z</time></trkpt><trkpt lat="44.860288787609946" lon="8.025363583168918"><ele>292.0</ele><time>2026-04-19T10:20:06.001Z</time></trkpt><trkpt lat="44.86018979148351" lon="8.025506147256028"><ele>292.0</ele><time>2026-04-19T10:20:07.001Z</time></trkpt><trkpt lat="44.860073483223545" lon="8.025660414786685"><ele>292.0</ele><time>2026-04-19T10:20:08.001Z</time></trkpt><trkpt lat="44.859982986476545" lon="8.025814761462396"><ele>292.0</ele><time>2026-04-19T10:20:09.001Z</time></trkpt><trkpt lat="44.859889875653366" lon="8.025953081293038"><ele>292.8</ele><time>2026-04-19T10:20:10.001Z</time></trkpt><trkpt lat="44.859833232400874" lon="8.026038893306646"><ele>293.6</ele><time>2026-04-19T10:20:11.001Z</time></trkpt><trkpt lat="44.8597484685207" lon="8.026114893967373"><ele>294.40000000000003</ele><time>2026-04-19T10:20:12.001Z</time></trkpt><trkpt lat="44.85966405359202" lon="8.026202462250863"><ele>295.2</ele><time>2026-04-19T10:20:13.001Z</time></trkpt><trkpt lat="44.8595403501262" lon="8.026267816744332"><ele>296.0</ele><time>2026-04-19T10:20:14.001Z</time></trkpt><trkpt lat="44.85943330412865" lon="8.026312972357148"><ele>296.0</ele><time>2026-04-19T10:20:15.001Z</time></trkpt><trkpt lat="44.85932224848254" lon="8.026398283167698"><ele>296.0</ele><time>2026-04-19T10:20:16.001Z</time></trkpt><trkpt lat="44.85922709974803" lon="8.026476972348872"><ele>296.0</ele><time>2026-04-19T10:20:17.001Z</time></trkpt><trkpt lat="44.85913267682525" lon="8.026569973775585"><ele>296.0</ele><time>2026-04-19T10:20:18.001Z</time></trkpt><trkpt lat="44.85902439187514" lon="8.026649103208213"><ele>296.6</ele><time>2026-04-19T10:20:19.001Z</time></trkpt><trkpt lat="44.85890827148445" lon="8.026733914214294"><ele>297.20000000000005</ele><time>2026-04-19T10:20:20.001Z</time></trkpt><trkpt lat="44.85881469920695" lon="8.026816497131023"><ele>297.79999999999995</ele><time>2026-04-19T10:20:21.001Z</time></trkpt><trkpt lat="44.85873741848523" lon="8.026891182978607"><ele>298.4</ele><time>2026-04-19T10:20:22.001Z</time></trkpt><trkpt lat="44.85866430175774" lon="8.02693892622849"><ele>299.0</ele><time>2026-04-19T10:20:23.001Z</time></trkpt><trkpt lat="44.85861340082345" lon="8.027029774733728"><ele>299.0</ele><time>2026-04-19T10:20:24.001Z</time></trkpt><trkpt lat="44.85855241088808" lon="8.027127605896524"><ele>299.0</ele><time>2026-04-19T10:20:25.001Z</time></trkpt><trkpt lat="44.858498856995425" lon="8.027213238024581"><ele>299.0</ele><time>2026-04-19T10:20:26.001Z</time></trkpt><trkpt lat="44.85844952349306" lon="8.027302718340767"><ele>299.0</ele><time>2026-04-19T10:20:27.001Z</time></trkpt><trkpt lat="44.858375951018715" lon="8.02738973730659"><ele>299.0</ele><time>2026-04-19T10:20:28.001Z</time></trkpt><trkpt lat="44.85829789462423" lon="8.027493542740402"><ele>297.59999999999997</ele><time>2026-04-19T10:20:29.001Z</time></trkpt><trkpt lat="44.8582523060282" lon="8.027603489194222"><ele>296.2</ele><time>2026-04-19T10:20:30.001Z</time></trkpt><trkpt lat="44.85816745191808" lon="8.027711472074715"><ele>294.79999999999995</ele><time>2026-04-19T10:20:31.001Z</time></trkpt><trkpt lat="44.85807454158235" lon="8.027816995333925"><ele>293.4</ele><time>2026-04-19T10:20:32.001Z</time></trkpt><trkpt lat="44.8579664592338" lon="8.027900464864349"><ele>292.0</ele><time>2026-04-19T10:20:33.001Z</time></trkpt><trkpt lat="44.857870726495015" lon="8.028011818547588"><ele>292.0</ele><time>2026-04-19T10:20:34.001Z</time></trkpt><trkpt lat="44.857802139732925" lon="8.02803229078868"><ele>292.0</ele><time>2026-04-19T10:20:36.001Z</time></trkpt><trkpt lat="44.85771490561671" lon="8.028047187580768"><ele>292.0</ele><time>2026-04-19T10:20:38.001Z</time></trkpt><trkpt lat="44.85762270077014" lon="8.027965418777404"><ele>292.0</ele><time>2026-04-19T10:20:39.001Z</time></trkpt><trkpt lat="44.85755726852049" lon="8.027884705321151"><ele>292.0</ele><time>2026-04-19T10:20:40.001Z</time></trkpt><trkpt lat="44.85747531171886" lon="8.02775282716393"><ele>290.6</ele><time>2026-04-19T10:20:41.001Z</time></trkpt><trkpt lat="44.857394741147516" lon="8.027681464713355"><ele>289.2</ele><time>2026-04-19T10:20:42.001Z</time></trkpt><trkpt lat="44.85730377674986" lon="8.027599260693949"><ele>287.8</ele><time>2026-04-19T10:20:43.001Z</time></trkpt><trkpt lat="44.85720562259429" lon="8.027532303663902"><ele>286.4</ele><time>2026-04-19T10:20:44.001Z</time></trkpt><trkpt lat="44.85711602225585" lon="8.027486214027316"><ele>285.0</ele><time>2026-04-19T10:20:45.001Z</time></trkpt><trkpt lat="44.85703385586992" lon="8.027469845652492"><ele>284.1666666666667</ele><time>2026-04-19T10:20:46.001Z</time></trkpt><trkpt lat="44.8569528677658" lon="8.027451649048327"><ele>283.3333333333333</ele><time>2026-04-19T10:20:47.001Z</time></trkpt><trkpt lat="44.85688067132483" lon="8.02742884127289"><ele>282.5</ele><time>2026-04-19T10:20:48.001Z</time></trkpt><trkpt lat="44.856843478097254" lon="8.027274266563733"><ele>281.66666666666663</ele><time>2026-04-19T10:20:51.001Z</time></trkpt><trkpt lat="44.856830292447796" lon="8.027186335815784"><ele>280.8333333333333</ele><time>2026-04-19T10:20:52.001Z</time></trkpt><trkpt lat="44.85683561257088" lon="8.02708166127425"><ele>280.0</ele><time>2026-04-19T10:20:53.001Z</time></trkpt><trkpt lat="44.85693127354156" lon="8.026982266654995"><ele>280.0</ele><time>2026-04-19T10:20:54.001Z</time></trkpt><trkpt lat="44.856933724572144" lon="8.026847330299868"><ele>280.0</ele><time>2026-04-19T10:20:55.001Z</time></trkpt><trkpt lat="44.85691951022751" lon="8.026714842171897"><ele>280.0</ele><time>2026-04-19T10:20:56.001Z</time></trkpt><trkpt lat="44.856928505886" lon="8.026581570360651"><ele>280.0</ele><time>2026-04-19T10:20:57.001Z</time></trkpt><trkpt lat="44.85693050678995" lon="8.026444033289113"><ele>280.0</ele><time>2026-04-19T10:20:58Z</time></trkpt><trkpt lat="44.85692454981267" lon="8.026315857120956"><ele>279.8333333333333</ele><time>2026-04-19T10:20:59Z</time></trkpt><trkpt lat="44.856917526371134" lon="8.026183469944176"><ele>279.66666666666663</ele><time>2026-04-19T10:21:00Z</time></trkpt><trkpt lat="44.8568763761926" lon="8.026042525554347"><ele>279.5</ele><time>2026-04-19T10:21:01Z</time></trkpt><trkpt lat="44.85685357779062" lon="8.025940394918633"><ele>279.3333333333333</ele><time>2026-04-19T10:21:02Z</time></trkpt><trkpt lat="44.856789459367725" lon="8.025879946753864"><ele>279.1666666666667</ele><time>2026-04-19T10:21:03Z</time></trkpt><trkpt lat="44.85673096409414" lon="8.025805488598863"><ele>279.0</ele><time>2026-04-19T10:21:04Z</time></trkpt><trkpt lat="44.8566666210983" lon="8.025736442915424"><ele>282.3333333333333</ele><time>2026-04-19T10:21:05Z</time></trkpt><trkpt lat="44.8565945691017" lon="8.025688180572224"><ele>285.6666666666667</ele><time>2026-04-19T10:21:06Z</time></trkpt><trkpt lat="44.85653509837237" lon="8.025642449868055"><ele>289.0</ele><time>2026-04-19T10:21:07Z</time></trkpt><trkpt lat="44.85647153767304" lon="8.025606513017923"><ele>292.33333333333337</ele><time>2026-04-19T10:21:08Z</time></trkpt><trkpt lat="44.85634489979316" lon="8.025647591926537"><ele>295.6666666666667</ele><time>2026-04-19T10:21:10Z</time></trkpt><trkpt lat="44.85627998617252" lon="8.025647591929497"><ele>299.0</ele><time>2026-04-19T10:21:11Z</time></trkpt><trkpt lat="44.85615072769577" lon="8.025639404480309"><ele>299.0</ele><time>2026-04-19T10:21:13Z</time></trkpt><trkpt lat="44.856062193191505" lon="8.02565413585835"><ele>299.0</ele><time>2026-04-19T10:21:15Z</time></trkpt><trkpt lat="44.855993569097436" lon="8.025676673105538"><ele>299.0</ele><time>2026-04-19T10:21:16Z</time></trkpt><trkpt lat="44.85592133357034" lon="8.02569251005483"><ele>299.0</ele><time>2026-04-19T10:21:17Z</time></trkpt><trkpt lat="44.85582972010451" lon="8.025716037515362"><ele>299.0</ele><time>2026-04-19T10:21:18Z</time></trkpt><trkpt lat="44.85572389152383" lon="8.025615839428125"><ele>298.2</ele><time>2026-04-19T10:21:20Z</time></trkpt><trkpt lat="44.8556280761048" lon="8.025537861328873"><ele>297.4</ele><time>2026-04-19T10:21:21Z</time></trkpt><trkpt lat="44.85556215475928" lon="8.02550184931186"><ele>296.6</ele><time>2026-04-19T10:21:22Z</time></trkpt><trkpt lat="44.85548179217145" lon="8.025441860414173"><ele>295.8</ele><time>2026-04-19T10:21:23Z</time></trkpt><trkpt lat="44.85539875231026" lon="8.025387525507307"><ele>295.0</ele><time>2026-04-19T10:21:24Z</time></trkpt><trkpt lat="44.855303927281035" lon="8.025336618297391"><ele>295.0</ele><time>2026-04-19T10:21:25Z</time></trkpt><trkpt lat="44.855204000532396" lon="8.025305510348595"><ele>295.0</ele><time>2026-04-19T10:21:26Z</time></trkpt><trkpt lat="44.85511699316203" lon="8.02527326105748"><ele>295.0</ele><time>2026-04-19T10:21:27Z</time></trkpt><trkpt lat="44.855043822066264" lon="8.025240963078158"><ele>295.0</ele><time>2026-04-19T10:21:28Z</time></trkpt><trkpt lat="44.85490851787234" lon="8.025202544107348"><ele>295.0</ele><time>2026-04-19T10:21:30Z</time></trkpt><trkpt lat="44.85482643288866" lon="8.025177831061162"><ele>293.3333333333333</ele><time>2026-04-19T10:21:31Z</time></trkpt><trkpt lat="44.85473699368874" lon="8.0251497548404"><ele>291.66666666666663</ele><time>2026-04-19T10:21:32Z</time></trkpt><trkpt lat="44.85465608622304" lon="8.025125348714415"><ele>290.0</ele><time>2026-04-19T10:21:33Z</time></trkpt><trkpt lat="44.854583816079135" lon="8.025075346998355"><ele>288.3333333333333</ele><time>2026-04-19T10:21:34Z</time></trkpt><trkpt lat="44.85454266782317" lon="8.024980728746899"><ele>286.6666666666667</ele><time>2026-04-19T10:21:35Z</time></trkpt><trkpt lat="44.85452740376022" lon="8.024868655361745"><ele>285.0</ele><time>2026-04-19T10:21:36Z</time></trkpt><trkpt lat="44.8544769946986" lon="8.02473660566184"><ele>284.4</ele><time>2026-04-19T10:21:37Z</time></trkpt><trkpt lat="44.854442133885144" lon="8.024597687150884"><ele>283.8</ele><time>2026-04-19T10:21:38Z</time></trkpt><trkpt lat="44.85437647958287" lon="8.024494719928313"><ele>283.2</ele><time>2026-04-19T10:21:39Z</time></trkpt><trkpt lat="44.85428664220468" lon="8.0244024926365"><ele>282.6</ele><time>2026-04-19T10:21:40Z</time></trkpt><trkpt lat="44.85418181312958" lon="8.024311983104873"><ele>282.0</ele><time>2026-04-19T10:21:41Z</time></trkpt><trkpt lat="44.85408543271343" lon="8.02425253023457"><ele>281.75</ele><time>2026-04-19T10:21:42Z</time></trkpt><trkpt lat="44.853982722176326" lon="8.024198564686834"><ele>281.5</ele><time>2026-04-19T10:21:43Z</time></trkpt><trkpt lat="44.85387374485944" lon="8.024119896313557"><ele>281.25</ele><time>2026-04-19T10:21:44Z</time></trkpt><trkpt lat="44.85376991433489" lon="8.024035829181425"><ele>281.0</ele><time>2026-04-19T10:21:45Z</time></trkpt><trkpt lat="44.85366735126171" lon="8.023955131529904"><ele>280.6</ele><time>2026-04-19T10:21:46Z</time></trkpt><trkpt lat="44.853566464927475" lon="8.023887805376422"><ele>280.20000000000005</ele><time>2026-04-19T10:21:47Z</time></trkpt><trkpt lat="44.85346511599029" lon="8.023820056479654"><ele>279.79999999999995</ele><time>2026-04-19T10:21:48Z</time></trkpt><trkpt lat="44.85337299167606" lon="8.023744432167035"><ele>279.4</ele><time>2026-04-19T10:21:49Z</time></trkpt><trkpt lat="44.853289794680094" lon="8.023635109034473"><ele>279.0</ele><time>2026-04-19T10:21:50Z</time></trkpt><trkpt lat="44.85322626494368" lon="8.02354512885169"><ele>279.0</ele><time>2026-04-19T10:21:51Z</time></trkpt><trkpt lat="44.85315311697642" lon="8.023446570738601"><ele>279.0</ele><time>2026-04-19T10:21:52Z</time></trkpt><trkpt lat="44.85307543998321" lon="8.023356019724794"><ele>279.0</ele><time>2026-04-19T10:21:53Z</time></trkpt><trkpt lat="44.85300151548639" lon="8.023283904641724"><ele>279.0</ele><time>2026-04-19T10:21:54Z</time></trkpt><trkpt lat="44.8529171296093" lon="8.023207502396739"><ele>279.0</ele><time>2026-04-19T10:21:55Z</time></trkpt><trkpt lat="44.85283059322858" lon="8.023114428243263"><ele>277.59999999999997</ele><time>2026-04-19T10:21:56Z</time></trkpt><trkpt lat="44.852745464163156" lon="8.02304115652403"><ele>276.2</ele><time>2026-04-19T10:21:57Z</time></trkpt><trkpt lat="44.85266355951416" lon="8.022957129929932"><ele>274.79999999999995</ele><time>2026-04-19T10:21:58Z</time></trkpt><trkpt lat="44.85258974666438" lon="8.022879768833587"><ele>273.4</ele><time>2026-04-19T10:21:59Z</time></trkpt><trkpt lat="44.85252498806892" lon="8.022840345796482"><ele>272.0</ele><time>2026-04-19T10:22:00Z</time></trkpt><trkpt lat="44.85253528057733" lon="8.022657441293669"><ele>272.0</ele><time>2026-04-19T10:22:02Z</time></trkpt><trkpt lat="44.852526726102894" lon="8.022554790949526"><ele>272.0</ele><time>2026-04-19T10:22:03Z</time></trkpt><trkpt lat="44.85253395417337" lon="8.022440411241332"><ele>272.0</ele><time>2026-04-19T10:22:05Z</time></trkpt><trkpt lat="44.85271532381751" lon="8.022337997313858"><ele>272.0</ele><time>2026-04-19T10:22:07Z</time></trkpt><trkpt lat="44.852803044481" lon="8.02238650792776"><ele>272.0</ele><time>2026-04-19T10:22:08Z</time></trkpt><trkpt lat="44.852868023350425" lon="8.022483018084978"><ele>271.8</ele><time>2026-04-19T10:22:09Z</time></trkpt><trkpt lat="44.85288980025467" lon="8.022597223237028"><ele>271.6</ele><time>2026-04-19T10:22:10.001Z</time></trkpt><trkpt lat="44.852946710698866" lon="8.022663315010496"><ele>271.40000000000003</ele><time>2026-04-19T10:22:11.001Z</time></trkpt><trkpt lat="44.853041593648925" lon="8.02267346055893"><ele>271.2</ele><time>2026-04-19T10:22:12.001Z</time></trkpt><trkpt lat="44.85315122807702" lon="8.022655990790415"><ele>271.0</ele><time>2026-04-19T10:22:13.001Z</time></trkpt><trkpt lat="44.85326269073994" lon="8.022635965916786"><ele>271.0</ele><time>2026-04-19T10:22:14.001Z</time></trkpt><trkpt lat="44.85332187792682" lon="8.022675664052702"><ele>271.0</ele><time>2026-04-19T10:22:15.001Z</time></trkpt><trkpt lat="44.853385831087664" lon="8.022746557220032"><ele>271.0</ele><time>2026-04-19T10:22:16.001Z</time></trkpt><trkpt lat="44.85346247851599" lon="8.022703819748205"><ele>271.0</ele><time>2026-04-19T10:22:17.001Z</time></trkpt><trkpt lat="44.85353989129395" lon="8.02264540254932"><ele>271.0</ele><time>2026-04-19T10:22:18.001Z</time></trkpt><trkpt lat="44.85366685054516" lon="8.022618702834105"><ele>271.0</ele><time>2026-04-19T10:22:19.001Z</time></trkpt><trkpt lat="44.853729640561326" lon="8.022561684934873"><ele>269.66666666666663</ele><time>2026-04-19T10:22:20.001Z</time></trkpt><trkpt lat="44.85370778780637" lon="8.022678658613478"><ele>268.3333333333333</ele><time>2026-04-19T10:22:21.001Z</time></trkpt><trkpt lat="44.85376998705115" lon="8.022719961433012"><ele>267.0</ele><time>2026-04-19T10:22:22.001Z</time></trkpt><trkpt lat="44.85384162176988" lon="8.022736376807071"><ele>265.6666666666667</ele><time>2026-04-19T10:22:23.001Z</time></trkpt><trkpt lat="44.85392951018221" lon="8.022726321400878"><ele>264.33333333333337</ele><time>2026-04-19T10:22:24.001Z</time></trkpt><trkpt lat="44.854010348200404" lon="8.022741444527481"><ele>263.0</ele><time>2026-04-19T10:22:25.001Z</time></trkpt><trkpt lat="44.854119553593634" lon="8.022733139660163"><ele>263.0</ele><time>2026-04-19T10:22:26.001Z</time></trkpt><trkpt lat="44.85423259192242" lon="8.022709116862154"><ele>263.0</ele><time>2026-04-19T10:22:27.001Z</time></trkpt><trkpt lat="44.85430003113468" lon="8.022697613921201"><ele>263.0</ele><time>2026-04-19T10:22:28.001Z</time></trkpt><trkpt lat="44.85438641533686" lon="8.022687712852315"><ele>263.0</ele><time>2026-04-19T10:22:29.001Z</time></trkpt><trkpt lat="44.854486154258794" lon="8.022681826283723"><ele>263.0</ele><time>2026-04-19T10:22:30.001Z</time></trkpt><trkpt lat="44.85459098079931" lon="8.02268968284363"><ele>262.2</ele><time>2026-04-19T10:22:31.001Z</time></trkpt><trkpt lat="44.85469513569014" lon="8.02267384175871"><ele>261.4</ele><time>2026-04-19T10:22:32.001Z</time></trkpt><trkpt lat="44.854787479840496" lon="8.022660098585698"><ele>260.59999999999997</ele><time>2026-04-19T10:22:33.001Z</time></trkpt><trkpt lat="44.85489555166198" lon="8.022624481545494"><ele>259.8</ele><time>2026-04-19T10:22:34.017Z</time></trkpt><trkpt lat="44.85498621804869" lon="8.022546207619314"><ele>259.0</ele><time>2026-04-19T10:22:35.024Z</time></trkpt><trkpt lat="44.85508235148027" lon="8.022523111239783"><ele>258.2</ele><time>2026-04-19T10:22:36.016Z</time></trkpt><trkpt lat="44.85512959968223" lon="8.022460723974369"><ele>257.4</ele><time>2026-04-19T10:22:37.022Z</time></trkpt><trkpt lat="44.855185606725435" lon="8.022343839563932"><ele>256.6</ele><time>2026-04-19T10:22:38.021Z</time></trkpt><trkpt lat="44.85527199103677" lon="8.022267114967699"><ele>255.8</ele><time>2026-04-19T10:22:39.016Z</time></trkpt><trkpt lat="44.8553479670274" lon="8.02216939262665"><ele>255.0</ele><time>2026-04-19T10:22:40.001Z</time></trkpt><trkpt lat="44.85542164908677" lon="8.022082356111513"><ele>255.0</ele><time>2026-04-19T10:22:41.001Z</time></trkpt><trkpt lat="44.855507479086235" lon="8.02198170698395"><ele>255.0</ele><time>2026-04-19T10:22:42.001Z</time></trkpt><trkpt lat="44.85554699316001" lon="8.021907911351358"><ele>255.0</ele><time>2026-04-19T10:22:43.001Z</time></trkpt><trkpt lat="44.85561736730808" lon="8.021828656562242"><ele>255.0</ele><time>2026-04-19T10:22:44.001Z</time></trkpt><trkpt lat="44.85567484788064" lon="8.02173405906017"><ele>255.0</ele><time>2026-04-19T10:22:45.001Z</time></trkpt><trkpt lat="44.85574168293858" lon="8.021638831020553"><ele>255.2</ele><time>2026-04-19T10:22:46.001Z</time></trkpt><trkpt lat="44.855782419520686" lon="8.021502874534534"><ele>255.4</ele><time>2026-04-19T10:22:47.001Z</time></trkpt><trkpt lat="44.85583962597125" lon="8.021348598069013"><ele>255.60000000000002</ele><time>2026-04-19T10:22:48.001Z</time></trkpt><trkpt lat="44.85588877040164" lon="8.021221522368963"><ele>255.8</ele><time>2026-04-19T10:22:49.001Z</time></trkpt><trkpt lat="44.85597884953158" lon="8.021224488733262"><ele>256.0</ele><time>2026-04-19T10:22:50.001Z</time></trkpt><trkpt lat="44.856043082926206" lon="8.021112128385957"><ele>254.0</ele><time>2026-04-19T10:22:51.001Z</time></trkpt><trkpt lat="44.85615678628059" lon="8.021062921261196"><ele>252.0</ele><time>2026-04-19T10:22:52.001Z</time></trkpt><trkpt lat="44.85624475833411" lon="8.02098161813361"><ele>250.0</ele><time>2026-04-19T10:22:53.001Z</time></trkpt><trkpt lat="44.85639188940967" lon="8.020956303945715"><ele>248.0</ele><time>2026-04-19T10:22:54.001Z</time></trkpt><trkpt lat="44.85645819792775" lon="8.020858715052038"><ele>247.60000000000002</ele><time>2026-04-19T10:22:55.001Z</time></trkpt><trkpt lat="44.85652927262781" lon="8.02079944288501"><ele>247.20000000000002</ele><time>2026-04-19T10:22:56.001Z</time></trkpt><trkpt lat="44.85658573576484" lon="8.02068942325286"><ele>246.8</ele><time>2026-04-19T10:22:57.001Z</time></trkpt><trkpt lat="44.856650491649134" lon="8.020562770184664"><ele>246.4</ele><time>2026-04-19T10:22:58.001Z</time></trkpt><trkpt lat="44.856740880144486" lon="8.020473657200164"><ele>246.0</ele><time>2026-04-19T10:22:59.001Z</time></trkpt><trkpt lat="44.8568243104966" lon="8.020390450677862"><ele>246.0</ele><time>2026-04-19T10:23:00.001Z</time></trkpt><trkpt lat="44.856904157582385" lon="8.020295918252238"><ele>246.0</ele><time>2026-04-19T10:23:01.001Z</time></trkpt><trkpt lat="44.8570833174181" lon="8.020311280324329"><ele>246.0</ele><time>2026-04-19T10:23:02.001Z</time></trkpt><trkpt lat="44.85720516514545" lon="8.020292762105491"><ele>246.0</ele><time>2026-04-19T10:23:03.001Z</time></trkpt><trkpt lat="44.8573368140724" lon="8.020280939046867"><ele>246.0</ele><time>2026-04-19T10:23:04Z</time></trkpt><trkpt lat="44.85749929681446" lon="8.020273209236588"><ele>246.0</ele><time>2026-04-19T10:23:05Z</time></trkpt><trkpt lat="44.857644453548986" lon="8.020234903587701"><ele>246.0</ele><time>2026-04-19T10:23:06Z</time></trkpt><trkpt lat="44.857743742079265" lon="8.020162832961478"><ele>246.0</ele><time>2026-04-19T10:23:07Z</time></trkpt><trkpt lat="44.857888093486416" lon="8.020141275115119"><ele>245.75</ele><time>2026-04-19T10:23:08Z</time></trkpt><trkpt lat="44.8580118918452" lon="8.020113038919563"><ele>245.5</ele><time>2026-04-19T10:23:09Z</time></trkpt><trkpt lat="44.8581215780638" lon="8.020095416061226"><ele>245.25</ele><time>2026-04-19T10:23:10Z</time></trkpt><trkpt lat="44.85823937634349" lon="8.02007840891155"><ele>245.0</ele><time>2026-04-19T10:23:11Z</time></trkpt><trkpt lat="44.85839222571453" lon="8.020069528155078"><ele>243.0</ele><time>2026-04-19T10:23:12Z</time></trkpt><trkpt lat="44.858493748166744" lon="8.020092476984136"><ele>241.0</ele><time>2026-04-19T10:23:13Z</time></trkpt><trkpt lat="44.858624288255996" lon="8.020097768254818"><ele>239.0</ele><time>2026-04-19T10:23:14Z</time></trkpt><trkpt lat="44.8586780071437" lon="8.020255691242943"><ele>237.0</ele><time>2026-04-19T10:23:15Z</time></trkpt><trkpt lat="44.85875032104291" lon="8.020316568435401"><ele>235.0</ele><time>2026-04-19T10:23:16Z</time></trkpt><trkpt lat="44.85884234368163" lon="8.020449489784205"><ele>235.0</ele><time>2026-04-19T10:23:18Z</time></trkpt><trkpt lat="44.85893518602809" lon="8.020495625463813"><ele>235.0</ele><time>2026-04-19T10:23:19Z</time></trkpt><trkpt lat="44.859018092752976" lon="8.020393704452973"><ele>235.0</ele><time>2026-04-19T10:23:20Z</time></trkpt><trkpt lat="44.85903222600422" lon="8.020296049980878"><ele>235.0</ele><time>2026-04-19T10:23:21Z</time></trkpt><trkpt lat="44.859083302730035" lon="8.020166507179873"><ele>235.0</ele><time>2026-04-19T10:23:23Z</time></trkpt><trkpt lat="44.85916408938594" lon="8.02010164976565"><ele>234.99999999999997</ele><time>2026-04-19T10:23:25Z</time></trkpt><trkpt lat="44.859190935943886" lon="8.020021144139337"><ele>235.0</ele><time>2026-04-19T10:23:27Z</time></trkpt><trkpt lat="44.85922265022691" lon="8.019929842642032"><ele>235.0</ele><time>2026-04-19T10:23:28Z</time></trkpt><trkpt lat="44.859255608284364" lon="8.019842178093487"><ele>235.0</ele><time>2026-04-19T10:23:29Z</time></trkpt><trkpt lat="44.85929656384067" lon="8.019767265511167"><ele>234.99999999999997</ele><time>2026-04-19T10:23:30Z</time></trkpt><trkpt lat="44.85936310218378" lon="8.019686798790882"><ele>235.0</ele><time>2026-04-19T10:23:31Z</time></trkpt><trkpt lat="44.859446210391425" lon="8.019563815468286"><ele>234.0</ele><time>2026-04-19T10:23:32Z</time></trkpt><trkpt lat="44.85950527024289" lon="8.019432811386594"><ele>233.0</ele><time>2026-04-19T10:23:33Z</time></trkpt><trkpt lat="44.85956764438726" lon="8.019305832010636"><ele>232.0</ele><time>2026-04-19T10:23:34Z</time></trkpt><trkpt lat="44.85964366394462" lon="8.019186493577337"><ele>231.0</ele><time>2026-04-19T10:23:35Z</time></trkpt><trkpt lat="44.859690587442486" lon="8.019088496806658"><ele>230.0</ele><time>2026-04-19T10:23:36Z</time></trkpt><trkpt lat="44.859678083522915" lon="8.01890372641198"><ele>230.0</ele><time>2026-04-19T10:23:38Z</time></trkpt><trkpt lat="44.859635020905124" lon="8.01878772202073"><ele>230.0</ele><time>2026-04-19T10:23:39Z</time></trkpt><trkpt lat="44.85964379110807" lon="8.018642910729113"><ele>230.0</ele><time>2026-04-19T10:23:40Z</time></trkpt><trkpt lat="44.85968443362372" lon="8.018500127707227"><ele>230.0</ele><time>2026-04-19T10:23:41Z</time></trkpt><trkpt lat="44.8597104377448" lon="8.018385786316571"><ele>230.0</ele><time>2026-04-19T10:23:42Z</time></trkpt><trkpt lat="44.85975968961286" lon="8.018285779079672"><ele>231.2</ele><time>2026-04-19T10:23:43Z</time></trkpt><trkpt lat="44.85981790289799" lon="8.018190395007862"><ele>232.4</ele><time>2026-04-19T10:23:44Z</time></trkpt><trkpt lat="44.859890780666376" lon="8.018099544492198"><ele>233.60000000000002</ele><time>2026-04-19T10:23:45Z</time></trkpt><trkpt lat="44.859992231755776" lon="8.01799185792172"><ele>234.8</ele><time>2026-04-19T10:23:46Z</time></trkpt><trkpt lat="44.860071373024596" lon="8.01790858885195"><ele>236.0</ele><time>2026-04-19T10:23:47Z</time></trkpt><trkpt lat="44.860125482141406" lon="8.017849227105561"><ele>236.0</ele><time>2026-04-19T10:23:48Z</time></trkpt><trkpt lat="44.860087311805735" lon="8.017769135095762"><ele>236.00000000000003</ele><time>2026-04-19T10:23:58Z</time></trkpt><trkpt lat="44.860034658143995" lon="8.017644393485838"><ele>236.00000000000003</ele><time>2026-04-19T10:24:00Z</time></trkpt><trkpt lat="44.86001343075297" lon="8.017504035566484"><ele>236.0</ele><time>2026-04-19T10:24:01Z</time></trkpt><trkpt lat="44.859998445220185" lon="8.017386586657144"><ele>236.0</ele><time>2026-04-19T10:24:02Z</time></trkpt><trkpt lat="44.85993791771272" lon="8.017278071569335"><ele>236.5</ele><time>2026-04-19T10:24:03.001Z</time></trkpt><trkpt lat="44.85982188529472" lon="8.01713125465106"><ele>237.0</ele><time>2026-04-19T10:24:04.001Z</time></trkpt><trkpt lat="44.85974465793941" lon="8.01708009204582"><ele>237.5</ele><time>2026-04-19T10:24:05.001Z</time></trkpt><trkpt lat="44.85964274321153" lon="8.017024305660605"><ele>238.0</ele><time>2026-04-19T10:24:06.001Z</time></trkpt><trkpt lat="44.859518450528306" lon="8.01704922704352"><ele>238.0</ele><time>2026-04-19T10:24:07.001Z</time></trkpt><trkpt lat="44.859407096858476" lon="8.017034419563306"><ele>238.0</ele><time>2026-04-19T10:24:08.001Z</time></trkpt><trkpt lat="44.859259290440384" lon="8.017106607072906"><ele>238.0</ele><time>2026-04-19T10:24:09.001Z</time></trkpt><trkpt lat="44.85912354002141" lon="8.017171537224552"><ele>238.0</ele><time>2026-04-19T10:24:10.001Z</time></trkpt><trkpt lat="44.858987316650186" lon="8.017260272672054"><ele>238.75</ele><time>2026-04-19T10:24:11.001Z</time></trkpt><trkpt lat="44.85887516178832" lon="8.01735656694817"><ele>239.5</ele><time>2026-04-19T10:24:12.001Z</time></trkpt><trkpt lat="44.858750643866436" lon="8.017429137702374"><ele>240.25</ele><time>2026-04-19T10:24:13.001Z</time></trkpt><trkpt lat="44.85861709018687" lon="8.017493067706736"><ele>241.0</ele><time>2026-04-19T10:24:14.001Z</time></trkpt><trkpt lat="44.85849773776232" lon="8.017574194673763"><ele>243.60000000000002</ele><time>2026-04-19T10:24:15.001Z</time></trkpt><trkpt lat="44.858396262415" lon="8.017688061691482"><ele>246.20000000000002</ele><time>2026-04-19T10:24:16.001Z</time></trkpt><trkpt lat="44.85831060649629" lon="8.01779848398364"><ele>248.79999999999998</ele><time>2026-04-19T10:24:17.001Z</time></trkpt><trkpt lat="44.858292656394276" lon="8.017945481151614"><ele>251.39999999999998</ele><time>2026-04-19T10:24:19.001Z</time></trkpt><trkpt lat="44.85824098374819" lon="8.01786685609828"><ele>254.0</ele><time>2026-04-19T10:24:23.001Z</time></trkpt><trkpt lat="44.85814745177324" lon="8.017879964860748"><ele>254.0</ele><time>2026-04-19T10:24:25.001Z</time></trkpt><trkpt lat="44.858102792439894" lon="8.017777934845682"><ele>253.99999999999997</ele><time>2026-04-19T10:24:27.001Z</time></trkpt><trkpt lat="44.85813933006138" lon="8.017688569258494"><ele>253.99999999999997</ele><time>2026-04-19T10:24:30.001Z</time></trkpt><trkpt lat="44.858112423688745" lon="8.017561653410757"><ele>254.0</ele><time>2026-04-19T10:24:34.001Z</time></trkpt><trkpt lat="44.85820893166244" lon="8.01738021115584"><ele>254.0</ele><time>2026-04-19T10:24:36.001Z</time></trkpt><trkpt lat="44.85825230628571" lon="8.017275937746527"><ele>253.66666666666669</ele><time>2026-04-19T10:24:37.001Z</time></trkpt><trkpt lat="44.858251753119546" lon="8.017117987657112"><ele>253.33333333333334</ele><time>2026-04-19T10:24:38.001Z</time></trkpt><trkpt lat="44.858294450859596" lon="8.016971061537927"><ele>253.0</ele><time>2026-04-19T10:24:39.001Z</time></trkpt><trkpt lat="44.858307624459194" lon="8.016865169199535"><ele>252.66666666666669</ele><time>2026-04-19T10:24:40.001Z</time></trkpt><trkpt lat="44.858376401502504" lon="8.016824690642936"><ele>252.33333333333334</ele><time>2026-04-19T10:24:41.001Z</time></trkpt><trkpt lat="44.858446885717655" lon="8.016812564902361"><ele>252.0</ele><time>2026-04-19T10:24:42.001Z</time></trkpt><trkpt lat="44.85854790688818" lon="8.016841104497168"><ele>250.83333333333334</ele><time>2026-04-19T10:24:43.001Z</time></trkpt><trkpt lat="44.85862051804423" lon="8.016840303598702"><ele>249.66666666666669</ele><time>2026-04-19T10:24:44.001Z</time></trkpt><trkpt lat="44.85872869682677" lon="8.016780124928768"><ele>248.5</ele><time>2026-04-19T10:24:46.001Z</time></trkpt><trkpt lat="44.85881190011376" lon="8.016749829805464"><ele>247.33333333333334</ele><time>2026-04-19T10:24:48.001Z</time></trkpt><trkpt lat="44.85880997214104" lon="8.016641015699639"><ele>246.16666666666669</ele><time>2026-04-19T10:24:49.001Z</time></trkpt><trkpt lat="44.85882416431215" lon="8.016550735837747"><ele>245.0</ele><time>2026-04-19T10:24:50.001Z</time></trkpt><trkpt lat="44.85879464853989" lon="8.016408869562069"><ele>245.0</ele><time>2026-04-19T10:24:52.001Z</time></trkpt><trkpt lat="44.85877343862357" lon="8.0163112919209"><ele>245.0</ele><time>2026-04-19T10:24:54.001Z</time></trkpt><trkpt lat="44.858823569084365" lon="8.016217308895508"><ele>245.0</ele><time>2026-04-19T10:24:57.001Z</time></trkpt><trkpt lat="44.858760505905344" lon="8.016190106670047"><ele>245.0</ele><time>2026-04-19T10:24:58.001Z</time></trkpt><trkpt lat="44.85870769047862" lon="8.016132430749055"><ele>245.0</ele><time>2026-04-19T10:25:01.001Z</time></trkpt><trkpt lat="44.85864557167126" lon="8.01615438986175"><ele>245.0</ele><time>2026-04-19T10:25:03.001Z</time></trkpt><trkpt lat="44.85855491723159" lon="8.016180911241559"><ele>245.0</ele><time>2026-04-19T10:25:08.001Z</time></trkpt><trkpt lat="44.85842665996161" lon="8.016242848156985"><ele>246.8</ele><time>2026-04-19T10:25:10Z</time></trkpt><trkpt lat="44.85834073202303" lon="8.016220632487538"><ele>248.6</ele><time>2026-04-19T10:25:11Z</time></trkpt><trkpt lat="44.858274580127436" lon="8.01616611218003"><ele>250.39999999999998</ele><time>2026-04-19T10:25:12Z</time></trkpt><trkpt lat="44.85818733781112" lon="8.016133413673897"><ele>252.2</ele><time>2026-04-19T10:25:14Z</time></trkpt><trkpt lat="44.858079136624525" lon="8.016080065904049"><ele>254.0</ele><time>2026-04-19T10:25:16Z</time></trkpt><trkpt lat="44.85797551098454" lon="8.016014896175031"><ele>254.00000000000003</ele><time>2026-04-19T10:25:18Z</time></trkpt><trkpt lat="44.85788088009686" lon="8.016005622612212"><ele>254.0</ele><time>2026-04-19T10:25:20Z</time></trkpt><trkpt lat="44.857784910652924" lon="8.015925396165848"><ele>254.0</ele><time>2026-04-19T10:25:27Z</time></trkpt><trkpt lat="44.85772516648374" lon="8.015883835824392"><ele>254.0</ele><time>2026-04-19T10:25:28Z</time></trkpt><trkpt lat="44.85766125689548" lon="8.01582459901195"><ele>254.00000000000003</ele><time>2026-04-19T10:25:29Z</time></trkpt><trkpt lat="44.85761874806144" lon="8.015758094115439"><ele>254.0</ele><time>2026-04-19T10:25:30Z</time></trkpt><trkpt lat="44.857534881997964" lon="8.015691383491692"><ele>253.16666666666669</ele><time>2026-04-19T10:25:32Z</time></trkpt><trkpt lat="44.85747237665678" lon="8.015669778262946"><ele>252.33333333333334</ele><time>2026-04-19T10:25:33Z</time></trkpt><trkpt lat="44.85745167425363" lon="8.015576990402382"><ele>251.5</ele><time>2026-04-19T10:25:35Z</time></trkpt><trkpt lat="44.85743805537813" lon="8.015475063462516"><ele>250.66666666666669</ele><time>2026-04-19T10:25:37Z</time></trkpt><trkpt lat="44.85740384148252" lon="8.015327580538198"><ele>249.83333333333334</ele><time>2026-04-19T10:25:39Z</time></trkpt><trkpt lat="44.85744170207421" lon="8.01519393204341"><ele>249.0</ele><time>2026-04-19T10:25:41Z</time></trkpt><trkpt lat="44.8574117510791" lon="8.01508574203871"><ele>246.2</ele><time>2026-04-19T10:25:43Z</time></trkpt><trkpt lat="44.857369748238455" lon="8.014968166796988"><ele>243.39999999999998</ele><time>2026-04-19T10:25:45Z</time></trkpt><trkpt lat="44.85737777619463" lon="8.014853266105618"><ele>240.6</ele><time>2026-04-19T10:25:47Z</time></trkpt><trkpt lat="44.857298153839565" lon="8.01488810098223"><ele>237.8</ele><time>2026-04-19T10:25:49Z</time></trkpt><trkpt lat="44.85721275899939" lon="8.014879112628943"><ele>235.0</ele><time>2026-04-19T10:25:51Z</time></trkpt><trkpt lat="44.85716719837112" lon="8.014739576283736"><ele>235.0</ele><time>2026-04-19T10:25:55Z</time></trkpt><trkpt lat="44.85708526020148" lon="8.01461419655237"><ele>235.0</ele><time>2026-04-19T10:25:56Z</time></trkpt><trkpt lat="44.85700961199424" lon="8.014589210680136"><ele>235.0</ele><time>2026-04-19T10:25:57Z</time></trkpt><trkpt lat="44.85697920476957" lon="8.014696808564933"><ele>235.0</ele><time>2026-04-19T10:25:59Z</time></trkpt><trkpt lat="44.85688856994824" lon="8.014636726094512"><ele>235.0</ele><time>2026-04-19T10:26:02Z</time></trkpt><trkpt lat="44.856832183281014" lon="8.014489107353663"><ele>235.0</ele><time>2026-04-19T10:26:05Z</time></trkpt><trkpt lat="44.85686836375382" lon="8.014362046170165"><ele>235.0</ele><time>2026-04-19T10:26:08Z</time></trkpt><trkpt lat="44.856902783069415" lon="8.014283996677758"><ele>235.0</ele><time>2026-04-19T10:26:11.001Z</time></trkpt><trkpt lat="44.85696575753168" lon="8.014064822777547"><ele>235.0</ele><time>2026-04-19T10:26:12.001Z</time></trkpt><trkpt lat="44.85700437712633" lon="8.013969291219052"><ele>235.0</ele><time>2026-04-19T10:26:14.001Z</time></trkpt><trkpt lat="44.856944372852276" lon="8.01402326212832"><ele>235.0</ele><time>2026-04-19T10:26:19.001Z</time></trkpt><trkpt lat="44.856858344010185" lon="8.014065091675608"><ele>235.0</ele><time>2026-04-19T10:26:21.001Z</time></trkpt><trkpt lat="44.856771528777536" lon="8.014125803429192"><ele>235.0</ele><time>2026-04-19T10:26:22.001Z</time></trkpt><trkpt lat="44.85661509119768" lon="8.014212043413083"><ele>235.0</ele><time>2026-04-19T10:26:23.001Z</time></trkpt><trkpt lat="44.856497342410904" lon="8.014272439019294"><ele>236.0</ele><time>2026-04-19T10:26:24.001Z</time></trkpt><trkpt lat="44.856327351300855" lon="8.014315666248697"><ele>237.0</ele><time>2026-04-19T10:26:25.001Z</time></trkpt><trkpt lat="44.85621171096331" lon="8.014316987514485"><ele>238.0</ele><time>2026-04-19T10:26:26.001Z</time></trkpt><trkpt lat="44.85612183802355" lon="8.014405114701649"><ele>239.0</ele><time>2026-04-19T10:26:27.001Z</time></trkpt><trkpt lat="44.856016808936715" lon="8.01446782824758"><ele>241.0</ele><time>2026-04-19T10:26:28.001Z</time></trkpt><trkpt lat="44.855941150309235" lon="8.014532847333863"><ele>242.99999999999997</ele><time>2026-04-19T10:26:29.001Z</time></trkpt><trkpt lat="44.85584624776238" lon="8.014606334433086"><ele>244.99999999999997</ele><time>2026-04-19T10:26:30.001Z</time></trkpt><trkpt lat="44.85574081631908" lon="8.01466742000602"><ele>247.0</ele><time>2026-04-19T10:26:31.001Z</time></trkpt><trkpt lat="44.855638561507085" lon="8.014710187550989"><ele>249.0</ele><time>2026-04-19T10:26:32.001Z</time></trkpt><trkpt lat="44.85552582263136" lon="8.014757372266159"><ele>249.0</ele><time>2026-04-19T10:26:33.001Z</time></trkpt><trkpt lat="44.85542795514389" lon="8.014774808292863"><ele>248.99999999999997</ele><time>2026-04-19T10:26:34.001Z</time></trkpt><trkpt lat="44.85533860313702" lon="8.014783889231266"><ele>248.99999999999997</ele><time>2026-04-19T10:26:35.001Z</time></trkpt><trkpt lat="44.855235303241365" lon="8.014774826562373"><ele>249.0</ele><time>2026-04-19T10:26:36.001Z</time></trkpt><trkpt lat="44.85513952115509" lon="8.01479699319769"><ele>249.0</ele><time>2026-04-19T10:26:37.001Z</time></trkpt><trkpt lat="44.85503090208872" lon="8.014795987970787"><ele>248.33333333333334</ele><time>2026-04-19T10:26:38.001Z</time></trkpt><trkpt lat="44.85494671402274" lon="8.01483574732792"><ele>247.66666666666669</ele><time>2026-04-19T10:26:39.001Z</time></trkpt><trkpt lat="44.85487546821507" lon="8.014886779932556"><ele>247.0</ele><time>2026-04-19T10:26:40.001Z</time></trkpt><trkpt lat="44.854790209977395" lon="8.014950144926003"><ele>246.33333333333334</ele><time>2026-04-19T10:26:41.001Z</time></trkpt><trkpt lat="44.85471907050842" lon="8.014985063242293"><ele>245.66666666666669</ele><time>2026-04-19T10:26:42.001Z</time></trkpt><trkpt lat="44.85466187318776" lon="8.01505320289726"><ele>245.0</ele><time>2026-04-19T10:26:43.001Z</time></trkpt><trkpt lat="44.85457554361793" lon="8.015111004946144"><ele>246.8</ele><time>2026-04-19T10:26:44.001Z</time></trkpt><trkpt lat="44.85448856444194" lon="8.015141981052645"><ele>248.6</ele><time>2026-04-19T10:26:45.001Z</time></trkpt><trkpt lat="44.854384052947125" lon="8.015192789657306"><ele>250.39999999999998</ele><time>2026-04-19T10:26:46.001Z</time></trkpt><trkpt lat="44.85427549601545" lon="8.015262001665425"><ele>252.2</ele><time>2026-04-19T10:26:47.001Z</time></trkpt><trkpt lat="44.854172011589796" lon="8.015316111286007"><ele>254.0</ele><time>2026-04-19T10:26:48.001Z</time></trkpt><trkpt lat="44.85410954540944" lon="8.015400138181159"><ele>254.0</ele><time>2026-04-19T10:26:49.001Z</time></trkpt><trkpt lat="44.854033566487686" lon="8.015465933416495"><ele>253.99999999999997</ele><time>2026-04-19T10:26:50.001Z</time></trkpt><trkpt lat="44.85396258451609" lon="8.015549706817147"><ele>253.99999999999997</ele><time>2026-04-19T10:26:51.001Z</time></trkpt><trkpt lat="44.85388684671861" lon="8.015627632744815"><ele>254.0</ele><time>2026-04-19T10:26:52.001Z</time></trkpt><trkpt lat="44.853804328740836" lon="8.015703001603745"><ele>254.0</ele><time>2026-04-19T10:26:53.001Z</time></trkpt><trkpt lat="44.85374043915622" lon="8.01577858629713"><ele>254.0</ele><time>2026-04-19T10:26:54.001Z</time></trkpt><trkpt lat="44.8536732856885" lon="8.01585133991338"><ele>253.99999999999997</ele><time>2026-04-19T10:26:55.001Z</time></trkpt><trkpt lat="44.85359161755077" lon="8.015925737957037"><ele>253.99999999999997</ele><time>2026-04-19T10:26:56.001Z</time></trkpt><trkpt lat="44.85363822424407" lon="8.015836882023237"><ele>254.0</ele><time>2026-04-19T10:27:00.001Z</time></trkpt><trkpt lat="44.853574301240656" lon="8.015898062594053"><ele>254.0</ele><time>2026-04-19T10:27:10.001Z</time></trkpt><trkpt lat="44.85364605166443" lon="8.015756271383868"><ele>254.0</ele><time>2026-04-19T10:27:13.001Z</time></trkpt><trkpt lat="44.853727207279526" lon="8.01563183449708"><ele>253.99999999999997</ele><time>2026-04-19T10:27:15.001Z</time></trkpt><trkpt lat="44.853797518224454" lon="8.015551101040982"><ele>253.99999999999997</ele><time>2026-04-19T10:27:16Z</time></trkpt><trkpt lat="44.85387338306713" lon="8.015461298421311"><ele>254.0</ele><time>2026-04-19T10:27:17Z</time></trkpt><trkpt lat="44.85396653332995" lon="8.01537887246172"><ele>254.0</ele><time>2026-04-19T10:27:18Z</time></trkpt><trkpt lat="44.85402565338953" lon="8.015286366578525"><ele>254.00000000000003</ele><time>2026-04-19T10:27:19Z</time></trkpt><trkpt lat="44.854110203236914" lon="8.015216244312837"><ele>254.0</ele><time>2026-04-19T10:27:20Z</time></trkpt><trkpt lat="44.85415919318025" lon="8.015157066055833"><ele>254.0</ele><time>2026-04-19T10:27:21Z</time></trkpt><trkpt lat="44.854233552796615" lon="8.015100913715"><ele>254.0</ele><time>2026-04-19T10:27:22Z</time></trkpt><trkpt lat="44.85430747911454" lon="8.015048874245682"><ele>254.00000000000003</ele><time>2026-04-19T10:27:23Z</time></trkpt><trkpt lat="44.85436306986774" lon="8.014968233638212"><ele>254.0</ele><time>2026-04-19T10:27:24Z</time></trkpt><trkpt lat="44.85443746954579" lon="8.014863462281882"><ele>252.50000000000003</ele><time>2026-04-19T10:27:25Z</time></trkpt><trkpt lat="44.854499992294556" lon="8.014773795092927"><ele>251.0</ele><time>2026-04-19T10:27:26Z</time></trkpt><trkpt lat="44.854536449299985" lon="8.014665430460212"><ele>249.5</ele><time>2026-04-19T10:27:27Z</time></trkpt><trkpt lat="44.85458364400636" lon="8.014542679666633"><ele>248.0</ele><time>2026-04-19T10:27:28Z</time></trkpt><trkpt lat="44.85463855474143" lon="8.014436135227031"><ele>246.50000000000003</ele><time>2026-04-19T10:27:29Z</time></trkpt><trkpt lat="44.85468008145588" lon="8.014368481452218"><ele>245.0</ele><time>2026-04-19T10:27:30Z</time></trkpt><trkpt lat="44.85479136039324" lon="8.014283742932125"><ele>245.00000000000003</ele><time>2026-04-19T10:27:32Z</time></trkpt><trkpt lat="44.85486995647319" lon="8.014248513931284"><ele>245.0</ele><time>2026-04-19T10:27:33Z</time></trkpt><trkpt lat="44.85494197960743" lon="8.01419890984749"><ele>245.0</ele><time>2026-04-19T10:27:34Z</time></trkpt><trkpt lat="44.8550084739377" lon="8.014164027525531"><ele>245.0</ele><time>2026-04-19T10:27:35Z</time></trkpt><trkpt lat="44.85508985160936" lon="8.014149786416501"><ele>245.00000000000003</ele><time>2026-04-19T10:27:36Z</time></trkpt><trkpt lat="44.85518251933611" lon="8.014138566217582"><ele>245.0</ele><time>2026-04-19T10:27:37Z</time></trkpt><trkpt lat="44.855256980938364" lon="8.014061897038422"><ele>243.4</ele><time>2026-04-19T10:27:38Z</time></trkpt><trkpt lat="44.855335957326425" lon="8.013983427541815"><ele>241.8</ele><time>2026-04-19T10:27:39Z</time></trkpt><trkpt lat="44.85537787991562" lon="8.013915501008507"><ele>240.2</ele><time>2026-04-19T10:27:40Z</time></trkpt><trkpt lat="44.85532220946272" lon="8.013747111179855"><ele>238.6</ele><time>2026-04-19T10:27:41Z</time></trkpt><trkpt lat="44.85522972337068" lon="8.013657178600875"><ele>237.0</ele><time>2026-04-19T10:27:42Z</time></trkpt><trkpt lat="44.85519314209728" lon="8.013518349381684"><ele>237.0</ele><time>2026-04-19T10:27:43Z</time></trkpt><trkpt lat="44.85517087633058" lon="8.013433385592915"><ele>237.0</ele><time>2026-04-19T10:27:44Z</time></trkpt><trkpt lat="44.85524333428809" lon="8.013267181787025"><ele>237.0</ele><time>2026-04-19T10:27:46Z</time></trkpt><trkpt lat="44.85535680844127" lon="8.013165498293157"><ele>237.0</ele><time>2026-04-19T10:27:47Z</time></trkpt><trkpt lat="44.85544840801557" lon="8.013064065901878"><ele>237.39999999999998</ele><time>2026-04-19T10:27:48Z</time></trkpt><trkpt lat="44.85552099429974" lon="8.012948798591857"><ele>237.79999999999998</ele><time>2026-04-19T10:27:49Z</time></trkpt><trkpt lat="44.85561957849201" lon="8.012851789939155"><ele>238.2</ele><time>2026-04-19T10:27:50Z</time></trkpt><trkpt lat="44.855685555050506" lon="8.012765802811623"><ele>238.6</ele><time>2026-04-19T10:27:51Z</time></trkpt><trkpt lat="44.85576407978318" lon="8.012706708181451"><ele>239.0</ele><time>2026-04-19T10:27:52Z</time></trkpt><trkpt lat="44.85583793009918" lon="8.012639230798307"><ele>239.0</ele><time>2026-04-19T10:27:53Z</time></trkpt><trkpt lat="44.85581286821702" lon="8.012508725578144"><ele>238.99999999999997</ele><time>2026-04-19T10:27:55Z</time></trkpt><trkpt lat="44.85582070338165" lon="8.012419084988666"><ele>238.99999999999997</ele><time>2026-04-19T10:27:56Z</time></trkpt><trkpt lat="44.8558072196172" lon="8.012321964019606"><ele>239.0</ele><time>2026-04-19T10:27:57Z</time></trkpt><trkpt lat="44.85571679999181" lon="8.012203974147736"><ele>239.0</ele><time>2026-04-19T10:27:58Z</time></trkpt><trkpt lat="44.855641562235164" lon="8.012099125562814"><ele>241.75</ele><time>2026-04-19T10:27:59Z</time></trkpt><trkpt lat="44.85558119211101" lon="8.011959541736493"><ele>244.5</ele><time>2026-04-19T10:28:00Z</time></trkpt><trkpt lat="44.85550687000148" lon="8.011832840122146"><ele>247.25</ele><time>2026-04-19T10:28:01Z</time></trkpt><trkpt lat="44.855416922640416" lon="8.011726141128916"><ele>250.0</ele><time>2026-04-19T10:28:02Z</time></trkpt><trkpt lat="44.85532314552853" lon="8.011620243276381"><ele>250.5</ele><time>2026-04-19T10:28:03Z</time></trkpt><trkpt lat="44.85525259505989" lon="8.011501459590052"><ele>251.0</ele><time>2026-04-19T10:28:04Z</time></trkpt><trkpt lat="44.855174902323476" lon="8.011364028451249"><ele>251.5</ele><time>2026-04-19T10:28:05Z</time></trkpt><trkpt lat="44.855084546864" lon="8.011229053271178"><ele>252.0</ele><time>2026-04-19T10:28:06Z</time></trkpt><trkpt lat="44.85499827570802" lon="8.011143651073121"><ele>252.0</ele><time>2026-04-19T10:28:07Z</time></trkpt><trkpt lat="44.854915838910024" lon="8.011041940890681"><ele>252.0</ele><time>2026-04-19T10:28:08Z</time></trkpt><trkpt lat="44.85483380189499" lon="8.010995296072249"><ele>252.0</ele><time>2026-04-19T10:28:09Z</time></trkpt><trkpt lat="44.85472760847043" lon="8.010964807147209"><ele>252.0</ele><time>2026-04-19T10:28:10Z</time></trkpt><trkpt lat="44.85462623457667" lon="8.0109612214838"><ele>252.0</ele><time>2026-04-19T10:28:11Z</time></trkpt><trkpt lat="44.85451972251151" lon="8.010925519294645"><ele>252.0</ele><time>2026-04-19T10:28:12Z</time></trkpt><trkpt lat="44.85441920041547" lon="8.010890761415524"><ele>252.0</ele><time>2026-04-19T10:28:13Z</time></trkpt><trkpt lat="44.854360088351676" lon="8.010835607837633"><ele>252.0</ele><time>2026-04-19T10:28:14Z</time></trkpt><trkpt lat="44.854262863719725" lon="8.010783243498787"><ele>252.0</ele><time>2026-04-19T10:28:15Z</time></trkpt><trkpt lat="44.85416361373422" lon="8.010738135617755"><ele>252.0</ele><time>2026-04-19T10:28:16Z</time></trkpt><trkpt lat="44.85406781893076" lon="8.010694166912906"><ele>253.8</ele><time>2026-04-19T10:28:17Z</time></trkpt><trkpt lat="44.85394920466786" lon="8.01065335180021"><ele>255.6</ele><time>2026-04-19T10:28:18Z</time></trkpt><trkpt lat="44.85385660098305" lon="8.010614925186557"><ele>257.40000000000003</ele><time>2026-04-19T10:28:19.001Z</time></trkpt><trkpt lat="44.853788594902376" lon="8.010608571743182"><ele>259.2</ele><time>2026-04-19T10:28:20.001Z</time></trkpt><trkpt lat="44.853692383061585" lon="8.010556142639606"><ele>261.0</ele><time>2026-04-19T10:28:21.001Z</time></trkpt><trkpt lat="44.85361575708017" lon="8.010489066842613"><ele>261.0</ele><time>2026-04-19T10:28:22.001Z</time></trkpt><trkpt lat="44.853548860109655" lon="8.010422810674418"><ele>261.0</ele><time>2026-04-19T10:28:23.001Z</time></trkpt><trkpt lat="44.853482389166246" lon="8.010335457257211"><ele>261.0</ele><time>2026-04-19T10:28:24.001Z</time></trkpt><trkpt lat="44.85339692615691" lon="8.010249696658489"><ele>261.0</ele><time>2026-04-19T10:28:25.001Z</time></trkpt><trkpt lat="44.853306662731256" lon="8.010188396355735"><ele>261.0</ele><time>2026-04-19T10:28:26.001Z</time></trkpt><trkpt lat="44.85324230688528" lon="8.010148152608256"><ele>261.0</ele><time>2026-04-19T10:28:27.001Z</time></trkpt><trkpt lat="44.85318065410001" lon="8.010099645446411"><ele>260.40000000000003</ele><time>2026-04-19T10:28:28.001Z</time></trkpt><trkpt lat="44.85307951457201" lon="8.010201603897801"><ele>259.8</ele><time>2026-04-19T10:28:30.001Z</time></trkpt><trkpt lat="44.852987596143684" lon="8.01029215058914"><ele>259.20000000000005</ele><time>2026-04-19T10:28:32.001Z</time></trkpt><trkpt lat="44.85287448521277" lon="8.010235510999381"><ele>258.6</ele><time>2026-04-19T10:28:34.001Z</time></trkpt><trkpt lat="44.85280766662919" lon="8.010200405648582"><ele>258.0</ele><time>2026-04-19T10:28:35.001Z</time></trkpt><trkpt lat="44.85275472771132" lon="8.010148035101446"><ele>258.0</ele><time>2026-04-19T10:28:36.001Z</time></trkpt><trkpt lat="44.85263799348924" lon="8.010035008912164"><ele>258.0</ele><time>2026-04-19T10:28:38.001Z</time></trkpt><trkpt lat="44.852587009924555" lon="8.009965931533753"><ele>258.0</ele><time>2026-04-19T10:28:39.001Z</time></trkpt><trkpt lat="44.852510982776195" lon="8.009943178075677"><ele>258.0</ele><time>2026-04-19T10:28:40.001Z</time></trkpt><trkpt lat="44.85242275711578" lon="8.00996712511999"><ele>258.0</ele><time>2026-04-19T10:28:41.001Z</time></trkpt><trkpt lat="44.852372256329446" lon="8.010039014661455"><ele>257.3333333333333</ele><time>2026-04-19T10:28:42.001Z</time></trkpt><trkpt lat="44.852294135248336" lon="8.010077982831936"><ele>256.6666666666667</ele><time>2026-04-19T10:28:43.001Z</time></trkpt><trkpt lat="44.852211620617226" lon="8.010157111595033"><ele>256.0</ele><time>2026-04-19T10:28:44.001Z</time></trkpt><trkpt lat="44.852125571419506" lon="8.010204163346614"><ele>255.33333333333334</ele><time>2026-04-19T10:28:45.001Z</time></trkpt><trkpt lat="44.852053615521946" lon="8.010236337649715"><ele>254.66666666666669</ele><time>2026-04-19T10:28:46.001Z</time></trkpt><trkpt lat="44.851969186699264" lon="8.010254584762711"><ele>254.0</ele><time>2026-04-19T10:28:47.001Z</time></trkpt><trkpt lat="44.85189438116087" lon="8.010205246034609"><ele>254.0</ele><time>2026-04-19T10:28:48.001Z</time></trkpt><trkpt lat="44.85182823671499" lon="8.010186449402832"><ele>253.99999999999997</ele><time>2026-04-19T10:28:49.001Z</time></trkpt><trkpt lat="44.851729958360764" lon="8.010258254873065"><ele>253.99999999999997</ele><time>2026-04-19T10:28:50.001Z</time></trkpt><trkpt lat="44.851640747675276" lon="8.010366670128343"><ele>254.0</ele><time>2026-04-19T10:28:51.001Z</time></trkpt><trkpt lat="44.85155360516007" lon="8.010404012480512"><ele>254.0</ele><time>2026-04-19T10:28:52.001Z</time></trkpt><trkpt lat="44.85145612403183" lon="8.010426489815295"><ele>253.83333333333334</ele><time>2026-04-19T10:28:53.001Z</time></trkpt><trkpt lat="44.85138690691769" lon="8.010441264794773"><ele>253.66666666666669</ele><time>2026-04-19T10:28:54.001Z</time></trkpt><trkpt lat="44.85130772392859" lon="8.010443254030418"><ele>253.5</ele><time>2026-04-19T10:28:55.001Z</time></trkpt><trkpt lat="44.85120223404527" lon="8.010473127738576"><ele>253.33333333333331</ele><time>2026-04-19T10:28:56.001Z</time></trkpt><trkpt lat="44.85111520124118" lon="8.010481066206752"><ele>253.16666666666666</ele><time>2026-04-19T10:28:57.001Z</time></trkpt><trkpt lat="44.851026006738486" lon="8.010496934829108"><ele>253.0</ele><time>2026-04-19T10:28:58.001Z</time></trkpt><trkpt lat="44.85094235089406" lon="8.010509100337758"><ele>253.83333333333331</ele><time>2026-04-19T10:28:59.001Z</time></trkpt><trkpt lat="44.85086781658949" lon="8.010517997800884"><ele>254.66666666666666</ele><time>2026-04-19T10:29:00.001Z</time></trkpt><trkpt lat="44.85080215601484" lon="8.010543252715024"><ele>255.5</ele><time>2026-04-19T10:29:01.001Z</time></trkpt><trkpt lat="44.85072862389015" lon="8.010555780937302"><ele>256.3333333333333</ele><time>2026-04-19T10:29:02.001Z</time></trkpt><trkpt lat="44.850636328820485" lon="8.010579095146365"><ele>257.1666666666667</ele><time>2026-04-19T10:29:03.001Z</time></trkpt><trkpt lat="44.85056201022053" lon="8.010626504416532"><ele>258.0</ele><time>2026-04-19T10:29:04.001Z</time></trkpt><trkpt lat="44.850498756600196" lon="8.01071268394164"><ele>258.0</ele><time>2026-04-19T10:29:05.001Z</time></trkpt><trkpt lat="44.85041866308311" lon="8.01078034621192"><ele>258.0</ele><time>2026-04-19T10:29:06.001Z</time></trkpt><trkpt lat="44.850328236752844" lon="8.01085254222585"><ele>258.0</ele><time>2026-04-19T10:29:07.001Z</time></trkpt><trkpt lat="44.85023412833869" lon="8.01095877169447"><ele>258.0</ele><time>2026-04-19T10:29:08.001Z</time></trkpt><trkpt lat="44.85015594455063" lon="8.01102952558895"><ele>258.0</ele><time>2026-04-19T10:29:09.001Z</time></trkpt><trkpt lat="44.850074372056916" lon="8.011084268611294"><ele>258.6</ele><time>2026-04-19T10:29:10.001Z</time></trkpt><trkpt lat="44.85000244135322" lon="8.01113107500078"><ele>259.20000000000005</ele><time>2026-04-19T10:29:11.001Z</time></trkpt><trkpt lat="44.84990216809194" lon="8.01118679105143"><ele>259.8</ele><time>2026-04-19T10:29:13.001Z</time></trkpt><trkpt lat="44.84988133360374" lon="8.01129126675682"><ele>260.40000000000003</ele><time>2026-04-19T10:29:14.001Z</time></trkpt><trkpt lat="44.849831772400485" lon="8.011415000859321"><ele>261.0</ele><time>2026-04-19T10:29:15.001Z</time></trkpt><trkpt lat="44.849805778370886" lon="8.011530954450121"><ele>260.8</ele><time>2026-04-19T10:29:16.001Z</time></trkpt><trkpt lat="44.849799395317426" lon="8.0116570004497"><ele>260.6</ele><time>2026-04-19T10:29:17.001Z</time></trkpt><trkpt lat="44.8497516039849" lon="8.011753815377793"><ele>260.4</ele><time>2026-04-19T10:29:18.001Z</time></trkpt><trkpt lat="44.84971754794791" lon="8.011853663565544"><ele>260.2</ele><time>2026-04-19T10:29:19.001Z</time></trkpt><trkpt lat="44.84967527366337" lon="8.011994790707071"><ele>260.0</ele><time>2026-04-19T10:29:21.001Z</time></trkpt><trkpt lat="44.84973254310301" lon="8.012178059785807"><ele>260.0</ele><time>2026-04-19T10:29:23Z</time></trkpt><trkpt lat="44.849724328280075" lon="8.012281341848677"><ele>260.0</ele><time>2026-04-19T10:29:24Z</time></trkpt><trkpt lat="44.84967278320803" lon="8.012370022096338"><ele>260.0</ele><time>2026-04-19T10:29:25Z</time></trkpt><trkpt lat="44.84959916304511" lon="8.01243043918327"><ele>260.0</ele><time>2026-04-19T10:29:26Z</time></trkpt><trkpt lat="44.84953621192705" lon="8.012445514318161"><ele>260.0</ele><time>2026-04-19T10:29:27Z</time></trkpt><trkpt lat="44.84945973387816" lon="8.012436144617428"><ele>260.0</ele><time>2026-04-19T10:29:28Z</time></trkpt><trkpt lat="44.849360927871466" lon="8.012431319862216"><ele>261.33333333333337</ele><time>2026-04-19T10:29:29Z</time></trkpt><trkpt lat="44.8493055982889" lon="8.012496105188118"><ele>262.6666666666667</ele><time>2026-04-19T10:29:30Z</time></trkpt><trkpt lat="44.849264681608965" lon="8.012586177683678"><ele>264.0</ele><time>2026-04-19T10:29:31Z</time></trkpt><trkpt lat="44.849190611764016" lon="8.012705805779893"><ele>265.3333333333333</ele><time>2026-04-19T10:29:32Z</time></trkpt><trkpt lat="44.849161768002325" lon="8.012815202057412"><ele>266.66666666666663</ele><time>2026-04-19T10:29:33Z</time></trkpt><trkpt lat="44.84911321927588" lon="8.012880517823232"><ele>268.0</ele><time>2026-04-19T10:29:34Z</time></trkpt><trkpt lat="44.84907427892934" lon="8.012965244493033"><ele>268.0</ele><time>2026-04-19T10:29:35Z</time></trkpt><trkpt lat="44.8490039837997" lon="8.01304043249211"><ele>268.0</ele><time>2026-04-19T10:29:36Z</time></trkpt><trkpt lat="44.848945413976615" lon="8.01314818127494"><ele>268.0</ele><time>2026-04-19T10:29:37Z</time></trkpt><trkpt lat="44.84888199505193" lon="8.01320691991205"><ele>268.0</ele><time>2026-04-19T10:29:38Z</time></trkpt><trkpt lat="44.84880026224817" lon="8.013267018190739"><ele>268.0</ele><time>2026-04-19T10:29:39Z</time></trkpt><trkpt lat="44.84872397068228" lon="8.013317934003187"><ele>268.0</ele><time>2026-04-19T10:29:40Z</time></trkpt><trkpt lat="44.84865700563242" lon="8.013360668480503"><ele>268.2</ele><time>2026-04-19T10:29:41Z</time></trkpt><trkpt lat="44.84859452735617" lon="8.013437388456774"><ele>268.4</ele><time>2026-04-19T10:29:42Z</time></trkpt><trkpt lat="44.84850929990731" lon="8.01344887808405"><ele>268.59999999999997</ele><time>2026-04-19T10:29:43Z</time></trkpt><trkpt lat="44.848424922971766" lon="8.013475251487487"><ele>268.8</ele><time>2026-04-19T10:29:44Z</time></trkpt><trkpt lat="44.84830282001767" lon="8.013564665135327"><ele>269.0</ele><time>2026-04-19T10:29:46Z</time></trkpt><trkpt lat="44.8482424557294" lon="8.01363591886786"><ele>269.59999999999997</ele><time>2026-04-19T10:29:47Z</time></trkpt><trkpt lat="44.848204755108966" lon="8.013716370884838"><ele>270.2</ele><time>2026-04-19T10:29:48Z</time></trkpt><trkpt lat="44.84810910330368" lon="8.01380601041806"><ele>270.79999999999995</ele><time>2026-04-19T10:29:49Z</time></trkpt><trkpt lat="44.84802625750791" lon="8.013863044645182"><ele>271.4</ele><time>2026-04-19T10:29:50Z</time></trkpt><trkpt lat="44.84792721472496" lon="8.013909515126144"><ele>272.0</ele><time>2026-04-19T10:29:51Z</time></trkpt><trkpt lat="44.84783095621569" lon="8.013971485729819"><ele>272.0</ele><time>2026-04-19T10:29:52Z</time></trkpt><trkpt lat="44.847751208941986" lon="8.014026730774049"><ele>272.0</ele><time>2026-04-19T10:29:53Z</time></trkpt><trkpt lat="44.8476512887792" lon="8.014041254118906"><ele>272.0</ele><time>2026-04-19T10:29:55Z</time></trkpt><trkpt lat="44.8475762054826" lon="8.01402481660295"><ele>272.0</ele><time>2026-04-19T10:29:56Z</time></trkpt><trkpt lat="44.847438022403125" lon="8.014096378556616"><ele>272.0</ele><time>2026-04-19T10:29:58Z</time></trkpt><trkpt lat="44.84734945391319" lon="8.014160910772059"><ele>272.6666666666667</ele><time>2026-04-19T10:29:59Z</time></trkpt><trkpt lat="44.84726364252504" lon="8.014227522743093"><ele>273.33333333333337</ele><time>2026-04-19T10:30:00Z</time></trkpt><trkpt lat="44.847174947716574" lon="8.014281116438308"><ele>274.0</ele><time>2026-04-19T10:30:01Z</time></trkpt><trkpt lat="44.84708019942004" lon="8.014318488540665"><ele>274.6666666666667</ele><time>2026-04-19T10:30:02Z</time></trkpt><trkpt lat="44.84699462153762" lon="8.014356336719954"><ele>275.3333333333333</ele><time>2026-04-19T10:30:03Z</time></trkpt><trkpt lat="44.84693767426005" lon="8.014399207769621"><ele>276.0</ele><time>2026-04-19T10:30:04Z</time></trkpt><trkpt lat="44.84684810942588" lon="8.014534565804466"><ele>277.8333333333333</ele><time>2026-04-19T10:30:06Z</time></trkpt><trkpt lat="44.84679436311563" lon="8.01459391062545"><ele>279.6666666666667</ele><time>2026-04-19T10:30:07Z</time></trkpt><trkpt lat="44.8467189646837" lon="8.014644816625598"><ele>281.5</ele><time>2026-04-19T10:30:08Z</time></trkpt><trkpt lat="44.84664801721463" lon="8.014708714422598"><ele>283.33333333333337</ele><time>2026-04-19T10:30:09Z</time></trkpt><trkpt lat="44.84659570666858" lon="8.014789719966474"><ele>285.1666666666667</ele><time>2026-04-19T10:30:10Z</time></trkpt><trkpt lat="44.84652103442489" lon="8.014863874557944"><ele>287.0</ele><time>2026-04-19T10:30:11Z</time></trkpt><trkpt lat="44.84646360851723" lon="8.014935665655093"><ele>285.8</ele><time>2026-04-19T10:30:12Z</time></trkpt><trkpt lat="44.846387012061506" lon="8.015006792434242"><ele>284.6</ele><time>2026-04-19T10:30:13Z</time></trkpt><trkpt lat="44.84631264996536" lon="8.015122692636501"><ele>283.40000000000003</ele><time>2026-04-19T10:30:14Z</time></trkpt><trkpt lat="44.84630853531541" lon="8.015256018298677"><ele>282.2</ele><time>2026-04-19T10:30:15.001Z</time></trkpt><trkpt lat="44.8462523419309" lon="8.015342284480603"><ele>281.0</ele><time>2026-04-19T10:30:16.001Z</time></trkpt><trkpt lat="44.846179217309626" lon="8.01540374876207"><ele>281.0</ele><time>2026-04-19T10:30:17.001Z</time></trkpt><trkpt lat="44.846106381104036" lon="8.01544532809144"><ele>281.0</ele><time>2026-04-19T10:30:18.001Z</time></trkpt><trkpt lat="44.8460388465212" lon="8.015516423626876"><ele>281.0</ele><time>2026-04-19T10:30:19.001Z</time></trkpt><trkpt lat="44.84596830476339" lon="8.015603403694461"><ele>281.0</ele><time>2026-04-19T10:30:20.001Z</time></trkpt><trkpt lat="44.845875993854605" lon="8.015658008252792"><ele>281.0</ele><time>2026-04-19T10:30:21.001Z</time></trkpt><trkpt lat="44.84580536196054" lon="8.015735734992111"><ele>281.0</ele><time>2026-04-19T10:30:22.001Z</time></trkpt><trkpt lat="44.84570934456609" lon="8.015827185532544"><ele>281.6</ele><time>2026-04-19T10:30:23.001Z</time></trkpt><trkpt lat="44.84560857480444" lon="8.015860055859363"><ele>282.20000000000005</ele><time>2026-04-19T10:30:24.001Z</time></trkpt><trkpt lat="44.84550694735417" lon="8.015895401808459"><ele>282.79999999999995</ele><time>2026-04-19T10:30:25.001Z</time></trkpt><trkpt lat="44.845397621923574" lon="8.015949388521486"><ele>283.4</ele><time>2026-04-19T10:30:26.001Z</time></trkpt><trkpt lat="44.84529852908503" lon="8.016006944859924"><ele>284.0</ele><time>2026-04-19T10:30:27.001Z</time></trkpt><trkpt lat="44.84519915791091" lon="8.016031345289058"><ele>284.83333333333337</ele><time>2026-04-19T10:30:28.001Z</time></trkpt><trkpt lat="44.84511491891856" lon="8.016023508049699"><ele>285.6666666666667</ele><time>2026-04-19T10:30:29.001Z</time></trkpt><trkpt lat="44.84504922536642" lon="8.015975522624673"><ele>286.5</ele><time>2026-04-19T10:30:31.001Z</time></trkpt><trkpt lat="44.8449525342045" lon="8.015974525648929"><ele>287.3333333333333</ele><time>2026-04-19T10:30:32.001Z</time></trkpt><trkpt lat="44.8448656522567" lon="8.01596538791712"><ele>288.16666666666663</ele><time>2026-04-19T10:30:33.001Z</time></trkpt><trkpt lat="44.8447892600912" lon="8.015979434971593"><ele>289.0</ele><time>2026-04-19T10:30:34.001Z</time></trkpt><trkpt lat="44.84466615134434" lon="8.015975232277313"><ele>289.0</ele><time>2026-04-19T10:30:35.001Z</time></trkpt><trkpt lat="44.84459844686277" lon="8.015958763421544"><ele>289.0</ele><time>2026-04-19T10:30:36.001Z</time></trkpt><trkpt lat="44.844555334247005" lon="8.015850528213742"><ele>289.0</ele><time>2026-04-19T10:30:37.001Z</time></trkpt><trkpt lat="44.8445121974069" lon="8.015653203445966"><ele>289.0</ele><time>2026-04-19T10:30:38.001Z</time></trkpt><trkpt lat="44.844510649079936" lon="8.01550318793447"><ele>289.0</ele><time>2026-04-19T10:30:39.001Z</time></trkpt><trkpt lat="44.84443254945236" lon="8.015450340940898"><ele>290.59999999999997</ele><time>2026-04-19T10:30:40.001Z</time></trkpt><trkpt lat="44.84435224752613" lon="8.015383064530539"><ele>292.2</ele><time>2026-04-19T10:30:41.001Z</time></trkpt><trkpt lat="44.844244535385045" lon="8.015298185223687"><ele>293.79999999999995</ele><time>2026-04-19T10:30:42.001Z</time></trkpt><trkpt lat="44.84416040076786" lon="8.015276944973099"><ele>295.4</ele><time>2026-04-19T10:30:43.001Z</time></trkpt><trkpt lat="44.84404189405565" lon="8.015207071864252"><ele>297.0</ele><time>2026-04-19T10:30:44.001Z</time></trkpt><trkpt lat="44.84396263836942" lon="8.015146494024119"><ele>297.0</ele><time>2026-04-19T10:30:45.001Z</time></trkpt><trkpt lat="44.843900954981905" lon="8.015081974644948"><ele>297.0</ele><time>2026-04-19T10:30:46.001Z</time></trkpt><trkpt lat="44.843830777443465" lon="8.015049001552123"><ele>297.0</ele><time>2026-04-19T10:30:47.001Z</time></trkpt><trkpt lat="44.84374666700319" lon="8.015031860732611"><ele>297.0</ele><time>2026-04-19T10:30:48.001Z</time></trkpt><trkpt lat="44.84362669135649" lon="8.015100866871283"><ele>297.0</ele><time>2026-04-19T10:30:50.001Z</time></trkpt><trkpt lat="44.84355335074513" lon="8.015126517520061"><ele>297.0</ele><time>2026-04-19T10:30:51.001Z</time></trkpt><trkpt lat="44.84347323214902" lon="8.015133004460683"><ele>297.5</ele><time>2026-04-19T10:30:52.001Z</time></trkpt><trkpt lat="44.84340458359563" lon="8.015151175105611"><ele>298.0</ele><time>2026-04-19T10:30:53.001Z</time></trkpt><trkpt lat="44.84332908226417" lon="8.015148234399835"><ele>298.5</ele><time>2026-04-19T10:30:54.001Z</time></trkpt><trkpt lat="44.84324799112901" lon="8.015126039707074"><ele>299.0</ele><time>2026-04-19T10:30:55.001Z</time></trkpt><trkpt lat="44.84317986641813" lon="8.015087084163223"><ele>299.5</ele><time>2026-04-19T10:30:56.001Z</time></trkpt><trkpt lat="44.84312688403714" lon="8.015014388111625"><ele>300.0</ele><time>2026-04-19T10:30:57.001Z</time></trkpt><trkpt lat="44.84303974434562" lon="8.014932766656454"><ele>300.0</ele><time>2026-04-19T10:30:58.001Z</time></trkpt><trkpt lat="44.842962072074656" lon="8.014862764808788"><ele>300.0</ele><time>2026-04-19T10:30:59.001Z</time></trkpt><trkpt lat="44.84289936674946" lon="8.014806730238089"><ele>300.0</ele><time>2026-04-19T10:31:00.001Z</time></trkpt><trkpt lat="44.842836612665835" lon="8.014751874400256"><ele>300.0</ele><time>2026-04-19T10:31:01.001Z</time></trkpt><trkpt lat="44.84276627004862" lon="8.014912748056599"><ele>300.0</ele><time>2026-04-19T10:31:03.001Z</time></trkpt><trkpt lat="44.84273362318425" lon="8.015025960441346"><ele>300.0</ele><time>2026-04-19T10:31:04.001Z</time></trkpt><trkpt lat="44.84269594769946" lon="8.015121989590073"><ele>300.0</ele><time>2026-04-19T10:31:05.001Z</time></trkpt><trkpt lat="44.84266175896251" lon="8.015229846771797"><ele>300.0</ele><time>2026-04-19T10:31:06.001Z</time></trkpt><trkpt lat="44.84263539072145" lon="8.015351770070428"><ele>300.0</ele><time>2026-04-19T10:31:09.001Z</time></trkpt><trkpt lat="44.84259513409131" lon="8.015523795470928"><ele>300.0</ele><time>2026-04-19T10:31:11.001Z</time></trkpt><trkpt lat="44.842607278228506" lon="8.01573971839731"><ele>298.6</ele><time>2026-04-19T10:31:13.001Z</time></trkpt><trkpt lat="44.8426424103491" lon="8.015913876155182"><ele>297.2</ele><time>2026-04-19T10:31:14.001Z</time></trkpt><trkpt lat="44.84264106214727" lon="8.0160661027628"><ele>295.8</ele><time>2026-04-19T10:31:15.001Z</time></trkpt><trkpt lat="44.842636495376915" lon="8.016186866122696"><ele>294.4</ele><time>2026-04-19T10:31:16.001Z</time></trkpt><trkpt lat="44.84262330964347" lon="8.016323365775772"><ele>293.0</ele><time>2026-04-19T10:31:17.001Z</time></trkpt><trkpt lat="44.84259399733003" lon="8.01645014925045"><ele>293.0</ele><time>2026-04-19T10:31:18.001Z</time></trkpt><trkpt lat="44.84257421818359" lon="8.016589074040818"><ele>293.0</ele><time>2026-04-19T10:31:19.001Z</time></trkpt><trkpt lat="44.84255004807723" lon="8.016729175215236"><ele>293.0</ele><time>2026-04-19T10:31:20.001Z</time></trkpt><trkpt lat="44.84256016852482" lon="8.0168636103601"><ele>293.0</ele><time>2026-04-19T10:31:21.001Z</time></trkpt><trkpt lat="44.84259476848023" lon="8.016984307520115"><ele>293.0</ele><time>2026-04-19T10:31:22.001Z</time></trkpt><trkpt lat="44.84262413408738" lon="8.017099438077357"><ele>297.2</ele><time>2026-04-19T10:31:23.001Z</time></trkpt><trkpt lat="44.84265335782873" lon="8.017186083897293"><ele>301.4</ele><time>2026-04-19T10:31:24.001Z</time></trkpt><trkpt lat="44.84271219629243" lon="8.01735677057067"><ele>305.59999999999997</ele><time>2026-04-19T10:31:26.001Z</time></trkpt><trkpt lat="44.842759586635374" lon="8.017497819075087"><ele>309.8</ele><time>2026-04-19T10:31:28Z</time></trkpt><trkpt lat="44.84278885434193" lon="8.017592554969518"><ele>314.0</ele><time>2026-04-19T10:31:30Z</time></trkpt><trkpt lat="44.842677459258375" lon="8.017515716532122"><ele>309.2</ele><time>2026-04-19T10:31:36Z</time></trkpt><trkpt lat="44.84258619438591" lon="8.01739903989175"><ele>304.4</ele><time>2026-04-19T10:31:38Z</time></trkpt><trkpt lat="44.8424869358098" lon="8.017290949661461"><ele>299.6</ele><time>2026-04-19T10:31:40Z</time></trkpt><trkpt lat="44.84243063123018" lon="8.017235589937137"><ele>294.8</ele><time>2026-04-19T10:31:41Z</time></trkpt><trkpt lat="44.842318519775056" lon="8.017168669631376"><ele>290.0</ele><time>2026-04-19T10:31:43Z</time></trkpt><trkpt lat="44.84224260458845" lon="8.017133562360732"><ele>290.0</ele><time>2026-04-19T10:31:44Z</time></trkpt><trkpt lat="44.84216638291566" lon="8.017078665371423"><ele>290.0</ele><time>2026-04-19T10:31:45Z</time></trkpt><trkpt lat="44.842109797174544" lon="8.016997886062471"><ele>290.0</ele><time>2026-04-19T10:31:46Z</time></trkpt><trkpt lat="44.842043952217885" lon="8.016903471526032"><ele>290.0</ele><time>2026-04-19T10:31:47Z</time></trkpt><trkpt lat="44.84202559217417" lon="8.016807543226983"><ele>290.0</ele><time>2026-04-19T10:31:48Z</time></trkpt><trkpt lat="44.84196704354039" lon="8.016738224317294"><ele>290.0</ele><time>2026-04-19T10:31:49Z</time></trkpt><trkpt lat="44.84188140800615" lon="8.016589296943216"><ele>290.6</ele><time>2026-04-19T10:31:51Z</time></trkpt><trkpt lat="44.84185028969175" lon="8.016485290481963"><ele>291.2</ele><time>2026-04-19T10:31:52Z</time></trkpt><trkpt lat="44.84185373680409" lon="8.016350194598408"><ele>291.8</ele><time>2026-04-19T10:31:53Z</time></trkpt><trkpt lat="44.84175980039498" lon="8.016196827757023"><ele>292.4</ele><time>2026-04-19T10:31:55Z</time></trkpt><trkpt lat="44.84169915698114" lon="8.016123864207096"><ele>293.0</ele><time>2026-04-19T10:31:56Z</time></trkpt><trkpt lat="44.84159127812672" lon="8.016148721163594"><ele>287.85714285714283</ele><time>2026-04-19T10:31:58Z</time></trkpt><trkpt lat="44.84152762755962" lon="8.01615367180753"><ele>282.7142857142857</ele><time>2026-04-19T10:31:59Z</time></trkpt><trkpt lat="44.84145422067259" lon="8.016173238025559"><ele>277.57142857142856</ele><time>2026-04-19T10:32:00Z</time></trkpt><trkpt lat="44.84136609865088" lon="8.01616888859076"><ele>272.42857142857144</ele><time>2026-04-19T10:32:01Z</time></trkpt><trkpt lat="44.84130167431421" lon="8.016162957098546"><ele>267.2857142857143</ele><time>2026-04-19T10:32:02Z</time></trkpt><trkpt lat="44.841238423178105" lon="8.016154629030954"><ele>262.1428571428571</ele><time>2026-04-19T10:32:03Z</time></trkpt><trkpt lat="44.841177855715515" lon="8.016213970554553"><ele>257.0</ele><time>2026-04-19T10:32:06Z</time></trkpt><trkpt lat="44.84111012694595" lon="8.01617596897149"><ele>257.0</ele><time>2026-04-19T10:32:08Z</time></trkpt><trkpt lat="44.84100582334058" lon="8.016167709001667"><ele>257.0</ele><time>2026-04-19T10:32:10Z</time></trkpt><trkpt lat="44.84093631786849" lon="8.016158541240491"><ele>257.0</ele><time>2026-04-19T10:32:12Z</time></trkpt><trkpt lat="44.84096630138011" lon="8.016074055465452"><ele>257.0</ele><time>2026-04-19T10:32:14Z</time></trkpt><trkpt lat="44.84104746535283" lon="8.015978298899624"><ele>257.0</ele><time>2026-04-19T10:32:16Z</time></trkpt><trkpt lat="44.84111275339506" lon="8.015934051577421"><ele>257.0</ele><time>2026-04-19T10:32:17Z</time></trkpt><trkpt lat="44.84111437348636" lon="8.015770747843618"><ele>258.2</ele><time>2026-04-19T10:32:19Z</time></trkpt><trkpt lat="44.84108556692523" lon="8.015674976951292"><ele>259.4</ele><time>2026-04-19T10:32:20Z</time></trkpt><trkpt lat="44.841045969347505" lon="8.01550285982811"><ele>260.6</ele><time>2026-04-19T10:32:22Z</time></trkpt><trkpt lat="44.84090236649" lon="8.015542221613254"><ele>261.8</ele><time>2026-04-19T10:32:24Z</time></trkpt><trkpt lat="44.840833038104115" lon="8.015629446922773"><ele>263.0</ele><time>2026-04-19T10:32:25Z</time></trkpt><trkpt lat="44.84077687434463" lon="8.015723217942726"><ele>255.25</ele><time>2026-04-19T10:32:26Z</time></trkpt><trkpt lat="44.84071320262464" lon="8.015824128065722"><ele>247.5</ele><time>2026-04-19T10:32:27Z</time></trkpt><trkpt lat="44.84063973380787" lon="8.015955564295105"><ele>239.75</ele><time>2026-04-19T10:32:28Z</time></trkpt><trkpt lat="44.84057082096637" lon="8.016104826628462"><ele>232.0</ele><time>2026-04-19T10:32:29.001Z</time></trkpt><trkpt lat="44.84048857211911" lon="8.016248374004574"><ele>232.0</ele><time>2026-04-19T10:32:30.001Z</time></trkpt><trkpt lat="44.84044092164613" lon="8.016373389649837"><ele>232.0</ele><time>2026-04-19T10:32:31.001Z</time></trkpt><trkpt lat="44.84041100395388" lon="8.016495618466157"><ele>232.0</ele><time>2026-04-19T10:32:32.001Z</time></trkpt><trkpt lat="44.840352334338036" lon="8.016603481027424"><ele>232.0</ele><time>2026-04-19T10:32:33.001Z</time></trkpt><trkpt lat="44.84028193533487" lon="8.016704703981636"><ele>232.0</ele><time>2026-04-19T10:32:34.001Z</time></trkpt><trkpt lat="44.84023009542675" lon="8.016775187878695"><ele>231.0</ele><time>2026-04-19T10:32:35.001Z</time></trkpt><trkpt lat="44.840163050233855" lon="8.016848445406477"><ele>230.0</ele><time>2026-04-19T10:32:36.001Z</time></trkpt><trkpt lat="44.8400905400462" lon="8.016888006445328"><ele>229.0</ele><time>2026-04-19T10:32:37.001Z</time></trkpt><trkpt lat="44.840024922355305" lon="8.016871864552023"><ele>228.0</ele><time>2026-04-19T10:32:38.001Z</time></trkpt><trkpt lat="44.83988186336045" lon="8.016863777281799"><ele>227.0</ele><time>2026-04-19T10:32:40.001Z</time></trkpt><trkpt lat="44.839771701725454" lon="8.01680698621143"><ele>225.16666666666669</ele><time>2026-04-19T10:32:41.001Z</time></trkpt><trkpt lat="44.83969222712974" lon="8.016807826939594"><ele>223.33333333333334</ele><time>2026-04-19T10:32:42.001Z</time></trkpt><trkpt lat="44.839586302781335" lon="8.016807822511993"><ele>221.5</ele><time>2026-04-19T10:32:43.001Z</time></trkpt><trkpt lat="44.83950669366274" lon="8.01678879357644"><ele>219.66666666666669</ele><time>2026-04-19T10:32:44.001Z</time></trkpt><trkpt lat="44.83942551243963" lon="8.01680395168241"><ele>217.83333333333334</ele><time>2026-04-19T10:32:45.001Z</time></trkpt><trkpt lat="44.83932803542035" lon="8.016805139498397"><ele>216.0</ele><time>2026-04-19T10:32:46.001Z</time></trkpt><trkpt lat="44.83924267051414" lon="8.016808162107948"><ele>214.8</ele><time>2026-04-19T10:32:47.001Z</time></trkpt><trkpt lat="44.83916228389467" lon="8.016814592607886"><ele>213.60000000000002</ele><time>2026-04-19T10:32:48.001Z</time></trkpt><trkpt lat="44.83906846698256" lon="8.016858912697508"><ele>212.4</ele><time>2026-04-19T10:32:49.001Z</time></trkpt><trkpt lat="44.83898624196724" lon="8.016894951240568"><ele>211.2</ele><time>2026-04-19T10:32:50.001Z</time></trkpt><trkpt lat="44.83890294093424" lon="8.01695943079337"><ele>210.0</ele><time>2026-04-19T10:32:51.001Z</time></trkpt><trkpt lat="44.838813181088206" lon="8.016996079152149"><ele>210.0</ele><time>2026-04-19T10:32:52.001Z</time></trkpt><trkpt lat="44.838720052915846" lon="8.017042005130653"><ele>210.0</ele><time>2026-04-19T10:32:53.001Z</time></trkpt><trkpt lat="44.8386376959222" lon="8.017086896486425"><ele>210.0</ele><time>2026-04-19T10:32:54.001Z</time></trkpt><trkpt lat="44.83855540977966" lon="8.017129550360652"><ele>210.0</ele><time>2026-04-19T10:32:55.001Z</time></trkpt><trkpt lat="44.83848594725016" lon="8.017160767694635"><ele>210.0</ele><time>2026-04-19T10:32:56.001Z</time></trkpt><trkpt lat="44.83840061842505" lon="8.017197390515088"><ele>210.0</ele><time>2026-04-19T10:32:57.001Z</time></trkpt><trkpt lat="44.83831887702305" lon="8.017221132270453"><ele>209.8</ele><time>2026-04-19T10:32:58.001Z</time></trkpt><trkpt lat="44.83823863385624" lon="8.017231506629116"><ele>209.6</ele><time>2026-04-19T10:32:59.001Z</time></trkpt><trkpt lat="44.83812861693702" lon="8.017200283533061"><ele>209.39999999999998</ele><time>2026-04-19T10:33:00.001Z</time></trkpt><trkpt lat="44.838006897944325" lon="8.017216876952618"><ele>209.2</ele><time>2026-04-19T10:33:01.001Z</time></trkpt><trkpt lat="44.83790124001973" lon="8.01721840632633"><ele>209.0</ele><time>2026-04-19T10:33:02.001Z</time></trkpt><trkpt lat="44.83783204528645" lon="8.017240020450721"><ele>209.00000000000003</ele><time>2026-04-19T10:33:03.001Z</time></trkpt><trkpt lat="44.83775617749147" lon="8.017249059203715"><ele>209.0</ele><time>2026-04-19T10:33:04.001Z</time></trkpt><trkpt lat="44.83769115306246" lon="8.01723881519961"><ele>209.0</ele><time>2026-04-19T10:33:08.001Z</time></trkpt><trkpt lat="44.837610890614854" lon="8.017356306609397"><ele>209.0</ele><time>2026-04-19T10:33:28.001Z</time></trkpt><trkpt lat="44.83754707594333" lon="8.017426279274668"><ele>209.00000000000003</ele><time>2026-04-19T10:33:29.001Z</time></trkpt><trkpt lat="44.83747991904883" lon="8.017489702557196"><ele>209.0</ele><time>2026-04-19T10:33:30.001Z</time></trkpt><trkpt lat="44.83741037713442" lon="8.01754641180992"><ele>207.66666666666669</ele><time>2026-04-19T10:33:31.001Z</time></trkpt><trkpt lat="44.837332861115" lon="8.017607959269135"><ele>206.33333333333334</ele><time>2026-04-19T10:33:32.001Z</time></trkpt><trkpt lat="44.83725230702948" lon="8.017665717926697"><ele>205.0</ele><time>2026-04-19T10:33:33.001Z</time></trkpt><trkpt lat="44.83717795661894" lon="8.01774019148319"><ele>203.66666666666669</ele><time>2026-04-19T10:33:34Z</time></trkpt><trkpt lat="44.837114334150456" lon="8.01781585781865"><ele>202.33333333333334</ele><time>2026-04-19T10:33:35Z</time></trkpt><trkpt lat="44.837055189826756" lon="8.017907395315289"><ele>201.0</ele><time>2026-04-19T10:33:36Z</time></trkpt><trkpt lat="44.83698691653827" lon="8.018003579361057"><ele>201.0</ele><time>2026-04-19T10:33:37Z</time></trkpt><trkpt lat="44.83691435985583" lon="8.0180916387811"><ele>201.0</ele><time>2026-04-19T10:33:38Z</time></trkpt><trkpt lat="44.83683519169254" lon="8.018155568031515"><ele>201.0</ele><time>2026-04-19T10:33:39Z</time></trkpt><trkpt lat="44.83674184588835" lon="8.01820030023208"><ele>201.0</ele><time>2026-04-19T10:33:40Z</time></trkpt><trkpt lat="44.83664749965568" lon="8.018274690735165"><ele>201.0</ele><time>2026-04-19T10:33:41Z</time></trkpt><trkpt lat="44.8365619995926" lon="8.018339718564556"><ele>200.25</ele><time>2026-04-19T10:33:42Z</time></trkpt><trkpt lat="44.83646662500404" lon="8.018414322381103"><ele>199.5</ele><time>2026-04-19T10:33:43Z</time></trkpt><trkpt lat="44.83636330005752" lon="8.018484161527663"><ele>198.75</ele><time>2026-04-19T10:33:44Z</time></trkpt><trkpt lat="44.83625451822825" lon="8.018486580089439"><ele>198.0</ele><time>2026-04-19T10:33:45Z</time></trkpt><trkpt lat="44.83614192905323" lon="8.018548679036902"><ele>198.0</ele><time>2026-04-19T10:33:46Z</time></trkpt><trkpt lat="44.83603247121824" lon="8.018573722110897"><ele>198.0</ele><time>2026-04-19T10:33:47Z</time></trkpt><trkpt lat="44.83592807086149" lon="8.018597967426597"><ele>198.0</ele><time>2026-04-19T10:33:48Z</time></trkpt><trkpt lat="44.83582973296546" lon="8.018615645964594"><ele>198.0</ele><time>2026-04-19T10:33:49Z</time></trkpt><trkpt lat="44.8357467486368" lon="8.018621327652477"><ele>198.0</ele><time>2026-04-19T10:33:50Z</time></trkpt><trkpt lat="44.83566288204952" lon="8.018640910921984"><ele>197.60000000000002</ele><time>2026-04-19T10:33:51Z</time></trkpt><trkpt lat="44.83558210178477" lon="8.01866630863129"><ele>197.20000000000002</ele><time>2026-04-19T10:33:52Z</time></trkpt><trkpt lat="44.83551514398613" lon="8.018759745109493"><ele>196.8</ele><time>2026-04-19T10:33:53Z</time></trkpt><trkpt lat="44.835445171220236" lon="8.018874890770537"><ele>196.4</ele><time>2026-04-19T10:33:54Z</time></trkpt><trkpt lat="44.83538619061485" lon="8.018994783318773"><ele>196.0</ele><time>2026-04-19T10:33:55Z</time></trkpt><trkpt lat="44.83531268254425" lon="8.019126488285337"><ele>195.5</ele><time>2026-04-19T10:33:56Z</time></trkpt><trkpt lat="44.8352361655245" lon="8.019270216262491"><ele>195.0</ele><time>2026-04-19T10:33:57Z</time></trkpt><trkpt lat="44.835162812434085" lon="8.019403472142569"><ele>194.5</ele><time>2026-04-19T10:33:58Z</time></trkpt><trkpt lat="44.83508903072774" lon="8.01953521002687"><ele>194.0</ele><time>2026-04-19T10:33:59Z</time></trkpt><trkpt lat="44.83503213723026" lon="8.019654602368133"><ele>193.25</ele><time>2026-04-19T10:34:00Z</time></trkpt><trkpt lat="44.834975011549844" lon="8.019796643844737"><ele>192.5</ele><time>2026-04-19T10:34:01Z</time></trkpt><trkpt lat="44.834909251245286" lon="8.019924890583068"><ele>191.75</ele><time>2026-04-19T10:34:02Z</time></trkpt><trkpt lat="44.8348471097089" lon="8.02006386717566"><ele>191.0</ele><time>2026-04-19T10:34:03Z</time></trkpt><trkpt lat="44.83478490239483" lon="8.020203591137474"><ele>190.83333333333331</ele><time>2026-04-19T10:34:04Z</time></trkpt><trkpt lat="44.83475287963476" lon="8.020315849177084"><ele>190.66666666666666</ele><time>2026-04-19T10:34:05Z</time></trkpt><trkpt lat="44.83470095805442" lon="8.0204365243214"><ele>190.5</ele><time>2026-04-19T10:34:06Z</time></trkpt><trkpt lat="44.83463820360676" lon="8.020537639674947"><ele>190.33333333333334</ele><time>2026-04-19T10:34:07Z</time></trkpt><trkpt lat="44.83459728920569" lon="8.020638976375317"><ele>190.16666666666669</ele><time>2026-04-19T10:34:08Z</time></trkpt><trkpt lat="44.83456749190759" lon="8.020735888176137"><ele>190.0</ele><time>2026-04-19T10:34:09Z</time></trkpt><trkpt lat="44.83454464974677" lon="8.020857179670777"><ele>190.0</ele><time>2026-04-19T10:34:11Z</time></trkpt><trkpt lat="44.834550846967815" lon="8.020952106300669"><ele>190.0</ele><time>2026-04-19T10:34:13Z</time></trkpt><trkpt lat="44.834756461604215" lon="8.021009958624743"><ele>190.0</ele><time>2026-04-19T10:34:14Z</time></trkpt><trkpt lat="44.83486929020301" lon="8.021047649536289"><ele>190.0</ele><time>2026-04-19T10:34:15Z</time></trkpt><trkpt lat="44.83498516538806" lon="8.021093943826493"><ele>190.0</ele><time>2026-04-19T10:34:16Z</time></trkpt><trkpt lat="44.83509590555974" lon="8.021219639263219"><ele>190.0</ele><time>2026-04-19T10:34:17Z</time></trkpt><trkpt lat="44.83518474386098" lon="8.021354940893895"><ele>190.0</ele><time>2026-04-19T10:34:18Z</time></trkpt><trkpt lat="44.83525643661411" lon="8.021477384970504"><ele>190.0</ele><time>2026-04-19T10:34:19Z</time></trkpt><trkpt lat="44.835319020666674" lon="8.021586562774102"><ele>191.4</ele><time>2026-04-19T10:34:20Z</time></trkpt><trkpt lat="44.8353703889318" lon="8.021676174666688"><ele>192.8</ele><time>2026-04-19T10:34:21Z</time></trkpt><trkpt lat="44.83541631964209" lon="8.021756300733124"><ele>194.2</ele><time>2026-04-19T10:34:22Z</time></trkpt><trkpt lat="44.835425207766605" lon="8.021878364916562"><ele>195.6</ele><time>2026-04-19T10:34:24Z</time></trkpt><trkpt lat="44.83526726422538" lon="8.022059182102861"><ele>197.0</ele><time>2026-04-19T10:34:26Z</time></trkpt><trkpt lat="44.83519822427771" lon="8.022125115327837"><ele>197.0</ele><time>2026-04-19T10:34:27Z</time></trkpt><trkpt lat="44.83517046149207" lon="8.022210019539461"><ele>197.0</ele><time>2026-04-19T10:34:28Z</time></trkpt><trkpt lat="44.83518971971912" lon="8.022316107313895"><ele>197.0</ele><time>2026-04-19T10:34:29Z</time></trkpt><trkpt lat="44.83524715952363" lon="8.022409973421787"><ele>197.0</ele><time>2026-04-19T10:34:30Z</time></trkpt><trkpt lat="44.83532039916498" lon="8.022536431536997"><ele>197.0</ele><time>2026-04-19T10:34:31Z</time></trkpt><trkpt lat="44.83539961152785" lon="8.022668261028143"><ele>195.5</ele><time>2026-04-19T10:34:32Z</time></trkpt><trkpt lat="44.835482934433664" lon="8.02282647549813"><ele>194.0</ele><time>2026-04-19T10:34:33.001Z</time></trkpt><trkpt lat="44.835563543824826" lon="8.022972005014294"><ele>192.5</ele><time>2026-04-19T10:34:34.001Z</time></trkpt><trkpt lat="44.835636348862494" lon="8.023111176598487"><ele>191.0</ele><time>2026-04-19T10:34:35.001Z</time></trkpt><trkpt lat="44.83568619868031" lon="8.023232907863283"><ele>190.0</ele><time>2026-04-19T10:34:36.001Z</time></trkpt><trkpt lat="44.83571728406693" lon="8.023357465152477"><ele>189.0</ele><time>2026-04-19T10:34:37.001Z</time></trkpt><trkpt lat="44.83573602819897" lon="8.023501294742443"><ele>188.0</ele><time>2026-04-19T10:34:38.001Z</time></trkpt><trkpt lat="44.83574302191756" lon="8.023646830663472"><ele>187.0</ele><time>2026-04-19T10:34:39.001Z</time></trkpt><trkpt lat="44.83573810785263" lon="8.023780143794635"><ele>186.0</ele><time>2026-04-19T10:34:40.001Z</time></trkpt><trkpt lat="44.835716283522636" lon="8.023938053485935"><ele>186.0</ele><time>2026-04-19T10:34:41.001Z</time></trkpt><trkpt lat="44.83569267035264" lon="8.024075786609705"><ele>186.0</ele><time>2026-04-19T10:34:42.001Z</time></trkpt><trkpt lat="44.8356437561497" lon="8.024197794457885"><ele>186.0</ele><time>2026-04-19T10:34:43.001Z</time></trkpt><trkpt lat="44.83560674130332" lon="8.024270102287243"><ele>186.0</ele><time>2026-04-19T10:34:44.001Z</time></trkpt><trkpt lat="44.83555298620633" lon="8.024345064759324"><ele>186.0</ele><time>2026-04-19T10:34:45.001Z</time></trkpt><trkpt lat="44.835436966422684" lon="8.024407672512654"><ele>186.0</ele><time>2026-04-19T10:34:47.001Z</time></trkpt><trkpt lat="44.83537154513214" lon="8.024465196345455"><ele>186.0</ele><time>2026-04-19T10:34:48.001Z</time></trkpt><trkpt lat="44.83530130631797" lon="8.024540996091373"><ele>186.0</ele><time>2026-04-19T10:34:49.001Z</time></trkpt><trkpt lat="44.83523344628498" lon="8.024632053349716"><ele>186.0</ele><time>2026-04-19T10:34:50.001Z</time></trkpt><trkpt lat="44.83516563569562" lon="8.024732299206823"><ele>186.0</ele><time>2026-04-19T10:34:51.001Z</time></trkpt><trkpt lat="44.83508805229154" lon="8.024839051041681"><ele>186.0</ele><time>2026-04-19T10:34:52.001Z</time></trkpt><trkpt lat="44.835021140836254" lon="8.024941835647036"><ele>186.0</ele><time>2026-04-19T10:34:53.001Z</time></trkpt><trkpt lat="44.834963524983124" lon="8.025046935194624"><ele>186.0</ele><time>2026-04-19T10:34:54.001Z</time></trkpt><trkpt lat="44.83488898093327" lon="8.025141776502423"><ele>186.0</ele><time>2026-04-19T10:34:55.001Z</time></trkpt><trkpt lat="44.83481979373888" lon="8.025239426426298"><ele>186.0</ele><time>2026-04-19T10:34:56.001Z</time></trkpt><trkpt lat="44.834738030289465" lon="8.025338457467674"><ele>186.4</ele><time>2026-04-19T10:34:57.001Z</time></trkpt><trkpt lat="44.8346652004294" lon="8.02542333091433"><ele>186.8</ele><time>2026-04-19T10:34:58.001Z</time></trkpt><trkpt lat="44.83456271427886" lon="8.025525089102933"><ele>187.20000000000002</ele><time>2026-04-19T10:34:59.001Z</time></trkpt><trkpt lat="44.83449271321855" lon="8.025623192271702"><ele>187.60000000000002</ele><time>2026-04-19T10:35:00.001Z</time></trkpt><trkpt lat="44.83442073959024" lon="8.025711294050781"><ele>188.0</ele><time>2026-04-19T10:35:01.001Z</time></trkpt><trkpt lat="44.83435060221196" lon="8.025779532371752"><ele>189.5</ele><time>2026-04-19T10:35:02.001Z</time></trkpt><trkpt lat="44.834293649782275" lon="8.025852394838846"><ele>191.0</ele><time>2026-04-19T10:35:03.001Z</time></trkpt><trkpt lat="44.834223296697985" lon="8.025912291796653"><ele>192.5</ele><time>2026-04-19T10:35:04.001Z</time></trkpt><trkpt lat="44.83415204982968" lon="8.025982055854907"><ele>194.0</ele><time>2026-04-19T10:35:05.001Z</time></trkpt><trkpt lat="44.83406445434247" lon="8.026055214571995"><ele>195.50000000000003</ele><time>2026-04-19T10:35:06.001Z</time></trkpt><trkpt lat="44.83399025368563" lon="8.026131163820805"><ele>197.0</ele><time>2026-04-19T10:35:07.001Z</time></trkpt><trkpt lat="44.833904683602256" lon="8.026214020376724"><ele>197.0</ele><time>2026-04-19T10:35:08.001Z</time></trkpt><trkpt lat="44.83379500140369" lon="8.02624069504771"><ele>197.0</ele><time>2026-04-19T10:35:09.001Z</time></trkpt><trkpt lat="44.83369102431429" lon="8.026270596348594"><ele>197.0</ele><time>2026-04-19T10:35:10.001Z</time></trkpt><trkpt lat="44.83360479968635" lon="8.02632183015074"><ele>197.0</ele><time>2026-04-19T10:35:11.001Z</time></trkpt><trkpt lat="44.833518393567914" lon="8.02637163532411"><ele>197.0</ele><time>2026-04-19T10:35:12.001Z</time></trkpt><trkpt lat="44.83343952627923" lon="8.026409061606032"><ele>197.6</ele><time>2026-04-19T10:35:13.001Z</time></trkpt><trkpt lat="44.83335845613845" lon="8.026452957549367"><ele>198.2</ele><time>2026-04-19T10:35:14.001Z</time></trkpt><trkpt lat="44.83325818292442" lon="8.02651430135214"><ele>198.8</ele><time>2026-04-19T10:35:15.001Z</time></trkpt><trkpt lat="44.833177855816984" lon="8.026576184250143"><ele>199.4</ele><time>2026-04-19T10:35:16.001Z</time></trkpt><trkpt lat="44.83306745058431" lon="8.026602035143261"><ele>200.0</ele><time>2026-04-19T10:35:17.001Z</time></trkpt><trkpt lat="44.83297185897966" lon="8.026641094938705"><ele>200.4</ele><time>2026-04-19T10:35:18.001Z</time></trkpt><trkpt lat="44.83288764847711" lon="8.026682948116392"><ele>200.8</ele><time>2026-04-19T10:35:19.001Z</time></trkpt><trkpt lat="44.83278609433017" lon="8.026737433653697"><ele>201.2</ele><time>2026-04-19T10:35:20.001Z</time></trkpt><trkpt lat="44.83273033230373" lon="8.026790950848762"><ele>201.6</ele><time>2026-04-19T10:35:21.001Z</time></trkpt><trkpt lat="44.83267325281316" lon="8.026887517579357"><ele>202.0</ele><time>2026-04-19T10:35:22.001Z</time></trkpt><trkpt lat="44.83266197928191" lon="8.027027811967258"><ele>202.2</ele><time>2026-04-19T10:35:23.001Z</time></trkpt><trkpt lat="44.83263815146363" lon="8.0271595224425"><ele>202.39999999999998</ele><time>2026-04-19T10:35:24.001Z</time></trkpt><trkpt lat="44.832637237115726" lon="8.027289083803563"><ele>202.60000000000002</ele><time>2026-04-19T10:35:25.001Z</time></trkpt><trkpt lat="44.83262560269765" lon="8.027419418377688"><ele>202.8</ele><time>2026-04-19T10:35:26.001Z</time></trkpt><trkpt lat="44.83263479706588" lon="8.02757896998912"><ele>203.0</ele><time>2026-04-19T10:35:27.001Z</time></trkpt><trkpt lat="44.8326529157226" lon="8.027704074051664"><ele>203.0</ele><time>2026-04-19T10:35:28.001Z</time></trkpt><trkpt lat="44.8326425075061" lon="8.027813599728576"><ele>203.0</ele><time>2026-04-19T10:35:29.001Z</time></trkpt><trkpt lat="44.832566770032436" lon="8.027804537602549"><ele>203.0</ele><time>2026-04-19T10:35:31.001Z</time></trkpt><trkpt lat="44.832433808433684" lon="8.027674808645484"><ele>203.0</ele><time>2026-04-19T10:35:33.001Z</time></trkpt><trkpt lat="44.832331539350704" lon="8.027561496368971"><ele>203.0</ele><time>2026-04-19T10:35:34.001Z</time></trkpt><trkpt lat="44.832229035204676" lon="8.027463515627515"><ele>204.60000000000002</ele><time>2026-04-19T10:35:35.001Z</time></trkpt><trkpt lat="44.832134670556655" lon="8.027363444564504"><ele>206.20000000000002</ele><time>2026-04-19T10:35:36.001Z</time></trkpt><trkpt lat="44.8320318320498" lon="8.027285399379677"><ele>207.8</ele><time>2026-04-19T10:35:37.001Z</time></trkpt><trkpt lat="44.83193617275185" lon="8.027258173937174"><ele>209.4</ele><time>2026-04-19T10:35:38.001Z</time></trkpt><trkpt lat="44.83185980370339" lon="8.027249109482506"><ele>211.0</ele><time>2026-04-19T10:35:39.001Z</time></trkpt><trkpt lat="44.83178685665929" lon="8.027230875985927"><ele>214.75</ele><time>2026-04-19T10:35:40Z</time></trkpt><trkpt lat="44.83171245081117" lon="8.02721236479647"><ele>218.5</ele><time>2026-04-19T10:35:41Z</time></trkpt><trkpt lat="44.83164887862617" lon="8.027188768285194"><ele>222.25</ele><time>2026-04-19T10:35:42Z</time></trkpt><trkpt lat="44.831561503306645" lon="8.02716238941473"><ele>226.0</ele><time>2026-04-19T10:35:44Z</time></trkpt><trkpt lat="44.831505329570945" lon="8.026818593268253"><ele>226.0</ele><time>2026-04-19T10:35:45Z</time></trkpt><trkpt lat="44.831423078217924" lon="8.02672133032457"><ele>226.0</ele><time>2026-04-19T10:35:46Z</time></trkpt><trkpt lat="44.83132472077225" lon="8.026609177235231"><ele>226.0</ele><time>2026-04-19T10:35:47Z</time></trkpt><trkpt lat="44.83122582123867" lon="8.026520210159202"><ele>226.0</ele><time>2026-04-19T10:35:48Z</time></trkpt><trkpt lat="44.831126882154855" lon="8.026433161918495"><ele>225.8</ele><time>2026-04-19T10:35:49Z</time></trkpt><trkpt lat="44.83103056805811" lon="8.026341512507233"><ele>225.60000000000002</ele><time>2026-04-19T10:35:50Z</time></trkpt><trkpt lat="44.83094341259485" lon="8.02624991870201"><ele>225.4</ele><time>2026-04-19T10:35:51Z</time></trkpt><trkpt lat="44.83085693213542" lon="8.026159844528431"><ele>225.2</ele><time>2026-04-19T10:35:52Z</time></trkpt><trkpt lat="44.83077606029338" lon="8.026080405756398"><ele>225.0</ele><time>2026-04-19T10:35:53Z</time></trkpt><trkpt lat="44.83069559394155" lon="8.026000338510915"><ele>228.0</ele><time>2026-04-19T10:35:54Z</time></trkpt><trkpt lat="44.83061366931471" lon="8.025940115116203"><ele>231.0</ele><time>2026-04-19T10:35:55Z</time></trkpt><trkpt lat="44.83050112153587" lon="8.025893481276645"><ele>234.0</ele><time>2026-04-19T10:35:56Z</time></trkpt><trkpt lat="44.83037816017359" lon="8.025859426009324"><ele>237.0</ele><time>2026-04-19T10:35:57Z</time></trkpt><trkpt lat="44.830250317919564" lon="8.025818712129556"><ele>235.75</ele><time>2026-04-19T10:35:58Z</time></trkpt><trkpt lat="44.83012231297231" lon="8.025779117043795"><ele>234.5</ele><time>2026-04-19T10:35:59Z</time></trkpt><trkpt lat="44.82999608180342" lon="8.025753473125087"><ele>233.25</ele><time>2026-04-19T10:36:00Z</time></trkpt><trkpt lat="44.82988024794543" lon="8.025733076701322"><ele>232.0</ele><time>2026-04-19T10:36:01Z</time></trkpt><trkpt lat="44.82977684754957" lon="8.025718629590344"><ele>232.0</ele><time>2026-04-19T10:36:02Z</time></trkpt><trkpt lat="44.829669353276785" lon="8.025671957762595"><ele>232.0</ele><time>2026-04-19T10:36:03Z</time></trkpt><trkpt lat="44.82956227819232" lon="8.02561033505256"><ele>232.0</ele><time>2026-04-19T10:36:04Z</time></trkpt><trkpt lat="44.82944791617646" lon="8.02553273175867"><ele>232.0</ele><time>2026-04-19T10:36:05Z</time></trkpt><trkpt lat="44.829324542900636" lon="8.025473185708966"><ele>231.75</ele><time>2026-04-19T10:36:06Z</time></trkpt><trkpt lat="44.829212739966515" lon="8.025426321314473"><ele>231.5</ele><time>2026-04-19T10:36:07Z</time></trkpt><trkpt lat="44.829094401290575" lon="8.025387796312767"><ele>231.25</ele><time>2026-04-19T10:36:08Z</time></trkpt><trkpt lat="44.82897805536816" lon="8.025393473415933"><ele>231.0</ele><time>2026-04-19T10:36:09Z</time></trkpt><trkpt lat="44.82886034072385" lon="8.02536943557087"><ele>231.0</ele><time>2026-04-19T10:36:10Z</time></trkpt><trkpt lat="44.82876895843248" lon="8.025357019290249"><ele>231.00000000000003</ele><time>2026-04-19T10:36:11Z</time></trkpt><trkpt lat="44.8286730689221" lon="8.025350325191605"><ele>231.00000000000003</ele><time>2026-04-19T10:36:12Z</time></trkpt><trkpt lat="44.82857888950804" lon="8.025345870875602"><ele>231.0</ele><time>2026-04-19T10:36:13Z</time></trkpt><trkpt lat="44.82847688458372" lon="8.025351337501608"><ele>231.0</ele><time>2026-04-19T10:36:14Z</time></trkpt><trkpt lat="44.8283730110606" lon="8.025358151181628"><ele>232.0</ele><time>2026-04-19T10:36:15Z</time></trkpt><trkpt lat="44.82828189334215" lon="8.025380012753443"><ele>233.00000000000003</ele><time>2026-04-19T10:36:16Z</time></trkpt><trkpt lat="44.82819285082976" lon="8.02540875869146"><ele>234.00000000000003</ele><time>2026-04-19T10:36:17Z</time></trkpt><trkpt lat="44.8280849182623" lon="8.025426559178612"><ele>235.0</ele><time>2026-04-19T10:36:18Z</time></trkpt><trkpt lat="44.82800207157088" lon="8.025488052179574"><ele>236.0</ele><time>2026-04-19T10:36:19Z</time></trkpt><trkpt lat="44.827926126274235" lon="8.025572555808955"><ele>236.0</ele><time>2026-04-19T10:36:20Z</time></trkpt><trkpt lat="44.82786111611864" lon="8.02568852799695"><ele>236.00000000000003</ele><time>2026-04-19T10:36:21Z</time></trkpt><trkpt lat="44.82777308869387" lon="8.025784781333805"><ele>236.00000000000003</ele><time>2026-04-19T10:36:22Z</time></trkpt><trkpt lat="44.82768203837155" lon="8.025885819602125"><ele>236.0</ele><time>2026-04-19T10:36:23Z</time></trkpt><trkpt lat="44.827598950947916" lon="8.025998857292105"><ele>236.0</ele><time>2026-04-19T10:36:24Z</time></trkpt><trkpt lat="44.82751951746327" lon="8.026100126061193"><ele>238.20000000000002</ele><time>2026-04-19T10:36:25Z</time></trkpt><trkpt lat="44.82744887501814" lon="8.026209199947797"><ele>240.40000000000003</ele><time>2026-04-19T10:36:26Z</time></trkpt><trkpt lat="44.827399991150834" lon="8.026312550970054"><ele>242.6</ele><time>2026-04-19T10:36:27Z</time></trkpt><trkpt lat="44.82727081673003" lon="8.026387199982217"><ele>244.8</ele><time>2026-04-19T10:36:29Z</time></trkpt><trkpt lat="44.8271922044129" lon="8.026352491012824"><ele>247.0</ele><time>2026-04-19T10:36:30Z</time></trkpt><trkpt lat="44.8270999686504" lon="8.02630450739409"><ele>247.0</ele><time>2026-04-19T10:36:31Z</time></trkpt><trkpt lat="44.826993027958856" lon="8.026263049020114"><ele>247.0</ele><time>2026-04-19T10:36:32Z</time></trkpt><trkpt lat="44.82687701160537" lon="8.026219313784605"><ele>247.0</ele><time>2026-04-19T10:36:33Z</time></trkpt><trkpt lat="44.82675189290249" lon="8.026156844902541"><ele>247.0</ele><time>2026-04-19T10:36:34Z</time></trkpt><trkpt lat="44.82662569854099" lon="8.026096546527741"><ele>246.5</ele><time>2026-04-19T10:36:35Z</time></trkpt><trkpt lat="44.826504643681325" lon="8.02603958295069"><ele>246.0</ele><time>2026-04-19T10:36:36Z</time></trkpt><trkpt lat="44.82638103182497" lon="8.0259765495942"><ele>245.5</ele><time>2026-04-19T10:36:37Z</time></trkpt><trkpt lat="44.826269987020765" lon="8.025928515103358"><ele>245.0</ele><time>2026-04-19T10:36:38.001Z</time></trkpt><trkpt lat="44.8261762052212" lon="8.025881732134524"><ele>245.0</ele><time>2026-04-19T10:36:39.001Z</time></trkpt><trkpt lat="44.826076430909225" lon="8.025832999855306"><ele>245.0</ele><time>2026-04-19T10:36:40.001Z</time></trkpt><trkpt lat="44.82596543211924" lon="8.025781940685619"><ele>245.0</ele><time>2026-04-19T10:36:41.001Z</time></trkpt><trkpt lat="44.825853813784875" lon="8.025715761959448"><ele>245.0</ele><time>2026-04-19T10:36:42.001Z</time></trkpt><trkpt lat="44.825749113548184" lon="8.025633063243665"><ele>244.0</ele><time>2026-04-19T10:36:43.001Z</time></trkpt><trkpt lat="44.82564556376605" lon="8.02553929810316"><ele>243.0</ele><time>2026-04-19T10:36:44.001Z</time></trkpt><trkpt lat="44.825545707907416" lon="8.025453633239668"><ele>242.0</ele><time>2026-04-19T10:36:45.001Z</time></trkpt><trkpt lat="44.825449347204334" lon="8.025371856423648"><ele>241.0</ele><time>2026-04-19T10:36:46.001Z</time></trkpt><trkpt lat="44.8253535361036" lon="8.025297858955902"><ele>241.0</ele><time>2026-04-19T10:36:47.001Z</time></trkpt><trkpt lat="44.82526325741494" lon="8.025217450226247"><ele>241.00000000000003</ele><time>2026-04-19T10:36:48.001Z</time></trkpt><trkpt lat="44.82517964969619" lon="8.025124235825773"><ele>241.00000000000003</ele><time>2026-04-19T10:36:49.001Z</time></trkpt><trkpt lat="44.82510724080645" lon="8.025028921463692"><ele>241.0</ele><time>2026-04-19T10:36:50.001Z</time></trkpt><trkpt lat="44.82503908223564" lon="8.024953366971115"><ele>241.0</ele><time>2026-04-19T10:36:51.001Z</time></trkpt><trkpt lat="44.824977654623474" lon="8.024880730667556"><ele>243.8</ele><time>2026-04-19T10:36:52.001Z</time></trkpt><trkpt lat="44.82491914989004" lon="8.02479701435944"><ele>246.60000000000002</ele><time>2026-04-19T10:36:53.001Z</time></trkpt><trkpt lat="44.824840202722235" lon="8.024711969566841"><ele>249.4</ele><time>2026-04-19T10:36:54.001Z</time></trkpt><trkpt lat="44.82476086869471" lon="8.024623709368049"><ele>252.2</ele><time>2026-04-19T10:36:55.001Z</time></trkpt><trkpt lat="44.82468198007922" lon="8.02453880938084"><ele>255.0</ele><time>2026-04-19T10:36:56.001Z</time></trkpt><trkpt lat="44.82459565447702" lon="8.024449248715845"><ele>255.0</ele><time>2026-04-19T10:36:57.001Z</time></trkpt><trkpt lat="44.824516742822254" lon="8.024352544188593"><ele>255.0</ele><time>2026-04-19T10:36:58.001Z</time></trkpt><trkpt lat="44.82443427415385" lon="8.024278664325841"><ele>255.0</ele><time>2026-04-19T10:36:59.001Z</time></trkpt><trkpt lat="44.8243557059407" lon="8.024179429520855"><ele>255.0</ele><time>2026-04-19T10:37:00.001Z</time></trkpt><trkpt lat="44.8242748243674" lon="8.024093072038264"><ele>255.0</ele><time>2026-04-19T10:37:01.001Z</time></trkpt><trkpt lat="44.82419288844265" lon="8.023991535053803"><ele>257.4</ele><time>2026-04-19T10:37:02.001Z</time></trkpt><trkpt lat="44.824116516982365" lon="8.023902158156169"><ele>259.8</ele><time>2026-04-19T10:37:03.001Z</time></trkpt><trkpt lat="44.82404174127348" lon="8.02382949784002"><ele>262.2</ele><time>2026-04-19T10:37:04.001Z</time></trkpt><trkpt lat="44.82397111503933" lon="8.023742838084553"><ele>264.6</ele><time>2026-04-19T10:37:05.001Z</time></trkpt><trkpt lat="44.82388880885464" lon="8.023665347148153"><ele>267.0</ele><time>2026-04-19T10:37:06.001Z</time></trkpt><trkpt lat="44.82379387351987" lon="8.023584331378501"><ele>267.0</ele><time>2026-04-19T10:37:07.001Z</time></trkpt><trkpt lat="44.82369286544818" lon="8.023509586988029"><ele>267.0</ele><time>2026-04-19T10:37:08.001Z</time></trkpt><trkpt lat="44.823598299655664" lon="8.023406340213844"><ele>267.0</ele><time>2026-04-19T10:37:09.001Z</time></trkpt><trkpt lat="44.82351217787017" lon="8.02329544435809"><ele>267.0</ele><time>2026-04-19T10:37:10.001Z</time></trkpt><trkpt lat="44.82343818313953" lon="8.023188123257645"><ele>267.8</ele><time>2026-04-19T10:37:11.001Z</time></trkpt><trkpt lat="44.82337706084051" lon="8.023064578853344"><ele>268.6</ele><time>2026-04-19T10:37:12.001Z</time></trkpt><trkpt lat="44.82331334878972" lon="8.022965980886362"><ele>269.40000000000003</ele><time>2026-04-19T10:37:13.001Z</time></trkpt><trkpt lat="44.82323138641246" lon="8.02286021277063"><ele>270.2</ele><time>2026-04-19T10:37:14.001Z</time></trkpt><trkpt lat="44.823141315095256" lon="8.022750412721102"><ele>271.0</ele><time>2026-04-19T10:37:15.001Z</time></trkpt><trkpt lat="44.82303911093369" lon="8.022617189091507"><ele>271.0</ele><time>2026-04-19T10:37:16.001Z</time></trkpt><trkpt lat="44.822944378246284" lon="8.022490741973868"><ele>271.0</ele><time>2026-04-19T10:37:17.001Z</time></trkpt><trkpt lat="44.82285317773444" lon="8.022359557033434"><ele>271.0</ele><time>2026-04-19T10:37:18.001Z</time></trkpt><trkpt lat="44.822771578179335" lon="8.022224189463081"><ele>271.0</ele><time>2026-04-19T10:37:19.001Z</time></trkpt><trkpt lat="44.8226679192781" lon="8.022096777403931"><ele>272.75</ele><time>2026-04-19T10:37:20.001Z</time></trkpt><trkpt lat="44.822563331995944" lon="8.021987397347099"><ele>274.5</ele><time>2026-04-19T10:37:21.001Z</time></trkpt><trkpt lat="44.822471905043045" lon="8.021862671872386"><ele>276.25</ele><time>2026-04-19T10:37:22.001Z</time></trkpt><trkpt lat="44.82239888887509" lon="8.021740212652112"><ele>278.0</ele><time>2026-04-19T10:37:23.001Z</time></trkpt><trkpt lat="44.822345522002095" lon="8.021594711575771"><ele>281.0</ele><time>2026-04-19T10:37:24.001Z</time></trkpt><trkpt lat="44.82229436214884" lon="8.02143537359729"><ele>284.0</ele><time>2026-04-19T10:37:25.001Z</time></trkpt><trkpt lat="44.82222315387253" lon="8.021275215256372"><ele>287.0</ele><time>2026-04-19T10:37:26.001Z</time></trkpt><trkpt lat="44.82213089643094" lon="8.02112338334767"><ele>290.0</ele><time>2026-04-19T10:37:27.001Z</time></trkpt><trkpt lat="44.82202926123785" lon="8.021013905513936"><ele>290.0</ele><time>2026-04-19T10:37:28.001Z</time></trkpt><trkpt lat="44.82192191701594" lon="8.020923209959726"><ele>290.0</ele><time>2026-04-19T10:37:29.001Z</time></trkpt><trkpt lat="44.8218008087407" lon="8.02082563188005"><ele>290.0</ele><time>2026-04-19T10:37:30.001Z</time></trkpt><trkpt lat="44.82167342675682" lon="8.0207026807361"><ele>290.0</ele><time>2026-04-19T10:37:31.001Z</time></trkpt><trkpt lat="44.82155526999517" lon="8.020611731687515"><ele>288.75</ele><time>2026-04-19T10:37:32.001Z</time></trkpt><trkpt lat="44.8214211468145" lon="8.020522453744837"><ele>287.5</ele><time>2026-04-19T10:37:33.001Z</time></trkpt><trkpt lat="44.821296224757866" lon="8.02044324736371"><ele>286.25</ele><time>2026-04-19T10:37:34.001Z</time></trkpt><trkpt lat="44.82118512572587" lon="8.020373544374358"><ele>285.0</ele><time>2026-04-19T10:37:35.001Z</time></trkpt><trkpt lat="44.821075189121316" lon="8.020302666658422"><ele>282.8</ele><time>2026-04-19T10:37:36.001Z</time></trkpt><trkpt lat="44.820970265697134" lon="8.020222764801083"><ele>280.6</ele><time>2026-04-19T10:37:37.001Z</time></trkpt><trkpt lat="44.82089006681169" lon="8.02014093914547"><ele>278.4</ele><time>2026-04-19T10:37:38.001Z</time></trkpt><trkpt lat="44.82082535266638" lon="8.020050736042636"><ele>276.2</ele><time>2026-04-19T10:37:39.001Z</time></trkpt><trkpt lat="44.82073273442551" lon="8.019975612492722"><ele>274.0</ele><time>2026-04-19T10:37:41.001Z</time></trkpt><trkpt lat="44.82063694888623" lon="8.020033403442763"><ele>274.0</ele><time>2026-04-19T10:37:42.001Z</time></trkpt><trkpt lat="44.82054371169256" lon="8.020082285232618"><ele>274.0</ele><time>2026-04-19T10:37:43.001Z</time></trkpt><trkpt lat="44.82042622251876" lon="8.020091957062323"><ele>274.0</ele><time>2026-04-19T10:37:44.001Z</time></trkpt><trkpt lat="44.82030102709411" lon="8.020087671135956"><ele>274.0</ele><time>2026-04-19T10:37:45Z</time></trkpt><trkpt lat="44.820168092869004" lon="8.020087977919626"><ele>274.0</ele><time>2026-04-19T10:37:46Z</time></trkpt><trkpt lat="44.820030405169575" lon="8.02010314087378"><ele>274.0</ele><time>2026-04-19T10:37:47Z</time></trkpt><trkpt lat="44.819891653393775" lon="8.020102784230545"><ele>274.0</ele><time>2026-04-19T10:37:48Z</time></trkpt><trkpt lat="44.81976246858735" lon="8.020104149467137"><ele>274.0</ele><time>2026-04-19T10:37:49Z</time></trkpt><trkpt lat="44.819627183270555" lon="8.020106581154582"><ele>274.0</ele><time>2026-04-19T10:37:50Z</time></trkpt><trkpt lat="44.81950809120772" lon="8.020097997567275"><ele>274.0</ele><time>2026-04-19T10:37:51Z</time></trkpt><trkpt lat="44.81939428998214" lon="8.020066036026048"><ele>274.0</ele><time>2026-04-19T10:37:52Z</time></trkpt><trkpt lat="44.81929061472166" lon="8.020019247158816"><ele>274.0</ele><time>2026-04-19T10:37:53Z</time></trkpt><trkpt lat="44.819176703555115" lon="8.019980593086096"><ele>273.75</ele><time>2026-04-19T10:37:54Z</time></trkpt><trkpt lat="44.81907838274728" lon="8.019926297112391"><ele>273.5</ele><time>2026-04-19T10:37:55Z</time></trkpt><trkpt lat="44.81897111477281" lon="8.019838569027275"><ele>273.25</ele><time>2026-04-19T10:37:56Z</time></trkpt><trkpt lat="44.818859454659965" lon="8.019754023484793"><ele>273.0</ele><time>2026-04-19T10:37:57Z</time></trkpt><trkpt lat="44.818738661925536" lon="8.019671880989168"><ele>273.0</ele><time>2026-04-19T10:37:58Z</time></trkpt><trkpt lat="44.81861658752003" lon="8.019603291648618"><ele>273.0</ele><time>2026-04-19T10:37:59Z</time></trkpt><trkpt lat="44.818504450348264" lon="8.019532657814619"><ele>273.0</ele><time>2026-04-19T10:38:00Z</time></trkpt><trkpt lat="44.81839865061035" lon="8.019477430217654"><ele>273.0</ele><time>2026-04-19T10:38:01Z</time></trkpt><trkpt lat="44.818299187379765" lon="8.019409636585246"><ele>273.0</ele><time>2026-04-19T10:38:02Z</time></trkpt><trkpt lat="44.81820023145241" lon="8.019364805017352"><ele>273.0</ele><time>2026-04-19T10:38:03Z</time></trkpt><trkpt lat="44.818096229841004" lon="8.019366053193984"><ele>273.0</ele><time>2026-04-19T10:38:04Z</time></trkpt><trkpt lat="44.81801138480751" lon="8.01938031299207"><ele>273.0</ele><time>2026-04-19T10:38:05Z</time></trkpt><trkpt lat="44.81793130664382" lon="8.019418849760179"><ele>273.0</ele><time>2026-04-19T10:38:06Z</time></trkpt><trkpt lat="44.81785553663089" lon="8.019448557747308"><ele>273.0</ele><time>2026-04-19T10:38:07Z</time></trkpt><trkpt lat="44.81777937246749" lon="8.019462147929444"><ele>273.0</ele><time>2026-04-19T10:38:08Z</time></trkpt><trkpt lat="44.81763219242715" lon="8.019512515310979"><ele>273.0</ele><time>2026-04-19T10:38:10Z</time></trkpt><trkpt lat="44.817503380650564" lon="8.019576006397354"><ele>273.0</ele><time>2026-04-19T10:38:12Z</time></trkpt><trkpt lat="44.817432306902326" lon="8.019651041915633"><ele>273.6</ele><time>2026-04-19T10:38:13Z</time></trkpt><trkpt lat="44.81737196975245" lon="8.019756372558247"><ele>274.20000000000005</ele><time>2026-04-19T10:38:14Z</time></trkpt><trkpt lat="44.81733258102775" lon="8.019894611697742"><ele>274.8</ele><time>2026-04-19T10:38:15Z</time></trkpt><trkpt lat="44.817306514100494" lon="8.020061073260937"><ele>275.40000000000003</ele><time>2026-04-19T10:38:16Z</time></trkpt><trkpt lat="44.81730847680409" lon="8.020224491005996"><ele>276.0</ele><time>2026-04-19T10:38:17Z</time></trkpt><trkpt lat="44.8173221528906" lon="8.020397242384076"><ele>277.25</ele><time>2026-04-19T10:38:18Z</time></trkpt><trkpt lat="44.817329848885905" lon="8.020556348109196"><ele>278.5</ele><time>2026-04-19T10:38:19Z</time></trkpt><trkpt lat="44.817333900840055" lon="8.02071064055873"><ele>279.75</ele><time>2026-04-19T10:38:20Z</time></trkpt><trkpt lat="44.817347306813765" lon="8.020888179702368"><ele>281.0</ele><time>2026-04-19T10:38:21Z</time></trkpt><trkpt lat="44.817374249558696" lon="8.021055435702793"><ele>281.2</ele><time>2026-04-19T10:38:22Z</time></trkpt><trkpt lat="44.81738471402712" lon="8.021205385585324"><ele>281.40000000000003</ele><time>2026-04-19T10:38:23Z</time></trkpt><trkpt lat="44.81737293341728" lon="8.021334610317385"><ele>281.6</ele><time>2026-04-19T10:38:24Z</time></trkpt><trkpt lat="44.81733217709595" lon="8.021459949321892"><ele>281.8</ele><time>2026-04-19T10:38:25Z</time></trkpt><trkpt lat="44.8172982631871" lon="8.021565247466125"><ele>282.0</ele><time>2026-04-19T10:38:26Z</time></trkpt><trkpt lat="44.8172513185792" lon="8.021701592232963"><ele>282.5</ele><time>2026-04-19T10:38:27Z</time></trkpt><trkpt lat="44.81725008762813" lon="8.021826695065323"><ele>283.0</ele><time>2026-04-19T10:38:28Z</time></trkpt><trkpt lat="44.81727240521243" lon="8.02193443715733"><ele>283.5</ele><time>2026-04-19T10:38:29Z</time></trkpt><trkpt lat="44.81730529002371" lon="8.02202909064279"><ele>284.0</ele><time>2026-04-19T10:38:30Z</time></trkpt><trkpt lat="44.81729500833427" lon="8.022125133241559"><ele>284.5</ele><time>2026-04-19T10:38:31Z</time></trkpt><trkpt lat="44.817286422435124" lon="8.022305023039577"><ele>285.0</ele><time>2026-04-19T10:38:33Z</time></trkpt><trkpt lat="44.81727207020663" lon="8.0224625618077"><ele>286.0</ele><time>2026-04-19T10:38:34Z</time></trkpt><trkpt lat="44.8172703935859" lon="8.022622467218547"><ele>287.0</ele><time>2026-04-19T10:38:35Z</time></trkpt><trkpt lat="44.81723951693475" lon="8.022787171620923"><ele>288.0</ele><time>2026-04-19T10:38:36Z</time></trkpt><trkpt lat="44.81719154987726" lon="8.022948067861272"><ele>289.0</ele><time>2026-04-19T10:38:37Z</time></trkpt><trkpt lat="44.81713709569463" lon="8.023127901429703"><ele>291.0</ele><time>2026-04-19T10:38:38Z</time></trkpt><trkpt lat="44.817083915262515" lon="8.023321655531028"><ele>293.0</ele><time>2026-04-19T10:38:39Z</time></trkpt><trkpt lat="44.8170313019347" lon="8.023516393989144"><ele>295.0</ele><time>2026-04-19T10:38:40Z</time></trkpt><trkpt lat="44.81698764532529" lon="8.023689149689439"><ele>297.0</ele><time>2026-04-19T10:38:41Z</time></trkpt><trkpt lat="44.8169319498326" lon="8.023828425614187"><ele>297.0</ele><time>2026-04-19T10:38:42Z</time></trkpt><trkpt lat="44.816855706005114" lon="8.023968946379135"><ele>297.0</ele><time>2026-04-19T10:38:43.001Z</time></trkpt><trkpt lat="44.816757778751395" lon="8.024119389759534"><ele>297.0</ele><time>2026-04-19T10:38:44.001Z</time></trkpt><trkpt lat="44.81667131243316" lon="8.02425463803761"><ele>297.0</ele><time>2026-04-19T10:38:45.001Z</time></trkpt><trkpt lat="44.8165839973498" lon="8.024357434325248"><ele>295.0</ele><time>2026-04-19T10:38:46.001Z</time></trkpt><trkpt lat="44.816520254232245" lon="8.024494013925139"><ele>293.0</ele><time>2026-04-19T10:38:47.001Z</time></trkpt><trkpt lat="44.81648820349447" lon="8.02458774768142"><ele>291.0</ele><time>2026-04-19T10:38:48.001Z</time></trkpt><trkpt lat="44.81646403000984" lon="8.024716501935409"><ele>289.0</ele><time>2026-04-19T10:38:49.001Z</time></trkpt><trkpt lat="44.816505614525035" lon="8.024926855014927"><ele>287.0</ele><time>2026-04-19T10:38:50.001Z</time></trkpt><trkpt lat="44.81653238855902" lon="8.025080228940727"><ele>287.0</ele><time>2026-04-19T10:38:51.001Z</time></trkpt><trkpt lat="44.81651471203949" lon="8.025218636614746"><ele>287.0</ele><time>2026-04-19T10:38:52.001Z</time></trkpt><trkpt lat="44.8164810383314" lon="8.025343744063928"><ele>287.0</ele><time>2026-04-19T10:38:53.001Z</time></trkpt><trkpt lat="44.81642557388598" lon="8.025470472499565"><ele>287.0</ele><time>2026-04-19T10:38:54.001Z</time></trkpt><trkpt lat="44.81636290127499" lon="8.025601029641082"><ele>287.0</ele><time>2026-04-19T10:38:55.001Z</time></trkpt><trkpt lat="44.81630384131751" lon="8.02574172382557"><ele>285.8</ele><time>2026-04-19T10:38:56.001Z</time></trkpt><trkpt lat="44.816265603935356" lon="8.025874004345852"><ele>284.6</ele><time>2026-04-19T10:38:57.001Z</time></trkpt><trkpt lat="44.81620401377606" lon="8.02598584038714"><ele>283.40000000000003</ele><time>2026-04-19T10:38:58.001Z</time></trkpt><trkpt lat="44.81616382690549" lon="8.02611400111377"><ele>282.2</ele><time>2026-04-19T10:38:59.001Z</time></trkpt><trkpt lat="44.81609467036713" lon="8.026139135294178"><ele>281.0</ele><time>2026-04-19T10:39:00.001Z</time></trkpt><trkpt lat="44.81602168076191" lon="8.026215446193575"><ele>276.75</ele><time>2026-04-19T10:39:01.001Z</time></trkpt><trkpt lat="44.81592013680483" lon="8.026292390104288"><ele>272.5</ele><time>2026-04-19T10:39:02.001Z</time></trkpt><trkpt lat="44.81581224343969" lon="8.026391542775809"><ele>268.25</ele><time>2026-04-19T10:39:03.001Z</time></trkpt><trkpt lat="44.815684208805614" lon="8.02647191195774"><ele>264.0</ele><time>2026-04-19T10:39:04.001Z</time></trkpt><trkpt lat="44.815564447955396" lon="8.026558221210879"><ele>264.0</ele><time>2026-04-19T10:39:05.001Z</time></trkpt><trkpt lat="44.81545162988381" lon="8.026629247769833"><ele>264.0</ele><time>2026-04-19T10:39:06.001Z</time></trkpt><trkpt lat="44.815317264559724" lon="8.02668697077515"><ele>264.0</ele><time>2026-04-19T10:39:07.001Z</time></trkpt><trkpt lat="44.81520829504953" lon="8.026766347476856"><ele>264.0</ele><time>2026-04-19T10:39:08.001Z</time></trkpt><trkpt lat="44.815107329260115" lon="8.026834974331722"><ele>263.2</ele><time>2026-04-19T10:39:09.001Z</time></trkpt><trkpt lat="44.81501183618378" lon="8.026926575511954"><ele>262.4</ele><time>2026-04-19T10:39:10.001Z</time></trkpt><trkpt lat="44.814940227704334" lon="8.027012232356906"><ele>261.6</ele><time>2026-04-19T10:39:11.001Z</time></trkpt><trkpt lat="44.81491783586301" lon="8.027115435396636"><ele>260.8</ele><time>2026-04-19T10:39:12.001Z</time></trkpt><trkpt lat="44.814892539489485" lon="8.027240165597163"><ele>260.0</ele><time>2026-04-19T10:39:13.001Z</time></trkpt><trkpt lat="44.814893704508506" lon="8.02739545628464"><ele>259.33333333333337</ele><time>2026-04-19T10:39:14.001Z</time></trkpt><trkpt lat="44.81491444457039" lon="8.02753730983108"><ele>258.6666666666667</ele><time>2026-04-19T10:39:15.001Z</time></trkpt><trkpt lat="44.814959073589876" lon="8.027653491350518"><ele>258.0</ele><time>2026-04-19T10:39:16.001Z</time></trkpt><trkpt lat="44.81498224208985" lon="8.027783763533698"><ele>257.3333333333333</ele><time>2026-04-19T10:39:17.001Z</time></trkpt><trkpt lat="44.815006112523236" lon="8.027901526411078"><ele>256.66666666666663</ele><time>2026-04-19T10:39:18.001Z</time></trkpt><trkpt lat="44.81501942330068" lon="8.027996532326581"><ele>256.0</ele><time>2026-04-19T10:39:19.001Z</time></trkpt><trkpt lat="44.81502875895597" lon="8.028085433487762"><ele>255.99999999999997</ele><time>2026-04-19T10:39:21.001Z</time></trkpt><trkpt lat="44.81507439496817" lon="8.028166679790056"><ele>256.0</ele><time>2026-04-19T10:39:33.001Z</time></trkpt><trkpt lat="44.8150748294292" lon="8.028295455391543"><ele>256.0</ele><time>2026-04-19T10:39:35.001Z</time></trkpt><trkpt lat="44.8150661724068" lon="8.028410799521673"><ele>256.0</ele><time>2026-04-19T10:39:36.001Z</time></trkpt><trkpt lat="44.81505697394164" lon="8.028530050463239"><ele>255.99999999999997</ele><time>2026-04-19T10:39:37.001Z</time></trkpt><trkpt lat="44.81501803517199" lon="8.028660512544644"><ele>256.0</ele><time>2026-04-19T10:39:38.001Z</time></trkpt><trkpt lat="44.81501355177526" lon="8.028799508630803"><ele>254.20000000000002</ele><time>2026-04-19T10:39:39.001Z</time></trkpt><trkpt lat="44.81501594772383" lon="8.028949001148014"><ele>252.40000000000003</ele><time>2026-04-19T10:39:40.001Z</time></trkpt><trkpt lat="44.81502324508512" lon="8.029101436426794"><ele>250.6</ele><time>2026-04-19T10:39:41.001Z</time></trkpt><trkpt lat="44.81503118653533" lon="8.02925385962985"><ele>248.8</ele><time>2026-04-19T10:39:42.001Z</time></trkpt><trkpt lat="44.81503744260376" lon="8.02941270233604"><ele>247.0</ele><time>2026-04-19T10:39:43.001Z</time></trkpt><trkpt lat="44.81504149157657" lon="8.029577449275427"><ele>247.0</ele><time>2026-04-19T10:39:44.001Z</time></trkpt><trkpt lat="44.81504230467579" lon="8.029745366863182"><ele>247.0</ele><time>2026-04-19T10:39:45.001Z</time></trkpt><trkpt lat="44.81504187705893" lon="8.029925564925145"><ele>247.0</ele><time>2026-04-19T10:39:46.001Z</time></trkpt><trkpt lat="44.81504083273548" lon="8.030109141981194"><ele>247.0</ele><time>2026-04-19T10:39:47.001Z</time></trkpt><trkpt lat="44.81503974279697" lon="8.030296764933489"><ele>247.0</ele><time>2026-04-19T10:39:48.001Z</time></trkpt><trkpt lat="44.815040533080804" lon="8.030471958349402"><ele>247.0</ele><time>2026-04-19T10:39:49.001Z</time></trkpt><trkpt lat="44.81504119154277" lon="8.030617929093417"><ele>247.0</ele><time>2026-04-19T10:39:50.001Z</time></trkpt><trkpt lat="44.81504161060042" lon="8.030717214813265"><ele>247.0</ele><time>2026-04-19T10:39:51Z</time></trkpt><trkpt lat="44.8150433103783" lon="8.030845011230152"><ele>247.0</ele><time>2026-04-19T10:39:53Z</time></trkpt><trkpt lat="44.81504462274447" lon="8.030943680337458"><ele>246.99999999999997</ele><time>2026-04-19T10:39:58Z</time></trkpt><trkpt lat="44.81504429981585" lon="8.030804278093903"><ele>247.0</ele><time>2026-04-19T10:40:02Z</time></trkpt><trkpt lat="44.81507796035664" lon="8.030707004140723"><ele>247.0</ele><time>2026-04-19T10:40:04Z</time></trkpt><trkpt lat="44.81508746328651" lon="8.030600657680694"><ele>247.0</ele><time>2026-04-19T10:40:07Z</time></trkpt><trkpt lat="44.81507485802682" lon="8.030490022852682"><ele>246.99999999999997</ele><time>2026-04-19T10:40:09Z</time></trkpt><trkpt lat="44.815144165525" lon="8.030420267730449"><ele>247.0</ele><time>2026-04-19T10:40:12Z</time></trkpt><trkpt lat="44.815229139056434" lon="8.030436840816847"><ele>245.83333333333331</ele><time>2026-04-19T10:40:13Z</time></trkpt><trkpt lat="44.815328310184626" lon="8.030449622811899"><ele>244.66666666666666</ele><time>2026-04-19T10:40:14Z</time></trkpt><trkpt lat="44.81541825169096" lon="8.030446716070891"><ele>243.5</ele><time>2026-04-19T10:40:15Z</time></trkpt><trkpt lat="44.81548370549879" lon="8.030459293515912"><ele>242.33333333333331</ele><time>2026-04-19T10:40:16Z</time></trkpt><trkpt lat="44.815579510534974" lon="8.030468378023098"><ele>241.16666666666666</ele><time>2026-04-19T10:40:18Z</time></trkpt><trkpt lat="44.81565095480413" lon="8.030463941911103"><ele>240.0</ele><time>2026-04-19T10:40:21Z</time></trkpt><trkpt lat="44.815719305911934" lon="8.03038433795038"><ele>240.0</ele><time>2026-04-19T10:40:24Z</time></trkpt><trkpt lat="44.815806762340166" lon="8.03029166753289"><ele>240.0</ele><time>2026-04-19T10:40:26Z</time></trkpt><trkpt lat="44.815874596945356" lon="8.03020309804775"><ele>240.0</ele><time>2026-04-19T10:40:28Z</time></trkpt><trkpt lat="44.81594518284937" lon="8.03022685648375"><ele>240.0</ele><time>2026-04-19T10:40:31Z</time></trkpt><trkpt lat="44.81600196282502" lon="8.030336921508233"><ele>240.0</ele><time>2026-04-19T10:40:33Z</time></trkpt><trkpt lat="44.8161038793087" lon="8.030455016482831"><ele>236.5</ele><time>2026-04-19T10:40:35Z</time></trkpt><trkpt lat="44.81617456849416" lon="8.030518942057112"><ele>233.0</ele><time>2026-04-19T10:40:36Z</time></trkpt><trkpt lat="44.81624252179785" lon="8.030574151227487"><ele>229.5</ele><time>2026-04-19T10:40:37Z</time></trkpt><trkpt lat="44.816300282542095" lon="8.03065061740954"><ele>226.0</ele><time>2026-04-19T10:40:38Z</time></trkpt><trkpt lat="44.81636227031161" lon="8.030762731075878"><ele>222.5</ele><time>2026-04-19T10:40:41Z</time></trkpt><trkpt lat="44.816381712980885" lon="8.030899801871309"><ele>219.0</ele><time>2026-04-19T10:40:43Z</time></trkpt><trkpt lat="44.81646431874604" lon="8.03088718250356"><ele>217.6</ele><time>2026-04-19T10:40:45Z</time></trkpt><trkpt lat="44.816529742126285" lon="8.030902818466604"><ele>216.2</ele><time>2026-04-19T10:40:46Z</time></trkpt><trkpt lat="44.81661258130195" lon="8.030943421920519"><ele>214.79999999999998</ele><time>2026-04-19T10:40:48Z</time></trkpt><trkpt lat="44.81660913021302" lon="8.031055240241779"><ele>213.39999999999998</ele><time>2026-04-19T10:40:51Z</time></trkpt><trkpt lat="44.81664600563416" lon="8.031167948298432"><ele>212.0</ele><time>2026-04-19T10:40:53Z</time></trkpt><trkpt lat="44.8166482265131" lon="8.031364263566056"><ele>212.0</ele><time>2026-04-19T10:40:54Z</time></trkpt><trkpt lat="44.81665618569511" lon="8.03155843157326"><ele>212.0</ele><time>2026-04-19T10:40:55Z</time></trkpt><trkpt lat="44.81667456758299" lon="8.031720951703829"><ele>212.0</ele><time>2026-04-19T10:40:56Z</time></trkpt><trkpt lat="44.81669182879271" lon="8.03189918461784"><ele>212.0</ele><time>2026-04-19T10:40:57Z</time></trkpt><trkpt lat="44.816697134542224" lon="8.03203166458192"><ele>212.16666666666669</ele><time>2026-04-19T10:40:58Z</time></trkpt><trkpt lat="44.81669919778504" lon="8.03216408992696"><ele>212.33333333333334</ele><time>2026-04-19T10:40:59Z</time></trkpt><trkpt lat="44.81666128424809" lon="8.032309171114832"><ele>212.5</ele><time>2026-04-19T10:41:00Z</time></trkpt><trkpt lat="44.816679959060814" lon="8.032418677959809"><ele>212.66666666666669</ele><time>2026-04-19T10:41:01Z</time></trkpt><trkpt lat="44.81669328291214" lon="8.032541612872459"><ele>212.83333333333334</ele><time>2026-04-19T10:41:02Z</time></trkpt><trkpt lat="44.81670229078846" lon="8.032643995480825"><ele>213.0</ele><time>2026-04-19T10:41:03Z</time></trkpt><trkpt lat="44.81674594574406" lon="8.032848665641456"><ele>213.8</ele><time>2026-04-19T10:41:05Z</time></trkpt><trkpt lat="44.816769202406135" lon="8.032978715617919"><ele>214.60000000000002</ele><time>2026-04-19T10:41:06Z</time></trkpt><trkpt lat="44.816783648662884" lon="8.0330964674233"><ele>215.39999999999998</ele><time>2026-04-19T10:41:07Z</time></trkpt><trkpt lat="44.81679791245799" lon="8.033252869135064"><ele>216.2</ele><time>2026-04-19T10:41:08Z</time></trkpt><trkpt lat="44.81683539336282" lon="8.0333886109855"><ele>217.0</ele><time>2026-04-19T10:41:09Z</time></trkpt><trkpt lat="44.816864175688615" lon="8.033521261958553"><ele>213.39999999999998</ele><time>2026-04-19T10:41:10.001Z</time></trkpt><trkpt lat="44.8168892794456" lon="8.033660257622213"><ele>209.79999999999998</ele><time>2026-04-19T10:41:11.001Z</time></trkpt><trkpt lat="44.816917590798425" lon="8.033798844747228"><ele>206.2</ele><time>2026-04-19T10:41:12.001Z</time></trkpt><trkpt lat="44.81693198761948" lon="8.03397255250096"><ele>202.6</ele><time>2026-04-19T10:41:13.001Z</time></trkpt><trkpt lat="44.81694778591252" lon="8.0341203717793"><ele>199.0</ele><time>2026-04-19T10:41:14.001Z</time></trkpt><trkpt lat="44.81695302657248" lon="8.034248394131083"><ele>198.79999999999998</ele><time>2026-04-19T10:41:15.001Z</time></trkpt><trkpt lat="44.81695746137367" lon="8.034422775508592"><ele>198.6</ele><time>2026-04-19T10:41:16.001Z</time></trkpt><trkpt lat="44.81696428670431" lon="8.034595666954663"><ele>198.4</ele><time>2026-04-19T10:41:17.001Z</time></trkpt><trkpt lat="44.81696668412965" lon="8.034725266623715"><ele>198.2</ele><time>2026-04-19T10:41:18.001Z</time></trkpt><trkpt lat="44.81695436380809" lon="8.034842922092606"><ele>198.0</ele><time>2026-04-19T10:41:19.001Z</time></trkpt><trkpt lat="44.81697050520502" lon="8.034953019940307"><ele>198.16666666666666</ele><time>2026-04-19T10:41:20.001Z</time></trkpt><trkpt lat="44.816983443668995" lon="8.035105166653146"><ele>198.33333333333331</ele><time>2026-04-19T10:41:22.001Z</time></trkpt><trkpt lat="44.81694581090624" lon="8.03518126641705"><ele>198.5</ele><time>2026-04-19T10:41:23.001Z</time></trkpt><trkpt lat="44.81689533972845" lon="8.035243621052926"><ele>198.66666666666666</ele><time>2026-04-19T10:41:24.001Z</time></trkpt><trkpt lat="44.81693357631331" lon="8.035380834084226"><ele>198.83333333333331</ele><time>2026-04-19T10:41:26.001Z</time></trkpt><trkpt lat="44.81690745505018" lon="8.035466117303857"><ele>199.0</ele><time>2026-04-19T10:41:27.001Z</time></trkpt><trkpt lat="44.81685289288885" lon="8.035539233873905"><ele>202.66666666666666</ele><time>2026-04-19T10:41:28.001Z</time></trkpt><trkpt lat="44.816801217394335" lon="8.035612468382068"><ele>206.33333333333331</ele><time>2026-04-19T10:41:29.001Z</time></trkpt><trkpt lat="44.81673731902934" lon="8.035667507509725"><ele>210.0</ele><time>2026-04-19T10:41:30.001Z</time></trkpt><trkpt lat="44.81666108376752" lon="8.035688169988484"><ele>213.66666666666669</ele><time>2026-04-19T10:41:31.001Z</time></trkpt><trkpt lat="44.81659821895689" lon="8.035754911947942"><ele>217.33333333333334</ele><time>2026-04-19T10:41:32.001Z</time></trkpt><trkpt lat="44.81653429909033" lon="8.035769290514413"><ele>221.0</ele><time>2026-04-19T10:41:33.001Z</time></trkpt><trkpt lat="44.81642998913251" lon="8.035789183127857"><ele>221.0</ele><time>2026-04-19T10:41:35.001Z</time></trkpt><trkpt lat="44.81630467567401" lon="8.035736788097292"><ele>221.00000000000003</ele><time>2026-04-19T10:41:37.001Z</time></trkpt><trkpt lat="44.816233422477055" lon="8.035751223448399"><ele>221.00000000000003</ele><time>2026-04-19T10:41:39.001Z</time></trkpt><trkpt lat="44.81622859361807" lon="8.035894769343574"><ele>221.0</ele><time>2026-04-19T10:41:41.001Z</time></trkpt><trkpt lat="44.8162134344106" lon="8.036006810463835"><ele>221.0</ele><time>2026-04-19T10:41:42.001Z</time></trkpt><trkpt lat="44.816179136051744" lon="8.036107531358521"><ele>220.0</ele><time>2026-04-19T10:41:43.001Z</time></trkpt><trkpt lat="44.81611165758108" lon="8.036193148080427"><ele>219.00000000000003</ele><time>2026-04-19T10:41:44.001Z</time></trkpt><trkpt lat="44.816000012314404" lon="8.036233266008935"><ele>218.00000000000003</ele><time>2026-04-19T10:41:45.001Z</time></trkpt><trkpt lat="44.8158946590492" lon="8.03629611765261"><ele>217.0</ele><time>2026-04-19T10:41:46.001Z</time></trkpt><trkpt lat="44.815819167815306" lon="8.036345724476059"><ele>216.0</ele><time>2026-04-19T10:41:47.001Z</time></trkpt><trkpt lat="44.81577201662261" lon="8.036408673907236"><ele>215.20000000000002</ele><time>2026-04-19T10:41:48.001Z</time></trkpt><trkpt lat="44.815770916058625" lon="8.036524235402911"><ele>214.40000000000003</ele><time>2026-04-19T10:41:49.001Z</time></trkpt><trkpt lat="44.81584795419535" lon="8.036650095918267"><ele>213.6</ele><time>2026-04-19T10:41:50.001Z</time></trkpt><trkpt lat="44.81597635416509" lon="8.036686194896697"><ele>212.8</ele><time>2026-04-19T10:41:51.001Z</time></trkpt><trkpt lat="44.81607343860352" lon="8.036728870559438"><ele>212.0</ele><time>2026-04-19T10:41:52.001Z</time></trkpt><trkpt lat="44.816152608635406" lon="8.036797863450412"><ele>212.0</ele><time>2026-04-19T10:41:53.001Z</time></trkpt><trkpt lat="44.816209809785704" lon="8.03688092822726"><ele>212.0</ele><time>2026-04-19T10:41:54.001Z</time></trkpt><trkpt lat="44.8162311997618" lon="8.036975003470094"><ele>212.0</ele><time>2026-04-19T10:41:55.001Z</time></trkpt><trkpt lat="44.8162134127602" lon="8.037069852955941"><ele>212.0</ele><time>2026-04-19T10:41:56.001Z</time></trkpt><trkpt lat="44.81617731681743" lon="8.037244904159403"><ele>212.0</ele><time>2026-04-19T10:41:57Z</time></trkpt><trkpt lat="44.81615979404601" lon="8.037450748085085"><ele>210.75</ele><time>2026-04-19T10:41:58Z</time></trkpt><trkpt lat="44.81614145776543" lon="8.0376613801863"><ele>209.5</ele><time>2026-04-19T10:41:59Z</time></trkpt><trkpt lat="44.81612354699082" lon="8.03785371715414"><ele>208.25</ele><time>2026-04-19T10:42:00Z</time></trkpt><trkpt lat="44.8161068591693" lon="8.038017376014151"><ele>207.0</ele><time>2026-04-19T10:42:01Z</time></trkpt><trkpt lat="44.81609220568451" lon="8.038188952995686"><ele>205.25</ele><time>2026-04-19T10:42:02Z</time></trkpt><trkpt lat="44.81610273926693" lon="8.038360141388848"><ele>203.5</ele><time>2026-04-19T10:42:03Z</time></trkpt><trkpt lat="44.81609936899896" lon="8.038531566528693"><ele>201.75</ele><time>2026-04-19T10:42:04Z</time></trkpt><trkpt lat="44.816096396477626" lon="8.038703019517243"><ele>200.0</ele><time>2026-04-19T10:42:05Z</time></trkpt><trkpt lat="44.8161168965683" lon="8.038870098652614"><ele>200.0</ele><time>2026-04-19T10:42:06Z</time></trkpt><trkpt lat="44.816144501364775" lon="8.039036285553006"><ele>200.0</ele><time>2026-04-19T10:42:07Z</time></trkpt><trkpt lat="44.81617433549267" lon="8.039193637198522"><ele>200.0</ele><time>2026-04-19T10:42:08Z</time></trkpt><trkpt lat="44.81616065586419" lon="8.039327484923518"><ele>200.0</ele><time>2026-04-19T10:42:09Z</time></trkpt><trkpt lat="44.81613748076873" lon="8.039476510162167"><ele>200.0</ele><time>2026-04-19T10:42:10Z</time></trkpt><trkpt lat="44.816106942944245" lon="8.03965939630206"><ele>198.75</ele><time>2026-04-19T10:42:11Z</time></trkpt><trkpt lat="44.81606197997448" lon="8.039825517629346"><ele>197.5</ele><time>2026-04-19T10:42:12Z</time></trkpt><trkpt lat="44.81602596071579" lon="8.039967245584508"><ele>196.25</ele><time>2026-04-19T10:42:13Z</time></trkpt><trkpt lat="44.81599311441111" lon="8.040066120901129"><ele>195.0</ele><time>2026-04-19T10:42:14Z</time></trkpt><trkpt lat="44.815853749678766" lon="8.04011865375361"><ele>192.6</ele><time>2026-04-19T10:42:16Z</time></trkpt><trkpt lat="44.81573320724165" lon="8.040168087340042"><ele>190.2</ele><time>2026-04-19T10:42:17Z</time></trkpt><trkpt lat="44.81562631211894" lon="8.040222894261769"><ele>187.8</ele><time>2026-04-19T10:42:18Z</time></trkpt><trkpt lat="44.81552683476134" lon="8.040237647936687"><ele>185.4</ele><time>2026-04-19T10:42:19Z</time></trkpt><trkpt lat="44.81545429474176" lon="8.040308909087672"><ele>183.0</ele><time>2026-04-19T10:42:21Z</time></trkpt><trkpt lat="44.815461094239105" lon="8.040513265469194"><ele>183.0</ele><time>2026-04-19T10:42:23Z</time></trkpt><trkpt lat="44.81547940728966" lon="8.040652176793646"><ele>183.0</ele><time>2026-04-19T10:42:24Z</time></trkpt><trkpt lat="44.815500577402226" lon="8.040792360328739"><ele>183.0</ele><time>2026-04-19T10:42:25Z</time></trkpt><trkpt lat="44.815536496516394" lon="8.040963233385659"><ele>183.0</ele><time>2026-04-19T10:42:26Z</time></trkpt><trkpt lat="44.81556443581246" lon="8.041151679338746"><ele>181.75</ele><time>2026-04-19T10:42:27Z</time></trkpt><trkpt lat="44.81560922106899" lon="8.041352067094188"><ele>180.5</ele><time>2026-04-19T10:42:28Z</time></trkpt><trkpt lat="44.81564838009767" lon="8.041541914032646"><ele>179.25</ele><time>2026-04-19T10:42:29Z</time></trkpt><trkpt lat="44.81569647899803" lon="8.041709861937191"><ele>178.0</ele><time>2026-04-19T10:42:30Z</time></trkpt><trkpt lat="44.81576070471933" lon="8.041872610296489"><ele>177.8</ele><time>2026-04-19T10:42:31Z</time></trkpt><trkpt lat="44.81582749654135" lon="8.042007600538895"><ele>177.60000000000002</ele><time>2026-04-19T10:42:32Z</time></trkpt><trkpt lat="44.815900638870076" lon="8.042113287369782"><ele>177.39999999999998</ele><time>2026-04-19T10:42:33Z</time></trkpt><trkpt lat="44.81592987434492" lon="8.042240449169146"><ele>177.2</ele><time>2026-04-19T10:42:34Z</time></trkpt><trkpt lat="44.815954400779376" lon="8.042365741887746"><ele>177.0</ele><time>2026-04-19T10:42:35Z</time></trkpt><trkpt lat="44.81594429464006" lon="8.0424721725096"><ele>175.8</ele><time>2026-04-19T10:42:36Z</time></trkpt><trkpt lat="44.81589390611782" lon="8.042582485379961"><ele>174.6</ele><time>2026-04-19T10:42:37Z</time></trkpt><trkpt lat="44.81583504164102" lon="8.042677988792372"><ele>173.4</ele><time>2026-04-19T10:42:38Z</time></trkpt><trkpt lat="44.81575310286595" lon="8.042749121167988"><ele>172.20000000000002</ele><time>2026-04-19T10:42:39Z</time></trkpt><trkpt lat="44.81568009468865" lon="8.04285703825968"><ele>171.0</ele><time>2026-04-19T10:42:40Z</time></trkpt><trkpt lat="44.81560464413082" lon="8.042970478476045"><ele>171.0</ele><time>2026-04-19T10:42:41Z</time></trkpt><trkpt lat="44.81554009721099" lon="8.043102194484145"><ele>171.0</ele><time>2026-04-19T10:42:42Z</time></trkpt><trkpt lat="44.81547041348121" lon="8.04322535259184"><ele>171.0</ele><time>2026-04-19T10:42:43Z</time></trkpt><trkpt lat="44.815400673919946" lon="8.04336905226533"><ele>171.0</ele><time>2026-04-19T10:42:44Z</time></trkpt><trkpt lat="44.815355974065255" lon="8.043523884226566"><ele>171.25</ele><time>2026-04-19T10:42:45Z</time></trkpt><trkpt lat="44.81531163406355" lon="8.043684022446469"><ele>171.5</ele><time>2026-04-19T10:42:46Z</time></trkpt><trkpt lat="44.815272229059936" lon="8.043839455473748"><ele>171.75</ele><time>2026-04-19T10:42:47Z</time></trkpt><trkpt lat="44.815214800269665" lon="8.043975787363333"><ele>172.0</ele><time>2026-04-19T10:42:48Z</time></trkpt><trkpt lat="44.81517277276652" lon="8.044107967673428"><ele>172.2</ele><time>2026-04-19T10:42:49Z</time></trkpt><trkpt lat="44.81513636297953" lon="8.044222479751353"><ele>172.39999999999998</ele><time>2026-04-19T10:42:50Z</time></trkpt><trkpt lat="44.81510080557697" lon="8.044334311002165"><ele>172.60000000000002</ele><time>2026-04-19T10:42:52Z</time></trkpt><trkpt lat="44.815082709610145" lon="8.044432561682997"><ele>172.8</ele><time>2026-04-19T10:42:55Z</time></trkpt><trkpt lat="44.815245047194935" lon="8.044585010385212"><ele>173.0</ele><time>2026-04-19T10:42:56Z</time></trkpt><trkpt lat="44.815333217726106" lon="8.04467358957784"><ele>173.0</ele><time>2026-04-19T10:42:57Z</time></trkpt><trkpt lat="44.81542300338899" lon="8.04476608818213"><ele>173.0</ele><time>2026-04-19T10:42:58Z</time></trkpt><trkpt lat="44.81552247031911" lon="8.044880656859135"><ele>173.0</ele><time>2026-04-19T10:42:59.001Z</time></trkpt><trkpt lat="44.81563286944247" lon="8.04501701399303"><ele>173.0</ele><time>2026-04-19T10:43:00.001Z</time></trkpt><trkpt lat="44.81574436020298" lon="8.045165547967187"><ele>173.66666666666666</ele><time>2026-04-19T10:43:01.001Z</time></trkpt><trkpt lat="44.8158555151314" lon="8.045326284771688"><ele>174.33333333333334</ele><time>2026-04-19T10:43:02.001Z</time></trkpt><trkpt lat="44.81597180146548" lon="8.045483726642853"><ele>175.0</ele><time>2026-04-19T10:43:03.001Z</time></trkpt><trkpt lat="44.81608368488771" lon="8.045641430625196"><ele>174.33333333333334</ele><time>2026-04-19T10:43:04.001Z</time></trkpt><trkpt lat="44.81618748326462" lon="8.045815218618715"><ele>173.66666666666666</ele><time>2026-04-19T10:43:05.001Z</time></trkpt><trkpt lat="44.81628843244138" lon="8.045968702241474"><ele>173.0</ele><time>2026-04-19T10:43:06.001Z</time></trkpt><trkpt lat="44.81637983100478" lon="8.046141055619433"><ele>173.0</ele><time>2026-04-19T10:43:07.001Z</time></trkpt><trkpt lat="44.81646286327293" lon="8.046331160428263"><ele>173.0</ele><time>2026-04-19T10:43:08.001Z</time></trkpt><trkpt lat="44.8165445873054" lon="8.04650937062717"><ele>173.0</ele><time>2026-04-19T10:43:09.001Z</time></trkpt><trkpt lat="44.81662895305803" lon="8.046678892712157"><ele>172.75</ele><time>2026-04-19T10:43:10.001Z</time></trkpt><trkpt lat="44.81672122362397" lon="8.046841985149914"><ele>172.5</ele><time>2026-04-19T10:43:11.001Z</time></trkpt><trkpt lat="44.81682342242418" lon="8.046994279377785"><ele>172.25</ele><time>2026-04-19T10:43:12.001Z</time></trkpt><trkpt lat="44.81693297162251" lon="8.047138921711161"><ele>172.0</ele><time>2026-04-19T10:43:13.001Z</time></trkpt><trkpt lat="44.8170478318018" lon="8.047294176367288"><ele>172.0</ele><time>2026-04-19T10:43:14.001Z</time></trkpt><trkpt lat="44.817154372122914" lon="8.04743763779455"><ele>172.0</ele><time>2026-04-19T10:43:15.001Z</time></trkpt><trkpt lat="44.81726488212603" lon="8.047576838518982"><ele>172.0</ele><time>2026-04-19T10:43:16.001Z</time></trkpt><trkpt lat="44.817375491050115" lon="8.047712098770628"><ele>172.0</ele><time>2026-04-19T10:43:17.001Z</time></trkpt><trkpt lat="44.81747180636789" lon="8.047879778170115"><ele>172.25</ele><time>2026-04-19T10:43:18.001Z</time></trkpt><trkpt lat="44.81757046319313" lon="8.048015299371489"><ele>172.5</ele><time>2026-04-19T10:43:19.001Z</time></trkpt><trkpt lat="44.8176778765831" lon="8.048182777932677"><ele>172.75</ele><time>2026-04-19T10:43:20.001Z</time></trkpt><trkpt lat="44.81777134379123" lon="8.048324505081826"><ele>173.0</ele><time>2026-04-19T10:43:21.001Z</time></trkpt><trkpt lat="44.817861743880435" lon="8.048476444753852"><ele>173.0</ele><time>2026-04-19T10:43:22.001Z</time></trkpt><trkpt lat="44.817953529449476" lon="8.048625978112051"><ele>173.0</ele><time>2026-04-19T10:43:23.001Z</time></trkpt><trkpt lat="44.818046544057424" lon="8.048779037236095"><ele>173.0</ele><time>2026-04-19T10:43:24.001Z</time></trkpt><trkpt lat="44.818137034017404" lon="8.04892813605802"><ele>173.0</ele><time>2026-04-19T10:43:25.001Z</time></trkpt><trkpt lat="44.818228987842105" lon="8.049069762616895"><ele>173.25</ele><time>2026-04-19T10:43:26.001Z</time></trkpt><trkpt lat="44.818319651275324" lon="8.049219823622368"><ele>173.5</ele><time>2026-04-19T10:43:27.001Z</time></trkpt><trkpt lat="44.81840849704895" lon="8.049360548831281"><ele>173.75</ele><time>2026-04-19T10:43:28.001Z</time></trkpt><trkpt lat="44.81849479721383" lon="8.049497434794025"><ele>174.0</ele><time>2026-04-19T10:43:29.001Z</time></trkpt><trkpt lat="44.81858305812371" lon="8.049626494829305"><ele>174.0</ele><time>2026-04-19T10:43:30.001Z</time></trkpt><trkpt lat="44.818667161810076" lon="8.049744174133501"><ele>174.0</ele><time>2026-04-19T10:43:31.001Z</time></trkpt><trkpt lat="44.81875182465889" lon="8.049850661603074"><ele>174.0</ele><time>2026-04-19T10:43:32.001Z</time></trkpt><trkpt lat="44.8188375918679" lon="8.04993741816877"><ele>174.0</ele><time>2026-04-19T10:43:33.001Z</time></trkpt><trkpt lat="44.81891755517017" lon="8.050010931832695"><ele>174.0</ele><time>2026-04-19T10:43:34.001Z</time></trkpt><trkpt lat="44.81897764823616" lon="8.050084083171262"><ele>173.66666666666666</ele><time>2026-04-19T10:43:35.001Z</time></trkpt><trkpt lat="44.81901641465676" lon="8.05017193414325"><ele>173.33333333333334</ele><time>2026-04-19T10:43:36.001Z</time></trkpt><trkpt lat="44.819028198375456" lon="8.050284433446643"><ele>173.0</ele><time>2026-04-19T10:43:38.001Z</time></trkpt><trkpt lat="44.81902618025183" lon="8.05044898358459"><ele>172.66666666666669</ele><time>2026-04-19T10:43:40.001Z</time></trkpt><trkpt lat="44.81904150452184" lon="8.050565332435411"><ele>172.33333333333334</ele><time>2026-04-19T10:43:41.001Z</time></trkpt><trkpt lat="44.81909222690158" lon="8.050661804959057"><ele>172.0</ele><time>2026-04-19T10:43:42.001Z</time></trkpt><trkpt lat="44.8191372619764" lon="8.050758669691346"><ele>171.39999999999998</ele><time>2026-04-19T10:43:43.001Z</time></trkpt><trkpt lat="44.819133289552276" lon="8.05086947573026"><ele>170.79999999999998</ele><time>2026-04-19T10:43:44.001Z</time></trkpt><trkpt lat="44.819091002332094" lon="8.05098402541306"><ele>170.2</ele><time>2026-04-19T10:43:45.001Z</time></trkpt><trkpt lat="44.81904295760519" lon="8.051101109536882"><ele>169.6</ele><time>2026-04-19T10:43:46.001Z</time></trkpt><trkpt lat="44.81898633864409" lon="8.051213533610053"><ele>169.0</ele><time>2026-04-19T10:43:47.001Z</time></trkpt><trkpt lat="44.81893430648916" lon="8.051332337001382"><ele>169.0</ele><time>2026-04-19T10:43:48.001Z</time></trkpt><trkpt lat="44.818897830665016" lon="8.051454126261879"><ele>169.0</ele><time>2026-04-19T10:43:49.001Z</time></trkpt><trkpt lat="44.818875476604205" lon="8.051585851779647"><ele>169.0</ele><time>2026-04-19T10:43:50.001Z</time></trkpt><trkpt lat="44.81886639966568" lon="8.051726005249323"><ele>169.0</ele><time>2026-04-19T10:43:51.001Z</time></trkpt><trkpt lat="44.818854655209314" lon="8.051877837908004"><ele>169.0</ele><time>2026-04-19T10:43:52.001Z</time></trkpt><trkpt lat="44.81884103671949" lon="8.0520255394418"><ele>168.6</ele><time>2026-04-19T10:43:53.001Z</time></trkpt><trkpt lat="44.81882879423007" lon="8.052167071166657"><ele>168.2</ele><time>2026-04-19T10:43:54.001Z</time></trkpt><trkpt lat="44.81881639616922" lon="8.052304398957727"><ele>167.79999999999998</ele><time>2026-04-19T10:43:55.001Z</time></trkpt><trkpt lat="44.81880339852861" lon="8.052439246288985"><ele>167.39999999999998</ele><time>2026-04-19T10:43:56.001Z</time></trkpt><trkpt lat="44.818788477358304" lon="8.052581607424758"><ele>167.0</ele><time>2026-04-19T10:43:57.001Z</time></trkpt><trkpt lat="44.81876586866787" lon="8.05270545676575"><ele>166.6</ele><time>2026-04-19T10:43:58.001Z</time></trkpt><trkpt lat="44.81875837597995" lon="8.052836087691672"><ele>166.2</ele><time>2026-04-19T10:43:59.001Z</time></trkpt><trkpt lat="44.81875344626322" lon="8.052984819291892"><ele>165.8</ele><time>2026-04-19T10:44:00.001Z</time></trkpt><trkpt lat="44.818753467323525" lon="8.0531259454419"><ele>165.4</ele><time>2026-04-19T10:44:01.001Z</time></trkpt><trkpt lat="44.81876033081171" lon="8.05327319338249"><ele>165.0</ele><time>2026-04-19T10:44:02.001Z</time></trkpt><trkpt lat="44.81877184612588" lon="8.053423604163854"><ele>164.6</ele><time>2026-04-19T10:44:03Z</time></trkpt><trkpt lat="44.81879393986751" lon="8.053558942397704"><ele>164.2</ele><time>2026-04-19T10:44:04Z</time></trkpt><trkpt lat="44.81882248502386" lon="8.053684276875257"><ele>163.8</ele><time>2026-04-19T10:44:05Z</time></trkpt><trkpt lat="44.81885293601667" lon="8.053818613441601"><ele>163.4</ele><time>2026-04-19T10:44:06Z</time></trkpt><trkpt lat="44.81888447856679" lon="8.053961244063782"><ele>163.0</ele><time>2026-04-19T10:44:07Z</time></trkpt><trkpt lat="44.81889801538584" lon="8.054098740106667"><ele>162.60000000000002</ele><time>2026-04-19T10:44:08Z</time></trkpt><trkpt lat="44.81892778292659" lon="8.054219307476558"><ele>162.20000000000002</ele><time>2026-04-19T10:44:09Z</time></trkpt><trkpt lat="44.81896448129956" lon="8.054341081191168"><ele>161.8</ele><time>2026-04-19T10:44:10Z</time></trkpt><trkpt lat="44.81898792939664" lon="8.054458846773755"><ele>161.4</ele><time>2026-04-19T10:44:11Z</time></trkpt><trkpt lat="44.81904344679814" lon="8.05456821917054"><ele>161.0</ele><time>2026-04-19T10:44:12Z</time></trkpt><trkpt lat="44.81908369207584" lon="8.054685221265846"><ele>161.0</ele><time>2026-04-19T10:44:13Z</time></trkpt><trkpt lat="44.81912987398646" lon="8.054801606746443"><ele>161.0</ele><time>2026-04-19T10:44:14Z</time></trkpt><trkpt lat="44.81917887147527" lon="8.054917407869173"><ele>161.0</ele><time>2026-04-19T10:44:15Z</time></trkpt><trkpt lat="44.81922908528215" lon="8.055025154877761"><ele>161.0</ele><time>2026-04-19T10:44:16Z</time></trkpt><trkpt lat="44.81927835732649" lon="8.055129508190904"><ele>161.0</ele><time>2026-04-19T10:44:17Z</time></trkpt><trkpt lat="44.81932884451386" lon="8.055254925898563"><ele>161.16666666666666</ele><time>2026-04-19T10:44:18Z</time></trkpt><trkpt lat="44.819376073364985" lon="8.055364193392796"><ele>161.33333333333331</ele><time>2026-04-19T10:44:19Z</time></trkpt><trkpt lat="44.81941894091392" lon="8.055467464859156"><ele>161.5</ele><time>2026-04-19T10:44:20Z</time></trkpt><trkpt lat="44.81946170342386" lon="8.055558543385716"><ele>161.66666666666666</ele><time>2026-04-19T10:44:21Z</time></trkpt><trkpt lat="44.81950625685757" lon="8.05565637456102"><ele>161.83333333333334</ele><time>2026-04-19T10:44:22Z</time></trkpt><trkpt lat="44.81954849582604" lon="8.055757709599144"><ele>162.0</ele><time>2026-04-19T10:44:23Z</time></trkpt><trkpt lat="44.81959010592448" lon="8.055863047607886"><ele>162.0</ele><time>2026-04-19T10:44:24Z</time></trkpt><trkpt lat="44.81963669131879" lon="8.055963343116765"><ele>162.0</ele><time>2026-04-19T10:44:25Z</time></trkpt><trkpt lat="44.81967538163418" lon="8.056072498750074"><ele>162.0</ele><time>2026-04-19T10:44:26Z</time></trkpt><trkpt lat="44.81971176459676" lon="8.056174402302346"><ele>162.0</ele><time>2026-04-19T10:44:27Z</time></trkpt><trkpt lat="44.81974151678291" lon="8.05626255325541"><ele>162.0</ele><time>2026-04-19T10:44:28Z</time></trkpt><trkpt lat="44.81979631111359" lon="8.056424626198195"><ele>162.0</ele><time>2026-04-19T10:44:30Z</time></trkpt><trkpt lat="44.81983657064575" lon="8.056499996558877"><ele>161.8</ele><time>2026-04-19T10:44:31Z</time></trkpt><trkpt lat="44.81990648368547" lon="8.05665315404636"><ele>161.6</ele><time>2026-04-19T10:44:33Z</time></trkpt><trkpt lat="44.81994877428627" lon="8.056814671360662"><ele>161.4</ele><time>2026-04-19T10:44:35Z</time></trkpt><trkpt lat="44.819968713709756" lon="8.056934761820694"><ele>161.20000000000002</ele><time>2026-04-19T10:44:37Z</time></trkpt><trkpt lat="44.819995091180395" lon="8.057060265412794"><ele>161.0</ele><time>2026-04-19T10:44:40Z</time></trkpt><trkpt lat="44.82001184036321" lon="8.05717888050705"><ele>161.0</ele><time>2026-04-19T10:44:43Z</time></trkpt><trkpt lat="44.82007528003299" lon="8.05714133837027"><ele>161.0</ele><time>2026-04-19T10:44:51Z</time></trkpt><trkpt lat="44.82014957394653" lon="8.056984552221461"><ele>161.0</ele><time>2026-04-19T10:44:53Z</time></trkpt><trkpt lat="44.82012130464619" lon="8.056852528294316"><ele>161.0</ele><time>2026-04-19T10:44:55Z</time></trkpt><trkpt lat="44.81983882518803" lon="8.05679365325523"><ele>161.0</ele><time>2026-04-19T10:44:58Z</time></trkpt><trkpt lat="44.81999053682815" lon="8.05705311670559"><ele>161.0</ele><time>2026-04-19T10:45:00Z</time></trkpt><trkpt lat="44.81993572493295" lon="8.057164846580914"><ele>161.0</ele><time>2026-04-19T10:45:01Z</time></trkpt><trkpt lat="44.81996336564434" lon="8.057255838522831"><ele>161.0</ele><time>2026-04-19T10:45:02Z</time></trkpt><trkpt lat="44.81998159478883" lon="8.057348364892029"><ele>161.0</ele><time>2026-04-19T10:45:03Z</time></trkpt><trkpt lat="44.819993303174826" lon="8.05750919971316"><ele>161.0</ele><time>2026-04-19T10:45:05Z</time></trkpt><trkpt lat="44.82001698279082" lon="8.05765842369005"><ele>161.0</ele><time>2026-04-19T10:45:07.001Z</time></trkpt><trkpt lat="44.82003319630973" lon="8.057811827022979"><ele>161.0</ele><time>2026-04-19T10:45:09.001Z</time></trkpt><trkpt lat="44.820027616130965" lon="8.057955148655699"><ele>161.0</ele><time>2026-04-19T10:45:11.001Z</time></trkpt><trkpt lat="44.820037453755" lon="8.058071725760371"><ele>161.0</ele><time>2026-04-19T10:45:14.001Z</time></trkpt><trkpt lat="44.82000180536018" lon="8.057964979157493"><ele>161.0</ele><time>2026-04-19T10:45:31.001Z</time></trkpt><trkpt lat="44.81997198161822" lon="8.058050891932146"><ele>161.0</ele><time>2026-04-19T10:45:38.001Z</time></trkpt><trkpt lat="44.819890395177325" lon="8.05796175567467"><ele>161.0</ele><time>2026-04-19T10:48:22Z</time></trkpt><trkpt lat="44.819944224555826" lon="8.058029154290528"><ele>161.0</ele><time>2026-04-19T10:49:01Z</time></trkpt></trkseg></trk></gpx>